<?xml version='1.0' encoding='UTF-8'?><gpx version="1.1" creator="JPX - https://github.com/jenetics/jpx" xmlns="http://www.topografix.com/GPX/1/1"><trk><trkseg><trkpt lat="43.56855079737227" lon="11.538964954840472"><ele>135.0</ele><time>2026-04-11T12:13:49.999Z</time></trkpt><trkpt lat="43.56858164504781" lon="11.539091745907276"><ele>135.0</ele><time>2026-04-11T12:13:51.999Z</time></trkpt><trkpt lat="43.56863274260454" lon="11.539189717107522"><ele>135.0</ele><time>2026-04-11T12:13:54.999Z</time></trkpt><trkpt lat="43.56871613981064" lon="11.539100247639645"><ele>135.0</ele><time>2026-04-11T12:13:56.999Z</time></trkpt><trkpt lat="43.56881378007248" lon="11.538987203793814"><ele>135.0</ele><time>2026-04-11T12:13:58.999Z</time></trkpt><trkpt lat="43.568869623274544" lon="11.53892796184568"><ele>134.66666666666666</ele><time>2026-04-11T12:13:59.999Z</time></trkpt><trkpt lat="43.568938925477944" lon="11.538831736835725"><ele>134.33333333333334</ele><time>2026-04-11T12:14:01.999Z</time></trkpt><trkpt lat="43.56898513868971" lon="11.538757578939816"><ele>134.0</ele><time>2026-04-11T12:14:03.999Z</time></trkpt><trkpt lat="43.56904621127969" lon="11.53873203150662"><ele>133.66666666666669</ele><time>2026-04-11T12:14:06.999Z</time></trkpt><trkpt lat="43.569091741462614" lon="11.538659389713306"><ele>133.33333333333334</ele><time>2026-04-11T12:14:22.999Z</time></trkpt><trkpt lat="43.569140102657954" lon="11.538593660783409"><ele>133.0</ele><time>2026-04-11T12:14:23.999Z</time></trkpt><trkpt lat="43.56926174546914" lon="11.538513801223266"><ele>133.0</ele><time>2026-04-11T12:14:25.999Z</time></trkpt><trkpt lat="43.569340465778225" lon="11.538432603457762"><ele>133.0</ele><time>2026-04-11T12:14:27.999Z</time></trkpt><trkpt lat="43.569193321457526" lon="11.53819294888332"><ele>133.0</ele><time>2026-04-11T12:14:28.999Z</time></trkpt><trkpt lat="43.569121611185366" lon="11.538056370724629"><ele>133.0</ele><time>2026-04-11T12:14:29.999Z</time></trkpt><trkpt lat="43.56904686394168" lon="11.537900233384503"><ele>133.4</ele><time>2026-04-11T12:14:30.999Z</time></trkpt><trkpt lat="43.56896658379678" lon="11.537777433195805"><ele>133.8</ele><time>2026-04-11T12:14:31.999Z</time></trkpt><trkpt lat="43.56890385095132" lon="11.537657400979258"><ele>134.2</ele><time>2026-04-11T12:14:32.999Z</time></trkpt><trkpt lat="43.568850114686626" lon="11.53754705187299"><ele>134.6</ele><time>2026-04-11T12:14:33.999Z</time></trkpt><trkpt lat="43.56881177508995" lon="11.537462301305329"><ele>135.0</ele><time>2026-04-11T12:14:34.999Z</time></trkpt><trkpt lat="43.568823270149686" lon="11.53736181133151"><ele>135.0</ele><time>2026-04-11T12:14:36.998Z</time></trkpt><trkpt lat="43.568929962410856" lon="11.537264667455924"><ele>135.0</ele><time>2026-04-11T12:14:38.998Z</time></trkpt><trkpt lat="43.568998081909115" lon="11.537199219287558"><ele>135.0</ele><time>2026-04-11T12:14:39.998Z</time></trkpt><trkpt lat="43.56908943997162" lon="11.537106985559838"><ele>135.0</ele><time>2026-04-11T12:14:40.998Z</time></trkpt><trkpt lat="43.56919463311109" lon="11.536999527348936"><ele>135.66666666666666</ele><time>2026-04-11T12:14:41.998Z</time></trkpt><trkpt lat="43.569318081069966" lon="11.536865440164256"><ele>136.33333333333331</ele><time>2026-04-11T12:14:42.998Z</time></trkpt><trkpt lat="43.569448993604524" lon="11.536731996995778"><ele>137.0</ele><time>2026-04-11T12:14:43.998Z</time></trkpt><trkpt lat="43.56959859677954" lon="11.536595253520957"><ele>137.0</ele><time>2026-04-11T12:14:44.998Z</time></trkpt><trkpt lat="43.56973892026142" lon="11.536460681610757"><ele>137.0</ele><time>2026-04-11T12:14:45.998Z</time></trkpt><trkpt lat="43.56987144241819" lon="11.53632921005048"><ele>137.0</ele><time>2026-04-11T12:14:46.998Z</time></trkpt><trkpt lat="43.5699874146165" lon="11.53621810554145"><ele>136.5</ele><time>2026-04-11T12:14:47.998Z</time></trkpt><trkpt lat="43.570110116881274" lon="11.536098448355203"><ele>136.0</ele><time>2026-04-11T12:14:48.998Z</time></trkpt><trkpt lat="43.57022405206811" lon="11.53599134379003"><ele>135.5</ele><time>2026-04-11T12:14:49.998Z</time></trkpt><trkpt lat="43.57032875739008" lon="11.535889365650986"><ele>135.0</ele><time>2026-04-11T12:14:50.998Z</time></trkpt><trkpt lat="43.57042327217038" lon="11.535798830333984"><ele>134.6</ele><time>2026-04-11T12:14:51.998Z</time></trkpt><trkpt lat="43.570503490798885" lon="11.535725240125458"><ele>134.2</ele><time>2026-04-11T12:14:52.998Z</time></trkpt><trkpt lat="43.57058515108543" lon="11.53567967332068"><ele>133.8</ele><time>2026-04-11T12:14:54.998Z</time></trkpt><trkpt lat="43.570641321188" lon="11.535739407774418"><ele>133.4</ele><time>2026-04-11T12:14:55.998Z</time></trkpt><trkpt lat="43.57069416459575" lon="11.535860509942601"><ele>133.0</ele><time>2026-04-11T12:14:56.998Z</time></trkpt><trkpt lat="43.5707443063406" lon="11.535980798253524"><ele>133.0</ele><time>2026-04-11T12:14:57.998Z</time></trkpt><trkpt lat="43.5708178212531" lon="11.536039753217668"><ele>133.0</ele><time>2026-04-11T12:14:58.998Z</time></trkpt><trkpt lat="43.57090251469314" lon="11.536017497468473"><ele>133.0</ele><time>2026-04-11T12:14:59.998Z</time></trkpt><trkpt lat="43.57099886851819" lon="11.53592936427639"><ele>133.0</ele><time>2026-04-11T12:15:00.998Z</time></trkpt><trkpt lat="43.57109622043004" lon="11.535822887792632"><ele>133.0</ele><time>2026-04-11T12:15:01.998Z</time></trkpt><trkpt lat="43.57117359815996" lon="11.535727987990994"><ele>133.0</ele><time>2026-04-11T12:15:02.998Z</time></trkpt><trkpt lat="43.571221696080165" lon="11.53565911557891"><ele>133.0</ele><time>2026-04-11T12:15:03.998Z</time></trkpt><trkpt lat="43.57125000052943" lon="11.535565101293193"><ele>133.0</ele><time>2026-04-11T12:15:05.998Z</time></trkpt><trkpt lat="43.57119093783697" lon="11.535393752177974"><ele>133.0</ele><time>2026-04-11T12:15:07.998Z</time></trkpt><trkpt lat="43.571131659571726" lon="11.5352793311049"><ele>133.0</ele><time>2026-04-11T12:15:08.999Z</time></trkpt><trkpt lat="43.57106110560599" lon="11.53515148707648"><ele>133.0</ele><time>2026-04-11T12:15:09.999Z</time></trkpt><trkpt lat="43.57097195599816" lon="11.534985543420339"><ele>133.0</ele><time>2026-04-11T12:15:10.999Z</time></trkpt><trkpt lat="43.570871189085366" lon="11.534796270112126"><ele>133.0</ele><time>2026-04-11T12:15:11.999Z</time></trkpt><trkpt lat="43.57076353179001" lon="11.534609690715502"><ele>133.0</ele><time>2026-04-11T12:15:12.999Z</time></trkpt><trkpt lat="43.57067918618683" lon="11.53444310902842"><ele>133.0</ele><time>2026-04-11T12:15:13.999Z</time></trkpt><trkpt lat="43.570623865422576" lon="11.534316293934943"><ele>133.0</ele><time>2026-04-11T12:15:14.999Z</time></trkpt><trkpt lat="43.57059447626082" lon="11.53422045184681"><ele>133.0</ele><time>2026-04-11T12:15:15.999Z</time></trkpt><trkpt lat="43.57062005817131" lon="11.534103371702944"><ele>133.0</ele><time>2026-04-11T12:15:17.999Z</time></trkpt><trkpt lat="43.57069100472459" lon="11.53401814018516"><ele>133.0</ele><time>2026-04-11T12:15:19.999Z</time></trkpt><trkpt lat="43.57076905119536" lon="11.53396392671611"><ele>133.0</ele><time>2026-04-11T12:15:20.999Z</time></trkpt><trkpt lat="43.57085300167866" lon="11.533908942160188"><ele>133.0</ele><time>2026-04-11T12:15:21.999Z</time></trkpt><trkpt lat="43.57094874984991" lon="11.533846761152981"><ele>133.0</ele><time>2026-04-11T12:15:23Z</time></trkpt><trkpt lat="43.57107766119373" lon="11.533756215508697"><ele>133.0</ele><time>2026-04-11T12:15:24Z</time></trkpt><trkpt lat="43.57121989322654" lon="11.533656622715112"><ele>133.33333333333334</ele><time>2026-04-11T12:15:25Z</time></trkpt><trkpt lat="43.571378722402024" lon="11.53354238323731"><ele>133.66666666666666</ele><time>2026-04-11T12:15:26Z</time></trkpt><trkpt lat="43.571541067125224" lon="11.53343484465989"><ele>134.0</ele><time>2026-04-11T12:15:27Z</time></trkpt><trkpt lat="43.57168694547724" lon="11.533343674673686"><ele>134.0</ele><time>2026-04-11T12:15:27.999Z</time></trkpt><trkpt lat="43.57182803653388" lon="11.533249821193838"><ele>134.0</ele><time>2026-04-11T12:15:28.999Z</time></trkpt><trkpt lat="43.57195246941334" lon="11.533168248662632"><ele>134.0</ele><time>2026-04-11T12:15:29.999Z</time></trkpt><trkpt lat="43.5720628539638" lon="11.533100764172824"><ele>134.0</ele><time>2026-04-11T12:15:30.999Z</time></trkpt><trkpt lat="43.57216217012638" lon="11.533041296374103"><ele>133.4</ele><time>2026-04-11T12:15:31.999Z</time></trkpt><trkpt lat="43.5722484147892" lon="11.533024269073435"><ele>132.8</ele><time>2026-04-11T12:15:32.999Z</time></trkpt><trkpt lat="43.57233888859606" lon="11.533042320628518"><ele>132.2</ele><time>2026-04-11T12:15:33.999Z</time></trkpt><trkpt lat="43.57243525385234" lon="11.53307181154021"><ele>131.6</ele><time>2026-04-11T12:15:34.999Z</time></trkpt><trkpt lat="43.57252313044577" lon="11.533061954941596"><ele>131.0</ele><time>2026-04-11T12:15:35.999Z</time></trkpt><trkpt lat="43.5725943398819" lon="11.5329979745767"><ele>131.0</ele><time>2026-04-11T12:15:36.999Z</time></trkpt><trkpt lat="43.572634569477046" lon="11.532895195922176"><ele>131.0</ele><time>2026-04-11T12:15:37.999Z</time></trkpt><trkpt lat="43.57262886618386" lon="11.53276077979178"><ele>131.0</ele><time>2026-04-11T12:15:38.999Z</time></trkpt><trkpt lat="43.57257762620447" lon="11.5326449377805"><ele>131.0</ele><time>2026-04-11T12:15:39.999Z</time></trkpt><trkpt lat="43.572506000940926" lon="11.532574210619757"><ele>131.0</ele><time>2026-04-11T12:15:40.999Z</time></trkpt><trkpt lat="43.57240693947083" lon="11.532534717037093"><ele>131.5</ele><time>2026-04-11T12:15:41.999Z</time></trkpt><trkpt lat="43.57229312367181" lon="11.532506117281875"><ele>132.0</ele><time>2026-04-11T12:15:42.999Z</time></trkpt><trkpt lat="43.57218224062815" lon="11.532436887430315"><ele>132.5</ele><time>2026-04-11T12:15:43.999Z</time></trkpt><trkpt lat="43.57210255276617" lon="11.532303944278969"><ele>133.0</ele><time>2026-04-11T12:15:44.999Z</time></trkpt><trkpt lat="43.572028748567774" lon="11.532141101542244"><ele>131.66666666666669</ele><time>2026-04-11T12:15:45.999Z</time></trkpt><trkpt lat="43.57194775669415" lon="11.531958398112193"><ele>130.33333333333334</ele><time>2026-04-11T12:15:46.999Z</time></trkpt><trkpt lat="43.57184939579545" lon="11.531764366214526"><ele>129.0</ele><time>2026-04-11T12:15:47.999Z</time></trkpt><trkpt lat="43.57174627811102" lon="11.531571627987649"><ele>129.0</ele><time>2026-04-11T12:15:48.999Z</time></trkpt><trkpt lat="43.57165429997915" lon="11.531401535198773"><ele>129.0</ele><time>2026-04-11T12:15:49.999Z</time></trkpt><trkpt lat="43.57156878693322" lon="11.5312447668129"><ele>129.0</ele><time>2026-04-11T12:15:50.999Z</time></trkpt><trkpt lat="43.57149254407153" lon="11.531102341369886"><ele>129.0</ele><time>2026-04-11T12:15:51.999Z</time></trkpt><trkpt lat="43.57144113879965" lon="11.530993483723524"><ele>129.0</ele><time>2026-04-11T12:15:52.999Z</time></trkpt><trkpt lat="43.57140397767283" lon="11.53089282405668"><ele>129.0</ele><time>2026-04-11T12:15:53.999Z</time></trkpt><trkpt lat="43.571372971810575" lon="11.530796087172662"><ele>129.0</ele><time>2026-04-11T12:15:54.999Z</time></trkpt><trkpt lat="43.571337868860915" lon="11.53071802415527"><ele>129.0</ele><time>2026-04-11T12:15:55.999Z</time></trkpt><trkpt lat="43.57150019830512" lon="11.530509704343535"><ele>129.0</ele><time>2026-04-11T12:15:56.999Z</time></trkpt><trkpt lat="43.57160468965174" lon="11.530377863834303"><ele>130.66666666666666</ele><time>2026-04-11T12:15:57.999Z</time></trkpt><trkpt lat="43.57172206496437" lon="11.530250289470578"><ele>132.33333333333331</ele><time>2026-04-11T12:15:58.999Z</time></trkpt><trkpt lat="43.571844019884004" lon="11.530104865302741"><ele>134.0</ele><time>2026-04-11T12:15:59.999Z</time></trkpt><trkpt lat="43.571974184714044" lon="11.529955839430453"><ele>134.0</ele><time>2026-04-11T12:16:00.999Z</time></trkpt><trkpt lat="43.572112491987866" lon="11.52979548708284"><ele>134.0</ele><time>2026-04-11T12:16:01.999Z</time></trkpt><trkpt lat="43.572270098229446" lon="11.529643313366579"><ele>134.0</ele><time>2026-04-11T12:16:02.999Z</time></trkpt><trkpt lat="43.572419802862136" lon="11.529459352193541"><ele>134.0</ele><time>2026-04-11T12:16:03.999Z</time></trkpt><trkpt lat="43.572579149417884" lon="11.529281744236284"><ele>134.0</ele><time>2026-04-11T12:16:04.999Z</time></trkpt><trkpt lat="43.57273725092098" lon="11.529102127331559"><ele>134.0</ele><time>2026-04-11T12:16:05.999Z</time></trkpt><trkpt lat="43.57290700778188" lon="11.528941058905458"><ele>133.0</ele><time>2026-04-11T12:16:06.999Z</time></trkpt><trkpt lat="43.57306149511138" lon="11.528743485304755"><ele>132.0</ele><time>2026-04-11T12:16:07.999Z</time></trkpt><trkpt lat="43.57323105150636" lon="11.528561152509454"><ele>131.0</ele><time>2026-04-11T12:16:08.999Z</time></trkpt><trkpt lat="43.57340090058449" lon="11.52837366055353"><ele>131.0</ele><time>2026-04-11T12:16:09.999Z</time></trkpt><trkpt lat="43.57357730604329" lon="11.528182381166813"><ele>131.0</ele><time>2026-04-11T12:16:10.999Z</time></trkpt><trkpt lat="43.57375486247403" lon="11.527986373796974"><ele>131.5</ele><time>2026-04-11T12:16:11.999Z</time></trkpt><trkpt lat="43.573936731889084" lon="11.52779441009217"><ele>132.0</ele><time>2026-04-11T12:16:12.999Z</time></trkpt><trkpt lat="43.574116608297544" lon="11.527600946443917"><ele>132.0</ele><time>2026-04-11T12:16:13.999Z</time></trkpt><trkpt lat="43.57429643219133" lon="11.527407571262195"><ele>132.0</ele><time>2026-04-11T12:16:14.999Z</time></trkpt><trkpt lat="43.57447475861452" lon="11.52721216098325"><ele>132.0</ele><time>2026-04-11T12:16:15.999Z</time></trkpt><trkpt lat="43.57464848279935" lon="11.527015270774433"><ele>132.0</ele><time>2026-04-11T12:16:16.999Z</time></trkpt><trkpt lat="43.57482426634503" lon="11.526820453431833"><ele>132.0</ele><time>2026-04-11T12:16:17.999Z</time></trkpt><trkpt lat="43.5750017370071" lon="11.526627392035474"><ele>132.0</ele><time>2026-04-11T12:16:18.999Z</time></trkpt><trkpt lat="43.57517616548453" lon="11.52643881691486"><ele>132.0</ele><time>2026-04-11T12:16:19.999Z</time></trkpt><trkpt lat="43.57534737033343" lon="11.52625503571998"><ele>132.33333333333334</ele><time>2026-04-11T12:16:20.999Z</time></trkpt><trkpt lat="43.57552215530512" lon="11.526064889142338"><ele>132.66666666666669</ele><time>2026-04-11T12:16:21.999Z</time></trkpt><trkpt lat="43.57569893039674" lon="11.525868966608547"><ele>133.0</ele><time>2026-04-11T12:16:22.999Z</time></trkpt><trkpt lat="43.57586447074115" lon="11.525687946279982"><ele>133.0</ele><time>2026-04-11T12:16:23.999Z</time></trkpt><trkpt lat="43.57600750975645" lon="11.525531478802744"><ele>133.0</ele><time>2026-04-11T12:16:24.999Z</time></trkpt><trkpt lat="43.576146166676736" lon="11.525377763867967"><ele>133.0</ele><time>2026-04-11T12:16:25.999Z</time></trkpt><trkpt lat="43.576291733474065" lon="11.525220212152686"><ele>133.0</ele><time>2026-04-11T12:16:26.999Z</time></trkpt><trkpt lat="43.576436057655705" lon="11.525067487400884"><ele>133.0</ele><time>2026-04-11T12:16:27.999Z</time></trkpt><trkpt lat="43.576590794693026" lon="11.524907921147337"><ele>133.0</ele><time>2026-04-11T12:16:28.999Z</time></trkpt><trkpt lat="43.576744541519204" lon="11.524744309487062"><ele>133.0</ele><time>2026-04-11T12:16:29.999Z</time></trkpt><trkpt lat="43.57689954504197" lon="11.524575744574813"><ele>133.0</ele><time>2026-04-11T12:16:30.999Z</time></trkpt><trkpt lat="43.57705227004838" lon="11.524409014463954"><ele>133.0</ele><time>2026-04-11T12:16:31.999Z</time></trkpt><trkpt lat="43.577195571850886" lon="11.524248894639358"><ele>132.0</ele><time>2026-04-11T12:16:32.999Z</time></trkpt><trkpt lat="43.57732086448951" lon="11.524107751942118"><ele>131.0</ele><time>2026-04-11T12:16:33.999Z</time></trkpt><trkpt lat="43.57744184182123" lon="11.523968552878705"><ele>130.0</ele><time>2026-04-11T12:16:34.999Z</time></trkpt><trkpt lat="43.577547946832375" lon="11.523841590323077"><ele>130.0</ele><time>2026-04-11T12:16:35.999Z</time></trkpt><trkpt lat="43.57763690493897" lon="11.523718073131603"><ele>130.0</ele><time>2026-04-11T12:16:36.999Z</time></trkpt><trkpt lat="43.57772184695979" lon="11.523595912466304"><ele>130.0</ele><time>2026-04-11T12:16:37.999Z</time></trkpt><trkpt lat="43.577827206893" lon="11.523466845549441"><ele>130.0</ele><time>2026-04-11T12:16:38.999Z</time></trkpt><trkpt lat="43.577949282668314" lon="11.523330890024873"><ele>130.33333333333334</ele><time>2026-04-11T12:16:39.999Z</time></trkpt><trkpt lat="43.57808103124884" lon="11.52319249730917"><ele>130.66666666666666</ele><time>2026-04-11T12:16:40.999Z</time></trkpt><trkpt lat="43.57823664145495" lon="11.523095421138832"><ele>131.0</ele><time>2026-04-11T12:16:41.999Z</time></trkpt><trkpt lat="43.57837409030836" lon="11.522970139949928"><ele>130.66666666666666</ele><time>2026-04-11T12:16:42.999Z</time></trkpt><trkpt lat="43.578523273269084" lon="11.522830323365246"><ele>130.33333333333334</ele><time>2026-04-11T12:16:43.998Z</time></trkpt><trkpt lat="43.578667540307805" lon="11.522664606526659"><ele>130.0</ele><time>2026-04-11T12:16:44.998Z</time></trkpt><trkpt lat="43.57881713028266" lon="11.522493352643075"><ele>129.66666666666669</ele><time>2026-04-11T12:16:45.998Z</time></trkpt><trkpt lat="43.5789673241515" lon="11.522324964006852"><ele>129.33333333333334</ele><time>2026-04-11T12:16:46.998Z</time></trkpt><trkpt lat="43.57912065689797" lon="11.52215251696463"><ele>129.0</ele><time>2026-04-11T12:16:47.998Z</time></trkpt><trkpt lat="43.57928170006883" lon="11.52197485388322"><ele>129.0</ele><time>2026-04-11T12:16:48.998Z</time></trkpt><trkpt lat="43.57944683442108" lon="11.52179147251283"><ele>129.0</ele><time>2026-04-11T12:16:49.998Z</time></trkpt><trkpt lat="43.57960992083416" lon="11.521609086829478"><ele>129.0</ele><time>2026-04-11T12:16:50.998Z</time></trkpt><trkpt lat="43.57977394608481" lon="11.521429055434867"><ele>129.33333333333334</ele><time>2026-04-11T12:16:51.998Z</time></trkpt><trkpt lat="43.5799365496427" lon="11.521253642468212"><ele>129.66666666666669</ele><time>2026-04-11T12:16:52.998Z</time></trkpt><trkpt lat="43.58010215892535" lon="11.52107866871578"><ele>130.0</ele><time>2026-04-11T12:16:53.998Z</time></trkpt><trkpt lat="43.580265422436064" lon="11.520903360241675"><ele>130.0</ele><time>2026-04-11T12:16:54.998Z</time></trkpt><trkpt lat="43.5804254154178" lon="11.520729414852326"><ele>130.0</ele><time>2026-04-11T12:16:55.998Z</time></trkpt><trkpt lat="43.580584384480424" lon="11.520556544802595"><ele>130.0</ele><time>2026-04-11T12:16:56.998Z</time></trkpt><trkpt lat="43.58074076561751" lon="11.520383211597922"><ele>130.0</ele><time>2026-04-11T12:16:57.998Z</time></trkpt><trkpt lat="43.58090006896452" lon="11.520207755826824"><ele>130.0</ele><time>2026-04-11T12:16:58.998Z</time></trkpt><trkpt lat="43.581060102726774" lon="11.520036952104816"><ele>130.0</ele><time>2026-04-11T12:16:59.998Z</time></trkpt><trkpt lat="43.58122022701481" lon="11.519864572174166"><ele>129.66666666666669</ele><time>2026-04-11T12:17:00.998Z</time></trkpt><trkpt lat="43.581376281822486" lon="11.519683371987975"><ele>129.33333333333334</ele><time>2026-04-11T12:17:01.998Z</time></trkpt><trkpt lat="43.58153404333446" lon="11.519496796808799"><ele>129.0</ele><time>2026-04-11T12:17:02.998Z</time></trkpt><trkpt lat="43.581685248315615" lon="11.519315032213893"><ele>128.66666666666666</ele><time>2026-04-11T12:17:03.998Z</time></trkpt><trkpt lat="43.58182049517502" lon="11.519154418351897"><ele>128.33333333333331</ele><time>2026-04-11T12:17:04.998Z</time></trkpt><trkpt lat="43.58195180442049" lon="11.518968163759924"><ele>128.0</ele><time>2026-04-11T12:17:05.998Z</time></trkpt><trkpt lat="43.58207132421876" lon="11.518751011155382"><ele>128.33333333333331</ele><time>2026-04-11T12:17:06.998Z</time></trkpt><trkpt lat="43.58218420756428" lon="11.518520951819397"><ele>128.66666666666666</ele><time>2026-04-11T12:17:07.998Z</time></trkpt><trkpt lat="43.582291038536816" lon="11.518296093964441"><ele>129.0</ele><time>2026-04-11T12:17:08.998Z</time></trkpt><trkpt lat="43.58238700818249" lon="11.518062143155033"><ele>129.0</ele><time>2026-04-11T12:17:09.998Z</time></trkpt><trkpt lat="43.58247239495267" lon="11.51781809907998"><ele>129.0</ele><time>2026-04-11T12:17:10.998Z</time></trkpt><trkpt lat="43.5825476725886" lon="11.517558448765044"><ele>129.0</ele><time>2026-04-11T12:17:11.998Z</time></trkpt><trkpt lat="43.5826136129008" lon="11.517289189188029"><ele>128.66666666666666</ele><time>2026-04-11T12:17:12.998Z</time></trkpt><trkpt lat="43.58266765967956" lon="11.517015106054641"><ele>128.33333333333331</ele><time>2026-04-11T12:17:13.998Z</time></trkpt><trkpt lat="43.582708304006" lon="11.516740746633705"><ele>128.0</ele><time>2026-04-11T12:17:15Z</time></trkpt><trkpt lat="43.5827370893406" lon="11.516459832402356"><ele>128.33333333333331</ele><time>2026-04-11T12:17:16Z</time></trkpt><trkpt lat="43.58275690059948" lon="11.516178111602464"><ele>128.66666666666666</ele><time>2026-04-11T12:17:17Z</time></trkpt><trkpt lat="43.58277631647524" lon="11.515889847803502"><ele>129.0</ele><time>2026-04-11T12:17:18Z</time></trkpt><trkpt lat="43.582796255076715" lon="11.515603094580284"><ele>128.66666666666666</ele><time>2026-04-11T12:17:19Z</time></trkpt><trkpt lat="43.58281589705716" lon="11.515316321530088"><ele>128.33333333333331</ele><time>2026-04-11T12:17:20Z</time></trkpt><trkpt lat="43.58283757626625" lon="11.515029182925828"><ele>128.0</ele><time>2026-04-11T12:17:21Z</time></trkpt><trkpt lat="43.58286098370897" lon="11.514740613997272"><ele>128.0</ele><time>2026-04-11T12:17:22Z</time></trkpt><trkpt lat="43.582883244791866" lon="11.514450495890319"><ele>128.0</ele><time>2026-04-11T12:17:23Z</time></trkpt><trkpt lat="43.582904986117526" lon="11.514162231498874"><ele>128.0</ele><time>2026-04-11T12:17:24Z</time></trkpt><trkpt lat="43.582926138025826" lon="11.513871362941714"><ele>127.66666666666666</ele><time>2026-04-11T12:17:25Z</time></trkpt><trkpt lat="43.58294723375218" lon="11.513574526622964"><ele>127.33333333333334</ele><time>2026-04-11T12:17:26Z</time></trkpt><trkpt lat="43.582968001944586" lon="11.51328054375221"><ele>127.0</ele><time>2026-04-11T12:17:27Z</time></trkpt><trkpt lat="43.582989624017436" lon="11.512984143843047"><ele>127.33333333333334</ele><time>2026-04-11T12:17:28Z</time></trkpt><trkpt lat="43.58301221265946" lon="11.512692220775765"><ele>127.66666666666666</ele><time>2026-04-11T12:17:29Z</time></trkpt><trkpt lat="43.58303473242166" lon="11.512401339019071"><ele>128.0</ele><time>2026-04-11T12:17:30Z</time></trkpt><trkpt lat="43.58305668319708" lon="11.51210527481532"><ele>128.0</ele><time>2026-04-11T12:17:31Z</time></trkpt><trkpt lat="43.58307622572886" lon="11.5118154345341"><ele>128.0</ele><time>2026-04-11T12:17:32Z</time></trkpt><trkpt lat="43.583096456371926" lon="11.511520797113205"><ele>128.0</ele><time>2026-04-11T12:17:33Z</time></trkpt><trkpt lat="43.58311705725543" lon="11.511225493827828"><ele>128.33333333333331</ele><time>2026-04-11T12:17:34Z</time></trkpt><trkpt lat="43.583138707447695" lon="11.510932283140116"><ele>128.66666666666666</ele><time>2026-04-11T12:17:35Z</time></trkpt><trkpt lat="43.5831607684634" lon="11.510643773208658"><ele>129.0</ele><time>2026-04-11T12:17:36Z</time></trkpt><trkpt lat="43.58318351480735" lon="11.510353000630829"><ele>129.33333333333334</ele><time>2026-04-11T12:17:37Z</time></trkpt><trkpt lat="43.58320357120195" lon="11.510063620001615"><ele>129.66666666666669</ele><time>2026-04-11T12:17:38Z</time></trkpt><trkpt lat="43.58322201079582" lon="11.509793337482023"><ele>130.0</ele><time>2026-04-11T12:17:39Z</time></trkpt><trkpt lat="43.58324437932033" lon="11.509521683364659"><ele>130.0</ele><time>2026-04-11T12:17:40Z</time></trkpt><trkpt lat="43.58327102336541" lon="11.509251488157696"><ele>130.0</ele><time>2026-04-11T12:17:41Z</time></trkpt><trkpt lat="43.58330798389924" lon="11.508987547169411"><ele>130.0</ele><time>2026-04-11T12:17:42Z</time></trkpt><trkpt lat="43.58336056343708" lon="11.508736022641017"><ele>130.0</ele><time>2026-04-11T12:17:43Z</time></trkpt><trkpt lat="43.583419221634735" lon="11.508506125996233"><ele>130.0</ele><time>2026-04-11T12:17:44Z</time></trkpt><trkpt lat="43.58347755244964" lon="11.508293911454304"><ele>130.0</ele><time>2026-04-11T12:17:45Z</time></trkpt><trkpt lat="43.58353017657259" lon="11.50812625196487"><ele>130.0</ele><time>2026-04-11T12:17:46Z</time></trkpt><trkpt lat="43.583585589680304" lon="11.507958012655683"><ele>130.0</ele><time>2026-04-11T12:17:47Z</time></trkpt><trkpt lat="43.58367668995716" lon="11.507780245922497"><ele>130.0</ele><time>2026-04-11T12:17:48Z</time></trkpt><trkpt lat="43.583765395022496" lon="11.507578874815596"><ele>129.33333333333334</ele><time>2026-04-11T12:17:49Z</time></trkpt><trkpt lat="43.58387070624739" lon="11.507354955816302"><ele>128.66666666666666</ele><time>2026-04-11T12:17:50Z</time></trkpt><trkpt lat="43.583979187179985" lon="11.50713149440337"><ele>128.0</ele><time>2026-04-11T12:17:51Z</time></trkpt><trkpt lat="43.58407236803223" lon="11.506901847200595"><ele>129.33333333333331</ele><time>2026-04-11T12:17:52Z</time></trkpt><trkpt lat="43.58417637270997" lon="11.506691286241903"><ele>130.66666666666666</ele><time>2026-04-11T12:17:53Z</time></trkpt><trkpt lat="43.58428411192626" lon="11.506479830518112"><ele>132.0</ele><time>2026-04-11T12:17:54Z</time></trkpt><trkpt lat="43.58439681974141" lon="11.506255728008277"><ele>132.33333333333334</ele><time>2026-04-11T12:17:55Z</time></trkpt><trkpt lat="43.58451231987545" lon="11.506025129581047"><ele>132.66666666666669</ele><time>2026-04-11T12:17:56Z</time></trkpt><trkpt lat="43.58463666226695" lon="11.505790417856078"><ele>133.0</ele><time>2026-04-11T12:17:57Z</time></trkpt><trkpt lat="43.5847708764537" lon="11.505549361957964"><ele>132.0</ele><time>2026-04-11T12:17:58Z</time></trkpt><trkpt lat="43.5849080860874" lon="11.505325174349919"><ele>131.0</ele><time>2026-04-11T12:17:59Z</time></trkpt><trkpt lat="43.58506807055838" lon="11.505105285640266"><ele>130.0</ele><time>2026-04-11T12:18:00Z</time></trkpt><trkpt lat="43.58523244842917" lon="11.504900796838605"><ele>130.0</ele><time>2026-04-11T12:18:01Z</time></trkpt><trkpt lat="43.58541910688769" lon="11.504740348054039"><ele>130.0</ele><time>2026-04-11T12:18:02Z</time></trkpt><trkpt lat="43.58560985732709" lon="11.50458763608198"><ele>130.0</ele><time>2026-04-11T12:18:03Z</time></trkpt><trkpt lat="43.58579825087517" lon="11.504432900341092"><ele>130.0</ele><time>2026-04-11T12:18:04Z</time></trkpt><trkpt lat="43.58599638442877" lon="11.5043156962039"><ele>130.0</ele><time>2026-04-11T12:18:05Z</time></trkpt><trkpt lat="43.586188270397095" lon="11.504227283021471"><ele>130.0</ele><time>2026-04-11T12:18:06Z</time></trkpt><trkpt lat="43.586383864323" lon="11.504167300987804"><ele>129.66666666666669</ele><time>2026-04-11T12:18:07Z</time></trkpt><trkpt lat="43.58657886205209" lon="11.504102684596347"><ele>129.33333333333334</ele><time>2026-04-11T12:18:07.999Z</time></trkpt><trkpt lat="43.58676557712036" lon="11.504007165335318"><ele>129.0</ele><time>2026-04-11T12:18:08.999Z</time></trkpt><trkpt lat="43.58693745823087" lon="11.503860167387556"><ele>129.33333333333334</ele><time>2026-04-11T12:18:09.999Z</time></trkpt><trkpt lat="43.587102329662" lon="11.503678769247957"><ele>129.66666666666669</ele><time>2026-04-11T12:18:10.999Z</time></trkpt><trkpt lat="43.58727024418939" lon="11.50347988141065"><ele>130.0</ele><time>2026-04-11T12:18:11.999Z</time></trkpt><trkpt lat="43.58744525891372" lon="11.50329125710268"><ele>130.0</ele><time>2026-04-11T12:18:12.999Z</time></trkpt><trkpt lat="43.58762618277594" lon="11.503100206868215"><ele>130.0</ele><time>2026-04-11T12:18:13.999Z</time></trkpt><trkpt lat="43.58780082091627" lon="11.502917790059024"><ele>130.0</ele><time>2026-04-11T12:18:14.999Z</time></trkpt><trkpt lat="43.58794900243125" lon="11.502766652807802"><ele>130.33333333333334</ele><time>2026-04-11T12:18:15.999Z</time></trkpt><trkpt lat="43.58809663373714" lon="11.50261971692238"><ele>130.66666666666666</ele><time>2026-04-11T12:18:16.999Z</time></trkpt><trkpt lat="43.58824059851734" lon="11.502468654671876"><ele>131.0</ele><time>2026-04-11T12:18:17.999Z</time></trkpt><trkpt lat="43.58838467369207" lon="11.502335955040264"><ele>131.0</ele><time>2026-04-11T12:18:18.999Z</time></trkpt><trkpt lat="43.588543746266026" lon="11.50224608710054"><ele>131.0</ele><time>2026-04-11T12:18:19.999Z</time></trkpt><trkpt lat="43.58870580935861" lon="11.502199866750086"><ele>131.0</ele><time>2026-04-11T12:18:20.999Z</time></trkpt><trkpt lat="43.58886238328404" lon="11.502181942664004"><ele>130.33333333333331</ele><time>2026-04-11T12:18:21.999Z</time></trkpt><trkpt lat="43.58902885699894" lon="11.502180191022434"><ele>129.66666666666666</ele><time>2026-04-11T12:18:22.999Z</time></trkpt><trkpt lat="43.589213578876645" lon="11.502183767476174"><ele>129.0</ele><time>2026-04-11T12:18:23.999Z</time></trkpt><trkpt lat="43.58940467944929" lon="11.502176729856316"><ele>128.66666666666666</ele><time>2026-04-11T12:18:24.999Z</time></trkpt><trkpt lat="43.5895802987127" lon="11.50216487156335"><ele>128.33333333333331</ele><time>2026-04-11T12:18:25.999Z</time></trkpt><trkpt lat="43.58976553683033" lon="11.502157668738889"><ele>128.0</ele><time>2026-04-11T12:18:26.999Z</time></trkpt><trkpt lat="43.589965995150365" lon="11.502162746607205"><ele>128.0</ele><time>2026-04-11T12:18:27.999Z</time></trkpt><trkpt lat="43.5901790611532" lon="11.50216118580084"><ele>128.0</ele><time>2026-04-11T12:18:28.999Z</time></trkpt><trkpt lat="43.5903955263974" lon="11.502152589304261"><ele>128.0</ele><time>2026-04-11T12:18:29.999Z</time></trkpt><trkpt lat="43.59061912955339" lon="11.50214694374154"><ele>127.5</ele><time>2026-04-11T12:18:30.999Z</time></trkpt><trkpt lat="43.59084707471639" lon="11.502138906132355"><ele>127.0</ele><time>2026-04-11T12:18:31.999Z</time></trkpt><trkpt lat="43.59107617620591" lon="11.502138121147112"><ele>127.0</ele><time>2026-04-11T12:18:32.999Z</time></trkpt><trkpt lat="43.59130957131112" lon="11.502140394729187"><ele>127.0</ele><time>2026-04-11T12:18:33.999Z</time></trkpt><trkpt lat="43.59154717132059" lon="11.502146526653998"><ele>127.0</ele><time>2026-04-11T12:18:34.999Z</time></trkpt><trkpt lat="43.591763444673" lon="11.50212027210303"><ele>127.0</ele><time>2026-04-11T12:18:35.999Z</time></trkpt><trkpt lat="43.59196826831561" lon="11.502040285776605"><ele>127.0</ele><time>2026-04-11T12:18:36.999Z</time></trkpt><trkpt lat="43.592149302506414" lon="11.501904570995402"><ele>128.33333333333334</ele><time>2026-04-11T12:18:37.999Z</time></trkpt><trkpt lat="43.59232328906298" lon="11.501736139989745"><ele>129.66666666666666</ele><time>2026-04-11T12:18:38.999Z</time></trkpt><trkpt lat="43.59249685524104" lon="11.501550490359355"><ele>131.0</ele><time>2026-04-11T12:18:39.999Z</time></trkpt><trkpt lat="43.59266911900404" lon="11.501368293503106"><ele>130.0</ele><time>2026-04-11T12:18:40.999Z</time></trkpt><trkpt lat="43.59284201600042" lon="11.501194866858201"><ele>129.0</ele><time>2026-04-11T12:18:41.999Z</time></trkpt><trkpt lat="43.59301669728969" lon="11.501027989549975"><ele>128.0</ele><time>2026-04-11T12:18:42.999Z</time></trkpt><trkpt lat="43.59319180365077" lon="11.500863698847622"><ele>128.0</ele><time>2026-04-11T12:18:43.999Z</time></trkpt><trkpt lat="43.593364384055576" lon="11.500704081141016"><ele>128.0</ele><time>2026-04-11T12:18:44.999Z</time></trkpt><trkpt lat="43.59352207807517" lon="11.500548521901502"><ele>128.0</ele><time>2026-04-11T12:18:45.999Z</time></trkpt><trkpt lat="43.59367803604469" lon="11.50039026950314"><ele>128.0</ele><time>2026-04-11T12:18:46.999Z</time></trkpt><trkpt lat="43.5938208816373" lon="11.50022676316525"><ele>128.0</ele><time>2026-04-11T12:18:47.999Z</time></trkpt><trkpt lat="43.593944734355006" lon="11.50005314215075"><ele>128.0</ele><time>2026-04-11T12:18:48.999Z</time></trkpt><trkpt lat="43.59405320563767" lon="11.499852200476735"><ele>128.0</ele><time>2026-04-11T12:18:49.999Z</time></trkpt><trkpt lat="43.59415370344102" lon="11.49963611452112"><ele>128.0</ele><time>2026-04-11T12:18:50.999Z</time></trkpt><trkpt lat="43.594250878908404" lon="11.499405319517365"><ele>128.0</ele><time>2026-04-11T12:18:51.999Z</time></trkpt><trkpt lat="43.59435643272192" lon="11.499157070711533"><ele>128.66666666666666</ele><time>2026-04-11T12:18:52.999Z</time></trkpt><trkpt lat="43.594483520308295" lon="11.498898957115166"><ele>129.33333333333334</ele><time>2026-04-11T12:18:53.999Z</time></trkpt><trkpt lat="43.594592652018285" lon="11.498639568569814"><ele>130.0</ele><time>2026-04-11T12:18:54.999Z</time></trkpt><trkpt lat="43.59469899130484" lon="11.498394089032523"><ele>130.0</ele><time>2026-04-11T12:18:55.999Z</time></trkpt><trkpt lat="43.59478636218454" lon="11.49816128479146"><ele>130.0</ele><time>2026-04-11T12:18:56.999Z</time></trkpt><trkpt lat="43.594879093355715" lon="11.497951229044304"><ele>130.0</ele><time>2026-04-11T12:18:57.999Z</time></trkpt><trkpt lat="43.59497180882883" lon="11.497743973176007"><ele>130.66666666666669</ele><time>2026-04-11T12:18:58.999Z</time></trkpt><trkpt lat="43.595065612167566" lon="11.497536449994529"><ele>131.33333333333334</ele><time>2026-04-11T12:18:59.999Z</time></trkpt><trkpt lat="43.59518668500861" lon="11.49735875274567"><ele>132.0</ele><time>2026-04-11T12:19:00.999Z</time></trkpt><trkpt lat="43.59532043693715" lon="11.497187035301042"><ele>132.0</ele><time>2026-04-11T12:19:01.999Z</time></trkpt><trkpt lat="43.59545230869112" lon="11.497021131453673"><ele>132.0</ele><time>2026-04-11T12:19:02.999Z</time></trkpt><trkpt lat="43.59560426543683" lon="11.496897817972505"><ele>132.0</ele><time>2026-04-11T12:19:03.999Z</time></trkpt><trkpt lat="43.595740151005636" lon="11.496763392663631"><ele>132.0</ele><time>2026-04-11T12:19:04.998Z</time></trkpt><trkpt lat="43.595854081722585" lon="11.496637415246887"><ele>132.0</ele><time>2026-04-11T12:19:05.998Z</time></trkpt><trkpt lat="43.59595168629063" lon="11.496513312944359"><ele>132.0</ele><time>2026-04-11T12:19:06.998Z</time></trkpt><trkpt lat="43.59604553799701" lon="11.496379202310798"><ele>132.0</ele><time>2026-04-11T12:19:07.998Z</time></trkpt><trkpt lat="43.596132003459076" lon="11.496199353592642"><ele>131.0</ele><time>2026-04-11T12:19:08.998Z</time></trkpt><trkpt lat="43.59622754271804" lon="11.49598155459399"><ele>130.0</ele><time>2026-04-11T12:19:09.998Z</time></trkpt><trkpt lat="43.59632523144058" lon="11.495762252167411"><ele>129.0</ele><time>2026-04-11T12:19:10.998Z</time></trkpt><trkpt lat="43.596435764762035" lon="11.495527538779104"><ele>129.33333333333334</ele><time>2026-04-11T12:19:11.998Z</time></trkpt><trkpt lat="43.59654489296203" lon="11.49529799493115"><ele>129.66666666666669</ele><time>2026-04-11T12:19:12.998Z</time></trkpt><trkpt lat="43.59664896107114" lon="11.495067791696005"><ele>130.0</ele><time>2026-04-11T12:19:13.998Z</time></trkpt><trkpt lat="43.596743120191256" lon="11.494827085841301"><ele>130.0</ele><time>2026-04-11T12:19:14.998Z</time></trkpt><trkpt lat="43.59682953673089" lon="11.494595193503262"><ele>130.0</ele><time>2026-04-11T12:19:15.998Z</time></trkpt><trkpt lat="43.59691876118488" lon="11.49437729850359"><ele>130.0</ele><time>2026-04-11T12:19:16.998Z</time></trkpt><trkpt lat="43.59702630495805" lon="11.494182439949395"><ele>129.33333333333334</ele><time>2026-04-11T12:19:17.998Z</time></trkpt><trkpt lat="43.597175208680845" lon="11.494028136229296"><ele>128.66666666666666</ele><time>2026-04-11T12:19:18.998Z</time></trkpt><trkpt lat="43.59730981581002" lon="11.493874652328566"><ele>128.0</ele><time>2026-04-11T12:19:19.998Z</time></trkpt><trkpt lat="43.59746615326627" lon="11.493747319322196"><ele>128.0</ele><time>2026-04-11T12:19:21.001Z</time></trkpt><trkpt lat="43.59762346737413" lon="11.4936001524905"><ele>128.0</ele><time>2026-04-11T12:19:22.001Z</time></trkpt><trkpt lat="43.59777752473245" lon="11.493440474260353"><ele>128.0</ele><time>2026-04-11T12:19:23.001Z</time></trkpt><trkpt lat="43.59793254209872" lon="11.493273235894355"><ele>128.0</ele><time>2026-04-11T12:19:24.001Z</time></trkpt><trkpt lat="43.598090946946996" lon="11.493105267738525"><ele>128.0</ele><time>2026-04-11T12:19:25.001Z</time></trkpt><trkpt lat="43.598246441327476" lon="11.49293816922984"><ele>128.0</ele><time>2026-04-11T12:19:26.001Z</time></trkpt><trkpt lat="43.59840381669943" lon="11.492764284715431"><ele>128.33333333333331</ele><time>2026-04-11T12:19:27.001Z</time></trkpt><trkpt lat="43.59856262053233" lon="11.492585377476459"><ele>128.66666666666666</ele><time>2026-04-11T12:19:28.001Z</time></trkpt><trkpt lat="43.59873011641545" lon="11.492405938763362"><ele>129.0</ele><time>2026-04-11T12:19:29Z</time></trkpt><trkpt lat="43.59891593388758" lon="11.492222468118861"><ele>129.0</ele><time>2026-04-11T12:19:30Z</time></trkpt><trkpt lat="43.59910755427476" lon="11.492050681433568"><ele>129.0</ele><time>2026-04-11T12:19:31Z</time></trkpt><trkpt lat="43.59930048146606" lon="11.49189192714546"><ele>129.0</ele><time>2026-04-11T12:19:32Z</time></trkpt><trkpt lat="43.59948671317327" lon="11.491739024574246"><ele>129.0</ele><time>2026-04-11T12:19:33Z</time></trkpt><trkpt lat="43.59965769840055" lon="11.49160570481793"><ele>129.0</ele><time>2026-04-11T12:19:34Z</time></trkpt><trkpt lat="43.59981403927743" lon="11.491492141834563"><ele>129.0</ele><time>2026-04-11T12:19:35Z</time></trkpt><trkpt lat="43.59995750706622" lon="11.49138425352923"><ele>129.0</ele><time>2026-04-11T12:19:36Z</time></trkpt><trkpt lat="43.600084038968404" lon="11.491271768833686"><ele>129.0</ele><time>2026-04-11T12:19:37Z</time></trkpt><trkpt lat="43.60019746521462" lon="11.491145316505476"><ele>129.0</ele><time>2026-04-11T12:19:38Z</time></trkpt><trkpt lat="43.60029848499306" lon="11.49101436547748"><ele>129.0</ele><time>2026-04-11T12:19:39Z</time></trkpt><trkpt lat="43.60038484662824" lon="11.490896912062098"><ele>129.0</ele><time>2026-04-11T12:19:40Z</time></trkpt><trkpt lat="43.60047238696803" lon="11.490770511493004"><ele>129.0</ele><time>2026-04-11T12:19:41Z</time></trkpt><trkpt lat="43.60056161034311" lon="11.490639235718383"><ele>128.75</ele><time>2026-04-11T12:19:42Z</time></trkpt><trkpt lat="43.60065569200696" lon="11.490499454437716"><ele>128.5</ele><time>2026-04-11T12:19:43Z</time></trkpt><trkpt lat="43.60074479363688" lon="11.490360700643276"><ele>128.25</ele><time>2026-04-11T12:19:44Z</time></trkpt><trkpt lat="43.60084211627855" lon="11.490225130581983"><ele>128.0</ele><time>2026-04-11T12:19:45Z</time></trkpt><trkpt lat="43.60093869699024" lon="11.490099639633872"><ele>128.0</ele><time>2026-04-11T12:19:46Z</time></trkpt><trkpt lat="43.60102949746611" lon="11.489971654477293"><ele>128.0</ele><time>2026-04-11T12:19:47Z</time></trkpt><trkpt lat="43.6011159897326" lon="11.48984743155172"><ele>128.0</ele><time>2026-04-11T12:19:48Z</time></trkpt><trkpt lat="43.60119997515045" lon="11.489728784169433"><ele>128.0</ele><time>2026-04-11T12:19:49Z</time></trkpt><trkpt lat="43.60128900353001" lon="11.489612207457961"><ele>129.75</ele><time>2026-04-11T12:19:50Z</time></trkpt><trkpt lat="43.60138677746677" lon="11.489498247308665"><ele>131.5</ele><time>2026-04-11T12:19:51Z</time></trkpt><trkpt lat="43.60150256386124" lon="11.489402609705685"><ele>133.25</ele><time>2026-04-11T12:19:52Z</time></trkpt><trkpt lat="43.601624518496045" lon="11.48932523669387"><ele>135.0</ele><time>2026-04-11T12:19:53Z</time></trkpt><trkpt lat="43.60176432232395" lon="11.489293425903204"><ele>135.0</ele><time>2026-04-11T12:19:54Z</time></trkpt><trkpt lat="43.60191891575497" lon="11.489284101526218"><ele>135.0</ele><time>2026-04-11T12:19:55Z</time></trkpt><trkpt lat="43.60206810272227" lon="11.489312165841278"><ele>135.0</ele><time>2026-04-11T12:19:56Z</time></trkpt><trkpt lat="43.60220813406405" lon="11.489334893249326"><ele>135.0</ele><time>2026-04-11T12:19:57Z</time></trkpt><trkpt lat="43.60235296400921" lon="11.489329772784032"><ele>135.66666666666666</ele><time>2026-04-11T12:19:58Z</time></trkpt><trkpt lat="43.60251416771914" lon="11.489348047410521"><ele>136.33333333333331</ele><time>2026-04-11T12:19:59Z</time></trkpt><trkpt lat="43.602679505628885" lon="11.489362733982265"><ele>137.0</ele><time>2026-04-11T12:20:00Z</time></trkpt><trkpt lat="43.602836822936275" lon="11.489364067323054"><ele>137.25</ele><time>2026-04-11T12:20:01Z</time></trkpt><trkpt lat="43.60299465384993" lon="11.489365081684177"><ele>137.5</ele><time>2026-04-11T12:20:02Z</time></trkpt><trkpt lat="43.603137846250924" lon="11.489358495066995"><ele>137.75</ele><time>2026-04-11T12:20:03Z</time></trkpt><trkpt lat="43.6032723294596" lon="11.489347435137894"><ele>138.0</ele><time>2026-04-11T12:20:04Z</time></trkpt><trkpt lat="43.60340462105556" lon="11.489329344830468"><ele>138.0</ele><time>2026-04-11T12:20:05Z</time></trkpt><trkpt lat="43.603521586717356" lon="11.489291934388595"><ele>138.0</ele><time>2026-04-11T12:20:06Z</time></trkpt><trkpt lat="43.60363094832821" lon="11.489218156827086"><ele>138.0</ele><time>2026-04-11T12:20:07Z</time></trkpt><trkpt lat="43.60373779476798" lon="11.489116752547448"><ele>138.0</ele><time>2026-04-11T12:20:08Z</time></trkpt><trkpt lat="43.60384232973505" lon="11.48900133994887"><ele>137.0</ele><time>2026-04-11T12:20:09Z</time></trkpt><trkpt lat="43.60395088952803" lon="11.488895953100322"><ele>136.0</ele><time>2026-04-11T12:20:10Z</time></trkpt><trkpt lat="43.604053895708645" lon="11.488797920506716"><ele>135.0</ele><time>2026-04-11T12:20:11Z</time></trkpt><trkpt lat="43.604146799128614" lon="11.48871187711609"><ele>134.0</ele><time>2026-04-11T12:20:12Z</time></trkpt><trkpt lat="43.60423522428442" lon="11.488626498225813"><ele>134.0</ele><time>2026-04-11T12:20:13Z</time></trkpt><trkpt lat="43.604321458344074" lon="11.488544931896215"><ele>134.0</ele><time>2026-04-11T12:20:14Z</time></trkpt><trkpt lat="43.60440747162345" lon="11.488461756517125"><ele>134.0</ele><time>2026-04-11T12:20:14.999Z</time></trkpt><trkpt lat="43.604492287519136" lon="11.488377238317522"><ele>134.0</ele><time>2026-04-11T12:20:15.999Z</time></trkpt><trkpt lat="43.60457418515377" lon="11.488297473477912"><ele>134.0</ele><time>2026-04-11T12:20:16.999Z</time></trkpt><trkpt lat="43.604661467454896" lon="11.48821153255038"><ele>134.4</ele><time>2026-04-11T12:20:17.999Z</time></trkpt><trkpt lat="43.604755027091215" lon="11.488126274720324"><ele>134.8</ele><time>2026-04-11T12:20:18.999Z</time></trkpt><trkpt lat="43.60484584448434" lon="11.488038245152008"><ele>135.2</ele><time>2026-04-11T12:20:19.999Z</time></trkpt><trkpt lat="43.60493003619559" lon="11.487955262514049"><ele>135.6</ele><time>2026-04-11T12:20:20.999Z</time></trkpt><trkpt lat="43.60502837664944" lon="11.487877077503702"><ele>136.0</ele><time>2026-04-11T12:20:21.999Z</time></trkpt><trkpt lat="43.60514193722367" lon="11.487778590985922"><ele>136.0</ele><time>2026-04-11T12:20:22.999Z</time></trkpt><trkpt lat="43.60525337011196" lon="11.487686523131146"><ele>136.0</ele><time>2026-04-11T12:20:23.999Z</time></trkpt><trkpt lat="43.605375185348805" lon="11.48760774692427"><ele>136.0</ele><time>2026-04-11T12:20:24.999Z</time></trkpt><trkpt lat="43.60549993232215" lon="11.487559866627036"><ele>136.0</ele><time>2026-04-11T12:20:25.999Z</time></trkpt><trkpt lat="43.605628549460164" lon="11.487502552430092"><ele>136.0</ele><time>2026-04-11T12:20:26.999Z</time></trkpt><trkpt lat="43.60576784524581" lon="11.48742047176773"><ele>136.0</ele><time>2026-04-11T12:20:27.999Z</time></trkpt><trkpt lat="43.605917000920726" lon="11.487341226580519"><ele>136.0</ele><time>2026-04-11T12:20:28.999Z</time></trkpt><trkpt lat="43.60607736753939" lon="11.487270775624422"><ele>136.25</ele><time>2026-04-11T12:20:29.999Z</time></trkpt><trkpt lat="43.60626702008709" lon="11.487195244885186"><ele>136.5</ele><time>2026-04-11T12:20:30.999Z</time></trkpt><trkpt lat="43.60641619074051" lon="11.487113344845067"><ele>136.75</ele><time>2026-04-11T12:20:31.999Z</time></trkpt><trkpt lat="43.60649616477454" lon="11.487061866378252"><ele>137.0</ele><time>2026-04-11T12:20:32.999Z</time></trkpt><trkpt lat="43.60662774312391" lon="11.48694780332513"><ele>137.0</ele><time>2026-04-11T12:20:34.999Z</time></trkpt><trkpt lat="43.606766416733" lon="11.486877047449926"><ele>137.0</ele><time>2026-04-11T12:20:35.999Z</time></trkpt><trkpt lat="43.60689778610547" lon="11.486820523550604"><ele>137.0</ele><time>2026-04-11T12:20:36.999Z</time></trkpt><trkpt lat="43.60701894531101" lon="11.486746424986999"><ele>137.0</ele><time>2026-04-11T12:20:37.999Z</time></trkpt><trkpt lat="43.607139536769964" lon="11.486664506217581"><ele>136.0</ele><time>2026-04-11T12:20:38.999Z</time></trkpt><trkpt lat="43.60725789111696" lon="11.486558218658331"><ele>135.0</ele><time>2026-04-11T12:20:39.999Z</time></trkpt><trkpt lat="43.60737669191622" lon="11.486438544065328"><ele>134.0</ele><time>2026-04-11T12:20:40.999Z</time></trkpt><trkpt lat="43.60750008342051" lon="11.486310891551792"><ele>133.0</ele><time>2026-04-11T12:20:41.999Z</time></trkpt><trkpt lat="43.60762612915922" lon="11.486180984338267"><ele>133.0</ele><time>2026-04-11T12:20:42.999Z</time></trkpt><trkpt lat="43.607761551991786" lon="11.486047046696997"><ele>133.0</ele><time>2026-04-11T12:20:43.999Z</time></trkpt><trkpt lat="43.60789463411046" lon="11.48591940985101"><ele>133.0</ele><time>2026-04-11T12:20:44.999Z</time></trkpt><trkpt lat="43.60803877648864" lon="11.485778647491276"><ele>131.33333333333334</ele><time>2026-04-11T12:20:45.999Z</time></trkpt><trkpt lat="43.60818640540349" lon="11.48565848559256"><ele>129.66666666666666</ele><time>2026-04-11T12:20:46.999Z</time></trkpt><trkpt lat="43.608315718612744" lon="11.485531758823532"><ele>128.0</ele><time>2026-04-11T12:20:47.999Z</time></trkpt><trkpt lat="43.60845298272456" lon="11.485397239713116"><ele>128.0</ele><time>2026-04-11T12:20:48.999Z</time></trkpt><trkpt lat="43.60858087342768" lon="11.485243075567775"><ele>128.0</ele><time>2026-04-11T12:20:49.999Z</time></trkpt><trkpt lat="43.60872012297485" lon="11.485109827258452"><ele>128.0</ele><time>2026-04-11T12:20:50.999Z</time></trkpt><trkpt lat="43.60886199329895" lon="11.484972362203889"><ele>127.33333333333333</ele><time>2026-04-11T12:20:51.999Z</time></trkpt><trkpt lat="43.60900036240875" lon="11.48483682443418"><ele>126.66666666666666</ele><time>2026-04-11T12:20:52.999Z</time></trkpt><trkpt lat="43.6091339152953" lon="11.484702740081575"><ele>126.0</ele><time>2026-04-11T12:20:53.999Z</time></trkpt><trkpt lat="43.609267267069214" lon="11.484595756252759"><ele>126.0</ele><time>2026-04-11T12:20:54.999Z</time></trkpt><trkpt lat="43.609374718791514" lon="11.484462670742937"><ele>126.0</ele><time>2026-04-11T12:20:55.999Z</time></trkpt><trkpt lat="43.60948727683872" lon="11.484357985063985"><ele>126.0</ele><time>2026-04-11T12:20:56.999Z</time></trkpt><trkpt lat="43.60960000475322" lon="11.484242657300026"><ele>126.0</ele><time>2026-04-11T12:20:57.999Z</time></trkpt><trkpt lat="43.60971818388052" lon="11.484131563647775"><ele>126.0</ele><time>2026-04-11T12:20:58.999Z</time></trkpt><trkpt lat="43.60983865784046" lon="11.484014872359285"><ele>126.0</ele><time>2026-04-11T12:20:59.999Z</time></trkpt><trkpt lat="43.60996883953444" lon="11.483905568956946"><ele>126.0</ele><time>2026-04-11T12:21:00.999Z</time></trkpt><trkpt lat="43.61011659493717" lon="11.483758774755183"><ele>126.25</ele><time>2026-04-11T12:21:01.999Z</time></trkpt><trkpt lat="43.61024801124906" lon="11.483628074096773"><ele>126.5</ele><time>2026-04-11T12:21:02.999Z</time></trkpt><trkpt lat="43.61033450531943" lon="11.483526807676839"><ele>126.75</ele><time>2026-04-11T12:21:04.999Z</time></trkpt><trkpt lat="43.61042319619626" lon="11.483440221786335"><ele>127.0</ele><time>2026-04-11T12:21:05.999Z</time></trkpt><trkpt lat="43.61051367626264" lon="11.483355253124628"><ele>127.0</ele><time>2026-04-11T12:21:06.999Z</time></trkpt><trkpt lat="43.610603973733994" lon="11.483266634968398"><ele>127.0</ele><time>2026-04-11T12:21:07.998Z</time></trkpt><trkpt lat="43.610702389997385" lon="11.483171272689281"><ele>127.0</ele><time>2026-04-11T12:21:08.998Z</time></trkpt><trkpt lat="43.61081076767659" lon="11.483065139365715"><ele>127.0</ele><time>2026-04-11T12:21:09.998Z</time></trkpt><trkpt lat="43.610915883191616" lon="11.482964693000048"><ele>126.5</ele><time>2026-04-11T12:21:10.998Z</time></trkpt><trkpt lat="43.61102927644318" lon="11.482851095564024"><ele>126.0</ele><time>2026-04-11T12:21:11.998Z</time></trkpt><trkpt lat="43.611132946327224" lon="11.482735474934483"><ele>125.5</ele><time>2026-04-11T12:21:12.998Z</time></trkpt><trkpt lat="43.61123883540171" lon="11.48262565239397"><ele>125.0</ele><time>2026-04-11T12:21:13.998Z</time></trkpt><trkpt lat="43.61135090040303" lon="11.482513374677247"><ele>125.0</ele><time>2026-04-11T12:21:14.998Z</time></trkpt><trkpt lat="43.611468764817104" lon="11.482404441851902"><ele>125.0</ele><time>2026-04-11T12:21:15.998Z</time></trkpt><trkpt lat="43.6115804861734" lon="11.482285891329711"><ele>125.0</ele><time>2026-04-11T12:21:16.998Z</time></trkpt><trkpt lat="43.61169275719744" lon="11.48217250367131"><ele>125.0</ele><time>2026-04-11T12:21:17.998Z</time></trkpt><trkpt lat="43.61180371196289" lon="11.482064588813481"><ele>125.0</ele><time>2026-04-11T12:21:18.998Z</time></trkpt><trkpt lat="43.61191755372403" lon="11.481945962395011"><ele>125.0</ele><time>2026-04-11T12:21:19.998Z</time></trkpt><trkpt lat="43.61202340035654" lon="11.48183590810234"><ele>125.0</ele><time>2026-04-11T12:21:20.998Z</time></trkpt><trkpt lat="43.61213919025441" lon="11.481743654813792"><ele>125.0</ele><time>2026-04-11T12:21:21.998Z</time></trkpt><trkpt lat="43.612241456421785" lon="11.481615245640786"><ele>125.0</ele><time>2026-04-11T12:21:22.998Z</time></trkpt><trkpt lat="43.61235515044437" lon="11.481494763585118"><ele>125.0</ele><time>2026-04-11T12:21:23.998Z</time></trkpt><trkpt lat="43.61246887655869" lon="11.48137778756818"><ele>125.0</ele><time>2026-04-11T12:21:24.998Z</time></trkpt><trkpt lat="43.61258177508674" lon="11.48126542269235"><ele>125.0</ele><time>2026-04-11T12:21:25.998Z</time></trkpt><trkpt lat="43.6128407706665" lon="11.481044848640629"><ele>125.0</ele><time>2026-04-11T12:21:27Z</time></trkpt><trkpt lat="43.61295935970358" lon="11.480917721366067"><ele>125.0</ele><time>2026-04-11T12:21:28Z</time></trkpt><trkpt lat="43.61290415548755" lon="11.48098003816723"><ele>125.0</ele><time>2026-04-11T12:21:29Z</time></trkpt><trkpt lat="43.61299833043501" lon="11.480864385804342"><ele>125.0</ele><time>2026-04-11T12:21:30Z</time></trkpt><trkpt lat="43.61310990486831" lon="11.480760332162905"><ele>125.0</ele><time>2026-04-11T12:21:31Z</time></trkpt><trkpt lat="43.6132254859899" lon="11.480639798204567"><ele>125.0</ele><time>2026-04-11T12:21:32Z</time></trkpt><trkpt lat="43.613337562318456" lon="11.480527692369138"><ele>125.0</ele><time>2026-04-11T12:21:33Z</time></trkpt><trkpt lat="43.61344606954396" lon="11.480430926088934"><ele>125.0</ele><time>2026-04-11T12:21:34Z</time></trkpt><trkpt lat="43.613545174645665" lon="11.480335311116905"><ele>125.0</ele><time>2026-04-11T12:21:35Z</time></trkpt><trkpt lat="43.6136412543647" lon="11.480225466375918"><ele>125.0</ele><time>2026-04-11T12:21:36Z</time></trkpt><trkpt lat="43.61374898116287" lon="11.480119163615244"><ele>125.0</ele><time>2026-04-11T12:21:37Z</time></trkpt><trkpt lat="43.613848582146325" lon="11.480017184954423"><ele>125.0</ele><time>2026-04-11T12:21:38Z</time></trkpt><trkpt lat="43.61395038704019" lon="11.479908834081927"><ele>125.0</ele><time>2026-04-11T12:21:39Z</time></trkpt><trkpt lat="43.614056547948984" lon="11.47981075233867"><ele>125.0</ele><time>2026-04-11T12:21:40Z</time></trkpt><trkpt lat="43.614155635729716" lon="11.47971445419594"><ele>125.0</ele><time>2026-04-11T12:21:41Z</time></trkpt><trkpt lat="43.614259046544554" lon="11.47961298773957"><ele>125.0</ele><time>2026-04-11T12:21:42Z</time></trkpt><trkpt lat="43.614361702414634" lon="11.479515340964554"><ele>125.0</ele><time>2026-04-11T12:21:43Z</time></trkpt><trkpt lat="43.61446115942083" lon="11.479427294531714"><ele>125.0</ele><time>2026-04-11T12:21:44Z</time></trkpt><trkpt lat="43.6145553367157" lon="11.47933335511786"><ele>125.0</ele><time>2026-04-11T12:21:45Z</time></trkpt><trkpt lat="43.61465050245856" lon="11.479233007155965"><ele>125.0</ele><time>2026-04-11T12:21:46Z</time></trkpt><trkpt lat="43.6147534705804" lon="11.479132743906096"><ele>125.0</ele><time>2026-04-11T12:21:47Z</time></trkpt><trkpt lat="43.61485263901737" lon="11.479037822199173"><ele>125.0</ele><time>2026-04-11T12:21:48Z</time></trkpt><trkpt lat="43.61494343831465" lon="11.478950359505678"><ele>125.0</ele><time>2026-04-11T12:21:49Z</time></trkpt><trkpt lat="43.61502684419954" lon="11.478853936700185"><ele>125.0</ele><time>2026-04-11T12:21:50Z</time></trkpt><trkpt lat="43.61510451342771" lon="11.478765103685117"><ele>125.0</ele><time>2026-04-11T12:21:51Z</time></trkpt><trkpt lat="43.615181378251826" lon="11.478682736930715"><ele>125.0</ele><time>2026-04-11T12:21:52Z</time></trkpt><trkpt lat="43.61526774375301" lon="11.478594299153341"><ele>125.0</ele><time>2026-04-11T12:21:53Z</time></trkpt><trkpt lat="43.615354105076584" lon="11.478500082577662"><ele>125.0</ele><time>2026-04-11T12:21:54Z</time></trkpt><trkpt lat="43.61542923797504" lon="11.478403822093647"><ele>125.0</ele><time>2026-04-11T12:21:55Z</time></trkpt><trkpt lat="43.61550046380086" lon="11.478323305282164"><ele>125.0</ele><time>2026-04-11T12:21:56Z</time></trkpt><trkpt lat="43.6155648170018" lon="11.478242591063578"><ele>124.71428571428571</ele><time>2026-04-11T12:21:57Z</time></trkpt><trkpt lat="43.61563696606071" lon="11.478172141257103"><ele>124.42857142857144</ele><time>2026-04-11T12:21:58Z</time></trkpt><trkpt lat="43.61569592249654" lon="11.47810761080222"><ele>124.14285714285715</ele><time>2026-04-11T12:21:59Z</time></trkpt><trkpt lat="43.61576885813565" lon="11.478071891834054"><ele>123.85714285714286</ele><time>2026-04-11T12:22:00Z</time></trkpt><trkpt lat="43.61583795456982" lon="11.478042721524268"><ele>123.57142857142858</ele><time>2026-04-11T12:22:01Z</time></trkpt><trkpt lat="43.61590138092601" lon="11.47805085188603"><ele>123.2857142857143</ele><time>2026-04-11T12:22:02Z</time></trkpt><trkpt lat="43.615929858103165" lon="11.477968766349708"><ele>123.00000000000001</ele><time>2026-04-11T12:22:05Z</time></trkpt><trkpt lat="43.615974317494334" lon="11.477891687727546"><ele>123.0</ele><time>2026-04-11T12:22:10Z</time></trkpt><trkpt lat="43.61605533690915" lon="11.477968197765401"><ele>123.00000000000001</ele><time>2026-04-11T12:22:12.999Z</time></trkpt><trkpt lat="43.6159655105856" lon="11.478034700552596"><ele>123.00000000000001</ele><time>2026-04-11T12:35:56.998Z</time></trkpt><trkpt lat="43.61590100434715" lon="11.47809798452921"><ele>123.0</ele><time>2026-04-11T12:36:15.999Z</time></trkpt><trkpt lat="43.61588413147678" lon="11.478008097898694"><ele>123.0</ele><time>2026-04-11T12:36:17.999Z</time></trkpt><trkpt lat="43.61598585052451" lon="11.477906369989487"><ele>122.80000000000001</ele><time>2026-04-11T12:36:19.999Z</time></trkpt><trkpt lat="43.6160604694456" lon="11.47779843412739"><ele>122.60000000000001</ele><time>2026-04-11T12:36:20.999Z</time></trkpt><trkpt lat="43.616061216232254" lon="11.477705442117683"><ele>122.39999999999999</ele><time>2026-04-11T12:36:22.999Z</time></trkpt><trkpt lat="43.61612382826851" lon="11.47755224294836"><ele>122.19999999999999</ele><time>2026-04-11T12:36:24.999Z</time></trkpt><trkpt lat="43.61618351977655" lon="11.477501333345748"><ele>122.0</ele><time>2026-04-11T12:36:25.999Z</time></trkpt><trkpt lat="43.616253628107756" lon="11.477411726359646"><ele>122.39999999999999</ele><time>2026-04-11T12:36:26.999Z</time></trkpt><trkpt lat="43.616332170004114" lon="11.47731158029985"><ele>122.79999999999998</ele><time>2026-04-11T12:36:27.999Z</time></trkpt><trkpt lat="43.616418090054744" lon="11.477207101043689"><ele>123.2</ele><time>2026-04-11T12:36:28.999Z</time></trkpt><trkpt lat="43.61649877614536" lon="11.477074465549547"><ele>123.6</ele><time>2026-04-11T12:36:29.999Z</time></trkpt><trkpt lat="43.61657301361787" lon="11.476996623182025"><ele>124.0</ele><time>2026-04-11T12:36:30.999Z</time></trkpt><trkpt lat="43.6166446809163" lon="11.47690768001463"><ele>124.00000000000001</ele><time>2026-04-11T12:36:31.999Z</time></trkpt><trkpt lat="43.61671744237487" lon="11.476867639079371"><ele>124.0</ele><time>2026-04-11T12:36:32.999Z</time></trkpt><trkpt lat="43.6168108119555" lon="11.476846396652066"><ele>124.0</ele><time>2026-04-11T12:36:33.999Z</time></trkpt><trkpt lat="43.61688749348562" lon="11.476799476504556"><ele>124.0</ele><time>2026-04-11T12:36:34.999Z</time></trkpt><trkpt lat="43.6169259271603" lon="11.476709867445834"><ele>124.00000000000001</ele><time>2026-04-11T12:36:35.999Z</time></trkpt><trkpt lat="43.61694576952701" lon="11.476594350792935"><ele>124.0</ele><time>2026-04-11T12:36:36.999Z</time></trkpt><trkpt lat="43.61698563132162" lon="11.476467441647355"><ele>124.25</ele><time>2026-04-11T12:36:37.999Z</time></trkpt><trkpt lat="43.61706257863002" lon="11.476359307758527"><ele>124.5</ele><time>2026-04-11T12:36:38.999Z</time></trkpt><trkpt lat="43.617151273748746" lon="11.47625315810135"><ele>124.75</ele><time>2026-04-11T12:36:39.999Z</time></trkpt><trkpt lat="43.61724195707057" lon="11.47613774981246"><ele>125.0</ele><time>2026-04-11T12:36:40.999Z</time></trkpt><trkpt lat="43.61734002919079" lon="11.476008419206277"><ele>125.25</ele><time>2026-04-11T12:36:41.999Z</time></trkpt><trkpt lat="43.617445411325015" lon="11.475880771621025"><ele>125.5</ele><time>2026-04-11T12:36:42.999Z</time></trkpt><trkpt lat="43.61755186642303" lon="11.475748858597365"><ele>125.75</ele><time>2026-04-11T12:36:43.999Z</time></trkpt><trkpt lat="43.61765053026316" lon="11.475620339350984"><ele>126.0</ele><time>2026-04-11T12:36:44.999Z</time></trkpt><trkpt lat="43.6177403908639" lon="11.475498248925824"><ele>125.8</ele><time>2026-04-11T12:36:45.999Z</time></trkpt><trkpt lat="43.61782372335209" lon="11.475385566140572"><ele>125.6</ele><time>2026-04-11T12:36:46.999Z</time></trkpt><trkpt lat="43.61789904244861" lon="11.475292686194823"><ele>125.4</ele><time>2026-04-11T12:36:47.999Z</time></trkpt><trkpt lat="43.61796817675577" lon="11.475204941078491"><ele>125.2</ele><time>2026-04-11T12:36:48.999Z</time></trkpt><trkpt lat="43.618042736780744" lon="11.475130370369948"><ele>125.0</ele><time>2026-04-11T12:36:49.999Z</time></trkpt><trkpt lat="43.61811616136673" lon="11.47508155842419"><ele>124.99999999999999</ele><time>2026-04-11T12:36:50.999Z</time></trkpt><trkpt lat="43.618192264733445" lon="11.475050697213232"><ele>125.0</ele><time>2026-04-11T12:36:51.999Z</time></trkpt><trkpt lat="43.61827427371291" lon="11.475064448564877"><ele>125.0</ele><time>2026-04-11T12:36:52.999Z</time></trkpt><trkpt lat="43.618343303342044" lon="11.475108061512937"><ele>125.0</ele><time>2026-04-11T12:36:53.999Z</time></trkpt><trkpt lat="43.618416632024896" lon="11.475111054607142"><ele>124.99999999999999</ele><time>2026-04-11T12:36:54.999Z</time></trkpt><trkpt lat="43.61848565276919" lon="11.47505679666989"><ele>125.0</ele><time>2026-04-11T12:36:55.999Z</time></trkpt><trkpt lat="43.61851533456174" lon="11.474954834220698"><ele>124.99999999999999</ele><time>2026-04-11T12:36:56.999Z</time></trkpt><trkpt lat="43.618522825509714" lon="11.474850486326963"><ele>125.0</ele><time>2026-04-11T12:36:57.999Z</time></trkpt><trkpt lat="43.618529538620216" lon="11.4747553688148"><ele>125.0</ele><time>2026-04-11T12:36:58.999Z</time></trkpt><trkpt lat="43.61854561095397" lon="11.474654888149368"><ele>125.0</ele><time>2026-04-11T12:36:59.999Z</time></trkpt><trkpt lat="43.618581436627" lon="11.474557585910635"><ele>124.99999999999999</ele><time>2026-04-11T12:37:00.999Z</time></trkpt><trkpt lat="43.61863637035222" lon="11.474477928703926"><ele>125.0</ele><time>2026-04-11T12:37:01.999Z</time></trkpt><trkpt lat="43.61870571204198" lon="11.47441257102205"><ele>125.0</ele><time>2026-04-11T12:37:02.999Z</time></trkpt><trkpt lat="43.618775384142005" lon="11.47432930017803"><ele>125.0</ele><time>2026-04-11T12:37:03.999Z</time></trkpt><trkpt lat="43.61885253941523" lon="11.474226275968995"><ele>125.0</ele><time>2026-04-11T12:37:04.999Z</time></trkpt><trkpt lat="43.618940621447514" lon="11.474117989784908"><ele>125.0</ele><time>2026-04-11T12:37:05.999Z</time></trkpt><trkpt lat="43.6190357173325" lon="11.474009529828782"><ele>125.0</ele><time>2026-04-11T12:37:06.999Z</time></trkpt><trkpt lat="43.61914079988647" lon="11.473910526751546"><ele>125.0</ele><time>2026-04-11T12:37:07.999Z</time></trkpt><trkpt lat="43.61924845887196" lon="11.473830806279242"><ele>125.0</ele><time>2026-04-11T12:37:08.999Z</time></trkpt><trkpt lat="43.619365320125944" lon="11.473771184279519"><ele>125.0</ele><time>2026-04-11T12:37:09.999Z</time></trkpt><trkpt lat="43.61944361175674" lon="11.47367759931425"><ele>125.0</ele><time>2026-04-11T12:37:10.999Z</time></trkpt><trkpt lat="43.619489441135805" lon="11.47354960154136"><ele>125.0</ele><time>2026-04-11T12:37:11.999Z</time></trkpt><trkpt lat="43.619559037399206" lon="11.47345413441412"><ele>125.0</ele><time>2026-04-11T12:37:12.999Z</time></trkpt><trkpt lat="43.619633359158875" lon="11.473368354501098"><ele>125.0</ele><time>2026-04-11T12:37:13.999Z</time></trkpt><trkpt lat="43.6197156651634" lon="11.47328556212338"><ele>125.0</ele><time>2026-04-11T12:37:14.999Z</time></trkpt><trkpt lat="43.6197952522395" lon="11.473199180860945"><ele>125.0</ele><time>2026-04-11T12:37:15.999Z</time></trkpt><trkpt lat="43.619871230047934" lon="11.473108637797818"><ele>125.0</ele><time>2026-04-11T12:37:16.999Z</time></trkpt><trkpt lat="43.61995434178021" lon="11.473007649171887"><ele>125.0</ele><time>2026-04-11T12:37:17.999Z</time></trkpt><trkpt lat="43.62004552959999" lon="11.472906834621396"><ele>125.0</ele><time>2026-04-11T12:37:18.999Z</time></trkpt><trkpt lat="43.62013032166088" lon="11.472814938040962"><ele>125.0</ele><time>2026-04-11T12:37:19.999Z</time></trkpt><trkpt lat="43.62021050568726" lon="11.47271825563141"><ele>125.0</ele><time>2026-04-11T12:37:20.999Z</time></trkpt><trkpt lat="43.620298269284966" lon="11.472619503524646"><ele>125.0</ele><time>2026-04-11T12:37:21.999Z</time></trkpt><trkpt lat="43.62038496392671" lon="11.47251306491228"><ele>125.0</ele><time>2026-04-11T12:37:22.999Z</time></trkpt><trkpt lat="43.620471314677445" lon="11.472407922446308"><ele>125.0</ele><time>2026-04-11T12:37:23.999Z</time></trkpt><trkpt lat="43.62056143999605" lon="11.472295261169874"><ele>125.0</ele><time>2026-04-11T12:37:24.999Z</time></trkpt><trkpt lat="43.62065860463854" lon="11.472183080295778"><ele>125.0</ele><time>2026-04-11T12:37:25.999Z</time></trkpt><trkpt lat="43.62076274441802" lon="11.472075214168074"><ele>125.0</ele><time>2026-04-11T12:37:26.999Z</time></trkpt><trkpt lat="43.62084303748267" lon="11.471965802822721"><ele>125.0</ele><time>2026-04-11T12:37:27.999Z</time></trkpt><trkpt lat="43.620895689869705" lon="11.471840630710007"><ele>125.0</ele><time>2026-04-11T12:37:28.999Z</time></trkpt><trkpt lat="43.62099433870625" lon="11.471771851207713"><ele>125.0</ele><time>2026-04-11T12:37:29.999Z</time></trkpt><trkpt lat="43.621113184551845" lon="11.47166164309532"><ele>125.0</ele><time>2026-04-11T12:37:30.999Z</time></trkpt><trkpt lat="43.62122112363809" lon="11.471555199301575"><ele>125.0</ele><time>2026-04-11T12:37:31.998Z</time></trkpt><trkpt lat="43.621329021944426" lon="11.47143948611572"><ele>125.0</ele><time>2026-04-11T12:37:32.998Z</time></trkpt><trkpt lat="43.621420006597894" lon="11.471329939553488"><ele>124.75</ele><time>2026-04-11T12:37:33.998Z</time></trkpt><trkpt lat="43.62151253926227" lon="11.471226277751642"><ele>124.5</ele><time>2026-04-11T12:37:34.998Z</time></trkpt><trkpt lat="43.62160643743819" lon="11.471120202571793"><ele>124.25</ele><time>2026-04-11T12:37:35.998Z</time></trkpt><trkpt lat="43.62169726335067" lon="11.471027069857044"><ele>124.0</ele><time>2026-04-11T12:37:36.998Z</time></trkpt><trkpt lat="43.621783213666326" lon="11.470932270082507"><ele>124.0</ele><time>2026-04-11T12:37:37.998Z</time></trkpt><trkpt lat="43.62186811302334" lon="11.47083260618628"><ele>124.0</ele><time>2026-04-11T12:37:38.998Z</time></trkpt><trkpt lat="43.62195270217704" lon="11.470739675472688"><ele>124.0</ele><time>2026-04-11T12:37:39.998Z</time></trkpt><trkpt lat="43.62202954892497" lon="11.470647111595762"><ele>124.0</ele><time>2026-04-11T12:37:40.998Z</time></trkpt><trkpt lat="43.62210053883048" lon="11.470555832076712"><ele>124.0</ele><time>2026-04-11T12:37:41.998Z</time></trkpt><trkpt lat="43.622176999226525" lon="11.470476205123388"><ele>123.80000000000001</ele><time>2026-04-11T12:37:42.998Z</time></trkpt><trkpt lat="43.62225369442591" lon="11.470399642251005"><ele>123.60000000000001</ele><time>2026-04-11T12:37:43.998Z</time></trkpt><trkpt lat="43.62232724229443" lon="11.470314138924458"><ele>123.4</ele><time>2026-04-11T12:37:44.998Z</time></trkpt><trkpt lat="43.62240179677254" lon="11.470226217003455"><ele>123.2</ele><time>2026-04-11T12:37:45.998Z</time></trkpt><trkpt lat="43.62248847108142" lon="11.470142820386538"><ele>123.0</ele><time>2026-04-11T12:37:46.998Z</time></trkpt><trkpt lat="43.62257931474306" lon="11.47005037245472"><ele>123.0</ele><time>2026-04-11T12:37:47.998Z</time></trkpt><trkpt lat="43.62266410909879" lon="11.469958173833836"><ele>123.00000000000001</ele><time>2026-04-11T12:37:48.998Z</time></trkpt><trkpt lat="43.62273851096044" lon="11.469869392555376"><ele>123.00000000000001</ele><time>2026-04-11T12:37:49.998Z</time></trkpt><trkpt lat="43.622812341917054" lon="11.46979221034789"><ele>123.0</ele><time>2026-04-11T12:37:50.998Z</time></trkpt><trkpt lat="43.62289154658327" lon="11.469718671566936"><ele>123.0</ele><time>2026-04-11T12:37:51.998Z</time></trkpt><trkpt lat="43.62296284519135" lon="11.46963224963542"><ele>123.0</ele><time>2026-04-11T12:37:52.998Z</time></trkpt><trkpt lat="43.62302955462707" lon="11.469541164738652"><ele>123.0</ele><time>2026-04-11T12:37:53.998Z</time></trkpt><trkpt lat="43.62309556814812" lon="11.469448983751718"><ele>123.0</ele><time>2026-04-11T12:37:54.998Z</time></trkpt><trkpt lat="43.62316022096873" lon="11.469362566926224"><ele>123.0</ele><time>2026-04-11T12:37:55.998Z</time></trkpt><trkpt lat="43.62321696766872" lon="11.469293636463705"><ele>123.0</ele><time>2026-04-11T12:37:56.998Z</time></trkpt><trkpt lat="43.62327658073342" lon="11.469212940592474"><ele>123.0</ele><time>2026-04-11T12:37:57.998Z</time></trkpt><trkpt lat="43.62335430065531" lon="11.469105330858245"><ele>123.0</ele><time>2026-04-11T12:37:58.998Z</time></trkpt><trkpt lat="43.62343296512018" lon="11.468991694795156"><ele>123.0</ele><time>2026-04-11T12:37:59.998Z</time></trkpt><trkpt lat="43.62351245898296" lon="11.468847475371307"><ele>123.0</ele><time>2026-04-11T12:38:00.998Z</time></trkpt><trkpt lat="43.62361344297256" lon="11.468722407424051"><ele>123.0</ele><time>2026-04-11T12:38:01.998Z</time></trkpt><trkpt lat="43.623693733495585" lon="11.468573138049125"><ele>123.25</ele><time>2026-04-11T12:38:02.998Z</time></trkpt><trkpt lat="43.62376943862389" lon="11.46842603282979"><ele>123.5</ele><time>2026-04-11T12:38:03.998Z</time></trkpt><trkpt lat="43.623838361762196" lon="11.468280832095799"><ele>123.75</ele><time>2026-04-11T12:38:04.998Z</time></trkpt><trkpt lat="43.62390518967727" lon="11.46813557476264"><ele>124.0</ele><time>2026-04-11T12:38:05.998Z</time></trkpt><trkpt lat="43.62395354966357" lon="11.468028108870374"><ele>123.6</ele><time>2026-04-11T12:38:06.998Z</time></trkpt><trkpt lat="43.62400920269807" lon="11.467900764585195"><ele>123.2</ele><time>2026-04-11T12:38:07.998Z</time></trkpt><trkpt lat="43.62405889876647" lon="11.46778887351482"><ele>122.79999999999998</ele><time>2026-04-11T12:38:08.998Z</time></trkpt><trkpt lat="43.62411604003867" lon="11.467675523967129"><ele>122.39999999999999</ele><time>2026-04-11T12:38:09.998Z</time></trkpt><trkpt lat="43.624162193816126" lon="11.46756468076401"><ele>122.0</ele><time>2026-04-11T12:38:10.998Z</time></trkpt><trkpt lat="43.62419999707718" lon="11.467452875576331"><ele>121.99999999999999</ele><time>2026-04-11T12:38:11.998Z</time></trkpt><trkpt lat="43.62423984957085" lon="11.467340795084178"><ele>122.0</ele><time>2026-04-11T12:38:12.998Z</time></trkpt><trkpt lat="43.62427538147635" lon="11.467222048049473"><ele>122.0</ele><time>2026-04-11T12:38:13.998Z</time></trkpt><trkpt lat="43.624299418694505" lon="11.467113645962703"><ele>122.0</ele><time>2026-04-11T12:38:14.999Z</time></trkpt><trkpt lat="43.62432065216586" lon="11.467028632863551"><ele>121.99999999999999</ele><time>2026-04-11T12:38:15.999Z</time></trkpt><trkpt lat="43.624384153577665" lon="11.466893586476154"><ele>122.0</ele><time>2026-04-11T12:38:17.999Z</time></trkpt><trkpt lat="43.62442506224452" lon="11.466798568400616"><ele>122.0</ele><time>2026-04-11T12:38:18.999Z</time></trkpt><trkpt lat="43.62447205049754" lon="11.4666836013206"><ele>121.99999999999999</ele><time>2026-04-11T12:38:19.999Z</time></trkpt><trkpt lat="43.62452003140714" lon="11.466565241802789"><ele>121.99999999999999</ele><time>2026-04-11T12:38:20.999Z</time></trkpt><trkpt lat="43.62456275542709" lon="11.46645077478848"><ele>122.0</ele><time>2026-04-11T12:38:21.999Z</time></trkpt><trkpt lat="43.624608268561396" lon="11.466327752509414"><ele>122.0</ele><time>2026-04-11T12:38:22.999Z</time></trkpt><trkpt lat="43.6246583946648" lon="11.466192477556852"><ele>122.5</ele><time>2026-04-11T12:38:23.999Z</time></trkpt><trkpt lat="43.62470879685277" lon="11.466040235137633"><ele>123.0</ele><time>2026-04-11T12:38:24.999Z</time></trkpt><trkpt lat="43.624758927462935" lon="11.465870328906936"><ele>123.5</ele><time>2026-04-11T12:38:25.999Z</time></trkpt><trkpt lat="43.62481580567082" lon="11.465707902738453"><ele>124.0</ele><time>2026-04-11T12:38:26.999Z</time></trkpt><trkpt lat="43.62487463630582" lon="11.46554893819636"><ele>124.25</ele><time>2026-04-11T12:38:27.999Z</time></trkpt><trkpt lat="43.62493848438016" lon="11.46538471629362"><ele>124.5</ele><time>2026-04-11T12:38:28.999Z</time></trkpt><trkpt lat="43.62499097547495" lon="11.465218164907963"><ele>124.75</ele><time>2026-04-11T12:38:29.999Z</time></trkpt><trkpt lat="43.62504850439075" lon="11.465050546292067"><ele>125.0</ele><time>2026-04-11T12:38:30.999Z</time></trkpt><trkpt lat="43.62510226444909" lon="11.464894957938988"><ele>125.0</ele><time>2026-04-11T12:38:31.999Z</time></trkpt><trkpt lat="43.62514397884386" lon="11.464772976380212"><ele>125.0</ele><time>2026-04-11T12:38:32.999Z</time></trkpt><trkpt lat="43.6251832137319" lon="11.464657126142416"><ele>125.0</ele><time>2026-04-11T12:38:33.999Z</time></trkpt><trkpt lat="43.62522151378792" lon="11.464537974925735"><ele>125.0</ele><time>2026-04-11T12:38:34.999Z</time></trkpt><trkpt lat="43.62526586587019" lon="11.464417152582609"><ele>125.0</ele><time>2026-04-11T12:38:35.999Z</time></trkpt><trkpt lat="43.6253133454775" lon="11.464284492954311"><ele>124.6</ele><time>2026-04-11T12:38:36.999Z</time></trkpt><trkpt lat="43.625357096390786" lon="11.464155507572476"><ele>124.2</ele><time>2026-04-11T12:38:37.999Z</time></trkpt><trkpt lat="43.625404211934104" lon="11.464033104506257"><ele>123.80000000000001</ele><time>2026-04-11T12:38:38.999Z</time></trkpt><trkpt lat="43.62545592858901" lon="11.463926238517502"><ele>123.4</ele><time>2026-04-11T12:38:39.999Z</time></trkpt><trkpt lat="43.62550883513084" lon="11.46381484544542"><ele>123.0</ele><time>2026-04-11T12:38:40.999Z</time></trkpt><trkpt lat="43.62556183745439" lon="11.463709588317993"><ele>123.0</ele><time>2026-04-11T12:38:41.999Z</time></trkpt><trkpt lat="43.625612748115344" lon="11.463616166215374"><ele>123.0</ele><time>2026-04-11T12:38:42.999Z</time></trkpt><trkpt lat="43.62565376658377" lon="11.46354514919311"><ele>123.0</ele><time>2026-04-11T12:38:43.999Z</time></trkpt><trkpt lat="43.62569659228291" lon="11.463477317873597"><ele>123.0</ele><time>2026-04-11T12:38:51.999Z</time></trkpt><trkpt lat="43.625749222674244" lon="11.463370752664032"><ele>123.0</ele><time>2026-04-11T12:38:53.999Z</time></trkpt><trkpt lat="43.625793924683514" lon="11.463284286806088"><ele>123.0</ele><time>2026-04-11T12:38:54.999Z</time></trkpt><trkpt lat="43.625839970501595" lon="11.463196381966481"><ele>123.0</ele><time>2026-04-11T12:38:55.999Z</time></trkpt><trkpt lat="43.62588769653383" lon="11.463109922717015"><ele>123.00000000000001</ele><time>2026-04-11T12:38:56.999Z</time></trkpt><trkpt lat="43.62595362533999" lon="11.462997675245425"><ele>123.00000000000001</ele><time>2026-04-11T12:38:57.999Z</time></trkpt><trkpt lat="43.62603781237242" lon="11.462876587389529"><ele>123.0</ele><time>2026-04-11T12:38:58.999Z</time></trkpt><trkpt lat="43.62612522749208" lon="11.462750322836479"><ele>123.0</ele><time>2026-04-11T12:38:59.999Z</time></trkpt><trkpt lat="43.626217513204764" lon="11.462626321447365"><ele>122.5</ele><time>2026-04-11T12:39:00.999Z</time></trkpt><trkpt lat="43.626304925679655" lon="11.462510198369426"><ele>122.0</ele><time>2026-04-11T12:39:01.999Z</time></trkpt><trkpt lat="43.62638339656278" lon="11.462400710959368"><ele>121.5</ele><time>2026-04-11T12:39:02.999Z</time></trkpt><trkpt lat="43.626463636147726" lon="11.462294196889667"><ele>121.0</ele><time>2026-04-11T12:39:03.999Z</time></trkpt><trkpt lat="43.62653913780263" lon="11.46218857717416"><ele>121.19999999999999</ele><time>2026-04-11T12:39:04.999Z</time></trkpt><trkpt lat="43.626613769454444" lon="11.462088953523288"><ele>121.39999999999999</ele><time>2026-04-11T12:39:05.999Z</time></trkpt><trkpt lat="43.626692910144335" lon="11.461990753173783"><ele>121.6</ele><time>2026-04-11T12:39:06.999Z</time></trkpt><trkpt lat="43.62677501545782" lon="11.461882723516096"><ele>121.8</ele><time>2026-04-11T12:39:07.999Z</time></trkpt><trkpt lat="43.62686138517441" lon="11.461775225030415"><ele>122.0</ele><time>2026-04-11T12:39:08.999Z</time></trkpt><trkpt lat="43.626949161236396" lon="11.461663592995993"><ele>121.75</ele><time>2026-04-11T12:39:09.999Z</time></trkpt><trkpt lat="43.627036290797605" lon="11.461553804025865"><ele>121.5</ele><time>2026-04-11T12:39:10.999Z</time></trkpt><trkpt lat="43.627123778987645" lon="11.461445043425758"><ele>121.25</ele><time>2026-04-11T12:39:11.999Z</time></trkpt><trkpt lat="43.627214435770824" lon="11.461359397556096"><ele>121.0</ele><time>2026-04-11T12:39:12.999Z</time></trkpt><trkpt lat="43.62730533846471" lon="11.461278450879998"><ele>121.0</ele><time>2026-04-11T12:39:13.999Z</time></trkpt><trkpt lat="43.62738729585541" lon="11.461205303926759"><ele>121.0</ele><time>2026-04-11T12:39:14.999Z</time></trkpt><trkpt lat="43.62746122706545" lon="11.461139815918045"><ele>121.0</ele><time>2026-04-11T12:39:15.999Z</time></trkpt><trkpt lat="43.62753384884407" lon="11.461086017433807"><ele>121.0</ele><time>2026-04-11T12:39:16.999Z</time></trkpt><trkpt lat="43.627613640792966" lon="11.461038980676985"><ele>121.0</ele><time>2026-04-11T12:39:17.999Z</time></trkpt><trkpt lat="43.627708333868135" lon="11.460970884405164"><ele>121.0</ele><time>2026-04-11T12:39:18.999Z</time></trkpt><trkpt lat="43.62778498689683" lon="11.460868402786344"><ele>121.0</ele><time>2026-04-11T12:39:19.999Z</time></trkpt><trkpt lat="43.62784843217408" lon="11.460744220351438"><ele>121.0</ele><time>2026-04-11T12:39:20.999Z</time></trkpt><trkpt lat="43.627916868710194" lon="11.460607005247004"><ele>121.0</ele><time>2026-04-11T12:39:21.999Z</time></trkpt><trkpt lat="43.62800725543026" lon="11.460478792609097"><ele>121.5</ele><time>2026-04-11T12:39:22.999Z</time></trkpt><trkpt lat="43.628093534496855" lon="11.460370035930776"><ele>122.0</ele><time>2026-04-11T12:39:23.999Z</time></trkpt><trkpt lat="43.62818242817457" lon="11.460271682704247"><ele>122.5</ele><time>2026-04-11T12:39:24.999Z</time></trkpt><trkpt lat="43.62828078696335" lon="11.4601664018404"><ele>123.0</ele><time>2026-04-11T12:39:25.999Z</time></trkpt><trkpt lat="43.62839516846886" lon="11.460091148268166"><ele>123.0</ele><time>2026-04-11T12:39:26.999Z</time></trkpt><trkpt lat="43.628512032223256" lon="11.45999508712169"><ele>123.0</ele><time>2026-04-11T12:39:27.999Z</time></trkpt><trkpt lat="43.6286387793469" lon="11.459890572365447"><ele>123.0</ele><time>2026-04-11T12:39:28.999Z</time></trkpt><trkpt lat="43.62876837393336" lon="11.45978232071302"><ele>123.0</ele><time>2026-04-11T12:39:29.999Z</time></trkpt><trkpt lat="43.62888482338697" lon="11.459690528604975"><ele>122.60000000000001</ele><time>2026-04-11T12:39:30.999Z</time></trkpt><trkpt lat="43.628991532161514" lon="11.459608194153498"><ele>122.20000000000002</ele><time>2026-04-11T12:39:31.999Z</time></trkpt><trkpt lat="43.62909398902666" lon="11.459556524882274"><ele>121.8</ele><time>2026-04-11T12:39:32.999Z</time></trkpt><trkpt lat="43.62919368602448" lon="11.459556688640335"><ele>121.4</ele><time>2026-04-11T12:39:33.999Z</time></trkpt><trkpt lat="43.62929616919272" lon="11.45960145885849"><ele>121.0</ele><time>2026-04-11T12:39:34.999Z</time></trkpt><trkpt lat="43.6293876670747" lon="11.459623202592093"><ele>121.19999999999999</ele><time>2026-04-11T12:39:35.999Z</time></trkpt><trkpt lat="43.629484508500965" lon="11.459585651371603"><ele>121.39999999999999</ele><time>2026-04-11T12:39:36.999Z</time></trkpt><trkpt lat="43.6295607062049" lon="11.459476659082558"><ele>121.6</ele><time>2026-04-11T12:39:37.999Z</time></trkpt><trkpt lat="43.62962239818969" lon="11.459331719619378"><ele>121.8</ele><time>2026-04-11T12:39:38.999Z</time></trkpt><trkpt lat="43.629697160845254" lon="11.459240023446737"><ele>122.0</ele><time>2026-04-11T12:39:39.999Z</time></trkpt><trkpt lat="43.62981296759416" lon="11.45924886698261"><ele>122.0</ele><time>2026-04-11T12:39:40.999Z</time></trkpt><trkpt lat="43.6299341133629" lon="11.45925455729206"><ele>122.0</ele><time>2026-04-11T12:39:41.999Z</time></trkpt><trkpt lat="43.63006529686572" lon="11.459245109356042"><ele>122.0</ele><time>2026-04-11T12:39:42.999Z</time></trkpt><trkpt lat="43.63021532037866" lon="11.459231439450678"><ele>122.0</ele><time>2026-04-11T12:39:43.999Z</time></trkpt><trkpt lat="43.63037312554414" lon="11.4592120711399"><ele>122.0</ele><time>2026-04-11T12:39:44.999Z</time></trkpt><trkpt lat="43.630532292316246" lon="11.459195006457824"><ele>122.0</ele><time>2026-04-11T12:39:45.999Z</time></trkpt><trkpt lat="43.630692656983044" lon="11.459180113135982"><ele>122.0</ele><time>2026-04-11T12:39:46.999Z</time></trkpt><trkpt lat="43.63085025806398" lon="11.459164049465516"><ele>122.0</ele><time>2026-04-11T12:39:47.999Z</time></trkpt><trkpt lat="43.631002235337164" lon="11.459153981141652"><ele>122.0</ele><time>2026-04-11T12:39:48.999Z</time></trkpt><trkpt lat="43.63115328755513" lon="11.459132603460459"><ele>122.0</ele><time>2026-04-11T12:39:49.999Z</time></trkpt><trkpt lat="43.63129268821915" lon="11.459104047213229"><ele>122.0</ele><time>2026-04-11T12:39:50.999Z</time></trkpt><trkpt lat="43.63143895375137" lon="11.45903728185923"><ele>122.0</ele><time>2026-04-11T12:39:51.999Z</time></trkpt><trkpt lat="43.63156736441748" lon="11.458933860459824"><ele>122.0</ele><time>2026-04-11T12:39:52.999Z</time></trkpt><trkpt lat="43.63168668306649" lon="11.458812396574128"><ele>122.0</ele><time>2026-04-11T12:39:53.999Z</time></trkpt><trkpt lat="43.63179411921074" lon="11.458701862220186"><ele>122.0</ele><time>2026-04-11T12:39:54.999Z</time></trkpt><trkpt lat="43.63190366682492" lon="11.458613942200833"><ele>121.6</ele><time>2026-04-11T12:39:55.999Z</time></trkpt><trkpt lat="43.632001398152184" lon="11.458532315574297"><ele>121.19999999999999</ele><time>2026-04-11T12:39:56.999Z</time></trkpt><trkpt lat="43.63208443010585" lon="11.458461764978823"><ele>120.8</ele><time>2026-04-11T12:39:57.998Z</time></trkpt><trkpt lat="43.6321603149914" lon="11.458390912365333"><ele>120.4</ele><time>2026-04-11T12:39:58.998Z</time></trkpt><trkpt lat="43.63224383054882" lon="11.458312115014401"><ele>120.0</ele><time>2026-04-11T12:39:59.998Z</time></trkpt><trkpt lat="43.632327578589305" lon="11.458236307556968"><ele>120.0</ele><time>2026-04-11T12:40:00.998Z</time></trkpt><trkpt lat="43.632415657951725" lon="11.458159776326"><ele>120.0</ele><time>2026-04-11T12:40:01.998Z</time></trkpt><trkpt lat="43.63251593392747" lon="11.458060492411452"><ele>120.0</ele><time>2026-04-11T12:40:02.998Z</time></trkpt><trkpt lat="43.632627873652126" lon="11.457945852907743"><ele>120.0</ele><time>2026-04-11T12:40:03.998Z</time></trkpt><trkpt lat="43.63276577580789" lon="11.457822317924437"><ele>120.0</ele><time>2026-04-11T12:40:04.998Z</time></trkpt><trkpt lat="43.63291326742604" lon="11.457697447030775"><ele>120.0</ele><time>2026-04-11T12:40:05.998Z</time></trkpt><trkpt lat="43.6330675709656" lon="11.457570339286445"><ele>120.0</ele><time>2026-04-11T12:40:06.998Z</time></trkpt><trkpt lat="43.63322037374845" lon="11.457444414496196"><ele>120.0</ele><time>2026-04-11T12:40:07.998Z</time></trkpt><trkpt lat="43.63336808452335" lon="11.457318538503822"><ele>120.0</ele><time>2026-04-11T12:40:08.998Z</time></trkpt><trkpt lat="43.63350612689723" lon="11.457201164408914"><ele>120.0</ele><time>2026-04-11T12:40:09.998Z</time></trkpt><trkpt lat="43.63364678380476" lon="11.457071777930514"><ele>120.33333333333334</ele><time>2026-04-11T12:40:10.998Z</time></trkpt><trkpt lat="43.63378490709966" lon="11.456948299947525"><ele>120.66666666666667</ele><time>2026-04-11T12:40:11.998Z</time></trkpt><trkpt lat="43.63392634958499" lon="11.456829014585644"><ele>121.0</ele><time>2026-04-11T12:40:12.998Z</time></trkpt><trkpt lat="43.634074373910984" lon="11.456703244515465"><ele>121.0</ele><time>2026-04-11T12:40:13.998Z</time></trkpt><trkpt lat="43.63419787973475" lon="11.456594507237078"><ele>121.0</ele><time>2026-04-11T12:40:14.998Z</time></trkpt><trkpt lat="43.63432127565618" lon="11.456488098715022"><ele>121.0</ele><time>2026-04-11T12:40:15.998Z</time></trkpt><trkpt lat="43.63443818431076" lon="11.456392864915504"><ele>121.0</ele><time>2026-04-11T12:40:16.998Z</time></trkpt><trkpt lat="43.634547101605875" lon="11.45630281956793"><ele>121.25</ele><time>2026-04-11T12:40:17.998Z</time></trkpt><trkpt lat="43.6346582687764" lon="11.456195725505154"><ele>121.5</ele><time>2026-04-11T12:40:18.998Z</time></trkpt><trkpt lat="43.63477506244689" lon="11.456089400781188"><ele>121.75</ele><time>2026-04-11T12:40:19.998Z</time></trkpt><trkpt lat="43.63488433941039" lon="11.455992696653913"><ele>122.0</ele><time>2026-04-11T12:40:21Z</time></trkpt><trkpt lat="43.63498461092525" lon="11.455906070266778"><ele>122.0</ele><time>2026-04-11T12:40:22Z</time></trkpt><trkpt lat="43.635077839807416" lon="11.455820764286614"><ele>121.99999999999999</ele><time>2026-04-11T12:40:23Z</time></trkpt><trkpt lat="43.635165021018985" lon="11.455747838206271"><ele>121.99999999999999</ele><time>2026-04-11T12:40:24Z</time></trkpt><trkpt lat="43.63524120462114" lon="11.455693546842376"><ele>122.0</ele><time>2026-04-11T12:40:25Z</time></trkpt><trkpt lat="43.63530448115414" lon="11.455653743548813"><ele>122.0</ele><time>2026-04-11T12:40:26Z</time></trkpt><trkpt lat="43.63538706254791" lon="11.455594874137104"><ele>121.6</ele><time>2026-04-11T12:40:28Z</time></trkpt><trkpt lat="43.63547527738096" lon="11.4555570747559"><ele>121.19999999999999</ele><time>2026-04-11T12:40:30Z</time></trkpt><trkpt lat="43.63553509334187" lon="11.45552031921874"><ele>120.8</ele><time>2026-04-11T12:40:31Z</time></trkpt><trkpt lat="43.635628533772895" lon="11.455388015864333"><ele>120.4</ele><time>2026-04-11T12:40:33Z</time></trkpt><trkpt lat="43.63569683602571" lon="11.455298805522915"><ele>120.0</ele><time>2026-04-11T12:40:34Z</time></trkpt><trkpt lat="43.635781558086556" lon="11.455203182693605"><ele>120.0</ele><time>2026-04-11T12:40:35Z</time></trkpt><trkpt lat="43.635888716676895" lon="11.455131425159848"><ele>120.0</ele><time>2026-04-11T12:40:36Z</time></trkpt><trkpt lat="43.63598611702408" lon="11.455030000937057"><ele>120.0</ele><time>2026-04-11T12:40:37Z</time></trkpt><trkpt lat="43.63610043613806" lon="11.454945682989916"><ele>120.0</ele><time>2026-04-11T12:40:38Z</time></trkpt><trkpt lat="43.63620297382464" lon="11.45482592017156"><ele>120.0</ele><time>2026-04-11T12:40:39Z</time></trkpt><trkpt lat="43.636316648019594" lon="11.454723400581887"><ele>120.0</ele><time>2026-04-11T12:40:40Z</time></trkpt><trkpt lat="43.63642157663047" lon="11.454637436003555"><ele>120.0</ele><time>2026-04-11T12:40:41Z</time></trkpt><trkpt lat="43.63652269366666" lon="11.45454968474514"><ele>120.0</ele><time>2026-04-11T12:40:42Z</time></trkpt><trkpt lat="43.636624023351956" lon="11.454464934696054"><ele>119.75</ele><time>2026-04-11T12:40:43Z</time></trkpt><trkpt lat="43.636734904019846" lon="11.45436444950899"><ele>119.5</ele><time>2026-04-11T12:40:44Z</time></trkpt><trkpt lat="43.63686383813859" lon="11.454274840962155"><ele>119.25</ele><time>2026-04-11T12:40:45Z</time></trkpt><trkpt lat="43.63698565372275" lon="11.454166551249497"><ele>119.0</ele><time>2026-04-11T12:40:46Z</time></trkpt><trkpt lat="43.63708173427168" lon="11.454006715064462"><ele>118.66666666666666</ele><time>2026-04-11T12:40:47Z</time></trkpt><trkpt lat="43.637239792035444" lon="11.453892404903657"><ele>118.33333333333334</ele><time>2026-04-11T12:40:48Z</time></trkpt><trkpt lat="43.6373898795904" lon="11.453768376889366"><ele>118.0</ele><time>2026-04-11T12:40:49Z</time></trkpt><trkpt lat="43.63754915225734" lon="11.45364198302198"><ele>118.0</ele><time>2026-04-11T12:40:50Z</time></trkpt><trkpt lat="43.63769857435467" lon="11.453508702686518"><ele>118.0</ele><time>2026-04-11T12:40:51Z</time></trkpt><trkpt lat="43.637844211360054" lon="11.453379854535918"><ele>118.0</ele><time>2026-04-11T12:40:52Z</time></trkpt><trkpt lat="43.63799130216827" lon="11.453251159317906"><ele>119.0</ele><time>2026-04-11T12:40:53Z</time></trkpt><trkpt lat="43.63812633472945" lon="11.453125706106682"><ele>120.0</ele><time>2026-04-11T12:40:54Z</time></trkpt><trkpt lat="43.63826675833709" lon="11.453007515946238"><ele>121.0</ele><time>2026-04-11T12:40:55Z</time></trkpt><trkpt lat="43.63840473612956" lon="11.452889754771801"><ele>121.0</ele><time>2026-04-11T12:40:56Z</time></trkpt><trkpt lat="43.638528929376974" lon="11.452772202060084"><ele>121.0</ele><time>2026-04-11T12:40:57Z</time></trkpt><trkpt lat="43.63864727422096" lon="11.452663793668771"><ele>121.0</ele><time>2026-04-11T12:40:58Z</time></trkpt><trkpt lat="43.63876023222911" lon="11.452561163405097"><ele>121.0</ele><time>2026-04-11T12:40:59Z</time></trkpt><trkpt lat="43.63887303238641" lon="11.452462187096131"><ele>121.0</ele><time>2026-04-11T12:41:00Z</time></trkpt><trkpt lat="43.63898609174383" lon="11.452375590165486"><ele>121.0</ele><time>2026-04-11T12:41:01Z</time></trkpt><trkpt lat="43.63910317378196" lon="11.452283493466071"><ele>121.0</ele><time>2026-04-11T12:41:02Z</time></trkpt><trkpt lat="43.63921391713127" lon="11.452184289293356"><ele>121.0</ele><time>2026-04-11T12:41:03Z</time></trkpt><trkpt lat="43.63932419558261" lon="11.452084837085211"><ele>121.75</ele><time>2026-04-11T12:41:04Z</time></trkpt><trkpt lat="43.639433177442555" lon="11.451988142594942"><ele>122.5</ele><time>2026-04-11T12:41:05Z</time></trkpt><trkpt lat="43.639538750837694" lon="11.451902801113452"><ele>123.25</ele><time>2026-04-11T12:41:06Z</time></trkpt><trkpt lat="43.639641110491574" lon="11.451816202642815"><ele>124.0</ele><time>2026-04-11T12:41:07Z</time></trkpt><trkpt lat="43.639744585511814" lon="11.451731416198033"><ele>124.2</ele><time>2026-04-11T12:41:08Z</time></trkpt><trkpt lat="43.639853008561516" lon="11.451704180842086"><ele>124.4</ele><time>2026-04-11T12:41:09Z</time></trkpt><trkpt lat="43.639933152407174" lon="11.451662661391186"><ele>124.6</ele><time>2026-04-11T12:41:09.999Z</time></trkpt><trkpt lat="43.64003104013045" lon="11.451655068118345"><ele>124.8</ele><time>2026-04-11T12:41:10.999Z</time></trkpt><trkpt lat="43.64013258712212" lon="11.45164779718598"><ele>125.0</ele><time>2026-04-11T12:41:11.999Z</time></trkpt><trkpt lat="43.64023318995548" lon="11.451643780302167"><ele>124.4</ele><time>2026-04-11T12:41:12.999Z</time></trkpt><trkpt lat="43.64034114326866" lon="11.45166299040747"><ele>123.8</ele><time>2026-04-11T12:41:13.999Z</time></trkpt><trkpt lat="43.640449656698806" lon="11.451696850641905"><ele>123.19999999999999</ele><time>2026-04-11T12:41:14.999Z</time></trkpt><trkpt lat="43.64055297499792" lon="11.451737072100308"><ele>122.6</ele><time>2026-04-11T12:41:15.999Z</time></trkpt><trkpt lat="43.64066577637326" lon="11.451763771811166"><ele>122.0</ele><time>2026-04-11T12:41:16.999Z</time></trkpt><trkpt lat="43.64077961702602" lon="11.45179774883515"><ele>122.0</ele><time>2026-04-11T12:41:17.999Z</time></trkpt><trkpt lat="43.64089140291299" lon="11.451836252272308"><ele>122.0</ele><time>2026-04-11T12:41:18.999Z</time></trkpt><trkpt lat="43.641008065040864" lon="11.451883709460928"><ele>122.0</ele><time>2026-04-11T12:41:19.999Z</time></trkpt><trkpt lat="43.64111755673493" lon="11.451950491859854"><ele>122.0</ele><time>2026-04-11T12:41:20.999Z</time></trkpt><trkpt lat="43.641209045029974" lon="11.452018711163504"><ele>121.83333333333333</ele><time>2026-04-11T12:41:21.999Z</time></trkpt><trkpt lat="43.641277218272144" lon="11.452075539255384"><ele>121.66666666666666</ele><time>2026-04-11T12:41:22.999Z</time></trkpt><trkpt lat="43.641362857593805" lon="11.452171546355798"><ele>121.5</ele><time>2026-04-11T12:41:24.999Z</time></trkpt><trkpt lat="43.641418608310005" lon="11.452228997069588"><ele>121.33333333333334</ele><time>2026-04-11T12:41:27.999Z</time></trkpt><trkpt lat="43.641493088726406" lon="11.45227799400245"><ele>121.16666666666667</ele><time>2026-04-11T12:41:32.999Z</time></trkpt><trkpt lat="43.64152215820951" lon="11.452362252294279"><ele>121.0</ele><time>2026-04-11T12:41:35.999Z</time></trkpt><trkpt lat="43.64154689986828" lon="11.452501746686842"><ele>121.00000000000001</ele><time>2026-04-11T12:41:38.999Z</time></trkpt><trkpt lat="43.64154439403733" lon="11.452594745863749"><ele>121.0</ele><time>2026-04-11T12:41:39.999Z</time></trkpt><trkpt lat="43.641562476456706" lon="11.452702429353298"><ele>121.0</ele><time>2026-04-11T12:41:40.999Z</time></trkpt><trkpt lat="43.641608826120006" lon="11.452786586830012"><ele>121.0</ele><time>2026-04-11T12:41:41.999Z</time></trkpt><trkpt lat="43.64167834473757" lon="11.452823152079095"><ele>121.00000000000001</ele><time>2026-04-11T12:41:42.999Z</time></trkpt><trkpt lat="43.64175904261769" lon="11.45281486225013"><ele>121.0</ele><time>2026-04-11T12:41:43.999Z</time></trkpt><trkpt lat="43.64183667521499" lon="11.452777168315464"><ele>121.0</ele><time>2026-04-11T12:41:44.999Z</time></trkpt><trkpt lat="43.64191722782147" lon="11.452706523607073"><ele>121.0</ele><time>2026-04-11T12:41:45.999Z</time></trkpt><trkpt lat="43.64199517013442" lon="11.452631200253629"><ele>121.0</ele><time>2026-04-11T12:41:46.999Z</time></trkpt><trkpt lat="43.64207146404631" lon="11.452562760918143"><ele>121.0</ele><time>2026-04-11T12:41:47.999Z</time></trkpt><trkpt lat="43.642154689068754" lon="11.452499539494763"><ele>121.0</ele><time>2026-04-11T12:41:48.999Z</time></trkpt><trkpt lat="43.642258233822076" lon="11.452445749208255"><ele>121.0</ele><time>2026-04-11T12:41:49.999Z</time></trkpt><trkpt lat="43.64236865293893" lon="11.452421877677118"><ele>121.0</ele><time>2026-04-11T12:41:50.999Z</time></trkpt><trkpt lat="43.642473038183375" lon="11.452418336536313"><ele>121.0</ele><time>2026-04-11T12:41:51.999Z</time></trkpt><trkpt lat="43.642582591826894" lon="11.452408148359135"><ele>121.0</ele><time>2026-04-11T12:41:52.999Z</time></trkpt><trkpt lat="43.64269738562581" lon="11.452400625678358"><ele>121.0</ele><time>2026-04-11T12:41:53.999Z</time></trkpt><trkpt lat="43.64281702105507" lon="11.452396924232474"><ele>121.0</ele><time>2026-04-11T12:41:54.999Z</time></trkpt><trkpt lat="43.64294414889646" lon="11.452383931805452"><ele>121.0</ele><time>2026-04-11T12:41:55.999Z</time></trkpt><trkpt lat="43.64307111434972" lon="11.452370339505322"><ele>121.0</ele><time>2026-04-11T12:41:56.999Z</time></trkpt><trkpt lat="43.64319161981753" lon="11.452350527629928"><ele>121.0</ele><time>2026-04-11T12:41:57.999Z</time></trkpt><trkpt lat="43.6433004443217" lon="11.452326122846609"><ele>121.0</ele><time>2026-04-11T12:41:58.999Z</time></trkpt><trkpt lat="43.64340696432971" lon="11.452293488868841"><ele>121.0</ele><time>2026-04-11T12:41:59.999Z</time></trkpt><trkpt lat="43.64351295062454" lon="11.452259030994695"><ele>121.0</ele><time>2026-04-11T12:42:00.999Z</time></trkpt><trkpt lat="43.64362637803061" lon="11.452222391428503"><ele>121.0</ele><time>2026-04-11T12:42:01.999Z</time></trkpt><trkpt lat="43.6437413821378" lon="11.452180013692308"><ele>120.75</ele><time>2026-04-11T12:42:02.999Z</time></trkpt><trkpt lat="43.64385711794583" lon="11.452133299951175"><ele>120.5</ele><time>2026-04-11T12:42:03.999Z</time></trkpt><trkpt lat="43.64396399286792" lon="11.452086990876406"><ele>120.25</ele><time>2026-04-11T12:42:04.999Z</time></trkpt><trkpt lat="43.644072366297436" lon="11.45203408269577"><ele>120.0</ele><time>2026-04-11T12:42:05.999Z</time></trkpt><trkpt lat="43.64419236521735" lon="11.45197389689128"><ele>120.25</ele><time>2026-04-11T12:42:06.999Z</time></trkpt><trkpt lat="43.64431176398353" lon="11.451916497929478"><ele>120.5</ele><time>2026-04-11T12:42:07.999Z</time></trkpt><trkpt lat="43.64442696214562" lon="11.451858413667862"><ele>120.75</ele><time>2026-04-11T12:42:08.999Z</time></trkpt><trkpt lat="43.644544318723604" lon="11.451800163325068"><ele>121.0</ele><time>2026-04-11T12:42:09.999Z</time></trkpt><trkpt lat="43.64466061263932" lon="11.451752640489609"><ele>121.0</ele><time>2026-04-11T12:42:10.999Z</time></trkpt><trkpt lat="43.64476527549549" lon="11.451706087149297"><ele>121.0</ele><time>2026-04-11T12:42:11.999Z</time></trkpt><trkpt lat="43.64486655229775" lon="11.451650353403728"><ele>121.0</ele><time>2026-04-11T12:42:12.999Z</time></trkpt><trkpt lat="43.6449696554954" lon="11.451591823574773"><ele>121.0</ele><time>2026-04-11T12:42:13.999Z</time></trkpt><trkpt lat="43.645070578990605" lon="11.451523552625252"><ele>121.0</ele><time>2026-04-11T12:42:14.999Z</time></trkpt><trkpt lat="43.64517837247116" lon="11.451466496183993"><ele>121.0</ele><time>2026-04-11T12:42:15.999Z</time></trkpt><trkpt lat="43.64529169418981" lon="11.451431708885762"><ele>121.0</ele><time>2026-04-11T12:42:16.999Z</time></trkpt><trkpt lat="43.64540571254797" lon="11.451397889336034"><ele>121.0</ele><time>2026-04-11T12:42:17.999Z</time></trkpt><trkpt lat="43.64551537389272" lon="11.45137382137182"><ele>121.0</ele><time>2026-04-11T12:42:18.999Z</time></trkpt><trkpt lat="43.64563603053942" lon="11.451340926447738"><ele>121.25</ele><time>2026-04-11T12:42:19.999Z</time></trkpt><trkpt lat="43.645768614751475" lon="11.451306189739073"><ele>121.5</ele><time>2026-04-11T12:42:20.999Z</time></trkpt><trkpt lat="43.64591063787946" lon="11.45127233419619"><ele>121.75</ele><time>2026-04-11T12:42:21.999Z</time></trkpt><trkpt lat="43.64604636559465" lon="11.451235597478972"><ele>122.0</ele><time>2026-04-11T12:42:22.999Z</time></trkpt><trkpt lat="43.64619244359526" lon="11.451200541772566"><ele>122.0</ele><time>2026-04-11T12:42:23.999Z</time></trkpt><trkpt lat="43.64634221035983" lon="11.451156391812713"><ele>122.0</ele><time>2026-04-11T12:42:24.999Z</time></trkpt><trkpt lat="43.64648793174741" lon="11.451117089694097"><ele>122.0</ele><time>2026-04-11T12:42:25.999Z</time></trkpt><trkpt lat="43.64663231884182" lon="11.45108458578225"><ele>122.0</ele><time>2026-04-11T12:42:27Z</time></trkpt><trkpt lat="43.64676423083657" lon="11.451053492280433"><ele>122.0</ele><time>2026-04-11T12:42:28Z</time></trkpt><trkpt lat="43.64689898306274" lon="11.451014104682852"><ele>122.0</ele><time>2026-04-11T12:42:29Z</time></trkpt><trkpt lat="43.647036932155515" lon="11.450979593574994"><ele>122.0</ele><time>2026-04-11T12:42:30Z</time></trkpt><trkpt lat="43.647168608310025" lon="11.450950649947668"><ele>122.0</ele><time>2026-04-11T12:42:31Z</time></trkpt><trkpt lat="43.64729409296857" lon="11.450922715939727"><ele>122.0</ele><time>2026-04-11T12:42:32Z</time></trkpt><trkpt lat="43.64742931990442" lon="11.45091253097479"><ele>122.0</ele><time>2026-04-11T12:42:33Z</time></trkpt><trkpt lat="43.64756452071998" lon="11.450904952716279"><ele>122.0</ele><time>2026-04-11T12:42:34Z</time></trkpt><trkpt lat="43.647692352908045" lon="11.450897218779602"><ele>122.0</ele><time>2026-04-11T12:42:35Z</time></trkpt><trkpt lat="43.64781118217188" lon="11.450882348678324"><ele>122.0</ele><time>2026-04-11T12:42:36Z</time></trkpt><trkpt lat="43.64792337288124" lon="11.450869568575161"><ele>122.0</ele><time>2026-04-11T12:42:37Z</time></trkpt><trkpt lat="43.64803605602804" lon="11.450858796296556"><ele>122.0</ele><time>2026-04-11T12:42:38Z</time></trkpt><trkpt lat="43.64815337565931" lon="11.450854085197557"><ele>122.0</ele><time>2026-04-11T12:42:39Z</time></trkpt><trkpt lat="43.648268673629424" lon="11.450855841574135"><ele>122.0</ele><time>2026-04-11T12:42:40Z</time></trkpt><trkpt lat="43.648385265106235" lon="11.450868254486554"><ele>122.0</ele><time>2026-04-11T12:42:41Z</time></trkpt><trkpt lat="43.648505491729146" lon="11.450896130749516"><ele>122.0</ele><time>2026-04-11T12:42:42Z</time></trkpt><trkpt lat="43.64861708276196" lon="11.450926098504356"><ele>122.0</ele><time>2026-04-11T12:42:43Z</time></trkpt><trkpt lat="43.6487400575413" lon="11.45096202133584"><ele>121.75</ele><time>2026-04-11T12:42:44Z</time></trkpt><trkpt lat="43.64885938431903" lon="11.450986802620454"><ele>121.5</ele><time>2026-04-11T12:42:45Z</time></trkpt><trkpt lat="43.64897550682679" lon="11.451012658107683"><ele>121.25</ele><time>2026-04-11T12:42:46Z</time></trkpt><trkpt lat="43.64909991675728" lon="11.451041005476263"><ele>121.0</ele><time>2026-04-11T12:42:47Z</time></trkpt><trkpt lat="43.64922467883108" lon="11.451071936771365"><ele>121.0</ele><time>2026-04-11T12:42:48Z</time></trkpt><trkpt lat="43.649344190759386" lon="11.451100307149435"><ele>121.0</ele><time>2026-04-11T12:42:49Z</time></trkpt><trkpt lat="43.6494609544543" lon="11.451128944452584"><ele>121.0</ele><time>2026-04-11T12:42:50Z</time></trkpt><trkpt lat="43.64959226200823" lon="11.451150986161467"><ele>121.0</ele><time>2026-04-11T12:42:51Z</time></trkpt><trkpt lat="43.64971722756108" lon="11.451154946158386"><ele>121.25</ele><time>2026-04-11T12:42:52Z</time></trkpt><trkpt lat="43.64983392405699" lon="11.451139345214223"><ele>121.5</ele><time>2026-04-11T12:42:53Z</time></trkpt><trkpt lat="43.64994598256867" lon="11.451128279144926"><ele>121.75</ele><time>2026-04-11T12:42:54Z</time></trkpt><trkpt lat="43.65006074944317" lon="11.451120313455746"><ele>122.0</ele><time>2026-04-11T12:42:55Z</time></trkpt><trkpt lat="43.65017156534393" lon="11.451111232137656"><ele>122.0</ele><time>2026-04-11T12:42:56Z</time></trkpt><trkpt lat="43.65028068642914" lon="11.451105028921072"><ele>121.99999999999999</ele><time>2026-04-11T12:42:57Z</time></trkpt><trkpt lat="43.650380368111115" lon="11.451099954282064"><ele>121.99999999999999</ele><time>2026-04-11T12:42:58Z</time></trkpt><trkpt lat="43.65048771390486" lon="11.45109806815219"><ele>122.0</ele><time>2026-04-11T12:42:59Z</time></trkpt><trkpt lat="43.6505952028112" lon="11.451095401591287"><ele>122.0</ele><time>2026-04-11T12:43:00Z</time></trkpt><trkpt lat="43.65068899414437" lon="11.451098554426057"><ele>122.19999999999999</ele><time>2026-04-11T12:43:01Z</time></trkpt><trkpt lat="43.65077408017986" lon="11.451136571345423"><ele>122.39999999999999</ele><time>2026-04-11T12:43:02Z</time></trkpt><trkpt lat="43.65085791579782" lon="11.451164274609198"><ele>122.60000000000001</ele><time>2026-04-11T12:43:03Z</time></trkpt><trkpt lat="43.65096653713227" lon="11.451183223172297"><ele>122.80000000000001</ele><time>2026-04-11T12:43:04Z</time></trkpt><trkpt lat="43.651088608800194" lon="11.45124192077082"><ele>123.0</ele><time>2026-04-11T12:43:05Z</time></trkpt><trkpt lat="43.65121273867192" lon="11.451302630897432"><ele>123.0</ele><time>2026-04-11T12:43:06Z</time></trkpt><trkpt lat="43.65133170254499" lon="11.45135669050326"><ele>123.0</ele><time>2026-04-11T12:43:07Z</time></trkpt><trkpt lat="43.6514467595109" lon="11.451400363071768"><ele>123.0</ele><time>2026-04-11T12:43:08Z</time></trkpt><trkpt lat="43.65156896181498" lon="11.451435574514369"><ele>123.0</ele><time>2026-04-11T12:43:09Z</time></trkpt><trkpt lat="43.65169442493563" lon="11.451456477563811"><ele>123.0</ele><time>2026-04-11T12:43:10Z</time></trkpt><trkpt lat="43.65181225103592" lon="11.451452929690833"><ele>123.00000000000001</ele><time>2026-04-11T12:43:11Z</time></trkpt><trkpt lat="43.65192354199387" lon="11.451449569562836"><ele>123.00000000000001</ele><time>2026-04-11T12:43:12Z</time></trkpt><trkpt lat="43.652030583127186" lon="11.451457163259937"><ele>123.0</ele><time>2026-04-11T12:43:13Z</time></trkpt><trkpt lat="43.65212936155872" lon="11.451450918031808"><ele>123.0</ele><time>2026-04-11T12:43:14Z</time></trkpt><trkpt lat="43.652236626024944" lon="11.451430753935588"><ele>122.5</ele><time>2026-04-11T12:43:15Z</time></trkpt><trkpt lat="43.65235835083686" lon="11.45141547741298"><ele>122.0</ele><time>2026-04-11T12:43:16Z</time></trkpt><trkpt lat="43.6524936900304" lon="11.451397083279337"><ele>121.5</ele><time>2026-04-11T12:43:17Z</time></trkpt><trkpt lat="43.65263274361564" lon="11.451376483594066"><ele>121.0</ele><time>2026-04-11T12:43:18Z</time></trkpt><trkpt lat="43.65275664569882" lon="11.451350294809043"><ele>121.19999999999999</ele><time>2026-04-11T12:43:19Z</time></trkpt><trkpt lat="43.65286592240496" lon="11.451314357351531"><ele>121.39999999999999</ele><time>2026-04-11T12:43:20Z</time></trkpt><trkpt lat="43.6529757467773" lon="11.451282365035034"><ele>121.6</ele><time>2026-04-11T12:43:21Z</time></trkpt><trkpt lat="43.65308168138863" lon="11.451250661209677"><ele>121.8</ele><time>2026-04-11T12:43:22Z</time></trkpt><trkpt lat="43.6531793039389" lon="11.451214608934526"><ele>122.0</ele><time>2026-04-11T12:43:23Z</time></trkpt><trkpt lat="43.65326509797216" lon="11.451174783597294"><ele>122.19999999999999</ele><time>2026-04-11T12:43:24Z</time></trkpt><trkpt lat="43.65337164027112" lon="11.451130940355466"><ele>122.39999999999999</ele><time>2026-04-11T12:43:26Z</time></trkpt><trkpt lat="43.65345461750283" lon="11.451096092204484"><ele>122.60000000000001</ele><time>2026-04-11T12:43:28Z</time></trkpt><trkpt lat="43.65353858440553" lon="11.451060228064552"><ele>122.80000000000001</ele><time>2026-04-11T12:43:30Z</time></trkpt><trkpt lat="43.653637104580795" lon="11.451070244412636"><ele>123.0</ele><time>2026-04-11T12:43:31.999Z</time></trkpt><trkpt lat="43.6537215849858" lon="11.451022760118514"><ele>123.0</ele><time>2026-04-11T12:43:34.999Z</time></trkpt><trkpt lat="43.65380169312644" lon="11.45090910689765"><ele>123.00000000000001</ele><time>2026-04-11T12:43:36.999Z</time></trkpt><trkpt lat="43.65390782253191" lon="11.450881854062352"><ele>123.00000000000001</ele><time>2026-04-11T12:43:38.999Z</time></trkpt><trkpt lat="43.65397810702785" lon="11.450905159784865"><ele>123.0</ele><time>2026-04-11T12:43:40.999Z</time></trkpt><trkpt lat="43.65405028156955" lon="11.450855994019493"><ele>123.0</ele><time>2026-04-11T12:43:43.999Z</time></trkpt><trkpt lat="43.6540988499955" lon="11.450959517481826"><ele>123.0</ele><time>2026-04-11T12:43:44.999Z</time></trkpt><trkpt lat="43.65419061616195" lon="11.451017170596062"><ele>123.00000000000001</ele><time>2026-04-11T12:44:37.001Z</time></trkpt><trkpt lat="43.65418035727565" lon="11.450929332715692"><ele>123.00000000000001</ele><time>2026-04-11T12:48:18.999Z</time></trkpt><trkpt lat="43.65413742993246" lon="11.450779052387563"><ele>123.0</ele><time>2026-04-11T12:48:19.999Z</time></trkpt><trkpt lat="43.65419201880933" lon="11.450659202266714"><ele>123.0</ele><time>2026-04-11T12:48:25.999Z</time></trkpt><trkpt lat="43.65428567551385" lon="11.450597757323004"><ele>123.0</ele><time>2026-04-11T12:48:27.999Z</time></trkpt><trkpt lat="43.65435534196529" lon="11.450533243359775"><ele>123.00000000000001</ele><time>2026-04-11T12:48:28.999Z</time></trkpt><trkpt lat="43.6544380644912" lon="11.450462662247327"><ele>123.00000000000001</ele><time>2026-04-11T12:48:29.999Z</time></trkpt><trkpt lat="43.65451731665866" lon="11.450405068041205"><ele>123.0</ele><time>2026-04-11T12:48:30.999Z</time></trkpt><trkpt lat="43.65459187619618" lon="11.450337613146692"><ele>123.0</ele><time>2026-04-11T12:48:31.999Z</time></trkpt><trkpt lat="43.65467974419571" lon="11.450272262455202"><ele>123.0</ele><time>2026-04-11T12:48:32.999Z</time></trkpt><trkpt lat="43.6547647454068" lon="11.450208360678271"><ele>123.00000000000001</ele><time>2026-04-11T12:48:33.999Z</time></trkpt><trkpt lat="43.65485085528245" lon="11.450139242969401"><ele>123.00000000000001</ele><time>2026-04-11T12:48:34.999Z</time></trkpt><trkpt lat="43.654951831851115" lon="11.450066398962969"><ele>123.0</ele><time>2026-04-11T12:48:35.999Z</time></trkpt><trkpt lat="43.65505685216456" lon="11.450006332170336"><ele>123.0</ele><time>2026-04-11T12:48:36.999Z</time></trkpt><trkpt lat="43.65516289065755" lon="11.449952064643938"><ele>123.0</ele><time>2026-04-11T12:48:37.999Z</time></trkpt><trkpt lat="43.65526982904561" lon="11.44990930725062"><ele>123.00000000000001</ele><time>2026-04-11T12:48:38.999Z</time></trkpt><trkpt lat="43.655372824573526" lon="11.449872820070551"><ele>123.00000000000001</ele><time>2026-04-11T12:48:39.999Z</time></trkpt><trkpt lat="43.65547527219472" lon="11.44984390487902"><ele>123.0</ele><time>2026-04-11T12:48:40.999Z</time></trkpt><trkpt lat="43.65558295280738" lon="11.449804671018418"><ele>123.0</ele><time>2026-04-11T12:48:41.999Z</time></trkpt><trkpt lat="43.65568549564031" lon="11.449769130559112"><ele>123.16666666666667</ele><time>2026-04-11T12:48:42.999Z</time></trkpt><trkpt lat="43.655781673277815" lon="11.449742351007766"><ele>123.33333333333334</ele><time>2026-04-11T12:48:43.999Z</time></trkpt><trkpt lat="43.65587339375579" lon="11.449724809184284"><ele>123.5</ele><time>2026-04-11T12:48:45Z</time></trkpt><trkpt lat="43.65595164551748" lon="11.44971744762882"><ele>123.66666666666667</ele><time>2026-04-11T12:48:46Z</time></trkpt><trkpt lat="43.656026404018235" lon="11.449718820247133"><ele>123.83333333333334</ele><time>2026-04-11T12:48:47Z</time></trkpt><trkpt lat="43.656109112505845" lon="11.449722402454254"><ele>124.0</ele><time>2026-04-11T12:48:48Z</time></trkpt><trkpt lat="43.65619815550476" lon="11.44975878121484"><ele>123.6</ele><time>2026-04-11T12:48:49Z</time></trkpt><trkpt lat="43.65629203350707" lon="11.44978663941599"><ele>123.2</ele><time>2026-04-11T12:48:50Z</time></trkpt><trkpt lat="43.65637903988218" lon="11.449781088852008"><ele>122.79999999999998</ele><time>2026-04-11T12:48:51Z</time></trkpt><trkpt lat="43.65646595413712" lon="11.449767716504887"><ele>122.39999999999999</ele><time>2026-04-11T12:48:52Z</time></trkpt><trkpt lat="43.656561434329795" lon="11.449787272926342"><ele>122.0</ele><time>2026-04-11T12:48:53Z</time></trkpt><trkpt lat="43.656652351076794" lon="11.44981705601313"><ele>122.0</ele><time>2026-04-11T12:48:54Z</time></trkpt><trkpt lat="43.656736988343816" lon="11.449842224803422"><ele>121.99999999999999</ele><time>2026-04-11T12:48:55Z</time></trkpt><trkpt lat="43.65683300630169" lon="11.449868424607168"><ele>121.99999999999999</ele><time>2026-04-11T12:48:56Z</time></trkpt><trkpt lat="43.65693634403462" lon="11.449906721826821"><ele>122.0</ele><time>2026-04-11T12:48:57Z</time></trkpt><trkpt lat="43.6570340798119" lon="11.449939676691564"><ele>122.0</ele><time>2026-04-11T12:48:58Z</time></trkpt><trkpt lat="43.65712690980131" lon="11.449969830656514"><ele>121.75</ele><time>2026-04-11T12:48:59Z</time></trkpt><trkpt lat="43.657226674853014" lon="11.450009571088971"><ele>121.5</ele><time>2026-04-11T12:49:00Z</time></trkpt><trkpt lat="43.657347545237016" lon="11.450051483172238"><ele>121.25</ele><time>2026-04-11T12:49:01Z</time></trkpt><trkpt lat="43.65745622313769" lon="11.450086634451289"><ele>121.0</ele><time>2026-04-11T12:49:02Z</time></trkpt><trkpt lat="43.657567888136924" lon="11.450125676707042"><ele>121.0</ele><time>2026-04-11T12:49:03Z</time></trkpt><trkpt lat="43.6576644264645" lon="11.45016730424302"><ele>121.0</ele><time>2026-04-11T12:49:04Z</time></trkpt><trkpt lat="43.65779437289461" lon="11.450211511529126"><ele>121.0</ele><time>2026-04-11T12:49:05Z</time></trkpt><trkpt lat="43.65791163530848" lon="11.450245361586932"><ele>121.0</ele><time>2026-04-11T12:49:06Z</time></trkpt><trkpt lat="43.65802730546842" lon="11.450294742268838"><ele>120.75</ele><time>2026-04-11T12:49:07Z</time></trkpt><trkpt lat="43.6581449602238" lon="11.450337605333452"><ele>120.5</ele><time>2026-04-11T12:49:08Z</time></trkpt><trkpt lat="43.65827380889025" lon="11.450382685907233"><ele>120.25</ele><time>2026-04-11T12:49:09Z</time></trkpt><trkpt lat="43.65840747545353" lon="11.45043385763603"><ele>120.0</ele><time>2026-04-11T12:49:10Z</time></trkpt><trkpt lat="43.658554624411366" lon="11.450486769492754"><ele>119.33333333333334</ele><time>2026-04-11T12:49:11Z</time></trkpt><trkpt lat="43.6587078971613" lon="11.450534640827717"><ele>118.66666666666667</ele><time>2026-04-11T12:49:12Z</time></trkpt><trkpt lat="43.65886146823169" lon="11.450590344284013"><ele>118.0</ele><time>2026-04-11T12:49:13Z</time></trkpt><trkpt lat="43.65901838311548" lon="11.45064051569312"><ele>118.0</ele><time>2026-04-11T12:49:14Z</time></trkpt><trkpt lat="43.6591900211549" lon="11.450703165228939"><ele>118.0</ele><time>2026-04-11T12:49:15Z</time></trkpt><trkpt lat="43.65936287311372" lon="11.450763663959858"><ele>118.0</ele><time>2026-04-11T12:49:16Z</time></trkpt><trkpt lat="43.65953842746636" lon="11.450825759062571"><ele>118.0</ele><time>2026-04-11T12:49:17Z</time></trkpt><trkpt lat="43.65971807643083" lon="11.45088580408819"><ele>118.0</ele><time>2026-04-11T12:49:18Z</time></trkpt><trkpt lat="43.659901114325535" lon="11.450946470470408"><ele>118.0</ele><time>2026-04-11T12:49:19Z</time></trkpt><trkpt lat="43.66007692077456" lon="11.4510074810081"><ele>118.0</ele><time>2026-04-11T12:49:20Z</time></trkpt><trkpt lat="43.66022989634854" lon="11.451059728354194"><ele>118.0</ele><time>2026-04-11T12:49:21Z</time></trkpt><trkpt lat="43.66037860713585" lon="11.451115783588302"><ele>118.0</ele><time>2026-04-11T12:49:22Z</time></trkpt><trkpt lat="43.660509378331504" lon="11.451161462878844"><ele>118.0</ele><time>2026-04-11T12:49:23Z</time></trkpt><trkpt lat="43.660634084329196" lon="11.451208798215362"><ele>118.2</ele><time>2026-04-11T12:49:24Z</time></trkpt><trkpt lat="43.660750179240075" lon="11.451247255258188"><ele>118.4</ele><time>2026-04-11T12:49:25Z</time></trkpt><trkpt lat="43.66085270741936" lon="11.451286676159219"><ele>118.60000000000001</ele><time>2026-04-11T12:49:26Z</time></trkpt><trkpt lat="43.660913928164305" lon="11.4513110737232"><ele>118.80000000000001</ele><time>2026-04-11T12:49:27Z</time></trkpt><trkpt lat="43.66101739439213" lon="11.451365275630558"><ele>119.0</ele><time>2026-04-11T12:49:29Z</time></trkpt><trkpt lat="43.66109067064686" lon="11.451084538480025"><ele>119.4</ele><time>2026-04-11T12:49:30.999Z</time></trkpt><trkpt lat="43.661080232915744" lon="11.450960944258876"><ele>119.80000000000001</ele><time>2026-04-11T12:49:31.999Z</time></trkpt><trkpt lat="43.66107565249487" lon="11.450811462844948"><ele>120.19999999999999</ele><time>2026-04-11T12:49:32.999Z</time></trkpt><trkpt lat="43.66108655499101" lon="11.450649364919729"><ele>120.6</ele><time>2026-04-11T12:49:33.999Z</time></trkpt><trkpt lat="43.66109699518899" lon="11.45050693965825"><ele>121.0</ele><time>2026-04-11T12:49:34.999Z</time></trkpt><trkpt lat="43.66110840676026" lon="11.450385487332438"><ele>120.6</ele><time>2026-04-11T12:49:35.999Z</time></trkpt><trkpt lat="43.66113792961216" lon="11.450291803001901"><ele>120.19999999999999</ele><time>2026-04-11T12:49:36.999Z</time></trkpt><trkpt lat="43.66120286175103" lon="11.450220634225865"><ele>119.80000000000001</ele><time>2026-04-11T12:49:37.999Z</time></trkpt><trkpt lat="43.66128577736567" lon="11.450191190712292"><ele>119.4</ele><time>2026-04-11T12:49:38.999Z</time></trkpt><trkpt lat="43.66138747424257" lon="11.450217704283775"><ele>119.0</ele><time>2026-04-11T12:49:39.999Z</time></trkpt><trkpt lat="43.66149041253868" lon="11.45023664958419"><ele>119.0</ele><time>2026-04-11T12:49:40.999Z</time></trkpt><trkpt lat="43.66160161647718" lon="11.450248945714259"><ele>119.0</ele><time>2026-04-11T12:49:41.999Z</time></trkpt><trkpt lat="43.661724101584625" lon="11.450245140509205"><ele>119.0</ele><time>2026-04-11T12:49:42.999Z</time></trkpt><trkpt lat="43.661848190495164" lon="11.450221800929176"><ele>119.0</ele><time>2026-04-11T12:49:43.999Z</time></trkpt><trkpt lat="43.66194446423098" lon="11.450204918077407"><ele>118.83333333333333</ele><time>2026-04-11T12:49:44.999Z</time></trkpt><trkpt lat="43.66202050144931" lon="11.450174659808273"><ele>118.66666666666666</ele><time>2026-04-11T12:49:45.999Z</time></trkpt><trkpt lat="43.66208548757647" lon="11.450133929719168"><ele>118.5</ele><time>2026-04-11T12:49:46.999Z</time></trkpt><trkpt lat="43.6621187087535" lon="11.450042205892261"><ele>118.33333333333334</ele><time>2026-04-11T12:49:47.999Z</time></trkpt><trkpt lat="43.66213345220752" lon="11.449912793431318"><ele>118.16666666666667</ele><time>2026-04-11T12:49:48.999Z</time></trkpt><trkpt lat="43.66214094670333" lon="11.449771468027679"><ele>118.0</ele><time>2026-04-11T12:49:49.999Z</time></trkpt><trkpt lat="43.662147558703715" lon="11.449625647739268"><ele>119.2</ele><time>2026-04-11T12:49:50.999Z</time></trkpt><trkpt lat="43.66215659229022" lon="11.449497123436512"><ele>120.4</ele><time>2026-04-11T12:49:51.999Z</time></trkpt><trkpt lat="43.662172256566826" lon="11.449382919278689"><ele>121.60000000000001</ele><time>2026-04-11T12:49:52.999Z</time></trkpt><trkpt lat="43.66219711282328" lon="11.449292174388509"><ele>122.80000000000001</ele><time>2026-04-11T12:49:53.999Z</time></trkpt><trkpt lat="43.66228555342803" lon="11.449190625407178"><ele>124.0</ele><time>2026-04-11T12:49:55.999Z</time></trkpt><trkpt lat="43.662396558847604" lon="11.449235478933632"><ele>124.0</ele><time>2026-04-11T12:49:57.999Z</time></trkpt><trkpt lat="43.66246083859787" lon="11.449278099173252"><ele>124.0</ele><time>2026-04-11T12:49:58.999Z</time></trkpt><trkpt lat="43.66255299319162" lon="11.449322412324232"><ele>124.0</ele><time>2026-04-11T12:49:59.999Z</time></trkpt><trkpt lat="43.66265217357321" lon="11.44938228196806"><ele>124.0</ele><time>2026-04-11T12:50:00.999Z</time></trkpt><trkpt lat="43.662751997456404" lon="11.449444607526264"><ele>124.0</ele><time>2026-04-11T12:50:01.999Z</time></trkpt><trkpt lat="43.662851842754655" lon="11.449522419922443"><ele>123.75</ele><time>2026-04-11T12:50:02.999Z</time></trkpt><trkpt lat="43.66296130372949" lon="11.449589287480036"><ele>123.5</ele><time>2026-04-11T12:50:03.999Z</time></trkpt><trkpt lat="43.66311281064651" lon="11.449584733853893"><ele>123.25</ele><time>2026-04-11T12:50:04.999Z</time></trkpt><trkpt lat="43.663224438572655" lon="11.449626687127399"><ele>123.0</ele><time>2026-04-11T12:50:05.999Z</time></trkpt><trkpt lat="43.663331735537" lon="11.449664361020673"><ele>122.5</ele><time>2026-04-11T12:50:06.999Z</time></trkpt><trkpt lat="43.66342382298298" lon="11.449710022159314"><ele>122.0</ele><time>2026-04-11T12:50:07.999Z</time></trkpt><trkpt lat="43.66350850763807" lon="11.449751817341946"><ele>121.5</ele><time>2026-04-11T12:50:08.999Z</time></trkpt><trkpt lat="43.663578866774316" lon="11.449769065912838"><ele>121.0</ele><time>2026-04-11T12:50:09.999Z</time></trkpt><trkpt lat="43.66364733970133" lon="11.449757296441517"><ele>120.5</ele><time>2026-04-11T12:50:10.999Z</time></trkpt><trkpt lat="43.66372153545401" lon="11.449730081390674"><ele>120.0</ele><time>2026-04-11T12:50:11.999Z</time></trkpt><trkpt lat="43.66379818389494" lon="11.449714621157826"><ele>120.0</ele><time>2026-04-11T12:50:12.999Z</time></trkpt><trkpt lat="43.66389289107986" lon="11.449685542992695"><ele>120.0</ele><time>2026-04-11T12:50:14.999Z</time></trkpt><trkpt lat="43.66401766810501" lon="11.449635078483105"><ele>120.0</ele><time>2026-04-11T12:50:16.999Z</time></trkpt><trkpt lat="43.66409415708071" lon="11.449597709299075"><ele>120.0</ele><time>2026-04-11T12:50:17.999Z</time></trkpt><trkpt lat="43.66416094392155" lon="11.44956639715146"><ele>120.0</ele><time>2026-04-11T12:50:18.999Z</time></trkpt><trkpt lat="43.66422338280576" lon="11.449513178744166"><ele>122.0</ele><time>2026-04-11T12:50:19.999Z</time></trkpt><trkpt lat="43.664312412845184" lon="11.449466984459262"><ele>124.0</ele><time>2026-04-11T12:50:20.999Z</time></trkpt><trkpt lat="43.66442258659031" lon="11.44939576601482"><ele>126.0</ele><time>2026-04-11T12:50:21.999Z</time></trkpt><trkpt lat="43.66454253403469" lon="11.44931901773261"><ele>128.0</ele><time>2026-04-11T12:50:22.999Z</time></trkpt><trkpt lat="43.66467210583818" lon="11.44924513071508"><ele>128.0</ele><time>2026-04-11T12:50:23.999Z</time></trkpt><trkpt lat="43.6647986329306" lon="11.449182820002555"><ele>128.0</ele><time>2026-04-11T12:50:24.999Z</time></trkpt><trkpt lat="43.664922134178184" lon="11.449117623397512"><ele>128.0</ele><time>2026-04-11T12:50:25.999Z</time></trkpt><trkpt lat="43.66505383070098" lon="11.449054724888867"><ele>128.0</ele><time>2026-04-11T12:50:26.999Z</time></trkpt><trkpt lat="43.66519524307497" lon="11.449000064072173"><ele>127.0</ele><time>2026-04-11T12:50:27.998Z</time></trkpt><trkpt lat="43.66533497144122" lon="11.448932361347511"><ele>126.0</ele><time>2026-04-11T12:50:28.998Z</time></trkpt><trkpt lat="43.66546802250081" lon="11.448882081671634"><ele>125.0</ele><time>2026-04-11T12:50:29.998Z</time></trkpt><trkpt lat="43.665597319954635" lon="11.44882059015113"><ele>124.0</ele><time>2026-04-11T12:50:30.998Z</time></trkpt><trkpt lat="43.66572587237854" lon="11.448782457020135"><ele>126.0</ele><time>2026-04-11T12:50:31.998Z</time></trkpt><trkpt lat="43.66583424399018" lon="11.448742654228832"><ele>128.0</ele><time>2026-04-11T12:50:32.998Z</time></trkpt><trkpt lat="43.665930628218554" lon="11.44869989142423"><ele>130.0</ele><time>2026-04-11T12:50:33.998Z</time></trkpt><trkpt lat="43.66601857046199" lon="11.44865636388121"><ele>132.0</ele><time>2026-04-11T12:50:34.998Z</time></trkpt><trkpt lat="43.66609055704659" lon="11.448588948050674"><ele>134.0</ele><time>2026-04-11T12:50:35.998Z</time></trkpt><trkpt lat="43.666149009125576" lon="11.448510389915551"><ele>134.0</ele><time>2026-04-11T12:50:36.998Z</time></trkpt><trkpt lat="43.666192853176135" lon="11.44840074181249"><ele>134.0</ele><time>2026-04-11T12:50:37.998Z</time></trkpt><trkpt lat="43.666235357402925" lon="11.44828926417416"><ele>134.0</ele><time>2026-04-11T12:50:38.998Z</time></trkpt><trkpt lat="43.66628546332975" lon="11.448161304938997"><ele>134.0</ele><time>2026-04-11T12:50:39.998Z</time></trkpt><trkpt lat="43.666334896687495" lon="11.448036751675781"><ele>134.0</ele><time>2026-04-11T12:50:40.998Z</time></trkpt><trkpt lat="43.666378943808006" lon="11.447913536371047"><ele>136.2</ele><time>2026-04-11T12:50:41.998Z</time></trkpt><trkpt lat="43.666424522635054" lon="11.447803141837252"><ele>138.4</ele><time>2026-04-11T12:50:42.998Z</time></trkpt><trkpt lat="43.66648528461586" lon="11.447689535240395"><ele>140.6</ele><time>2026-04-11T12:50:43.998Z</time></trkpt><trkpt lat="43.66656752567772" lon="11.447600661285003"><ele>142.8</ele><time>2026-04-11T12:50:44.998Z</time></trkpt><trkpt lat="43.666649823312106" lon="11.44751151592632"><ele>145.0</ele><time>2026-04-11T12:50:45.998Z</time></trkpt><trkpt lat="43.66674345619185" lon="11.447413204155886"><ele>145.0</ele><time>2026-04-11T12:50:46.998Z</time></trkpt><trkpt lat="43.66684651184095" lon="11.447298356312833"><ele>145.0</ele><time>2026-04-11T12:50:47.998Z</time></trkpt><trkpt lat="43.66693620505933" lon="11.447178819842518"><ele>145.0</ele><time>2026-04-11T12:50:48.998Z</time></trkpt><trkpt lat="43.667035131821194" lon="11.447063977329073"><ele>145.0</ele><time>2026-04-11T12:50:49.998Z</time></trkpt><trkpt lat="43.6671389479834" lon="11.446942338334766"><ele>145.75</ele><time>2026-04-11T12:50:50.999Z</time></trkpt><trkpt lat="43.66724064891863" lon="11.44683166166671"><ele>146.5</ele><time>2026-04-11T12:50:51.999Z</time></trkpt><trkpt lat="43.66733640995322" lon="11.446730273535719"><ele>147.25</ele><time>2026-04-11T12:50:52.999Z</time></trkpt><trkpt lat="43.66744046993678" lon="11.446659423438097"><ele>148.0</ele><time>2026-04-11T12:50:53.999Z</time></trkpt><trkpt lat="43.667542616343106" lon="11.446585470224452"><ele>148.0</ele><time>2026-04-11T12:50:54.999Z</time></trkpt><trkpt lat="43.667639215682954" lon="11.446534121126774"><ele>148.0</ele><time>2026-04-11T12:50:55.999Z</time></trkpt><trkpt lat="43.667726136171034" lon="11.446515424072569"><ele>148.0</ele><time>2026-04-11T12:50:56.999Z</time></trkpt><trkpt lat="43.66780690224106" lon="11.446506673123984"><ele>148.0</ele><time>2026-04-11T12:50:57.999Z</time></trkpt><trkpt lat="43.667883006852655" lon="11.446506636637563"><ele>148.0</ele><time>2026-04-11T12:50:58.999Z</time></trkpt><trkpt lat="43.66797140163623" lon="11.446521254055071"><ele>148.0</ele><time>2026-04-11T12:50:59.999Z</time></trkpt><trkpt lat="43.66805913481597" lon="11.446546753358358"><ele>148.8</ele><time>2026-04-11T12:51:00.999Z</time></trkpt><trkpt lat="43.66815471420719" lon="11.446580166558942"><ele>149.60000000000002</ele><time>2026-04-11T12:51:01.999Z</time></trkpt><trkpt lat="43.66825411298333" lon="11.44661607639855"><ele>150.39999999999998</ele><time>2026-04-11T12:51:02.999Z</time></trkpt><trkpt lat="43.668320879427085" lon="11.446617272988997"><ele>151.2</ele><time>2026-04-11T12:51:03.999Z</time></trkpt><trkpt lat="43.66837993351105" lon="11.446666173489437"><ele>152.0</ele><time>2026-04-11T12:51:05.999Z</time></trkpt><trkpt lat="43.66848090238358" lon="11.4467371531096"><ele>152.0</ele><time>2026-04-11T12:51:07.999Z</time></trkpt><trkpt lat="43.66854717837066" lon="11.446800651203137"><ele>152.0</ele><time>2026-04-11T12:51:08.999Z</time></trkpt><trkpt lat="43.66863218108335" lon="11.446877745350687"><ele>152.0</ele><time>2026-04-11T12:51:09.999Z</time></trkpt><trkpt lat="43.6687327298769" lon="11.446970493220142"><ele>152.0</ele><time>2026-04-11T12:51:10.999Z</time></trkpt><trkpt lat="43.66883846574098" lon="11.447069704654623"><ele>152.0</ele><time>2026-04-11T12:51:11.999Z</time></trkpt><trkpt lat="43.668947327799685" lon="11.447173508392938"><ele>151.75</ele><time>2026-04-11T12:51:12.999Z</time></trkpt><trkpt lat="43.66906292298718" lon="11.447290526149196"><ele>151.5</ele><time>2026-04-11T12:51:13.999Z</time></trkpt><trkpt lat="43.66916973325108" lon="11.447403238240883"><ele>151.25</ele><time>2026-04-11T12:51:14.999Z</time></trkpt><trkpt lat="43.66924676213301" lon="11.447492495586445"><ele>151.0</ele><time>2026-04-11T12:51:15.999Z</time></trkpt><trkpt lat="43.66930758306715" lon="11.447580607185378"><ele>151.0</ele><time>2026-04-11T12:51:16.999Z</time></trkpt><trkpt lat="43.66936271630368" lon="11.44768844581489"><ele>151.0</ele><time>2026-04-11T12:51:17.999Z</time></trkpt><trkpt lat="43.6694071467913" lon="11.44780531304213"><ele>151.0</ele><time>2026-04-11T12:51:18.999Z</time></trkpt><trkpt lat="43.66944215965373" lon="11.44794246267494"><ele>151.0</ele><time>2026-04-11T12:51:19.999Z</time></trkpt><trkpt lat="43.66947357832705" lon="11.448089061090428"><ele>151.0</ele><time>2026-04-11T12:51:20.999Z</time></trkpt><trkpt lat="43.669498877385884" lon="11.448236323424466"><ele>155.0</ele><time>2026-04-11T12:51:21.999Z</time></trkpt><trkpt lat="43.66953606934788" lon="11.44838391947263"><ele>159.0</ele><time>2026-04-11T12:51:22.999Z</time></trkpt><trkpt lat="43.669554948161874" lon="11.448547893486303"><ele>163.0</ele><time>2026-04-11T12:51:23.999Z</time></trkpt><trkpt lat="43.6695792565343" lon="11.448720358968005"><ele>167.0</ele><time>2026-04-11T12:51:24.999Z</time></trkpt><trkpt lat="43.66959259673132" lon="11.448868436813761"><ele>167.0</ele><time>2026-04-11T12:51:25.999Z</time></trkpt><trkpt lat="43.66960865648158" lon="11.449004992366053"><ele>167.0</ele><time>2026-04-11T12:51:26.999Z</time></trkpt><trkpt lat="43.669627071309634" lon="11.449131572893545"><ele>167.0</ele><time>2026-04-11T12:51:27.999Z</time></trkpt><trkpt lat="43.66966012318904" lon="11.449232129014023"><ele>167.0</ele><time>2026-04-11T12:51:28.999Z</time></trkpt><trkpt lat="43.6696919793518" lon="11.449347254129899"><ele>167.0</ele><time>2026-04-11T12:51:29.999Z</time></trkpt><trkpt lat="43.6697972772259" lon="11.449408476140547"><ele>167.0</ele><time>2026-04-11T12:51:30.999Z</time></trkpt><trkpt lat="43.669897762759994" lon="11.449457659547353"><ele>167.0</ele><time>2026-04-11T12:51:31.999Z</time></trkpt><trkpt lat="43.670005558879694" lon="11.449501585312964"><ele>167.0</ele><time>2026-04-11T12:51:32.999Z</time></trkpt><trkpt lat="43.67011114231454" lon="11.449530234732384"><ele>167.0</ele><time>2026-04-11T12:51:33.999Z</time></trkpt><trkpt lat="43.67021442875514" lon="11.449543040739542"><ele>167.0</ele><time>2026-04-11T12:51:34.999Z</time></trkpt><trkpt lat="43.67031586299057" lon="11.449547973785204"><ele>168.2</ele><time>2026-04-11T12:51:35.999Z</time></trkpt><trkpt lat="43.67042874793877" lon="11.449561210434176"><ele>169.39999999999998</ele><time>2026-04-11T12:51:36.999Z</time></trkpt><trkpt lat="43.67053858137047" lon="11.449576358363686"><ele>170.60000000000002</ele><time>2026-04-11T12:51:37.999Z</time></trkpt><trkpt lat="43.67063017044808" lon="11.449590740421852"><ele>171.8</ele><time>2026-04-11T12:51:38.999Z</time></trkpt><trkpt lat="43.670718328155196" lon="11.44962783333727"><ele>173.0</ele><time>2026-04-11T12:51:39.999Z</time></trkpt><trkpt lat="43.67081502378957" lon="11.449650645646372"><ele>173.0</ele><time>2026-04-11T12:51:40.999Z</time></trkpt><trkpt lat="43.67090595970414" lon="11.449677331068894"><ele>173.0</ele><time>2026-04-11T12:51:41.999Z</time></trkpt><trkpt lat="43.6710050816639" lon="11.4496843110256"><ele>173.0</ele><time>2026-04-11T12:51:42.999Z</time></trkpt><trkpt lat="43.67110421591285" lon="11.449672958641877"><ele>173.0</ele><time>2026-04-11T12:51:43.999Z</time></trkpt><trkpt lat="43.671196863280535" lon="11.449658235229057"><ele>173.0</ele><time>2026-04-11T12:51:44.999Z</time></trkpt><trkpt lat="43.67129053489916" lon="11.449621690560543"><ele>174.0</ele><time>2026-04-11T12:51:45.999Z</time></trkpt><trkpt lat="43.67138228645359" lon="11.449559935778028"><ele>175.0</ele><time>2026-04-11T12:51:46.999Z</time></trkpt><trkpt lat="43.67148285288524" lon="11.449506046476403"><ele>176.0</ele><time>2026-04-11T12:51:47.999Z</time></trkpt><trkpt lat="43.67160080857822" lon="11.449499649925146"><ele>177.0</ele><time>2026-04-11T12:51:48.999Z</time></trkpt><trkpt lat="43.67171717727062" lon="11.44947203409358"><ele>178.0</ele><time>2026-04-11T12:51:49.999Z</time></trkpt><trkpt lat="43.67182720319084" lon="11.449442090306315"><ele>176.75</ele><time>2026-04-11T12:51:50.999Z</time></trkpt><trkpt lat="43.67194645211085" lon="11.449448224955106"><ele>175.5</ele><time>2026-04-11T12:51:51.999Z</time></trkpt><trkpt lat="43.67206724235106" lon="11.44946783053516"><ele>174.25</ele><time>2026-04-11T12:51:52.999Z</time></trkpt><trkpt lat="43.67217387562936" lon="11.44952382540314"><ele>173.0</ele><time>2026-04-11T12:51:53.999Z</time></trkpt><trkpt lat="43.67227961652116" lon="11.44954277401378"><ele>173.0</ele><time>2026-04-11T12:51:54.999Z</time></trkpt><trkpt lat="43.67239716628695" lon="11.44953843830991"><ele>173.0</ele><time>2026-04-11T12:51:55.999Z</time></trkpt><trkpt lat="43.672519810681266" lon="11.449477932149476"><ele>173.0</ele><time>2026-04-11T12:51:56.999Z</time></trkpt><trkpt lat="43.67264141168506" lon="11.449454200237678"><ele>173.0</ele><time>2026-04-11T12:51:57.999Z</time></trkpt><trkpt lat="43.67276431883829" lon="11.44940837464958"><ele>171.5</ele><time>2026-04-11T12:51:58.999Z</time></trkpt><trkpt lat="43.67288369364147" lon="11.449364214553903"><ele>170.0</ele><time>2026-04-11T12:51:59.999Z</time></trkpt><trkpt lat="43.67300525294554" lon="11.449334626394739"><ele>168.5</ele><time>2026-04-11T12:52:00.999Z</time></trkpt><trkpt lat="43.67312763590376" lon="11.449320022375732"><ele>167.0</ele><time>2026-04-11T12:52:01.999Z</time></trkpt><trkpt lat="43.67325640534135" lon="11.449285258596912"><ele>167.0</ele><time>2026-04-11T12:52:02.999Z</time></trkpt><trkpt lat="43.673388226822816" lon="11.449282236080288"><ele>167.0</ele><time>2026-04-11T12:52:03.999Z</time></trkpt><trkpt lat="43.67351980425767" lon="11.449271943051388"><ele>167.0</ele><time>2026-04-11T12:52:04.999Z</time></trkpt><trkpt lat="43.67364338495647" lon="11.449253684888408"><ele>167.0</ele><time>2026-04-11T12:52:05.999Z</time></trkpt><trkpt lat="43.673781747771024" lon="11.449238826509823"><ele>165.75</ele><time>2026-04-11T12:52:06.999Z</time></trkpt><trkpt lat="43.67392805780638" lon="11.449223066068495"><ele>164.5</ele><time>2026-04-11T12:52:07.999Z</time></trkpt><trkpt lat="43.674061905392534" lon="11.449204171225709"><ele>163.25</ele><time>2026-04-11T12:52:08.999Z</time></trkpt><trkpt lat="43.674188561019655" lon="11.449184071927245"><ele>162.0</ele><time>2026-04-11T12:52:09.999Z</time></trkpt><trkpt lat="43.67432555241969" lon="11.44918973886093"><ele>162.0</ele><time>2026-04-11T12:52:10.999Z</time></trkpt><trkpt lat="43.67443538577633" lon="11.449156466896408"><ele>162.0</ele><time>2026-04-11T12:52:11.999Z</time></trkpt><trkpt lat="43.674568491258775" lon="11.449151553824699"><ele>162.0</ele><time>2026-04-11T12:52:12.999Z</time></trkpt><trkpt lat="43.67469432477452" lon="11.449137419134557"><ele>162.0</ele><time>2026-04-11T12:52:13.999Z</time></trkpt><trkpt lat="43.67482626665104" lon="11.449122884454406"><ele>162.75</ele><time>2026-04-11T12:52:14.999Z</time></trkpt><trkpt lat="43.674959343618575" lon="11.449106221885302"><ele>163.5</ele><time>2026-04-11T12:52:15.999Z</time></trkpt><trkpt lat="43.675099256081616" lon="11.449089939224578"><ele>164.25</ele><time>2026-04-11T12:52:16.999Z</time></trkpt><trkpt lat="43.67522196386674" lon="11.449073492725882"><ele>165.0</ele><time>2026-04-11T12:52:17.999Z</time></trkpt><trkpt lat="43.6753300376064" lon="11.449044851600087"><ele>165.0</ele><time>2026-04-11T12:52:18.999Z</time></trkpt><trkpt lat="43.67543274107421" lon="11.448989008891255"><ele>165.0</ele><time>2026-04-11T12:52:19.998Z</time></trkpt><trkpt lat="43.67554191818808" lon="11.448907264991437"><ele>165.0</ele><time>2026-04-11T12:52:20.998Z</time></trkpt><trkpt lat="43.67565578749089" lon="11.448806259134425"><ele>165.0</ele><time>2026-04-11T12:52:21.998Z</time></trkpt><trkpt lat="43.675794793216866" lon="11.448713616728453"><ele>164.25</ele><time>2026-04-11T12:52:22.998Z</time></trkpt><trkpt lat="43.67591745615805" lon="11.448602463812202"><ele>163.5</ele><time>2026-04-11T12:52:23.998Z</time></trkpt><trkpt lat="43.67604358908413" lon="11.44850818283822"><ele>162.75</ele><time>2026-04-11T12:52:24.998Z</time></trkpt><trkpt lat="43.67615950307714" lon="11.44841836950244"><ele>162.0</ele><time>2026-04-11T12:52:25.998Z</time></trkpt><trkpt lat="43.676303954931534" lon="11.448335021312172"><ele>159.0</ele><time>2026-04-11T12:52:26.998Z</time></trkpt><trkpt lat="43.67647049878365" lon="11.448210666351521"><ele>156.0</ele><time>2026-04-11T12:52:27.998Z</time></trkpt><trkpt lat="43.67663761799507" lon="11.448065065985919"><ele>153.0</ele><time>2026-04-11T12:52:28.998Z</time></trkpt><trkpt lat="43.67679955612499" lon="11.447956013308593"><ele>148.33333333333334</ele><time>2026-04-11T12:52:29.998Z</time></trkpt><trkpt lat="43.676959745020525" lon="11.447841767123535"><ele>143.66666666666669</ele><time>2026-04-11T12:52:30.998Z</time></trkpt><trkpt lat="43.677115233021944" lon="11.447727838842587"><ele>139.0</ele><time>2026-04-11T12:52:31.998Z</time></trkpt><trkpt lat="43.67726138186325" lon="11.447610404090812"><ele>139.0</ele><time>2026-04-11T12:52:32.998Z</time></trkpt><trkpt lat="43.6774080131467" lon="11.447494444412273"><ele>139.0</ele><time>2026-04-11T12:52:33.998Z</time></trkpt><trkpt lat="43.67753751445103" lon="11.447372168578411"><ele>139.0</ele><time>2026-04-11T12:52:34.998Z</time></trkpt><trkpt lat="43.677652783844756" lon="11.447254739931978"><ele>138.0</ele><time>2026-04-11T12:52:35.998Z</time></trkpt><trkpt lat="43.677758246641595" lon="11.44711295696815"><ele>137.0</ele><time>2026-04-11T12:52:36.998Z</time></trkpt><trkpt lat="43.67785563344579" lon="11.446948832972772"><ele>136.0</ele><time>2026-04-11T12:52:37.998Z</time></trkpt><trkpt lat="43.67796618500862" lon="11.44675940030593"><ele>134.66666666666669</ele><time>2026-04-11T12:52:38.998Z</time></trkpt><trkpt lat="43.67808459745004" lon="11.446561833805502"><ele>133.33333333333334</ele><time>2026-04-11T12:52:39.998Z</time></trkpt><trkpt lat="43.67821068122956" lon="11.446366579428599"><ele>132.0</ele><time>2026-04-11T12:52:40.998Z</time></trkpt><trkpt lat="43.67833069518683" lon="11.446181815829911"><ele>131.5</ele><time>2026-04-11T12:52:41.998Z</time></trkpt><trkpt lat="43.678450695604255" lon="11.446015571541176"><ele>131.0</ele><time>2026-04-11T12:52:42.998Z</time></trkpt><trkpt lat="43.67855870432739" lon="11.445911539376844"><ele>130.5</ele><time>2026-04-11T12:52:43.998Z</time></trkpt><trkpt lat="43.67862678326997" lon="11.445801733504627"><ele>130.0</ele><time>2026-04-11T12:52:44.998Z</time></trkpt><trkpt lat="43.67870926276837" lon="11.445716384314556"><ele>129.2</ele><time>2026-04-11T12:52:45.998Z</time></trkpt><trkpt lat="43.67879294557584" lon="11.44562341914119"><ele>128.4</ele><time>2026-04-11T12:52:46.998Z</time></trkpt><trkpt lat="43.678872603006425" lon="11.44553599355323"><ele>127.6</ele><time>2026-04-11T12:52:47.998Z</time></trkpt><trkpt lat="43.678952879333075" lon="11.44544800408839"><ele>126.8</ele><time>2026-04-11T12:52:48.998Z</time></trkpt><trkpt lat="43.679036944732395" lon="11.445368543314132"><ele>126.0</ele><time>2026-04-11T12:52:49.998Z</time></trkpt><trkpt lat="43.67913236224277" lon="11.445325414200578"><ele>126.0</ele><time>2026-04-11T12:52:50.998Z</time></trkpt><trkpt lat="43.67922137031163" lon="11.445244426651097"><ele>126.0</ele><time>2026-04-11T12:52:51.998Z</time></trkpt><trkpt lat="43.6793331910254" lon="11.445197793087216"><ele>126.0</ele><time>2026-04-11T12:52:52.998Z</time></trkpt><trkpt lat="43.679445872576736" lon="11.445111188168648"><ele>126.0</ele><time>2026-04-11T12:52:53.998Z</time></trkpt><trkpt lat="43.679566789818615" lon="11.445029933450535"><ele>125.19999999999999</ele><time>2026-04-11T12:52:54.998Z</time></trkpt><trkpt lat="43.67968737259461" lon="11.444959844156205"><ele>124.39999999999999</ele><time>2026-04-11T12:52:55.998Z</time></trkpt><trkpt lat="43.67979018794121" lon="11.444885391680716"><ele>123.6</ele><time>2026-04-11T12:52:56.999Z</time></trkpt><trkpt lat="43.67987766071908" lon="11.444823848243164"><ele>122.8</ele><time>2026-04-11T12:52:57.999Z</time></trkpt><trkpt lat="43.679945641074326" lon="11.44479642845595"><ele>122.0</ele><time>2026-04-11T12:52:58.999Z</time></trkpt><trkpt lat="43.68001249646909" lon="11.444826196857314"><ele>122.0</ele><time>2026-04-11T12:52:59.999Z</time></trkpt><trkpt lat="43.68007356989981" lon="11.444908671373089"><ele>121.99999999999999</ele><time>2026-04-11T12:53:00.999Z</time></trkpt><trkpt lat="43.68012476971351" lon="11.445015113526113"><ele>121.99999999999999</ele><time>2026-04-11T12:53:01.999Z</time></trkpt><trkpt lat="43.68018123132987" lon="11.445151025951782"><ele>122.0</ele><time>2026-04-11T12:53:02.999Z</time></trkpt><trkpt lat="43.68024525466268" lon="11.4452925242921"><ele>122.0</ele><time>2026-04-11T12:53:03.999Z</time></trkpt><trkpt lat="43.68031848365674" lon="11.445455934877117"><ele>121.33333333333333</ele><time>2026-04-11T12:53:04.999Z</time></trkpt><trkpt lat="43.68039767450196" lon="11.445632725583675"><ele>120.66666666666666</ele><time>2026-04-11T12:53:05.999Z</time></trkpt><trkpt lat="43.6804854149303" lon="11.44583423051348"><ele>120.0</ele><time>2026-04-11T12:53:06.999Z</time></trkpt><trkpt lat="43.68057663633746" lon="11.446027686463985"><ele>120.0</ele><time>2026-04-11T12:53:07.999Z</time></trkpt><trkpt lat="43.680653955066624" lon="11.446210906819026"><ele>120.0</ele><time>2026-04-11T12:53:08.999Z</time></trkpt><trkpt lat="43.680729552749334" lon="11.446383788308646"><ele>120.0</ele><time>2026-04-11T12:53:09.999Z</time></trkpt><trkpt lat="43.68081133389221" lon="11.446559944587785"><ele>119.33333333333334</ele><time>2026-04-11T12:53:10.999Z</time></trkpt><trkpt lat="43.680878002979775" lon="11.446749139304687"><ele>118.66666666666667</ele><time>2026-04-11T12:53:11.999Z</time></trkpt><trkpt lat="43.680958537177695" lon="11.446930380675283"><ele>118.0</ele><time>2026-04-11T12:53:12.999Z</time></trkpt><trkpt lat="43.68104963688678" lon="11.447090035244518"><ele>118.33333333333334</ele><time>2026-04-11T12:53:13.999Z</time></trkpt><trkpt lat="43.68113624461771" lon="11.447285463379526"><ele>118.66666666666666</ele><time>2026-04-11T12:53:14.999Z</time></trkpt><trkpt lat="43.68122518007964" lon="11.447474334379137"><ele>119.0</ele><time>2026-04-11T12:53:15.999Z</time></trkpt><trkpt lat="43.68130761499674" lon="11.447663200119761"><ele>119.0</ele><time>2026-04-11T12:53:16.999Z</time></trkpt><trkpt lat="43.681397619606216" lon="11.447838881722989"><ele>119.0</ele><time>2026-04-11T12:53:17.999Z</time></trkpt><trkpt lat="43.68148602505915" lon="11.448047898415195"><ele>119.0</ele><time>2026-04-11T12:53:18.999Z</time></trkpt><trkpt lat="43.681568423865436" lon="11.448234036963482"><ele>119.33333333333333</ele><time>2026-04-11T12:53:19.999Z</time></trkpt><trkpt lat="43.681648678707994" lon="11.448415128717507"><ele>119.66666666666666</ele><time>2026-04-11T12:53:20.999Z</time></trkpt><trkpt lat="43.68173398989473" lon="11.448595460834309"><ele>120.0</ele><time>2026-04-11T12:53:21.999Z</time></trkpt><trkpt lat="43.6818192295582" lon="11.448793211534912"><ele>120.0</ele><time>2026-04-11T12:53:22.999Z</time></trkpt><trkpt lat="43.681909226865926" lon="11.448988160622005"><ele>120.0</ele><time>2026-04-11T12:53:23.999Z</time></trkpt><trkpt lat="43.68200288688819" lon="11.449189369229643"><ele>120.0</ele><time>2026-04-11T12:53:24.999Z</time></trkpt><trkpt lat="43.68209813682163" lon="11.449386405309292"><ele>120.0</ele><time>2026-04-11T12:53:25.999Z</time></trkpt><trkpt lat="43.68219238925889" lon="11.44958291565665"><ele>120.0</ele><time>2026-04-11T12:53:26.999Z</time></trkpt><trkpt lat="43.682291071319476" lon="11.449793654887328"><ele>120.0</ele><time>2026-04-11T12:53:27.999Z</time></trkpt><trkpt lat="43.6823825438393" lon="11.450003914936275"><ele>118.33333333333334</ele><time>2026-04-11T12:53:28.999Z</time></trkpt><trkpt lat="43.68246996311467" lon="11.450203018081856"><ele>116.66666666666667</ele><time>2026-04-11T12:53:29.999Z</time></trkpt><trkpt lat="43.682555752514844" lon="11.450396230793896"><ele>115.0</ele><time>2026-04-11T12:53:30.999Z</time></trkpt><trkpt lat="43.682643693108936" lon="11.450577536176338"><ele>114.5</ele><time>2026-04-11T12:53:31.999Z</time></trkpt><trkpt lat="43.68272589489405" lon="11.450752457623258"><ele>114.0</ele><time>2026-04-11T12:53:32.999Z</time></trkpt><trkpt lat="43.68281338152945" lon="11.450931290006146"><ele>113.5</ele><time>2026-04-11T12:53:33.999Z</time></trkpt><trkpt lat="43.68288476924269" lon="11.451100703277133"><ele>113.0</ele><time>2026-04-11T12:53:34.999Z</time></trkpt><trkpt lat="43.68296847020323" lon="11.451255427899483"><ele>112.66666666666666</ele><time>2026-04-11T12:53:35.999Z</time></trkpt><trkpt lat="43.68306344694261" lon="11.451433109787267"><ele>112.33333333333334</ele><time>2026-04-11T12:53:36.999Z</time></trkpt><trkpt lat="43.683158239548625" lon="11.451601871499438"><ele>112.0</ele><time>2026-04-11T12:53:37.999Z</time></trkpt><trkpt lat="43.68322916451686" lon="11.45176197421402"><ele>112.0</ele><time>2026-04-11T12:53:38.999Z</time></trkpt><trkpt lat="43.68336091752967" lon="11.451895090253558"><ele>112.0</ele><time>2026-04-11T12:53:39.999Z</time></trkpt><trkpt lat="43.68350633897394" lon="11.451973108548332"><ele>112.0</ele><time>2026-04-11T12:53:40.999Z</time></trkpt><trkpt lat="43.683657277126756" lon="11.451997375744597"><ele>111.66666666666667</ele><time>2026-04-11T12:53:41.999Z</time></trkpt><trkpt lat="43.683812727344076" lon="11.451972618097239"><ele>111.33333333333334</ele><time>2026-04-11T12:53:42.999Z</time></trkpt><trkpt lat="43.6839737691581" lon="11.45191141141022"><ele>111.0</ele><time>2026-04-11T12:53:43.999Z</time></trkpt><trkpt lat="43.68414490296057" lon="11.451824545893658"><ele>111.0</ele><time>2026-04-11T12:53:44.999Z</time></trkpt><trkpt lat="43.68431341571155" lon="11.451738258558578"><ele>111.0</ele><time>2026-04-11T12:53:45.999Z</time></trkpt><trkpt lat="43.68447281937621" lon="11.451653268447018"><ele>111.0</ele><time>2026-04-11T12:53:46.999Z</time></trkpt><trkpt lat="43.6846316892095" lon="11.451555929423082"><ele>111.66666666666666</ele><time>2026-04-11T12:53:47.999Z</time></trkpt><trkpt lat="43.684793441243464" lon="11.451437560261432"><ele>112.33333333333333</ele><time>2026-04-11T12:53:48.999Z</time></trkpt><trkpt lat="43.68496086152505" lon="11.451314853776953"><ele>113.0</ele><time>2026-04-11T12:53:49.999Z</time></trkpt><trkpt lat="43.68513146177018" lon="11.451200306510012"><ele>113.0</ele><time>2026-04-11T12:53:50.999Z</time></trkpt><trkpt lat="43.68531176001892" lon="11.451103028499217"><ele>113.0</ele><time>2026-04-11T12:53:51.999Z</time></trkpt><trkpt lat="43.685488879148345" lon="11.451032792323717"><ele>113.0</ele><time>2026-04-11T12:53:52.999Z</time></trkpt><trkpt lat="43.68567077825957" lon="11.450977432906273"><ele>113.0</ele><time>2026-04-11T12:53:53.999Z</time></trkpt><trkpt lat="43.68585525235332" lon="11.45092729179264"><ele>113.0</ele><time>2026-04-11T12:53:54.999Z</time></trkpt><trkpt lat="43.686044582905765" lon="11.450880265524969"><ele>113.0</ele><time>2026-04-11T12:53:55.999Z</time></trkpt><trkpt lat="43.68623242715477" lon="11.450837478496291"><ele>112.33333333333333</ele><time>2026-04-11T12:53:56.999Z</time></trkpt><trkpt lat="43.68642687842022" lon="11.450795097800508"><ele>111.66666666666666</ele><time>2026-04-11T12:53:57.999Z</time></trkpt><trkpt lat="43.68662795574024" lon="11.450752805634753"><ele>111.0</ele><time>2026-04-11T12:53:58.999Z</time></trkpt><trkpt lat="43.686823746694856" lon="11.450723832079527"><ele>111.0</ele><time>2026-04-11T12:53:59.999Z</time></trkpt><trkpt lat="43.68701641538584" lon="11.450717478475804"><ele>111.0</ele><time>2026-04-11T12:54:00.999Z</time></trkpt><trkpt lat="43.68720853463791" lon="11.450736954202133"><ele>111.0</ele><time>2026-04-11T12:54:01.999Z</time></trkpt><trkpt lat="43.68739973398154" lon="11.450778813766968"><ele>111.0</ele><time>2026-04-11T12:54:02.999Z</time></trkpt><trkpt lat="43.687594553064" lon="11.45082629051693"><ele>111.0</ele><time>2026-04-11T12:54:03.999Z</time></trkpt><trkpt lat="43.68779496096787" lon="11.450868739742761"><ele>111.0</ele><time>2026-04-11T12:54:04.999Z</time></trkpt><trkpt lat="43.68799395535279" lon="11.450908479192057"><ele>111.33333333333334</ele><time>2026-04-11T12:54:05.999Z</time></trkpt><trkpt lat="43.6882004457014" lon="11.450962867604726"><ele>111.66666666666667</ele><time>2026-04-11T12:54:06.999Z</time></trkpt><trkpt lat="43.68838954731695" lon="11.451061964338798"><ele>112.0</ele><time>2026-04-11T12:54:07.999Z</time></trkpt><trkpt lat="43.68857534104221" lon="11.45114703866998"><ele>111.66666666666667</ele><time>2026-04-11T12:54:08.999Z</time></trkpt><trkpt lat="43.68875550148555" lon="11.45123787167117"><ele>111.33333333333334</ele><time>2026-04-11T12:54:09.999Z</time></trkpt><trkpt lat="43.688940263177535" lon="11.451333652837405"><ele>111.0</ele><time>2026-04-11T12:54:10.999Z</time></trkpt><trkpt lat="43.68912594154563" lon="11.451434722468072"><ele>111.0</ele><time>2026-04-11T12:54:11.999Z</time></trkpt><trkpt lat="43.68931426447437" lon="11.451553600601663"><ele>111.0</ele><time>2026-04-11T12:54:12.999Z</time></trkpt><trkpt lat="43.689492479354065" lon="11.451684594962346"><ele>111.0</ele><time>2026-04-11T12:54:13.999Z</time></trkpt><trkpt lat="43.689662878614385" lon="11.45179148981168"><ele>110.66666666666666</ele><time>2026-04-11T12:54:14.999Z</time></trkpt><trkpt lat="43.68980771036262" lon="11.451921300214915"><ele>110.33333333333333</ele><time>2026-04-11T12:54:15.999Z</time></trkpt><trkpt lat="43.689950599204494" lon="11.45204863355222"><ele>110.0</ele><time>2026-04-11T12:54:16.999Z</time></trkpt><trkpt lat="43.6900815346189" lon="11.452175060144178"><ele>110.0</ele><time>2026-04-11T12:54:17.999Z</time></trkpt><trkpt lat="43.69019516615622" lon="11.452295822920656"><ele>110.0</ele><time>2026-04-11T12:54:18.999Z</time></trkpt><trkpt lat="43.69029114914741" lon="11.452395930711699"><ele>110.0</ele><time>2026-04-11T12:54:19.999Z</time></trkpt><trkpt lat="43.69036323536819" lon="11.452494556272372"><ele>110.0</ele><time>2026-04-11T12:54:20.999Z</time></trkpt><trkpt lat="43.690435330280934" lon="11.452575128455157"><ele>110.2</ele><time>2026-04-11T12:54:21.999Z</time></trkpt><trkpt lat="43.690461040811584" lon="11.452721871815676"><ele>110.4</ele><time>2026-04-11T12:54:22.999Z</time></trkpt><trkpt lat="43.6905337343707" lon="11.452789979031753"><ele>110.6</ele><time>2026-04-11T12:54:23.999Z</time></trkpt><trkpt lat="43.690636752776" lon="11.452790467913474"><ele>110.8</ele><time>2026-04-11T12:54:24.999Z</time></trkpt><trkpt lat="43.69071931675572" lon="11.452692848965372"><ele>111.0</ele><time>2026-04-11T12:54:25.999Z</time></trkpt><trkpt lat="43.69075458589465" lon="11.452548313245357"><ele>111.0</ele><time>2026-04-11T12:54:26.999Z</time></trkpt><trkpt lat="43.69085579704072" lon="11.452441291148109"><ele>111.0</ele><time>2026-04-11T12:54:27.999Z</time></trkpt><trkpt lat="43.69096734273576" lon="11.452367934556891"><ele>111.0</ele><time>2026-04-11T12:54:28.999Z</time></trkpt><trkpt lat="43.69109423850933" lon="11.45226077894454"><ele>111.0</ele><time>2026-04-11T12:54:29.999Z</time></trkpt><trkpt lat="43.69123531649214" lon="11.452141067728597"><ele>111.66666666666666</ele><time>2026-04-11T12:54:30.999Z</time></trkpt><trkpt lat="43.691391976363406" lon="11.452029643790501"><ele>112.33333333333333</ele><time>2026-04-11T12:54:31.999Z</time></trkpt><trkpt lat="43.69155571613666" lon="11.451932139044542"><ele>113.0</ele><time>2026-04-11T12:54:32.999Z</time></trkpt><trkpt lat="43.6917155350759" lon="11.451866104936014"><ele>113.0</ele><time>2026-04-11T12:54:33.999Z</time></trkpt><trkpt lat="43.691882699047895" lon="11.451817837614737"><ele>113.0</ele><time>2026-04-11T12:54:34.999Z</time></trkpt><trkpt lat="43.69207460323712" lon="11.451792201872228"><ele>113.0</ele><time>2026-04-11T12:54:35.999Z</time></trkpt><trkpt lat="43.692269431556554" lon="11.451773411625954"><ele>112.66666666666666</ele><time>2026-04-11T12:54:36.999Z</time></trkpt><trkpt lat="43.69246831222019" lon="11.451754304676978"><ele>112.33333333333334</ele><time>2026-04-11T12:54:37.998Z</time></trkpt><trkpt lat="43.69266366146036" lon="11.451736384622887"><ele>112.0</ele><time>2026-04-11T12:54:38.998Z</time></trkpt><trkpt lat="43.6928658010444" lon="11.451719071386202"><ele>112.66666666666667</ele><time>2026-04-11T12:54:39.998Z</time></trkpt><trkpt lat="43.69306259202588" lon="11.451702009963526"><ele>113.33333333333334</ele><time>2026-04-11T12:54:40.998Z</time></trkpt><trkpt lat="43.693260569668944" lon="11.451687289293442"><ele>114.0</ele><time>2026-04-11T12:54:41.998Z</time></trkpt><trkpt lat="43.69345080823339" lon="11.45167735449632"><ele>114.66666666666666</ele><time>2026-04-11T12:54:42.998Z</time></trkpt><trkpt lat="43.693635818907985" lon="11.451672292229116"><ele>115.33333333333333</ele><time>2026-04-11T12:54:43.998Z</time></trkpt><trkpt lat="43.69380911514835" lon="11.451700884323818"><ele>116.0</ele><time>2026-04-11T12:54:44.998Z</time></trkpt><trkpt lat="43.69395867239966" lon="11.451725360239472"><ele>116.0</ele><time>2026-04-11T12:54:45.998Z</time></trkpt><trkpt lat="43.69410822319329" lon="11.451753692922601"><ele>116.0</ele><time>2026-04-11T12:54:46.998Z</time></trkpt><trkpt lat="43.69425261041415" lon="11.45174646416126"><ele>116.0</ele><time>2026-04-11T12:54:47.998Z</time></trkpt><trkpt lat="43.69440548989319" lon="11.451729239282164"><ele>116.0</ele><time>2026-04-11T12:54:48.998Z</time></trkpt><trkpt lat="43.69457096336167" lon="11.451681355051448"><ele>116.0</ele><time>2026-04-11T12:54:49.998Z</time></trkpt><trkpt lat="43.694736478084224" lon="11.451624616681661"><ele>116.0</ele><time>2026-04-11T12:54:50.998Z</time></trkpt><trkpt lat="43.69489159456194" lon="11.451569968593155"><ele>116.0</ele><time>2026-04-11T12:54:51.998Z</time></trkpt><trkpt lat="43.69504531493269" lon="11.451523049280276"><ele>116.0</ele><time>2026-04-11T12:54:52.998Z</time></trkpt><trkpt lat="43.69519763228483" lon="11.451475055843538"><ele>116.0</ele><time>2026-04-11T12:54:53.998Z</time></trkpt><trkpt lat="43.69536137811212" lon="11.451422225554445"><ele>116.0</ele><time>2026-04-11T12:54:54.998Z</time></trkpt><trkpt lat="43.6955285510091" lon="11.451367542230772"><ele>115.0</ele><time>2026-04-11T12:54:55.998Z</time></trkpt><trkpt lat="43.69570131993086" lon="11.451308847662588"><ele>114.0</ele><time>2026-04-11T12:54:56.998Z</time></trkpt><trkpt lat="43.69587776602225" lon="11.451251924199104"><ele>113.0</ele><time>2026-04-11T12:54:57.998Z</time></trkpt><trkpt lat="43.69604830316797" lon="11.45119313474703"><ele>114.33333333333333</ele><time>2026-04-11T12:54:58.998Z</time></trkpt><trkpt lat="43.69621618670505" lon="11.451159821187167"><ele>115.66666666666666</ele><time>2026-04-11T12:54:59.998Z</time></trkpt><trkpt lat="43.696371795082065" lon="11.451045487076541"><ele>117.0</ele><time>2026-04-11T12:55:00.998Z</time></trkpt><trkpt lat="43.69653017468959" lon="11.450928292495657"><ele>117.0</ele><time>2026-04-11T12:55:01.998Z</time></trkpt><trkpt lat="43.69667792239171" lon="11.450790524180716"><ele>117.0</ele><time>2026-04-11T12:55:02.999Z</time></trkpt><trkpt lat="43.69682390726804" lon="11.450640140324154"><ele>117.0</ele><time>2026-04-11T12:55:03.999Z</time></trkpt><trkpt lat="43.69696703729391" lon="11.45049841642178"><ele>117.66666666666666</ele><time>2026-04-11T12:55:04.999Z</time></trkpt><trkpt lat="43.697134274275314" lon="11.450357569245957"><ele>118.33333333333333</ele><time>2026-04-11T12:55:05.999Z</time></trkpt><trkpt lat="43.697307861262516" lon="11.450240729749682"><ele>119.0</ele><time>2026-04-11T12:55:06.999Z</time></trkpt><trkpt lat="43.69749041512143" lon="11.450141037656717"><ele>119.0</ele><time>2026-04-11T12:55:07.999Z</time></trkpt><trkpt lat="43.697666894035336" lon="11.450053105860519"><ele>119.0</ele><time>2026-04-11T12:55:08.999Z</time></trkpt><trkpt lat="43.697846693050565" lon="11.449988911904736"><ele>119.0</ele><time>2026-04-11T12:55:09.999Z</time></trkpt><trkpt lat="43.69803582854067" lon="11.44996112851871"><ele>118.0</ele><time>2026-04-11T12:55:10.999Z</time></trkpt><trkpt lat="43.698228030703696" lon="11.449974138328365"><ele>117.0</ele><time>2026-04-11T12:55:11.999Z</time></trkpt><trkpt lat="43.69842468751556" lon="11.450008161724307"><ele>116.0</ele><time>2026-04-11T12:55:12.999Z</time></trkpt><trkpt lat="43.698618341903675" lon="11.45003520803508"><ele>115.33333333333333</ele><time>2026-04-11T12:55:13.999Z</time></trkpt><trkpt lat="43.69881272035675" lon="11.450042578765412"><ele>114.66666666666666</ele><time>2026-04-11T12:55:14.999Z</time></trkpt><trkpt lat="43.6990035956627" lon="11.45003278221421"><ele>114.0</ele><time>2026-04-11T12:55:15.999Z</time></trkpt><trkpt lat="43.699189992042925" lon="11.450012972250642"><ele>114.0</ele><time>2026-04-11T12:55:16.999Z</time></trkpt><trkpt lat="43.69937095271164" lon="11.449981140945312"><ele>114.0</ele><time>2026-04-11T12:55:17.999Z</time></trkpt><trkpt lat="43.699551149883106" lon="11.449933883439424"><ele>114.0</ele><time>2026-04-11T12:55:18.999Z</time></trkpt><trkpt lat="43.69972892500726" lon="11.449863872448567"><ele>113.0</ele><time>2026-04-11T12:55:19.999Z</time></trkpt><trkpt lat="43.69991086043389" lon="11.449771147037104"><ele>112.0</ele><time>2026-04-11T12:55:20.999Z</time></trkpt><trkpt lat="43.70009100006314" lon="11.44966303022307"><ele>111.0</ele><time>2026-04-11T12:55:21.999Z</time></trkpt><trkpt lat="43.70026809493458" lon="11.449547759056832"><ele>111.0</ele><time>2026-04-11T12:55:22.999Z</time></trkpt><trkpt lat="43.70043980547381" lon="11.449428573354425"><ele>111.0</ele><time>2026-04-11T12:55:23.999Z</time></trkpt><trkpt lat="43.700605009134335" lon="11.449311938774605"><ele>111.0</ele><time>2026-04-11T12:55:24.999Z</time></trkpt><trkpt lat="43.70077251839733" lon="11.449199940954415"><ele>111.0</ele><time>2026-04-11T12:55:25.999Z</time></trkpt><trkpt lat="43.70094439131966" lon="11.449108815382862"><ele>111.0</ele><time>2026-04-11T12:55:26.999Z</time></trkpt><trkpt lat="43.701119470770614" lon="11.449053218944101"><ele>111.0</ele><time>2026-04-11T12:55:27.999Z</time></trkpt><trkpt lat="43.70130711224294" lon="11.44904318529497"><ele>111.0</ele><time>2026-04-11T12:55:28.999Z</time></trkpt><trkpt lat="43.70148795079258" lon="11.449067968289082"><ele>111.0</ele><time>2026-04-11T12:55:29.999Z</time></trkpt><trkpt lat="43.701682174171644" lon="11.44910183661094"><ele>111.0</ele><time>2026-04-11T12:55:30.999Z</time></trkpt><trkpt lat="43.70187473798758" lon="11.449162916704957"><ele>111.33333333333334</ele><time>2026-04-11T12:55:31.999Z</time></trkpt><trkpt lat="43.70206225746033" lon="11.449216685004675"><ele>111.66666666666667</ele><time>2026-04-11T12:55:32.999Z</time></trkpt><trkpt lat="43.702256408014435" lon="11.449272126314321"><ele>112.0</ele><time>2026-04-11T12:55:33.999Z</time></trkpt><trkpt lat="43.70244798659069" lon="11.449327653130025"><ele>112.0</ele><time>2026-04-11T12:55:34.999Z</time></trkpt><trkpt lat="43.702632281610946" lon="11.449378064481241"><ele>112.0</ele><time>2026-04-11T12:55:35.999Z</time></trkpt><trkpt lat="43.70280291384024" lon="11.449423373209443"><ele>112.0</ele><time>2026-04-11T12:55:36.999Z</time></trkpt><trkpt lat="43.70297250500011" lon="11.449469568255639"><ele>112.0</ele><time>2026-04-11T12:55:37.999Z</time></trkpt><trkpt lat="43.703124825185434" lon="11.44952127988427"><ele>112.0</ele><time>2026-04-11T12:55:38.999Z</time></trkpt><trkpt lat="43.70326909710001" lon="11.449575674150614"><ele>112.0</ele><time>2026-04-11T12:55:39.999Z</time></trkpt><trkpt lat="43.70340038848535" lon="11.449626958071311"><ele>112.0</ele><time>2026-04-11T12:55:40.999Z</time></trkpt><trkpt lat="43.70352943502165" lon="11.449660393920098"><ele>111.5</ele><time>2026-04-11T12:55:41.999Z</time></trkpt><trkpt lat="43.703655637696265" lon="11.449697694112382"><ele>111.0</ele><time>2026-04-11T12:55:42.999Z</time></trkpt><trkpt lat="43.70376919177522" lon="11.449736404262255"><ele>110.5</ele><time>2026-04-11T12:55:43.999Z</time></trkpt><trkpt lat="43.70388993991152" lon="11.449824066845494"><ele>110.0</ele><time>2026-04-11T12:55:44.999Z</time></trkpt><trkpt lat="43.70398112599028" lon="11.449873254791946"><ele>110.0</ele><time>2026-04-11T12:55:45.999Z</time></trkpt><trkpt lat="43.70409118346745" lon="11.449819064790816"><ele>110.0</ele><time>2026-04-11T12:55:46.999Z</time></trkpt><trkpt lat="43.70420407695653" lon="11.449833361711729"><ele>110.0</ele><time>2026-04-11T12:55:47.999Z</time></trkpt><trkpt lat="43.70432653864076" lon="11.44983207240383"><ele>110.0</ele><time>2026-04-11T12:55:48.999Z</time></trkpt><trkpt lat="43.70443986271446" lon="11.44982725046841"><ele>109.5</ele><time>2026-04-11T12:55:49.999Z</time></trkpt><trkpt lat="43.70455718517521" lon="11.449819762668755"><ele>109.0</ele><time>2026-04-11T12:55:50.999Z</time></trkpt><trkpt lat="43.70467720454983" lon="11.449789705096764"><ele>108.5</ele><time>2026-04-11T12:55:51.999Z</time></trkpt><trkpt lat="43.70480430489195" lon="11.449749615381473"><ele>108.0</ele><time>2026-04-11T12:55:52.999Z</time></trkpt><trkpt lat="43.704933830388484" lon="11.44970859873973"><ele>108.0</ele><time>2026-04-11T12:55:53.999Z</time></trkpt><trkpt lat="43.705066173441544" lon="11.44966948432506"><ele>108.0</ele><time>2026-04-11T12:55:54.999Z</time></trkpt><trkpt lat="43.70519861343602" lon="11.449630192359473"><ele>108.0</ele><time>2026-04-11T12:55:55.999Z</time></trkpt><trkpt lat="43.705341255595215" lon="11.449582759753065"><ele>108.0</ele><time>2026-04-11T12:55:56.999Z</time></trkpt><trkpt lat="43.70549613913253" lon="11.449532832726476"><ele>109.0</ele><time>2026-04-11T12:55:57.999Z</time></trkpt><trkpt lat="43.70567831994014" lon="11.449482084264677"><ele>110.0</ele><time>2026-04-11T12:55:58.999Z</time></trkpt><trkpt lat="43.70586700058837" lon="11.449427682483478"><ele>111.0</ele><time>2026-04-11T12:55:59.999Z</time></trkpt><trkpt lat="43.70605442969174" lon="11.449376510114817"><ele>112.33333333333334</ele><time>2026-04-11T12:56:00.999Z</time></trkpt><trkpt lat="43.70623733657493" lon="11.449349928696767"><ele>113.66666666666667</ele><time>2026-04-11T12:56:01.999Z</time></trkpt><trkpt lat="43.70641595419179" lon="11.44937388274928"><ele>115.0</ele><time>2026-04-11T12:56:02.999Z</time></trkpt><trkpt lat="43.70659608908888" lon="11.449390175488276"><ele>115.0</ele><time>2026-04-11T12:56:03.999Z</time></trkpt><trkpt lat="43.70677738763556" lon="11.449411114314332"><ele>115.0</ele><time>2026-04-11T12:56:04.999Z</time></trkpt><trkpt lat="43.7069541484388" lon="11.449424178767803"><ele>115.0</ele><time>2026-04-11T12:56:05.999Z</time></trkpt><trkpt lat="43.707147662539164" lon="11.449419041500056"><ele>115.0</ele><time>2026-04-11T12:56:06.999Z</time></trkpt><trkpt lat="43.70733959919446" lon="11.44943892208963"><ele>115.0</ele><time>2026-04-11T12:56:07.999Z</time></trkpt><trkpt lat="43.70753097135849" lon="11.449453951364472"><ele>115.0</ele><time>2026-04-11T12:56:08.999Z</time></trkpt><trkpt lat="43.70772321067353" lon="11.44946875960386"><ele>114.66666666666667</ele><time>2026-04-11T12:56:09.999Z</time></trkpt><trkpt lat="43.70791975234652" lon="11.44948911419764"><ele>114.33333333333334</ele><time>2026-04-11T12:56:10.999Z</time></trkpt><trkpt lat="43.70811345376986" lon="11.449512041581473"><ele>114.0</ele><time>2026-04-11T12:56:11.999Z</time></trkpt><trkpt lat="43.70831192319753" lon="11.44954038774772"><ele>114.0</ele><time>2026-04-11T12:56:12.999Z</time></trkpt><trkpt lat="43.70850369428828" lon="11.449574484289965"><ele>114.0</ele><time>2026-04-11T12:56:13.999Z</time></trkpt><trkpt lat="43.70868663295913" lon="11.449624358806473"><ele>114.0</ele><time>2026-04-11T12:56:14.999Z</time></trkpt><trkpt lat="43.70885018956723" lon="11.449682044373715"><ele>112.66666666666666</ele><time>2026-04-11T12:56:15.999Z</time></trkpt><trkpt lat="43.709011825545375" lon="11.449762247402985"><ele>111.33333333333333</ele><time>2026-04-11T12:56:16.999Z</time></trkpt><trkpt lat="43.709169877895384" lon="11.44986110265715"><ele>110.0</ele><time>2026-04-11T12:56:17.999Z</time></trkpt><trkpt lat="43.70932392798736" lon="11.449975772229314"><ele>110.66666666666666</ele><time>2026-04-11T12:56:18.999Z</time></trkpt><trkpt lat="43.70947764927144" lon="11.450100262232501"><ele>111.33333333333334</ele><time>2026-04-11T12:56:19.999Z</time></trkpt><trkpt lat="43.70963604703326" lon="11.4502346539867"><ele>112.0</ele><time>2026-04-11T12:56:20.999Z</time></trkpt><trkpt lat="43.709789251066816" lon="11.450367600495198"><ele>111.0</ele><time>2026-04-11T12:56:21.999Z</time></trkpt><trkpt lat="43.709936021443376" lon="11.450485847755097"><ele>110.0</ele><time>2026-04-11T12:56:22.999Z</time></trkpt><trkpt lat="43.71008001830341" lon="11.45058710489741"><ele>109.0</ele><time>2026-04-11T12:56:23.999Z</time></trkpt><trkpt lat="43.71021732913497" lon="11.450648637218398"><ele>109.5</ele><time>2026-04-11T12:56:24.999Z</time></trkpt><trkpt lat="43.710360523683626" lon="11.450678362095898"><ele>110.0</ele><time>2026-04-11T12:56:25.999Z</time></trkpt><trkpt lat="43.710502830291595" lon="11.450675095380523"><ele>110.5</ele><time>2026-04-11T12:56:26.999Z</time></trkpt><trkpt lat="43.71062268382111" lon="11.450643645598209"><ele>111.0</ele><time>2026-04-11T12:56:27.999Z</time></trkpt><trkpt lat="43.71073902378718" lon="11.45061126717587"><ele>111.0</ele><time>2026-04-11T12:56:28.999Z</time></trkpt><trkpt lat="43.71084689929939" lon="11.45062305191657"><ele>111.0</ele><time>2026-04-11T12:56:29.999Z</time></trkpt><trkpt lat="43.710944617898065" lon="11.450677283272352"><ele>111.0</ele><time>2026-04-11T12:56:30.999Z</time></trkpt><trkpt lat="43.711052551792825" lon="11.45072940627231"><ele>111.0</ele><time>2026-04-11T12:56:31.999Z</time></trkpt><trkpt lat="43.71116721191854" lon="11.45075232286276"><ele>111.0</ele><time>2026-04-11T12:56:32.999Z</time></trkpt><trkpt lat="43.7112852321845" lon="11.450771742456265"><ele>111.25</ele><time>2026-04-11T12:56:33.999Z</time></trkpt><trkpt lat="43.7113989996771" lon="11.45076527350642"><ele>111.5</ele><time>2026-04-11T12:56:34.999Z</time></trkpt><trkpt lat="43.71151524895998" lon="11.450901165095829"><ele>111.75</ele><time>2026-04-11T12:56:35.999Z</time></trkpt><trkpt lat="43.71164485355111" lon="11.450954254279928"><ele>112.0</ele><time>2026-04-11T12:56:36.999Z</time></trkpt><trkpt lat="43.71176368100491" lon="11.451012924670705"><ele>112.0</ele><time>2026-04-11T12:56:37.999Z</time></trkpt><trkpt lat="43.711890231297815" lon="11.451048389664656"><ele>112.0</ele><time>2026-04-11T12:56:38.999Z</time></trkpt><trkpt lat="43.71201824015686" lon="11.451101384095008"><ele>112.0</ele><time>2026-04-11T12:56:39.999Z</time></trkpt><trkpt lat="43.71213982617445" lon="11.45113737113829"><ele>112.0</ele><time>2026-04-11T12:56:40.999Z</time></trkpt><trkpt lat="43.71226366457518" lon="11.451150353263422"><ele>112.5</ele><time>2026-04-11T12:56:41.999Z</time></trkpt><trkpt lat="43.712383089951906" lon="11.451185948648414"><ele>113.0</ele><time>2026-04-11T12:56:42.999Z</time></trkpt><trkpt lat="43.712498316284325" lon="11.45120405524331"><ele>113.5</ele><time>2026-04-11T12:56:43.999Z</time></trkpt><trkpt lat="43.71261441103502" lon="11.451232749464703"><ele>114.0</ele><time>2026-04-11T12:56:44.999Z</time></trkpt><trkpt lat="43.71274285512071" lon="11.451256994624185"><ele>114.75</ele><time>2026-04-11T12:56:45.999Z</time></trkpt><trkpt lat="43.71286980044541" lon="11.451285939183634"><ele>115.5</ele><time>2026-04-11T12:56:46.999Z</time></trkpt><trkpt lat="43.71298468035357" lon="11.451280668446683"><ele>116.25</ele><time>2026-04-11T12:56:47.999Z</time></trkpt><trkpt lat="43.71309917561656" lon="11.451270879831181"><ele>117.0</ele><time>2026-04-11T12:56:48.999Z</time></trkpt><trkpt lat="43.71320011095176" lon="11.451262574805186"><ele>117.0</ele><time>2026-04-11T12:56:49.999Z</time></trkpt><trkpt lat="43.71330173408778" lon="11.451250941811956"><ele>117.0</ele><time>2026-04-11T12:56:50.999Z</time></trkpt><trkpt lat="43.71341233274898" lon="11.451225105237194"><ele>117.0</ele><time>2026-04-11T12:56:51.999Z</time></trkpt><trkpt lat="43.71353822387343" lon="11.45122364977758"><ele>117.0</ele><time>2026-04-11T12:56:52.999Z</time></trkpt><trkpt lat="43.71367543456076" lon="11.451194888584945"><ele>116.33333333333334</ele><time>2026-04-11T12:56:53.999Z</time></trkpt><trkpt lat="43.7138266082224" lon="11.451182978508431"><ele>115.66666666666667</ele><time>2026-04-11T12:56:54.999Z</time></trkpt><trkpt lat="43.71399426058188" lon="11.451174440061408"><ele>115.0</ele><time>2026-04-11T12:56:55.999Z</time></trkpt><trkpt lat="43.71416673994323" lon="11.45116008476822"><ele>115.0</ele><time>2026-04-11T12:56:56.999Z</time></trkpt><trkpt lat="43.71434562505986" lon="11.45113745093821"><ele>115.0</ele><time>2026-04-11T12:56:57.999Z</time></trkpt><trkpt lat="43.7145311072354" lon="11.451119168680046"><ele>115.0</ele><time>2026-04-11T12:56:58.999Z</time></trkpt><trkpt lat="43.71472404602297" lon="11.451103237451228"><ele>115.33333333333334</ele><time>2026-04-11T12:56:59.999Z</time></trkpt><trkpt lat="43.71490738952994" lon="11.451079766256356"><ele>115.66666666666666</ele><time>2026-04-11T12:57:00.998Z</time></trkpt><trkpt lat="43.71508679099242" lon="11.451063984201815"><ele>116.0</ele><time>2026-04-11T12:57:01.998Z</time></trkpt><trkpt lat="43.71525403430607" lon="11.451049441672804"><ele>115.66666666666666</ele><time>2026-04-11T12:57:02.998Z</time></trkpt><trkpt lat="43.715385349343286" lon="11.451038447936924"><ele>115.33333333333333</ele><time>2026-04-11T12:57:03.998Z</time></trkpt><trkpt lat="43.71547280152212" lon="11.45103345078855"><ele>115.0</ele><time>2026-04-11T12:57:04.998Z</time></trkpt><trkpt lat="43.71553574959584" lon="11.451030549509086"><ele>114.66666666666666</ele><time>2026-04-11T12:57:05.998Z</time></trkpt><trkpt lat="43.71559994387956" lon="11.451016363916464"><ele>114.33333333333333</ele><time>2026-04-11T12:57:07.998Z</time></trkpt><trkpt lat="43.71552941989405" lon="11.451023335489692"><ele>114.0</ele><time>2026-04-11T12:57:11Z</time></trkpt><trkpt lat="43.71545880135531" lon="11.450965540378691"><ele>114.0</ele><time>2026-04-11T12:57:12Z</time></trkpt><trkpt lat="43.71538529917552" lon="11.450973440263278"><ele>114.0</ele><time>2026-04-11T12:57:13Z</time></trkpt><trkpt lat="43.71529984661854" lon="11.450863862401134"><ele>114.0</ele><time>2026-04-11T12:57:15Z</time></trkpt><trkpt lat="43.71527260881507" lon="11.450773562054795"><ele>114.0</ele><time>2026-04-11T12:57:16Z</time></trkpt><trkpt lat="43.71525604879688" lon="11.450660992109219"><ele>114.0</ele><time>2026-04-11T12:57:17Z</time></trkpt><trkpt lat="43.715264790192585" lon="11.450521171413348"><ele>114.0</ele><time>2026-04-11T12:57:18Z</time></trkpt><trkpt lat="43.715287138445056" lon="11.4503985489768"><ele>115.33333333333333</ele><time>2026-04-11T12:57:19Z</time></trkpt><trkpt lat="43.71530203231383" lon="11.45031235571735"><ele>116.66666666666666</ele><time>2026-04-11T12:57:20Z</time></trkpt><trkpt lat="43.71542157136592" lon="11.450301758761604"><ele>118.0</ele><time>2026-04-11T12:57:22Z</time></trkpt><trkpt lat="43.71550301309183" lon="11.450315375015629"><ele>119.33333333333333</ele><time>2026-04-11T12:57:23Z</time></trkpt><trkpt lat="43.715588241345245" lon="11.450332578291635"><ele>120.66666666666666</ele><time>2026-04-11T12:57:24Z</time></trkpt><trkpt lat="43.715682475509226" lon="11.45034023843043"><ele>122.0</ele><time>2026-04-11T12:57:25Z</time></trkpt><trkpt lat="43.71579678863823" lon="11.450384845896231"><ele>122.0</ele><time>2026-04-11T12:57:26Z</time></trkpt><trkpt lat="43.7158888341134" lon="11.45044052912979"><ele>121.99999999999999</ele><time>2026-04-11T12:57:27Z</time></trkpt><trkpt lat="43.71595912256479" lon="11.450519437093492"><ele>121.99999999999999</ele><time>2026-04-11T12:57:28Z</time></trkpt><trkpt lat="43.71603093209132" lon="11.450449725141828"><ele>122.0</ele><time>2026-04-11T12:57:30Z</time></trkpt><trkpt lat="43.71604728000687" lon="11.4502869628188"><ele>122.0</ele><time>2026-04-11T12:57:32Z</time></trkpt><trkpt lat="43.71605105430771" lon="11.450166767377217"><ele>121.99999999999999</ele><time>2026-04-11T12:57:33Z</time></trkpt><trkpt lat="43.71605291158619" lon="11.450047246430353"><ele>122.0</ele><time>2026-04-11T12:57:34Z</time></trkpt><trkpt lat="43.71606208355647" lon="11.449925666324694"><ele>122.0</ele><time>2026-04-11T12:57:35Z</time></trkpt><trkpt lat="43.71607783781133" lon="11.449824458300744"><ele>122.0</ele><time>2026-04-11T12:57:36Z</time></trkpt><trkpt lat="43.716129143051276" lon="11.449753810571444"><ele>121.99999999999999</ele><time>2026-04-11T12:57:37Z</time></trkpt><trkpt lat="43.716219722435724" lon="11.44971121271712"><ele>122.0</ele><time>2026-04-11T12:57:38Z</time></trkpt><trkpt lat="43.716325414066596" lon="11.449669410628976"><ele>123.0</ele><time>2026-04-11T12:57:39Z</time></trkpt><trkpt lat="43.71643182723774" lon="11.449651098247289"><ele>124.0</ele><time>2026-04-11T12:57:40Z</time></trkpt><trkpt lat="43.716563609185144" lon="11.449614823504533"><ele>125.0</ele><time>2026-04-11T12:57:41Z</time></trkpt><trkpt lat="43.71670768401771" lon="11.449582957746154"><ele>126.0</ele><time>2026-04-11T12:57:42Z</time></trkpt><trkpt lat="43.716815393971025" lon="11.449549107064051"><ele>128.16666666666666</ele><time>2026-04-11T12:57:43Z</time></trkpt><trkpt lat="43.71690876433087" lon="11.449527363772576"><ele>130.33333333333334</ele><time>2026-04-11T12:57:44Z</time></trkpt><trkpt lat="43.71698436084801" lon="11.44949416421398"><ele>132.5</ele><time>2026-04-11T12:57:45Z</time></trkpt><trkpt lat="43.717040571772024" lon="11.449454888138828"><ele>134.66666666666669</ele><time>2026-04-11T12:57:46Z</time></trkpt><trkpt lat="43.7170760471627" lon="11.449306947366198"><ele>136.83333333333334</ele><time>2026-04-11T12:57:48Z</time></trkpt><trkpt lat="43.7170628001754" lon="11.449212990481385"><ele>139.0</ele><time>2026-04-11T12:57:49Z</time></trkpt><trkpt lat="43.71704748921144" lon="11.449092294238222"><ele>139.0</ele><time>2026-04-11T12:57:50Z</time></trkpt><trkpt lat="43.71705980640394" lon="11.448995751722906"><ele>139.0</ele><time>2026-04-11T12:57:51Z</time></trkpt><trkpt lat="43.71716316941875" lon="11.448951299953537"><ele>139.0</ele><time>2026-04-11T12:57:53Z</time></trkpt><trkpt lat="43.71722393583139" lon="11.448915373932893"><ele>139.0</ele><time>2026-04-11T12:57:53.999Z</time></trkpt><trkpt lat="43.71727413772707" lon="11.448843387286113"><ele>139.0</ele><time>2026-04-11T12:57:54.999Z</time></trkpt><trkpt lat="43.71732604914306" lon="11.448746217365068"><ele>139.0</ele><time>2026-04-11T12:57:55.999Z</time></trkpt><trkpt lat="43.71739279441712" lon="11.448646825783218"><ele>142.2</ele><time>2026-04-11T12:57:56.999Z</time></trkpt><trkpt lat="43.717460311787924" lon="11.448543209665674"><ele>145.4</ele><time>2026-04-11T12:57:57.999Z</time></trkpt><trkpt lat="43.71752265686562" lon="11.448436034163239"><ele>148.6</ele><time>2026-04-11T12:57:58.999Z</time></trkpt><trkpt lat="43.71758907566907" lon="11.448332344096523"><ele>151.8</ele><time>2026-04-11T12:57:59.999Z</time></trkpt><trkpt lat="43.71763680357538" lon="11.44825527228084"><ele>155.0</ele><time>2026-04-11T12:58:00.999Z</time></trkpt><trkpt lat="43.7177204204762" lon="11.448150861700244"><ele>155.0</ele><time>2026-04-11T12:58:02.999Z</time></trkpt><trkpt lat="43.71762629808269" lon="11.448327300055075"><ele>155.0</ele><time>2026-04-11T12:58:18.999Z</time></trkpt><trkpt lat="43.717681922014705" lon="11.44837687899242"><ele>155.0</ele><time>2026-04-11T12:58:22.999Z</time></trkpt><trkpt lat="43.71776457171791" lon="11.448349945963718"><ele>155.0</ele><time>2026-04-11T12:58:24.999Z</time></trkpt><trkpt lat="43.71786284456979" lon="11.448301839896262"><ele>155.0</ele><time>2026-04-11T12:58:26.999Z</time></trkpt><trkpt lat="43.71793248692899" lon="11.448250008817357"><ele>155.66666666666666</ele><time>2026-04-11T12:58:27.999Z</time></trkpt><trkpt lat="43.71802078898785" lon="11.448192666810213"><ele>156.33333333333331</ele><time>2026-04-11T12:58:28.999Z</time></trkpt><trkpt lat="43.71810978807931" lon="11.448141336058981"><ele>157.0</ele><time>2026-04-11T12:58:29.999Z</time></trkpt><trkpt lat="43.71817402240225" lon="11.448097968684523"><ele>157.66666666666666</ele><time>2026-04-11T12:58:30.999Z</time></trkpt><trkpt lat="43.718234589407125" lon="11.448057629659782"><ele>158.33333333333334</ele><time>2026-04-11T12:58:31.999Z</time></trkpt><trkpt lat="43.718297059351976" lon="11.447996939787624"><ele>159.0</ele><time>2026-04-11T12:58:32.999Z</time></trkpt><trkpt lat="43.71832380207707" lon="11.447916434484252"><ele>160.33333333333334</ele><time>2026-04-11T12:58:33.999Z</time></trkpt><trkpt lat="43.718350693270665" lon="11.447829022269593"><ele>161.66666666666666</ele><time>2026-04-11T12:58:34.999Z</time></trkpt><trkpt lat="43.71839750178793" lon="11.447731471440699"><ele>163.0</ele><time>2026-04-11T12:58:35.999Z</time></trkpt><trkpt lat="43.71840464280094" lon="11.447628184633645"><ele>164.33333333333331</ele><time>2026-04-11T12:58:37.999Z</time></trkpt><trkpt lat="43.71832310371376" lon="11.447544565260833"><ele>165.66666666666666</ele><time>2026-04-11T12:58:39.999Z</time></trkpt><trkpt lat="43.71825713929983" lon="11.44745185382661"><ele>167.0</ele><time>2026-04-11T12:58:41.999Z</time></trkpt><trkpt lat="43.7182436868012" lon="11.447319448589127"><ele>167.0</ele><time>2026-04-11T12:58:43.999Z</time></trkpt><trkpt lat="43.71825824059762" lon="11.44722598965294"><ele>167.0</ele><time>2026-04-11T12:58:44.999Z</time></trkpt><trkpt lat="43.71827588335242" lon="11.44714076947968"><ele>167.0</ele><time>2026-04-11T12:58:45.999Z</time></trkpt><trkpt lat="43.71830268380013" lon="11.447053339888457"><ele>167.0</ele><time>2026-04-11T12:58:46.999Z</time></trkpt><trkpt lat="43.71832644425303" lon="11.446957532390286"><ele>167.0</ele><time>2026-04-11T12:58:47.999Z</time></trkpt><trkpt lat="43.71834435600178" lon="11.44684497957121"><ele>167.0</ele><time>2026-04-11T12:58:48.999Z</time></trkpt><trkpt lat="43.718365280980855" lon="11.44670749575886"><ele>167.0</ele><time>2026-04-11T12:58:49.999Z</time></trkpt><trkpt lat="43.71840192856438" lon="11.446551999838162"><ele>167.0</ele><time>2026-04-11T12:58:50.999Z</time></trkpt><trkpt lat="43.71845142012359" lon="11.446387638737885"><ele>167.0</ele><time>2026-04-11T12:58:51.999Z</time></trkpt><trkpt lat="43.71850022217117" lon="11.446222378732973"><ele>167.0</ele><time>2026-04-11T12:58:52.999Z</time></trkpt><trkpt lat="43.71853613373679" lon="11.446081006363306"><ele>168.0</ele><time>2026-04-11T12:58:53.999Z</time></trkpt><trkpt lat="43.71855816649439" lon="11.445937807431706"><ele>169.0</ele><time>2026-04-11T12:58:54.999Z</time></trkpt><trkpt lat="43.71858505421382" lon="11.445792607523218"><ele>170.0</ele><time>2026-04-11T12:58:55.999Z</time></trkpt><trkpt lat="43.71861780412229" lon="11.445635535114794"><ele>171.0</ele><time>2026-04-11T12:58:56.999Z</time></trkpt><trkpt lat="43.71865793671262" lon="11.445464468455086"><ele>175.5</ele><time>2026-04-11T12:58:57.999Z</time></trkpt><trkpt lat="43.71869434212152" lon="11.445301334494136"><ele>180.0</ele><time>2026-04-11T12:58:58.999Z</time></trkpt><trkpt lat="43.718731016764465" lon="11.44514908525659"><ele>184.5</ele><time>2026-04-11T12:58:59.999Z</time></trkpt><trkpt lat="43.718767130344844" lon="11.445002936564999"><ele>189.0</ele><time>2026-04-11T12:59:00.999Z</time></trkpt><trkpt lat="43.71879977743018" lon="11.44485818829381"><ele>189.0</ele><time>2026-04-11T12:59:01.999Z</time></trkpt><trkpt lat="43.71882766262952" lon="11.444728272393963"><ele>189.0</ele><time>2026-04-11T12:59:02.999Z</time></trkpt><trkpt lat="43.718858830199395" lon="11.444596431339741"><ele>189.0</ele><time>2026-04-11T12:59:03.999Z</time></trkpt><trkpt lat="43.718897469949646" lon="11.444456492511652"><ele>189.0</ele><time>2026-04-11T12:59:04.999Z</time></trkpt><trkpt lat="43.71893512118185" lon="11.44433847058771"><ele>189.0</ele><time>2026-04-11T12:59:05.999Z</time></trkpt><trkpt lat="43.718965249377405" lon="11.444255989214799"><ele>189.16666666666666</ele><time>2026-04-11T12:59:06.999Z</time></trkpt><trkpt lat="43.71899568992022" lon="11.444179535306983"><ele>189.33333333333334</ele><time>2026-04-11T12:59:07.999Z</time></trkpt><trkpt lat="43.71903097616375" lon="11.444098534790864"><ele>189.5</ele><time>2026-04-11T12:59:08.999Z</time></trkpt><trkpt lat="43.719073807327455" lon="11.444020800057867"><ele>189.66666666666669</ele><time>2026-04-11T12:59:09.999Z</time></trkpt><trkpt lat="43.719144985329" lon="11.443973984035189"><ele>189.83333333333334</ele><time>2026-04-11T12:59:10.999Z</time></trkpt><trkpt lat="43.7192149927786" lon="11.443924936475389"><ele>190.0</ele><time>2026-04-11T12:59:11.999Z</time></trkpt><trkpt lat="43.719296566412105" lon="11.443864761875945"><ele>189.0</ele><time>2026-04-11T12:59:12.999Z</time></trkpt><trkpt lat="43.719395012219714" lon="11.443787733267811"><ele>188.0</ele><time>2026-04-11T12:59:13.999Z</time></trkpt><trkpt lat="43.719463386373555" lon="11.44370278277386"><ele>187.0</ele><time>2026-04-11T12:59:15Z</time></trkpt><trkpt lat="43.71953226201854" lon="11.443642332605934"><ele>186.0</ele><time>2026-04-11T12:59:16Z</time></trkpt><trkpt lat="43.71961353770922" lon="11.4435822211262"><ele>185.0</ele><time>2026-04-11T12:59:17Z</time></trkpt><trkpt lat="43.71969599791724" lon="11.443521812151122"><ele>187.83333333333331</ele><time>2026-04-11T12:59:18Z</time></trkpt><trkpt lat="43.71975683419214" lon="11.443469361077357"><ele>190.66666666666666</ele><time>2026-04-11T12:59:19Z</time></trkpt><trkpt lat="43.71983397940123" lon="11.443408733776293"><ele>193.5</ele><time>2026-04-11T12:59:20Z</time></trkpt><trkpt lat="43.7199078809866" lon="11.443348408082791"><ele>196.33333333333331</ele><time>2026-04-11T12:59:21Z</time></trkpt><trkpt lat="43.71998973977089" lon="11.44328132953229"><ele>199.16666666666666</ele><time>2026-04-11T12:59:22Z</time></trkpt><trkpt lat="43.72006846760969" lon="11.443211054207888"><ele>202.0</ele><time>2026-04-11T12:59:23Z</time></trkpt><trkpt lat="43.720120933194536" lon="11.443134893992289"><ele>201.99999999999997</ele><time>2026-04-11T12:59:24Z</time></trkpt><trkpt lat="43.720187853145525" lon="11.443070887873972"><ele>202.0</ele><time>2026-04-11T12:59:25Z</time></trkpt><trkpt lat="43.7202704349733" lon="11.443024906956461"><ele>202.0</ele><time>2026-04-11T12:59:26Z</time></trkpt><trkpt lat="43.720345080977204" lon="11.442952152951674"><ele>202.0</ele><time>2026-04-11T12:59:27Z</time></trkpt><trkpt lat="43.720415960530126" lon="11.442852222240921"><ele>201.99999999999997</ele><time>2026-04-11T12:59:28Z</time></trkpt><trkpt lat="43.72046887132708" lon="11.442762807997337"><ele>202.0</ele><time>2026-04-11T12:59:29Z</time></trkpt><trkpt lat="43.720516938435466" lon="11.442689726772437"><ele>205.83333333333331</ele><time>2026-04-11T12:59:30Z</time></trkpt><trkpt lat="43.72058215022875" lon="11.442624612341694"><ele>209.66666666666666</ele><time>2026-04-11T12:59:31Z</time></trkpt><trkpt lat="43.72065934768101" lon="11.442553962821107"><ele>213.5</ele><time>2026-04-11T12:59:32Z</time></trkpt><trkpt lat="43.720735754358" lon="11.442479231877726"><ele>217.33333333333331</ele><time>2026-04-11T12:59:33Z</time></trkpt><trkpt lat="43.72080511992521" lon="11.442410198987233"><ele>221.16666666666666</ele><time>2026-04-11T12:59:34Z</time></trkpt><trkpt lat="43.72086836203091" lon="11.442337670641335"><ele>225.0</ele><time>2026-04-11T12:59:35Z</time></trkpt><trkpt lat="43.720923212481246" lon="11.442250252811995"><ele>225.0</ele><time>2026-04-11T12:59:36Z</time></trkpt><trkpt lat="43.72094821792464" lon="11.442164904601304"><ele>225.0</ele><time>2026-04-11T12:59:37Z</time></trkpt><trkpt lat="43.72092987630157" lon="11.442078296748623"><ele>225.0</ele><time>2026-04-11T12:59:38Z</time></trkpt><trkpt lat="43.72088046712057" lon="11.441976268471134"><ele>225.0</ele><time>2026-04-11T12:59:39Z</time></trkpt><trkpt lat="43.72082120704564" lon="11.44188076453927"><ele>225.0</ele><time>2026-04-11T12:59:40Z</time></trkpt><trkpt lat="43.720770650096135" lon="11.441779757871023"><ele>225.0</ele><time>2026-04-11T12:59:41Z</time></trkpt><trkpt lat="43.72075749469649" lon="11.441690328945132"><ele>225.0</ele><time>2026-04-11T12:59:42Z</time></trkpt><trkpt lat="43.72076976822809" lon="11.441592049864528"><ele>225.0</ele><time>2026-04-11T12:59:43Z</time></trkpt><trkpt lat="43.720814997244155" lon="11.441471155141688"><ele>225.0</ele><time>2026-04-11T12:59:44Z</time></trkpt><trkpt lat="43.72084562916527" lon="11.44135358486196"><ele>225.0</ele><time>2026-04-11T12:59:45Z</time></trkpt><trkpt lat="43.720873072245304" lon="11.441223484990687"><ele>225.0</ele><time>2026-04-11T12:59:46Z</time></trkpt><trkpt lat="43.72090091109972" lon="11.441093742023812"><ele>224.5</ele><time>2026-04-11T12:59:47Z</time></trkpt><trkpt lat="43.720915929966445" lon="11.440993833609728"><ele>224.0</ele><time>2026-04-11T12:59:48Z</time></trkpt><trkpt lat="43.72094890012131" lon="11.440865767944802"><ele>223.5</ele><time>2026-04-11T12:59:49Z</time></trkpt><trkpt lat="43.72098556254746" lon="11.440756060570651"><ele>223.0</ele><time>2026-04-11T12:59:50Z</time></trkpt><trkpt lat="43.72103688834586" lon="11.440662979268751"><ele>222.5</ele><time>2026-04-11T12:59:51Z</time></trkpt><trkpt lat="43.721087116527926" lon="11.440593368638858"><ele>222.0</ele><time>2026-04-11T12:59:52Z</time></trkpt><trkpt lat="43.72113485869026" lon="11.440522484835164"><ele>225.0</ele><time>2026-04-11T12:59:53Z</time></trkpt><trkpt lat="43.72118619865944" lon="11.440424667788967"><ele>228.0</ele><time>2026-04-11T12:59:54Z</time></trkpt><trkpt lat="43.72123731206088" lon="11.440315886523221"><ele>231.0</ele><time>2026-04-11T12:59:55Z</time></trkpt><trkpt lat="43.72129164770782" lon="11.440216443126321"><ele>234.0</ele><time>2026-04-11T12:59:56Z</time></trkpt><trkpt lat="43.72133446184508" lon="11.440109608379544"><ele>237.0</ele><time>2026-04-11T12:59:57Z</time></trkpt><trkpt lat="43.72136802603276" lon="11.440005069128253"><ele>240.0</ele><time>2026-04-11T12:59:58Z</time></trkpt><trkpt lat="43.72139820118833" lon="11.43992115000526"><ele>240.0</ele><time>2026-04-11T12:59:59Z</time></trkpt><trkpt lat="43.72144506412968" lon="11.439832337901521"><ele>240.0</ele><time>2026-04-11T13:00:00Z</time></trkpt><trkpt lat="43.72147408159176" lon="11.439687100341246"><ele>240.0</ele><time>2026-04-11T13:00:02Z</time></trkpt><trkpt lat="43.7214843862404" lon="11.43957526929303"><ele>240.0</ele><time>2026-04-11T13:00:04Z</time></trkpt><trkpt lat="43.721541263923044" lon="11.43947768126936"><ele>240.0</ele><time>2026-04-11T13:00:07Z</time></trkpt><trkpt lat="43.72166340448988" lon="11.439491573456824"><ele>239.4</ele><time>2026-04-11T13:00:09Z</time></trkpt><trkpt lat="43.721773452611444" lon="11.43943652115894"><ele>238.8</ele><time>2026-04-11T13:00:11Z</time></trkpt><trkpt lat="43.721862732246834" lon="11.439392968430644"><ele>238.2</ele><time>2026-04-11T13:00:11.999Z</time></trkpt><trkpt lat="43.72196069237471" lon="11.439377772072651"><ele>237.6</ele><time>2026-04-11T13:00:12.999Z</time></trkpt><trkpt lat="43.72207622647205" lon="11.439368938269656"><ele>237.0</ele><time>2026-04-11T13:00:13.999Z</time></trkpt><trkpt lat="43.722164243706224" lon="11.439370445747691"><ele>239.2</ele><time>2026-04-11T13:00:14.999Z</time></trkpt><trkpt lat="43.72225994231068" lon="11.439349218600949"><ele>241.39999999999998</ele><time>2026-04-11T13:00:15.999Z</time></trkpt><trkpt lat="43.72238718763847" lon="11.439299544051792"><ele>243.60000000000002</ele><time>2026-04-11T13:00:17.999Z</time></trkpt><trkpt lat="43.72250401654727" lon="11.43928444007984"><ele>245.8</ele><time>2026-04-11T13:00:19.999Z</time></trkpt><trkpt lat="43.72260022396889" lon="11.439313817852263"><ele>248.0</ele><time>2026-04-11T13:00:21.999Z</time></trkpt><trkpt lat="43.722724199760385" lon="11.43931167799651"><ele>250.8</ele><time>2026-04-11T13:00:23.999Z</time></trkpt><trkpt lat="43.72281252623771" lon="11.439314761215277"><ele>253.60000000000002</ele><time>2026-04-11T13:00:24.999Z</time></trkpt><trkpt lat="43.722920876477794" lon="11.439326252614277"><ele>256.4</ele><time>2026-04-11T13:00:25.999Z</time></trkpt><trkpt lat="43.723019791272144" lon="11.439340112159725"><ele>259.2</ele><time>2026-04-11T13:00:26.999Z</time></trkpt><trkpt lat="43.72311358139548" lon="11.439375123144053"><ele>262.0</ele><time>2026-04-11T13:00:27.999Z</time></trkpt><trkpt lat="43.72317345795357" lon="11.439419345449222"><ele>262.0</ele><time>2026-04-11T13:00:28.999Z</time></trkpt><trkpt lat="43.72323352246029" lon="11.439570297227743"><ele>262.0</ele><time>2026-04-11T13:00:30.999Z</time></trkpt><trkpt lat="43.72323221237215" lon="11.439706429194883"><ele>262.0</ele><time>2026-04-11T13:00:31.999Z</time></trkpt><trkpt lat="43.723237313207086" lon="11.439846915437242"><ele>262.0</ele><time>2026-04-11T13:00:32.999Z</time></trkpt><trkpt lat="43.72324086219717" lon="11.439997860518051"><ele>262.0</ele><time>2026-04-11T13:00:33.999Z</time></trkpt><trkpt lat="43.72324785443733" lon="11.44015030009938"><ele>262.4</ele><time>2026-04-11T13:00:34.999Z</time></trkpt><trkpt lat="43.72323957308875" lon="11.440293586046185"><ele>262.79999999999995</ele><time>2026-04-11T13:00:35.999Z</time></trkpt><trkpt lat="43.72323727105999" lon="11.440425796034775"><ele>263.2</ele><time>2026-04-11T13:00:36.999Z</time></trkpt><trkpt lat="43.7232614208345" lon="11.44055300527734"><ele>263.59999999999997</ele><time>2026-04-11T13:00:37.999Z</time></trkpt><trkpt lat="43.72328397586072" lon="11.440698646840097"><ele>264.0</ele><time>2026-04-11T13:00:38.999Z</time></trkpt><trkpt lat="43.72332896814799" lon="11.440835643517584"><ele>264.0</ele><time>2026-04-11T13:00:39.999Z</time></trkpt><trkpt lat="43.72336471614126" lon="11.440961309358158"><ele>264.0</ele><time>2026-04-11T13:00:40.999Z</time></trkpt><trkpt lat="43.72338983983907" lon="11.441089661756836"><ele>264.0</ele><time>2026-04-11T13:00:41.999Z</time></trkpt><trkpt lat="43.72340600077166" lon="11.441235076190365"><ele>264.0</ele><time>2026-04-11T13:00:42.999Z</time></trkpt><trkpt lat="43.72341571869198" lon="11.441372881749599"><ele>264.0</ele><time>2026-04-11T13:00:43.999Z</time></trkpt><trkpt lat="43.72345450187191" lon="11.441476427875813"><ele>264.5</ele><time>2026-04-11T13:00:44.999Z</time></trkpt><trkpt lat="43.72350655515333" lon="11.441580647450769"><ele>265.0</ele><time>2026-04-11T13:00:45.999Z</time></trkpt><trkpt lat="43.723566336036406" lon="11.441670917478426"><ele>265.5</ele><time>2026-04-11T13:00:46.999Z</time></trkpt><trkpt lat="43.7236102253857" lon="11.441755361394007"><ele>266.0</ele><time>2026-04-11T13:00:48.999Z</time></trkpt><trkpt lat="43.72367417685056" lon="11.441808027650582"><ele>266.5</ele><time>2026-04-11T13:00:54.999Z</time></trkpt><trkpt lat="43.72371626625182" lon="11.441877009123536"><ele>267.0</ele><time>2026-04-11T13:00:56.999Z</time></trkpt><trkpt lat="43.723660038136984" lon="11.441794890233291"><ele>267.0</ele><time>2026-04-11T13:01:02.999Z</time></trkpt><trkpt lat="43.72359868471925" lon="11.44170827754521"><ele>267.0</ele><time>2026-04-11T13:01:04.999Z</time></trkpt><trkpt lat="43.72351987230488" lon="11.441553600297118"><ele>267.0</ele><time>2026-04-11T13:01:06.999Z</time></trkpt><trkpt lat="43.7234846677613" lon="11.44147489203031"><ele>267.0</ele><time>2026-04-11T13:01:07.999Z</time></trkpt><trkpt lat="43.723425503147354" lon="11.441307389780972"><ele>267.0</ele><time>2026-04-11T13:01:09.999Z</time></trkpt><trkpt lat="43.72340742290127" lon="11.44121064055469"><ele>266.4</ele><time>2026-04-11T13:01:10.999Z</time></trkpt><trkpt lat="43.723382315718005" lon="11.4410693968889"><ele>265.79999999999995</ele><time>2026-04-11T13:01:13.999Z</time></trkpt><trkpt lat="43.7233688215796" lon="11.440964501093331"><ele>265.2</ele><time>2026-04-11T13:01:14.999Z</time></trkpt><trkpt lat="43.72335599173343" lon="11.440855600256938"><ele>264.59999999999997</ele><time>2026-04-11T13:01:15.999Z</time></trkpt><trkpt lat="43.723310752710866" lon="11.44068300767465"><ele>264.0</ele><time>2026-04-11T13:01:17.999Z</time></trkpt><trkpt lat="43.72328540296668" lon="11.440587478828238"><ele>264.1666666666667</ele><time>2026-04-11T13:01:18.999Z</time></trkpt><trkpt lat="43.723266705011206" lon="11.44042972480034"><ele>264.3333333333333</ele><time>2026-04-11T13:01:21Z</time></trkpt><trkpt lat="43.72327367303233" lon="11.440341291483934"><ele>264.5</ele><time>2026-04-11T13:01:33Z</time></trkpt><trkpt lat="43.72335457322528" lon="11.440371986019542"><ele>264.66666666666663</ele><time>2026-04-11T13:01:40Z</time></trkpt><trkpt lat="43.723437247485656" lon="11.440349405133777"><ele>264.8333333333333</ele><time>2026-04-11T13:02:00Z</time></trkpt><trkpt lat="43.7235058341994" lon="11.440329780484877"><ele>265.0</ele><time>2026-04-11T13:02:02Z</time></trkpt><trkpt lat="43.7235722646873" lon="11.44030108329273"><ele>268.0</ele><time>2026-04-11T13:02:04Z</time></trkpt><trkpt lat="43.72361661469533" lon="11.44022163371111"><ele>271.0</ele><time>2026-04-11T13:02:34.999Z</time></trkpt><trkpt lat="43.723684511371125" lon="11.4401297526658"><ele>274.0</ele><time>2026-04-11T13:02:36.999Z</time></trkpt><trkpt lat="43.72375742468719" lon="11.44002497703677"><ele>277.0</ele><time>2026-04-11T13:02:38.999Z</time></trkpt><trkpt lat="43.723861848784864" lon="11.440045309881912"><ele>280.0</ele><time>2026-04-11T13:03:16.999Z</time></trkpt><trkpt lat="43.72392182077135" lon="11.440116707058728"><ele>280.0</ele><time>2026-04-11T13:03:19.999Z</time></trkpt><trkpt lat="43.723983924979414" lon="11.440156724195989"><ele>280.0</ele><time>2026-04-11T13:03:21.999Z</time></trkpt><trkpt lat="43.724027751394146" lon="11.440241019923535"><ele>280.0</ele><time>2026-04-11T13:03:23.999Z</time></trkpt><trkpt lat="43.724097753263436" lon="11.44030322088718"><ele>280.0</ele><time>2026-04-11T13:03:25.999Z</time></trkpt><trkpt lat="43.72419472264372" lon="11.440329606004546"><ele>280.0</ele><time>2026-04-11T13:03:28Z</time></trkpt><trkpt lat="43.724300558430876" lon="11.440358564695455"><ele>280.0</ele><time>2026-04-11T13:03:30Z</time></trkpt><trkpt lat="43.72440051093089" lon="11.440357205354182"><ele>281.0</ele><time>2026-04-11T13:03:32Z</time></trkpt><trkpt lat="43.72448677174088" lon="11.440333397324704"><ele>282.0</ele><time>2026-04-11T13:03:33Z</time></trkpt><trkpt lat="43.724547943103694" lon="11.440295644879141"><ele>283.0</ele><time>2026-04-11T13:03:34Z</time></trkpt><trkpt lat="43.724605447074026" lon="11.440239551392164"><ele>284.0</ele><time>2026-04-11T13:03:35Z</time></trkpt><trkpt lat="43.72471292823431" lon="11.440138121391037"><ele>285.0</ele><time>2026-04-11T13:03:37Z</time></trkpt><trkpt lat="43.72478018735215" lon="11.440088761046857"><ele>286.0</ele><time>2026-04-11T13:03:38Z</time></trkpt><trkpt lat="43.7248431560342" lon="11.440039775956736"><ele>286.0</ele><time>2026-04-11T13:03:39Z</time></trkpt><trkpt lat="43.7249694750349" lon="11.43994991733951"><ele>286.0</ele><time>2026-04-11T13:03:41Z</time></trkpt><trkpt lat="43.72502911593368" lon="11.439909163725572"><ele>286.0</ele><time>2026-04-11T13:03:42Z</time></trkpt><trkpt lat="43.725120693716754" lon="11.439844146271035"><ele>286.0</ele><time>2026-04-11T13:03:44Z</time></trkpt><trkpt lat="43.7252421139302" lon="11.43981128341849"><ele>286.0</ele><time>2026-04-11T13:03:46Z</time></trkpt><trkpt lat="43.7253315622363" lon="11.439750585372106"><ele>285.5</ele><time>2026-04-11T13:03:48Z</time></trkpt><trkpt lat="43.72542671602603" lon="11.439718758090137"><ele>285.0</ele><time>2026-04-11T13:03:49Z</time></trkpt><trkpt lat="43.725516509739634" lon="11.439688701064867"><ele>284.5</ele><time>2026-04-11T13:03:50Z</time></trkpt><trkpt lat="43.72545365437516" lon="11.439712824926904"><ele>284.0</ele><time>2026-04-11T13:04:14Z</time></trkpt><trkpt lat="43.72547336254406" lon="11.439861840920786"><ele>283.5</ele><time>2026-04-11T13:04:17Z</time></trkpt><trkpt lat="43.725476069603346" lon="11.439966666322578"><ele>283.0</ele><time>2026-04-11T13:04:19Z</time></trkpt><trkpt lat="43.72549489849985" lon="11.440082792676899"><ele>283.0</ele><time>2026-04-11T13:04:22Z</time></trkpt><trkpt lat="43.725506026144835" lon="11.44019089916323"><ele>283.0</ele><time>2026-04-11T13:04:24Z</time></trkpt><trkpt lat="43.725511531244564" lon="11.440299286371298"><ele>283.0</ele><time>2026-04-11T13:04:26Z</time></trkpt><trkpt lat="43.72553835714573" lon="11.440426790653103"><ele>283.0</ele><time>2026-04-11T13:04:28Z</time></trkpt><trkpt lat="43.725561199843696" lon="11.440530814591652"><ele>283.0</ele><time>2026-04-11T13:04:30Z</time></trkpt><trkpt lat="43.72558377064528" lon="11.44068254518047"><ele>283.0</ele><time>2026-04-11T13:04:32Z</time></trkpt><trkpt lat="43.725602931283454" lon="11.440775927913363"><ele>281.5</ele><time>2026-04-11T13:04:33Z</time></trkpt><trkpt lat="43.725625341544024" lon="11.440899444406547"><ele>280.0</ele><time>2026-04-11T13:04:35Z</time></trkpt><trkpt lat="43.72562772932434" lon="11.440991192167465"><ele>278.5</ele><time>2026-04-11T13:04:37.999Z</time></trkpt><trkpt lat="43.725656193524884" lon="11.441089618732903"><ele>277.0</ele><time>2026-04-11T13:04:39.999Z</time></trkpt><trkpt lat="43.72569405520925" lon="11.441223299937253"><ele>275.5</ele><time>2026-04-11T13:04:41.999Z</time></trkpt><trkpt lat="43.72571539905487" lon="11.44136772490197"><ele>274.0</ele><time>2026-04-11T13:04:43.999Z</time></trkpt><trkpt lat="43.72575322288755" lon="11.441457760195735"><ele>272.5</ele><time>2026-04-11T13:04:45.999Z</time></trkpt><trkpt lat="43.72578710018687" lon="11.441542356198385"><ele>271.0</ele><time>2026-04-11T13:04:46.999Z</time></trkpt><trkpt lat="43.725802697518944" lon="11.441632916123321"><ele>269.5</ele><time>2026-04-11T13:04:47.999Z</time></trkpt><trkpt lat="43.725813889201746" lon="11.441729615547795"><ele>268.0</ele><time>2026-04-11T13:04:48.999Z</time></trkpt><trkpt lat="43.725848107619136" lon="11.441821634402665"><ele>266.5</ele><time>2026-04-11T13:04:50.999Z</time></trkpt><trkpt lat="43.72593721113412" lon="11.441874256559528"><ele>265.0</ele><time>2026-04-11T13:04:52.999Z</time></trkpt><trkpt lat="43.7260110835348" lon="11.441897291139803"><ele>264.66666666666663</ele><time>2026-04-11T13:04:54.999Z</time></trkpt><trkpt lat="43.726093271778495" lon="11.441838546110198"><ele>264.3333333333333</ele><time>2026-04-11T13:04:57.999Z</time></trkpt><trkpt lat="43.726124403167276" lon="11.441761803128594"><ele>264.0</ele><time>2026-04-11T13:04:58.999Z</time></trkpt><trkpt lat="43.72616487958355" lon="11.441654363616351"><ele>263.6666666666667</ele><time>2026-04-11T13:04:59.999Z</time></trkpt><trkpt lat="43.72620686023358" lon="11.44154352272812"><ele>263.33333333333337</ele><time>2026-04-11T13:05:00.999Z</time></trkpt><trkpt lat="43.72626205525489" lon="11.441432339451596"><ele>263.0</ele><time>2026-04-11T13:05:01.999Z</time></trkpt><trkpt lat="43.72633148606292" lon="11.441336702458521"><ele>264.4</ele><time>2026-04-11T13:05:02.999Z</time></trkpt><trkpt lat="43.7264022889982" lon="11.441249029946645"><ele>265.8</ele><time>2026-04-11T13:05:03.999Z</time></trkpt><trkpt lat="43.72648220688828" lon="11.441180526027713"><ele>267.2</ele><time>2026-04-11T13:05:04.999Z</time></trkpt><trkpt lat="43.726571434972136" lon="11.441123356216963"><ele>268.6</ele><time>2026-04-11T13:05:05.999Z</time></trkpt><trkpt lat="43.72666633723521" lon="11.441060614100003"><ele>270.0</ele><time>2026-04-11T13:05:06.999Z</time></trkpt><trkpt lat="43.72677165013317" lon="11.441000791168696"><ele>270.0</ele><time>2026-04-11T13:05:07.999Z</time></trkpt><trkpt lat="43.726900272776525" lon="11.440971110015589"><ele>270.0</ele><time>2026-04-11T13:05:08.999Z</time></trkpt><trkpt lat="43.72703742576081" lon="11.440950228399485"><ele>270.0</ele><time>2026-04-11T13:05:09.999Z</time></trkpt><trkpt lat="43.727186618157184" lon="11.440936331054179"><ele>270.0</ele><time>2026-04-11T13:05:10.999Z</time></trkpt><trkpt lat="43.72734784228537" lon="11.440914706741012"><ele>270.0</ele><time>2026-04-11T13:05:11.999Z</time></trkpt><trkpt lat="43.727520823264314" lon="11.440882956491043"><ele>270.0</ele><time>2026-04-11T13:05:12.999Z</time></trkpt><trkpt lat="43.727697464844546" lon="11.440852551800523"><ele>270.0</ele><time>2026-04-11T13:05:13.999Z</time></trkpt><trkpt lat="43.72787334588996" lon="11.440830188252974"><ele>270.6666666666667</ele><time>2026-04-11T13:05:14.999Z</time></trkpt><trkpt lat="43.728044576306225" lon="11.440818163037697"><ele>271.33333333333337</ele><time>2026-04-11T13:05:15.999Z</time></trkpt><trkpt lat="43.728207857635034" lon="11.440807556406227"><ele>272.0</ele><time>2026-04-11T13:05:16.999Z</time></trkpt><trkpt lat="43.72838215117288" lon="11.440778084128276"><ele>272.0</ele><time>2026-04-11T13:05:17.999Z</time></trkpt><trkpt lat="43.72855450440994" lon="11.440726860814571"><ele>272.0</ele><time>2026-04-11T13:05:18.999Z</time></trkpt><trkpt lat="43.72871904518692" lon="11.440658649622021"><ele>272.0</ele><time>2026-04-11T13:05:19.999Z</time></trkpt><trkpt lat="43.72887938483695" lon="11.440575396078101"><ele>272.0</ele><time>2026-04-11T13:05:20.999Z</time></trkpt><trkpt lat="43.7290348714832" lon="11.440484116847701"><ele>272.0</ele><time>2026-04-11T13:05:21.999Z</time></trkpt><trkpt lat="43.729193529387885" lon="11.440368204891703"><ele>272.0</ele><time>2026-04-11T13:05:22.999Z</time></trkpt><trkpt lat="43.7293459990822" lon="11.440232229460618"><ele>273.6666666666667</ele><time>2026-04-11T13:05:23.999Z</time></trkpt><trkpt lat="43.729494554753444" lon="11.440096360263569"><ele>275.3333333333333</ele><time>2026-04-11T13:05:24.999Z</time></trkpt><trkpt lat="43.72964592167967" lon="11.439954510987114"><ele>277.0</ele><time>2026-04-11T13:05:25.999Z</time></trkpt><trkpt lat="43.72979700981092" lon="11.439824119126195"><ele>277.0</ele><time>2026-04-11T13:05:26.999Z</time></trkpt><trkpt lat="43.72994729304128" lon="11.439695580508353"><ele>277.0</ele><time>2026-04-11T13:05:27.999Z</time></trkpt><trkpt lat="43.73009522343272" lon="11.439568615044305"><ele>277.0</ele><time>2026-04-11T13:05:28.999Z</time></trkpt><trkpt lat="43.73024723213488" lon="11.439451381658511"><ele>281.0</ele><time>2026-04-11T13:05:29.999Z</time></trkpt><trkpt lat="43.730401190706765" lon="11.439357055937473"><ele>285.0</ele><time>2026-04-11T13:05:30.999Z</time></trkpt><trkpt lat="43.73054681730683" lon="11.439277173643871"><ele>289.0</ele><time>2026-04-11T13:05:31.999Z</time></trkpt><trkpt lat="43.730676753663445" lon="11.439211452120107"><ele>289.0</ele><time>2026-04-11T13:05:33Z</time></trkpt><trkpt lat="43.730794738985495" lon="11.439166119752661"><ele>289.0</ele><time>2026-04-11T13:05:34Z</time></trkpt><trkpt lat="43.73089147714378" lon="11.43914339797226"><ele>289.0</ele><time>2026-04-11T13:05:35Z</time></trkpt><trkpt lat="43.73096606109834" lon="11.439145303059322"><ele>289.0</ele><time>2026-04-11T13:05:36Z</time></trkpt><trkpt lat="43.73107709626779" lon="11.43914341862389"><ele>289.0</ele><time>2026-04-11T13:05:38Z</time></trkpt><trkpt lat="43.731157251617134" lon="11.43913525055212"><ele>287.5</ele><time>2026-04-11T13:05:40Z</time></trkpt><trkpt lat="43.73113713780391" lon="11.438854035860777"><ele>286.0</ele><time>2026-04-11T13:05:41Z</time></trkpt><trkpt lat="43.73113494298518" lon="11.438736320170987"><ele>284.5</ele><time>2026-04-11T13:05:43Z</time></trkpt><trkpt lat="43.73113766910154" lon="11.438635466460711"><ele>283.0</ele><time>2026-04-11T13:05:45Z</time></trkpt><trkpt lat="43.731094266693674" lon="11.438489302441749"><ele>282.5</ele><time>2026-04-11T13:05:47Z</time></trkpt><trkpt lat="43.73105485644017" lon="11.438377466996313"><ele>282.0</ele><time>2026-04-11T13:05:49Z</time></trkpt><trkpt lat="43.73100908654574" lon="11.438260872868367"><ele>281.5</ele><time>2026-04-11T13:05:51Z</time></trkpt><trkpt lat="43.73113670835702" lon="11.437989199864335"><ele>281.0</ele><time>2026-04-11T13:05:53Z</time></trkpt><trkpt lat="43.73113996391932" lon="11.437899357805414"><ele>280.1666666666667</ele><time>2026-04-11T13:05:54Z</time></trkpt><trkpt lat="43.73115030283222" lon="11.437760403613575"><ele>279.33333333333337</ele><time>2026-04-11T13:05:56Z</time></trkpt><trkpt lat="43.731224001984664" lon="11.437652498855078"><ele>278.5</ele><time>2026-04-11T13:05:58Z</time></trkpt><trkpt lat="43.73129806597562" lon="11.437605822463341"><ele>277.6666666666667</ele><time>2026-04-11T13:05:59Z</time></trkpt><trkpt lat="43.73136302423153" lon="11.437545305296299"><ele>276.8333333333333</ele><time>2026-04-11T13:06:00Z</time></trkpt><trkpt lat="43.73142202318832" lon="11.437485164728672"><ele>276.0</ele><time>2026-04-11T13:06:01Z</time></trkpt><trkpt lat="43.7314840923545" lon="11.437418759317156"><ele>276.0</ele><time>2026-04-11T13:06:02Z</time></trkpt><trkpt lat="43.7315537657096" lon="11.437344366810002"><ele>276.0</ele><time>2026-04-11T13:06:03Z</time></trkpt><trkpt lat="43.73162382642417" lon="11.437282330390442"><ele>276.0</ele><time>2026-04-11T13:06:04Z</time></trkpt><trkpt lat="43.73169227463649" lon="11.437223245906287"><ele>276.0</ele><time>2026-04-11T13:06:05Z</time></trkpt><trkpt lat="43.73176226332698" lon="11.437155497629556"><ele>276.0</ele><time>2026-04-11T13:06:06Z</time></trkpt><trkpt lat="43.73183777358075" lon="11.437072791324733"><ele>276.0</ele><time>2026-04-11T13:06:07Z</time></trkpt><trkpt lat="43.731904406052095" lon="11.436988551295535"><ele>273.6666666666667</ele><time>2026-04-11T13:06:08Z</time></trkpt><trkpt lat="43.73195870004992" lon="11.436911697387657"><ele>271.3333333333333</ele><time>2026-04-11T13:06:09Z</time></trkpt><trkpt lat="43.73201861598468" lon="11.436842251849702"><ele>269.0</ele><time>2026-04-11T13:06:10Z</time></trkpt><trkpt lat="43.73207719058017" lon="11.436789192346636"><ele>266.66666666666663</ele><time>2026-04-11T13:06:11Z</time></trkpt><trkpt lat="43.73213327089181" lon="11.436746261946933"><ele>264.3333333333333</ele><time>2026-04-11T13:06:13Z</time></trkpt><trkpt lat="43.73222417884788" lon="11.436666661444052"><ele>262.0</ele><time>2026-04-11T13:06:16Z</time></trkpt><trkpt lat="43.73228818775652" lon="11.436555736414343"><ele>262.0</ele><time>2026-04-11T13:06:17Z</time></trkpt><trkpt lat="43.732368435288095" lon="11.436436630026801"><ele>262.0</ele><time>2026-04-11T13:06:18Z</time></trkpt><trkpt lat="43.73247336133302" lon="11.436346861110543"><ele>262.0</ele><time>2026-04-11T13:06:19Z</time></trkpt><trkpt lat="43.73260428214568" lon="11.436288798995978"><ele>262.0</ele><time>2026-04-11T13:06:20Z</time></trkpt><trkpt lat="43.73273396113693" lon="11.436260207418513"><ele>263.5</ele><time>2026-04-11T13:06:21Z</time></trkpt><trkpt lat="43.732851738977594" lon="11.436234933197845"><ele>265.0</ele><time>2026-04-11T13:06:22Z</time></trkpt><trkpt lat="43.73297842480444" lon="11.436236768126484"><ele>266.5</ele><time>2026-04-11T13:06:23Z</time></trkpt><trkpt lat="43.73311805673544" lon="11.43623740674418"><ele>268.0</ele><time>2026-04-11T13:06:24Z</time></trkpt><trkpt lat="43.733263503166086" lon="11.436232842880726"><ele>268.0</ele><time>2026-04-11T13:06:25Z</time></trkpt><trkpt lat="43.733409575107814" lon="11.436217426290609"><ele>268.0</ele><time>2026-04-11T13:06:26Z</time></trkpt><trkpt lat="43.73356035049802" lon="11.436202728541584"><ele>268.0</ele><time>2026-04-11T13:06:26.999Z</time></trkpt><trkpt lat="43.73369652640416" lon="11.436197760974627"><ele>268.0</ele><time>2026-04-11T13:06:27.999Z</time></trkpt><trkpt lat="43.7338427692642" lon="11.436183845357961"><ele>268.3333333333333</ele><time>2026-04-11T13:06:28.999Z</time></trkpt><trkpt lat="43.73399754317435" lon="11.43617751774344"><ele>268.6666666666667</ele><time>2026-04-11T13:06:29.999Z</time></trkpt><trkpt lat="43.73416066270714" lon="11.436165656227326"><ele>269.0</ele><time>2026-04-11T13:06:30.999Z</time></trkpt><trkpt lat="43.73432862274674" lon="11.436148282517276"><ele>268.33333333333337</ele><time>2026-04-11T13:06:31.999Z</time></trkpt><trkpt lat="43.734494551360214" lon="11.436132474480287"><ele>267.6666666666667</ele><time>2026-04-11T13:06:32.999Z</time></trkpt><trkpt lat="43.73466752268132" lon="11.436146677781384"><ele>267.0</ele><time>2026-04-11T13:06:33.999Z</time></trkpt><trkpt lat="43.73483212756443" lon="11.436190289480887"><ele>267.0</ele><time>2026-04-11T13:06:34.999Z</time></trkpt><trkpt lat="43.734993611897906" lon="11.43628083755229"><ele>267.0</ele><time>2026-04-11T13:06:35.999Z</time></trkpt><trkpt lat="43.735150020267355" lon="11.43640562080368"><ele>267.0</ele><time>2026-04-11T13:06:36.999Z</time></trkpt><trkpt lat="43.73529525340219" lon="11.436560980315477"><ele>266.3333333333333</ele><time>2026-04-11T13:06:37.999Z</time></trkpt><trkpt lat="43.73543011924943" lon="11.43674366763365"><ele>265.66666666666663</ele><time>2026-04-11T13:06:38.999Z</time></trkpt><trkpt lat="43.735560182747015" lon="11.436927158099135"><ele>265.0</ele><time>2026-04-11T13:06:39.999Z</time></trkpt><trkpt lat="43.73569700612028" lon="11.437099508068801"><ele>264.66666666666663</ele><time>2026-04-11T13:06:40.999Z</time></trkpt><trkpt lat="43.735836050737866" lon="11.437247443661654"><ele>264.3333333333333</ele><time>2026-04-11T13:06:41.999Z</time></trkpt><trkpt lat="43.735979057203544" lon="11.437373795397837"><ele>264.0</ele><time>2026-04-11T13:06:42.999Z</time></trkpt><trkpt lat="43.736123763318425" lon="11.437501440534243"><ele>264.0</ele><time>2026-04-11T13:06:43.999Z</time></trkpt><trkpt lat="43.73626345001447" lon="11.437643449626862"><ele>264.0</ele><time>2026-04-11T13:06:44.999Z</time></trkpt><trkpt lat="43.73640420403755" lon="11.43778684631866"><ele>264.0</ele><time>2026-04-11T13:06:45.999Z</time></trkpt><trkpt lat="43.736534196769014" lon="11.437922742435388"><ele>263.6666666666667</ele><time>2026-04-11T13:06:46.999Z</time></trkpt><trkpt lat="43.73666208474555" lon="11.438052562371979"><ele>263.33333333333337</ele><time>2026-04-11T13:06:47.999Z</time></trkpt><trkpt lat="43.73678766894829" lon="11.43816953064232"><ele>263.0</ele><time>2026-04-11T13:06:48.999Z</time></trkpt><trkpt lat="43.73692324476176" lon="11.438302411149728"><ele>263.0</ele><time>2026-04-11T13:06:49.999Z</time></trkpt><trkpt lat="43.737056229467456" lon="11.438452461853093"><ele>263.0</ele><time>2026-04-11T13:06:50.999Z</time></trkpt><trkpt lat="43.7371701053923" lon="11.438623712008335"><ele>263.0</ele><time>2026-04-11T13:06:51.999Z</time></trkpt><trkpt lat="43.73727825994898" lon="11.438833417334678"><ele>263.0</ele><time>2026-04-11T13:06:52.999Z</time></trkpt><trkpt lat="43.73737781291718" lon="11.439041857466687"><ele>263.0</ele><time>2026-04-11T13:06:53.999Z</time></trkpt><trkpt lat="43.73747530506789" lon="11.43923677633842"><ele>263.0</ele><time>2026-04-11T13:06:54.999Z</time></trkpt><trkpt lat="43.73758517775326" lon="11.439421055660581"><ele>263.0</ele><time>2026-04-11T13:06:55.999Z</time></trkpt><trkpt lat="43.73770352739201" lon="11.439587832125074"><ele>263.0</ele><time>2026-04-11T13:06:56.999Z</time></trkpt><trkpt lat="43.73783718427464" lon="11.439744621212087"><ele>263.0</ele><time>2026-04-11T13:06:57.999Z</time></trkpt><trkpt lat="43.73797440060809" lon="11.439891749927142"><ele>263.6666666666667</ele><time>2026-04-11T13:06:58.999Z</time></trkpt><trkpt lat="43.73811673512875" lon="11.440040284058133"><ele>264.3333333333333</ele><time>2026-04-11T13:06:59.999Z</time></trkpt><trkpt lat="43.73826453575257" lon="11.440193879988446"><ele>265.0</ele><time>2026-04-11T13:07:00.999Z</time></trkpt><trkpt lat="43.73841400781809" lon="11.440341969638327"><ele>264.3333333333333</ele><time>2026-04-11T13:07:01.999Z</time></trkpt><trkpt lat="43.738568536498725" lon="11.440491154183608"><ele>263.6666666666667</ele><time>2026-04-11T13:07:02.999Z</time></trkpt><trkpt lat="43.738720917540704" lon="11.44063919677937"><ele>263.0</ele><time>2026-04-11T13:07:03.999Z</time></trkpt><trkpt lat="43.73887452222513" lon="11.440790986477872"><ele>263.0</ele><time>2026-04-11T13:07:04.999Z</time></trkpt><trkpt lat="43.73902448120962" lon="11.440940780793216"><ele>263.0</ele><time>2026-04-11T13:07:05.999Z</time></trkpt><trkpt lat="43.7391675715816" lon="11.441082330805466"><ele>263.0</ele><time>2026-04-11T13:07:06.999Z</time></trkpt><trkpt lat="43.739302590061044" lon="11.441219076716552"><ele>262.0</ele><time>2026-04-11T13:07:07.999Z</time></trkpt><trkpt lat="43.73944372108776" lon="11.441364383776893"><ele>261.0</ele><time>2026-04-11T13:07:08.999Z</time></trkpt><trkpt lat="43.73959583333199" lon="11.441518244680964"><ele>260.0</ele><time>2026-04-11T13:07:09.999Z</time></trkpt><trkpt lat="43.739754896773874" lon="11.441678077266479"><ele>260.0</ele><time>2026-04-11T13:07:10.999Z</time></trkpt><trkpt lat="43.73991669373215" lon="11.441841414530519"><ele>260.0</ele><time>2026-04-11T13:07:11.999Z</time></trkpt><trkpt lat="43.740083214472705" lon="11.442007345750001"><ele>260.0</ele><time>2026-04-11T13:07:12.999Z</time></trkpt><trkpt lat="43.740258426955954" lon="11.442177421991563"><ele>259.33333333333337</ele><time>2026-04-11T13:07:13.999Z</time></trkpt><trkpt lat="43.74043480318632" lon="11.44233994428534"><ele>258.6666666666667</ele><time>2026-04-11T13:07:14.999Z</time></trkpt><trkpt lat="43.740618857404456" lon="11.44248769826646"><ele>258.0</ele><time>2026-04-11T13:07:15.999Z</time></trkpt><trkpt lat="43.74081981397056" lon="11.44260996517747"><ele>258.0</ele><time>2026-04-11T13:07:16.999Z</time></trkpt><trkpt lat="43.74102635508769" lon="11.44272280274796"><ele>258.0</ele><time>2026-04-11T13:07:17.999Z</time></trkpt><trkpt lat="43.74122804011959" lon="11.442836955909115"><ele>258.0</ele><time>2026-04-11T13:07:18.999Z</time></trkpt><trkpt lat="43.74140934052416" lon="11.44293972284861"><ele>259.6666666666667</ele><time>2026-04-11T13:07:19.999Z</time></trkpt><trkpt lat="43.74158049669839" lon="11.443038358521099"><ele>261.33333333333337</ele><time>2026-04-11T13:07:20.999Z</time></trkpt><trkpt lat="43.741751127644214" lon="11.44312975289497"><ele>263.0</ele><time>2026-04-11T13:07:21.999Z</time></trkpt><trkpt lat="43.74192696491357" lon="11.443222346577166"><ele>263.0</ele><time>2026-04-11T13:07:22.999Z</time></trkpt><trkpt lat="43.74210647647702" lon="11.443315512357897"><ele>263.0</ele><time>2026-04-11T13:07:23.999Z</time></trkpt><trkpt lat="43.742283549238884" lon="11.443400457265945"><ele>263.0</ele><time>2026-04-11T13:07:24.999Z</time></trkpt><trkpt lat="43.74246903652741" lon="11.443481948822775"><ele>263.0</ele><time>2026-04-11T13:07:25.999Z</time></trkpt><trkpt lat="43.74265052056725" lon="11.44356528012174"><ele>263.0</ele><time>2026-04-11T13:07:26.999Z</time></trkpt><trkpt lat="43.74282944722317" lon="11.443647601493517"><ele>263.0</ele><time>2026-04-11T13:07:27.999Z</time></trkpt><trkpt lat="43.74301327857565" lon="11.443731557290112"><ele>260.6666666666667</ele><time>2026-04-11T13:07:28.999Z</time></trkpt><trkpt lat="43.74318879405754" lon="11.443812133420208"><ele>258.3333333333333</ele><time>2026-04-11T13:07:29.999Z</time></trkpt><trkpt lat="43.74332310196347" lon="11.443871820735804"><ele>256.0</ele><time>2026-04-11T13:07:30.999Z</time></trkpt><trkpt lat="43.743447209859966" lon="11.44392907039581"><ele>256.0</ele><time>2026-04-11T13:07:31.999Z</time></trkpt><trkpt lat="43.743567967743644" lon="11.443985838047396"><ele>256.0</ele><time>2026-04-11T13:07:32.999Z</time></trkpt><trkpt lat="43.743697481175836" lon="11.44404220911687"><ele>256.0</ele><time>2026-04-11T13:07:33.999Z</time></trkpt><trkpt lat="43.74381946621858" lon="11.44408781774644"><ele>256.0</ele><time>2026-04-11T13:07:34.999Z</time></trkpt><trkpt lat="43.74394501814985" lon="11.444136979367785"><ele>256.0</ele><time>2026-04-11T13:07:35.999Z</time></trkpt><trkpt lat="43.744057163024486" lon="11.444180122060999"><ele>256.0</ele><time>2026-04-11T13:07:36.999Z</time></trkpt><trkpt lat="43.744151354514685" lon="11.44423017176887"><ele>256.0</ele><time>2026-04-11T13:07:37.999Z</time></trkpt><trkpt lat="43.744252177585466" lon="11.444279768681117"><ele>256.0</ele><time>2026-04-11T13:07:39Z</time></trkpt><trkpt lat="43.7443592948207" lon="11.4443379440135"><ele>256.0</ele><time>2026-04-11T13:07:40Z</time></trkpt><trkpt lat="43.7444771029767" lon="11.444396617175027"><ele>257.2</ele><time>2026-04-11T13:07:41Z</time></trkpt><trkpt lat="43.744580092172015" lon="11.444466400255662"><ele>258.40000000000003</ele><time>2026-04-11T13:07:42Z</time></trkpt><trkpt lat="43.744671409018565" lon="11.444557210379175"><ele>259.6</ele><time>2026-04-11T13:07:43Z</time></trkpt><trkpt lat="43.74475672220099" lon="11.44465480056857"><ele>260.8</ele><time>2026-04-11T13:07:44Z</time></trkpt><trkpt lat="43.744831380536446" lon="11.44475209558304"><ele>262.0</ele><time>2026-04-11T13:07:45Z</time></trkpt><trkpt lat="43.74490511266049" lon="11.444855332777149"><ele>262.0</ele><time>2026-04-11T13:07:46Z</time></trkpt><trkpt lat="43.744981409612684" lon="11.444965994762669"><ele>262.0</ele><time>2026-04-11T13:07:47Z</time></trkpt><trkpt lat="43.74506235582415" lon="11.445069120383172"><ele>262.0</ele><time>2026-04-11T13:07:48Z</time></trkpt><trkpt lat="43.7451457042192" lon="11.445176231194194"><ele>262.0</ele><time>2026-04-11T13:07:49Z</time></trkpt><trkpt lat="43.74523415126454" lon="11.445285074011666"><ele>261.5</ele><time>2026-04-11T13:07:50Z</time></trkpt><trkpt lat="43.74533290192427" lon="11.445396666979304"><ele>261.0</ele><time>2026-04-11T13:07:51Z</time></trkpt><trkpt lat="43.74543575091045" lon="11.445508175464889"><ele>260.5</ele><time>2026-04-11T13:07:52Z</time></trkpt><trkpt lat="43.74552995509266" lon="11.445609301255407"><ele>260.0</ele><time>2026-04-11T13:07:53Z</time></trkpt><trkpt lat="43.74561597151432" lon="11.44570151376059"><ele>260.8</ele><time>2026-04-11T13:07:54Z</time></trkpt><trkpt lat="43.74570454493181" lon="11.445759006418765"><ele>261.6</ele><time>2026-04-11T13:07:55Z</time></trkpt><trkpt lat="43.745790442120764" lon="11.445810508105408"><ele>262.4</ele><time>2026-04-11T13:07:56Z</time></trkpt><trkpt lat="43.74586584139056" lon="11.445846789632244"><ele>263.2</ele><time>2026-04-11T13:07:57Z</time></trkpt><trkpt lat="43.745950744560965" lon="11.445872205771144"><ele>264.0</ele><time>2026-04-11T13:07:58Z</time></trkpt><trkpt lat="43.74604137034085" lon="11.445902245158921"><ele>262.59999999999997</ele><time>2026-04-11T13:07:59Z</time></trkpt><trkpt lat="43.746143581277614" lon="11.44595130283606"><ele>261.2</ele><time>2026-04-11T13:08:00Z</time></trkpt><trkpt lat="43.74624655840189" lon="11.446005015346952"><ele>259.79999999999995</ele><time>2026-04-11T13:08:01Z</time></trkpt><trkpt lat="43.74635275959001" lon="11.446053797585618"><ele>258.4</ele><time>2026-04-11T13:08:02Z</time></trkpt><trkpt lat="43.74645532725763" lon="11.446122300697112"><ele>257.0</ele><time>2026-04-11T13:08:03Z</time></trkpt><trkpt lat="43.74654904445812" lon="11.44623129664769"><ele>259.25</ele><time>2026-04-11T13:08:04Z</time></trkpt><trkpt lat="43.746621177671514" lon="11.446365371186056"><ele>261.5</ele><time>2026-04-11T13:08:05Z</time></trkpt><trkpt lat="43.74667599383541" lon="11.446525639845918"><ele>263.75</ele><time>2026-04-11T13:08:06Z</time></trkpt><trkpt lat="43.74671804960922" lon="11.446686268132321"><ele>266.0</ele><time>2026-04-11T13:08:07Z</time></trkpt><trkpt lat="43.74673697145403" lon="11.446844870314209"><ele>266.0</ele><time>2026-04-11T13:08:08Z</time></trkpt><trkpt lat="43.74675469387029" lon="11.447011726400326"><ele>266.0</ele><time>2026-04-11T13:08:09Z</time></trkpt><trkpt lat="43.746776723462354" lon="11.44718504010031"><ele>266.0</ele><time>2026-04-11T13:08:10Z</time></trkpt><trkpt lat="43.746803561818105" lon="11.44736070420997"><ele>266.0</ele><time>2026-04-11T13:08:11Z</time></trkpt><trkpt lat="43.74683066129486" lon="11.447524540008152"><ele>266.5</ele><time>2026-04-11T13:08:12Z</time></trkpt><trkpt lat="43.74684543592543" lon="11.447682890544813"><ele>267.0</ele><time>2026-04-11T13:08:13Z</time></trkpt><trkpt lat="43.74689096905891" lon="11.447861384176768"><ele>267.5</ele><time>2026-04-11T13:08:14Z</time></trkpt><trkpt lat="43.74694667863691" lon="11.44804010568548"><ele>268.0</ele><time>2026-04-11T13:08:15Z</time></trkpt><trkpt lat="43.747015895465154" lon="11.448204130057498"><ele>266.4</ele><time>2026-04-11T13:08:16Z</time></trkpt><trkpt lat="43.74709897710119" lon="11.448347224662943"><ele>264.8</ele><time>2026-04-11T13:08:17Z</time></trkpt><trkpt lat="43.74718419477151" lon="11.448469338694503"><ele>263.2</ele><time>2026-04-11T13:08:18Z</time></trkpt><trkpt lat="43.74726293237373" lon="11.448553216673014"><ele>261.6</ele><time>2026-04-11T13:08:19Z</time></trkpt><trkpt lat="43.74732801884373" lon="11.448606672671568"><ele>260.0</ele><time>2026-04-11T13:08:20Z</time></trkpt><trkpt lat="43.74739029281184" lon="11.448652296066332"><ele>260.0</ele><time>2026-04-11T13:08:22Z</time></trkpt><trkpt lat="43.74750094452665" lon="11.448720435257211"><ele>260.0</ele><time>2026-04-11T13:08:51.999Z</time></trkpt><trkpt lat="43.74756797798347" lon="11.448758434321176"><ele>260.0</ele><time>2026-04-11T13:08:52.999Z</time></trkpt><trkpt lat="43.74765865997112" lon="11.448777398336674"><ele>260.0</ele><time>2026-04-11T13:08:53.999Z</time></trkpt><trkpt lat="43.74775935019873" lon="11.448768177199284"><ele>260.0</ele><time>2026-04-11T13:08:54.999Z</time></trkpt><trkpt lat="43.747902979981454" lon="11.448780966894104"><ele>261.33333333333337</ele><time>2026-04-11T13:08:55.999Z</time></trkpt><trkpt lat="43.74806362117871" lon="11.448787521117035"><ele>262.6666666666667</ele><time>2026-04-11T13:08:56.999Z</time></trkpt><trkpt lat="43.74823077379509" lon="11.448844760969529"><ele>264.0</ele><time>2026-04-11T13:08:57.999Z</time></trkpt><trkpt lat="43.74835560267031" lon="11.449011407020974"><ele>264.0</ele><time>2026-04-11T13:08:58.999Z</time></trkpt><trkpt lat="43.748461877893135" lon="11.449083895058852"><ele>264.0</ele><time>2026-04-11T13:08:59.999Z</time></trkpt><trkpt lat="43.74861024717141" lon="11.449192145249757"><ele>264.0</ele><time>2026-04-11T13:09:00.999Z</time></trkpt><trkpt lat="43.74875070680514" lon="11.449324326825533"><ele>262.6666666666667</ele><time>2026-04-11T13:09:01.999Z</time></trkpt><trkpt lat="43.74889751609957" lon="11.449466575096656"><ele>261.33333333333337</ele><time>2026-04-11T13:09:02.999Z</time></trkpt><trkpt lat="43.749057132201784" lon="11.449607050284465"><ele>260.0</ele><time>2026-04-11T13:09:03.999Z</time></trkpt><trkpt lat="43.74923156114258" lon="11.449726528763572"><ele>260.33333333333337</ele><time>2026-04-11T13:09:04.999Z</time></trkpt><trkpt lat="43.74941250031936" lon="11.449807070878899"><ele>260.6666666666667</ele><time>2026-04-11T13:09:05.999Z</time></trkpt><trkpt lat="43.74960111571059" lon="11.44984783920729"><ele>261.0</ele><time>2026-04-11T13:09:06.999Z</time></trkpt><trkpt lat="43.74978739410363" lon="11.449871601809306"><ele>261.0</ele><time>2026-04-11T13:09:07.999Z</time></trkpt><trkpt lat="43.74996738315854" lon="11.449888473798225"><ele>261.0</ele><time>2026-04-11T13:09:08.999Z</time></trkpt><trkpt lat="43.750145228022994" lon="11.449905418876876"><ele>261.0</ele><time>2026-04-11T13:09:09.999Z</time></trkpt><trkpt lat="43.75031528974872" lon="11.449918506977964"><ele>262.6666666666667</ele><time>2026-04-11T13:09:10.999Z</time></trkpt><trkpt lat="43.750483624264035" lon="11.449932984353664"><ele>264.33333333333337</ele><time>2026-04-11T13:09:11.999Z</time></trkpt><trkpt lat="43.7506506927431" lon="11.449946908752073"><ele>266.0</ele><time>2026-04-11T13:09:12.999Z</time></trkpt><trkpt lat="43.75081435852867" lon="11.449975632059882"><ele>266.0</ele><time>2026-04-11T13:09:13.999Z</time></trkpt><trkpt lat="43.75098731945648" lon="11.450020044356108"><ele>266.0</ele><time>2026-04-11T13:09:14.999Z</time></trkpt><trkpt lat="43.751156373162445" lon="11.450070888786582"><ele>266.0</ele><time>2026-04-11T13:09:15.999Z</time></trkpt><trkpt lat="43.7513218119281" lon="11.450124855860835"><ele>265.6666666666667</ele><time>2026-04-11T13:09:16.999Z</time></trkpt><trkpt lat="43.75149331893713" lon="11.450164818037424"><ele>265.3333333333333</ele><time>2026-04-11T13:09:17.999Z</time></trkpt><trkpt lat="43.751667816748565" lon="11.450191034687832"><ele>265.0</ele><time>2026-04-11T13:09:18.999Z</time></trkpt><trkpt lat="43.75184991336034" lon="11.450207398824439"><ele>266.3333333333333</ele><time>2026-04-11T13:09:19.999Z</time></trkpt><trkpt lat="43.752037566287626" lon="11.450197356462837"><ele>267.6666666666667</ele><time>2026-04-11T13:09:20.999Z</time></trkpt><trkpt lat="43.75222353426797" lon="11.45016978922295"><ele>269.0</ele><time>2026-04-11T13:09:21.999Z</time></trkpt><trkpt lat="43.75241269072877" lon="11.450090482704674"><ele>269.0</ele><time>2026-04-11T13:09:22.999Z</time></trkpt><trkpt lat="43.75260198093489" lon="11.450018722748814"><ele>269.0</ele><time>2026-04-11T13:09:23.999Z</time></trkpt><trkpt lat="43.75278176643538" lon="11.449954041829209"><ele>269.0</ele><time>2026-04-11T13:09:24.999Z</time></trkpt><trkpt lat="43.75293886963265" lon="11.449889212633538"><ele>267.6666666666667</ele><time>2026-04-11T13:09:25.999Z</time></trkpt><trkpt lat="43.75309900843715" lon="11.44981110545427"><ele>266.3333333333333</ele><time>2026-04-11T13:09:26.999Z</time></trkpt><trkpt lat="43.75325370763192" lon="11.449709775248706"><ele>265.0</ele><time>2026-04-11T13:09:27.999Z</time></trkpt><trkpt lat="43.75339495267317" lon="11.449620029978819"><ele>265.0</ele><time>2026-04-11T13:09:28.999Z</time></trkpt><trkpt lat="43.753524421327214" lon="11.449552002755555"><ele>265.0</ele><time>2026-04-11T13:09:29.999Z</time></trkpt><trkpt lat="43.75364653136729" lon="11.449507764707953"><ele>265.0</ele><time>2026-04-11T13:09:30.999Z</time></trkpt><trkpt lat="43.75376332289589" lon="11.449504635590808"><ele>265.0</ele><time>2026-04-11T13:09:31.999Z</time></trkpt><trkpt lat="43.753887080975275" lon="11.44955006689412"><ele>264.75</ele><time>2026-04-11T13:09:32.999Z</time></trkpt><trkpt lat="43.75401952125608" lon="11.449612702228155"><ele>264.5</ele><time>2026-04-11T13:09:33.999Z</time></trkpt><trkpt lat="43.75415575015372" lon="11.449696281404023"><ele>264.25</ele><time>2026-04-11T13:09:34.999Z</time></trkpt><trkpt lat="43.75429862898097" lon="11.4497843719792"><ele>264.0</ele><time>2026-04-11T13:09:35.999Z</time></trkpt><trkpt lat="43.75443943295668" lon="11.44986885170059"><ele>265.0</ele><time>2026-04-11T13:09:36.999Z</time></trkpt><trkpt lat="43.75457063656059" lon="11.449973088711314"><ele>266.0</ele><time>2026-04-11T13:09:37.999Z</time></trkpt><trkpt lat="43.754682824718934" lon="11.450100620101429"><ele>267.0</ele><time>2026-04-11T13:09:38.999Z</time></trkpt><trkpt lat="43.75478363485686" lon="11.45023249319675"><ele>268.0</ele><time>2026-04-11T13:09:39.999Z</time></trkpt><trkpt lat="43.754892852072345" lon="11.45032498835609"><ele>268.0</ele><time>2026-04-11T13:09:40.999Z</time></trkpt><trkpt lat="43.75500949805665" lon="11.450373914895824"><ele>268.0</ele><time>2026-04-11T13:09:41.999Z</time></trkpt><trkpt lat="43.75513460342879" lon="11.450392640849847"><ele>268.0</ele><time>2026-04-11T13:09:42.999Z</time></trkpt><trkpt lat="43.755269472139496" lon="11.4503521719354"><ele>268.0</ele><time>2026-04-11T13:09:44.001Z</time></trkpt><trkpt lat="43.75541478167514" lon="11.450291406280193"><ele>267.0</ele><time>2026-04-11T13:09:45.001Z</time></trkpt><trkpt lat="43.7555728731051" lon="11.450223890688042"><ele>266.0</ele><time>2026-04-11T13:09:46.001Z</time></trkpt><trkpt lat="43.7557351701296" lon="11.450146105391575"><ele>265.0</ele><time>2026-04-11T13:09:47.001Z</time></trkpt><trkpt lat="43.755907230900704" lon="11.450052097954256"><ele>264.66666666666663</ele><time>2026-04-11T13:09:48.001Z</time></trkpt><trkpt lat="43.75607112734644" lon="11.449940913844728"><ele>264.3333333333333</ele><time>2026-04-11T13:09:49.001Z</time></trkpt><trkpt lat="43.756226036586256" lon="11.449811569486373"><ele>264.0</ele><time>2026-04-11T13:09:50.001Z</time></trkpt><trkpt lat="43.756380181123774" lon="11.449680981435648"><ele>266.3333333333333</ele><time>2026-04-11T13:09:51.001Z</time></trkpt><trkpt lat="43.75654466506257" lon="11.449557941805868"><ele>268.66666666666663</ele><time>2026-04-11T13:09:52.001Z</time></trkpt><trkpt lat="43.75670470456693" lon="11.449440595018743"><ele>271.0</ele><time>2026-04-11T13:09:53.001Z</time></trkpt><trkpt lat="43.75687013827617" lon="11.449316251404625"><ele>272.66666666666663</ele><time>2026-04-11T13:09:54.001Z</time></trkpt><trkpt lat="43.757027314702135" lon="11.44919727920921"><ele>274.3333333333333</ele><time>2026-04-11T13:09:55.001Z</time></trkpt><trkpt lat="43.7571860466209" lon="11.449063584541898"><ele>276.0</ele><time>2026-04-11T13:09:56.001Z</time></trkpt><trkpt lat="43.757322904933716" lon="11.448920715710484"><ele>277.3333333333333</ele><time>2026-04-11T13:09:57.001Z</time></trkpt><trkpt lat="43.757447005844284" lon="11.44876222045739"><ele>278.66666666666663</ele><time>2026-04-11T13:09:58.001Z</time></trkpt><trkpt lat="43.75756649774107" lon="11.448596903282416"><ele>280.0</ele><time>2026-04-11T13:09:59.001Z</time></trkpt><trkpt lat="43.75768571247384" lon="11.448422586810963"><ele>280.0</ele><time>2026-04-11T13:10:00.001Z</time></trkpt><trkpt lat="43.757806409956615" lon="11.448243599292857"><ele>280.0</ele><time>2026-04-11T13:10:01Z</time></trkpt><trkpt lat="43.75791981038452" lon="11.448081591438617"><ele>280.0</ele><time>2026-04-11T13:10:02Z</time></trkpt><trkpt lat="43.75803111911796" lon="11.44793541045612"><ele>280.0</ele><time>2026-04-11T13:10:03Z</time></trkpt><trkpt lat="43.7581472229489" lon="11.447811424596948"><ele>280.0</ele><time>2026-04-11T13:10:04Z</time></trkpt><trkpt lat="43.75827249275405" lon="11.447688858423106"><ele>280.0</ele><time>2026-04-11T13:10:05Z</time></trkpt><trkpt lat="43.758408939484966" lon="11.447564772395665"><ele>278.66666666666663</ele><time>2026-04-11T13:10:06Z</time></trkpt><trkpt lat="43.758538840986304" lon="11.447436098168371"><ele>277.3333333333333</ele><time>2026-04-11T13:10:07Z</time></trkpt><trkpt lat="43.7586632266258" lon="11.447320364737534"><ele>276.0</ele><time>2026-04-11T13:10:08Z</time></trkpt><trkpt lat="43.75878303678147" lon="11.447206657691224"><ele>274.0</ele><time>2026-04-11T13:10:09Z</time></trkpt><trkpt lat="43.75888825044066" lon="11.447093148313915"><ele>272.0</ele><time>2026-04-11T13:10:10Z</time></trkpt><trkpt lat="43.758977519260746" lon="11.446956039331686"><ele>270.0</ele><time>2026-04-11T13:10:11Z</time></trkpt><trkpt lat="43.75905319625364" lon="11.446826438651422"><ele>268.0</ele><time>2026-04-11T13:10:12Z</time></trkpt><trkpt lat="43.759108834613606" lon="11.44667557422004"><ele>268.0</ele><time>2026-04-11T13:10:13Z</time></trkpt><trkpt lat="43.75913711852606" lon="11.446495889834651"><ele>268.0</ele><time>2026-04-11T13:10:14Z</time></trkpt><trkpt lat="43.759151539177616" lon="11.446320556014438"><ele>268.0</ele><time>2026-04-11T13:10:15Z</time></trkpt><trkpt lat="43.759127232087884" lon="11.44614309179556"><ele>268.0</ele><time>2026-04-11T13:10:16Z</time></trkpt><trkpt lat="43.759067717145626" lon="11.445979395072555"><ele>266.5</ele><time>2026-04-11T13:10:17Z</time></trkpt><trkpt lat="43.75897518841525" lon="11.44583818862854"><ele>265.0</ele><time>2026-04-11T13:10:18Z</time></trkpt><trkpt lat="43.7588573649402" lon="11.445707460162453"><ele>263.5</ele><time>2026-04-11T13:10:19Z</time></trkpt><trkpt lat="43.75873602876718" lon="11.445576580559715"><ele>262.0</ele><time>2026-04-11T13:10:20Z</time></trkpt><trkpt lat="43.75861857889183" lon="11.445432056085291"><ele>259.5</ele><time>2026-04-11T13:10:21Z</time></trkpt><trkpt lat="43.7585072451552" lon="11.445292658723435"><ele>257.0</ele><time>2026-04-11T13:10:22Z</time></trkpt><trkpt lat="43.75839707128047" lon="11.445157889178263"><ele>254.5</ele><time>2026-04-11T13:10:23Z</time></trkpt><trkpt lat="43.75830141246069" lon="11.445026892426897"><ele>252.0</ele><time>2026-04-11T13:10:24Z</time></trkpt><trkpt lat="43.75821766550413" lon="11.444900884928657"><ele>252.0</ele><time>2026-04-11T13:10:25Z</time></trkpt><trkpt lat="43.75814825952135" lon="11.444744682453878"><ele>252.0</ele><time>2026-04-11T13:10:26Z</time></trkpt><trkpt lat="43.758099476595355" lon="11.444560640459335"><ele>252.0</ele><time>2026-04-11T13:10:27Z</time></trkpt><trkpt lat="43.758051027946394" lon="11.444347669136866"><ele>252.0</ele><time>2026-04-11T13:10:28Z</time></trkpt><trkpt lat="43.757992766223026" lon="11.44412475936047"><ele>249.0</ele><time>2026-04-11T13:10:29Z</time></trkpt><trkpt lat="43.75792887286344" lon="11.443914007902098"><ele>246.0</ele><time>2026-04-11T13:10:30Z</time></trkpt><trkpt lat="43.75786259105286" lon="11.44370835164606"><ele>243.0</ele><time>2026-04-11T13:10:31Z</time></trkpt><trkpt lat="43.757793530706216" lon="11.443512698562735"><ele>241.25</ele><time>2026-04-11T13:10:32Z</time></trkpt><trkpt lat="43.757724374174174" lon="11.443339436260144"><ele>239.5</ele><time>2026-04-11T13:10:33Z</time></trkpt><trkpt lat="43.757661918618005" lon="11.443196229192008"><ele>237.75</ele><time>2026-04-11T13:10:34Z</time></trkpt><trkpt lat="43.757634075348804" lon="11.44306308829796"><ele>236.0</ele><time>2026-04-11T13:10:35Z</time></trkpt><trkpt lat="43.75763758816961" lon="11.442930494555332"><ele>235.0</ele><time>2026-04-11T13:10:36Z</time></trkpt><trkpt lat="43.75768874503085" lon="11.442786297327618"><ele>234.0</ele><time>2026-04-11T13:10:37Z</time></trkpt><trkpt lat="43.75778853681819" lon="11.442651993623581"><ele>233.0</ele><time>2026-04-11T13:10:38Z</time></trkpt><trkpt lat="43.757909907595945" lon="11.44252639047197"><ele>232.0</ele><time>2026-04-11T13:10:39Z</time></trkpt><trkpt lat="43.75802263417188" lon="11.442387365640565"><ele>231.0</ele><time>2026-04-11T13:10:40Z</time></trkpt><trkpt lat="43.75813505296854" lon="11.442226516801403"><ele>230.0</ele><time>2026-04-11T13:10:41Z</time></trkpt><trkpt lat="43.758235867459575" lon="11.442047811460956"><ele>229.0</ele><time>2026-04-11T13:10:42Z</time></trkpt><trkpt lat="43.75831493646359" lon="11.44187133576371"><ele>227.5</ele><time>2026-04-11T13:10:43Z</time></trkpt><trkpt lat="43.75838680736475" lon="11.44168930970885"><ele>226.0</ele><time>2026-04-11T13:10:44Z</time></trkpt><trkpt lat="43.758454818828916" lon="11.44152777479659"><ele>224.5</ele><time>2026-04-11T13:10:45Z</time></trkpt><trkpt lat="43.758530009210304" lon="11.441398178948045"><ele>223.0</ele><time>2026-04-11T13:10:46Z</time></trkpt><trkpt lat="43.758618545661385" lon="11.441308502082137"><ele>220.5</ele><time>2026-04-11T13:10:47Z</time></trkpt><trkpt lat="43.75873223893486" lon="11.44126197354171"><ele>218.0</ele><time>2026-04-11T13:10:48Z</time></trkpt><trkpt lat="43.75886250930168" lon="11.441243755852918"><ele>215.5</ele><time>2026-04-11T13:10:49Z</time></trkpt><trkpt lat="43.75900380998848" lon="11.44124519374819"><ele>213.0</ele><time>2026-04-11T13:10:50Z</time></trkpt><trkpt lat="43.75913233587784" lon="11.441226508214033"><ele>213.0</ele><time>2026-04-11T13:10:51Z</time></trkpt><trkpt lat="43.759239257090016" lon="11.441180720938934"><ele>213.0</ele><time>2026-04-11T13:10:52Z</time></trkpt><trkpt lat="43.759334017102184" lon="11.441093953581202"><ele>213.0</ele><time>2026-04-11T13:10:53Z</time></trkpt><trkpt lat="43.75939406924567" lon="11.440949004710118"><ele>213.0</ele><time>2026-04-11T13:10:54Z</time></trkpt><trkpt lat="43.759394184998655" lon="11.440761865210412"><ele>213.33333333333331</ele><time>2026-04-11T13:10:55Z</time></trkpt><trkpt lat="43.75938030001556" lon="11.440563618001466"><ele>213.66666666666666</ele><time>2026-04-11T13:10:56Z</time></trkpt><trkpt lat="43.75945453504187" lon="11.440363653559322"><ele>214.0</ele><time>2026-04-11T13:10:57Z</time></trkpt><trkpt lat="43.759481658413144" lon="11.440108733574602"><ele>214.0</ele><time>2026-04-11T13:10:58Z</time></trkpt><trkpt lat="43.75950699083852" lon="11.439843773946636"><ele>214.0</ele><time>2026-04-11T13:10:59Z</time></trkpt><trkpt lat="43.75951904965601" lon="11.43959591301183"><ele>214.0</ele><time>2026-04-11T13:11:00Z</time></trkpt><trkpt lat="43.759539097939815" lon="11.43937196555932"><ele>211.66666666666666</ele><time>2026-04-11T13:11:01Z</time></trkpt><trkpt lat="43.75956392872842" lon="11.439146464701379"><ele>209.33333333333331</ele><time>2026-04-11T13:11:02Z</time></trkpt><trkpt lat="43.75958129169038" lon="11.438931664875549"><ele>207.0</ele><time>2026-04-11T13:11:02.999Z</time></trkpt><trkpt lat="43.75959121740229" lon="11.438733733753496"><ele>204.25</ele><time>2026-04-11T13:11:03.999Z</time></trkpt><trkpt lat="43.759606006813726" lon="11.438557703613318"><ele>201.5</ele><time>2026-04-11T13:11:04.999Z</time></trkpt><trkpt lat="43.7596562286617" lon="11.43840400901044"><ele>198.75</ele><time>2026-04-11T13:11:05.999Z</time></trkpt><trkpt lat="43.75972850322537" lon="11.438242894682043"><ele>196.0</ele><time>2026-04-11T13:11:06.999Z</time></trkpt><trkpt lat="43.759824886622006" lon="11.438093467032157"><ele>193.5</ele><time>2026-04-11T13:11:07.999Z</time></trkpt><trkpt lat="43.75990702807577" lon="11.437965322727194"><ele>191.0</ele><time>2026-04-11T13:11:08.999Z</time></trkpt><trkpt lat="43.75996710893638" lon="11.437811579672266"><ele>188.5</ele><time>2026-04-11T13:11:09.999Z</time></trkpt><trkpt lat="43.75999980970671" lon="11.437619746758507"><ele>186.0</ele><time>2026-04-11T13:11:10.999Z</time></trkpt><trkpt lat="43.75998946973002" lon="11.43742092193161"><ele>186.0</ele><time>2026-04-11T13:11:11.999Z</time></trkpt><trkpt lat="43.759952450721144" lon="11.437232923104546"><ele>186.0</ele><time>2026-04-11T13:11:12.999Z</time></trkpt><trkpt lat="43.75989726331338" lon="11.43704923533869"><ele>186.0</ele><time>2026-04-11T13:11:13.999Z</time></trkpt><trkpt lat="43.75984445988665" lon="11.436864486995606"><ele>186.0</ele><time>2026-04-11T13:11:14.999Z</time></trkpt><trkpt lat="43.7597964374831" lon="11.436660127753324"><ele>185.0</ele><time>2026-04-11T13:11:15.999Z</time></trkpt><trkpt lat="43.75974953458758" lon="11.436464924490416"><ele>184.0</ele><time>2026-04-11T13:11:16.999Z</time></trkpt><trkpt lat="43.75971656395297" lon="11.436278365549057"><ele>183.0</ele><time>2026-04-11T13:11:17.999Z</time></trkpt><trkpt lat="43.759715120743714" lon="11.436077555058935"><ele>182.0</ele><time>2026-04-11T13:11:18.999Z</time></trkpt><trkpt lat="43.759750414079384" lon="11.435867323624896"><ele>181.5</ele><time>2026-04-11T13:11:19.999Z</time></trkpt><trkpt lat="43.759756472035356" lon="11.435700885789652"><ele>181.0</ele><time>2026-04-11T13:11:20.999Z</time></trkpt><trkpt lat="43.75980485698306" lon="11.435517689996802"><ele>180.5</ele><time>2026-04-11T13:11:21.999Z</time></trkpt><trkpt lat="43.75987912566767" lon="11.435314082772479"><ele>180.0</ele><time>2026-04-11T13:11:22.999Z</time></trkpt><trkpt lat="43.75997388698708" lon="11.435106065021674"><ele>179.0</ele><time>2026-04-11T13:11:23.999Z</time></trkpt><trkpt lat="43.76006699438634" lon="11.434924734757988"><ele>178.0</ele><time>2026-04-11T13:11:24.999Z</time></trkpt><trkpt lat="43.760144000672824" lon="11.434755971388482"><ele>177.0</ele><time>2026-04-11T13:11:25.999Z</time></trkpt><trkpt lat="43.76021199178891" lon="11.434596737535436"><ele>176.0</ele><time>2026-04-11T13:11:26.999Z</time></trkpt><trkpt lat="43.760253218257944" lon="11.43441392899182"><ele>176.0</ele><time>2026-04-11T13:11:27.999Z</time></trkpt><trkpt lat="43.760255231990485" lon="11.434203796065955"><ele>176.0</ele><time>2026-04-11T13:11:28.999Z</time></trkpt><trkpt lat="43.760217106015276" lon="11.43398050457531"><ele>176.0</ele><time>2026-04-11T13:11:29.999Z</time></trkpt><trkpt lat="43.76017449583822" lon="11.43377753773392"><ele>173.25</ele><time>2026-04-11T13:11:30.999Z</time></trkpt><trkpt lat="43.760138049275255" lon="11.433584638346105"><ele>170.5</ele><time>2026-04-11T13:11:31.999Z</time></trkpt><trkpt lat="43.76010999821358" lon="11.433438111292121"><ele>167.75</ele><time>2026-04-11T13:11:32.999Z</time></trkpt><trkpt lat="43.76005379589425" lon="11.433291122281885"><ele>165.0</ele><time>2026-04-11T13:11:33.999Z</time></trkpt><trkpt lat="43.75997284285078" lon="11.433197194242702"><ele>165.0</ele><time>2026-04-11T13:11:34.999Z</time></trkpt><trkpt lat="43.759877278663275" lon="11.433188419560334"><ele>165.0</ele><time>2026-04-11T13:11:35.999Z</time></trkpt><trkpt lat="43.759733758546076" lon="11.433215353182531"><ele>165.0</ele><time>2026-04-11T13:11:36.999Z</time></trkpt><trkpt lat="43.7595937169541" lon="11.43323210913647"><ele>165.0</ele><time>2026-04-11T13:11:37.999Z</time></trkpt><trkpt lat="43.759455762544356" lon="11.433217785031465"><ele>163.0</ele><time>2026-04-11T13:11:38.999Z</time></trkpt><trkpt lat="43.759350876976725" lon="11.433337285126244"><ele>161.0</ele><time>2026-04-11T13:11:39.999Z</time></trkpt><trkpt lat="43.75924243714668" lon="11.433499825170415"><ele>159.0</ele><time>2026-04-11T13:11:40.999Z</time></trkpt><trkpt lat="43.75913367818602" lon="11.433646389420785"><ele>157.0</ele><time>2026-04-11T13:11:41.999Z</time></trkpt><trkpt lat="43.759036174081686" lon="11.433755327120341"><ele>157.0</ele><time>2026-04-11T13:11:42.999Z</time></trkpt><trkpt lat="43.75895369665915" lon="11.433825793232456"><ele>157.0</ele><time>2026-04-11T13:11:43.999Z</time></trkpt><trkpt lat="43.758868092290044" lon="11.433856403795609"><ele>157.0</ele><time>2026-04-11T13:11:44.999Z</time></trkpt><trkpt lat="43.75877301034419" lon="11.433815445998235"><ele>157.0</ele><time>2026-04-11T13:11:45.999Z</time></trkpt><trkpt lat="43.75870585207653" lon="11.433718641088975"><ele>157.0</ele><time>2026-04-11T13:11:46.999Z</time></trkpt><trkpt lat="43.758676436529406" lon="11.433587010525219"><ele>157.0</ele><time>2026-04-11T13:11:47.999Z</time></trkpt><trkpt lat="43.758680274313974" lon="11.433418107439964"><ele>157.0</ele><time>2026-04-11T13:11:48.999Z</time></trkpt><trkpt lat="43.75869437727825" lon="11.433230967121098"><ele>157.0</ele><time>2026-04-11T13:11:50Z</time></trkpt><trkpt lat="43.758693345597734" lon="11.43303502603733"><ele>157.0</ele><time>2026-04-11T13:11:51Z</time></trkpt><trkpt lat="43.758695635755785" lon="11.432818267419625"><ele>157.0</ele><time>2026-04-11T13:11:52Z</time></trkpt><trkpt lat="43.758695367723796" lon="11.432592259066011"><ele>157.0</ele><time>2026-04-11T13:11:53Z</time></trkpt><trkpt lat="43.75869252374865" lon="11.43239583044446"><ele>157.0</ele><time>2026-04-11T13:11:54Z</time></trkpt><trkpt lat="43.75869255847919" lon="11.432204651269124"><ele>157.0</ele><time>2026-04-11T13:11:55Z</time></trkpt><trkpt lat="43.758703242058424" lon="11.43202727720181"><ele>154.5</ele><time>2026-04-11T13:11:56Z</time></trkpt><trkpt lat="43.75872022959847" lon="11.431856928563208"><ele>152.0</ele><time>2026-04-11T13:11:57Z</time></trkpt><trkpt lat="43.758766038816866" lon="11.431703314000877"><ele>149.5</ele><time>2026-04-11T13:11:58Z</time></trkpt><trkpt lat="43.75884316339047" lon="11.431576041214722"><ele>147.0</ele><time>2026-04-11T13:11:59Z</time></trkpt><trkpt lat="43.75897965315863" lon="11.431491323715347"><ele>147.0</ele><time>2026-04-11T13:12:00Z</time></trkpt><trkpt lat="43.75913161611352" lon="11.431386416511172"><ele>147.0</ele><time>2026-04-11T13:12:01Z</time></trkpt><trkpt lat="43.75930096241835" lon="11.431256884031686"><ele>147.0</ele><time>2026-04-11T13:12:02Z</time></trkpt><trkpt lat="43.75946911830403" lon="11.431124428715998"><ele>144.33333333333334</ele><time>2026-04-11T13:12:03Z</time></trkpt><trkpt lat="43.75962433784689" lon="11.430995648707068"><ele>141.66666666666669</ele><time>2026-04-11T13:12:04Z</time></trkpt><trkpt lat="43.75977005041825" lon="11.430876329147724"><ele>139.0</ele><time>2026-04-11T13:12:05Z</time></trkpt><trkpt lat="43.759898013063534" lon="11.430749130802289"><ele>139.0</ele><time>2026-04-11T13:12:06Z</time></trkpt><trkpt lat="43.75998837283413" lon="11.430616606041324"><ele>139.0</ele><time>2026-04-11T13:12:07Z</time></trkpt><trkpt lat="43.76004065121969" lon="11.430497742181355"><ele>139.0</ele><time>2026-04-11T13:12:08Z</time></trkpt><trkpt lat="43.76007365903392" lon="11.430350929518132"><ele>139.0</ele><time>2026-04-11T13:12:09Z</time></trkpt><trkpt lat="43.760092308508334" lon="11.430157594168199"><ele>136.75</ele><time>2026-04-11T13:12:10Z</time></trkpt><trkpt lat="43.76011904996472" lon="11.429959548673375"><ele>134.5</ele><time>2026-04-11T13:12:11Z</time></trkpt><trkpt lat="43.760159181762205" lon="11.4297804327457"><ele>132.25</ele><time>2026-04-11T13:12:12Z</time></trkpt><trkpt lat="43.76021931790576" lon="11.429633551219968"><ele>130.0</ele><time>2026-04-11T13:12:13Z</time></trkpt><trkpt lat="43.76031020794833" lon="11.429490718466322"><ele>129.66666666666669</ele><time>2026-04-11T13:12:14Z</time></trkpt><trkpt lat="43.76043245010342" lon="11.429355917603635"><ele>129.33333333333334</ele><time>2026-04-11T13:12:15Z</time></trkpt><trkpt lat="43.76057852066856" lon="11.429236671887486"><ele>129.0</ele><time>2026-04-11T13:12:16Z</time></trkpt><trkpt lat="43.76073179649407" lon="11.429092378398632"><ele>129.0</ele><time>2026-04-11T13:12:17Z</time></trkpt><trkpt lat="43.76088383785678" lon="11.428928308372543"><ele>129.0</ele><time>2026-04-11T13:12:18Z</time></trkpt><trkpt lat="43.76102844406031" lon="11.428781174502493"><ele>129.0</ele><time>2026-04-11T13:12:19Z</time></trkpt><trkpt lat="43.76117140307525" lon="11.428632135848703"><ele>125.66666666666666</ele><time>2026-04-11T13:12:20Z</time></trkpt><trkpt lat="43.7613168916723" lon="11.428460049171727"><ele>122.33333333333333</ele><time>2026-04-11T13:12:21Z</time></trkpt><trkpt lat="43.76145324501789" lon="11.428279868057512"><ele>119.0</ele><time>2026-04-11T13:12:22Z</time></trkpt><trkpt lat="43.76157590925619" lon="11.428100182300314"><ele>116.33333333333333</ele><time>2026-04-11T13:12:23Z</time></trkpt><trkpt lat="43.761701556043015" lon="11.427912689890348"><ele>113.66666666666666</ele><time>2026-04-11T13:12:24Z</time></trkpt><trkpt lat="43.76182166438077" lon="11.427749625550007"><ele>111.0</ele><time>2026-04-11T13:12:25Z</time></trkpt><trkpt lat="43.761935610932014" lon="11.427599295618622"><ele>110.75</ele><time>2026-04-11T13:12:26Z</time></trkpt><trkpt lat="43.76204287998383" lon="11.427460435036082"><ele>110.5</ele><time>2026-04-11T13:12:27Z</time></trkpt><trkpt lat="43.76214431134768" lon="11.427342939523003"><ele>110.25</ele><time>2026-04-11T13:12:28Z</time></trkpt><trkpt lat="43.76224384317135" lon="11.427249509861776"><ele>110.0</ele><time>2026-04-11T13:12:29Z</time></trkpt><trkpt lat="43.7623535874932" lon="11.427195060048321"><ele>110.0</ele><time>2026-04-11T13:12:30Z</time></trkpt><trkpt lat="43.76248923593653" lon="11.427194702417024"><ele>110.0</ele><time>2026-04-11T13:12:31Z</time></trkpt><trkpt lat="43.76262277648152" lon="11.427239456186777"><ele>110.0</ele><time>2026-04-11T13:12:32Z</time></trkpt><trkpt lat="43.76277000004926" lon="11.427309917716075"><ele>110.0</ele><time>2026-04-11T13:12:33Z</time></trkpt><trkpt lat="43.76290913683498" lon="11.42735900076144"><ele>110.33333333333333</ele><time>2026-04-11T13:12:34Z</time></trkpt><trkpt lat="43.763062841718465" lon="11.427386403264174"><ele>110.66666666666666</ele><time>2026-04-11T13:12:35Z</time></trkpt><trkpt lat="43.763198448020766" lon="11.427357094648311"><ele>111.0</ele><time>2026-04-11T13:12:36Z</time></trkpt><trkpt lat="43.76336167896581" lon="11.427295393953491"><ele>113.0</ele><time>2026-04-11T13:12:37Z</time></trkpt><trkpt lat="43.76354581289194" lon="11.427191637809266"><ele>115.0</ele><time>2026-04-11T13:12:38Z</time></trkpt><trkpt lat="43.76374449961057" lon="11.427074318747692"><ele>117.0</ele><time>2026-04-11T13:12:39Z</time></trkpt><trkpt lat="43.76394204455417" lon="11.42696335832662"><ele>112.25</ele><time>2026-04-11T13:12:40Z</time></trkpt><trkpt lat="43.76386799607515" lon="11.427005579792786"><ele>107.5</ele><time>2026-04-11T13:12:41Z</time></trkpt><trkpt lat="43.764013095140655" lon="11.42692516410283"><ele>102.75</ele><time>2026-04-11T13:12:42Z</time></trkpt><trkpt lat="43.76416028353814" lon="11.426844017077293"><ele>98.0</ele><time>2026-04-11T13:12:43Z</time></trkpt><trkpt lat="43.76430173079338" lon="11.426754594732202"><ele>98.25</ele><time>2026-04-11T13:12:44Z</time></trkpt><trkpt lat="43.76443804926676" lon="11.426658124557932"><ele>98.5</ele><time>2026-04-11T13:12:45Z</time></trkpt><trkpt lat="43.76455717516163" lon="11.426544609583017"><ele>98.75</ele><time>2026-04-11T13:12:46Z</time></trkpt><trkpt lat="43.76465897744101" lon="11.42644340021363"><ele>99.0</ele><time>2026-04-11T13:12:47Z</time></trkpt><trkpt lat="43.764751201921015" lon="11.426359847272899"><ele>97.0</ele><time>2026-04-11T13:12:48Z</time></trkpt><trkpt lat="43.76483910407599" lon="11.426271973830067"><ele>95.0</ele><time>2026-04-11T13:12:49Z</time></trkpt><trkpt lat="43.76494560878189" lon="11.426169287233826"><ele>93.0</ele><time>2026-04-11T13:12:50Z</time></trkpt><trkpt lat="43.76504977971337" lon="11.42608058067809"><ele>91.0</ele><time>2026-04-11T13:12:51Z</time></trkpt><trkpt lat="43.765155604624454" lon="11.426004402354591"><ele>90.75</ele><time>2026-04-11T13:12:52Z</time></trkpt><trkpt lat="43.76527660698524" lon="11.425973560731935"><ele>90.5</ele><time>2026-04-11T13:12:52.999Z</time></trkpt><trkpt lat="43.765388157337064" lon="11.425989147845778"><ele>90.25</ele><time>2026-04-11T13:12:53.999Z</time></trkpt><trkpt lat="43.76548722300595" lon="11.426049507586828"><ele>90.0</ele><time>2026-04-11T13:12:54.999Z</time></trkpt><trkpt lat="43.765597152896056" lon="11.426137289541543"><ele>90.0</ele><time>2026-04-11T13:12:55.999Z</time></trkpt><trkpt lat="43.76571361816922" lon="11.426239957729067"><ele>90.0</ele><time>2026-04-11T13:12:56.999Z</time></trkpt><trkpt lat="43.76585005955967" lon="11.426311298235147"><ele>90.0</ele><time>2026-04-11T13:12:57.999Z</time></trkpt><trkpt lat="43.76600124169821" lon="11.426341385480868"><ele>90.0</ele><time>2026-04-11T13:12:58.999Z</time></trkpt><trkpt lat="43.766143558534864" lon="11.426338064762387"><ele>90.75</ele><time>2026-04-11T13:12:59.999Z</time></trkpt><trkpt lat="43.76627975744533" lon="11.42633227012829"><ele>91.5</ele><time>2026-04-11T13:13:00.999Z</time></trkpt><trkpt lat="43.76639981787824" lon="11.426362552493027"><ele>92.25</ele><time>2026-04-11T13:13:01.999Z</time></trkpt><trkpt lat="43.76650151024535" lon="11.426431994141657"><ele>93.0</ele><time>2026-04-11T13:13:02.999Z</time></trkpt><trkpt lat="43.76655110297611" lon="11.426594173465055"><ele>93.0</ele><time>2026-04-11T13:13:03.999Z</time></trkpt><trkpt lat="43.76660504544383" lon="11.426723851323402"><ele>93.0</ele><time>2026-04-11T13:13:04.999Z</time></trkpt><trkpt lat="43.76664400325878" lon="11.426855595688082"><ele>93.0</ele><time>2026-04-11T13:13:05.999Z</time></trkpt><trkpt lat="43.766681329597155" lon="11.426980078158522"><ele>93.0</ele><time>2026-04-11T13:13:06.999Z</time></trkpt><trkpt lat="43.76672378178109" lon="11.42709579065908"><ele>93.0</ele><time>2026-04-11T13:13:07.999Z</time></trkpt><trkpt lat="43.7667768359522" lon="11.427208263736139"><ele>94.2</ele><time>2026-04-11T13:13:08.999Z</time></trkpt><trkpt lat="43.76684939990911" lon="11.427315099607748"><ele>95.4</ele><time>2026-04-11T13:13:09.999Z</time></trkpt><trkpt lat="43.766946515556135" lon="11.427402930566753"><ele>96.60000000000001</ele><time>2026-04-11T13:13:10.999Z</time></trkpt><trkpt lat="43.76705205792968" lon="11.427464027781111"><ele>97.80000000000001</ele><time>2026-04-11T13:13:11.999Z</time></trkpt><trkpt lat="43.767151910471696" lon="11.427492731973757"><ele>99.0</ele><time>2026-04-11T13:13:12.999Z</time></trkpt><trkpt lat="43.767260058606254" lon="11.427490874437257"><ele>99.0</ele><time>2026-04-11T13:13:13.999Z</time></trkpt><trkpt lat="43.76735883991913" lon="11.42746158618224"><ele>99.0</ele><time>2026-04-11T13:13:14.999Z</time></trkpt><trkpt lat="43.76746004061806" lon="11.427417394868838"><ele>99.0</ele><time>2026-04-11T13:13:15.999Z</time></trkpt><trkpt lat="43.76757125376837" lon="11.427371456176182"><ele>99.0</ele><time>2026-04-11T13:13:16.999Z</time></trkpt><trkpt lat="43.76768270303443" lon="11.427322849789594"><ele>99.0</ele><time>2026-04-11T13:13:17.999Z</time></trkpt><trkpt lat="43.76779838791732" lon="11.427290728732384"><ele>97.80000000000001</ele><time>2026-04-11T13:13:18.999Z</time></trkpt><trkpt lat="43.76790921166357" lon="11.427254721449978"><ele>96.60000000000001</ele><time>2026-04-11T13:13:19.999Z</time></trkpt><trkpt lat="43.7680130106314" lon="11.427211076371487"><ele>95.4</ele><time>2026-04-11T13:13:20.999Z</time></trkpt><trkpt lat="43.76810307735234" lon="11.427136264059905"><ele>94.2</ele><time>2026-04-11T13:13:21.999Z</time></trkpt><trkpt lat="43.76817830438879" lon="11.42703282783441"><ele>93.0</ele><time>2026-04-11T13:13:22.999Z</time></trkpt><trkpt lat="43.76824621673153" lon="11.426915904809462"><ele>90.75</ele><time>2026-04-11T13:13:23.999Z</time></trkpt><trkpt lat="43.768297043112575" lon="11.426775306295188"><ele>88.5</ele><time>2026-04-11T13:13:24.999Z</time></trkpt><trkpt lat="43.76832768489217" lon="11.42661967596103"><ele>86.25</ele><time>2026-04-11T13:13:25.999Z</time></trkpt><trkpt lat="43.768339850512966" lon="11.42644868292979"><ele>84.0</ele><time>2026-04-11T13:13:26.999Z</time></trkpt><trkpt lat="43.76833072757873" lon="11.426281135131537"><ele>83.5</ele><time>2026-04-11T13:13:27.999Z</time></trkpt><trkpt lat="43.768322508980326" lon="11.426122699187134"><ele>83.0</ele><time>2026-04-11T13:13:28.999Z</time></trkpt><trkpt lat="43.7683220868563" lon="11.425952574532626"><ele>82.5</ele><time>2026-04-11T13:13:29.999Z</time></trkpt><trkpt lat="43.768358306757804" lon="11.425782170253662"><ele>82.0</ele><time>2026-04-11T13:13:30.999Z</time></trkpt><trkpt lat="43.7684185993167" lon="11.425642326644555"><ele>82.0</ele><time>2026-04-11T13:13:31.999Z</time></trkpt><trkpt lat="43.76849543613153" lon="11.425536016798254"><ele>82.0</ele><time>2026-04-11T13:13:32.999Z</time></trkpt><trkpt lat="43.76858212996364" lon="11.425454237807445"><ele>82.0</ele><time>2026-04-11T13:13:33.999Z</time></trkpt><trkpt lat="43.768688306866814" lon="11.425391347730196"><ele>82.0</ele><time>2026-04-11T13:13:34.999Z</time></trkpt><trkpt lat="43.76881386897647" lon="11.425358456010079"><ele>82.0</ele><time>2026-04-11T13:13:35.999Z</time></trkpt><trkpt lat="43.76894653084793" lon="11.425318854138652"><ele>82.0</ele><time>2026-04-11T13:13:36.999Z</time></trkpt><trkpt lat="43.76905612585366" lon="11.425261030060387"><ele>82.0</ele><time>2026-04-11T13:13:37.999Z</time></trkpt><trkpt lat="43.769153629204574" lon="11.425181628787472"><ele>82.0</ele><time>2026-04-11T13:13:38.999Z</time></trkpt><trkpt lat="43.76924630895522" lon="11.425089961386085"><ele>82.0</ele><time>2026-04-11T13:13:39.999Z</time></trkpt><trkpt lat="43.7693394388843" lon="11.424979002775736"><ele>82.0</ele><time>2026-04-11T13:13:40.999Z</time></trkpt><trkpt lat="43.76941921532241" lon="11.424869457488105"><ele>82.0</ele><time>2026-04-11T13:13:41.999Z</time></trkpt><trkpt lat="43.76948482020315" lon="11.424751993428137"><ele>82.0</ele><time>2026-04-11T13:13:42.999Z</time></trkpt><trkpt lat="43.7695358640303" lon="11.424631717277256"><ele>82.0</ele><time>2026-04-11T13:13:43.999Z</time></trkpt><trkpt lat="43.769587286772165" lon="11.424502951353375"><ele>81.8</ele><time>2026-04-11T13:13:44.999Z</time></trkpt><trkpt lat="43.76962977074393" lon="11.424374858972287"><ele>81.6</ele><time>2026-04-11T13:13:45.999Z</time></trkpt><trkpt lat="43.76966811956355" lon="11.424258140091537"><ele>81.39999999999999</ele><time>2026-04-11T13:13:46.999Z</time></trkpt><trkpt lat="43.76972078463396" lon="11.42415156621294"><ele>81.19999999999999</ele><time>2026-04-11T13:13:47.999Z</time></trkpt><trkpt lat="43.769763184521736" lon="11.424023531197717"><ele>81.0</ele><time>2026-04-11T13:13:48.999Z</time></trkpt><trkpt lat="43.769804168840736" lon="11.423898920572055"><ele>81.16666666666667</ele><time>2026-04-11T13:13:49.999Z</time></trkpt><trkpt lat="43.76984331673991" lon="11.423779893488389"><ele>81.33333333333333</ele><time>2026-04-11T13:13:50.999Z</time></trkpt><trkpt lat="43.76986436853659" lon="11.423660966131342"><ele>81.5</ele><time>2026-04-11T13:13:51.999Z</time></trkpt><trkpt lat="43.769906472502136" lon="11.423564351674846"><ele>81.66666666666666</ele><time>2026-04-11T13:13:52.999Z</time></trkpt><trkpt lat="43.76995491765876" lon="11.423482367716918"><ele>81.83333333333333</ele><time>2026-04-11T13:13:53.999Z</time></trkpt><trkpt lat="43.77000955323032" lon="11.423427844658223"><ele>82.0</ele><time>2026-04-11T13:13:54.999Z</time></trkpt><trkpt lat="43.77012786231465" lon="11.423489246984104"><ele>81.0</ele><time>2026-04-11T13:13:56Z</time></trkpt><trkpt lat="43.770234154674824" lon="11.423511364742096"><ele>80.0</ele><time>2026-04-11T13:13:57Z</time></trkpt><trkpt lat="43.770349650562984" lon="11.423563217015658"><ele>79.0</ele><time>2026-04-11T13:13:58Z</time></trkpt><trkpt lat="43.77046993413399" lon="11.423613647187281"><ele>78.0</ele><time>2026-04-11T13:13:59Z</time></trkpt><trkpt lat="43.770603393149564" lon="11.423671220974969"><ele>78.0</ele><time>2026-04-11T13:14:00Z</time></trkpt><trkpt lat="43.77074449066014" lon="11.423726942056517"><ele>78.0</ele><time>2026-04-11T13:14:01Z</time></trkpt><trkpt lat="43.770865044157816" lon="11.423775029931605"><ele>78.0</ele><time>2026-04-11T13:14:02Z</time></trkpt><trkpt lat="43.770973883870305" lon="11.42382266204205"><ele>78.0</ele><time>2026-04-11T13:14:03Z</time></trkpt><trkpt lat="43.77107698204375" lon="11.423863353252509"><ele>78.5</ele><time>2026-04-11T13:14:04Z</time></trkpt><trkpt lat="43.77116516400403" lon="11.423904603090097"><ele>79.0</ele><time>2026-04-11T13:14:05Z</time></trkpt><trkpt lat="43.77123768362026" lon="11.423936561812734"><ele>79.5</ele><time>2026-04-11T13:14:06Z</time></trkpt><trkpt lat="43.771297490090184" lon="11.423971192903046"><ele>80.0</ele><time>2026-04-11T13:14:07Z</time></trkpt><trkpt lat="43.77136376813807" lon="11.424012981441853"><ele>80.5</ele><time>2026-04-11T13:14:08Z</time></trkpt><trkpt lat="43.77142964745259" lon="11.424075256806372"><ele>81.0</ele><time>2026-04-11T13:14:10Z</time></trkpt><trkpt lat="43.771522199062645" lon="11.4238639262266"><ele>80.8</ele><time>2026-04-11T13:14:11Z</time></trkpt><trkpt lat="43.77155404850377" lon="11.423728393608284"><ele>80.6</ele><time>2026-04-11T13:14:12Z</time></trkpt><trkpt lat="43.77157642522227" lon="11.423589408920703"><ele>80.4</ele><time>2026-04-11T13:14:13Z</time></trkpt><trkpt lat="43.77161135036747" lon="11.423475312540932"><ele>80.2</ele><time>2026-04-11T13:14:14Z</time></trkpt><trkpt lat="43.77164880912949" lon="11.423365741114107"><ele>80.0</ele><time>2026-04-11T13:14:15Z</time></trkpt><trkpt lat="43.77167078175526" lon="11.423250080010716"><ele>80.0</ele><time>2026-04-11T13:14:16Z</time></trkpt><trkpt lat="43.77168979330647" lon="11.423138236325428"><ele>80.0</ele><time>2026-04-11T13:14:17Z</time></trkpt><trkpt lat="43.77171198703154" lon="11.423031712824772"><ele>80.0</ele><time>2026-04-11T13:14:18Z</time></trkpt><trkpt lat="43.771742908056616" lon="11.4229442771121"><ele>80.0</ele><time>2026-04-11T13:14:19Z</time></trkpt><trkpt lat="43.7717729399548" lon="11.422830433367528"><ele>80.0</ele><time>2026-04-11T13:14:20Z</time></trkpt><trkpt lat="43.77179260764597" lon="11.422700674827476"><ele>80.0</ele><time>2026-04-11T13:14:21Z</time></trkpt><trkpt lat="43.77179874173553" lon="11.422543719273422"><ele>80.0</ele><time>2026-04-11T13:14:22Z</time></trkpt><trkpt lat="43.7717861458292" lon="11.42238160708295"><ele>80.0</ele><time>2026-04-11T13:14:23Z</time></trkpt><trkpt lat="43.77176858767175" lon="11.422232628924187"><ele>80.0</ele><time>2026-04-11T13:14:24Z</time></trkpt><trkpt lat="43.77174958645566" lon="11.42210109486147"><ele>80.0</ele><time>2026-04-11T13:14:25Z</time></trkpt><trkpt lat="43.77174151261808" lon="11.421978501191253"><ele>80.0</ele><time>2026-04-11T13:14:26Z</time></trkpt><trkpt lat="43.77173507214235" lon="11.421852232981541"><ele>79.4</ele><time>2026-04-11T13:14:27Z</time></trkpt><trkpt lat="43.77171856206167" lon="11.421712926380302"><ele>78.8</ele><time>2026-04-11T13:14:28Z</time></trkpt><trkpt lat="43.77170876957226" lon="11.42158697751265"><ele>78.2</ele><time>2026-04-11T13:14:29Z</time></trkpt><trkpt lat="43.77171158865464" lon="11.421467690332406"><ele>77.6</ele><time>2026-04-11T13:14:30Z</time></trkpt><trkpt lat="43.771723904729924" lon="11.421337878946748"><ele>77.0</ele><time>2026-04-11T13:14:31Z</time></trkpt><trkpt lat="43.771755385348165" lon="11.421208745061561"><ele>77.0</ele><time>2026-04-11T13:14:32Z</time></trkpt><trkpt lat="43.77179356721726" lon="11.421084362146503"><ele>77.0</ele><time>2026-04-11T13:14:33Z</time></trkpt><trkpt lat="43.77183895847064" lon="11.420939486926585"><ele>77.0</ele><time>2026-04-11T13:14:34Z</time></trkpt><trkpt lat="43.77189131859065" lon="11.420786931436314"><ele>77.0</ele><time>2026-04-11T13:14:35Z</time></trkpt><trkpt lat="43.77194385138413" lon="11.420641714391065"><ele>77.75</ele><time>2026-04-11T13:14:36Z</time></trkpt><trkpt lat="43.772002766060666" lon="11.420478229354957"><ele>78.5</ele><time>2026-04-11T13:14:37Z</time></trkpt><trkpt lat="43.77205462935508" lon="11.420303238160233"><ele>79.25</ele><time>2026-04-11T13:14:38Z</time></trkpt><trkpt lat="43.772100443586076" lon="11.420133694136858"><ele>80.0</ele><time>2026-04-11T13:14:39Z</time></trkpt><trkpt lat="43.772135735002614" lon="11.41996289252346"><ele>80.0</ele><time>2026-04-11T13:14:40Z</time></trkpt><trkpt lat="43.77215488147439" lon="11.419803845167747"><ele>80.0</ele><time>2026-04-11T13:14:41Z</time></trkpt><trkpt lat="43.77216680539128" lon="11.41965600632581"><ele>80.0</ele><time>2026-04-11T13:14:42Z</time></trkpt><trkpt lat="43.77219190959903" lon="11.419507886748331"><ele>80.0</ele><time>2026-04-11T13:14:43Z</time></trkpt><trkpt lat="43.77223894511727" lon="11.419381658358182"><ele>80.0</ele><time>2026-04-11T13:14:44Z</time></trkpt><trkpt lat="43.77232138297817" lon="11.419292988371824"><ele>79.75</ele><time>2026-04-11T13:14:45Z</time></trkpt><trkpt lat="43.77242719150032" lon="11.419244631229994"><ele>79.5</ele><time>2026-04-11T13:14:46Z</time></trkpt><trkpt lat="43.77254056605762" lon="11.419210895688142"><ele>79.25</ele><time>2026-04-11T13:14:47Z</time></trkpt><trkpt lat="43.77265446301905" lon="11.419154414331409"><ele>79.0</ele><time>2026-04-11T13:14:48Z</time></trkpt><trkpt lat="43.772763639939164" lon="11.419062783180722"><ele>79.2</ele><time>2026-04-11T13:14:49Z</time></trkpt><trkpt lat="43.77285723708662" lon="11.418960337834472"><ele>79.4</ele><time>2026-04-11T13:14:50Z</time></trkpt><trkpt lat="43.77295330466762" lon="11.41886038057401"><ele>79.6</ele><time>2026-04-11T13:14:50.999Z</time></trkpt><trkpt lat="43.77304076830425" lon="11.418778694851856"><ele>79.8</ele><time>2026-04-11T13:14:51.999Z</time></trkpt><trkpt lat="43.77311579122532" lon="11.418701042943823"><ele>80.0</ele><time>2026-04-11T13:14:52.999Z</time></trkpt><trkpt lat="43.7731846259603" lon="11.418610521595976"><ele>80.0</ele><time>2026-04-11T13:14:53.999Z</time></trkpt><trkpt lat="43.77324105778317" lon="11.418491355520025"><ele>80.0</ele><time>2026-04-11T13:14:54.999Z</time></trkpt><trkpt lat="43.77328094918116" lon="11.418345541580972"><ele>80.0</ele><time>2026-04-11T13:14:55.999Z</time></trkpt><trkpt lat="43.77331986289085" lon="11.418181435897997"><ele>80.0</ele><time>2026-04-11T13:14:56.999Z</time></trkpt><trkpt lat="43.773365166298426" lon="11.418016019384977"><ele>80.0</ele><time>2026-04-11T13:14:57.999Z</time></trkpt><trkpt lat="43.77340548900087" lon="11.417866609198661"><ele>80.0</ele><time>2026-04-11T13:14:58.999Z</time></trkpt><trkpt lat="43.77344289584013" lon="11.417734445858812"><ele>80.0</ele><time>2026-04-11T13:14:59.999Z</time></trkpt><trkpt lat="43.77347897123486" lon="11.417618004291175"><ele>80.0</ele><time>2026-04-11T13:15:00.999Z</time></trkpt><trkpt lat="43.77351582198578" lon="11.417515309526003"><ele>80.0</ele><time>2026-04-11T13:15:01.999Z</time></trkpt><trkpt lat="43.77355035469401" lon="11.417403926041695"><ele>80.16666666666667</ele><time>2026-04-11T13:15:03.999Z</time></trkpt><trkpt lat="43.7736008497179" lon="11.41732863371092"><ele>80.33333333333334</ele><time>2026-04-11T13:15:07.999Z</time></trkpt><trkpt lat="43.77368289118671" lon="11.417351353576631"><ele>80.5</ele><time>2026-04-11T13:15:16.999Z</time></trkpt><trkpt lat="43.77375671872557" lon="11.417344430867741"><ele>80.66666666666667</ele><time>2026-04-11T13:15:18.999Z</time></trkpt><trkpt lat="43.7738673519145" lon="11.417264625527372"><ele>80.83333333333333</ele><time>2026-04-11T13:15:20.999Z</time></trkpt><trkpt lat="43.773919322064664" lon="11.417203524275656"><ele>81.0</ele><time>2026-04-11T13:15:21.999Z</time></trkpt><trkpt lat="43.77398188085129" lon="11.417134581980603"><ele>81.0</ele><time>2026-04-11T13:15:22.999Z</time></trkpt><trkpt lat="43.77406331511849" lon="11.41706314320415"><ele>81.0</ele><time>2026-04-11T13:15:23.999Z</time></trkpt><trkpt lat="43.77414812050054" lon="11.417026765867291"><ele>81.0</ele><time>2026-04-11T13:15:24.999Z</time></trkpt><trkpt lat="43.77422357088065" lon="11.417033673334476"><ele>81.0</ele><time>2026-04-11T13:15:25.999Z</time></trkpt><trkpt lat="43.77429219067167" lon="11.417065355374259"><ele>81.0</ele><time>2026-04-11T13:15:26.999Z</time></trkpt><trkpt lat="43.774355793748114" lon="11.417092447908473"><ele>81.0</ele><time>2026-04-11T13:15:27.999Z</time></trkpt><trkpt lat="43.774384215437934" lon="11.417200914349884"><ele>81.0</ele><time>2026-04-11T13:15:29.999Z</time></trkpt><trkpt lat="43.77437433082445" lon="11.417288858650966"><ele>81.0</ele><time>2026-04-11T13:15:30.999Z</time></trkpt><trkpt lat="43.774366006680985" lon="11.4173803152368"><ele>81.0</ele><time>2026-04-11T13:15:31.999Z</time></trkpt><trkpt lat="43.7743284858127" lon="11.417559193286221"><ele>81.0</ele><time>2026-04-11T13:15:33.999Z</time></trkpt><trkpt lat="43.774296720707994" lon="11.417645651429824"><ele>81.0</ele><time>2026-04-11T13:15:34.999Z</time></trkpt><trkpt lat="43.774279337385835" lon="11.417749216863182"><ele>81.0</ele><time>2026-04-11T13:15:35.999Z</time></trkpt><trkpt lat="43.77428803040742" lon="11.417862219721913"><ele>81.0</ele><time>2026-04-11T13:15:36.999Z</time></trkpt><trkpt lat="43.774330550517114" lon="11.417949142357346"><ele>81.0</ele><time>2026-04-11T13:15:37.999Z</time></trkpt><trkpt lat="43.774405676556825" lon="11.417983081723131"><ele>81.0</ele><time>2026-04-11T13:15:38.999Z</time></trkpt><trkpt lat="43.774483571010656" lon="11.417996044695425"><ele>81.0</ele><time>2026-04-11T13:15:39.999Z</time></trkpt><trkpt lat="43.774568377616376" lon="11.418022957125126"><ele>81.0</ele><time>2026-04-11T13:15:40.999Z</time></trkpt><trkpt lat="43.77465748132142" lon="11.418082034855804"><ele>81.0</ele><time>2026-04-11T13:15:41.999Z</time></trkpt><trkpt lat="43.774762261014196" lon="11.4181565891525"><ele>81.5</ele><time>2026-04-11T13:15:42.999Z</time></trkpt><trkpt lat="43.774877530952935" lon="11.418246562221603"><ele>82.0</ele><time>2026-04-11T13:15:43.999Z</time></trkpt><trkpt lat="43.77497566576385" lon="11.418333896586551"><ele>82.5</ele><time>2026-04-11T13:15:44.999Z</time></trkpt><trkpt lat="43.7750652699374" lon="11.418468511961722"><ele>83.0</ele><time>2026-04-11T13:15:45.999Z</time></trkpt><trkpt lat="43.7751672312432" lon="11.418633741024731"><ele>83.75</ele><time>2026-04-11T13:15:46.999Z</time></trkpt><trkpt lat="43.775271019909056" lon="11.418789664395014"><ele>84.5</ele><time>2026-04-11T13:15:47.999Z</time></trkpt><trkpt lat="43.775361337160476" lon="11.418912778845106"><ele>85.25</ele><time>2026-04-11T13:15:48.999Z</time></trkpt><trkpt lat="43.775462344840285" lon="11.41900410797326"><ele>86.0</ele><time>2026-04-11T13:15:49.999Z</time></trkpt><trkpt lat="43.77557896042144" lon="11.419074729601503"><ele>86.5</ele><time>2026-04-11T13:15:50.999Z</time></trkpt><trkpt lat="43.775716280478655" lon="11.419104799503737"><ele>87.0</ele><time>2026-04-11T13:15:51.999Z</time></trkpt><trkpt lat="43.775855197939265" lon="11.419112628290817"><ele>87.5</ele><time>2026-04-11T13:15:52.999Z</time></trkpt><trkpt lat="43.77599736181263" lon="11.419102192203285"><ele>88.0</ele><time>2026-04-11T13:15:53.999Z</time></trkpt><trkpt lat="43.77610669800673" lon="11.419080488278043"><ele>89.0</ele><time>2026-04-11T13:15:54.999Z</time></trkpt><trkpt lat="43.776280036537" lon="11.419099088454542"><ele>90.0</ele><time>2026-04-11T13:15:55.999Z</time></trkpt><trkpt lat="43.7764067574353" lon="11.419135435113281"><ele>91.0</ele><time>2026-04-11T13:15:56.999Z</time></trkpt><trkpt lat="43.77651515000798" lon="11.419085590728546"><ele>92.0</ele><time>2026-04-11T13:15:57.999Z</time></trkpt><trkpt lat="43.776595689865175" lon="11.419082007928479"><ele>92.0</ele><time>2026-04-11T13:15:58.999Z</time></trkpt><trkpt lat="43.7766755208342" lon="11.419087579660768"><ele>92.0</ele><time>2026-04-11T13:16:00.999Z</time></trkpt><trkpt lat="43.77674323604263" lon="11.41906331843595"><ele>92.0</ele><time>2026-04-11T13:16:05Z</time></trkpt><trkpt lat="43.776792009125366" lon="11.418942417155026"><ele>92.0</ele><time>2026-04-11T13:16:07Z</time></trkpt><trkpt lat="43.776795128874944" lon="11.418850657668397"><ele>92.0</ele><time>2026-04-11T13:16:08Z</time></trkpt><trkpt lat="43.77676824042354" lon="11.418747785024662"><ele>92.0</ele><time>2026-04-11T13:16:09Z</time></trkpt><trkpt lat="43.77671984028039" lon="11.418639767042068"><ele>91.8</ele><time>2026-04-11T13:16:10Z</time></trkpt><trkpt lat="43.7766711345255" lon="11.41852744100998"><ele>91.6</ele><time>2026-04-11T13:16:11Z</time></trkpt><trkpt lat="43.77662545525201" lon="11.418399245233791"><ele>91.39999999999999</ele><time>2026-04-11T13:16:12Z</time></trkpt><trkpt lat="43.776595285472396" lon="11.418263863722665"><ele>91.19999999999999</ele><time>2026-04-11T13:16:13Z</time></trkpt><trkpt lat="43.77659573375194" lon="11.418128903042648"><ele>91.0</ele><time>2026-04-11T13:16:14Z</time></trkpt><trkpt lat="43.776611787617185" lon="11.41796494257169"><ele>90.75</ele><time>2026-04-11T13:16:15Z</time></trkpt><trkpt lat="43.77662812184913" lon="11.417785141941126"><ele>90.5</ele><time>2026-04-11T13:16:16Z</time></trkpt><trkpt lat="43.77664655154125" lon="11.417589710932317"><ele>90.25</ele><time>2026-04-11T13:16:17Z</time></trkpt><trkpt lat="43.77665156206709" lon="11.417384012249748"><ele>90.0</ele><time>2026-04-11T13:16:18Z</time></trkpt><trkpt lat="43.77665196059412" lon="11.417148473881758"><ele>89.25</ele><time>2026-04-11T13:16:19Z</time></trkpt><trkpt lat="43.77665532684256" lon="11.416935254322222"><ele>88.5</ele><time>2026-04-11T13:16:20Z</time></trkpt><trkpt lat="43.776661450814196" lon="11.416742752385606"><ele>87.75</ele><time>2026-04-11T13:16:21Z</time></trkpt><trkpt lat="43.77666538514563" lon="11.416563688487786"><ele>87.0</ele><time>2026-04-11T13:16:22Z</time></trkpt><trkpt lat="43.77667835434572" lon="11.416394066138533"><ele>86.39999999999999</ele><time>2026-04-11T13:16:23Z</time></trkpt><trkpt lat="43.7766797846547" lon="11.416234930873392"><ele>85.8</ele><time>2026-04-11T13:16:24Z</time></trkpt><trkpt lat="43.77668911034678" lon="11.416111396068878"><ele>85.2</ele><time>2026-04-11T13:16:25Z</time></trkpt><trkpt lat="43.77670163775006" lon="11.41602348386616"><ele>84.6</ele><time>2026-04-11T13:16:26Z</time></trkpt><trkpt lat="43.77674180315029" lon="11.41591823066961"><ele>84.0</ele><time>2026-04-11T13:16:28Z</time></trkpt><trkpt lat="43.7767871439368" lon="11.415779009402632"><ele>84.0</ele><time>2026-04-11T13:16:30Z</time></trkpt><trkpt lat="43.77681854039585" lon="11.415616426902155"><ele>84.0</ele><time>2026-04-11T13:16:32Z</time></trkpt><trkpt lat="43.776872825698476" lon="11.415475172997262"><ele>84.0</ele><time>2026-04-11T13:16:34Z</time></trkpt><trkpt lat="43.77690973633635" lon="11.415404188742972"><ele>84.0</ele><time>2026-04-11T13:16:35Z</time></trkpt><trkpt lat="43.776947473897586" lon="11.415307582260398"><ele>84.0</ele><time>2026-04-11T13:16:36Z</time></trkpt><trkpt lat="43.77698602342216" lon="11.415204312079625"><ele>87.0</ele><time>2026-04-11T13:16:37Z</time></trkpt><trkpt lat="43.777023365394754" lon="11.415064149082955"><ele>90.0</ele><time>2026-04-11T13:16:38Z</time></trkpt><trkpt lat="43.77706101369072" lon="11.414932736896892"><ele>93.0</ele><time>2026-04-11T13:16:39Z</time></trkpt><trkpt lat="43.77710496134306" lon="11.414826711936197"><ele>96.0</ele><time>2026-04-11T13:16:40Z</time></trkpt><trkpt lat="43.7771651104248" lon="11.414715384212682"><ele>99.0</ele><time>2026-04-11T13:16:41Z</time></trkpt><trkpt lat="43.777240832779405" lon="11.414591193495225"><ele>99.0</ele><time>2026-04-11T13:16:42Z</time></trkpt><trkpt lat="43.77731129528894" lon="11.41447704974177"><ele>99.0</ele><time>2026-04-11T13:16:43Z</time></trkpt><trkpt lat="43.77738981982473" lon="11.414348546213583"><ele>99.0</ele><time>2026-04-11T13:16:44Z</time></trkpt><trkpt lat="43.777486298156305" lon="11.414238544718524"><ele>99.0</ele><time>2026-04-11T13:16:45Z</time></trkpt><trkpt lat="43.777558613642164" lon="11.414110995056118"><ele>99.0</ele><time>2026-04-11T13:16:46Z</time></trkpt><trkpt lat="43.77763961050588" lon="11.414004972472602"><ele>99.0</ele><time>2026-04-11T13:16:47Z</time></trkpt><trkpt lat="43.77768714979977" lon="11.413884837746268"><ele>99.0</ele><time>2026-04-11T13:16:48Z</time></trkpt><trkpt lat="43.777730072413036" lon="11.413738966546916"><ele>99.0</ele><time>2026-04-11T13:16:49Z</time></trkpt><trkpt lat="43.777751514607786" lon="11.413622309479145"><ele>99.0</ele><time>2026-04-11T13:16:50Z</time></trkpt><trkpt lat="43.777794704755685" lon="11.41340548382321"><ele>99.6</ele><time>2026-04-11T13:16:51.999Z</time></trkpt><trkpt lat="43.77782210309869" lon="11.413281987795958"><ele>100.2</ele><time>2026-04-11T13:16:52.999Z</time></trkpt><trkpt lat="43.77786870984822" lon="11.41314269601059"><ele>100.8</ele><time>2026-04-11T13:16:53.999Z</time></trkpt><trkpt lat="43.77790264963699" lon="11.413000142146636"><ele>101.39999999999999</ele><time>2026-04-11T13:16:54.999Z</time></trkpt><trkpt lat="43.777948587813526" lon="11.412870440547971"><ele>102.0</ele><time>2026-04-11T13:16:55.999Z</time></trkpt><trkpt lat="43.7779999297568" lon="11.41272640108123"><ele>102.0</ele><time>2026-04-11T13:16:56.999Z</time></trkpt><trkpt lat="43.778060341651944" lon="11.412597129107056"><ele>102.0</ele><time>2026-04-11T13:16:57.999Z</time></trkpt><trkpt lat="43.77812054408989" lon="11.41247985251066"><ele>102.0</ele><time>2026-04-11T13:16:58.999Z</time></trkpt><trkpt lat="43.77819133363562" lon="11.41238450507107"><ele>102.0</ele><time>2026-04-11T13:16:59.999Z</time></trkpt><trkpt lat="43.778261198875526" lon="11.412312614254922"><ele>102.0</ele><time>2026-04-11T13:17:00.999Z</time></trkpt><trkpt lat="43.778350660201404" lon="11.412257830439232"><ele>102.0</ele><time>2026-04-11T13:17:01.999Z</time></trkpt><trkpt lat="43.77845475558042" lon="11.41222199853154"><ele>102.0</ele><time>2026-04-11T13:17:02.999Z</time></trkpt><trkpt lat="43.77853299841876" lon="11.412219967607243"><ele>102.0</ele><time>2026-04-11T13:17:03.999Z</time></trkpt><trkpt lat="43.77862068661668" lon="11.412205485743456"><ele>102.0</ele><time>2026-04-11T13:17:04.999Z</time></trkpt><trkpt lat="43.77872987806862" lon="11.412180730364838"><ele>102.0</ele><time>2026-04-11T13:17:05.999Z</time></trkpt><trkpt lat="43.77882322638933" lon="11.412140081055442"><ele>101.0</ele><time>2026-04-11T13:17:06.999Z</time></trkpt><trkpt lat="43.77893142346349" lon="11.412141054671697"><ele>100.0</ele><time>2026-04-11T13:17:07.999Z</time></trkpt><trkpt lat="43.779068994320106" lon="11.412155205098214"><ele>99.0</ele><time>2026-04-11T13:17:09.999Z</time></trkpt><trkpt lat="43.77918484119876" lon="11.412288835100755"><ele>98.0</ele><time>2026-04-11T13:17:11.999Z</time></trkpt><trkpt lat="43.779249077712535" lon="11.412339834290849"><ele>103.0</ele><time>2026-04-11T13:17:12.999Z</time></trkpt><trkpt lat="43.77932745208042" lon="11.412479322090453"><ele>108.0</ele><time>2026-04-11T13:17:13.999Z</time></trkpt><trkpt lat="43.779404463798734" lon="11.412604312808874"><ele>113.0</ele><time>2026-04-11T13:17:14.999Z</time></trkpt><trkpt lat="43.77948269658936" lon="11.412742762530389"><ele>118.0</ele><time>2026-04-11T13:17:15.999Z</time></trkpt><trkpt lat="43.779562939027514" lon="11.412873742212435"><ele>118.0</ele><time>2026-04-11T13:17:16.999Z</time></trkpt><trkpt lat="43.779629640535234" lon="11.412977413675058"><ele>118.00000000000001</ele><time>2026-04-11T13:17:17.999Z</time></trkpt><trkpt lat="43.779698588834016" lon="11.413079229526767"><ele>118.00000000000001</ele><time>2026-04-11T13:17:19.999Z</time></trkpt><trkpt lat="43.7796511451277" lon="11.412968791589213"><ele>118.0</ele><time>2026-04-11T13:17:27.999Z</time></trkpt><trkpt lat="43.779578497509696" lon="11.412874803305886"><ele>118.0</ele><time>2026-04-11T13:17:29.999Z</time></trkpt><trkpt lat="43.779534826608554" lon="11.412806743105875"><ele>118.00000000000001</ele><time>2026-04-11T13:17:30.999Z</time></trkpt><trkpt lat="43.77951716754115" lon="11.412714668355166"><ele>118.0</ele><time>2026-04-11T13:17:31.999Z</time></trkpt><trkpt lat="43.77947000140932" lon="11.412644925123246"><ele>118.0</ele><time>2026-04-11T13:17:32.999Z</time></trkpt><trkpt lat="43.77940728920734" lon="11.412581102341852"><ele>118.0</ele><time>2026-04-11T13:17:34.999Z</time></trkpt><trkpt lat="43.77936359145382" lon="11.412489086366165"><ele>118.00000000000001</ele><time>2026-04-11T13:17:36.999Z</time></trkpt><trkpt lat="43.779269063171974" lon="11.41236740737553"><ele>118.0</ele><time>2026-04-11T13:17:38.999Z</time></trkpt><trkpt lat="43.779218920028065" lon="11.412293926647145"><ele>118.80000000000001</ele><time>2026-04-11T13:17:39.999Z</time></trkpt><trkpt lat="43.7791489849656" lon="11.412229142665598"><ele>119.60000000000001</ele><time>2026-04-11T13:17:40.999Z</time></trkpt><trkpt lat="43.77908982089854" lon="11.412172215923851"><ele>120.39999999999999</ele><time>2026-04-11T13:17:41.999Z</time></trkpt><trkpt lat="43.77900036928893" lon="11.412140435382279"><ele>121.19999999999999</ele><time>2026-04-11T13:17:43.999Z</time></trkpt><trkpt lat="43.77890753495015" lon="11.412140744811806"><ele>122.0</ele><time>2026-04-11T13:17:45.999Z</time></trkpt><trkpt lat="43.77876621394195" lon="11.41217386485746"><ele>118.66666666666666</ele><time>2026-04-11T13:17:47.999Z</time></trkpt><trkpt lat="43.778642201793204" lon="11.412122053250332"><ele>115.33333333333333</ele><time>2026-04-11T13:17:49.999Z</time></trkpt><trkpt lat="43.778552248269506" lon="11.412150862429595"><ele>112.0</ele><time>2026-04-11T13:17:51.999Z</time></trkpt><trkpt lat="43.77848888907579" lon="11.412175357188875"><ele>108.66666666666666</ele><time>2026-04-11T13:17:55.999Z</time></trkpt><trkpt lat="43.778555552113964" lon="11.412152310225064"><ele>105.33333333333333</ele><time>2026-04-11T13:18:05.999Z</time></trkpt><trkpt lat="43.77861712729613" lon="11.412130046814896"><ele>102.0</ele><time>2026-04-11T13:18:09Z</time></trkpt><trkpt lat="43.778659946955386" lon="11.411842693838373"><ele>101.19999999999999</ele><time>2026-04-11T13:18:11Z</time></trkpt><trkpt lat="43.778696843914865" lon="11.411711717859943"><ele>100.4</ele><time>2026-04-11T13:18:13Z</time></trkpt><trkpt lat="43.77880205009495" lon="11.411578759832672"><ele>99.6</ele><time>2026-04-11T13:18:15Z</time></trkpt><trkpt lat="43.77886528016198" lon="11.411487646718518"><ele>98.80000000000001</ele><time>2026-04-11T13:18:16Z</time></trkpt><trkpt lat="43.778936764941875" lon="11.411382573247574"><ele>98.0</ele><time>2026-04-11T13:18:17Z</time></trkpt><trkpt lat="43.77901146303361" lon="11.411290186192161"><ele>96.99999999999999</ele><time>2026-04-11T13:18:18Z</time></trkpt><trkpt lat="43.77908451102758" lon="11.4112091644501"><ele>96.0</ele><time>2026-04-11T13:18:19Z</time></trkpt><trkpt lat="43.77915187150414" lon="11.411143647430979"><ele>95.0</ele><time>2026-04-11T13:18:20Z</time></trkpt><trkpt lat="43.779217569764235" lon="11.411083398194188"><ele>94.0</ele><time>2026-04-11T13:18:21Z</time></trkpt><trkpt lat="43.7792768485244" lon="11.41103497236894"><ele>93.0</ele><time>2026-04-11T13:18:22Z</time></trkpt><trkpt lat="43.779369466044024" lon="11.410961659634667"><ele>92.0</ele><time>2026-04-11T13:18:24Z</time></trkpt><trkpt lat="43.779429182895946" lon="11.41089224178227"><ele>92.0</ele><time>2026-04-11T13:18:25Z</time></trkpt><trkpt lat="43.77951104719082" lon="11.410784686864448"><ele>92.0</ele><time>2026-04-11T13:18:26Z</time></trkpt><trkpt lat="43.7795900129976" lon="11.410657236745982"><ele>92.0</ele><time>2026-04-11T13:18:27Z</time></trkpt><trkpt lat="43.77966402780976" lon="11.41051144204898"><ele>92.0</ele><time>2026-04-11T13:18:28Z</time></trkpt><trkpt lat="43.77974742200907" lon="11.410383610737993"><ele>90.8</ele><time>2026-04-11T13:18:29Z</time></trkpt><trkpt lat="43.779820445988605" lon="11.410281531346227"><ele>89.6</ele><time>2026-04-11T13:18:30Z</time></trkpt><trkpt lat="43.77988893788378" lon="11.41018848142379"><ele>88.39999999999999</ele><time>2026-04-11T13:18:31Z</time></trkpt><trkpt lat="43.77996294304182" lon="11.410091813157221"><ele>87.19999999999999</ele><time>2026-04-11T13:18:32Z</time></trkpt><trkpt lat="43.780039318234" lon="11.409987306018305"><ele>86.0</ele><time>2026-04-11T13:18:33Z</time></trkpt><trkpt lat="43.780110223777875" lon="11.409897496807565"><ele>86.0</ele><time>2026-04-11T13:18:34Z</time></trkpt><trkpt lat="43.78016527026373" lon="11.409821385097608"><ele>86.0</ele><time>2026-04-11T13:18:35Z</time></trkpt><trkpt lat="43.78021794244479" lon="11.40971804609857"><ele>86.0</ele><time>2026-04-11T13:18:37Z</time></trkpt><trkpt lat="43.78024224608465" lon="11.409629562511014"><ele>86.0</ele><time>2026-04-11T13:18:50Z</time></trkpt><trkpt lat="43.78032129753132" lon="11.409571876397115"><ele>86.0</ele><time>2026-04-11T13:18:52.999Z</time></trkpt><trkpt lat="43.78025203329318" lon="11.409572710573508"><ele>86.0</ele><time>2026-04-11T13:18:55.999Z</time></trkpt><trkpt lat="43.780215903780565" lon="11.40969645187272"><ele>86.0</ele><time>2026-04-11T13:18:58.999Z</time></trkpt><trkpt lat="43.78016442495499" lon="11.40981377449193"><ele>86.0</ele><time>2026-04-11T13:19:00.999Z</time></trkpt><trkpt lat="43.78006859081284" lon="11.40994172996044"><ele>86.0</ele><time>2026-04-11T13:19:02.999Z</time></trkpt><trkpt lat="43.780003188258156" lon="11.410021950131394"><ele>86.0</ele><time>2026-04-11T13:19:03.999Z</time></trkpt><trkpt lat="43.779931489951615" lon="11.410113633330207"><ele>86.0</ele><time>2026-04-11T13:19:04.999Z</time></trkpt><trkpt lat="43.77987562601129" lon="11.410192627430455"><ele>86.0</ele><time>2026-04-11T13:19:05.999Z</time></trkpt><trkpt lat="43.77982147743492" lon="11.410270365662525"><ele>86.0</ele><time>2026-04-11T13:19:06.999Z</time></trkpt><trkpt lat="43.77977137692603" lon="11.410346457159708"><ele>86.0</ele><time>2026-04-11T13:19:07.999Z</time></trkpt><trkpt lat="43.77971694844305" lon="11.410427107718407"><ele>86.0</ele><time>2026-04-11T13:19:08.999Z</time></trkpt><trkpt lat="43.77965806903147" lon="11.410518487581061"><ele>86.0</ele><time>2026-04-11T13:19:09.999Z</time></trkpt><trkpt lat="43.7795970798062" lon="11.410617965032118"><ele>86.0</ele><time>2026-04-11T13:19:10.999Z</time></trkpt><trkpt lat="43.779538364833435" lon="11.410719247032812"><ele>87.0</ele><time>2026-04-11T13:19:11.999Z</time></trkpt><trkpt lat="43.779482701447904" lon="11.410815165215602"><ele>88.0</ele><time>2026-04-11T13:19:12.999Z</time></trkpt><trkpt lat="43.779432914738294" lon="11.410890524614306"><ele>89.0</ele><time>2026-04-11T13:19:13.999Z</time></trkpt><trkpt lat="43.77937094118705" lon="11.41094889145596"><ele>90.0</ele><time>2026-04-11T13:19:15.999Z</time></trkpt><trkpt lat="43.77935248852968" lon="11.410849679425306"><ele>91.0</ele><time>2026-04-11T13:19:17.999Z</time></trkpt><trkpt lat="43.77937125667266" lon="11.410753449510649"><ele>92.0</ele><time>2026-04-11T13:19:19.999Z</time></trkpt><trkpt lat="43.77935715401991" lon="11.41065825512451"><ele>90.39999999999999</ele><time>2026-04-11T13:19:22.999Z</time></trkpt><trkpt lat="43.77925654021078" lon="11.410569199043472"><ele>88.8</ele><time>2026-04-11T13:19:24.999Z</time></trkpt><trkpt lat="43.779193077892614" lon="11.410501099559061"><ele>87.2</ele><time>2026-04-11T13:19:26.999Z</time></trkpt><trkpt lat="43.77919776729889" lon="11.410346739075559"><ele>85.6</ele><time>2026-04-11T13:19:28.999Z</time></trkpt><trkpt lat="43.779234347617866" lon="11.410259164042072"><ele>84.0</ele><time>2026-04-11T13:19:29.999Z</time></trkpt><trkpt lat="43.77928525614989" lon="11.410174550134128"><ele>84.0</ele><time>2026-04-11T13:19:30.999Z</time></trkpt><trkpt lat="43.779340084368165" lon="11.410093392816279"><ele>84.0</ele><time>2026-04-11T13:19:31.999Z</time></trkpt><trkpt lat="43.77939585498377" lon="11.410002645491584"><ele>84.0</ele><time>2026-04-11T13:19:32.999Z</time></trkpt><trkpt lat="43.7794613231334" lon="11.409877014724689"><ele>84.0</ele><time>2026-04-11T13:19:33.999Z</time></trkpt><trkpt lat="43.779522830493086" lon="11.409737072763118"><ele>84.0</ele><time>2026-04-11T13:19:34.999Z</time></trkpt><trkpt lat="43.77958510600175" lon="11.40959892818012"><ele>84.0</ele><time>2026-04-11T13:19:35.999Z</time></trkpt><trkpt lat="43.77964612371738" lon="11.409465853434012"><ele>84.0</ele><time>2026-04-11T13:19:36.999Z</time></trkpt><trkpt lat="43.779705892022356" lon="11.40933811842867"><ele>84.0</ele><time>2026-04-11T13:19:37.999Z</time></trkpt><trkpt lat="43.779753232356114" lon="11.409226263440308"><ele>84.0</ele><time>2026-04-11T13:19:38.999Z</time></trkpt><trkpt lat="43.77980702256482" lon="11.409122446618424"><ele>84.0</ele><time>2026-04-11T13:19:39.999Z</time></trkpt><trkpt lat="43.779861826395646" lon="11.409001947982599"><ele>84.0</ele><time>2026-04-11T13:19:40.999Z</time></trkpt><trkpt lat="43.77990215568259" lon="11.408892160802365"><ele>84.0</ele><time>2026-04-11T13:19:41.999Z</time></trkpt><trkpt lat="43.77995718563797" lon="11.408782787226933"><ele>84.0</ele><time>2026-04-11T13:19:42.999Z</time></trkpt><trkpt lat="43.780011433747866" lon="11.408677826929631"><ele>84.0</ele><time>2026-04-11T13:19:43.999Z</time></trkpt><trkpt lat="43.78005933483051" lon="11.40857805004112"><ele>84.0</ele><time>2026-04-11T13:19:44.999Z</time></trkpt><trkpt lat="43.780097368350845" lon="11.408474118694013"><ele>84.0</ele><time>2026-04-11T13:19:45.999Z</time></trkpt><trkpt lat="43.78011515572938" lon="11.408389493957081"><ele>84.0</ele><time>2026-04-11T13:19:46.999Z</time></trkpt><trkpt lat="43.780116998060294" lon="11.408288160461352"><ele>84.0</ele><time>2026-04-11T13:19:48.999Z</time></trkpt><trkpt lat="43.78017101441311" lon="11.408198440250883"><ele>84.0</ele><time>2026-04-11T13:19:51.999Z</time></trkpt><trkpt lat="43.78024280375219" lon="11.40813429546895"><ele>84.0</ele><time>2026-04-11T13:19:52.999Z</time></trkpt><trkpt lat="43.780321791760755" lon="11.408051526670748"><ele>84.0</ele><time>2026-04-11T13:19:53.999Z</time></trkpt><trkpt lat="43.78041678903566" lon="11.407973218315526"><ele>83.75</ele><time>2026-04-11T13:19:54.999Z</time></trkpt><trkpt lat="43.780510250036635" lon="11.407877270607734"><ele>83.5</ele><time>2026-04-11T13:19:55.999Z</time></trkpt><trkpt lat="43.780613550530134" lon="11.407776789584366"><ele>83.25</ele><time>2026-04-11T13:19:56.999Z</time></trkpt><trkpt lat="43.780718053157635" lon="11.407682986523247"><ele>83.0</ele><time>2026-04-11T13:19:57.999Z</time></trkpt><trkpt lat="43.780803843280275" lon="11.40759524617381"><ele>83.0</ele><time>2026-04-11T13:19:58.999Z</time></trkpt><trkpt lat="43.78088860844911" lon="11.407511838273"><ele>83.0</ele><time>2026-04-11T13:19:59.999Z</time></trkpt><trkpt lat="43.78098006032666" lon="11.407427546425435"><ele>83.0</ele><time>2026-04-11T13:20:00.999Z</time></trkpt><trkpt lat="43.78107000815555" lon="11.4073426635171"><ele>83.0</ele><time>2026-04-11T13:20:01.999Z</time></trkpt><trkpt lat="43.78116398395084" lon="11.4072556530328"><ele>83.0</ele><time>2026-04-11T13:20:02.999Z</time></trkpt><trkpt lat="43.781264952937086" lon="11.407167280124364"><ele>83.0</ele><time>2026-04-11T13:20:03.999Z</time></trkpt><trkpt lat="43.78137663141276" lon="11.40707353934914"><ele>83.0</ele><time>2026-04-11T13:20:04.999Z</time></trkpt><trkpt lat="43.78149075120712" lon="11.406985726854735"><ele>83.0</ele><time>2026-04-11T13:20:05.999Z</time></trkpt><trkpt lat="43.78160821312389" lon="11.406903467390153"><ele>83.0</ele><time>2026-04-11T13:20:06.999Z</time></trkpt><trkpt lat="43.7817283556887" lon="11.4068200102118"><ele>83.0</ele><time>2026-04-11T13:20:07.999Z</time></trkpt><trkpt lat="43.781858101572745" lon="11.406736030115646"><ele>83.0</ele><time>2026-04-11T13:20:08.999Z</time></trkpt><trkpt lat="43.78199014951408" lon="11.406652137761187"><ele>83.0</ele><time>2026-04-11T13:20:09.999Z</time></trkpt><trkpt lat="43.78213340279466" lon="11.406583339519337"><ele>83.0</ele><time>2026-04-11T13:20:10.999Z</time></trkpt><trkpt lat="43.78231350950313" lon="11.406550870947914"><ele>83.0</ele><time>2026-04-11T13:20:11.998Z</time></trkpt><trkpt lat="43.78237160075354" lon="11.406393312572465"><ele>83.0</ele><time>2026-04-11T13:20:12.998Z</time></trkpt><trkpt lat="43.782486624718764" lon="11.406260619232576"><ele>83.0</ele><time>2026-04-11T13:20:14Z</time></trkpt><trkpt lat="43.782583491180596" lon="11.40611020644166"><ele>83.0</ele><time>2026-04-11T13:20:15Z</time></trkpt><trkpt lat="43.782673029680616" lon="11.40592823999298"><ele>83.33333333333334</ele><time>2026-04-11T13:20:16Z</time></trkpt><trkpt lat="43.78276959646239" lon="11.405742109414314"><ele>83.66666666666667</ele><time>2026-04-11T13:20:17Z</time></trkpt><trkpt lat="43.78287469925541" lon="11.405556272455723"><ele>84.0</ele><time>2026-04-11T13:20:18Z</time></trkpt><trkpt lat="43.782967271982926" lon="11.405347006608329"><ele>84.33333333333333</ele><time>2026-04-11T13:20:19Z</time></trkpt><trkpt lat="43.78306110229787" lon="11.405139558670777"><ele>84.66666666666666</ele><time>2026-04-11T13:20:20Z</time></trkpt><trkpt lat="43.783151594570064" lon="11.404936246349092"><ele>85.0</ele><time>2026-04-11T13:20:21Z</time></trkpt><trkpt lat="43.78323758800006" lon="11.40472961853241"><ele>84.33333333333333</ele><time>2026-04-11T13:20:22Z</time></trkpt><trkpt lat="43.78332087280257" lon="11.404522994333178"><ele>83.66666666666667</ele><time>2026-04-11T13:20:23Z</time></trkpt><trkpt lat="43.78340538570177" lon="11.404321113857451"><ele>83.0</ele><time>2026-04-11T13:20:24Z</time></trkpt><trkpt lat="43.783495443561584" lon="11.404124567206175"><ele>83.33333333333334</ele><time>2026-04-11T13:20:25Z</time></trkpt><trkpt lat="43.78358860478044" lon="11.403934722548213"><ele>83.66666666666667</ele><time>2026-04-11T13:20:26Z</time></trkpt><trkpt lat="43.78369277518062" lon="11.403755470754366"><ele>84.0</ele><time>2026-04-11T13:20:27Z</time></trkpt><trkpt lat="43.783805761828006" lon="11.403577108702487"><ele>84.0</ele><time>2026-04-11T13:20:28Z</time></trkpt><trkpt lat="43.78392082324303" lon="11.403395296578838"><ele>84.0</ele><time>2026-04-11T13:20:29Z</time></trkpt><trkpt lat="43.784035189201745" lon="11.403205190162328"><ele>84.0</ele><time>2026-04-11T13:20:30Z</time></trkpt><trkpt lat="43.78414756775456" lon="11.403018074458105"><ele>83.66666666666667</ele><time>2026-04-11T13:20:31Z</time></trkpt><trkpt lat="43.784252341783755" lon="11.402818461722278"><ele>83.33333333333334</ele><time>2026-04-11T13:20:32Z</time></trkpt><trkpt lat="43.784352005742726" lon="11.402629471736754"><ele>83.0</ele><time>2026-04-11T13:20:33Z</time></trkpt><trkpt lat="43.78443918806596" lon="11.402449324522692"><ele>83.0</ele><time>2026-04-11T13:20:34Z</time></trkpt><trkpt lat="43.784518009706865" lon="11.402275846714922"><ele>83.0</ele><time>2026-04-11T13:20:35Z</time></trkpt><trkpt lat="43.78457221735018" lon="11.40211487648104"><ele>83.0</ele><time>2026-04-11T13:20:36Z</time></trkpt><trkpt lat="43.78463478731818" lon="11.401976662732917"><ele>83.0</ele><time>2026-04-11T13:20:37Z</time></trkpt><trkpt lat="43.78469156690301" lon="11.40185996655007"><ele>83.0</ele><time>2026-04-11T13:20:38Z</time></trkpt><trkpt lat="43.78473131353862" lon="11.401763665164149"><ele>83.0</ele><time>2026-04-11T13:20:39Z</time></trkpt><trkpt lat="43.784767442771724" lon="11.401664562812854"><ele>83.0</ele><time>2026-04-11T13:20:40Z</time></trkpt><trkpt lat="43.78482238365957" lon="11.401544411924606"><ele>83.0</ele><time>2026-04-11T13:20:41Z</time></trkpt><trkpt lat="43.784868284386995" lon="11.401426985996949"><ele>83.0</ele><time>2026-04-11T13:20:42Z</time></trkpt><trkpt lat="43.784907794626825" lon="11.40132848217466"><ele>83.0</ele><time>2026-04-11T13:20:43Z</time></trkpt><trkpt lat="43.78496118371135" lon="11.401244809551219"><ele>83.0</ele><time>2026-04-11T13:20:45Z</time></trkpt><trkpt lat="43.78483342752911" lon="11.401137332885293"><ele>83.0</ele><time>2026-04-11T13:20:47Z</time></trkpt><trkpt lat="43.78479039196601" lon="11.401300088471421"><ele>83.0</ele><time>2026-04-11T13:20:51Z</time></trkpt><trkpt lat="43.78473115977474" lon="11.40133016818079"><ele>83.0</ele><time>2026-04-11T13:21:02.999Z</time></trkpt><trkpt lat="43.78485430478618" lon="11.401323936328211"><ele>83.0</ele><time>2026-04-11T13:25:44Z</time></trkpt><trkpt lat="43.784899741765514" lon="11.401258584498699"><ele>83.0</ele><time>2026-04-11T13:25:46.999Z</time></trkpt><trkpt lat="43.784973111720284" lon="11.401188658694664"><ele>83.0</ele><time>2026-04-11T13:26:13.999Z</time></trkpt><trkpt lat="43.78505960401419" lon="11.401061390075379"><ele>83.0</ele><time>2026-04-11T13:26:15.999Z</time></trkpt><trkpt lat="43.785119719335455" lon="11.400960623220278"><ele>83.0</ele><time>2026-04-11T13:26:16.999Z</time></trkpt><trkpt lat="43.785182601846174" lon="11.400838467104375"><ele>82.80000000000001</ele><time>2026-04-11T13:26:17.999Z</time></trkpt><trkpt lat="43.78524231535026" lon="11.400713262209429"><ele>82.6</ele><time>2026-04-11T13:26:18.999Z</time></trkpt><trkpt lat="43.78529777576372" lon="11.400581157152104"><ele>82.4</ele><time>2026-04-11T13:26:19.999Z</time></trkpt><trkpt lat="43.78535129509465" lon="11.40045509907235"><ele>82.19999999999999</ele><time>2026-04-11T13:26:20.999Z</time></trkpt><trkpt lat="43.7854110016269" lon="11.400323205987636"><ele>82.0</ele><time>2026-04-11T13:26:21.999Z</time></trkpt><trkpt lat="43.78547152232257" lon="11.400187885196738"><ele>82.0</ele><time>2026-04-11T13:26:22.999Z</time></trkpt><trkpt lat="43.785534486736125" lon="11.400045547238449"><ele>82.0</ele><time>2026-04-11T13:26:23.999Z</time></trkpt><trkpt lat="43.785602460824556" lon="11.399901954777135"><ele>82.0</ele><time>2026-04-11T13:26:24.999Z</time></trkpt><trkpt lat="43.78567237402713" lon="11.399746724332038"><ele>82.0</ele><time>2026-04-11T13:26:25.999Z</time></trkpt><trkpt lat="43.785738764142266" lon="11.399590865035325"><ele>81.39999999999999</ele><time>2026-04-11T13:26:26.999Z</time></trkpt><trkpt lat="43.78579521759753" lon="11.399454217246431"><ele>80.8</ele><time>2026-04-11T13:26:27.999Z</time></trkpt><trkpt lat="43.785861351165146" lon="11.399336785836493"><ele>80.2</ele><time>2026-04-11T13:26:28.999Z</time></trkpt><trkpt lat="43.78591313977081" lon="11.399208423625598"><ele>79.6</ele><time>2026-04-11T13:26:29.999Z</time></trkpt><trkpt lat="43.78596260651908" lon="11.399081352878262"><ele>79.0</ele><time>2026-04-11T13:26:30.999Z</time></trkpt><trkpt lat="43.78602404573746" lon="11.39894635561217"><ele>79.0</ele><time>2026-04-11T13:26:32.001Z</time></trkpt><trkpt lat="43.786079565173495" lon="11.398823148886581"><ele>79.0</ele><time>2026-04-11T13:26:33.001Z</time></trkpt><trkpt lat="43.78612494331117" lon="11.398714055554667"><ele>79.0</ele><time>2026-04-11T13:26:34.001Z</time></trkpt><trkpt lat="43.78616573283711" lon="11.39860593627163"><ele>79.0</ele><time>2026-04-11T13:26:35.001Z</time></trkpt><trkpt lat="43.7862026038318" lon="11.398505047777196"><ele>79.0</ele><time>2026-04-11T13:26:36.001Z</time></trkpt><trkpt lat="43.786243898816316" lon="11.398417258578284"><ele>79.0</ele><time>2026-04-11T13:26:37.001Z</time></trkpt><trkpt lat="43.78626930860712" lon="11.398225482033554"><ele>79.0</ele><time>2026-04-11T13:26:39.001Z</time></trkpt><trkpt lat="43.78629529548316" lon="11.398134734249142"><ele>79.0</ele><time>2026-04-11T13:26:40.001Z</time></trkpt><trkpt lat="43.786333514119555" lon="11.398063907506836"><ele>79.0</ele><time>2026-04-11T13:26:41.001Z</time></trkpt><trkpt lat="43.786409399581444" lon="11.398007688964391"><ele>79.0</ele><time>2026-04-11T13:26:42.001Z</time></trkpt><trkpt lat="43.78646715104757" lon="11.397923303222575"><ele>79.0</ele><time>2026-04-11T13:26:43.001Z</time></trkpt><trkpt lat="43.78649366062741" lon="11.39779360544017"><ele>79.0</ele><time>2026-04-11T13:26:44.001Z</time></trkpt><trkpt lat="43.78653852704327" lon="11.397654637372225"><ele>78.75</ele><time>2026-04-11T13:26:45.001Z</time></trkpt><trkpt lat="43.7865962307067" lon="11.397526611071905"><ele>78.5</ele><time>2026-04-11T13:26:46.001Z</time></trkpt><trkpt lat="43.786671354771244" lon="11.397390978836947"><ele>78.25</ele><time>2026-04-11T13:26:47.001Z</time></trkpt><trkpt lat="43.78672663174327" lon="11.397256138627746"><ele>78.0</ele><time>2026-04-11T13:26:48Z</time></trkpt><trkpt lat="43.78677815335604" lon="11.397127450807476"><ele>78.0</ele><time>2026-04-11T13:26:49Z</time></trkpt><trkpt lat="43.78682460037867" lon="11.397011438237362"><ele>78.0</ele><time>2026-04-11T13:26:50Z</time></trkpt><trkpt lat="43.78687135355898" lon="11.396894660721717"><ele>78.0</ele><time>2026-04-11T13:26:51Z</time></trkpt><trkpt lat="43.786932646562846" lon="11.396742597669588"><ele>78.0</ele><time>2026-04-11T13:26:52Z</time></trkpt><trkpt lat="43.787002988818976" lon="11.396568221766257"><ele>78.0</ele><time>2026-04-11T13:26:53Z</time></trkpt><trkpt lat="43.787082000559785" lon="11.396373678470992"><ele>78.0</ele><time>2026-04-11T13:26:54Z</time></trkpt><trkpt lat="43.78716371923643" lon="11.39617225551053"><ele>78.0</ele><time>2026-04-11T13:26:55Z</time></trkpt><trkpt lat="43.787249563585185" lon="11.395960664004557"><ele>78.0</ele><time>2026-04-11T13:26:56Z</time></trkpt><trkpt lat="43.78732842141214" lon="11.395766292853748"><ele>78.0</ele><time>2026-04-11T13:26:57Z</time></trkpt><trkpt lat="43.7873981985878" lon="11.395594303878424"><ele>78.0</ele><time>2026-04-11T13:26:58Z</time></trkpt><trkpt lat="43.787464625764564" lon="11.39542900741989"><ele>78.0</ele><time>2026-04-11T13:26:59Z</time></trkpt><trkpt lat="43.78753341455149" lon="11.395271817225535"><ele>78.0</ele><time>2026-04-11T13:27:00Z</time></trkpt><trkpt lat="43.78762254667411" lon="11.395128440657643"><ele>78.0</ele><time>2026-04-11T13:27:01Z</time></trkpt><trkpt lat="43.78772848984769" lon="11.395007809169247"><ele>78.0</ele><time>2026-04-11T13:27:02Z</time></trkpt><trkpt lat="43.787836737666765" lon="11.394932128784886"><ele>78.0</ele><time>2026-04-11T13:27:03Z</time></trkpt><trkpt lat="43.787948038777756" lon="11.394853387987578"><ele>78.0</ele><time>2026-04-11T13:27:04Z</time></trkpt><trkpt lat="43.78803651288391" lon="11.39474127477706"><ele>78.0</ele><time>2026-04-11T13:27:05Z</time></trkpt><trkpt lat="43.78812865338363" lon="11.394684442207126"><ele>78.0</ele><time>2026-04-11T13:27:06Z</time></trkpt><trkpt lat="43.78822961636527" lon="11.394614147337919"><ele>78.0</ele><time>2026-04-11T13:27:07Z</time></trkpt><trkpt lat="43.78833310514931" lon="11.394551842818153"><ele>78.0</ele><time>2026-04-11T13:27:08Z</time></trkpt><trkpt lat="43.78840854237894" lon="11.394504929670063"><ele>78.0</ele><time>2026-04-11T13:27:09Z</time></trkpt><trkpt lat="43.788477251839076" lon="11.394466106073391"><ele>78.0</ele><time>2026-04-11T13:27:10Z</time></trkpt><trkpt lat="43.78856055382122" lon="11.394419885010379"><ele>78.0</ele><time>2026-04-11T13:27:11Z</time></trkpt><trkpt lat="43.78865323214242" lon="11.394347354494858"><ele>78.0</ele><time>2026-04-11T13:27:12Z</time></trkpt><trkpt lat="43.788748377220045" lon="11.394264565967552"><ele>78.0</ele><time>2026-04-11T13:27:13Z</time></trkpt><trkpt lat="43.78883781509911" lon="11.394190687725612"><ele>78.0</ele><time>2026-04-11T13:27:14Z</time></trkpt><trkpt lat="43.78891947778291" lon="11.394117916253874"><ele>78.0</ele><time>2026-04-11T13:27:15Z</time></trkpt><trkpt lat="43.789006278430705" lon="11.39405181496462"><ele>78.0</ele><time>2026-04-11T13:27:16Z</time></trkpt><trkpt lat="43.78911068329761" lon="11.394001602892418"><ele>78.0</ele><time>2026-04-11T13:27:17Z</time></trkpt><trkpt lat="43.78920303463025" lon="11.393938977927524"><ele>78.0</ele><time>2026-04-11T13:27:18Z</time></trkpt><trkpt lat="43.789303810745714" lon="11.393871861011364"><ele>78.2</ele><time>2026-04-11T13:27:19Z</time></trkpt><trkpt lat="43.78940466154464" lon="11.393798693748089"><ele>78.4</ele><time>2026-04-11T13:27:20Z</time></trkpt><trkpt lat="43.789492355520224" lon="11.393734394789611"><ele>78.60000000000001</ele><time>2026-04-11T13:27:21Z</time></trkpt><trkpt lat="43.78957709879563" lon="11.393661208355773"><ele>78.8</ele><time>2026-04-11T13:27:22Z</time></trkpt><trkpt lat="43.78965816872887" lon="11.393587373030131"><ele>79.0</ele><time>2026-04-11T13:27:23Z</time></trkpt><trkpt lat="43.78974069346305" lon="11.393516478964097"><ele>79.0</ele><time>2026-04-11T13:27:24Z</time></trkpt><trkpt lat="43.78981993662774" lon="11.393443238933854"><ele>79.0</ele><time>2026-04-11T13:27:25Z</time></trkpt><trkpt lat="43.78990126543848" lon="11.393347334894207"><ele>79.0</ele><time>2026-04-11T13:27:26Z</time></trkpt><trkpt lat="43.789979491407585" lon="11.393254666210028"><ele>79.0</ele><time>2026-04-11T13:27:27Z</time></trkpt><trkpt lat="43.79004825746884" lon="11.393167479716183"><ele>79.0</ele><time>2026-04-11T13:27:28Z</time></trkpt><trkpt lat="43.790118981806685" lon="11.393087733648334"><ele>78.4</ele><time>2026-04-11T13:27:28.999Z</time></trkpt><trkpt lat="43.79020489941332" lon="11.392999167720863"><ele>77.80000000000001</ele><time>2026-04-11T13:27:29.999Z</time></trkpt><trkpt lat="43.790299766223505" lon="11.392923201922658"><ele>77.19999999999999</ele><time>2026-04-11T13:27:30.999Z</time></trkpt><trkpt lat="43.7903891393498" lon="11.392865750597911"><ele>76.6</ele><time>2026-04-11T13:27:31.999Z</time></trkpt><trkpt lat="43.790480554222086" lon="11.392827363174726"><ele>76.0</ele><time>2026-04-11T13:27:32.999Z</time></trkpt><trkpt lat="43.790577137998554" lon="11.392797982184973"><ele>76.0</ele><time>2026-04-11T13:27:33.999Z</time></trkpt><trkpt lat="43.79067265580937" lon="11.392771722267495"><ele>76.0</ele><time>2026-04-11T13:27:34.999Z</time></trkpt><trkpt lat="43.79076338677902" lon="11.392745587224221"><ele>76.0</ele><time>2026-04-11T13:27:35.999Z</time></trkpt><trkpt lat="43.79084916781643" lon="11.392717386341292"><ele>76.0</ele><time>2026-04-11T13:27:36.999Z</time></trkpt><trkpt lat="43.79094860312959" lon="11.392685517318066"><ele>76.0</ele><time>2026-04-11T13:27:37.999Z</time></trkpt><trkpt lat="43.791051113216156" lon="11.39263901141809"><ele>76.2</ele><time>2026-04-11T13:27:38.999Z</time></trkpt><trkpt lat="43.79112975255319" lon="11.392565987301268"><ele>76.39999999999999</ele><time>2026-04-11T13:27:39.999Z</time></trkpt><trkpt lat="43.79119800512702" lon="11.392481161675487"><ele>76.6</ele><time>2026-04-11T13:27:40.999Z</time></trkpt><trkpt lat="43.79125289571973" lon="11.392376099901083"><ele>76.8</ele><time>2026-04-11T13:27:41.999Z</time></trkpt><trkpt lat="43.79128973025981" lon="11.39223786063663"><ele>77.0</ele><time>2026-04-11T13:27:42.999Z</time></trkpt><trkpt lat="43.791302390524315" lon="11.392095920683149"><ele>77.0</ele><time>2026-04-11T13:27:43.999Z</time></trkpt><trkpt lat="43.791299466511994" lon="11.391952843272987"><ele>77.0</ele><time>2026-04-11T13:27:44.999Z</time></trkpt><trkpt lat="43.79130793958343" lon="11.391818761793147"><ele>77.0</ele><time>2026-04-11T13:27:45.999Z</time></trkpt><trkpt lat="43.791304972551764" lon="11.39167926534089"><ele>77.0</ele><time>2026-04-11T13:27:46.999Z</time></trkpt><trkpt lat="43.791314402290624" lon="11.391538588994642"><ele>77.0</ele><time>2026-04-11T13:27:47.999Z</time></trkpt><trkpt lat="43.79133623433975" lon="11.391396914826762"><ele>76.5</ele><time>2026-04-11T13:27:48.999Z</time></trkpt><trkpt lat="43.79138446558689" lon="11.39125972577986"><ele>76.0</ele><time>2026-04-11T13:27:49.999Z</time></trkpt><trkpt lat="43.79145932145184" lon="11.391135290243552"><ele>75.5</ele><time>2026-04-11T13:27:50.999Z</time></trkpt><trkpt lat="43.79155731429961" lon="11.39102678989004"><ele>75.0</ele><time>2026-04-11T13:27:51.999Z</time></trkpt><trkpt lat="43.79164664131289" lon="11.390902518437356"><ele>75.0</ele><time>2026-04-11T13:27:52.999Z</time></trkpt><trkpt lat="43.79174319924872" lon="11.39081770920445"><ele>75.0</ele><time>2026-04-11T13:27:53.999Z</time></trkpt><trkpt lat="43.791836005743725" lon="11.390721597843857"><ele>75.0</ele><time>2026-04-11T13:27:54.999Z</time></trkpt><trkpt lat="43.79193544915861" lon="11.390603214674229"><ele>75.0</ele><time>2026-04-11T13:27:55.999Z</time></trkpt><trkpt lat="43.7920687424963" lon="11.390469486122704"><ele>75.33333333333333</ele><time>2026-04-11T13:27:56.999Z</time></trkpt><trkpt lat="43.7921987476209" lon="11.390287133343374"><ele>75.66666666666666</ele><time>2026-04-11T13:27:57.999Z</time></trkpt><trkpt lat="43.79229832147511" lon="11.390098897078747"><ele>76.0</ele><time>2026-04-11T13:27:58.999Z</time></trkpt><trkpt lat="43.792395563533766" lon="11.38997338361144"><ele>76.0</ele><time>2026-04-11T13:27:59.999Z</time></trkpt><trkpt lat="43.792462175454745" lon="11.389849423754368"><ele>76.0</ele><time>2026-04-11T13:28:00.999Z</time></trkpt><trkpt lat="43.79251724424789" lon="11.389780379024423"><ele>76.0</ele><time>2026-04-11T13:28:01.999Z</time></trkpt><trkpt lat="43.79258922258926" lon="11.3897063511679"><ele>76.0</ele><time>2026-04-11T13:28:24.999Z</time></trkpt><trkpt lat="43.79264080961842" lon="11.389654913978331"><ele>76.0</ele><time>2026-04-11T13:28:25.998Z</time></trkpt><trkpt lat="43.79275245539114" lon="11.389585883150914"><ele>76.0</ele><time>2026-04-11T13:28:27.998Z</time></trkpt><trkpt lat="43.792831868491895" lon="11.38962290147185"><ele>76.0</ele><time>2026-04-11T13:28:28.998Z</time></trkpt><trkpt lat="43.7929177279632" lon="11.389657293724163"><ele>76.0</ele><time>2026-04-11T13:28:29.998Z</time></trkpt><trkpt lat="43.793026636900876" lon="11.389697160212203"><ele>76.0</ele><time>2026-04-11T13:28:30.998Z</time></trkpt><trkpt lat="43.79314186832617" lon="11.389764820127276"><ele>76.0</ele><time>2026-04-11T13:28:31.998Z</time></trkpt><trkpt lat="43.79325521271556" lon="11.389827660023089"><ele>76.0</ele><time>2026-04-11T13:28:32.998Z</time></trkpt><trkpt lat="43.793356325990736" lon="11.389888823071589"><ele>76.0</ele><time>2026-04-11T13:28:33.998Z</time></trkpt><trkpt lat="43.79348435054994" lon="11.389979937061492"><ele>76.0</ele><time>2026-04-11T13:28:34.998Z</time></trkpt><trkpt lat="43.79360431949658" lon="11.390057000212657"><ele>76.0</ele><time>2026-04-11T13:28:35.998Z</time></trkpt><trkpt lat="43.79371791089085" lon="11.39011418104205"><ele>76.25</ele><time>2026-04-11T13:28:36.998Z</time></trkpt><trkpt lat="43.793845803914486" lon="11.390147943976105"><ele>76.5</ele><time>2026-04-11T13:28:37.999Z</time></trkpt><trkpt lat="43.7939873667513" lon="11.390151920612503"><ele>76.75</ele><time>2026-04-11T13:28:38.999Z</time></trkpt><trkpt lat="43.79414103848223" lon="11.39012116229702"><ele>77.0</ele><time>2026-04-11T13:28:39.999Z</time></trkpt><trkpt lat="43.794304794751305" lon="11.390066689592832"><ele>77.0</ele><time>2026-04-11T13:28:40.999Z</time></trkpt><trkpt lat="43.7944703052635" lon="11.390000409818091"><ele>77.0</ele><time>2026-04-11T13:28:41.999Z</time></trkpt><trkpt lat="43.79464050848686" lon="11.389938169514194"><ele>77.0</ele><time>2026-04-11T13:28:42.999Z</time></trkpt><trkpt lat="43.79480384258906" lon="11.389882393051424"><ele>77.0</ele><time>2026-04-11T13:28:43.999Z</time></trkpt><trkpt lat="43.79495612794669" lon="11.389838491602783"><ele>77.0</ele><time>2026-04-11T13:28:44.999Z</time></trkpt><trkpt lat="43.795092738871226" lon="11.389793399211314"><ele>77.0</ele><time>2026-04-11T13:28:45.999Z</time></trkpt><trkpt lat="43.79521405730817" lon="11.38973985775708"><ele>77.0</ele><time>2026-04-11T13:28:47Z</time></trkpt><trkpt lat="43.79531377140466" lon="11.389712871650605"><ele>76.8</ele><time>2026-04-11T13:28:48Z</time></trkpt><trkpt lat="43.79540493535589" lon="11.389691963395707"><ele>76.6</ele><time>2026-04-11T13:28:49Z</time></trkpt><trkpt lat="43.79549225951781" lon="11.389678062879835"><ele>76.39999999999999</ele><time>2026-04-11T13:28:50Z</time></trkpt><trkpt lat="43.79557534850516" lon="11.389650798392763"><ele>76.2</ele><time>2026-04-11T13:28:51Z</time></trkpt><trkpt lat="43.79565439657235" lon="11.38962913625806"><ele>76.0</ele><time>2026-04-11T13:28:52Z</time></trkpt><trkpt lat="43.79575677237147" lon="11.389600462606019"><ele>76.39999999999999</ele><time>2026-04-11T13:28:53Z</time></trkpt><trkpt lat="43.79586751407596" lon="11.389568006111947"><ele>76.8</ele><time>2026-04-11T13:28:54Z</time></trkpt><trkpt lat="43.79596255788032" lon="11.389535043186454"><ele>77.19999999999999</ele><time>2026-04-11T13:28:55Z</time></trkpt><trkpt lat="43.79604794114023" lon="11.389507342877028"><ele>77.6</ele><time>2026-04-11T13:28:56Z</time></trkpt><trkpt lat="43.79615430473246" lon="11.389484120070676"><ele>78.0</ele><time>2026-04-11T13:28:57Z</time></trkpt><trkpt lat="43.796269282631044" lon="11.389477090454273"><ele>78.0</ele><time>2026-04-11T13:28:58Z</time></trkpt><trkpt lat="43.79638869901209" lon="11.38948728234109"><ele>78.0</ele><time>2026-04-11T13:28:59Z</time></trkpt><trkpt lat="43.7965151225304" lon="11.389501014989525"><ele>78.0</ele><time>2026-04-11T13:28:59.999Z</time></trkpt><trkpt lat="43.79664580758742" lon="11.389511767769577"><ele>78.0</ele><time>2026-04-11T13:29:00.999Z</time></trkpt><trkpt lat="43.79677665513453" lon="11.389535624116464"><ele>78.0</ele><time>2026-04-11T13:29:01.999Z</time></trkpt><trkpt lat="43.79691299439588" lon="11.38958568025401"><ele>78.0</ele><time>2026-04-11T13:29:02.999Z</time></trkpt><trkpt lat="43.797052712687695" lon="11.389644555997306"><ele>78.0</ele><time>2026-04-11T13:29:03.999Z</time></trkpt><trkpt lat="43.797210504253925" lon="11.389676033827792"><ele>78.0</ele><time>2026-04-11T13:29:04.999Z</time></trkpt><trkpt lat="43.79736887574863" lon="11.389692769875879"><ele>79.0</ele><time>2026-04-11T13:29:05.999Z</time></trkpt><trkpt lat="43.79752386990908" lon="11.389717806058288"><ele>80.0</ele><time>2026-04-11T13:29:06.999Z</time></trkpt><trkpt lat="43.79768759267586" lon="11.3897305134975"><ele>81.0</ele><time>2026-04-11T13:29:07.999Z</time></trkpt><trkpt lat="43.797870264921656" lon="11.389750210212204"><ele>81.66666666666667</ele><time>2026-04-11T13:29:08.999Z</time></trkpt><trkpt lat="43.798050546933965" lon="11.389770745933902"><ele>82.33333333333334</ele><time>2026-04-11T13:29:09.999Z</time></trkpt><trkpt lat="43.798218030303026" lon="11.389808035986945"><ele>83.0</ele><time>2026-04-11T13:29:10.999Z</time></trkpt><trkpt lat="43.7983918390002" lon="11.38988101531327"><ele>82.66666666666667</ele><time>2026-04-11T13:29:11.999Z</time></trkpt><trkpt lat="43.7985638459428" lon="11.389991796107964"><ele>82.33333333333333</ele><time>2026-04-11T13:29:12.999Z</time></trkpt><trkpt lat="43.7987360010105" lon="11.390131020553651"><ele>82.0</ele><time>2026-04-11T13:29:13.999Z</time></trkpt><trkpt lat="43.79891607518417" lon="11.390263796260253"><ele>82.0</ele><time>2026-04-11T13:29:14.999Z</time></trkpt><trkpt lat="43.79910553868345" lon="11.390380548917964"><ele>82.0</ele><time>2026-04-11T13:29:15.999Z</time></trkpt><trkpt lat="43.79928379019887" lon="11.390481913909143"><ele>82.0</ele><time>2026-04-11T13:29:16.999Z</time></trkpt><trkpt lat="43.79945136498219" lon="11.390564267489047"><ele>87.66666666666666</ele><time>2026-04-11T13:29:17.999Z</time></trkpt><trkpt lat="43.79961724754324" lon="11.390629197292835"><ele>93.33333333333333</ele><time>2026-04-11T13:29:18.999Z</time></trkpt><trkpt lat="43.799786813892545" lon="11.390672177224824"><ele>99.0</ele><time>2026-04-11T13:29:19.999Z</time></trkpt><trkpt lat="43.799960622680935" lon="11.390678763246497"><ele>99.0</ele><time>2026-04-11T13:29:20.999Z</time></trkpt><trkpt lat="43.8001166547626" lon="11.3906621409382"><ele>99.0</ele><time>2026-04-11T13:29:21.999Z</time></trkpt><trkpt lat="43.800263306111034" lon="11.390625457575922"><ele>99.0</ele><time>2026-04-11T13:29:22.999Z</time></trkpt><trkpt lat="43.80040867327292" lon="11.390562027704307"><ele>97.66666666666667</ele><time>2026-04-11T13:29:23.999Z</time></trkpt><trkpt lat="43.80055229344573" lon="11.390454514323851"><ele>96.33333333333334</ele><time>2026-04-11T13:29:24.999Z</time></trkpt><trkpt lat="43.800689919466635" lon="11.390311617310303"><ele>95.0</ele><time>2026-04-11T13:29:25.999Z</time></trkpt><trkpt lat="43.80081528950032" lon="11.390176383300657"><ele>95.0</ele><time>2026-04-11T13:29:26.999Z</time></trkpt><trkpt lat="43.800916869034296" lon="11.390068252463275"><ele>95.0</ele><time>2026-04-11T13:29:27.999Z</time></trkpt><trkpt lat="43.80101586170619" lon="11.38997604842426"><ele>95.0</ele><time>2026-04-11T13:29:28.999Z</time></trkpt><trkpt lat="43.80112484882476" lon="11.389922907858182"><ele>95.0</ele><time>2026-04-11T13:29:29.999Z</time></trkpt><trkpt lat="43.801241224845434" lon="11.3898968371873"><ele>94.5</ele><time>2026-04-11T13:29:30.999Z</time></trkpt><trkpt lat="43.80134435768067" lon="11.389907359639245"><ele>94.0</ele><time>2026-04-11T13:29:31.999Z</time></trkpt><trkpt lat="43.80143325102707" lon="11.38998527362695"><ele>93.5</ele><time>2026-04-11T13:29:32.999Z</time></trkpt><trkpt lat="43.801550769537485" lon="11.390065759639064"><ele>93.0</ele><time>2026-04-11T13:29:33.999Z</time></trkpt><trkpt lat="43.80165648409555" lon="11.390141143007705"><ele>93.0</ele><time>2026-04-11T13:29:34.999Z</time></trkpt><trkpt lat="43.80178160056154" lon="11.390234897697416"><ele>93.0</ele><time>2026-04-11T13:29:35.999Z</time></trkpt><trkpt lat="43.80190610079513" lon="11.390342233947635"><ele>93.0</ele><time>2026-04-11T13:29:36.999Z</time></trkpt><trkpt lat="43.80203676851392" lon="11.390481678084441"><ele>92.75</ele><time>2026-04-11T13:29:37.999Z</time></trkpt><trkpt lat="43.80215626401032" lon="11.39058620257572"><ele>92.5</ele><time>2026-04-11T13:29:38.999Z</time></trkpt><trkpt lat="43.8022712537234" lon="11.390726650820843"><ele>92.25</ele><time>2026-04-11T13:29:39.999Z</time></trkpt><trkpt lat="43.80237034007846" lon="11.39086227656101"><ele>92.0</ele><time>2026-04-11T13:29:40.999Z</time></trkpt><trkpt lat="43.80244938955398" lon="11.3909651581679"><ele>92.0</ele><time>2026-04-11T13:29:41.999Z</time></trkpt><trkpt lat="43.80251422352429" lon="11.39101598422446"><ele>92.0</ele><time>2026-04-11T13:29:42.999Z</time></trkpt><trkpt lat="43.802579087156055" lon="11.391017851595322"><ele>92.0</ele><time>2026-04-11T13:29:43.999Z</time></trkpt><trkpt lat="43.8026711480763" lon="11.390985295739052"><ele>92.0</ele><time>2026-04-11T13:29:44.999Z</time></trkpt><trkpt lat="43.802780992320706" lon="11.39095022654903"><ele>92.0</ele><time>2026-04-11T13:29:45.999Z</time></trkpt><trkpt lat="43.80290844227873" lon="11.390934700652672"><ele>91.33333333333334</ele><time>2026-04-11T13:29:46.999Z</time></trkpt><trkpt lat="43.803059010094906" lon="11.39094848200626"><ele>90.66666666666667</ele><time>2026-04-11T13:29:47.999Z</time></trkpt><trkpt lat="43.8032312076983" lon="11.390976593117529"><ele>90.0</ele><time>2026-04-11T13:29:48.999Z</time></trkpt><trkpt lat="43.80342246579145" lon="11.391026080136621"><ele>90.66666666666667</ele><time>2026-04-11T13:29:49.999Z</time></trkpt><trkpt lat="43.80361964991131" lon="11.391114447133903"><ele>91.33333333333334</ele><time>2026-04-11T13:29:50.999Z</time></trkpt><trkpt lat="43.80382282755184" lon="11.391236424910288"><ele>92.0</ele><time>2026-04-11T13:29:51.999Z</time></trkpt><trkpt lat="43.804025149222454" lon="11.391404357478029"><ele>92.0</ele><time>2026-04-11T13:29:52.999Z</time></trkpt><trkpt lat="43.80421865784591" lon="11.391593770853378"><ele>92.0</ele><time>2026-04-11T13:29:53.999Z</time></trkpt><trkpt lat="43.80442485594116" lon="11.391789603772716"><ele>97.5</ele><time>2026-04-11T13:29:54.999Z</time></trkpt><trkpt lat="43.804635119705374" lon="11.391978734097687"><ele>103.0</ele><time>2026-04-11T13:29:55.999Z</time></trkpt><trkpt lat="43.80483212826638" lon="11.392159181087024"><ele>104.0</ele><time>2026-04-11T13:29:56.999Z</time></trkpt><trkpt lat="43.80502950171897" lon="11.392331848155864"><ele>105.0</ele><time>2026-04-11T13:29:57.999Z</time></trkpt><trkpt lat="43.805235189213214" lon="11.39249004585184"><ele>105.0</ele><time>2026-04-11T13:29:58.999Z</time></trkpt><trkpt lat="43.805449165233306" lon="11.392618755133727"><ele>105.0</ele><time>2026-04-11T13:29:59.999Z</time></trkpt><trkpt lat="43.80566407973355" lon="11.392715674469876"><ele>105.0</ele><time>2026-04-11T13:30:00.999Z</time></trkpt><trkpt lat="43.80590372566331" lon="11.392761631844522"><ele>105.0</ele><time>2026-04-11T13:30:01.999Z</time></trkpt><trkpt lat="43.806133835456116" lon="11.392824842637928"><ele>107.66666666666666</ele><time>2026-04-11T13:30:02.999Z</time></trkpt><trkpt lat="43.806351324241234" lon="11.392880408131596"><ele>110.33333333333333</ele><time>2026-04-11T13:30:03.999Z</time></trkpt><trkpt lat="43.80655167038217" lon="11.392935435253952"><ele>113.0</ele><time>2026-04-11T13:30:04.999Z</time></trkpt><trkpt lat="43.806755318966594" lon="11.392981043000448"><ele>112.66666666666666</ele><time>2026-04-11T13:30:05.999Z</time></trkpt><trkpt lat="43.80695475059173" lon="11.392997149161378"><ele>112.33333333333334</ele><time>2026-04-11T13:30:06.999Z</time></trkpt><trkpt lat="43.807155137779915" lon="11.392985259460442"><ele>112.0</ele><time>2026-04-11T13:30:07.999Z</time></trkpt><trkpt lat="43.807350886590086" lon="11.392955839921187"><ele>112.0</ele><time>2026-04-11T13:30:08.999Z</time></trkpt><trkpt lat="43.80752685120906" lon="11.392918628906196"><ele>112.0</ele><time>2026-04-11T13:30:09.999Z</time></trkpt><trkpt lat="43.807692963599386" lon="11.392902895230467"><ele>112.0</ele><time>2026-04-11T13:30:10.999Z</time></trkpt><trkpt lat="43.80785392185381" lon="11.39291726839309"><ele>110.66666666666667</ele><time>2026-04-11T13:30:11.998Z</time></trkpt><trkpt lat="43.80802993189793" lon="11.392983116817893"><ele>109.33333333333334</ele><time>2026-04-11T13:30:12.998Z</time></trkpt><trkpt lat="43.808206526766575" lon="11.393087134442254"><ele>108.0</ele><time>2026-04-11T13:30:13.998Z</time></trkpt><trkpt lat="43.80837789682547" lon="11.393240638134651"><ele>107.0</ele><time>2026-04-11T13:30:14.998Z</time></trkpt><trkpt lat="43.808545968828234" lon="11.39343564565396"><ele>106.0</ele><time>2026-04-11T13:30:15.998Z</time></trkpt><trkpt lat="43.808713493402884" lon="11.393644343258696"><ele>105.0</ele><time>2026-04-11T13:30:16.998Z</time></trkpt><trkpt lat="43.8088717208086" lon="11.393851438071483"><ele>105.0</ele><time>2026-04-11T13:30:17.998Z</time></trkpt><trkpt lat="43.80901194841217" lon="11.3940538399187"><ele>105.0</ele><time>2026-04-11T13:30:18.998Z</time></trkpt><trkpt lat="43.80913903683025" lon="11.394261269042431"><ele>105.0</ele><time>2026-04-11T13:30:19.998Z</time></trkpt><trkpt lat="43.80924760260192" lon="11.394476105862884"><ele>110.0</ele><time>2026-04-11T13:30:20.998Z</time></trkpt><trkpt lat="43.809345389051344" lon="11.394700451301924"><ele>115.0</ele><time>2026-04-11T13:30:21.998Z</time></trkpt><trkpt lat="43.80943312953736" lon="11.39495011368359"><ele>120.0</ele><time>2026-04-11T13:30:22.998Z</time></trkpt><trkpt lat="43.80950620013016" lon="11.395208633197534"><ele>116.0</ele><time>2026-04-11T13:30:23.998Z</time></trkpt><trkpt lat="43.80956877137591" lon="11.395504798785293"><ele>112.0</ele><time>2026-04-11T13:30:24.998Z</time></trkpt><trkpt lat="43.80960997095588" lon="11.395820575203025"><ele>112.0</ele><time>2026-04-11T13:30:25.998Z</time></trkpt><trkpt lat="43.80964868942259" lon="11.396131121181194"><ele>112.0</ele><time>2026-04-11T13:30:26.998Z</time></trkpt><trkpt lat="43.809690490552356" lon="11.396416729594051"><ele>112.0</ele><time>2026-04-11T13:30:27.998Z</time></trkpt><trkpt lat="43.80974528982425" lon="11.396692891781985"><ele>110.66666666666667</ele><time>2026-04-11T13:30:28.998Z</time></trkpt><trkpt lat="43.80982405357236" lon="11.396938375296502"><ele>109.33333333333334</ele><time>2026-04-11T13:30:29.998Z</time></trkpt><trkpt lat="43.809924574656414" lon="11.397159938050939"><ele>108.0</ele><time>2026-04-11T13:30:30.998Z</time></trkpt><trkpt lat="43.81004423817286" lon="11.397356445192798"><ele>109.0</ele><time>2026-04-11T13:30:31.998Z</time></trkpt><trkpt lat="43.81018875302653" lon="11.397530760559965"><ele>110.0</ele><time>2026-04-11T13:30:32.998Z</time></trkpt><trkpt lat="43.81036592512957" lon="11.397666010003284"><ele>111.0</ele><time>2026-04-11T13:30:33.998Z</time></trkpt><trkpt lat="43.81056544614376" lon="11.39775466312657"><ele>111.0</ele><time>2026-04-11T13:30:34.998Z</time></trkpt><trkpt lat="43.81078583520186" lon="11.397806908065801"><ele>111.0</ele><time>2026-04-11T13:30:35.998Z</time></trkpt><trkpt lat="43.81101454782957" lon="11.397839004184762"><ele>114.5</ele><time>2026-04-11T13:30:36.998Z</time></trkpt><trkpt lat="43.81125714862061" lon="11.397867105859168"><ele>118.0</ele><time>2026-04-11T13:30:37.998Z</time></trkpt><trkpt lat="43.811491973708044" lon="11.397893895486149"><ele>118.0</ele><time>2026-04-11T13:30:38.998Z</time></trkpt><trkpt lat="43.81171257709985" lon="11.397918771902297"><ele>118.0</ele><time>2026-04-11T13:30:39.998Z</time></trkpt><trkpt lat="43.811913129947904" lon="11.397943051941256"><ele>118.0</ele><time>2026-04-11T13:30:40.998Z</time></trkpt><trkpt lat="43.81210974648282" lon="11.397965667357974"><ele>116.66666666666667</ele><time>2026-04-11T13:30:41.998Z</time></trkpt><trkpt lat="43.81230570974023" lon="11.397976257851237"><ele>115.33333333333334</ele><time>2026-04-11T13:30:42.998Z</time></trkpt><trkpt lat="43.81249636371566" lon="11.39795436756197"><ele>114.0</ele><time>2026-04-11T13:30:43.999Z</time></trkpt><trkpt lat="43.81268732576479" lon="11.39789365815811"><ele>111.33333333333334</ele><time>2026-04-11T13:30:44.999Z</time></trkpt><trkpt lat="43.81285912205531" lon="11.397807563113313"><ele>108.66666666666667</ele><time>2026-04-11T13:30:45.999Z</time></trkpt><trkpt lat="43.81302739941202" lon="11.39770469919381"><ele>106.0</ele><time>2026-04-11T13:30:46.999Z</time></trkpt><trkpt lat="43.81319115779789" lon="11.397587491516934"><ele>106.0</ele><time>2026-04-11T13:30:47.999Z</time></trkpt><trkpt lat="43.81336016540651" lon="11.397432190218208"><ele>106.0</ele><time>2026-04-11T13:30:48.999Z</time></trkpt><trkpt lat="43.8135280981114" lon="11.397248902533214"><ele>106.0</ele><time>2026-04-11T13:30:49.999Z</time></trkpt><trkpt lat="43.81370042204526" lon="11.39706696691473"><ele>108.0</ele><time>2026-04-11T13:30:50.999Z</time></trkpt><trkpt lat="43.81388246582911" lon="11.396888404117979"><ele>110.0</ele><time>2026-04-11T13:30:51.999Z</time></trkpt><trkpt lat="43.81406724498996" lon="11.396703367750511"><ele>110.0</ele><time>2026-04-11T13:30:52.999Z</time></trkpt><trkpt lat="43.81425315113992" lon="11.396515314568463"><ele>110.0</ele><time>2026-04-11T13:30:53.999Z</time></trkpt><trkpt lat="43.81443638450131" lon="11.396325544239547"><ele>110.5</ele><time>2026-04-11T13:30:54.999Z</time></trkpt><trkpt lat="43.81462734352866" lon="11.396135567120526"><ele>111.0</ele><time>2026-04-11T13:30:55.999Z</time></trkpt><trkpt lat="43.81481952380895" lon="11.395937763841356"><ele>111.0</ele><time>2026-04-11T13:30:56.999Z</time></trkpt><trkpt lat="43.81500919677718" lon="11.395738881456479"><ele>111.0</ele><time>2026-04-11T13:30:57.999Z</time></trkpt><trkpt lat="43.81519647890903" lon="11.395538254338367"><ele>112.0</ele><time>2026-04-11T13:30:58.999Z</time></trkpt><trkpt lat="43.81538085157258" lon="11.395346052194506"><ele>113.0</ele><time>2026-04-11T13:30:59.999Z</time></trkpt><trkpt lat="43.81556152196064" lon="11.395164488873597"><ele>113.0</ele><time>2026-04-11T13:31:00.999Z</time></trkpt><trkpt lat="43.81572809204767" lon="11.395005544190536"><ele>113.0</ele><time>2026-04-11T13:31:01.999Z</time></trkpt><trkpt lat="43.8158944560879" lon="11.394829649365045"><ele>113.0</ele><time>2026-04-11T13:31:02.999Z</time></trkpt><trkpt lat="43.81606048535926" lon="11.394664853857831"><ele>113.66666666666666</ele><time>2026-04-11T13:31:03.999Z</time></trkpt><trkpt lat="43.816225063108995" lon="11.394514005359964"><ele>114.33333333333334</ele><time>2026-04-11T13:31:04.999Z</time></trkpt><trkpt lat="43.81638693753464" lon="11.394386357846189"><ele>115.0</ele><time>2026-04-11T13:31:05.999Z</time></trkpt><trkpt lat="43.816536027982664" lon="11.3942624816404"><ele>115.0</ele><time>2026-04-11T13:31:06.999Z</time></trkpt><trkpt lat="43.816668523896524" lon="11.394142444975454"><ele>115.0</ele><time>2026-04-11T13:31:07.999Z</time></trkpt><trkpt lat="43.81678418365777" lon="11.394047268165004"><ele>115.0</ele><time>2026-04-11T13:31:08.999Z</time></trkpt><trkpt lat="43.816906398960846" lon="11.393990704001936"><ele>115.0</ele><time>2026-04-11T13:31:09.999Z</time></trkpt><trkpt lat="43.81703757419128" lon="11.393958349671122"><ele>115.66666666666667</ele><time>2026-04-11T13:31:10.999Z</time></trkpt><trkpt lat="43.81718597379848" lon="11.39395138691115"><ele>116.33333333333334</ele><time>2026-04-11T13:31:11.999Z</time></trkpt><trkpt lat="43.817338516431306" lon="11.393951996890058"><ele>117.0</ele><time>2026-04-11T13:31:12.999Z</time></trkpt><trkpt lat="43.81752386611055" lon="11.393939470249093"><ele>117.33333333333334</ele><time>2026-04-11T13:31:13.999Z</time></trkpt><trkpt lat="43.81770204782754" lon="11.393934279018398"><ele>117.66666666666667</ele><time>2026-04-11T13:31:14.999Z</time></trkpt><trkpt lat="43.817865892659775" lon="11.393919174003289"><ele>118.0</ele><time>2026-04-11T13:31:15.999Z</time></trkpt><trkpt lat="43.818021657156756" lon="11.39386765917736"><ele>118.0</ele><time>2026-04-11T13:31:16.999Z</time></trkpt><trkpt lat="43.81817461214604" lon="11.393842328838995"><ele>118.0</ele><time>2026-04-11T13:31:17.999Z</time></trkpt><trkpt lat="43.81832650254664" lon="11.393810768869637"><ele>118.0</ele><time>2026-04-11T13:31:18.999Z</time></trkpt><trkpt lat="43.81846996589077" lon="11.393773506202924"><ele>117.0</ele><time>2026-04-11T13:31:19.999Z</time></trkpt><trkpt lat="43.818585714965714" lon="11.393335674210551"><ele>116.0</ele><time>2026-04-11T13:31:20.999Z</time></trkpt><trkpt lat="43.8187336030901" lon="11.393186276034838"><ele>116.0</ele><time>2026-04-11T13:31:21.999Z</time></trkpt><trkpt lat="43.81888711492047" lon="11.39302594890956"><ele>116.0</ele><time>2026-04-11T13:31:22.999Z</time></trkpt><trkpt lat="43.819031734868084" lon="11.392885676058821"><ele>116.0</ele><time>2026-04-11T13:31:23.999Z</time></trkpt><trkpt lat="43.81917482443506" lon="11.392756674279235"><ele>115.66666666666666</ele><time>2026-04-11T13:31:24.999Z</time></trkpt><trkpt lat="43.81933742740131" lon="11.392657385536163"><ele>115.33333333333334</ele><time>2026-04-11T13:31:25.999Z</time></trkpt><trkpt lat="43.81951882928196" lon="11.39259622741614"><ele>115.0</ele><time>2026-04-11T13:31:26.999Z</time></trkpt><trkpt lat="43.81970526697419" lon="11.39257085639898"><ele>115.0</ele><time>2026-04-11T13:31:27.999Z</time></trkpt><trkpt lat="43.81991082906833" lon="11.392542227639957"><ele>115.0</ele><time>2026-04-11T13:31:28.999Z</time></trkpt><trkpt lat="43.82011364008752" lon="11.392511130732938"><ele>115.0</ele><time>2026-04-11T13:31:29.999Z</time></trkpt><trkpt lat="43.82031955158318" lon="11.3924730401535"><ele>115.33333333333334</ele><time>2026-04-11T13:31:30.999Z</time></trkpt><trkpt lat="43.82051881710299" lon="11.39243490784643"><ele>115.66666666666666</ele><time>2026-04-11T13:31:31.999Z</time></trkpt><trkpt lat="43.820698082225626" lon="11.392408612427412"><ele>116.0</ele><time>2026-04-11T13:31:32.999Z</time></trkpt><trkpt lat="43.82087405016395" lon="11.39239255174854"><ele>116.33333333333333</ele><time>2026-04-11T13:31:33.999Z</time></trkpt><trkpt lat="43.82104777490099" lon="11.392378794553757"><ele>116.66666666666666</ele><time>2026-04-11T13:31:34.999Z</time></trkpt><trkpt lat="43.82122539729079" lon="11.392387388893232"><ele>117.0</ele><time>2026-04-11T13:31:35.999Z</time></trkpt><trkpt lat="43.8214201110606" lon="11.392394851851229"><ele>117.0</ele><time>2026-04-11T13:31:36.999Z</time></trkpt><trkpt lat="43.82161567103693" lon="11.392343446879801"><ele>117.0</ele><time>2026-04-11T13:31:37.999Z</time></trkpt><trkpt lat="43.821824343027274" lon="11.392251202140415"><ele>117.0</ele><time>2026-04-11T13:31:38.999Z</time></trkpt><trkpt lat="43.82202820710436" lon="11.392151965781474"><ele>117.66666666666666</ele><time>2026-04-11T13:31:39.999Z</time></trkpt><trkpt lat="43.82221733886721" lon="11.392024876691817"><ele>118.33333333333333</ele><time>2026-04-11T13:31:40.999Z</time></trkpt><trkpt lat="43.82239812237255" lon="11.391882392792247"><ele>119.0</ele><time>2026-04-11T13:31:41.999Z</time></trkpt><trkpt lat="43.82256139905904" lon="11.391750225180527"><ele>120.33333333333333</ele><time>2026-04-11T13:31:42.999Z</time></trkpt><trkpt lat="43.82271360141806" lon="11.391635029087658"><ele>121.66666666666666</ele><time>2026-04-11T13:31:43.999Z</time></trkpt><trkpt lat="43.8228800796953" lon="11.391553752792124"><ele>123.0</ele><time>2026-04-11T13:31:44.999Z</time></trkpt><trkpt lat="43.823051639355675" lon="11.391503570056171"><ele>123.0</ele><time>2026-04-11T13:31:45.999Z</time></trkpt><trkpt lat="43.823214548483115" lon="11.391462504320652"><ele>123.0</ele><time>2026-04-11T13:31:46.999Z</time></trkpt><trkpt lat="43.82336417327604" lon="11.391406963523139"><ele>123.0</ele><time>2026-04-11T13:31:47.999Z</time></trkpt><trkpt lat="43.82351340949877" lon="11.391312344064353"><ele>124.66666666666666</ele><time>2026-04-11T13:31:48.999Z</time></trkpt><trkpt lat="43.823650020978356" lon="11.391167915371133"><ele>126.33333333333333</ele><time>2026-04-11T13:31:49.999Z</time></trkpt><trkpt lat="43.823794036596134" lon="11.390991757580762"><ele>128.0</ele><time>2026-04-11T13:31:50.999Z</time></trkpt><trkpt lat="43.82394241374119" lon="11.390810038647539"><ele>128.0</ele><time>2026-04-11T13:31:51.999Z</time></trkpt><trkpt lat="43.8241085194963" lon="11.390619668623007"><ele>128.0</ele><time>2026-04-11T13:31:52.999Z</time></trkpt><trkpt lat="43.82428469651001" lon="11.390433855634956"><ele>128.0</ele><time>2026-04-11T13:31:53.999Z</time></trkpt><trkpt lat="43.8244596685964" lon="11.39025377511796"><ele>127.0</ele><time>2026-04-11T13:31:54.999Z</time></trkpt><trkpt lat="43.82463828107991" lon="11.39006644480194"><ele>126.0</ele><time>2026-04-11T13:31:55.999Z</time></trkpt><trkpt lat="43.82481518337919" lon="11.389881176028513"><ele>125.0</ele><time>2026-04-11T13:31:56.999Z</time></trkpt><trkpt lat="43.82498115504789" lon="11.389714157451605"><ele>125.66666666666666</ele><time>2026-04-11T13:31:57.999Z</time></trkpt><trkpt lat="43.82512767078034" lon="11.389577909048855"><ele>126.33333333333334</ele><time>2026-04-11T13:31:58.999Z</time></trkpt><trkpt lat="43.825273012842764" lon="11.389438866575775"><ele>127.0</ele><time>2026-04-11T13:31:59.999Z</time></trkpt><trkpt lat="43.82540461426598" lon="11.389321098861906"><ele>127.0</ele><time>2026-04-11T13:32:00.999Z</time></trkpt><trkpt lat="43.82551753737571" lon="11.389205579423969"><ele>127.0</ele><time>2026-04-11T13:32:01.999Z</time></trkpt><trkpt lat="43.82563207964419" lon="11.38903731504303"><ele>127.0</ele><time>2026-04-11T13:32:02.999Z</time></trkpt><trkpt lat="43.825738166557215" lon="11.388841826936082"><ele>127.66666666666667</ele><time>2026-04-11T13:32:03.999Z</time></trkpt><trkpt lat="43.82584627809048" lon="11.388642993222692"><ele>128.33333333333334</ele><time>2026-04-11T13:32:04.999Z</time></trkpt><trkpt lat="43.82596173002868" lon="11.388436354461186"><ele>129.0</ele><time>2026-04-11T13:32:05.999Z</time></trkpt><trkpt lat="43.826074720943375" lon="11.38822755208269"><ele>132.0</ele><time>2026-04-11T13:32:06.999Z</time></trkpt><trkpt lat="43.82619638781063" lon="11.388001354666278"><ele>135.0</ele><time>2026-04-11T13:32:07.999Z</time></trkpt><trkpt lat="43.826322127092055" lon="11.387776029249885"><ele>138.0</ele><time>2026-04-11T13:32:08.999Z</time></trkpt><trkpt lat="43.82645489816523" lon="11.387539181035507"><ele>138.0</ele><time>2026-04-11T13:32:09.999Z</time></trkpt><trkpt lat="43.82658875125857" lon="11.387296587731502"><ele>138.0</ele><time>2026-04-11T13:32:10.999Z</time></trkpt><trkpt lat="43.826728717239135" lon="11.387049070243817"><ele>138.0</ele><time>2026-04-11T13:32:11.998Z</time></trkpt><trkpt lat="43.826871694477326" lon="11.386797434042208"><ele>137.5</ele><time>2026-04-11T13:32:12.998Z</time></trkpt><trkpt lat="43.82701671362298" lon="11.386544934985462"><ele>137.0</ele><time>2026-04-11T13:32:13.998Z</time></trkpt><trkpt lat="43.82716074537459" lon="11.386285954099165"><ele>137.0</ele><time>2026-04-11T13:32:14.998Z</time></trkpt><trkpt lat="43.82729951741682" lon="11.386030143818495"><ele>137.0</ele><time>2026-04-11T13:32:15.998Z</time></trkpt><trkpt lat="43.82744371186052" lon="11.385767072101908"><ele>135.5</ele><time>2026-04-11T13:32:16.998Z</time></trkpt><trkpt lat="43.82759171584515" lon="11.385505755756794"><ele>134.0</ele><time>2026-04-11T13:32:17.998Z</time></trkpt><trkpt lat="43.82774873622996" lon="11.385229873886045"><ele>139.5</ele><time>2026-04-11T13:32:18.998Z</time></trkpt><trkpt lat="43.82790541817659" lon="11.384961351624634"><ele>145.0</ele><time>2026-04-11T13:32:19.998Z</time></trkpt><trkpt lat="43.828060223910526" lon="11.384695319538173"><ele>141.5</ele><time>2026-04-11T13:32:20.998Z</time></trkpt><trkpt lat="43.82821299294773" lon="11.384429031554532"><ele>138.0</ele><time>2026-04-11T13:32:21.998Z</time></trkpt><trkpt lat="43.828353550368526" lon="11.38418525403584"><ele>140.0</ele><time>2026-04-11T13:32:22.998Z</time></trkpt><trkpt lat="43.82847672129343" lon="11.383962896985404"><ele>142.0</ele><time>2026-04-11T13:32:23.998Z</time></trkpt><trkpt lat="43.82858784655868" lon="11.383770279803931"><ele>144.0</ele><time>2026-04-11T13:32:24.998Z</time></trkpt><trkpt lat="43.828684703950756" lon="11.383601861959686"><ele>144.0</ele><time>2026-04-11T13:32:25.998Z</time></trkpt><trkpt lat="43.828788082807954" lon="11.383434905806594"><ele>144.0</ele><time>2026-04-11T13:32:26.998Z</time></trkpt><trkpt lat="43.82891227096004" lon="11.383277848443877"><ele>144.0</ele><time>2026-04-11T13:32:27.998Z</time></trkpt><trkpt lat="43.829063640842435" lon="11.383137046390432"><ele>144.0</ele><time>2026-04-11T13:32:28.998Z</time></trkpt><trkpt lat="43.82924440678223" lon="11.383063101988029"><ele>144.0</ele><time>2026-04-11T13:32:29.998Z</time></trkpt><trkpt lat="43.82941948372295" lon="11.382976719954177"><ele>144.0</ele><time>2026-04-11T13:32:30.998Z</time></trkpt><trkpt lat="43.829604788332084" lon="11.382880717977915"><ele>144.66666666666666</ele><time>2026-04-11T13:32:31.998Z</time></trkpt><trkpt lat="43.82978903527565" lon="11.382802813675688"><ele>145.33333333333331</ele><time>2026-04-11T13:32:32.998Z</time></trkpt><trkpt lat="43.82997964492975" lon="11.38273268666776"><ele>146.0</ele><time>2026-04-11T13:32:33.998Z</time></trkpt><trkpt lat="43.830171941855795" lon="11.382667083088412"><ele>147.0</ele><time>2026-04-11T13:32:34.998Z</time></trkpt><trkpt lat="43.830365875562926" lon="11.382597242911366"><ele>148.0</ele><time>2026-04-11T13:32:35.998Z</time></trkpt><trkpt lat="43.83055625482699" lon="11.382524078228915"><ele>149.0</ele><time>2026-04-11T13:32:36.998Z</time></trkpt><trkpt lat="43.8307497277959" lon="11.382454776814278"><ele>149.0</ele><time>2026-04-11T13:32:37.998Z</time></trkpt><trkpt lat="43.830940971352675" lon="11.38239034224163"><ele>149.0</ele><time>2026-04-11T13:32:38.998Z</time></trkpt><trkpt lat="43.831132127234234" lon="11.382326932661172"><ele>149.0</ele><time>2026-04-11T13:32:39.998Z</time></trkpt><trkpt lat="43.831308302254534" lon="11.382267739083641"><ele>149.0</ele><time>2026-04-11T13:32:40.998Z</time></trkpt><trkpt lat="43.83146398119487" lon="11.382216946986338"><ele>149.0</ele><time>2026-04-11T13:32:41.998Z</time></trkpt><trkpt lat="43.831615412574294" lon="11.382166993612842"><ele>149.0</ele><time>2026-04-11T13:32:42.998Z</time></trkpt><trkpt lat="43.8317681547603" lon="11.382100710542938"><ele>149.5</ele><time>2026-04-11T13:32:43.998Z</time></trkpt><trkpt lat="43.8319190974" lon="11.382044920714051"><ele>150.0</ele><time>2026-04-11T13:32:44.998Z</time></trkpt><trkpt lat="43.832053070091476" lon="11.382003718754937"><ele>150.5</ele><time>2026-04-11T13:32:45.998Z</time></trkpt><trkpt lat="43.832196002276746" lon="11.381988821278279"><ele>151.0</ele><time>2026-04-11T13:32:46.998Z</time></trkpt><trkpt lat="43.832352135998995" lon="11.382005999275906"><ele>151.0</ele><time>2026-04-11T13:32:47.998Z</time></trkpt><trkpt lat="43.83249640846847" lon="11.382069617984387"><ele>151.0</ele><time>2026-04-11T13:32:48.998Z</time></trkpt><trkpt lat="43.832626169152164" lon="11.382139669891284"><ele>151.0</ele><time>2026-04-11T13:32:49.999Z</time></trkpt><trkpt lat="43.83276179506923" lon="11.382223573532128"><ele>151.0</ele><time>2026-04-11T13:32:50.999Z</time></trkpt><trkpt lat="43.83290992410464" lon="11.382338946885204"><ele>155.66666666666669</ele><time>2026-04-11T13:32:51.999Z</time></trkpt><trkpt lat="43.83307590414844" lon="11.382395225655976"><ele>160.33333333333334</ele><time>2026-04-11T13:32:52.999Z</time></trkpt><trkpt lat="43.83316454683325" lon="11.38242023253268"><ele>165.0</ele><time>2026-04-11T13:32:53.999Z</time></trkpt><trkpt lat="43.83336268680859" lon="11.38235686201854"><ele>165.66666666666666</ele><time>2026-04-11T13:32:54.999Z</time></trkpt><trkpt lat="43.8335189368312" lon="11.38230916007849"><ele>166.33333333333331</ele><time>2026-04-11T13:32:55.999Z</time></trkpt><trkpt lat="43.833677312027994" lon="11.38224392918194"><ele>167.0</ele><time>2026-04-11T13:32:56.999Z</time></trkpt><trkpt lat="43.833833660627064" lon="11.382172084143372"><ele>164.0</ele><time>2026-04-11T13:32:57.999Z</time></trkpt><trkpt lat="43.83399823968623" lon="11.382107772485794"><ele>161.0</ele><time>2026-04-11T13:32:58.999Z</time></trkpt><trkpt lat="43.834163727334925" lon="11.38205548532126"><ele>158.0</ele><time>2026-04-11T13:32:59.999Z</time></trkpt><trkpt lat="43.83432897852536" lon="11.381995322884208"><ele>158.0</ele><time>2026-04-11T13:33:00.999Z</time></trkpt><trkpt lat="43.834493058066606" lon="11.381942115562124"><ele>158.0</ele><time>2026-04-11T13:33:01.999Z</time></trkpt><trkpt lat="43.83466167056938" lon="11.381891558713507"><ele>158.0</ele><time>2026-04-11T13:33:02.999Z</time></trkpt><trkpt lat="43.834814366636664" lon="11.381840259286939"><ele>158.0</ele><time>2026-04-11T13:33:03.999Z</time></trkpt><trkpt lat="43.834955558579075" lon="11.381792821461149"><ele>158.0</ele><time>2026-04-11T13:33:04.999Z</time></trkpt><trkpt lat="43.835085540857634" lon="11.381747501207487"><ele>158.0</ele><time>2026-04-11T13:33:05.999Z</time></trkpt><trkpt lat="43.83521554462459" lon="11.381695481928036"><ele>158.0</ele><time>2026-04-11T13:33:06.999Z</time></trkpt><trkpt lat="43.835357947117764" lon="11.381633846344927"><ele>158.33333333333331</ele><time>2026-04-11T13:33:07.999Z</time></trkpt><trkpt lat="43.83549900904106" lon="11.381534534256094"><ele>158.66666666666666</ele><time>2026-04-11T13:33:08.999Z</time></trkpt><trkpt lat="43.83565313422192" lon="11.381427229039797"><ele>159.0</ele><time>2026-04-11T13:33:09.999Z</time></trkpt><trkpt lat="43.83581321419732" lon="11.381301764273356"><ele>160.33333333333334</ele><time>2026-04-11T13:33:10.999Z</time></trkpt><trkpt lat="43.83598117161087" lon="11.381166927061436"><ele>161.66666666666669</ele><time>2026-04-11T13:33:11.999Z</time></trkpt><trkpt lat="43.836173245599056" lon="11.381055666016763"><ele>163.0</ele><time>2026-04-11T13:33:12.999Z</time></trkpt><trkpt lat="43.8363650409661" lon="11.380919361579723"><ele>163.0</ele><time>2026-04-11T13:33:13.999Z</time></trkpt><trkpt lat="43.83655095531512" lon="11.380786597276561"><ele>163.0</ele><time>2026-04-11T13:33:14.999Z</time></trkpt><trkpt lat="43.83673020085098" lon="11.38064008630797"><ele>163.0</ele><time>2026-04-11T13:33:15.999Z</time></trkpt><trkpt lat="43.83690236928543" lon="11.380513773954926"><ele>163.33333333333334</ele><time>2026-04-11T13:33:16.999Z</time></trkpt><trkpt lat="43.83706429784504" lon="11.380399210325773"><ele>163.66666666666666</ele><time>2026-04-11T13:33:17.999Z</time></trkpt><trkpt lat="43.837209231747075" lon="11.380306142011383"><ele>164.0</ele><time>2026-04-11T13:33:18.999Z</time></trkpt><trkpt lat="43.837350633487176" lon="11.380197548724137"><ele>164.0</ele><time>2026-04-11T13:33:19.999Z</time></trkpt><trkpt lat="43.83748410971244" lon="11.38010983427244"><ele>164.0</ele><time>2026-04-11T13:33:20.999Z</time></trkpt><trkpt lat="43.8376111313787" lon="11.380020511615038"><ele>164.0</ele><time>2026-04-11T13:33:21.999Z</time></trkpt><trkpt lat="43.83772568684306" lon="11.379936341488358"><ele>164.0</ele><time>2026-04-11T13:33:22.999Z</time></trkpt><trkpt lat="43.83784879832916" lon="11.379836944438438"><ele>165.0</ele><time>2026-04-11T13:33:23.999Z</time></trkpt><trkpt lat="43.83797662859041" lon="11.37971373145407"><ele>166.0</ele><time>2026-04-11T13:33:24.999Z</time></trkpt><trkpt lat="43.83809401574712" lon="11.379563570321912"><ele>167.0</ele><time>2026-04-11T13:33:25.999Z</time></trkpt><trkpt lat="43.83821337377369" lon="11.379408316429048"><ele>167.0</ele><time>2026-04-11T13:33:26.999Z</time></trkpt><trkpt lat="43.83832465315739" lon="11.379238584820001"><ele>167.0</ele><time>2026-04-11T13:33:27.999Z</time></trkpt><trkpt lat="43.8384436662327" lon="11.379079499079689"><ele>167.0</ele><time>2026-04-11T13:33:28.999Z</time></trkpt><trkpt lat="43.838582349182076" lon="11.378921155570085"><ele>168.25</ele><time>2026-04-11T13:33:29.999Z</time></trkpt><trkpt lat="43.8386937126088" lon="11.37877174375256"><ele>169.5</ele><time>2026-04-11T13:33:30.999Z</time></trkpt><trkpt lat="43.83878534369305" lon="11.378648793131362"><ele>170.75</ele><time>2026-04-11T13:33:31.999Z</time></trkpt><trkpt lat="43.83887446122404" lon="11.378508085586587"><ele>172.0</ele><time>2026-04-11T13:33:32.999Z</time></trkpt><trkpt lat="43.83898246323896" lon="11.37837502900918"><ele>172.0</ele><time>2026-04-11T13:33:33.999Z</time></trkpt><trkpt lat="43.83907889061408" lon="11.378237656961973"><ele>172.0</ele><time>2026-04-11T13:33:34.999Z</time></trkpt><trkpt lat="43.839219236088134" lon="11.378151952749795"><ele>172.0</ele><time>2026-04-11T13:33:35.999Z</time></trkpt><trkpt lat="43.839352908547966" lon="11.378060462525811"><ele>172.0</ele><time>2026-04-11T13:33:36.999Z</time></trkpt><trkpt lat="43.83947783957989" lon="11.377962774877062"><ele>172.75</ele><time>2026-04-11T13:33:37.999Z</time></trkpt><trkpt lat="43.83960625702897" lon="11.377884138662933"><ele>173.5</ele><time>2026-04-11T13:33:38.999Z</time></trkpt><trkpt lat="43.83975748091727" lon="11.37787164798215"><ele>174.25</ele><time>2026-04-11T13:33:39.999Z</time></trkpt><trkpt lat="43.83990557488842" lon="11.377841369371268"><ele>175.0</ele><time>2026-04-11T13:33:40.999Z</time></trkpt><trkpt lat="43.84006047104376" lon="11.377808409901832"><ele>176.66666666666669</ele><time>2026-04-11T13:33:41.999Z</time></trkpt><trkpt lat="43.84020680809784" lon="11.377740289356083"><ele>178.33333333333334</ele><time>2026-04-11T13:33:42.999Z</time></trkpt><trkpt lat="43.84034784986268" lon="11.377638730594994"><ele>180.0</ele><time>2026-04-11T13:33:43.999Z</time></trkpt><trkpt lat="43.84046556864229" lon="11.377473805699431"><ele>180.0</ele><time>2026-04-11T13:33:44.999Z</time></trkpt><trkpt lat="43.8405817412685" lon="11.377290130655481"><ele>180.0</ele><time>2026-04-11T13:33:45.999Z</time></trkpt><trkpt lat="43.84069318758219" lon="11.377098989685011"><ele>180.0</ele><time>2026-04-11T13:33:46.999Z</time></trkpt><trkpt lat="43.8407979226946" lon="11.376921134785633"><ele>180.66666666666666</ele><time>2026-04-11T13:33:47.999Z</time></trkpt><trkpt lat="43.84091235075201" lon="11.376738603454209"><ele>181.33333333333331</ele><time>2026-04-11T13:33:48.999Z</time></trkpt><trkpt lat="43.84103059338706" lon="11.376554970027343"><ele>182.0</ele><time>2026-04-11T13:33:49.999Z</time></trkpt><trkpt lat="43.8411582065124" lon="11.376373011890816"><ele>184.33333333333331</ele><time>2026-04-11T13:33:50.999Z</time></trkpt><trkpt lat="43.84128787847247" lon="11.37619065195874"><ele>186.66666666666666</ele><time>2026-04-11T13:33:51.999Z</time></trkpt><trkpt lat="43.84141141392844" lon="11.376027671911014"><ele>189.0</ele><time>2026-04-11T13:33:52.999Z</time></trkpt><trkpt lat="43.84152308886488" lon="11.375879275303502"><ele>189.0</ele><time>2026-04-11T13:33:53.999Z</time></trkpt><trkpt lat="43.8416334752831" lon="11.375736074969772"><ele>189.0</ele><time>2026-04-11T13:33:54.999Z</time></trkpt><trkpt lat="43.84175789849334" lon="11.375602413960943"><ele>189.0</ele><time>2026-04-11T13:33:55.999Z</time></trkpt><trkpt lat="43.84187945787846" lon="11.3754550380335"><ele>192.33333333333331</ele><time>2026-04-11T13:33:56.999Z</time></trkpt><trkpt lat="43.842006161092776" lon="11.375322754554691"><ele>195.66666666666666</ele><time>2026-04-11T13:33:57.999Z</time></trkpt><trkpt lat="43.84213648519035" lon="11.37517664281568"><ele>199.0</ele><time>2026-04-11T13:33:58.999Z</time></trkpt><trkpt lat="43.84229128328506" lon="11.375070958285836"><ele>199.0</ele><time>2026-04-11T13:33:59.999Z</time></trkpt><trkpt lat="43.84243796295965" lon="11.374984884450985"><ele>199.0</ele><time>2026-04-11T13:34:00.999Z</time></trkpt><trkpt lat="43.84260805988675" lon="11.37494200309185"><ele>199.0</ele><time>2026-04-11T13:34:01.999Z</time></trkpt><trkpt lat="43.842775218284764" lon="11.37488573952137"><ele>203.33333333333331</ele><time>2026-04-11T13:34:02.999Z</time></trkpt><trkpt lat="43.842941857565215" lon="11.374808739971483"><ele>207.66666666666669</ele><time>2026-04-11T13:34:03.999Z</time></trkpt><trkpt lat="43.84311932553985" lon="11.374756491071913"><ele>212.0</ele><time>2026-04-11T13:34:04.999Z</time></trkpt><trkpt lat="43.84330073259053" lon="11.374695193025717"><ele>213.66666666666669</ele><time>2026-04-11T13:34:05.999Z</time></trkpt><trkpt lat="43.843482955064445" lon="11.374633953238346"><ele>215.33333333333331</ele><time>2026-04-11T13:34:06.999Z</time></trkpt><trkpt lat="43.843662532314355" lon="11.374575486804545"><ele>217.0</ele><time>2026-04-11T13:34:07.999Z</time></trkpt><trkpt lat="43.84382972007248" lon="11.3745232109153"><ele>217.0</ele><time>2026-04-11T13:34:08.999Z</time></trkpt><trkpt lat="43.84395434400601" lon="11.374493652739458"><ele>217.0</ele><time>2026-04-11T13:34:09.999Z</time></trkpt><trkpt lat="43.844040408644005" lon="11.374473035082433"><ele>217.0</ele><time>2026-04-11T13:34:10.999Z</time></trkpt><trkpt lat="43.8441094094039" lon="11.374439468511603"><ele>217.0</ele><time>2026-04-11T13:34:11.999Z</time></trkpt><trkpt lat="43.844186548768015" lon="11.374420399131123"><ele>217.0</ele><time>2026-04-11T13:34:13.999Z</time></trkpt><trkpt lat="43.84409814423783" lon="11.374448716672662"><ele>216.99999999999997</ele><time>2026-04-11T13:34:16.999Z</time></trkpt><trkpt lat="43.84399545481606" lon="11.374421295981813"><ele>217.0</ele><time>2026-04-11T13:34:17.999Z</time></trkpt><trkpt lat="43.84392690444054" lon="11.374457360842158"><ele>217.0</ele><time>2026-04-11T13:34:18.999Z</time></trkpt><trkpt lat="43.84386737551475" lon="11.37450540657872"><ele>217.0</ele><time>2026-04-11T13:34:19.999Z</time></trkpt><trkpt lat="43.843791327668654" lon="11.37458925303812"><ele>216.99999999999997</ele><time>2026-04-11T13:34:21.999Z</time></trkpt><trkpt lat="43.84376064447456" lon="11.374676827009743"><ele>217.0</ele><time>2026-04-11T13:34:26.999Z</time></trkpt><trkpt lat="43.84373469753681" lon="11.374811946021666"><ele>217.66666666666666</ele><time>2026-04-11T13:34:30.999Z</time></trkpt><trkpt lat="43.843742011193044" lon="11.374898901227061"><ele>218.33333333333331</ele><time>2026-04-11T13:34:32.999Z</time></trkpt><trkpt lat="43.84378264636834" lon="11.375030813446308"><ele>219.0</ele><time>2026-04-11T13:34:34.999Z</time></trkpt><trkpt lat="43.84380831462088" lon="11.375131165865497"><ele>219.66666666666669</ele><time>2026-04-11T13:34:35.999Z</time></trkpt><trkpt lat="43.84383658996676" lon="11.375236201418234"><ele>220.33333333333334</ele><time>2026-04-11T13:34:36.999Z</time></trkpt><trkpt lat="43.843866929034306" lon="11.375359572322822"><ele>221.0</ele><time>2026-04-11T13:34:37.999Z</time></trkpt><trkpt lat="43.84389679985512" lon="11.375469445727926"><ele>222.20000000000002</ele><time>2026-04-11T13:34:38.999Z</time></trkpt><trkpt lat="43.84392461608226" lon="11.37556203079542"><ele>223.40000000000003</ele><time>2026-04-11T13:34:39.999Z</time></trkpt><trkpt lat="43.84396385385735" lon="11.375703436657131"><ele>224.6</ele><time>2026-04-11T13:34:41.999Z</time></trkpt><trkpt lat="43.844022961985694" lon="11.37579577303614"><ele>225.8</ele><time>2026-04-11T13:34:43.999Z</time></trkpt><trkpt lat="43.8441293442694" lon="11.375810537571175"><ele>227.0</ele><time>2026-04-11T13:34:45.999Z</time></trkpt><trkpt lat="43.844250609741565" lon="11.375846217555958"><ele>229.50000000000003</ele><time>2026-04-11T13:34:47.999Z</time></trkpt><trkpt lat="43.84433672226552" lon="11.375880556041219"><ele>232.0</ele><time>2026-04-11T13:34:48.999Z</time></trkpt><trkpt lat="43.844433127907834" lon="11.375924650036795"><ele>234.5</ele><time>2026-04-11T13:34:49.999Z</time></trkpt><trkpt lat="43.84451664036493" lon="11.375969120959569"><ele>237.0</ele><time>2026-04-11T13:34:50.999Z</time></trkpt><trkpt lat="43.84459415345622" lon="11.375997331419237"><ele>239.50000000000003</ele><time>2026-04-11T13:34:51.999Z</time></trkpt><trkpt lat="43.84465786573981" lon="11.376024796837568"><ele>242.0</ele><time>2026-04-11T13:34:52.999Z</time></trkpt><trkpt lat="43.84474472853159" lon="11.376050445144882"><ele>242.00000000000003</ele><time>2026-04-11T13:34:53.999Z</time></trkpt><trkpt lat="43.84482994984561" lon="11.376068410920626"><ele>242.0</ele><time>2026-04-11T13:34:54.999Z</time></trkpt><trkpt lat="43.84490925940657" lon="11.376088430501143"><ele>242.0</ele><time>2026-04-11T13:34:56Z</time></trkpt><trkpt lat="43.84498419380979" lon="11.376089193738407"><ele>242.0</ele><time>2026-04-11T13:34:57Z</time></trkpt><trkpt lat="43.84507425986768" lon="11.376091823099436"><ele>242.00000000000003</ele><time>2026-04-11T13:34:58Z</time></trkpt><trkpt lat="43.84514273385723" lon="11.376088035243127"><ele>242.0</ele><time>2026-04-11T13:34:59Z</time></trkpt><trkpt lat="43.8452363680525" lon="11.376004952225205"><ele>242.6</ele><time>2026-04-11T13:35:01Z</time></trkpt><trkpt lat="43.84529002604414" lon="11.37593340050413"><ele>243.2</ele><time>2026-04-11T13:35:02Z</time></trkpt><trkpt lat="43.845348987985844" lon="11.37584618739056"><ele>243.8</ele><time>2026-04-11T13:35:03Z</time></trkpt><trkpt lat="43.84541472160056" lon="11.375757293531937"><ele>244.4</ele><time>2026-04-11T13:35:04Z</time></trkpt><trkpt lat="43.84548157119784" lon="11.375678570351607"><ele>245.0</ele><time>2026-04-11T13:35:05Z</time></trkpt><trkpt lat="43.845571131298684" lon="11.375580833761548"><ele>244.6</ele><time>2026-04-11T13:35:06Z</time></trkpt><trkpt lat="43.845669863618035" lon="11.375492478832387"><ele>244.2</ele><time>2026-04-11T13:35:07Z</time></trkpt><trkpt lat="43.84576866473176" lon="11.375407331418332"><ele>243.8</ele><time>2026-04-11T13:35:08Z</time></trkpt><trkpt lat="43.84587340735133" lon="11.375323752155566"><ele>243.4</ele><time>2026-04-11T13:35:09Z</time></trkpt><trkpt lat="43.84595764054927" lon="11.375263720704693"><ele>243.0</ele><time>2026-04-11T13:35:10Z</time></trkpt><trkpt lat="43.84604375846606" lon="11.37519380638461"><ele>245.0</ele><time>2026-04-11T13:35:11Z</time></trkpt><trkpt lat="43.84612509458322" lon="11.375130042469484"><ele>247.0</ele><time>2026-04-11T13:35:12Z</time></trkpt><trkpt lat="43.846195592731" lon="11.375071187034631"><ele>249.0</ele><time>2026-04-11T13:35:13Z</time></trkpt><trkpt lat="43.846262315292044" lon="11.375007301244489"><ele>251.0</ele><time>2026-04-11T13:35:14Z</time></trkpt><trkpt lat="43.84632524753644" lon="11.374878419106714"><ele>253.0</ele><time>2026-04-11T13:35:16Z</time></trkpt><trkpt lat="43.846361917412764" lon="11.374788288110986"><ele>255.0</ele><time>2026-04-11T13:35:17Z</time></trkpt><trkpt lat="43.846410840416475" lon="11.374678320166119"><ele>255.0</ele><time>2026-04-11T13:35:18Z</time></trkpt><trkpt lat="43.84646292804955" lon="11.374580064680675"><ele>255.0</ele><time>2026-04-11T13:35:19Z</time></trkpt><trkpt lat="43.84652477972524" lon="11.374485388328912"><ele>255.0</ele><time>2026-04-11T13:35:20Z</time></trkpt><trkpt lat="43.84657992882623" lon="11.37442354282163"><ele>255.0</ele><time>2026-04-11T13:35:21Z</time></trkpt><trkpt lat="43.84664405898794" lon="11.374370669256859"><ele>255.0</ele><time>2026-04-11T13:35:23Z</time></trkpt><trkpt lat="43.846765456044714" lon="11.374350615171434"><ele>255.0</ele><time>2026-04-11T13:35:25Z</time></trkpt><trkpt lat="43.84686052597029" lon="11.374356355438096"><ele>255.6</ele><time>2026-04-11T13:35:26Z</time></trkpt><trkpt lat="43.84696796650588" lon="11.374371525198198"><ele>256.2</ele><time>2026-04-11T13:35:27Z</time></trkpt><trkpt lat="43.847071516994944" lon="11.374375259878754"><ele>256.8</ele><time>2026-04-11T13:35:28Z</time></trkpt><trkpt lat="43.84718068358408" lon="11.374371559940304"><ele>257.4</ele><time>2026-04-11T13:35:29Z</time></trkpt><trkpt lat="43.84728735228587" lon="11.374344376934982"><ele>258.0</ele><time>2026-04-11T13:35:30Z</time></trkpt><trkpt lat="43.847388435619756" lon="11.374315219303803"><ele>258.0</ele><time>2026-04-11T13:35:31Z</time></trkpt><trkpt lat="43.84747494936412" lon="11.374290167373093"><ele>258.0</ele><time>2026-04-11T13:35:32Z</time></trkpt><trkpt lat="43.84755842967605" lon="11.374260325109192"><ele>258.0</ele><time>2026-04-11T13:35:33Z</time></trkpt><trkpt lat="43.84762273162791" lon="11.374225665210487"><ele>258.0</ele><time>2026-04-11T13:35:34Z</time></trkpt><trkpt lat="43.847687183049565" lon="11.374181171756572"><ele>258.0</ele><time>2026-04-11T13:35:35Z</time></trkpt><trkpt lat="43.84776370944448" lon="11.374128424189326"><ele>258.0</ele><time>2026-04-11T13:35:37Z</time></trkpt><trkpt lat="43.84785015890356" lon="11.374095189450083"><ele>258.8</ele><time>2026-04-11T13:35:40Z</time></trkpt><trkpt lat="43.84798198383271" lon="11.37408457442577"><ele>259.6</ele><time>2026-04-11T13:35:41.999Z</time></trkpt><trkpt lat="43.84806768601505" lon="11.37407617515096"><ele>260.4</ele><time>2026-04-11T13:35:42.999Z</time></trkpt><trkpt lat="43.848156335284145" lon="11.3740225680404"><ele>261.2</ele><time>2026-04-11T13:35:43.999Z</time></trkpt><trkpt lat="43.84823277347558" lon="11.373908542532186"><ele>262.0</ele><time>2026-04-11T13:35:44.999Z</time></trkpt><trkpt lat="43.8482791405195" lon="11.37375393854743"><ele>262.5</ele><time>2026-04-11T13:35:45.999Z</time></trkpt><trkpt lat="43.84827573256764" lon="11.37358716560322"><ele>263.0</ele><time>2026-04-11T13:35:46.999Z</time></trkpt><trkpt lat="43.848235816086365" lon="11.373413744922173"><ele>263.5</ele><time>2026-04-11T13:35:47.999Z</time></trkpt><trkpt lat="43.84817130489551" lon="11.373244208389597"><ele>264.0</ele><time>2026-04-11T13:35:48.999Z</time></trkpt><trkpt lat="43.84811075847348" lon="11.373075273584506"><ele>265.75</ele><time>2026-04-11T13:35:49.999Z</time></trkpt><trkpt lat="43.8480648092891" lon="11.372889718763732"><ele>267.5</ele><time>2026-04-11T13:35:50.999Z</time></trkpt><trkpt lat="43.848033895615885" lon="11.37269930501051"><ele>269.25</ele><time>2026-04-11T13:35:51.999Z</time></trkpt><trkpt lat="43.84801563074113" lon="11.372491837193568"><ele>271.0</ele><time>2026-04-11T13:35:52.999Z</time></trkpt><trkpt lat="43.84801886788112" lon="11.372278962496601"><ele>274.0</ele><time>2026-04-11T13:35:53.999Z</time></trkpt><trkpt lat="43.84804489250796" lon="11.37208355680601"><ele>277.0</ele><time>2026-04-11T13:35:54.999Z</time></trkpt><trkpt lat="43.8480657951473" lon="11.37187726895175"><ele>280.0</ele><time>2026-04-11T13:35:55.999Z</time></trkpt><trkpt lat="43.84807086217632" lon="11.371644512922881"><ele>280.0</ele><time>2026-04-11T13:35:56.999Z</time></trkpt><trkpt lat="43.848076777106144" lon="11.37141506336929"><ele>280.0</ele><time>2026-04-11T13:35:57.999Z</time></trkpt><trkpt lat="43.848088627681946" lon="11.371209154166849"><ele>280.0</ele><time>2026-04-11T13:35:58.999Z</time></trkpt><trkpt lat="43.848106898598765" lon="11.371020744860523"><ele>281.75</ele><time>2026-04-11T13:35:59.999Z</time></trkpt><trkpt lat="43.84814209766046" lon="11.370841288107231"><ele>283.5</ele><time>2026-04-11T13:36:00.999Z</time></trkpt><trkpt lat="43.84820768118517" lon="11.370679833569088"><ele>285.25</ele><time>2026-04-11T13:36:01.999Z</time></trkpt><trkpt lat="43.848294189336926" lon="11.370540933374"><ele>287.0</ele><time>2026-04-11T13:36:02.999Z</time></trkpt><trkpt lat="43.848369143184975" lon="11.370399725041946"><ele>290.33333333333337</ele><time>2026-04-11T13:36:03.999Z</time></trkpt><trkpt lat="43.84850813911683" lon="11.370258517680716"><ele>293.6666666666667</ele><time>2026-04-11T13:36:04.999Z</time></trkpt><trkpt lat="43.84861897750366" lon="11.37011404441812"><ele>297.0</ele><time>2026-04-11T13:36:05.999Z</time></trkpt><trkpt lat="43.84873245410237" lon="11.369966529281696"><ele>297.0</ele><time>2026-04-11T13:36:06.999Z</time></trkpt><trkpt lat="43.84879225991804" lon="11.369839330264162"><ele>297.0</ele><time>2026-04-11T13:36:07.999Z</time></trkpt><trkpt lat="43.84888665070051" lon="11.36973231108007"><ele>297.0</ele><time>2026-04-11T13:36:08.999Z</time></trkpt><trkpt lat="43.849054428890895" lon="11.369677615822829"><ele>297.0</ele><time>2026-04-11T13:36:09.999Z</time></trkpt><trkpt lat="43.84920292526537" lon="11.369651715149288"><ele>298.3333333333333</ele><time>2026-04-11T13:36:10.999Z</time></trkpt><trkpt lat="43.84936383991574" lon="11.369685538697262"><ele>299.66666666666663</ele><time>2026-04-11T13:36:11.999Z</time></trkpt><trkpt lat="43.849525219997005" lon="11.369706385644252"><ele>301.0</ele><time>2026-04-11T13:36:12.999Z</time></trkpt><trkpt lat="43.849679140795025" lon="11.369594751917836"><ele>301.0</ele><time>2026-04-11T13:36:13.999Z</time></trkpt><trkpt lat="43.849833923347916" lon="11.36943611269433"><ele>301.0</ele><time>2026-04-11T13:36:14.999Z</time></trkpt><trkpt lat="43.84999686622418" lon="11.369306593011943"><ele>301.0</ele><time>2026-04-11T13:36:15.999Z</time></trkpt><trkpt lat="43.85017995770314" lon="11.369252696722379"><ele>304.0</ele><time>2026-04-11T13:36:16.999Z</time></trkpt><trkpt lat="43.85035722672009" lon="11.369211841149317"><ele>307.0</ele><time>2026-04-11T13:36:17.999Z</time></trkpt><trkpt lat="43.85048413945494" lon="11.369162087111334"><ele>310.0</ele><time>2026-04-11T13:36:18.999Z</time></trkpt><trkpt lat="43.85062400665253" lon="11.369106213092158"><ele>310.0</ele><time>2026-04-11T13:36:19.999Z</time></trkpt><trkpt lat="43.85077622371542" lon="11.369049112928707"><ele>310.0</ele><time>2026-04-11T13:36:20.999Z</time></trkpt><trkpt lat="43.85092239731586" lon="11.368959399098848"><ele>310.0</ele><time>2026-04-11T13:36:21.999Z</time></trkpt><trkpt lat="43.851037226789295" lon="11.36883456185837"><ele>311.5</ele><time>2026-04-11T13:36:22.999Z</time></trkpt><trkpt lat="43.85112496700892" lon="11.368669033209576"><ele>313.0</ele><time>2026-04-11T13:36:23.999Z</time></trkpt><trkpt lat="43.85118762828563" lon="11.368498984218782"><ele>314.5</ele><time>2026-04-11T13:36:24.999Z</time></trkpt><trkpt lat="43.85123321648589" lon="11.368343554994263"><ele>316.0</ele><time>2026-04-11T13:36:25.999Z</time></trkpt><trkpt lat="43.85128107458903" lon="11.368203310220082"><ele>316.0</ele><time>2026-04-11T13:36:26.999Z</time></trkpt><trkpt lat="43.85133392811643" lon="11.36806371951034"><ele>316.0</ele><time>2026-04-11T13:36:27.999Z</time></trkpt><trkpt lat="43.85140353731477" lon="11.36790095173059"><ele>316.0</ele><time>2026-04-11T13:36:28.999Z</time></trkpt><trkpt lat="43.851455875472695" lon="11.367739992416427"><ele>316.0</ele><time>2026-04-11T13:36:29.999Z</time></trkpt><trkpt lat="43.85151102152171" lon="11.367570620374357"><ele>316.75</ele><time>2026-04-11T13:36:30.999Z</time></trkpt><trkpt lat="43.851573764139204" lon="11.367399587748428"><ele>317.5</ele><time>2026-04-11T13:36:31.999Z</time></trkpt><trkpt lat="43.85164997415153" lon="11.367235141680345"><ele>318.25</ele><time>2026-04-11T13:36:32.999Z</time></trkpt><trkpt lat="43.851759608211125" lon="11.367130905894138"><ele>319.0</ele><time>2026-04-11T13:36:33.999Z</time></trkpt><trkpt lat="43.85187148662398" lon="11.367078231126593"><ele>321.0</ele><time>2026-04-11T13:36:34.999Z</time></trkpt><trkpt lat="43.851997994664366" lon="11.367059157614772"><ele>323.0</ele><time>2026-04-11T13:36:35.999Z</time></trkpt><trkpt lat="43.852123475941745" lon="11.367106156740412"><ele>325.0</ele><time>2026-04-11T13:36:36.999Z</time></trkpt><trkpt lat="43.85226060916198" lon="11.367178621068957"><ele>327.0</ele><time>2026-04-11T13:36:37.999Z</time></trkpt><trkpt lat="43.852391173668686" lon="11.367253856141707"><ele>327.0</ele><time>2026-04-11T13:36:38.999Z</time></trkpt><trkpt lat="43.85252056771929" lon="11.36733006825197"><ele>327.0</ele><time>2026-04-11T13:36:39.999Z</time></trkpt><trkpt lat="43.852641013265824" lon="11.36740087434289"><ele>327.0</ele><time>2026-04-11T13:36:40.999Z</time></trkpt><trkpt lat="43.852759004622975" lon="11.367470190868222"><ele>327.0</ele><time>2026-04-11T13:36:41.999Z</time></trkpt><trkpt lat="43.85288173808551" lon="11.367524301075616"><ele>330.0</ele><time>2026-04-11T13:36:42.999Z</time></trkpt><trkpt lat="43.85300428189404" lon="11.367604313155304"><ele>333.0</ele><time>2026-04-11T13:36:43.999Z</time></trkpt><trkpt lat="43.85312447562118" lon="11.367679384809072"><ele>336.0</ele><time>2026-04-11T13:36:44.999Z</time></trkpt><trkpt lat="43.853246807313866" lon="11.3677526382449"><ele>339.0</ele><time>2026-04-11T13:36:45.999Z</time></trkpt><trkpt lat="43.85337083387177" lon="11.367827070470126"><ele>341.0</ele><time>2026-04-11T13:36:46.999Z</time></trkpt><trkpt lat="43.85349815328276" lon="11.367906023041455"><ele>343.0</ele><time>2026-04-11T13:36:47.999Z</time></trkpt><trkpt lat="43.85363076277952" lon="11.367983194816707"><ele>345.0</ele><time>2026-04-11T13:36:48.999Z</time></trkpt><trkpt lat="43.853770093926535" lon="11.368063537261335"><ele>347.0</ele><time>2026-04-11T13:36:49.999Z</time></trkpt><trkpt lat="43.85390914138918" lon="11.368144327915504"><ele>347.33333333333337</ele><time>2026-04-11T13:36:50.999Z</time></trkpt><trkpt lat="43.854053362900714" lon="11.368226974204635"><ele>347.6666666666667</ele><time>2026-04-11T13:36:51.999Z</time></trkpt><trkpt lat="43.85419916245486" lon="11.36829788724754"><ele>348.0</ele><time>2026-04-11T13:36:52.999Z</time></trkpt><trkpt lat="43.85434184071749" lon="11.36833127642827"><ele>351.5</ele><time>2026-04-11T13:36:53.999Z</time></trkpt><trkpt lat="43.85448975402095" lon="11.368312797661414"><ele>355.0</ele><time>2026-04-11T13:36:54.999Z</time></trkpt><trkpt lat="43.85462758082321" lon="11.368258886870139"><ele>358.5</ele><time>2026-04-11T13:36:55.999Z</time></trkpt><trkpt lat="43.85476984818163" lon="11.36819255850385"><ele>362.0</ele><time>2026-04-11T13:36:56.999Z</time></trkpt><trkpt lat="43.85491439305912" lon="11.368080836596759"><ele>361.0</ele><time>2026-04-11T13:36:57.999Z</time></trkpt><trkpt lat="43.85506231052558" lon="11.36802251622179"><ele>360.0</ele><time>2026-04-11T13:36:58.999Z</time></trkpt><trkpt lat="43.85521566494317" lon="11.367970258808077"><ele>359.0</ele><time>2026-04-11T13:36:59.999Z</time></trkpt><trkpt lat="43.85536866292728" lon="11.367903039882545"><ele>364.0</ele><time>2026-04-11T13:37:00.999Z</time></trkpt><trkpt lat="43.855524868445606" lon="11.367809867026068"><ele>369.0</ele><time>2026-04-11T13:37:02Z</time></trkpt><trkpt lat="43.85567230513012" lon="11.367682782258601"><ele>374.0</ele><time>2026-04-11T13:37:03Z</time></trkpt><trkpt lat="43.8558191374127" lon="11.367547031215942"><ele>379.25</ele><time>2026-04-11T13:37:04Z</time></trkpt><trkpt lat="43.85595636762962" lon="11.367429727087242"><ele>384.5</ele><time>2026-04-11T13:37:05Z</time></trkpt><trkpt lat="43.856075881116446" lon="11.36731323796242"><ele>389.75</ele><time>2026-04-11T13:37:06Z</time></trkpt><trkpt lat="43.85617538017843" lon="11.367202132229835"><ele>395.0</ele><time>2026-04-11T13:37:07Z</time></trkpt><trkpt lat="43.85625638451336" lon="11.367071823631173"><ele>395.0</ele><time>2026-04-11T13:37:08Z</time></trkpt><trkpt lat="43.85631740885222" lon="11.366919437640542"><ele>395.0</ele><time>2026-04-11T13:37:09Z</time></trkpt><trkpt lat="43.85634486256048" lon="11.36675517017873"><ele>395.0</ele><time>2026-04-11T13:37:10Z</time></trkpt><trkpt lat="43.856352111056125" lon="11.366591441637407"><ele>395.0</ele><time>2026-04-11T13:37:11Z</time></trkpt><trkpt lat="43.856336819085946" lon="11.366454831984424"><ele>395.2</ele><time>2026-04-11T13:37:12Z</time></trkpt><trkpt lat="43.85631063254582" lon="11.366337819517371"><ele>395.4</ele><time>2026-04-11T13:37:13Z</time></trkpt><trkpt lat="43.85626547316916" lon="11.366205350453622"><ele>395.6</ele><time>2026-04-11T13:37:14Z</time></trkpt><trkpt lat="43.85621921397484" lon="11.36606058579905"><ele>395.8</ele><time>2026-04-11T13:37:15Z</time></trkpt><trkpt lat="43.85616641269078" lon="11.365904278123667"><ele>396.0</ele><time>2026-04-11T13:37:16Z</time></trkpt><trkpt lat="43.85611916305023" lon="11.365725818431521"><ele>396.0</ele><time>2026-04-11T13:37:17Z</time></trkpt><trkpt lat="43.85607465071434" lon="11.365534423097627"><ele>396.0</ele><time>2026-04-11T13:37:18Z</time></trkpt><trkpt lat="43.856031951274126" lon="11.365334517691434"><ele>396.0</ele><time>2026-04-11T13:37:19Z</time></trkpt><trkpt lat="43.85600191183588" lon="11.365157718242173"><ele>396.0</ele><time>2026-04-11T13:37:20Z</time></trkpt><trkpt lat="43.855997039749134" lon="11.36497637643604"><ele>398.0</ele><time>2026-04-11T13:37:21Z</time></trkpt><trkpt lat="43.85602128167822" lon="11.36480204257157"><ele>400.0</ele><time>2026-04-11T13:37:22Z</time></trkpt><trkpt lat="43.856090455174716" lon="11.36465062508928"><ele>402.0</ele><time>2026-04-11T13:37:23Z</time></trkpt><trkpt lat="43.85618448532704" lon="11.36450747606837"><ele>404.0</ele><time>2026-04-11T13:37:24Z</time></trkpt><trkpt lat="43.85626580071153" lon="11.364361888570322"><ele>404.0</ele><time>2026-04-11T13:37:25Z</time></trkpt><trkpt lat="43.85634637264521" lon="11.364204723760293"><ele>404.0</ele><time>2026-04-11T13:37:26Z</time></trkpt><trkpt lat="43.85642558707244" lon="11.364045857666126"><ele>404.0</ele><time>2026-04-11T13:37:27Z</time></trkpt><trkpt lat="43.85651258781081" lon="11.363883280211756"><ele>404.0</ele><time>2026-04-11T13:37:28Z</time></trkpt><trkpt lat="43.85660508233192" lon="11.36371132409506"><ele>404.0</ele><time>2026-04-11T13:37:29Z</time></trkpt><trkpt lat="43.85669708277764" lon="11.363534240817621"><ele>404.0</ele><time>2026-04-11T13:37:30Z</time></trkpt><trkpt lat="43.85678899617829" lon="11.363353181850707"><ele>404.0</ele><time>2026-04-11T13:37:31Z</time></trkpt><trkpt lat="43.856886618142205" lon="11.363167291153314"><ele>407.66666666666663</ele><time>2026-04-11T13:37:32Z</time></trkpt><trkpt lat="43.85698885362727" lon="11.362976088399137"><ele>411.33333333333337</ele><time>2026-04-11T13:37:33Z</time></trkpt><trkpt lat="43.8570884806529" lon="11.362780241832121"><ele>415.0</ele><time>2026-04-11T13:37:34Z</time></trkpt><trkpt lat="43.85718795257095" lon="11.362579433303042"><ele>415.0</ele><time>2026-04-11T13:37:35Z</time></trkpt><trkpt lat="43.85728498871662" lon="11.362367730586968"><ele>415.0</ele><time>2026-04-11T13:37:36Z</time></trkpt><trkpt lat="43.85737430162188" lon="11.362165008546654"><ele>415.0</ele><time>2026-04-11T13:37:37Z</time></trkpt><trkpt lat="43.85744853002292" lon="11.361977660717676"><ele>416.0</ele><time>2026-04-11T13:37:38Z</time></trkpt><trkpt lat="43.85751566720844" lon="11.361802972985299"><ele>417.0</ele><time>2026-04-11T13:37:39Z</time></trkpt><trkpt lat="43.85758087232125" lon="11.361629027397523"><ele>418.0</ele><time>2026-04-11T13:37:40Z</time></trkpt><trkpt lat="43.85764676422638" lon="11.361449524245392"><ele>419.0</ele><time>2026-04-11T13:37:41Z</time></trkpt><trkpt lat="43.85771158905449" lon="11.361273381702285"><ele>428.0</ele><time>2026-04-11T13:37:42Z</time></trkpt><trkpt lat="43.85778048666744" lon="11.36109206604428"><ele>437.0</ele><time>2026-04-11T13:37:43Z</time></trkpt><trkpt lat="43.8578530381659" lon="11.36090881511627"><ele>446.0</ele><time>2026-04-11T13:37:44Z</time></trkpt><trkpt lat="43.8579286437073" lon="11.360714958173032"><ele>442.66666666666663</ele><time>2026-04-11T13:37:45Z</time></trkpt><trkpt lat="43.858007527646166" lon="11.360518933738383"><ele>439.33333333333337</ele><time>2026-04-11T13:37:46Z</time></trkpt><trkpt lat="43.85808959393458" lon="11.360311856701644"><ele>436.0</ele><time>2026-04-11T13:37:47Z</time></trkpt><trkpt lat="43.858161527732435" lon="11.360112798061884"><ele>436.0</ele><time>2026-04-11T13:37:48Z</time></trkpt><trkpt lat="43.85822501141571" lon="11.359909013830832"><ele>436.0</ele><time>2026-04-11T13:37:49Z</time></trkpt><trkpt lat="43.85826941318417" lon="11.359691611490376"><ele>436.0</ele><time>2026-04-11T13:37:50Z</time></trkpt><trkpt lat="43.85828032442968" lon="11.359453408215087"><ele>436.33333333333337</ele><time>2026-04-11T13:37:51Z</time></trkpt><trkpt lat="43.85826579090007" lon="11.359220470671852"><ele>436.66666666666663</ele><time>2026-04-11T13:37:52Z</time></trkpt><trkpt lat="43.85824668719364" lon="11.35900879699884"><ele>437.0</ele><time>2026-04-11T13:37:53Z</time></trkpt><trkpt lat="43.85824323755814" lon="11.35882394866825"><ele>437.75</ele><time>2026-04-11T13:37:54Z</time></trkpt><trkpt lat="43.85826025679829" lon="11.358646632306096"><ele>438.5</ele><time>2026-04-11T13:37:55Z</time></trkpt><trkpt lat="43.85832772025597" lon="11.358462541413562"><ele>439.25</ele><time>2026-04-11T13:37:56Z</time></trkpt><trkpt lat="43.85840436451895" lon="11.358264036122524"><ele>440.0</ele><time>2026-04-11T13:37:57Z</time></trkpt><trkpt lat="43.85847797238209" lon="11.35803641000212"><ele>447.0</ele><time>2026-04-11T13:37:58Z</time></trkpt><trkpt lat="43.858555407468835" lon="11.357843293682746"><ele>454.0</ele><time>2026-04-11T13:37:59Z</time></trkpt><trkpt lat="43.85864285159199" lon="11.357664275272747"><ele>461.0</ele><time>2026-04-11T13:38:00Z</time></trkpt><trkpt lat="43.85875533026105" lon="11.357503713293282"><ele>461.0</ele><time>2026-04-11T13:38:01Z</time></trkpt><trkpt lat="43.858881048270824" lon="11.357370845916169"><ele>461.0</ele><time>2026-04-11T13:38:02Z</time></trkpt><trkpt lat="43.859014253419616" lon="11.357246223257595"><ele>461.0</ele><time>2026-04-11T13:38:03Z</time></trkpt><trkpt lat="43.859147473454755" lon="11.357109008820933"><ele>458.66666666666663</ele><time>2026-04-11T13:38:04Z</time></trkpt><trkpt lat="43.85927515464074" lon="11.35696831773794"><ele>456.33333333333337</ele><time>2026-04-11T13:38:05Z</time></trkpt><trkpt lat="43.859407595443585" lon="11.356809859480274"><ele>454.0</ele><time>2026-04-11T13:38:06Z</time></trkpt><trkpt lat="43.859526833193435" lon="11.356641335001871"><ele>460.0</ele><time>2026-04-11T13:38:06.999Z</time></trkpt><trkpt lat="43.859632186904086" lon="11.356446301358696"><ele>466.0</ele><time>2026-04-11T13:38:07.999Z</time></trkpt><trkpt lat="43.859725483012845" lon="11.356234970372634"><ele>472.0</ele><time>2026-04-11T13:38:08.999Z</time></trkpt><trkpt lat="43.85981491537766" lon="11.356014753419036"><ele>472.0</ele><time>2026-04-11T13:38:09.999Z</time></trkpt><trkpt lat="43.85990818016835" lon="11.355794090368972"><ele>472.0</ele><time>2026-04-11T13:38:10.999Z</time></trkpt><trkpt lat="43.85999769343541" lon="11.355575514064256"><ele>472.0</ele><time>2026-04-11T13:38:11.999Z</time></trkpt><trkpt lat="43.86008617420754" lon="11.355358092140781"><ele>477.0</ele><time>2026-04-11T13:38:12.999Z</time></trkpt><trkpt lat="43.86017626871962" lon="11.355135306106083"><ele>482.0</ele><time>2026-04-11T13:38:13.999Z</time></trkpt><trkpt lat="43.86026906009354" lon="11.354922586535634"><ele>487.0</ele><time>2026-04-11T13:38:14.999Z</time></trkpt><trkpt lat="43.86036458409712" lon="11.354694523492146"><ele>488.0</ele><time>2026-04-11T13:38:15.999Z</time></trkpt><trkpt lat="43.860458637722054" lon="11.354471617060293"><ele>489.0</ele><time>2026-04-11T13:38:16.999Z</time></trkpt><trkpt lat="43.860557819248754" lon="11.354235864343229"><ele>490.0</ele><time>2026-04-11T13:38:17.999Z</time></trkpt><trkpt lat="43.86065895204515" lon="11.353996111441434"><ele>489.6666666666667</ele><time>2026-04-11T13:38:18.999Z</time></trkpt><trkpt lat="43.860758661008965" lon="11.353752533753735"><ele>489.33333333333337</ele><time>2026-04-11T13:38:19.999Z</time></trkpt><trkpt lat="43.86085089690479" lon="11.353526643293545"><ele>489.0</ele><time>2026-04-11T13:38:20.999Z</time></trkpt><trkpt lat="43.86092953337946" lon="11.3533322452569"><ele>494.33333333333337</ele><time>2026-04-11T13:38:21.999Z</time></trkpt><trkpt lat="43.86101615800354" lon="11.353142393589662"><ele>499.6666666666667</ele><time>2026-04-11T13:38:22.999Z</time></trkpt><trkpt lat="43.86112524049646" lon="11.35296724046445"><ele>505.0</ele><time>2026-04-11T13:38:23.999Z</time></trkpt><trkpt lat="43.86125710303278" lon="11.352814228447134"><ele>505.0</ele><time>2026-04-11T13:38:24.999Z</time></trkpt><trkpt lat="43.86139856299917" lon="11.352674189653674"><ele>505.0</ele><time>2026-04-11T13:38:25.999Z</time></trkpt><trkpt lat="43.861536621191796" lon="11.35252475317436"><ele>505.0</ele><time>2026-04-11T13:38:26.999Z</time></trkpt><trkpt lat="43.86167731259988" lon="11.352373275553681"><ele>509.33333333333337</ele><time>2026-04-11T13:38:27.999Z</time></trkpt><trkpt lat="43.86181861879632" lon="11.352210626672763"><ele>513.6666666666666</ele><time>2026-04-11T13:38:28.999Z</time></trkpt><trkpt lat="43.86196710168292" lon="11.352041105892733"><ele>518.0</ele><time>2026-04-11T13:38:29.999Z</time></trkpt><trkpt lat="43.86211483175562" lon="11.35187791620099"><ele>518.0</ele><time>2026-04-11T13:38:30.999Z</time></trkpt><trkpt lat="43.86226280567248" lon="11.351714244395655"><ele>518.0</ele><time>2026-04-11T13:38:31.999Z</time></trkpt><trkpt lat="43.86239551824029" lon="11.351566092312115"><ele>518.0</ele><time>2026-04-11T13:38:32.999Z</time></trkpt><trkpt lat="43.862515566925545" lon="11.351405656110346"><ele>524.6666666666666</ele><time>2026-04-11T13:38:33.999Z</time></trkpt><trkpt lat="43.86262093162643" lon="11.351214152605605"><ele>531.3333333333334</ele><time>2026-04-11T13:38:34.999Z</time></trkpt><trkpt lat="43.86270444376448" lon="11.350996786162755"><ele>538.0</ele><time>2026-04-11T13:38:35.999Z</time></trkpt><trkpt lat="43.86277622785046" lon="11.350774267828445"><ele>538.0</ele><time>2026-04-11T13:38:36.999Z</time></trkpt><trkpt lat="43.862849762397936" lon="11.350551776651395"><ele>538.0</ele><time>2026-04-11T13:38:37.999Z</time></trkpt><trkpt lat="43.86293009169654" lon="11.350326657236117"><ele>538.0</ele><time>2026-04-11T13:38:38.999Z</time></trkpt><trkpt lat="43.863009889791655" lon="11.350105387634013"><ele>538.0</ele><time>2026-04-11T13:38:39.999Z</time></trkpt><trkpt lat="43.86309599912055" lon="11.349870076697856"><ele>538.0</ele><time>2026-04-11T13:38:40.999Z</time></trkpt><trkpt lat="43.86317736807248" lon="11.349644287021679"><ele>538.0</ele><time>2026-04-11T13:38:41.999Z</time></trkpt><trkpt lat="43.863261677894165" lon="11.349402380137768"><ele>538.0</ele><time>2026-04-11T13:38:42.999Z</time></trkpt><trkpt lat="43.863338431591515" lon="11.349176280166068"><ele>538.0</ele><time>2026-04-11T13:38:43.999Z</time></trkpt><trkpt lat="43.863413783248006" lon="11.348955897631848"><ele>538.0</ele><time>2026-04-11T13:38:44.999Z</time></trkpt><trkpt lat="43.863490228112695" lon="11.348752173231675"><ele>538.5</ele><time>2026-04-11T13:38:45.999Z</time></trkpt><trkpt lat="43.86355759872773" lon="11.348566294714159"><ele>539.0</ele><time>2026-04-11T13:38:46.999Z</time></trkpt><trkpt lat="43.86362076647851" lon="11.34840051892487"><ele>539.5</ele><time>2026-04-11T13:38:47.999Z</time></trkpt><trkpt lat="43.86367981990182" lon="11.348206163677567"><ele>540.0</ele><time>2026-04-11T13:38:48.999Z</time></trkpt><trkpt lat="43.86374376556996" lon="11.34802690756536"><ele>540.0</ele><time>2026-04-11T13:38:49.999Z</time></trkpt><trkpt lat="43.863793246988706" lon="11.347815416470102"><ele>540.0</ele><time>2026-04-11T13:38:50.999Z</time></trkpt><trkpt lat="43.86381609517641" lon="11.347589414237255"><ele>540.0</ele><time>2026-04-11T13:38:51.999Z</time></trkpt><trkpt lat="43.863824341081724" lon="11.347335903847213"><ele>538.3333333333334</ele><time>2026-04-11T13:38:52.999Z</time></trkpt><trkpt lat="43.863822841685334" lon="11.347081753548718"><ele>536.6666666666667</ele><time>2026-04-11T13:38:53.999Z</time></trkpt><trkpt lat="43.86381176123596" lon="11.346855312710543"><ele>535.0</ele><time>2026-04-11T13:38:54.999Z</time></trkpt><trkpt lat="43.86380349200485" lon="11.346641923830546"><ele>535.0</ele><time>2026-04-11T13:38:55.999Z</time></trkpt><trkpt lat="43.863800004508676" lon="11.346430209430538"><ele>535.0</ele><time>2026-04-11T13:38:56.999Z</time></trkpt><trkpt lat="43.86379301883904" lon="11.346233395546315"><ele>535.0</ele><time>2026-04-11T13:38:57.999Z</time></trkpt><trkpt lat="43.863764537460554" lon="11.346036669660128"><ele>535.0</ele><time>2026-04-11T13:38:58.999Z</time></trkpt><trkpt lat="43.86372665455082" lon="11.34584818526768"><ele>534.0</ele><time>2026-04-11T13:38:59.999Z</time></trkpt><trkpt lat="43.8636597015911" lon="11.345686488371243"><ele>533.0</ele><time>2026-04-11T13:39:00.999Z</time></trkpt><trkpt lat="43.86356872629101" lon="11.345531345492661"><ele>532.0</ele><time>2026-04-11T13:39:01.999Z</time></trkpt><trkpt lat="43.863477269073975" lon="11.345385576867836"><ele>531.0</ele><time>2026-04-11T13:39:02.999Z</time></trkpt><trkpt lat="43.86340209069376" lon="11.345241295114882"><ele>531.0</ele><time>2026-04-11T13:39:03.999Z</time></trkpt><trkpt lat="43.863354193879815" lon="11.345140790082844"><ele>531.0</ele><time>2026-04-11T13:39:04.999Z</time></trkpt><trkpt lat="43.86330691698351" lon="11.345062127721233"><ele>531.0</ele><time>2026-04-11T13:39:05.999Z</time></trkpt><trkpt lat="43.86324540757934" lon="11.344963510962037"><ele>531.0</ele><time>2026-04-11T13:39:06.999Z</time></trkpt><trkpt lat="43.863193633131814" lon="11.344846367175082"><ele>531.0</ele><time>2026-04-11T13:39:08Z</time></trkpt><trkpt lat="43.86312152038638" lon="11.344708069484179"><ele>530.0</ele><time>2026-04-11T13:39:09Z</time></trkpt><trkpt lat="43.86304988536658" lon="11.34453860351703"><ele>529.0</ele><time>2026-04-11T13:39:10Z</time></trkpt><trkpt lat="43.86297900532172" lon="11.344367429333484"><ele>528.0</ele><time>2026-04-11T13:39:11Z</time></trkpt><trkpt lat="43.86291565663676" lon="11.344181488275922"><ele>527.0</ele><time>2026-04-11T13:39:12Z</time></trkpt><trkpt lat="43.86286461945374" lon="11.34397729700108"><ele>526.0</ele><time>2026-04-11T13:39:13Z</time></trkpt><trkpt lat="43.86281923244892" lon="11.343765878287533"><ele>525.0</ele><time>2026-04-11T13:39:14Z</time></trkpt><trkpt lat="43.86277526553726" lon="11.343543936149288"><ele>524.0</ele><time>2026-04-11T13:39:15Z</time></trkpt><trkpt lat="43.86272585295496" lon="11.343336856365282"><ele>524.0</ele><time>2026-04-11T13:39:16Z</time></trkpt><trkpt lat="43.86267309434044" lon="11.343134462518126"><ele>524.0</ele><time>2026-04-11T13:39:17Z</time></trkpt><trkpt lat="43.86261002222077" lon="11.342938918316184"><ele>524.0</ele><time>2026-04-11T13:39:18Z</time></trkpt><trkpt lat="43.86253205555383" lon="11.342769617880547"><ele>519.3333333333333</ele><time>2026-04-11T13:39:19Z</time></trkpt><trkpt lat="43.86243269167362" lon="11.342607689728299"><ele>514.6666666666666</ele><time>2026-04-11T13:39:20Z</time></trkpt><trkpt lat="43.86231785632459" lon="11.342437378466844"><ele>510.0</ele><time>2026-04-11T13:39:21Z</time></trkpt><trkpt lat="43.8622102432756" lon="11.342281101184813"><ele>508.0</ele><time>2026-04-11T13:39:22Z</time></trkpt><trkpt lat="43.8621062323685" lon="11.342124334524243"><ele>506.0</ele><time>2026-04-11T13:39:23Z</time></trkpt><trkpt lat="43.86202278311371" lon="11.341971142673685"><ele>504.0</ele><time>2026-04-11T13:39:24Z</time></trkpt><trkpt lat="43.86195517893164" lon="11.341816572146291"><ele>502.0</ele><time>2026-04-11T13:39:25Z</time></trkpt><trkpt lat="43.861897375931996" lon="11.341647628597702"><ele>502.0</ele><time>2026-04-11T13:39:26Z</time></trkpt><trkpt lat="43.86186737907032" lon="11.34148572093919"><ele>502.00000000000006</ele><time>2026-04-11T13:39:27Z</time></trkpt><trkpt lat="43.86185882813893" lon="11.341337252830174"><ele>502.00000000000006</ele><time>2026-04-11T13:39:28Z</time></trkpt><trkpt lat="43.861871153146254" lon="11.341216370495701"><ele>502.0</ele><time>2026-04-11T13:39:29Z</time></trkpt><trkpt lat="43.861959816654455" lon="11.341127956111716"><ele>502.0</ele><time>2026-04-11T13:39:31Z</time></trkpt><trkpt lat="43.86207050155961" lon="11.341147372823459"><ele>500.25</ele><time>2026-04-11T13:39:40Z</time></trkpt><trkpt lat="43.86221175321302" lon="11.341164156540586"><ele>498.5</ele><time>2026-04-11T13:39:42Z</time></trkpt><trkpt lat="43.86231328618633" lon="11.341173777760917"><ele>496.75</ele><time>2026-04-11T13:39:43Z</time></trkpt><trkpt lat="43.86242878129634" lon="11.341173719711929"><ele>495.0</ele><time>2026-04-11T13:39:44Z</time></trkpt><trkpt lat="43.86254712029977" lon="11.34113376323611"><ele>496.75</ele><time>2026-04-11T13:39:45Z</time></trkpt><trkpt lat="43.86267209800384" lon="11.341053929649338"><ele>498.5</ele><time>2026-04-11T13:39:46Z</time></trkpt><trkpt lat="43.86278013255288" lon="11.340945916681243"><ele>500.25</ele><time>2026-04-11T13:39:47Z</time></trkpt><trkpt lat="43.862866104869774" lon="11.340799545258047"><ele>502.0</ele><time>2026-04-11T13:39:48Z</time></trkpt><trkpt lat="43.86293873517939" lon="11.340630921006996"><ele>502.5</ele><time>2026-04-11T13:39:49Z</time></trkpt><trkpt lat="43.862998992982604" lon="11.34046770647164"><ele>503.0</ele><time>2026-04-11T13:39:50Z</time></trkpt><trkpt lat="43.863056447230036" lon="11.340316532960676"><ele>503.5</ele><time>2026-04-11T13:39:51Z</time></trkpt><trkpt lat="43.86311596872175" lon="11.340190089080952"><ele>504.0</ele><time>2026-04-11T13:39:52Z</time></trkpt><trkpt lat="43.86317098667921" lon="11.340078869154485"><ele>504.0</ele><time>2026-04-11T13:39:53Z</time></trkpt><trkpt lat="43.86322158274188" lon="11.3400165063381"><ele>504.0</ele><time>2026-04-11T13:39:54Z</time></trkpt><trkpt lat="43.86328599798616" lon="11.3399807370164"><ele>504.0</ele><time>2026-04-11T13:39:56Z</time></trkpt><trkpt lat="43.86335866150683" lon="11.339975823482828"><ele>504.0</ele><time>2026-04-11T13:40:07Z</time></trkpt><trkpt lat="43.86349011395777" lon="11.340005952726576"><ele>504.0</ele><time>2026-04-11T13:40:09Z</time></trkpt><trkpt lat="43.86357203334047" lon="11.34004593887247"><ele>504.0</ele><time>2026-04-11T13:40:10Z</time></trkpt><trkpt lat="43.86366013204334" lon="11.34008527699041"><ele>504.8571428571429</ele><time>2026-04-11T13:40:11Z</time></trkpt><trkpt lat="43.86373735072164" lon="11.340109428117257"><ele>505.7142857142857</ele><time>2026-04-11T13:40:12Z</time></trkpt><trkpt lat="43.863802312430956" lon="11.340134201912463"><ele>506.57142857142856</ele><time>2026-04-11T13:40:13Z</time></trkpt><trkpt lat="43.86386852885881" lon="11.340153621770755"><ele>507.42857142857144</ele><time>2026-04-11T13:40:14Z</time></trkpt><trkpt lat="43.863933775802465" lon="11.340168692874265"><ele>508.28571428571433</ele><time>2026-04-11T13:40:15Z</time></trkpt><trkpt lat="43.86399702551079" lon="11.34018732523196"><ele>509.14285714285717</ele><time>2026-04-11T13:40:16Z</time></trkpt><trkpt lat="43.864091950976054" lon="11.340237609739566"><ele>510.0</ele><time>2026-04-11T13:40:18Z</time></trkpt><trkpt lat="43.864114423922956" lon="11.340155968488856"><ele>510.0</ele><time>2026-04-11T13:40:21Z</time></trkpt><trkpt lat="43.864048271133534" lon="11.340143992421412"><ele>510.0</ele><time>2026-04-11T13:40:22Z</time></trkpt><trkpt lat="43.86395498444258" lon="11.340117442563944"><ele>510.0</ele><time>2026-04-11T13:40:23Z</time></trkpt><trkpt lat="43.86384836212611" lon="11.340084126222187"><ele>510.0</ele><time>2026-04-11T13:40:23.999Z</time></trkpt><trkpt lat="43.86373218243294" lon="11.340052161621564"><ele>510.0</ele><time>2026-04-11T13:40:24.999Z</time></trkpt><trkpt lat="43.8636206755864" lon="11.34002667724666"><ele>510.0</ele><time>2026-04-11T13:40:25.999Z</time></trkpt><trkpt lat="43.863519083417486" lon="11.33999256927858"><ele>510.0</ele><time>2026-04-11T13:40:26.999Z</time></trkpt><trkpt lat="43.86342686067156" lon="11.339955227799516"><ele>510.0</ele><time>2026-04-11T13:40:27.999Z</time></trkpt><trkpt lat="43.86335447029472" lon="11.339917599242419"><ele>510.0</ele><time>2026-04-11T13:40:28.999Z</time></trkpt><trkpt lat="43.863295640791414" lon="11.339816078876769"><ele>510.0</ele><time>2026-04-11T13:40:30.999Z</time></trkpt><trkpt lat="43.863335933153955" lon="11.339680724208945"><ele>509.6</ele><time>2026-04-11T13:40:32.999Z</time></trkpt><trkpt lat="43.863384528374986" lon="11.33958893956864"><ele>509.2</ele><time>2026-04-11T13:40:33.999Z</time></trkpt><trkpt lat="43.863428489981466" lon="11.339476624042389"><ele>508.79999999999995</ele><time>2026-04-11T13:40:34.999Z</time></trkpt><trkpt lat="43.863482073633" lon="11.339343539392889"><ele>508.4</ele><time>2026-04-11T13:40:35.999Z</time></trkpt><trkpt lat="43.86354757646954" lon="11.33919589258189"><ele>508.0</ele><time>2026-04-11T13:40:36.999Z</time></trkpt><trkpt lat="43.86362406000796" lon="11.33902763111667"><ele>506.75</ele><time>2026-04-11T13:40:37.999Z</time></trkpt><trkpt lat="43.863689616762045" lon="11.338873304599378"><ele>505.5</ele><time>2026-04-11T13:40:38.999Z</time></trkpt><trkpt lat="43.86375397482436" lon="11.338724805307182"><ele>504.25</ele><time>2026-04-11T13:40:39.999Z</time></trkpt><trkpt lat="43.863825974197276" lon="11.338602152013573"><ele>503.0</ele><time>2026-04-11T13:40:40.999Z</time></trkpt><trkpt lat="43.86387121107881" lon="11.338489429031474"><ele>503.0</ele><time>2026-04-11T13:40:41.999Z</time></trkpt><trkpt lat="43.86391903228651" lon="11.338338765417346"><ele>503.0</ele><time>2026-04-11T13:40:42.999Z</time></trkpt><trkpt lat="43.86394971572708" lon="11.338168786015348"><ele>503.0</ele><time>2026-04-11T13:40:43.999Z</time></trkpt><trkpt lat="43.86394412837749" lon="11.337975648672808"><ele>503.0</ele><time>2026-04-11T13:40:44.999Z</time></trkpt><trkpt lat="43.86392411541708" lon="11.337752961758074"><ele>501.5</ele><time>2026-04-11T13:40:45.999Z</time></trkpt><trkpt lat="43.86392327521265" lon="11.3375215759214"><ele>500.0</ele><time>2026-04-11T13:40:46.999Z</time></trkpt><trkpt lat="43.86393300082444" lon="11.337311332439873"><ele>498.5</ele><time>2026-04-11T13:40:47.999Z</time></trkpt><trkpt lat="43.86394056847471" lon="11.337135153065546"><ele>497.0</ele><time>2026-04-11T13:40:48.999Z</time></trkpt><trkpt lat="43.86395592577749" lon="11.33697370798151"><ele>495.25</ele><time>2026-04-11T13:40:49.999Z</time></trkpt><trkpt lat="43.86398518554921" lon="11.33681405154677"><ele>493.5</ele><time>2026-04-11T13:40:50.999Z</time></trkpt><trkpt lat="43.8640331756023" lon="11.336623040986435"><ele>491.75</ele><time>2026-04-11T13:40:51.999Z</time></trkpt><trkpt lat="43.86408208180673" lon="11.336423118881765"><ele>490.0</ele><time>2026-04-11T13:40:52.999Z</time></trkpt><trkpt lat="43.864118321047904" lon="11.33621795761999"><ele>490.25</ele><time>2026-04-11T13:40:53.999Z</time></trkpt><trkpt lat="43.86412471074658" lon="11.335980384664426"><ele>490.5</ele><time>2026-04-11T13:40:54.999Z</time></trkpt><trkpt lat="43.864123324187744" lon="11.335768855751722"><ele>490.75</ele><time>2026-04-11T13:40:55.999Z</time></trkpt><trkpt lat="43.8641319798688" lon="11.33563527968415"><ele>491.0</ele><time>2026-04-11T13:40:56.999Z</time></trkpt><trkpt lat="43.86412942682743" lon="11.335502238761984"><ele>491.0</ele><time>2026-04-11T13:40:57.999Z</time></trkpt><trkpt lat="43.86417377757645" lon="11.335337470910975"><ele>491.0</ele><time>2026-04-11T13:40:58.999Z</time></trkpt><trkpt lat="43.864186675569876" lon="11.335137513219593"><ele>491.0</ele><time>2026-04-11T13:40:59.999Z</time></trkpt><trkpt lat="43.864209190818656" lon="11.335004051625244"><ele>491.0</ele><time>2026-04-11T13:41:00.999Z</time></trkpt><trkpt lat="43.864176494037366" lon="11.334868821050044"><ele>492.25</ele><time>2026-04-11T13:41:01.999Z</time></trkpt><trkpt lat="43.86410984752412" lon="11.33471976847677"><ele>493.5</ele><time>2026-04-11T13:41:02.999Z</time></trkpt><trkpt lat="43.864042835191015" lon="11.334566655887144"><ele>494.75</ele><time>2026-04-11T13:41:03.999Z</time></trkpt><trkpt lat="43.863968005735906" lon="11.334420242314598"><ele>496.0</ele><time>2026-04-11T13:41:04.999Z</time></trkpt><trkpt lat="43.863852518033276" lon="11.334269498178367"><ele>496.0</ele><time>2026-04-11T13:41:05.999Z</time></trkpt><trkpt lat="43.863738471614035" lon="11.33413520334683"><ele>496.0</ele><time>2026-04-11T13:41:06.999Z</time></trkpt><trkpt lat="43.86363127824192" lon="11.334023296613756"><ele>496.0</ele><time>2026-04-11T13:41:07.999Z</time></trkpt><trkpt lat="43.86354521437704" lon="11.333882495701094"><ele>496.0</ele><time>2026-04-11T13:41:08.999Z</time></trkpt><trkpt lat="43.86347270791382" lon="11.333714786246478"><ele>494.0</ele><time>2026-04-11T13:41:09.999Z</time></trkpt><trkpt lat="43.86340645609022" lon="11.33356867813448"><ele>492.0</ele><time>2026-04-11T13:41:10.999Z</time></trkpt><trkpt lat="43.863334888663026" lon="11.33346694374572"><ele>490.0</ele><time>2026-04-11T13:41:11.999Z</time></trkpt><trkpt lat="43.86328572073708" lon="11.33337715120315"><ele>488.0</ele><time>2026-04-11T13:41:12.999Z</time></trkpt><trkpt lat="43.863315517096304" lon="11.333245514903972"><ele>486.0</ele><time>2026-04-11T13:41:15.001Z</time></trkpt><trkpt lat="43.86343814480824" lon="11.333233484332958"><ele>489.0</ele><time>2026-04-11T13:41:17.001Z</time></trkpt><trkpt lat="43.86350074287275" lon="11.333252851937418"><ele>492.0</ele><time>2026-04-11T13:41:18.001Z</time></trkpt><trkpt lat="43.86358519671868" lon="11.333258534661455"><ele>495.0</ele><time>2026-04-11T13:41:19Z</time></trkpt><trkpt lat="43.86367902058629" lon="11.333291096231546"><ele>498.0</ele><time>2026-04-11T13:41:20Z</time></trkpt><trkpt lat="43.86379133317265" lon="11.333308271508889"><ele>501.0</ele><time>2026-04-11T13:41:21Z</time></trkpt><trkpt lat="43.863911866727605" lon="11.333328202649136"><ele>501.0</ele><time>2026-04-11T13:41:22Z</time></trkpt><trkpt lat="43.864042322314866" lon="11.333355311540926"><ele>501.0</ele><time>2026-04-11T13:41:23Z</time></trkpt><trkpt lat="43.864176982436064" lon="11.333382107178254"><ele>501.0</ele><time>2026-04-11T13:41:24Z</time></trkpt><trkpt lat="43.86432523723518" lon="11.33339672537127"><ele>501.0</ele><time>2026-04-11T13:41:25Z</time></trkpt><trkpt lat="43.86446750452135" lon="11.333420265527597"><ele>502.75</ele><time>2026-04-11T13:41:26Z</time></trkpt><trkpt lat="43.86459272696971" lon="11.333421814454677"><ele>504.5</ele><time>2026-04-11T13:41:27Z</time></trkpt><trkpt lat="43.86469815144648" lon="11.333402786913705"><ele>506.25</ele><time>2026-04-11T13:41:28Z</time></trkpt><trkpt lat="43.864813862985855" lon="11.333315685212606"><ele>508.0</ele><time>2026-04-11T13:41:29Z</time></trkpt><trkpt lat="43.86491997774018" lon="11.33322570667221"><ele>508.0</ele><time>2026-04-11T13:41:30Z</time></trkpt><trkpt lat="43.86504713385731" lon="11.333173752325251"><ele>508.0</ele><time>2026-04-11T13:41:31Z</time></trkpt><trkpt lat="43.86520780124315" lon="11.333149549782602"><ele>508.0</ele><time>2026-04-11T13:41:32Z</time></trkpt><trkpt lat="43.865361700823215" lon="11.333137859638834"><ele>508.0</ele><time>2026-04-11T13:41:33Z</time></trkpt><trkpt lat="43.86550353569189" lon="11.333126182072162"><ele>509.5</ele><time>2026-04-11T13:41:34Z</time></trkpt><trkpt lat="43.86564305529517" lon="11.333117949436406"><ele>511.0</ele><time>2026-04-11T13:41:35Z</time></trkpt><trkpt lat="43.86576423989696" lon="11.333101138608372"><ele>512.5</ele><time>2026-04-11T13:41:36Z</time></trkpt><trkpt lat="43.86588716716992" lon="11.333123937761114"><ele>514.0</ele><time>2026-04-11T13:41:37Z</time></trkpt><trkpt lat="43.86602064915762" lon="11.333174162106982"><ele>514.0</ele><time>2026-04-11T13:41:38Z</time></trkpt><trkpt lat="43.86617177022775" lon="11.333260608203267"><ele>514.0</ele><time>2026-04-11T13:41:39Z</time></trkpt><trkpt lat="43.866335116143794" lon="11.333363649868275"><ele>514.0</ele><time>2026-04-11T13:41:40Z</time></trkpt><trkpt lat="43.86651645709108" lon="11.333459525312069"><ele>514.0</ele><time>2026-04-11T13:41:41Z</time></trkpt><trkpt lat="43.866694080546054" lon="11.33355888430902"><ele>514.0</ele><time>2026-04-11T13:41:42Z</time></trkpt><trkpt lat="43.866895187507154" lon="11.333645228521721"><ele>514.0</ele><time>2026-04-11T13:41:43Z</time></trkpt><trkpt lat="43.86709306165861" lon="11.333717951865166"><ele>511.6666666666667</ele><time>2026-04-11T13:41:44Z</time></trkpt><trkpt lat="43.86728031640788" lon="11.333779328518705"><ele>509.33333333333337</ele><time>2026-04-11T13:41:45Z</time></trkpt><trkpt lat="43.867471405152074" lon="11.333841177693014"><ele>507.0</ele><time>2026-04-11T13:41:46Z</time></trkpt><trkpt lat="43.867665091595754" lon="11.333896043974745"><ele>512.3333333333334</ele><time>2026-04-11T13:41:47Z</time></trkpt><trkpt lat="43.867856534923774" lon="11.333924829824012"><ele>517.6666666666667</ele><time>2026-04-11T13:41:48Z</time></trkpt><trkpt lat="43.8680365244778" lon="11.33394826755093"><ele>523.0</ele><time>2026-04-11T13:41:49Z</time></trkpt><trkpt lat="43.86819315695742" lon="11.333971934361424"><ele>523.0</ele><time>2026-04-11T13:41:50Z</time></trkpt><trkpt lat="43.86834939860424" lon="11.333990373752522"><ele>523.0</ele><time>2026-04-11T13:41:51Z</time></trkpt><trkpt lat="43.86850200757227" lon="11.333977710001037"><ele>523.0</ele><time>2026-04-11T13:41:52Z</time></trkpt><trkpt lat="43.86865346485969" lon="11.333906248970953"><ele>522.75</ele><time>2026-04-11T13:41:53Z</time></trkpt><trkpt lat="43.86878379008001" lon="11.333779732595259"><ele>522.5</ele><time>2026-04-11T13:41:54Z</time></trkpt><trkpt lat="43.8688883602025" lon="11.333630292515377"><ele>522.25</ele><time>2026-04-11T13:41:55Z</time></trkpt><trkpt lat="43.868993400237315" lon="11.33352049326912"><ele>522.0</ele><time>2026-04-11T13:41:56Z</time></trkpt><trkpt lat="43.869073616970205" lon="11.333476701384999"><ele>522.0</ele><time>2026-04-11T13:41:57Z</time></trkpt><trkpt lat="43.86917069659651" lon="11.33348781129884"><ele>522.0</ele><time>2026-04-11T13:41:58Z</time></trkpt><trkpt lat="43.869268703417056" lon="11.333597280013386"><ele>522.0</ele><time>2026-04-11T13:41:59Z</time></trkpt><trkpt lat="43.86936240459737" lon="11.333713695385773"><ele>522.0</ele><time>2026-04-11T13:42:00Z</time></trkpt><trkpt lat="43.86948028233876" lon="11.333812929278537"><ele>527.0</ele><time>2026-04-11T13:42:01Z</time></trkpt><trkpt lat="43.86959366843408" lon="11.333925366062315"><ele>532.0</ele><time>2026-04-11T13:42:02Z</time></trkpt><trkpt lat="43.86974083214754" lon="11.333999995817416"><ele>537.0</ele><time>2026-04-11T13:42:03Z</time></trkpt><trkpt lat="43.86992401784886" lon="11.334045873543557"><ele>539.6666666666666</ele><time>2026-04-11T13:42:04Z</time></trkpt><trkpt lat="43.870109092999314" lon="11.334092296382698"><ele>542.3333333333333</ele><time>2026-04-11T13:42:05Z</time></trkpt><trkpt lat="43.870266951909564" lon="11.334117763378512"><ele>545.0</ele><time>2026-04-11T13:42:06Z</time></trkpt><trkpt lat="43.87040607122596" lon="11.334150597316976"><ele>545.0</ele><time>2026-04-11T13:42:07Z</time></trkpt><trkpt lat="43.87053312985619" lon="11.334135886790108"><ele>545.0</ele><time>2026-04-11T13:42:08Z</time></trkpt><trkpt lat="43.87064143359837" lon="11.334066510080905"><ele>545.0</ele><time>2026-04-11T13:42:09Z</time></trkpt><trkpt lat="43.870744815333765" lon="11.333927895129174"><ele>545.0</ele><time>2026-04-11T13:42:10Z</time></trkpt><trkpt lat="43.87082135855759" lon="11.333745587175022"><ele>543.75</ele><time>2026-04-11T13:42:11Z</time></trkpt><trkpt lat="43.87086431220605" lon="11.333563921565192"><ele>542.5</ele><time>2026-04-11T13:42:12Z</time></trkpt><trkpt lat="43.87089006051395" lon="11.333375029375103"><ele>541.25</ele><time>2026-04-11T13:42:13Z</time></trkpt><trkpt lat="43.87091305369131" lon="11.33319716813543"><ele>540.0</ele><time>2026-04-11T13:42:14Z</time></trkpt><trkpt lat="43.87094843792244" lon="11.333059211880375"><ele>539.4</ele><time>2026-04-11T13:42:15Z</time></trkpt><trkpt lat="43.871016025776946" lon="11.332959895455238"><ele>538.8</ele><time>2026-04-11T13:42:16Z</time></trkpt><trkpt lat="43.87110657709277" lon="11.33292912137682"><ele>538.2</ele><time>2026-04-11T13:42:17Z</time></trkpt><trkpt lat="43.87118309121505" lon="11.332978618545127"><ele>537.6</ele><time>2026-04-11T13:42:18Z</time></trkpt><trkpt lat="43.87126016394368" lon="11.333050568378038"><ele>537.0</ele><time>2026-04-11T13:42:19Z</time></trkpt><trkpt lat="43.871338797003524" lon="11.333096736367558"><ele>540.25</ele><time>2026-04-11T13:42:20Z</time></trkpt><trkpt lat="43.87145745209536" lon="11.333124465191853"><ele>543.5</ele><time>2026-04-11T13:42:21Z</time></trkpt><trkpt lat="43.87157215422183" lon="11.333167001588887"><ele>546.75</ele><time>2026-04-11T13:42:22Z</time></trkpt><trkpt lat="43.87169441353095" lon="11.333206647202593"><ele>550.0</ele><time>2026-04-11T13:42:23Z</time></trkpt><trkpt lat="43.87183940863285" lon="11.333239532512948"><ele>550.75</ele><time>2026-04-11T13:42:24Z</time></trkpt><trkpt lat="43.872000746245085" lon="11.333283928845889"><ele>551.5</ele><time>2026-04-11T13:42:25Z</time></trkpt><trkpt lat="43.872131241433884" lon="11.33336367281847"><ele>552.25</ele><time>2026-04-11T13:42:26Z</time></trkpt><trkpt lat="43.872229224233024" lon="11.333464861546286"><ele>553.0</ele><time>2026-04-11T13:42:27Z</time></trkpt><trkpt lat="43.87235410328597" lon="11.333507849582972"><ele>553.0</ele><time>2026-04-11T13:42:28Z</time></trkpt><trkpt lat="43.872482197016325" lon="11.333472997797749"><ele>553.0</ele><time>2026-04-11T13:42:29Z</time></trkpt><trkpt lat="43.872614767122236" lon="11.333408095913564"><ele>553.0</ele><time>2026-04-11T13:42:30Z</time></trkpt><trkpt lat="43.87275361177905" lon="11.333332399871669"><ele>553.0</ele><time>2026-04-11T13:42:31Z</time></trkpt><trkpt lat="43.87287513364746" lon="11.333218872867482"><ele>554.3333333333334</ele><time>2026-04-11T13:42:32Z</time></trkpt><trkpt lat="43.87297874928961" lon="11.333055230824598"><ele>555.6666666666666</ele><time>2026-04-11T13:42:33Z</time></trkpt><trkpt lat="43.87305425213175" lon="11.332863954290271"><ele>557.0</ele><time>2026-04-11T13:42:33.999Z</time></trkpt><trkpt lat="43.873108099856765" lon="11.332651351433292"><ele>557.0</ele><time>2026-04-11T13:42:34.999Z</time></trkpt><trkpt lat="43.87315527365804" lon="11.332438082279786"><ele>557.0</ele><time>2026-04-11T13:42:35.999Z</time></trkpt><trkpt lat="43.873198511399934" lon="11.332221765180723"><ele>557.0</ele><time>2026-04-11T13:42:36.999Z</time></trkpt><trkpt lat="43.87324617354604" lon="11.331999763026765"><ele>557.0</ele><time>2026-04-11T13:42:37.999Z</time></trkpt><trkpt lat="43.87330331370238" lon="11.331786990343524"><ele>557.0</ele><time>2026-04-11T13:42:38.999Z</time></trkpt><trkpt lat="43.87335881669862" lon="11.33157394875467"><ele>557.0</ele><time>2026-04-11T13:42:39.999Z</time></trkpt><trkpt lat="43.87341690003646" lon="11.331372961710022"><ele>560.3333333333333</ele><time>2026-04-11T13:42:40.999Z</time></trkpt><trkpt lat="43.873478563014615" lon="11.331165167464617"><ele>563.6666666666666</ele><time>2026-04-11T13:42:41.999Z</time></trkpt><trkpt lat="43.87353770392972" lon="11.33095783328153"><ele>567.0</ele><time>2026-04-11T13:42:42.999Z</time></trkpt><trkpt lat="43.873555610801105" lon="11.330756874849348"><ele>567.6666666666666</ele><time>2026-04-11T13:42:43.999Z</time></trkpt><trkpt lat="43.87353582159755" lon="11.330542933586141"><ele>568.3333333333333</ele><time>2026-04-11T13:42:44.999Z</time></trkpt><trkpt lat="43.8734670821486" lon="11.330332941803587"><ele>569.0</ele><time>2026-04-11T13:42:45.999Z</time></trkpt><trkpt lat="43.87337453091662" lon="11.330143971768344"><ele>567.3333333333333</ele><time>2026-04-11T13:42:46.999Z</time></trkpt><trkpt lat="43.87331247104805" lon="11.329939244918624"><ele>565.6666666666666</ele><time>2026-04-11T13:42:47.999Z</time></trkpt><trkpt lat="43.87327195629861" lon="11.329715971892567"><ele>564.0</ele><time>2026-04-11T13:42:48.999Z</time></trkpt><trkpt lat="43.87320858932122" lon="11.329500020797209"><ele>564.0</ele><time>2026-04-11T13:42:49.999Z</time></trkpt><trkpt lat="43.87311715377307" lon="11.329304275731959"><ele>564.0</ele><time>2026-04-11T13:42:50.999Z</time></trkpt><trkpt lat="43.873028002498955" lon="11.329134611219981"><ele>564.0</ele><time>2026-04-11T13:42:51.999Z</time></trkpt><trkpt lat="43.872960319982155" lon="11.328970639426883"><ele>565.25</ele><time>2026-04-11T13:42:52.999Z</time></trkpt><trkpt lat="43.87292378778114" lon="11.328785623533792"><ele>566.5</ele><time>2026-04-11T13:42:53.999Z</time></trkpt><trkpt lat="43.87290379897399" lon="11.328584793882293"><ele>567.75</ele><time>2026-04-11T13:42:54.999Z</time></trkpt><trkpt lat="43.87287292058151" lon="11.328380204107122"><ele>569.0</ele><time>2026-04-11T13:42:55.999Z</time></trkpt><trkpt lat="43.87281731185495" lon="11.328209050912044"><ele>568.6666666666666</ele><time>2026-04-11T13:42:56.999Z</time></trkpt><trkpt lat="43.87277637040811" lon="11.328023158312002"><ele>568.3333333333334</ele><time>2026-04-11T13:42:57.999Z</time></trkpt><trkpt lat="43.8727557004525" lon="11.327811068424184"><ele>568.0</ele><time>2026-04-11T13:42:58.999Z</time></trkpt><trkpt lat="43.87274513830288" lon="11.327578802616555"><ele>568.0</ele><time>2026-04-11T13:42:59.999Z</time></trkpt><trkpt lat="43.872727868147855" lon="11.32736979925171"><ele>568.0</ele><time>2026-04-11T13:43:00.999Z</time></trkpt><trkpt lat="43.872711285405" lon="11.327168527705465"><ele>568.0</ele><time>2026-04-11T13:43:01.999Z</time></trkpt><trkpt lat="43.87270166123429" lon="11.326978831428685"><ele>568.0</ele><time>2026-04-11T13:43:02.999Z</time></trkpt><trkpt lat="43.872696545419714" lon="11.326821324334176"><ele>567.6666666666667</ele><time>2026-04-11T13:43:03.999Z</time></trkpt><trkpt lat="43.87269152500719" lon="11.326698795264752"><ele>567.3333333333334</ele><time>2026-04-11T13:43:04.999Z</time></trkpt><trkpt lat="43.872688205532" lon="11.326607883428053"><ele>567.0</ele><time>2026-04-11T13:43:05.999Z</time></trkpt><trkpt lat="43.87270673126954" lon="11.32647235540562"><ele>566.6666666666666</ele><time>2026-04-11T13:43:07.999Z</time></trkpt><trkpt lat="43.87264331444997" lon="11.326339795238896"><ele>566.3333333333333</ele><time>2026-04-11T13:43:09.999Z</time></trkpt><trkpt lat="43.87257582294939" lon="11.326312097071531"><ele>566.0</ele><time>2026-04-11T13:43:10.999Z</time></trkpt><trkpt lat="43.872497996449454" lon="11.32628020215024"><ele>561.75</ele><time>2026-04-11T13:43:11.999Z</time></trkpt><trkpt lat="43.87240264472448" lon="11.326224460129177"><ele>557.5</ele><time>2026-04-11T13:43:12.999Z</time></trkpt><trkpt lat="43.872301931257745" lon="11.326124803707579"><ele>553.25</ele><time>2026-04-11T13:43:13.999Z</time></trkpt><trkpt lat="43.872204662481394" lon="11.326000856576586"><ele>549.0</ele><time>2026-04-11T13:43:14.999Z</time></trkpt><trkpt lat="43.87211658227134" lon="11.325864963995812"><ele>549.0</ele><time>2026-04-11T13:43:15.999Z</time></trkpt><trkpt lat="43.872026986864604" lon="11.32571296318522"><ele>549.0</ele><time>2026-04-11T13:43:16.999Z</time></trkpt><trkpt lat="43.871938437820546" lon="11.32554133066062"><ele>549.0</ele><time>2026-04-11T13:43:17.999Z</time></trkpt><trkpt lat="43.87184839464984" lon="11.325372490531523"><ele>549.0</ele><time>2026-04-11T13:43:18.999Z</time></trkpt><trkpt lat="43.87175290980975" lon="11.325201779173696"><ele>547.0</ele><time>2026-04-11T13:43:20.001Z</time></trkpt><trkpt lat="43.87166268049037" lon="11.325017419368287"><ele>545.0</ele><time>2026-04-11T13:43:21.001Z</time></trkpt><trkpt lat="43.87156152737513" lon="11.324832412283492"><ele>543.0</ele><time>2026-04-11T13:43:22.001Z</time></trkpt><trkpt lat="43.87145974124187" lon="11.324633391758502"><ele>540.6666666666666</ele><time>2026-04-11T13:43:23.001Z</time></trkpt><trkpt lat="43.87135889824841" lon="11.324432050476709"><ele>538.3333333333333</ele><time>2026-04-11T13:43:24.001Z</time></trkpt><trkpt lat="43.87125736464548" lon="11.324233596455555"><ele>536.0</ele><time>2026-04-11T13:43:25Z</time></trkpt><trkpt lat="43.87115599273298" lon="11.324029159930195"><ele>534.0</ele><time>2026-04-11T13:43:26Z</time></trkpt><trkpt lat="43.871069715745676" lon="11.323841135109332"><ele>532.0</ele><time>2026-04-11T13:43:27Z</time></trkpt><trkpt lat="43.87099159577256" lon="11.32364582585483"><ele>530.0</ele><time>2026-04-11T13:43:28Z</time></trkpt><trkpt lat="43.87091282736651" lon="11.32345442895828"><ele>530.0</ele><time>2026-04-11T13:43:29Z</time></trkpt><trkpt lat="43.87084448560435" lon="11.323274371119538"><ele>530.0</ele><time>2026-04-11T13:43:30Z</time></trkpt><trkpt lat="43.870776946389604" lon="11.3231058499452"><ele>530.0</ele><time>2026-04-11T13:43:31Z</time></trkpt><trkpt lat="43.870712307626306" lon="11.32294446895713"><ele>530.0</ele><time>2026-04-11T13:43:32Z</time></trkpt><trkpt lat="43.87064057805293" lon="11.32276182507256"><ele>529.0</ele><time>2026-04-11T13:43:33Z</time></trkpt><trkpt lat="43.870579534331064" lon="11.322585013417097"><ele>528.0</ele><time>2026-04-11T13:43:34Z</time></trkpt><trkpt lat="43.87051195726014" lon="11.32240545390598"><ele>527.0</ele><time>2026-04-11T13:43:35Z</time></trkpt><trkpt lat="43.87046300931739" lon="11.322231270053642"><ele>526.0</ele><time>2026-04-11T13:43:36Z</time></trkpt><trkpt lat="43.87042480847886" lon="11.322048154297908"><ele>523.6666666666667</ele><time>2026-04-11T13:43:37Z</time></trkpt><trkpt lat="43.87038926763637" lon="11.321845541506153"><ele>521.3333333333334</ele><time>2026-04-11T13:43:38Z</time></trkpt><trkpt lat="43.87035942777281" lon="11.321624269530632"><ele>519.0</ele><time>2026-04-11T13:43:39Z</time></trkpt><trkpt lat="43.87031731030507" lon="11.321387722770952"><ele>516.0</ele><time>2026-04-11T13:43:40Z</time></trkpt><trkpt lat="43.870276975965" lon="11.321144370296167"><ele>513.0</ele><time>2026-04-11T13:43:41Z</time></trkpt><trkpt lat="43.87024264017836" lon="11.320930543206778"><ele>510.0</ele><time>2026-04-11T13:43:42Z</time></trkpt><trkpt lat="43.87021056584992" lon="11.320770769906712"><ele>510.0</ele><time>2026-04-11T13:43:43Z</time></trkpt><trkpt lat="43.87017860382699" lon="11.320614910117564"><ele>510.0</ele><time>2026-04-11T13:43:44Z</time></trkpt><trkpt lat="43.870146730551234" lon="11.320431480126526"><ele>510.0</ele><time>2026-04-11T13:43:45Z</time></trkpt><trkpt lat="43.87011121436914" lon="11.32022179092528"><ele>510.0</ele><time>2026-04-11T13:43:46Z</time></trkpt><trkpt lat="43.87006528235005" lon="11.320015472187748"><ele>511.25</ele><time>2026-04-11T13:43:47Z</time></trkpt><trkpt lat="43.87002082475167" lon="11.319842075919825"><ele>512.5</ele><time>2026-04-11T13:43:48Z</time></trkpt><trkpt lat="43.869984373581836" lon="11.319683091895747"><ele>513.75</ele><time>2026-04-11T13:43:49Z</time></trkpt><trkpt lat="43.86994803980501" lon="11.319533819994247"><ele>515.0</ele><time>2026-04-11T13:43:50Z</time></trkpt><trkpt lat="43.869926405611565" lon="11.319407020858769"><ele>515.0</ele><time>2026-04-11T13:43:51Z</time></trkpt><trkpt lat="43.86988637552625" lon="11.319275058255743"><ele>515.0</ele><time>2026-04-11T13:43:52Z</time></trkpt><trkpt lat="43.86983512063408" lon="11.31912341809101"><ele>515.0</ele><time>2026-04-11T13:43:53Z</time></trkpt><trkpt lat="43.86977323098983" lon="11.318963616081705"><ele>515.0</ele><time>2026-04-11T13:43:54Z</time></trkpt><trkpt lat="43.86971459074728" lon="11.318789787770324"><ele>514.0</ele><time>2026-04-11T13:43:55Z</time></trkpt><trkpt lat="43.8696604257974" lon="11.31861631400182"><ele>513.0</ele><time>2026-04-11T13:43:56Z</time></trkpt><trkpt lat="43.86960238094409" lon="11.318461583030865"><ele>512.0</ele><time>2026-04-11T13:43:57Z</time></trkpt><trkpt lat="43.86956325757015" lon="11.318324917234767"><ele>511.0</ele><time>2026-04-11T13:43:58Z</time></trkpt><trkpt lat="43.86953584585544" lon="11.318211661780458"><ele>511.00000000000006</ele><time>2026-04-11T13:43:59Z</time></trkpt><trkpt lat="43.869503505044804" lon="11.318122756139207"><ele>511.0</ele><time>2026-04-11T13:44:00Z</time></trkpt><trkpt lat="43.86948972765864" lon="11.318219512545047"><ele>511.0</ele><time>2026-04-11T13:44:10Z</time></trkpt><trkpt lat="43.8695360997027" lon="11.318307957133733"><ele>511.0</ele><time>2026-04-11T13:44:11Z</time></trkpt><trkpt lat="43.869589462013074" lon="11.31842579374327"><ele>511.00000000000006</ele><time>2026-04-11T13:44:12Z</time></trkpt><trkpt lat="43.86961043208683" lon="11.318575855508008"><ele>511.0</ele><time>2026-04-11T13:44:13Z</time></trkpt><trkpt lat="43.86966721813222" lon="11.318743958612885"><ele>512.3333333333334</ele><time>2026-04-11T13:44:14Z</time></trkpt><trkpt lat="43.86972242245029" lon="11.318928319087465"><ele>513.6666666666666</ele><time>2026-04-11T13:44:15Z</time></trkpt><trkpt lat="43.869789027452256" lon="11.319129610449524"><ele>515.0</ele><time>2026-04-11T13:44:16Z</time></trkpt><trkpt lat="43.869856653923925" lon="11.31932829677686"><ele>515.0</ele><time>2026-04-11T13:44:17Z</time></trkpt><trkpt lat="43.869915891036825" lon="11.319516446681284"><ele>515.0</ele><time>2026-04-11T13:44:18Z</time></trkpt><trkpt lat="43.86996033954678" lon="11.319699682470366"><ele>515.0</ele><time>2026-04-11T13:44:19Z</time></trkpt><trkpt lat="43.869990624790006" lon="11.31986141909775"><ele>515.0</ele><time>2026-04-11T13:44:20Z</time></trkpt><trkpt lat="43.87001964096103" lon="11.32001844924662"><ele>515.6</ele><time>2026-04-11T13:44:21Z</time></trkpt><trkpt lat="43.87005537021562" lon="11.320166209455458"><ele>516.2</ele><time>2026-04-11T13:44:22Z</time></trkpt><trkpt lat="43.87009541250347" lon="11.320300789893443"><ele>516.8</ele><time>2026-04-11T13:44:23Z</time></trkpt><trkpt lat="43.87013770231154" lon="11.320421684992663"><ele>517.4</ele><time>2026-04-11T13:44:24Z</time></trkpt><trkpt lat="43.87020073819004" lon="11.32053165403801"><ele>518.0</ele><time>2026-04-11T13:44:25Z</time></trkpt><trkpt lat="43.87027977265911" lon="11.320657478380005"><ele>516.0</ele><time>2026-04-11T13:44:26Z</time></trkpt><trkpt lat="43.87034943884113" lon="11.320807583178963"><ele>514.0</ele><time>2026-04-11T13:44:27Z</time></trkpt><trkpt lat="43.87043969247429" lon="11.320953370031368"><ele>512.0</ele><time>2026-04-11T13:44:28Z</time></trkpt><trkpt lat="43.8705307546508" lon="11.321095113720764"><ele>510.0</ele><time>2026-04-11T13:44:29Z</time></trkpt><trkpt lat="43.87062263999051" lon="11.321229964407475"><ele>510.0</ele><time>2026-04-11T13:44:30Z</time></trkpt><trkpt lat="43.870717993771194" lon="11.321345504797383"><ele>510.0</ele><time>2026-04-11T13:44:31Z</time></trkpt><trkpt lat="43.87081563850303" lon="11.321447282729697"><ele>510.0</ele><time>2026-04-11T13:44:32Z</time></trkpt><trkpt lat="43.87091279737036" lon="11.321529988173001"><ele>510.0</ele><time>2026-04-11T13:44:33Z</time></trkpt><trkpt lat="43.870996756874895" lon="11.321618054386855"><ele>508.8</ele><time>2026-04-11T13:44:34Z</time></trkpt><trkpt lat="43.87106764914727" lon="11.32171014090889"><ele>507.6</ele><time>2026-04-11T13:44:35Z</time></trkpt><trkpt lat="43.871135846821126" lon="11.321808185565192"><ele>506.4</ele><time>2026-04-11T13:44:36Z</time></trkpt><trkpt lat="43.871206186697385" lon="11.321912905690208"><ele>505.2</ele><time>2026-04-11T13:44:37Z</time></trkpt><trkpt lat="43.871285282008095" lon="11.322005601412966"><ele>504.0</ele><time>2026-04-11T13:44:38Z</time></trkpt><trkpt lat="43.871370967886605" lon="11.322094197539004"><ele>504.0</ele><time>2026-04-11T13:44:38.999Z</time></trkpt><trkpt lat="43.87145996848175" lon="11.322172090477787"><ele>504.0</ele><time>2026-04-11T13:44:39.999Z</time></trkpt><trkpt lat="43.87155568825117" lon="11.322232110679094"><ele>504.0</ele><time>2026-04-11T13:44:40.999Z</time></trkpt><trkpt lat="43.871654679053044" lon="11.322267435336572"><ele>504.0</ele><time>2026-04-11T13:44:41.999Z</time></trkpt><trkpt lat="43.87175373995786" lon="11.322280542478588"><ele>504.0</ele><time>2026-04-11T13:44:42.999Z</time></trkpt><trkpt lat="43.871850906304914" lon="11.322307474525752"><ele>503.4</ele><time>2026-04-11T13:44:43.999Z</time></trkpt><trkpt lat="43.871950367006" lon="11.322302093608764"><ele>502.79999999999995</ele><time>2026-04-11T13:44:44.999Z</time></trkpt><trkpt lat="43.87203830502021" lon="11.322258714025144"><ele>502.20000000000005</ele><time>2026-04-11T13:44:45.999Z</time></trkpt><trkpt lat="43.8721281663559" lon="11.322221303039386"><ele>501.6</ele><time>2026-04-11T13:44:46.999Z</time></trkpt><trkpt lat="43.87221427157527" lon="11.322174059148656"><ele>501.0</ele><time>2026-04-11T13:44:47.999Z</time></trkpt><trkpt lat="43.872303179453965" lon="11.32217892897473"><ele>501.0</ele><time>2026-04-11T13:44:48.999Z</time></trkpt><trkpt lat="43.872392013444475" lon="11.322168651350276"><ele>501.0</ele><time>2026-04-11T13:44:49.999Z</time></trkpt><trkpt lat="43.87248092951142" lon="11.322188961261789"><ele>501.0</ele><time>2026-04-11T13:44:50.999Z</time></trkpt><trkpt lat="43.87257405102458" lon="11.322211025161602"><ele>501.0</ele><time>2026-04-11T13:44:51.999Z</time></trkpt><trkpt lat="43.8726742538724" lon="11.322231721436886"><ele>501.0</ele><time>2026-04-11T13:44:52.999Z</time></trkpt><trkpt lat="43.87278672112548" lon="11.32224688396248"><ele>503.8</ele><time>2026-04-11T13:44:53.999Z</time></trkpt><trkpt lat="43.87288009630953" lon="11.322282840695035"><ele>506.6</ele><time>2026-04-11T13:44:54.999Z</time></trkpt><trkpt lat="43.87295922661546" lon="11.322295956931136"><ele>509.4</ele><time>2026-04-11T13:44:55.999Z</time></trkpt><trkpt lat="43.87305039063699" lon="11.32231106792864"><ele>512.2</ele><time>2026-04-11T13:44:56.999Z</time></trkpt><trkpt lat="43.87314454862969" lon="11.322314139162279"><ele>515.0</ele><time>2026-04-11T13:44:57.999Z</time></trkpt><trkpt lat="43.87324524490819" lon="11.32233913910349"><ele>515.0</ele><time>2026-04-11T13:44:58.999Z</time></trkpt><trkpt lat="43.873354081454494" lon="11.322365667396156"><ele>515.0</ele><time>2026-04-11T13:44:59.999Z</time></trkpt><trkpt lat="43.87344782242834" lon="11.322411308716152"><ele>515.0</ele><time>2026-04-11T13:45:00.999Z</time></trkpt><trkpt lat="43.87353218466773" lon="11.322502897589425"><ele>515.0</ele><time>2026-04-11T13:45:01.999Z</time></trkpt><trkpt lat="43.87360899283133" lon="11.322598152324147"><ele>515.0</ele><time>2026-04-11T13:45:02.999Z</time></trkpt><trkpt lat="43.873696927949254" lon="11.322677661225315"><ele>515.2</ele><time>2026-04-11T13:45:03.999Z</time></trkpt><trkpt lat="43.87376758566557" lon="11.32280353226886"><ele>515.4</ele><time>2026-04-11T13:45:04.999Z</time></trkpt><trkpt lat="43.87386192611376" lon="11.322876863939426"><ele>515.6</ele><time>2026-04-11T13:45:05.999Z</time></trkpt><trkpt lat="43.87394101775562" lon="11.322956249783308"><ele>515.8</ele><time>2026-04-11T13:45:06.999Z</time></trkpt><trkpt lat="43.874034041288205" lon="11.323006677628403"><ele>516.0</ele><time>2026-04-11T13:45:07.999Z</time></trkpt><trkpt lat="43.874146374194936" lon="11.323039537939527"><ele>517.0</ele><time>2026-04-11T13:45:08.999Z</time></trkpt><trkpt lat="43.8742735830223" lon="11.323054773261982"><ele>518.0</ele><time>2026-04-11T13:45:09.999Z</time></trkpt><trkpt lat="43.874411578290555" lon="11.323090296712103"><ele>519.0</ele><time>2026-04-11T13:45:10.999Z</time></trkpt><trkpt lat="43.874541636159805" lon="11.32313033906795"><ele>520.0</ele><time>2026-04-11T13:45:11.999Z</time></trkpt><trkpt lat="43.874671099368136" lon="11.323177398251264"><ele>521.6</ele><time>2026-04-11T13:45:12.999Z</time></trkpt><trkpt lat="43.87479325310366" lon="11.32322822326341"><ele>523.2</ele><time>2026-04-11T13:45:13.999Z</time></trkpt><trkpt lat="43.87489762229681" lon="11.32328320985255"><ele>524.8</ele><time>2026-04-11T13:45:14.999Z</time></trkpt><trkpt lat="43.87498019274385" lon="11.323323043803136"><ele>526.4</ele><time>2026-04-11T13:45:15.999Z</time></trkpt><trkpt lat="43.87505385531024" lon="11.323338935266701"><ele>528.0</ele><time>2026-04-11T13:45:16.999Z</time></trkpt><trkpt lat="43.87513451442309" lon="11.323306983421311"><ele>528.75</ele><time>2026-04-11T13:45:17.999Z</time></trkpt><trkpt lat="43.875195696023965" lon="11.323213840878122"><ele>529.5</ele><time>2026-04-11T13:45:18.999Z</time></trkpt><trkpt lat="43.87523451720833" lon="11.323074621511884"><ele>530.25</ele><time>2026-04-11T13:45:19.999Z</time></trkpt><trkpt lat="43.87525686567208" lon="11.322834288577594"><ele>531.0</ele><time>2026-04-11T13:45:20.999Z</time></trkpt><trkpt lat="43.875213702139924" lon="11.322597599781396"><ele>531.0</ele><time>2026-04-11T13:45:21.999Z</time></trkpt><trkpt lat="43.87525441540155" lon="11.322410359185044"><ele>531.0</ele><time>2026-04-11T13:45:22.999Z</time></trkpt><trkpt lat="43.875367424088736" lon="11.322386186216859"><ele>531.0</ele><time>2026-04-11T13:45:23.999Z</time></trkpt><trkpt lat="43.87541404439164" lon="11.322248498919658"><ele>531.0</ele><time>2026-04-11T13:45:24.999Z</time></trkpt><trkpt lat="43.87547168278452" lon="11.32214486575192"><ele>530.4</ele><time>2026-04-11T13:45:26.001Z</time></trkpt><trkpt lat="43.875536372091396" lon="11.322058434092494"><ele>529.8</ele><time>2026-04-11T13:45:27.001Z</time></trkpt><trkpt lat="43.875602587327116" lon="11.321991232659583"><ele>529.1999999999999</ele><time>2026-04-11T13:45:28.001Z</time></trkpt><trkpt lat="43.87569848521058" lon="11.32193063491693"><ele>528.6</ele><time>2026-04-11T13:45:29.001Z</time></trkpt><trkpt lat="43.87580601215462" lon="11.321864786207742"><ele>528.0</ele><time>2026-04-11T13:45:30.001Z</time></trkpt><trkpt lat="43.87591465467129" lon="11.321784405472197"><ele>528.75</ele><time>2026-04-11T13:45:31.001Z</time></trkpt><trkpt lat="43.87602253220166" lon="11.321729030554144"><ele>529.5</ele><time>2026-04-11T13:45:32.001Z</time></trkpt><trkpt lat="43.876127409622995" lon="11.321646404494462"><ele>530.25</ele><time>2026-04-11T13:45:33.001Z</time></trkpt><trkpt lat="43.87623931037512" lon="11.32154270754182"><ele>531.0</ele><time>2026-04-11T13:45:34.001Z</time></trkpt><trkpt lat="43.876338005489714" lon="11.32142720185801"><ele>529.0</ele><time>2026-04-11T13:45:35.001Z</time></trkpt><trkpt lat="43.876425278788055" lon="11.32128582291502"><ele>527.0</ele><time>2026-04-11T13:45:36.001Z</time></trkpt><trkpt lat="43.876510245837196" lon="11.321151151724145"><ele>525.0</ele><time>2026-04-11T13:45:37.001Z</time></trkpt><trkpt lat="43.87658369909492" lon="11.321015003391024"><ele>523.0</ele><time>2026-04-11T13:45:38.001Z</time></trkpt><trkpt lat="43.87666203302947" lon="11.320906891395456"><ele>523.0</ele><time>2026-04-11T13:45:39.001Z</time></trkpt><trkpt lat="43.87674707882333" lon="11.320838230722396"><ele>523.0</ele><time>2026-04-11T13:45:40.001Z</time></trkpt><trkpt lat="43.87684078708752" lon="11.320804286329578"><ele>523.0</ele><time>2026-04-11T13:45:41Z</time></trkpt><trkpt lat="43.87693369134257" lon="11.320823644228849"><ele>523.0</ele><time>2026-04-11T13:45:42Z</time></trkpt><trkpt lat="43.87703961744281" lon="11.320875467051565"><ele>523.0</ele><time>2026-04-11T13:45:43Z</time></trkpt><trkpt lat="43.8771547234827" lon="11.320976214255653"><ele>522.0</ele><time>2026-04-11T13:45:44Z</time></trkpt><trkpt lat="43.87727969402827" lon="11.321067855677454"><ele>521.0</ele><time>2026-04-11T13:45:45Z</time></trkpt><trkpt lat="43.87740979881884" lon="11.321095089347704"><ele>520.0</ele><time>2026-04-11T13:45:46Z</time></trkpt><trkpt lat="43.877568832345595" lon="11.321073587034483"><ele>519.0</ele><time>2026-04-11T13:45:47Z</time></trkpt><trkpt lat="43.877701219687566" lon="11.32103346166413"><ele>517.5</ele><time>2026-04-11T13:45:48Z</time></trkpt><trkpt lat="43.87784783446899" lon="11.320992053766075"><ele>516.0</ele><time>2026-04-11T13:45:49Z</time></trkpt><trkpt lat="43.87800144108342" lon="11.320965276030723"><ele>514.5</ele><time>2026-04-11T13:45:50Z</time></trkpt><trkpt lat="43.878141724981226" lon="11.320942359928221"><ele>513.0</ele><time>2026-04-11T13:45:51Z</time></trkpt><trkpt lat="43.87828529996863" lon="11.320922936699887"><ele>513.0</ele><time>2026-04-11T13:45:52Z</time></trkpt><trkpt lat="43.87841979568798" lon="11.320917400221402"><ele>513.0</ele><time>2026-04-11T13:45:53Z</time></trkpt><trkpt lat="43.878554701746246" lon="11.320925672447373"><ele>513.0</ele><time>2026-04-11T13:45:54Z</time></trkpt><trkpt lat="43.87866941378859" lon="11.320936992495854"><ele>513.0</ele><time>2026-04-11T13:45:55Z</time></trkpt><trkpt lat="43.878776972602054" lon="11.320948686945693"><ele>510.79999999999995</ele><time>2026-04-11T13:45:56Z</time></trkpt><trkpt lat="43.878869459366165" lon="11.320952533128663"><ele>508.59999999999997</ele><time>2026-04-11T13:45:57Z</time></trkpt><trkpt lat="43.87894063122624" lon="11.320920537852626"><ele>506.40000000000003</ele><time>2026-04-11T13:45:58Z</time></trkpt><trkpt lat="43.87899690668872" lon="11.320841476918527"><ele>504.20000000000005</ele><time>2026-04-11T13:45:59Z</time></trkpt><trkpt lat="43.87903634803546" lon="11.320713545166631"><ele>502.0</ele><time>2026-04-11T13:46:00Z</time></trkpt><trkpt lat="43.879050282200254" lon="11.320548914018994"><ele>501.25</ele><time>2026-04-11T13:46:01Z</time></trkpt><trkpt lat="43.87903848542075" lon="11.320362722407161"><ele>500.5</ele><time>2026-04-11T13:46:02Z</time></trkpt><trkpt lat="43.87900398662099" lon="11.320183291205094"><ele>499.75</ele><time>2026-04-11T13:46:03Z</time></trkpt><trkpt lat="43.878976121671116" lon="11.320022946178048"><ele>499.0</ele><time>2026-04-11T13:46:04Z</time></trkpt><trkpt lat="43.87896608792695" lon="11.319889158271453"><ele>499.00000000000006</ele><time>2026-04-11T13:46:05Z</time></trkpt><trkpt lat="43.878982528548605" lon="11.319783475360026"><ele>499.0</ele><time>2026-04-11T13:46:06Z</time></trkpt><trkpt lat="43.87903110835181" lon="11.319712068645385"><ele>499.0</ele><time>2026-04-11T13:46:07Z</time></trkpt><trkpt lat="43.87910877787854" lon="11.319714057033735"><ele>499.0</ele><time>2026-04-11T13:46:08Z</time></trkpt><trkpt lat="43.87918209811823" lon="11.319757698014625"><ele>499.00000000000006</ele><time>2026-04-11T13:46:09Z</time></trkpt><trkpt lat="43.87922490859134" lon="11.319832788014999"><ele>499.0</ele><time>2026-04-11T13:46:10Z</time></trkpt><trkpt lat="43.879254603736584" lon="11.319944694332092"><ele>497.6666666666667</ele><time>2026-04-11T13:46:11Z</time></trkpt><trkpt lat="43.879284586841884" lon="11.320063063875383"><ele>496.33333333333337</ele><time>2026-04-11T13:46:12Z</time></trkpt><trkpt lat="43.87930622495615" lon="11.320181243186447"><ele>495.0</ele><time>2026-04-11T13:46:13Z</time></trkpt><trkpt lat="43.87931239966417" lon="11.32028183899489"><ele>493.66666666666663</ele><time>2026-04-11T13:46:14Z</time></trkpt><trkpt lat="43.87934269288118" lon="11.320376587605617"><ele>492.3333333333333</ele><time>2026-04-11T13:46:15Z</time></trkpt><trkpt lat="43.87937543746901" lon="11.320488608879641"><ele>491.0</ele><time>2026-04-11T13:46:16Z</time></trkpt><trkpt lat="43.879404447619365" lon="11.320587526629392"><ele>490.99999999999994</ele><time>2026-04-11T13:46:17Z</time></trkpt><trkpt lat="43.879421603713126" lon="11.320687236462327"><ele>491.0</ele><time>2026-04-11T13:46:18Z</time></trkpt><trkpt lat="43.87942334718014" lon="11.320796531984367"><ele>491.0</ele><time>2026-04-11T13:46:19Z</time></trkpt><trkpt lat="43.87943409118932" lon="11.320909557311364"><ele>491.0</ele><time>2026-04-11T13:46:20Z</time></trkpt><trkpt lat="43.87946287466533" lon="11.32100768447519"><ele>490.99999999999994</ele><time>2026-04-11T13:46:21Z</time></trkpt><trkpt lat="43.879538567810854" lon="11.321057374739839"><ele>491.0</ele><time>2026-04-11T13:46:22Z</time></trkpt><trkpt lat="43.87962642333601" lon="11.321041194878637"><ele>491.0</ele><time>2026-04-11T13:46:23Z</time></trkpt><trkpt lat="43.87971977563456" lon="11.32101117698931"><ele>491.0</ele><time>2026-04-11T13:46:24Z</time></trkpt><trkpt lat="43.879784729876405" lon="11.3208996977433"><ele>491.0</ele><time>2026-04-11T13:46:25Z</time></trkpt><trkpt lat="43.87987123233407" lon="11.320811455728398"><ele>491.0</ele><time>2026-04-11T13:46:26Z</time></trkpt><trkpt lat="43.87994784380239" lon="11.32070893243312"><ele>491.0</ele><time>2026-04-11T13:46:27Z</time></trkpt><trkpt lat="43.88002533706271" lon="11.320589830758337"><ele>487.6</ele><time>2026-04-11T13:46:28Z</time></trkpt><trkpt lat="43.880102721564555" lon="11.32049568479883"><ele>484.20000000000005</ele><time>2026-04-11T13:46:29Z</time></trkpt><trkpt lat="43.88018668608032" lon="11.32045553137971"><ele>480.79999999999995</ele><time>2026-04-11T13:46:30Z</time></trkpt><trkpt lat="43.880269581782954" lon="11.320413041705262"><ele>477.4</ele><time>2026-04-11T13:46:31Z</time></trkpt><trkpt lat="43.88035989277985" lon="11.320410521852864"><ele>474.0</ele><time>2026-04-11T13:46:32Z</time></trkpt><trkpt lat="43.88044839756435" lon="11.320442007386442"><ele>474.0</ele><time>2026-04-11T13:46:33Z</time></trkpt><trkpt lat="43.88053768195738" lon="11.320442347471081"><ele>474.0</ele><time>2026-04-11T13:46:34Z</time></trkpt><trkpt lat="43.880621859813004" lon="11.3204656045526"><ele>474.0</ele><time>2026-04-11T13:46:35Z</time></trkpt><trkpt lat="43.880705366841084" lon="11.32048442197513"><ele>474.0</ele><time>2026-04-11T13:46:36Z</time></trkpt><trkpt lat="43.880784960959645" lon="11.320497868218347"><ele>474.0</ele><time>2026-04-11T13:46:36.999Z</time></trkpt><trkpt lat="43.880853221077935" lon="11.320507415356298"><ele>474.0</ele><time>2026-04-11T13:46:37.999Z</time></trkpt><trkpt lat="43.88092374982146" lon="11.320508236034453"><ele>473.5</ele><time>2026-04-11T13:46:38.999Z</time></trkpt><trkpt lat="43.88099671311697" lon="11.32050259130411"><ele>473.0</ele><time>2026-04-11T13:46:39.999Z</time></trkpt><trkpt lat="43.881068374170404" lon="11.32050320743864"><ele>472.5</ele><time>2026-04-11T13:46:40.999Z</time></trkpt><trkpt lat="43.88113793626571" lon="11.3205052890174"><ele>472.0</ele><time>2026-04-11T13:46:41.999Z</time></trkpt><trkpt lat="43.88120659402684" lon="11.32051776045563"><ele>471.5</ele><time>2026-04-11T13:46:42.999Z</time></trkpt><trkpt lat="43.8813200055855" lon="11.32052808700602"><ele>471.0</ele><time>2026-04-11T13:46:44.999Z</time></trkpt><trkpt lat="43.88142407874365" lon="11.320488807509598"><ele>471.0</ele><time>2026-04-11T13:46:46.999Z</time></trkpt><trkpt lat="43.88155958238493" lon="11.320468725256212"><ele>471.0</ele><time>2026-04-11T13:46:48.999Z</time></trkpt><trkpt lat="43.881625442580386" lon="11.320426683021106"><ele>471.0</ele><time>2026-04-11T13:46:49.999Z</time></trkpt><trkpt lat="43.881730560119195" lon="11.320393902191814"><ele>471.0</ele><time>2026-04-11T13:46:51.999Z</time></trkpt><trkpt lat="43.881800171401196" lon="11.320379443533646"><ele>471.0</ele><time>2026-04-11T13:46:53.999Z</time></trkpt><trkpt lat="43.881873588823005" lon="11.320365328774123"><ele>471.0</ele><time>2026-04-11T13:47:58Z</time></trkpt><trkpt lat="43.88178946973169" lon="11.320338600060426"><ele>471.0</ele><time>2026-04-11T13:48:03Z</time></trkpt><trkpt lat="43.88168871211359" lon="11.32038455561094"><ele>471.0</ele><time>2026-04-11T13:48:05Z</time></trkpt><trkpt lat="43.88156816285021" lon="11.320421303898254"><ele>471.0</ele><time>2026-04-11T13:48:07Z</time></trkpt><trkpt lat="43.88150262521174" lon="11.320438872269007"><ele>471.0</ele><time>2026-04-11T13:48:08Z</time></trkpt><trkpt lat="43.88143167399508" lon="11.32046913760303"><ele>471.0</ele><time>2026-04-11T13:48:09Z</time></trkpt><trkpt lat="43.88130410882985" lon="11.320521949365084"><ele>471.0</ele><time>2026-04-11T13:48:10Z</time></trkpt><trkpt lat="43.881207709655214" lon="11.32050962800995"><ele>471.0</ele><time>2026-04-11T13:48:11Z</time></trkpt><trkpt lat="43.8810909812983" lon="11.320494361285427"><ele>471.0</ele><time>2026-04-11T13:48:12Z</time></trkpt><trkpt lat="43.8809589026584" lon="11.320498279411439"><ele>471.75</ele><time>2026-04-11T13:48:13Z</time></trkpt><trkpt lat="43.88084507190085" lon="11.320503365531447"><ele>472.5</ele><time>2026-04-11T13:48:14Z</time></trkpt><trkpt lat="43.880720796767434" lon="11.320481984336665"><ele>473.25</ele><time>2026-04-11T13:48:15Z</time></trkpt><trkpt lat="43.880597268781045" lon="11.320448021153881"><ele>474.0</ele><time>2026-04-11T13:48:16Z</time></trkpt><trkpt lat="43.880481219842245" lon="11.320415681801144"><ele>474.0</ele><time>2026-04-11T13:48:17Z</time></trkpt><trkpt lat="43.88035993985692" lon="11.320377943362748"><ele>474.0</ele><time>2026-04-11T13:48:18Z</time></trkpt><trkpt lat="43.880227728084776" lon="11.320386919523786"><ele>474.0</ele><time>2026-04-11T13:48:19Z</time></trkpt><trkpt lat="43.880092388102376" lon="11.320487432447889"><ele>474.0</ele><time>2026-04-11T13:48:20Z</time></trkpt><trkpt lat="43.87997349169684" lon="11.320573103233519"><ele>478.25</ele><time>2026-04-11T13:48:21Z</time></trkpt><trkpt lat="43.8798789650202" lon="11.320743134447797"><ele>482.5</ele><time>2026-04-11T13:48:23Z</time></trkpt><trkpt lat="43.87981698961709" lon="11.320819976057765"><ele>486.75</ele><time>2026-04-11T13:48:24Z</time></trkpt><trkpt lat="43.87976537639395" lon="11.32088904888661"><ele>491.0</ele><time>2026-04-11T13:48:26Z</time></trkpt><trkpt lat="43.879531123701625" lon="11.320927581881124"><ele>491.0</ele><time>2026-04-11T13:48:28Z</time></trkpt><trkpt lat="43.879524321515916" lon="11.320789043837113"><ele>491.0</ele><time>2026-04-11T13:48:29Z</time></trkpt><trkpt lat="43.879540454128005" lon="11.320649698826768"><ele>491.0</ele><time>2026-04-11T13:48:30Z</time></trkpt><trkpt lat="43.87944288435766" lon="11.320693653281547"><ele>491.0</ele><time>2026-04-11T13:48:31Z</time></trkpt><trkpt lat="43.87943126162205" lon="11.320551757613092"><ele>491.0</ele><time>2026-04-11T13:48:32Z</time></trkpt><trkpt lat="43.87939638801893" lon="11.320410970701406"><ele>489.5</ele><time>2026-04-11T13:48:33Z</time></trkpt><trkpt lat="43.87935281547252" lon="11.320264126283066"><ele>488.0</ele><time>2026-04-11T13:48:34Z</time></trkpt><trkpt lat="43.87931206905112" lon="11.32011548356718"><ele>486.5</ele><time>2026-04-11T13:48:35Z</time></trkpt><trkpt lat="43.87927320979777" lon="11.319954548041647"><ele>485.0</ele><time>2026-04-11T13:48:36Z</time></trkpt><trkpt lat="43.87922230886533" lon="11.319836330540502"><ele>487.3333333333333</ele><time>2026-04-11T13:48:36.999Z</time></trkpt><trkpt lat="43.87918956450448" lon="11.31972760368815"><ele>489.66666666666663</ele><time>2026-04-11T13:48:37.999Z</time></trkpt><trkpt lat="43.8791294121855" lon="11.31965756485918"><ele>492.0</ele><time>2026-04-11T13:48:38.999Z</time></trkpt><trkpt lat="43.87905276430304" lon="11.319643800616499"><ele>494.33333333333337</ele><time>2026-04-11T13:48:39.999Z</time></trkpt><trkpt lat="43.878978801023166" lon="11.319693997805354"><ele>496.6666666666667</ele><time>2026-04-11T13:48:40.999Z</time></trkpt><trkpt lat="43.87892426921011" lon="11.31979193277733"><ele>499.0</ele><time>2026-04-11T13:48:41.999Z</time></trkpt><trkpt lat="43.8789021243759" lon="11.319920728672459"><ele>499.0</ele><time>2026-04-11T13:48:42.999Z</time></trkpt><trkpt lat="43.87891451373964" lon="11.32006087538346"><ele>499.0</ele><time>2026-04-11T13:48:43.999Z</time></trkpt><trkpt lat="43.87894491700689" lon="11.320201576132465"><ele>499.0</ele><time>2026-04-11T13:48:44.999Z</time></trkpt><trkpt lat="43.87896969531204" lon="11.320339775584685"><ele>499.0</ele><time>2026-04-11T13:48:45.999Z</time></trkpt><trkpt lat="43.878978882381254" lon="11.320466927004126"><ele>499.0</ele><time>2026-04-11T13:48:46.999Z</time></trkpt><trkpt lat="43.87897984329422" lon="11.320614590369138"><ele>499.6</ele><time>2026-04-11T13:48:47.999Z</time></trkpt><trkpt lat="43.87897795411551" lon="11.32075085011903"><ele>500.2</ele><time>2026-04-11T13:48:48.999Z</time></trkpt><trkpt lat="43.878952791141806" lon="11.320867240509667"><ele>500.80000000000007</ele><time>2026-04-11T13:48:49.999Z</time></trkpt><trkpt lat="43.87889594180952" lon="11.32095904683609"><ele>501.40000000000003</ele><time>2026-04-11T13:48:50.999Z</time></trkpt><trkpt lat="43.878811171003264" lon="11.320978923377996"><ele>502.0</ele><time>2026-04-11T13:48:51.999Z</time></trkpt><trkpt lat="43.878690612315296" lon="11.320928519960598"><ele>502.0</ele><time>2026-04-11T13:48:52.999Z</time></trkpt><trkpt lat="43.87858398791384" lon="11.320917797810914"><ele>502.00000000000006</ele><time>2026-04-11T13:48:53.999Z</time></trkpt><trkpt lat="43.87846821979962" lon="11.320907829877479"><ele>502.00000000000006</ele><time>2026-04-11T13:48:54.999Z</time></trkpt><trkpt lat="43.878351593005064" lon="11.320899874686296"><ele>502.0</ele><time>2026-04-11T13:48:55.999Z</time></trkpt><trkpt lat="43.87825285261848" lon="11.32089977617468"><ele>502.0</ele><time>2026-04-11T13:48:56.999Z</time></trkpt><trkpt lat="43.87814131410279" lon="11.320913707519246"><ele>504.75</ele><time>2026-04-11T13:48:57.999Z</time></trkpt><trkpt lat="43.87802074125203" lon="11.320931252308096"><ele>507.5</ele><time>2026-04-11T13:48:58.999Z</time></trkpt><trkpt lat="43.87789559245511" lon="11.320956341214595"><ele>510.25</ele><time>2026-04-11T13:48:59.999Z</time></trkpt><trkpt lat="43.8777779531846" lon="11.320988172218001"><ele>513.0</ele><time>2026-04-11T13:49:00.999Z</time></trkpt><trkpt lat="43.87766256788792" lon="11.321024337222616"><ele>514.5</ele><time>2026-04-11T13:49:01.999Z</time></trkpt><trkpt lat="43.87755018472882" lon="11.321042384813023"><ele>516.0</ele><time>2026-04-11T13:49:02.999Z</time></trkpt><trkpt lat="43.87743617470931" lon="11.321059417891822"><ele>517.5</ele><time>2026-04-11T13:49:03.999Z</time></trkpt><trkpt lat="43.87731086104601" lon="11.321064685564085"><ele>519.0</ele><time>2026-04-11T13:49:04.999Z</time></trkpt><trkpt lat="43.87718566235547" lon="11.321045681650835"><ele>519.0</ele><time>2026-04-11T13:49:05.999Z</time></trkpt><trkpt lat="43.87707685915786" lon="11.320993514011192"><ele>519.0</ele><time>2026-04-11T13:49:06.999Z</time></trkpt><trkpt lat="43.87698750767317" lon="11.32091288074485"><ele>519.0</ele><time>2026-04-11T13:49:07.999Z</time></trkpt><trkpt lat="43.876898833485455" lon="11.320858801472873"><ele>519.0</ele><time>2026-04-11T13:49:08.999Z</time></trkpt><trkpt lat="43.87681118111542" lon="11.320844654757302"><ele>519.0</ele><time>2026-04-11T13:49:09.999Z</time></trkpt><trkpt lat="43.87672618651137" lon="11.320866722298165"><ele>519.6666666666666</ele><time>2026-04-11T13:49:10.999Z</time></trkpt><trkpt lat="43.87665567100754" lon="11.32090965152245"><ele>520.3333333333334</ele><time>2026-04-11T13:49:11.999Z</time></trkpt><trkpt lat="43.876593764944964" lon="11.320967144783793"><ele>521.0</ele><time>2026-04-11T13:49:12.999Z</time></trkpt><trkpt lat="43.87650982694771" lon="11.321004350668808"><ele>521.6666666666667</ele><time>2026-04-11T13:49:14.999Z</time></trkpt><trkpt lat="43.87644583730785" lon="11.320867670923295"><ele>522.3333333333334</ele><time>2026-04-11T13:49:16.999Z</time></trkpt><trkpt lat="43.876437411930844" lon="11.320754920325985"><ele>523.0</ele><time>2026-04-11T13:49:17.999Z</time></trkpt><trkpt lat="43.87645619992488" lon="11.320651445630357"><ele>522.3333333333334</ele><time>2026-04-11T13:49:18.999Z</time></trkpt><trkpt lat="43.87649686235868" lon="11.320565624397306"><ele>521.6666666666667</ele><time>2026-04-11T13:49:19.999Z</time></trkpt><trkpt lat="43.876553670421245" lon="11.3205035548408"><ele>521.0</ele><time>2026-04-11T13:49:20.999Z</time></trkpt><trkpt lat="43.87660241129153" lon="11.320442462523996"><ele>520.3333333333334</ele><time>2026-04-11T13:49:21.999Z</time></trkpt><trkpt lat="43.87665426514165" lon="11.320368258189477"><ele>519.6666666666666</ele><time>2026-04-11T13:49:22.999Z</time></trkpt><trkpt lat="43.876715191030264" lon="11.32028064339981"><ele>519.0</ele><time>2026-04-11T13:49:23.999Z</time></trkpt><trkpt lat="43.87676900202601" lon="11.320196370592218"><ele>519.0</ele><time>2026-04-11T13:49:24.999Z</time></trkpt><trkpt lat="43.87681053692811" lon="11.32011702397108"><ele>519.0</ele><time>2026-04-11T13:49:25.999Z</time></trkpt><trkpt lat="43.87682918518283" lon="11.320029393012396"><ele>519.0</ele><time>2026-04-11T13:49:26.999Z</time></trkpt><trkpt lat="43.87683420119608" lon="11.319930585186011"><ele>519.0</ele><time>2026-04-11T13:49:27.999Z</time></trkpt><trkpt lat="43.876821213564625" lon="11.319820067183475"><ele>519.0</ele><time>2026-04-11T13:49:28.999Z</time></trkpt><trkpt lat="43.87678274587954" lon="11.31971429867639"><ele>519.0</ele><time>2026-04-11T13:49:29.999Z</time></trkpt><trkpt lat="43.876716410770285" lon="11.319604929964289"><ele>519.0</ele><time>2026-04-11T13:49:30.999Z</time></trkpt><trkpt lat="43.876651545862266" lon="11.31949575254898"><ele>519.0</ele><time>2026-04-11T13:49:31.999Z</time></trkpt><trkpt lat="43.8765997554346" lon="11.319366369990904"><ele>519.0</ele><time>2026-04-11T13:49:32.999Z</time></trkpt><trkpt lat="43.87654406124625" lon="11.31923657345452"><ele>519.0</ele><time>2026-04-11T13:49:33.999Z</time></trkpt><trkpt lat="43.876507589760564" lon="11.319118280987082"><ele>519.0</ele><time>2026-04-11T13:49:34.999Z</time></trkpt><trkpt lat="43.87647476808695" lon="11.318999131573158"><ele>517.8</ele><time>2026-04-11T13:49:35.999Z</time></trkpt><trkpt lat="43.87645475196454" lon="11.318884578224878"><ele>516.5999999999999</ele><time>2026-04-11T13:49:36.999Z</time></trkpt><trkpt lat="43.8764434802555" lon="11.318779022714395"><ele>515.4</ele><time>2026-04-11T13:49:38Z</time></trkpt><trkpt lat="43.87646993310885" lon="11.318643612677233"><ele>514.1999999999999</ele><time>2026-04-11T13:49:39Z</time></trkpt><trkpt lat="43.876481656451084" lon="11.318505263314766"><ele>513.0</ele><time>2026-04-11T13:49:40Z</time></trkpt><trkpt lat="43.87650208624124" lon="11.318323534087884"><ele>513.0</ele><time>2026-04-11T13:49:41Z</time></trkpt><trkpt lat="43.87649861661029" lon="11.31815296126784"><ele>513.0</ele><time>2026-04-11T13:49:42Z</time></trkpt><trkpt lat="43.876497230548445" lon="11.31799843225553"><ele>513.0</ele><time>2026-04-11T13:49:43Z</time></trkpt><trkpt lat="43.87650700318971" lon="11.31784953628276"><ele>513.0</ele><time>2026-04-11T13:49:44Z</time></trkpt><trkpt lat="43.87654491029867" lon="11.317685422205239"><ele>512.8</ele><time>2026-04-11T13:49:45Z</time></trkpt><trkpt lat="43.87654598462956" lon="11.317528788101257"><ele>512.5999999999999</ele><time>2026-04-11T13:49:46Z</time></trkpt><trkpt lat="43.87656366520631" lon="11.317387876472878"><ele>512.4000000000001</ele><time>2026-04-11T13:49:47Z</time></trkpt><trkpt lat="43.876591590866504" lon="11.317250756941934"><ele>512.2</ele><time>2026-04-11T13:49:48Z</time></trkpt><trkpt lat="43.87663785859396" lon="11.317091007723521"><ele>512.0</ele><time>2026-04-11T13:49:49Z</time></trkpt><trkpt lat="43.87667877801034" lon="11.316921872403679"><ele>512.0</ele><time>2026-04-11T13:49:50Z</time></trkpt><trkpt lat="43.87670662785747" lon="11.316740794170434"><ele>512.0</ele><time>2026-04-11T13:49:51Z</time></trkpt><trkpt lat="43.8767282237693" lon="11.316579555752439"><ele>512.0</ele><time>2026-04-11T13:49:52Z</time></trkpt><trkpt lat="43.87674235040822" lon="11.316429238451835"><ele>512.0</ele><time>2026-04-11T13:49:53Z</time></trkpt><trkpt lat="43.876764177845416" lon="11.316288574751157"><ele>509.75</ele><time>2026-04-11T13:49:54Z</time></trkpt><trkpt lat="43.876780874766546" lon="11.316124034365332"><ele>507.5</ele><time>2026-04-11T13:49:55Z</time></trkpt><trkpt lat="43.876812124129025" lon="11.315961432837083"><ele>505.25</ele><time>2026-04-11T13:49:56Z</time></trkpt><trkpt lat="43.876849267720154" lon="11.315802919750338"><ele>503.0</ele><time>2026-04-11T13:49:57Z</time></trkpt><trkpt lat="43.87685028417507" lon="11.315644877396645"><ele>503.75</ele><time>2026-04-11T13:49:58Z</time></trkpt><trkpt lat="43.876858085819165" lon="11.315477583667688"><ele>504.5</ele><time>2026-04-11T13:49:59Z</time></trkpt><trkpt lat="43.876876516904204" lon="11.315330312604228"><ele>505.25</ele><time>2026-04-11T13:50:00Z</time></trkpt><trkpt lat="43.87689492696935" lon="11.315182350082859"><ele>506.0</ele><time>2026-04-11T13:50:01Z</time></trkpt><trkpt lat="43.876933192148876" lon="11.315026098857867"><ele>506.0</ele><time>2026-04-11T13:50:02Z</time></trkpt><trkpt lat="43.876956756788836" lon="11.314886163581615"><ele>506.0</ele><time>2026-04-11T13:50:03Z</time></trkpt><trkpt lat="43.87698106835483" lon="11.314753711682036"><ele>506.0</ele><time>2026-04-11T13:50:04Z</time></trkpt><trkpt lat="43.8770110710171" lon="11.314626971146028"><ele>506.0</ele><time>2026-04-11T13:50:05Z</time></trkpt><trkpt lat="43.87703238233987" lon="11.314480815309738"><ele>506.0</ele><time>2026-04-11T13:50:06Z</time></trkpt><trkpt lat="43.87705758664818" lon="11.314338333282262"><ele>506.20000000000005</ele><time>2026-04-11T13:50:07Z</time></trkpt><trkpt lat="43.87707197744116" lon="11.314197823975318"><ele>506.40000000000003</ele><time>2026-04-11T13:50:08Z</time></trkpt><trkpt lat="43.87708364735073" lon="11.314060947571019"><ele>506.6</ele><time>2026-04-11T13:50:09Z</time></trkpt><trkpt lat="43.877086248173995" lon="11.31393608477122"><ele>506.8</ele><time>2026-04-11T13:50:10Z</time></trkpt><trkpt lat="43.8771010188283" lon="11.313805989674126"><ele>507.0</ele><time>2026-04-11T13:50:11Z</time></trkpt><trkpt lat="43.8771104829341" lon="11.31365820279649"><ele>507.0</ele><time>2026-04-11T13:50:12Z</time></trkpt><trkpt lat="43.877105860314806" lon="11.313503803844899"><ele>507.00000000000006</ele><time>2026-04-11T13:50:13Z</time></trkpt><trkpt lat="43.87709820343764" lon="11.313363513019265"><ele>507.00000000000006</ele><time>2026-04-11T13:50:14Z</time></trkpt><trkpt lat="43.87709904849359" lon="11.313230921969348"><ele>507.0</ele><time>2026-04-11T13:50:15Z</time></trkpt><trkpt lat="43.87711337049049" lon="11.313127948411934"><ele>507.0</ele><time>2026-04-11T13:50:16Z</time></trkpt><trkpt lat="43.87711527465535" lon="11.313031245378818"><ele>506.20000000000005</ele><time>2026-04-11T13:50:17Z</time></trkpt><trkpt lat="43.87710771992642" lon="11.312873257887713"><ele>505.40000000000003</ele><time>2026-04-11T13:50:18.999Z</time></trkpt><trkpt lat="43.87710639249494" lon="11.312779410691864"><ele>504.59999999999997</ele><time>2026-04-11T13:50:19.999Z</time></trkpt><trkpt lat="43.877107240696574" lon="11.312659175082144"><ele>503.79999999999995</ele><time>2026-04-11T13:50:20.999Z</time></trkpt><trkpt lat="43.87711318550217" lon="11.312506828708129"><ele>503.0</ele><time>2026-04-11T13:50:21.999Z</time></trkpt><trkpt lat="43.87711719298374" lon="11.31233156016808"><ele>502.25</ele><time>2026-04-11T13:50:22.999Z</time></trkpt><trkpt lat="43.877121482410054" lon="11.312143752337848"><ele>501.5</ele><time>2026-04-11T13:50:23.999Z</time></trkpt><trkpt lat="43.877120345640655" lon="11.311970106919887"><ele>500.75</ele><time>2026-04-11T13:50:24.999Z</time></trkpt><trkpt lat="43.87712406604974" lon="11.311790319105773"><ele>500.0</ele><time>2026-04-11T13:50:25.999Z</time></trkpt><trkpt lat="43.87711133034069" lon="11.311620255035095"><ele>500.0</ele><time>2026-04-11T13:50:26.999Z</time></trkpt><trkpt lat="43.87710712034913" lon="11.311456916303507"><ele>500.0</ele><time>2026-04-11T13:50:27.999Z</time></trkpt><trkpt lat="43.87710338781594" lon="11.311297190818651"><ele>500.0</ele><time>2026-04-11T13:50:28.999Z</time></trkpt><trkpt lat="43.877118730713796" lon="11.31114083399846"><ele>500.0</ele><time>2026-04-11T13:50:29.999Z</time></trkpt><trkpt lat="43.87714052751853" lon="11.310991795273097"><ele>499.75</ele><time>2026-04-11T13:50:30.999Z</time></trkpt><trkpt lat="43.877181243363346" lon="11.310848971330946"><ele>499.5</ele><time>2026-04-11T13:50:31.999Z</time></trkpt><trkpt lat="43.877246886376554" lon="11.310705413914413"><ele>499.25</ele><time>2026-04-11T13:50:32.999Z</time></trkpt><trkpt lat="43.877309456491275" lon="11.31054786343734"><ele>499.0</ele><time>2026-04-11T13:50:33.999Z</time></trkpt><trkpt lat="43.877381840901926" lon="11.3103715312094"><ele>499.0</ele><time>2026-04-11T13:50:34.999Z</time></trkpt><trkpt lat="43.8774861316207" lon="11.31019333624343"><ele>499.0</ele><time>2026-04-11T13:50:35.999Z</time></trkpt><trkpt lat="43.8776039372958" lon="11.310032720228673"><ele>499.0</ele><time>2026-04-11T13:50:36.999Z</time></trkpt><trkpt lat="43.87769052092165" lon="11.309890105216509"><ele>499.0</ele><time>2026-04-11T13:50:37.999Z</time></trkpt><trkpt lat="43.877747974126045" lon="11.309768470119986"><ele>499.0</ele><time>2026-04-11T13:50:38.999Z</time></trkpt><trkpt lat="43.877794248056695" lon="11.30965492763951"><ele>499.0</ele><time>2026-04-11T13:50:39.999Z</time></trkpt><trkpt lat="43.877825979723234" lon="11.30951514275266"><ele>499.0</ele><time>2026-04-11T13:50:40.999Z</time></trkpt><trkpt lat="43.8778339010341" lon="11.309334852052077"><ele>499.0</ele><time>2026-04-11T13:50:41.999Z</time></trkpt><trkpt lat="43.87783323581206" lon="11.309141538918704"><ele>499.0</ele><time>2026-04-11T13:50:42.999Z</time></trkpt><trkpt lat="43.877838963548044" lon="11.30894546966478"><ele>499.0</ele><time>2026-04-11T13:50:43.999Z</time></trkpt><trkpt lat="43.87783666807317" lon="11.308746596406374"><ele>499.0</ele><time>2026-04-11T13:50:44.999Z</time></trkpt><trkpt lat="43.87781681794055" lon="11.308571151017274"><ele>499.0</ele><time>2026-04-11T13:50:45.999Z</time></trkpt><trkpt lat="43.87780082641123" lon="11.30840855765716"><ele>499.2</ele><time>2026-04-11T13:50:46.999Z</time></trkpt><trkpt lat="43.877792291635956" lon="11.308277642814609"><ele>499.4</ele><time>2026-04-11T13:50:47.999Z</time></trkpt><trkpt lat="43.8778176503166" lon="11.308135123584773"><ele>499.6</ele><time>2026-04-11T13:50:48.999Z</time></trkpt><trkpt lat="43.87785599050302" lon="11.307981745821362"><ele>499.8</ele><time>2026-04-11T13:50:49.999Z</time></trkpt><trkpt lat="43.877912854369676" lon="11.307833853665409"><ele>500.0</ele><time>2026-04-11T13:50:50.999Z</time></trkpt><trkpt lat="43.87800412404052" lon="11.30769541256125"><ele>502.75</ele><time>2026-04-11T13:50:51.999Z</time></trkpt><trkpt lat="43.878111689651845" lon="11.307577682145991"><ele>505.5</ele><time>2026-04-11T13:50:52.999Z</time></trkpt><trkpt lat="43.87821270682411" lon="11.307459702425255"><ele>508.25</ele><time>2026-04-11T13:50:53.999Z</time></trkpt><trkpt lat="43.87829341543343" lon="11.307356149825727"><ele>511.0</ele><time>2026-04-11T13:50:54.999Z</time></trkpt><trkpt lat="43.878377716077786" lon="11.307263871455724"><ele>509.0</ele><time>2026-04-11T13:50:55.999Z</time></trkpt><trkpt lat="43.87844406985486" lon="11.307134240351342"><ele>507.0</ele><time>2026-04-11T13:50:56.999Z</time></trkpt><trkpt lat="43.87851601450482" lon="11.306985724396167"><ele>505.0</ele><time>2026-04-11T13:50:57.999Z</time></trkpt><trkpt lat="43.87857930553406" lon="11.306834352576054"><ele>503.0</ele><time>2026-04-11T13:50:58.999Z</time></trkpt><trkpt lat="43.878633892925954" lon="11.306665832508296"><ele>503.0</ele><time>2026-04-11T13:50:59.999Z</time></trkpt><trkpt lat="43.8786469873466" lon="11.306493905355161"><ele>503.0</ele><time>2026-04-11T13:51:00.999Z</time></trkpt><trkpt lat="43.87864684300281" lon="11.306327067549699"><ele>503.0</ele><time>2026-04-11T13:51:01.999Z</time></trkpt><trkpt lat="43.878647871224544" lon="11.306172118126202"><ele>503.0</ele><time>2026-04-11T13:51:02.999Z</time></trkpt><trkpt lat="43.87863278765075" lon="11.30602718089527"><ele>502.4</ele><time>2026-04-11T13:51:03.999Z</time></trkpt><trkpt lat="43.8785979829407" lon="11.30587269440363"><ele>501.79999999999995</ele><time>2026-04-11T13:51:04.999Z</time></trkpt><trkpt lat="43.878564460366356" lon="11.305759310400648"><ele>501.2</ele><time>2026-04-11T13:51:05.999Z</time></trkpt><trkpt lat="43.878545316179924" lon="11.305639861340483"><ele>500.6</ele><time>2026-04-11T13:51:06.999Z</time></trkpt><trkpt lat="43.87855145381445" lon="11.305493884453707"><ele>500.0</ele><time>2026-04-11T13:51:07.999Z</time></trkpt><trkpt lat="43.87858312250728" lon="11.305299299617275"><ele>497.25</ele><time>2026-04-11T13:51:08.999Z</time></trkpt><trkpt lat="43.87860309305156" lon="11.305093430031139"><ele>494.5</ele><time>2026-04-11T13:51:09.999Z</time></trkpt><trkpt lat="43.878611269558725" lon="11.304925816278802"><ele>491.75</ele><time>2026-04-11T13:51:10.999Z</time></trkpt><trkpt lat="43.87862969706289" lon="11.304787754546451"><ele>489.0</ele><time>2026-04-11T13:51:11.999Z</time></trkpt><trkpt lat="43.878655458194835" lon="11.30465777820644"><ele>489.0</ele><time>2026-04-11T13:51:12.999Z</time></trkpt><trkpt lat="43.878678622549195" lon="11.304544172436245"><ele>489.0</ele><time>2026-04-11T13:51:13.999Z</time></trkpt><trkpt lat="43.878696880303536" lon="11.30443138564529"><ele>489.0</ele><time>2026-04-11T13:51:14.999Z</time></trkpt><trkpt lat="43.878716715883584" lon="11.304293932907873"><ele>489.0</ele><time>2026-04-11T13:51:15.999Z</time></trkpt><trkpt lat="43.87878019398352" lon="11.30416607050545"><ele>489.0</ele><time>2026-04-11T13:51:16.999Z</time></trkpt><trkpt lat="43.8788439744163" lon="11.30403555885577"><ele>489.0</ele><time>2026-04-11T13:51:17.999Z</time></trkpt><trkpt lat="43.87886014449753" lon="11.303919231963734"><ele>489.0</ele><time>2026-04-11T13:51:18.999Z</time></trkpt><trkpt lat="43.87886786188635" lon="11.30377797630629"><ele>489.0</ele><time>2026-04-11T13:51:19.999Z</time></trkpt><trkpt lat="43.87884373078859" lon="11.303645901440957"><ele>489.0</ele><time>2026-04-11T13:51:20.999Z</time></trkpt><trkpt lat="43.878829504641125" lon="11.303542646206235"><ele>489.0</ele><time>2026-04-11T13:51:21.999Z</time></trkpt><trkpt lat="43.87880341495339" lon="11.30341929475993"><ele>488.79999999999995</ele><time>2026-04-11T13:51:22.999Z</time></trkpt><trkpt lat="43.87878676311194" lon="11.303288016126462"><ele>488.59999999999997</ele><time>2026-04-11T13:51:23.998Z</time></trkpt><trkpt lat="43.878799300147804" lon="11.303132544028996"><ele>488.4</ele><time>2026-04-11T13:51:24.998Z</time></trkpt><trkpt lat="43.87884397807979" lon="11.302987053068918"><ele>488.2</ele><time>2026-04-11T13:51:25.998Z</time></trkpt><trkpt lat="43.878904875189185" lon="11.302833895321367"><ele>488.0</ele><time>2026-04-11T13:51:26.998Z</time></trkpt><trkpt lat="43.87896037185526" lon="11.302669217220409"><ele>488.5</ele><time>2026-04-11T13:51:27.998Z</time></trkpt><trkpt lat="43.87902188844445" lon="11.302493095650602"><ele>489.0</ele><time>2026-04-11T13:51:28.998Z</time></trkpt><trkpt lat="43.879084951188446" lon="11.302328957621164"><ele>489.5</ele><time>2026-04-11T13:51:29.998Z</time></trkpt><trkpt lat="43.8791296164392" lon="11.302185863165382"><ele>490.0</ele><time>2026-04-11T13:51:30.998Z</time></trkpt><trkpt lat="43.87917682578587" lon="11.302083855172985"><ele>490.0</ele><time>2026-04-11T13:51:31.998Z</time></trkpt><trkpt lat="43.87922845142726" lon="11.302004320918718"><ele>490.0</ele><time>2026-04-11T13:51:32.998Z</time></trkpt><trkpt lat="43.879309322149545" lon="11.301944033167418"><ele>490.0</ele><time>2026-04-11T13:51:33.998Z</time></trkpt><trkpt lat="43.879423022446694" lon="11.301890517129872"><ele>490.0</ele><time>2026-04-11T13:51:34.998Z</time></trkpt><trkpt lat="43.879551720423194" lon="11.301835160177435"><ele>490.0</ele><time>2026-04-11T13:51:35.998Z</time></trkpt><trkpt lat="43.87967915989135" lon="11.301771868288078"><ele>489.8</ele><time>2026-04-11T13:51:36.998Z</time></trkpt><trkpt lat="43.87980390098972" lon="11.30170744016388"><ele>489.6</ele><time>2026-04-11T13:51:37.998Z</time></trkpt><trkpt lat="43.87991644086576" lon="11.301654523332441"><ele>489.4</ele><time>2026-04-11T13:51:38.998Z</time></trkpt><trkpt lat="43.88000711046883" lon="11.301599745843014"><ele>489.2</ele><time>2026-04-11T13:51:39.998Z</time></trkpt><trkpt lat="43.88008924716359" lon="11.301534972028493"><ele>489.0</ele><time>2026-04-11T13:51:40.998Z</time></trkpt><trkpt lat="43.880135962257036" lon="11.301446041902214"><ele>484.6</ele><time>2026-04-11T13:51:41.998Z</time></trkpt><trkpt lat="43.88016460781467" lon="11.301332128031337"><ele>480.2</ele><time>2026-04-11T13:51:43Z</time></trkpt><trkpt lat="43.88017776302129" lon="11.301184353007958"><ele>475.80000000000007</ele><time>2026-04-11T13:51:44Z</time></trkpt><trkpt lat="43.880215387894914" lon="11.301021902403026"><ele>471.40000000000003</ele><time>2026-04-11T13:51:45Z</time></trkpt><trkpt lat="43.88024421042461" lon="11.300856822970346"><ele>467.0</ele><time>2026-04-11T13:51:46Z</time></trkpt><trkpt lat="43.88026399097716" lon="11.300710648733617"><ele>466.99999999999994</ele><time>2026-04-11T13:51:47Z</time></trkpt><trkpt lat="43.88026509365961" lon="11.30058437221949"><ele>467.0</ele><time>2026-04-11T13:51:48Z</time></trkpt><trkpt lat="43.88025293099961" lon="11.300483720691608"><ele>467.0</ele><time>2026-04-11T13:51:49Z</time></trkpt><trkpt lat="43.880229456782445" lon="11.300394581225708"><ele>467.0</ele><time>2026-04-11T13:51:50Z</time></trkpt><trkpt lat="43.88019676208154" lon="11.300277716571504"><ele>466.99999999999994</ele><time>2026-04-11T13:51:51Z</time></trkpt><trkpt lat="43.88018045745924" lon="11.300185309531518"><ele>467.0</ele><time>2026-04-11T13:51:52Z</time></trkpt><trkpt lat="43.88019537525702" lon="11.300092636148404"><ele>466.20000000000005</ele><time>2026-04-11T13:51:53Z</time></trkpt><trkpt lat="43.88026010672702" lon="11.300003828628835"><ele>465.40000000000003</ele><time>2026-04-11T13:51:54Z</time></trkpt><trkpt lat="43.8803573148765" lon="11.29992107122068"><ele>464.59999999999997</ele><time>2026-04-11T13:51:55Z</time></trkpt><trkpt lat="43.88044950343181" lon="11.299822494873018"><ele>463.79999999999995</ele><time>2026-04-11T13:51:56Z</time></trkpt><trkpt lat="43.88053168425497" lon="11.299708313267699"><ele>463.0</ele><time>2026-04-11T13:51:57Z</time></trkpt><trkpt lat="43.8806210961116" lon="11.299570561262941"><ele>462.25</ele><time>2026-04-11T13:51:58Z</time></trkpt><trkpt lat="43.88071098383698" lon="11.299439407284435"><ele>461.5</ele><time>2026-04-11T13:51:59Z</time></trkpt><trkpt lat="43.88080665000027" lon="11.299315872508569"><ele>460.75</ele><time>2026-04-11T13:52:00Z</time></trkpt><trkpt lat="43.88090140211723" lon="11.299198962605429"><ele>460.0</ele><time>2026-04-11T13:52:01Z</time></trkpt><trkpt lat="43.88099012011294" lon="11.299079588604382"><ele>456.5</ele><time>2026-04-11T13:52:02Z</time></trkpt><trkpt lat="43.88107477860256" lon="11.298952651023198"><ele>453.0</ele><time>2026-04-11T13:52:03Z</time></trkpt><trkpt lat="43.881129130828434" lon="11.298780263706929"><ele>449.5</ele><time>2026-04-11T13:52:04Z</time></trkpt><trkpt lat="43.88118729617977" lon="11.298631278882361"><ele>446.0</ele><time>2026-04-11T13:52:05Z</time></trkpt><trkpt lat="43.88130885428728" lon="11.298607054316923"><ele>445.75</ele><time>2026-04-11T13:52:06Z</time></trkpt><trkpt lat="43.881379490407724" lon="11.298463529176306"><ele>445.5</ele><time>2026-04-11T13:52:07Z</time></trkpt><trkpt lat="43.8814372262864" lon="11.298301415249036"><ele>445.25</ele><time>2026-04-11T13:52:08Z</time></trkpt><trkpt lat="43.881491227091075" lon="11.298118143830669"><ele>445.0</ele><time>2026-04-11T13:52:09Z</time></trkpt><trkpt lat="43.88154869998308" lon="11.297937055772753"><ele>444.5</ele><time>2026-04-11T13:52:10Z</time></trkpt><trkpt lat="43.88160804557986" lon="11.297753871961364"><ele>444.0</ele><time>2026-04-11T13:52:11Z</time></trkpt><trkpt lat="43.88166541416252" lon="11.297592369871689"><ele>443.5</ele><time>2026-04-11T13:52:12Z</time></trkpt><trkpt lat="43.88172491036968" lon="11.297452244561345"><ele>443.0</ele><time>2026-04-11T13:52:13Z</time></trkpt><trkpt lat="43.88179632004079" lon="11.297340693488726"><ele>441.59999999999997</ele><time>2026-04-11T13:52:14Z</time></trkpt><trkpt lat="43.881859366558615" lon="11.29724195654826"><ele>440.19999999999993</ele><time>2026-04-11T13:52:15Z</time></trkpt><trkpt lat="43.88190109397471" lon="11.297117271171542"><ele>438.8</ele><time>2026-04-11T13:52:16Z</time></trkpt><trkpt lat="43.8819136504016" lon="11.296967188492488"><ele>437.4</ele><time>2026-04-11T13:52:17Z</time></trkpt><trkpt lat="43.88189091293638" lon="11.296806327336695"><ele>436.0</ele><time>2026-04-11T13:52:18Z</time></trkpt><trkpt lat="43.88187259250368" lon="11.296669715734991"><ele>436.00000000000006</ele><time>2026-04-11T13:52:19Z</time></trkpt><trkpt lat="43.88186418673095" lon="11.296533313643218"><ele>436.0</ele><time>2026-04-11T13:52:20Z</time></trkpt><trkpt lat="43.881883219123665" lon="11.296425098351026"><ele>436.0</ele><time>2026-04-11T13:52:21Z</time></trkpt><trkpt lat="43.88189168316952" lon="11.29631221588128"><ele>436.0</ele><time>2026-04-11T13:52:23Z</time></trkpt><trkpt lat="43.88182666756946" lon="11.296291522315231"><ele>436.00000000000006</ele><time>2026-04-11T13:52:26Z</time></trkpt><trkpt lat="43.88173066001206" lon="11.296221667770503"><ele>436.0</ele><time>2026-04-11T13:52:28Z</time></trkpt><trkpt lat="43.88164977873971" lon="11.296155600330366"><ele>436.25</ele><time>2026-04-11T13:52:28.999Z</time></trkpt><trkpt lat="43.881553025762905" lon="11.296066804683054"><ele>436.5</ele><time>2026-04-11T13:52:29.999Z</time></trkpt><trkpt lat="43.88145788481794" lon="11.295968118605014"><ele>436.75</ele><time>2026-04-11T13:52:30.999Z</time></trkpt><trkpt lat="43.88136666652959" lon="11.295871561803164"><ele>437.0</ele><time>2026-04-11T13:52:31.999Z</time></trkpt><trkpt lat="43.88128117965596" lon="11.295772193921522"><ele>437.0</ele><time>2026-04-11T13:52:32.999Z</time></trkpt><trkpt lat="43.88120455710775" lon="11.29567141584981"><ele>437.0</ele><time>2026-04-11T13:52:33.999Z</time></trkpt><trkpt lat="43.88113731261634" lon="11.295563805229316"><ele>437.0</ele><time>2026-04-11T13:52:34.999Z</time></trkpt><trkpt lat="43.88106705667293" lon="11.295424783587238"><ele>437.0</ele><time>2026-04-11T13:52:35.999Z</time></trkpt><trkpt lat="43.881013315253604" lon="11.295253065572087"><ele>435.25</ele><time>2026-04-11T13:52:36.999Z</time></trkpt><trkpt lat="43.8809706025843" lon="11.295086061793896"><ele>433.5</ele><time>2026-04-11T13:52:37.999Z</time></trkpt><trkpt lat="43.88092038756636" lon="11.294938161283072"><ele>431.75</ele><time>2026-04-11T13:52:38.999Z</time></trkpt><trkpt lat="43.88087486455852" lon="11.294788545505902"><ele>430.0</ele><time>2026-04-11T13:52:39.999Z</time></trkpt><trkpt lat="43.88080918850961" lon="11.29466436899087"><ele>428.00000000000006</ele><time>2026-04-11T13:52:40.999Z</time></trkpt><trkpt lat="43.88072678308604" lon="11.294588932920936"><ele>426.0</ele><time>2026-04-11T13:52:41.999Z</time></trkpt><trkpt lat="43.88064667164512" lon="11.294511844526715"><ele>424.0</ele><time>2026-04-11T13:52:42.999Z</time></trkpt><trkpt lat="43.880569411891166" lon="11.294426855357594"><ele>422.0</ele><time>2026-04-11T13:52:43.999Z</time></trkpt><trkpt lat="43.880497352739106" lon="11.294387936669589"><ele>420.00000000000006</ele><time>2026-04-11T13:52:44.999Z</time></trkpt><trkpt lat="43.88044042787066" lon="11.294338888500578"><ele>418.0</ele><time>2026-04-11T13:52:45.999Z</time></trkpt><trkpt lat="43.8803911012491" lon="11.294270227701373"><ele>418.00000000000006</ele><time>2026-04-11T13:52:46.999Z</time></trkpt><trkpt lat="43.88035019059907" lon="11.294187435227297"><ele>418.0</ele><time>2026-04-11T13:52:47.999Z</time></trkpt><trkpt lat="43.88029811130506" lon="11.29408068058028"><ele>418.0</ele><time>2026-04-11T13:52:48.999Z</time></trkpt><trkpt lat="43.88029655895725" lon="11.293939191397763"><ele>418.0</ele><time>2026-04-11T13:52:49.999Z</time></trkpt><trkpt lat="43.880274900888736" lon="11.293810176379072"><ele>418.00000000000006</ele><time>2026-04-11T13:52:50.999Z</time></trkpt><trkpt lat="43.88029817086913" lon="11.293719912589522"><ele>418.0</ele><time>2026-04-11T13:52:51.999Z</time></trkpt><trkpt lat="43.8803140327312" lon="11.293600690460597"><ele>415.6666666666667</ele><time>2026-04-11T13:52:53.999Z</time></trkpt><trkpt lat="43.88033656279223" lon="11.293484668997023"><ele>413.33333333333337</ele><time>2026-04-11T13:52:55.999Z</time></trkpt><trkpt lat="43.88033852343961" lon="11.293388486012116"><ele>411.0</ele><time>2026-04-11T13:52:56.999Z</time></trkpt><trkpt lat="43.880374177180194" lon="11.29328323259681"><ele>408.66666666666663</ele><time>2026-04-11T13:52:57.999Z</time></trkpt><trkpt lat="43.88038998010576" lon="11.293179983164318"><ele>406.3333333333333</ele><time>2026-04-11T13:52:58.999Z</time></trkpt><trkpt lat="43.88033850104453" lon="11.293041862375336"><ele>404.0</ele><time>2026-04-11T13:53:00.999Z</time></trkpt><trkpt lat="43.88028195769992" lon="11.292935237837716"><ele>400.99999999999994</ele><time>2026-04-11T13:53:02.999Z</time></trkpt><trkpt lat="43.880208131090285" lon="11.292908825853155"><ele>398.0</ele><time>2026-04-11T13:53:04.999Z</time></trkpt><trkpt lat="43.88012245798105" lon="11.292870120919051"><ele>395.0</ele><time>2026-04-11T13:53:07.999Z</time></trkpt><trkpt lat="43.880057037273765" lon="11.292857148071747"><ele>392.0</ele><time>2026-04-11T13:53:08.999Z</time></trkpt><trkpt lat="43.87996024781515" lon="11.292837616074888"><ele>388.99999999999994</ele><time>2026-04-11T13:53:09.999Z</time></trkpt><trkpt lat="43.87986898904387" lon="11.292819233954875"><ele>386.0</ele><time>2026-04-11T13:53:10.999Z</time></trkpt><trkpt lat="43.879784903875475" lon="11.292824999321132"><ele>385.4</ele><time>2026-04-11T13:53:11.999Z</time></trkpt><trkpt lat="43.87965745916753" lon="11.292915373186755"><ele>384.8</ele><time>2026-04-11T13:53:13.999Z</time></trkpt><trkpt lat="43.879543445236266" lon="11.293022269168704"><ele>384.2</ele><time>2026-04-11T13:53:15.999Z</time></trkpt><trkpt lat="43.879510683664925" lon="11.293098320362773"><ele>383.59999999999997</ele><time>2026-04-11T13:53:16.999Z</time></trkpt><trkpt lat="43.87947994229937" lon="11.293201058864193"><ele>383.0</ele><time>2026-04-11T13:53:17.999Z</time></trkpt><trkpt lat="43.87944754117874" lon="11.293313215644165"><ele>383.59999999999997</ele><time>2026-04-11T13:53:18.999Z</time></trkpt><trkpt lat="43.87938815058084" lon="11.293381421826352"><ele>384.2</ele><time>2026-04-11T13:53:19.999Z</time></trkpt><trkpt lat="43.87931124262275" lon="11.29344595429811"><ele>384.8</ele><time>2026-04-11T13:53:20.999Z</time></trkpt><trkpt lat="43.879225738725914" lon="11.293508911715177"><ele>385.4</ele><time>2026-04-11T13:53:21.999Z</time></trkpt><trkpt lat="43.879130899283496" lon="11.293550397472986"><ele>386.0</ele><time>2026-04-11T13:53:22.999Z</time></trkpt><trkpt lat="43.87901403667401" lon="11.293553219666709"><ele>386.0</ele><time>2026-04-11T13:53:23.999Z</time></trkpt><trkpt lat="43.87890122026422" lon="11.293475409306042"><ele>386.0</ele><time>2026-04-11T13:53:24.999Z</time></trkpt><trkpt lat="43.87878017493467" lon="11.293296684991576"><ele>386.0</ele><time>2026-04-11T13:53:26.999Z</time></trkpt><trkpt lat="43.878700567004536" lon="11.293162791183029"><ele>386.0</ele><time>2026-04-11T13:53:27.999Z</time></trkpt><trkpt lat="43.87864572824271" lon="11.293028200557737"><ele>383.20000000000005</ele><time>2026-04-11T13:53:28.999Z</time></trkpt><trkpt lat="43.87856261961551" lon="11.29288450292382"><ele>380.40000000000003</ele><time>2026-04-11T13:53:29.999Z</time></trkpt><trkpt lat="43.87849096855341" lon="11.29277906050844"><ele>377.6</ele><time>2026-04-11T13:53:30.999Z</time></trkpt><trkpt lat="43.878417833220915" lon="11.292694780002764"><ele>374.8</ele><time>2026-04-11T13:53:31.999Z</time></trkpt><trkpt lat="43.87834577175826" lon="11.292638430457902"><ele>372.0</ele><time>2026-04-11T13:53:32.999Z</time></trkpt><trkpt lat="43.878277305627144" lon="11.292592436130457"><ele>371.0</ele><time>2026-04-11T13:53:33.999Z</time></trkpt><trkpt lat="43.87819548515254" lon="11.292544117802573"><ele>370.0</ele><time>2026-04-11T13:53:34.999Z</time></trkpt><trkpt lat="43.87808106649216" lon="11.292528970026012"><ele>369.0</ele><time>2026-04-11T13:53:35.999Z</time></trkpt><trkpt lat="43.87795606299149" lon="11.292541967242977"><ele>368.0</ele><time>2026-04-11T13:53:36.998Z</time></trkpt><trkpt lat="43.877828697700764" lon="11.292559110114745"><ele>368.0</ele><time>2026-04-11T13:53:37.998Z</time></trkpt><trkpt lat="43.8777085840173" lon="11.29255012407"><ele>368.0</ele><time>2026-04-11T13:53:38.998Z</time></trkpt><trkpt lat="43.87762311515324" lon="11.292531482568036"><ele>368.0</ele><time>2026-04-11T13:53:39.998Z</time></trkpt><trkpt lat="43.877546456001014" lon="11.292531760340783"><ele>368.0</ele><time>2026-04-11T13:53:40.998Z</time></trkpt><trkpt lat="43.877448127218784" lon="11.29255784296176"><ele>368.0</ele><time>2026-04-11T13:53:41.998Z</time></trkpt><trkpt lat="43.877338564751426" lon="11.292592169228106"><ele>365.75</ele><time>2026-04-11T13:53:42.998Z</time></trkpt><trkpt lat="43.87721396113536" lon="11.29261790488344"><ele>363.5</ele><time>2026-04-11T13:53:43.998Z</time></trkpt><trkpt lat="43.87709696849123" lon="11.292646548706742"><ele>361.25</ele><time>2026-04-11T13:53:44.998Z</time></trkpt><trkpt lat="43.87700117368666" lon="11.292649661168335"><ele>359.0</ele><time>2026-04-11T13:53:45.998Z</time></trkpt><trkpt lat="43.8768957061774" lon="11.292604919866841"><ele>359.0</ele><time>2026-04-11T13:53:46.998Z</time></trkpt><trkpt lat="43.876774698632595" lon="11.292538511334708"><ele>359.0</ele><time>2026-04-11T13:53:47.998Z</time></trkpt><trkpt lat="43.87664201123476" lon="11.292461723377958"><ele>359.0</ele><time>2026-04-11T13:53:49Z</time></trkpt><trkpt lat="43.87652455390206" lon="11.292387307241803"><ele>359.0</ele><time>2026-04-11T13:53:50Z</time></trkpt><trkpt lat="43.87643393507223" lon="11.29231570643589"><ele>356.0</ele><time>2026-04-11T13:53:51Z</time></trkpt><trkpt lat="43.876361923943854" lon="11.292238496644208"><ele>353.0</ele><time>2026-04-11T13:53:52Z</time></trkpt><trkpt lat="43.876282289066005" lon="11.292173401557442"><ele>350.0</ele><time>2026-04-11T13:53:53Z</time></trkpt><trkpt lat="43.87620643975855" lon="11.292118088063654"><ele>347.0</ele><time>2026-04-11T13:53:54Z</time></trkpt><trkpt lat="43.8761355862959" lon="11.292085106016192"><ele>344.0</ele><time>2026-04-11T13:53:55Z</time></trkpt><trkpt lat="43.87607077023434" lon="11.292060232948154"><ele>341.0</ele><time>2026-04-11T13:53:56Z</time></trkpt><trkpt lat="43.875975811072536" lon="11.29201012429167"><ele>341.0</ele><time>2026-04-11T13:53:58Z</time></trkpt><trkpt lat="43.8759065911101" lon="11.291931122862337"><ele>341.0</ele><time>2026-04-11T13:54:00Z</time></trkpt><trkpt lat="43.87591011920585" lon="11.291819010080387"><ele>341.0</ele><time>2026-04-11T13:54:01Z</time></trkpt><trkpt lat="43.87589882556138" lon="11.291706251965591"><ele>341.0</ele><time>2026-04-11T13:54:03Z</time></trkpt><trkpt lat="43.87600251169783" lon="11.29158079519308"><ele>341.0</ele><time>2026-04-11T13:54:10Z</time></trkpt><trkpt lat="43.87606657022446" lon="11.291563317391162"><ele>341.0</ele><time>2026-04-11T13:54:11Z</time></trkpt><trkpt lat="43.8761499169222" lon="11.291535241563581"><ele>341.0</ele><time>2026-04-11T13:54:12Z</time></trkpt><trkpt lat="43.87624745715793" lon="11.29151883707734"><ele>341.0</ele><time>2026-04-11T13:54:13Z</time></trkpt><trkpt lat="43.87635191189168" lon="11.291504766239445"><ele>341.0</ele><time>2026-04-11T13:54:14Z</time></trkpt><trkpt lat="43.876471746332875" lon="11.291469673366015"><ele>341.0</ele><time>2026-04-11T13:54:15Z</time></trkpt><trkpt lat="43.876615081570954" lon="11.291460905026826"><ele>341.0</ele><time>2026-04-11T13:54:16Z</time></trkpt><trkpt lat="43.876773220344155" lon="11.291408254505205"><ele>341.0</ele><time>2026-04-11T13:54:17Z</time></trkpt><trkpt lat="43.87693201143213" lon="11.291320141921506"><ele>341.0</ele><time>2026-04-11T13:54:18Z</time></trkpt><trkpt lat="43.87708379221031" lon="11.291219572668576"><ele>341.0</ele><time>2026-04-11T13:54:19Z</time></trkpt><trkpt lat="43.87723811588367" lon="11.291114932997864"><ele>341.0</ele><time>2026-04-11T13:54:20Z</time></trkpt><trkpt lat="43.87731996117642" lon="11.291045109992211"><ele>341.0</ele><time>2026-04-11T13:54:21Z</time></trkpt><trkpt lat="43.877497473403714" lon="11.290929336229327"><ele>339.33333333333337</ele><time>2026-04-11T13:54:22Z</time></trkpt><trkpt lat="43.87767148203775" lon="11.290815130058807"><ele>337.6666666666667</ele><time>2026-04-11T13:54:23Z</time></trkpt><trkpt lat="43.87783461185856" lon="11.290709901885407"><ele>336.0</ele><time>2026-04-11T13:54:24Z</time></trkpt><trkpt lat="43.877985135541415" lon="11.290616914954507"><ele>335.3333333333333</ele><time>2026-04-11T13:54:25Z</time></trkpt><trkpt lat="43.87812725679898" lon="11.29052332403125"><ele>334.66666666666663</ele><time>2026-04-11T13:54:26Z</time></trkpt><trkpt lat="43.87825698328858" lon="11.290432927731644"><ele>334.0</ele><time>2026-04-11T13:54:27Z</time></trkpt><trkpt lat="43.878482178476936" lon="11.290218222336343"><ele>334.0</ele><time>2026-04-11T13:54:29Z</time></trkpt><trkpt lat="43.878606944536706" lon="11.290095834914872"><ele>334.0</ele><time>2026-04-11T13:54:30Z</time></trkpt><trkpt lat="43.87869609741421" lon="11.289955490153138"><ele>334.0</ele><time>2026-04-11T13:54:31Z</time></trkpt><trkpt lat="43.878785486629454" lon="11.28981496105207"><ele>334.0</ele><time>2026-04-11T13:54:32Z</time></trkpt><trkpt lat="43.87888222805192" lon="11.28967847535557"><ele>334.0</ele><time>2026-04-11T13:54:33Z</time></trkpt><trkpt lat="43.87898772615372" lon="11.289536838221476"><ele>334.0</ele><time>2026-04-11T13:54:34Z</time></trkpt><trkpt lat="43.87910983211251" lon="11.289404064731993"><ele>334.0</ele><time>2026-04-11T13:54:35Z</time></trkpt><trkpt lat="43.87922186761519" lon="11.289289662068951"><ele>334.0</ele><time>2026-04-11T13:54:36Z</time></trkpt><trkpt lat="43.87934643081495" lon="11.289199455907905"><ele>334.0</ele><time>2026-04-11T13:54:37Z</time></trkpt><trkpt lat="43.87947234329596" lon="11.289125438451475"><ele>334.0</ele><time>2026-04-11T13:54:37.999Z</time></trkpt><trkpt lat="43.8796067083262" lon="11.289069866819268"><ele>334.0</ele><time>2026-04-11T13:54:38.999Z</time></trkpt><trkpt lat="43.87974649353401" lon="11.289026289300262"><ele>334.0</ele><time>2026-04-11T13:54:39.999Z</time></trkpt><trkpt lat="43.87988698031133" lon="11.28899080441416"><ele>334.0</ele><time>2026-04-11T13:54:40.999Z</time></trkpt><trkpt lat="43.88002272987279" lon="11.28897231609719"><ele>334.0</ele><time>2026-04-11T13:54:41.999Z</time></trkpt><trkpt lat="43.8801357943243" lon="11.289002327598972"><ele>334.0</ele><time>2026-04-11T13:54:42.999Z</time></trkpt><trkpt lat="43.88023537051728" lon="11.28901091769559"><ele>334.0</ele><time>2026-04-11T13:54:43.999Z</time></trkpt><trkpt lat="43.88031452871599" lon="11.289026566399603"><ele>334.0</ele><time>2026-04-11T13:54:44.999Z</time></trkpt><trkpt lat="43.88038071107025" lon="11.289047135284974"><ele>333.5</ele><time>2026-04-11T13:54:47.999Z</time></trkpt><trkpt lat="43.8803777716353" lon="11.289147060185503"><ele>333.0</ele><time>2026-04-11T13:59:22.999Z</time></trkpt><trkpt lat="43.88043346692043" lon="11.289050419994611"><ele>332.5</ele><time>2026-04-11T13:59:27.999Z</time></trkpt><trkpt lat="43.88049506230385" lon="11.289027458469736"><ele>332.0</ele><time>2026-04-11T13:59:28.999Z</time></trkpt><trkpt lat="43.88056764308757" lon="11.289014233890937"><ele>331.5</ele><time>2026-04-11T13:59:29.999Z</time></trkpt><trkpt lat="43.88065819043571" lon="11.288995735002718"><ele>331.0</ele><time>2026-04-11T13:59:30.999Z</time></trkpt><trkpt lat="43.88075617927027" lon="11.288971796722874"><ele>331.0</ele><time>2026-04-11T13:59:31.999Z</time></trkpt><trkpt lat="43.88085390315937" lon="11.288933286878429"><ele>331.0</ele><time>2026-04-11T13:59:32.999Z</time></trkpt><trkpt lat="43.88095109292659" lon="11.288902247299694"><ele>331.0</ele><time>2026-04-11T13:59:33.999Z</time></trkpt><trkpt lat="43.88106416740615" lon="11.288869848728718"><ele>331.0</ele><time>2026-04-11T13:59:34.999Z</time></trkpt><trkpt lat="43.88119861887413" lon="11.288830714417305"><ele>336.0</ele><time>2026-04-11T13:59:35.999Z</time></trkpt><trkpt lat="43.88135092602987" lon="11.288788101773239"><ele>341.0</ele><time>2026-04-11T13:59:36.999Z</time></trkpt><trkpt lat="43.881515984619284" lon="11.288741838175014"><ele>346.0</ele><time>2026-04-11T13:59:37.999Z</time></trkpt><trkpt lat="43.88168368609222" lon="11.28869205563336"><ele>345.0</ele><time>2026-04-11T13:59:38.999Z</time></trkpt><trkpt lat="43.88185825848093" lon="11.288644508680774"><ele>344.0</ele><time>2026-04-11T13:59:39.999Z</time></trkpt><trkpt lat="43.882020790280166" lon="11.288593174304808"><ele>343.0</ele><time>2026-04-11T13:59:40.999Z</time></trkpt><trkpt lat="43.882174567102204" lon="11.28854509086631"><ele>343.0</ele><time>2026-04-11T13:59:41.999Z</time></trkpt><trkpt lat="43.88232187720072" lon="11.288508476104369"><ele>343.0</ele><time>2026-04-11T13:59:42.999Z</time></trkpt><trkpt lat="43.88246311311804" lon="11.288472662614216"><ele>343.0</ele><time>2026-04-11T13:59:43.999Z</time></trkpt><trkpt lat="43.882594455479946" lon="11.288444748310178"><ele>343.0</ele><time>2026-04-11T13:59:44.999Z</time></trkpt><trkpt lat="43.88272563586592" lon="11.28843538139619"><ele>347.5</ele><time>2026-04-11T13:59:45.999Z</time></trkpt><trkpt lat="43.88284828312669" lon="11.288442238948717"><ele>352.0</ele><time>2026-04-11T13:59:46.999Z</time></trkpt><trkpt lat="43.882973315323966" lon="11.288489851290105"><ele>356.5</ele><time>2026-04-11T13:59:47.999Z</time></trkpt><trkpt lat="43.883105116941174" lon="11.288569932029102"><ele>361.0</ele><time>2026-04-11T13:59:48.999Z</time></trkpt><trkpt lat="43.88322312834409" lon="11.288665103524897"><ele>361.0</ele><time>2026-04-11T13:59:49.999Z</time></trkpt><trkpt lat="43.883323278434254" lon="11.288792812514293"><ele>361.0</ele><time>2026-04-11T13:59:50.999Z</time></trkpt><trkpt lat="43.88341221994191" lon="11.288932420761745"><ele>361.0</ele><time>2026-04-11T13:59:51.999Z</time></trkpt><trkpt lat="43.883500005953046" lon="11.289057842596952"><ele>361.0</ele><time>2026-04-11T13:59:52.999Z</time></trkpt><trkpt lat="43.88359247095599" lon="11.289156479558361"><ele>353.5</ele><time>2026-04-11T13:59:53.999Z</time></trkpt><trkpt lat="43.883703585735404" lon="11.289194211953081"><ele>346.0</ele><time>2026-04-11T13:59:54.999Z</time></trkpt><trkpt lat="43.883817920259474" lon="11.28920199806603"><ele>338.5</ele><time>2026-04-11T13:59:55.999Z</time></trkpt><trkpt lat="43.883942683337054" lon="11.289152809203417"><ele>331.0</ele><time>2026-04-11T13:59:56.999Z</time></trkpt><trkpt lat="43.8840786635658" lon="11.289114327757906"><ele>331.0</ele><time>2026-04-11T13:59:57.999Z</time></trkpt><trkpt lat="43.88422182479793" lon="11.289066168916328"><ele>331.0</ele><time>2026-04-11T13:59:58.999Z</time></trkpt><trkpt lat="43.884376365232235" lon="11.289026344492454"><ele>331.0</ele><time>2026-04-11T13:59:59.999Z</time></trkpt><trkpt lat="43.88454092685289" lon="11.288983064403133"><ele>329.0</ele><time>2026-04-11T14:00:00.999Z</time></trkpt><trkpt lat="43.88471375744731" lon="11.288935623106997"><ele>327.0</ele><time>2026-04-11T14:00:01.999Z</time></trkpt><trkpt lat="43.884889636059" lon="11.288883236332625"><ele>325.0</ele><time>2026-04-11T14:00:02.999Z</time></trkpt><trkpt lat="43.8850588673464" lon="11.288830535241829"><ele>327.0</ele><time>2026-04-11T14:00:03.999Z</time></trkpt><trkpt lat="43.8852167550631" lon="11.28877690012063"><ele>329.0</ele><time>2026-04-11T14:00:04.999Z</time></trkpt><trkpt lat="43.88537599731625" lon="11.288720354354558"><ele>331.0</ele><time>2026-04-11T14:00:05.999Z</time></trkpt><trkpt lat="43.88553455363914" lon="11.288670413096757"><ele>331.0</ele><time>2026-04-11T14:00:06.999Z</time></trkpt><trkpt lat="43.88569334649111" lon="11.288626059475119"><ele>331.0</ele><time>2026-04-11T14:00:07.999Z</time></trkpt><trkpt lat="43.885843629768715" lon="11.288596456163848"><ele>331.0</ele><time>2026-04-11T14:00:08.999Z</time></trkpt><trkpt lat="43.88599613223062" lon="11.288569450749211"><ele>332.3333333333333</ele><time>2026-04-11T14:00:09.999Z</time></trkpt><trkpt lat="43.88614718942567" lon="11.288566107177719"><ele>333.6666666666667</ele><time>2026-04-11T14:00:10.999Z</time></trkpt><trkpt lat="43.8863044443225" lon="11.28859000503277"><ele>335.0</ele><time>2026-04-11T14:00:11.999Z</time></trkpt><trkpt lat="43.88645135672878" lon="11.288651353563008"><ele>335.0</ele><time>2026-04-11T14:00:12.999Z</time></trkpt><trkpt lat="43.88659626473067" lon="11.288746092502251"><ele>335.0</ele><time>2026-04-11T14:00:13.999Z</time></trkpt><trkpt lat="43.886731221044094" lon="11.288875090814184"><ele>335.0</ele><time>2026-04-11T14:00:14.999Z</time></trkpt><trkpt lat="43.88687911416867" lon="11.288920236738711"><ele>331.0</ele><time>2026-04-11T14:00:15.999Z</time></trkpt><trkpt lat="43.88702082480836" lon="11.288956775837574"><ele>327.0</ele><time>2026-04-11T14:00:16.999Z</time></trkpt><trkpt lat="43.88716866932267" lon="11.288973557610428"><ele>323.0</ele><time>2026-04-11T14:00:17.999Z</time></trkpt><trkpt lat="43.88730847052786" lon="11.288986812852531"><ele>319.0</ele><time>2026-04-11T14:00:18.999Z</time></trkpt><trkpt lat="43.88743953497605" lon="11.288978230949606"><ele>319.0</ele><time>2026-04-11T14:00:19.999Z</time></trkpt><trkpt lat="43.88755728663856" lon="11.288941423338098"><ele>319.0</ele><time>2026-04-11T14:00:20.999Z</time></trkpt><trkpt lat="43.88766716096873" lon="11.288862228043941"><ele>319.0</ele><time>2026-04-11T14:00:21.999Z</time></trkpt><trkpt lat="43.88777319124696" lon="11.288750560211394"><ele>319.0</ele><time>2026-04-11T14:00:22.999Z</time></trkpt><trkpt lat="43.88788442534247" lon="11.288620193300476"><ele>318.66666666666663</ele><time>2026-04-11T14:00:23.999Z</time></trkpt><trkpt lat="43.887999357870214" lon="11.288475265672416"><ele>318.3333333333333</ele><time>2026-04-11T14:00:24.999Z</time></trkpt><trkpt lat="43.88813008689717" lon="11.288378985425702"><ele>318.0</ele><time>2026-04-11T14:00:25.999Z</time></trkpt><trkpt lat="43.888259122213476" lon="11.28825415737223"><ele>318.0</ele><time>2026-04-11T14:00:26.999Z</time></trkpt><trkpt lat="43.88838971244293" lon="11.28815216884323"><ele>318.0</ele><time>2026-04-11T14:00:27.999Z</time></trkpt><trkpt lat="43.88851511435084" lon="11.28806746815519"><ele>318.0</ele><time>2026-04-11T14:00:28.999Z</time></trkpt><trkpt lat="43.88864269823509" lon="11.288005137368499"><ele>318.0</ele><time>2026-04-11T14:00:29.999Z</time></trkpt><trkpt lat="43.888778921617906" lon="11.288005210375443"><ele>318.25</ele><time>2026-04-11T14:00:30.999Z</time></trkpt><trkpt lat="43.888911373005506" lon="11.28797301273497"><ele>318.5</ele><time>2026-04-11T14:00:31.999Z</time></trkpt><trkpt lat="43.88904141998698" lon="11.287990878587355"><ele>318.75</ele><time>2026-04-11T14:00:32.999Z</time></trkpt><trkpt lat="43.88916110966442" lon="11.288052227336786"><ele>319.0</ele><time>2026-04-11T14:00:33.999Z</time></trkpt><trkpt lat="43.88926722686495" lon="11.288134198728113"><ele>316.75</ele><time>2026-04-11T14:00:34.999Z</time></trkpt><trkpt lat="43.88937593365489" lon="11.288211801077278"><ele>314.5</ele><time>2026-04-11T14:00:35.999Z</time></trkpt><trkpt lat="43.889498869026056" lon="11.288276278795038"><ele>312.25</ele><time>2026-04-11T14:00:36.999Z</time></trkpt><trkpt lat="43.8896257714932" lon="11.28831392179677"><ele>310.0</ele><time>2026-04-11T14:00:37.999Z</time></trkpt><trkpt lat="43.889752796871704" lon="11.288327231398721"><ele>310.0</ele><time>2026-04-11T14:00:38.999Z</time></trkpt><trkpt lat="43.8898788490057" lon="11.288311128518895"><ele>310.0</ele><time>2026-04-11T14:00:39.999Z</time></trkpt><trkpt lat="43.89000048277948" lon="11.288264193294552"><ele>310.0</ele><time>2026-04-11T14:00:40.999Z</time></trkpt><trkpt lat="43.89011030561087" lon="11.288205455980464"><ele>310.0</ele><time>2026-04-11T14:00:41.999Z</time></trkpt><trkpt lat="43.890213300003694" lon="11.288163538513974"><ele>309.8</ele><time>2026-04-11T14:00:42.999Z</time></trkpt><trkpt lat="43.89031718102154" lon="11.288124233103746"><ele>309.6</ele><time>2026-04-11T14:00:43.999Z</time></trkpt><trkpt lat="43.89041895932032" lon="11.28810426654531"><ele>309.4</ele><time>2026-04-11T14:00:44.999Z</time></trkpt><trkpt lat="43.89052389550969" lon="11.28811774712607"><ele>309.2</ele><time>2026-04-11T14:00:45.999Z</time></trkpt><trkpt lat="43.89062159386013" lon="11.288121236073197"><ele>309.0</ele><time>2026-04-11T14:00:46.999Z</time></trkpt><trkpt lat="43.890723606996076" lon="11.28810074429202"><ele>309.0</ele><time>2026-04-11T14:00:47.999Z</time></trkpt><trkpt lat="43.890822572103716" lon="11.28803919585182"><ele>309.0</ele><time>2026-04-11T14:00:48.999Z</time></trkpt><trkpt lat="43.890921138174356" lon="11.28793858801464"><ele>309.0</ele><time>2026-04-11T14:00:49.999Z</time></trkpt><trkpt lat="43.890994150517436" lon="11.287790162325495"><ele>309.0</ele><time>2026-04-11T14:00:50.999Z</time></trkpt><trkpt lat="43.891044504052125" lon="11.287630927154348"><ele>309.0</ele><time>2026-04-11T14:00:51.999Z</time></trkpt><trkpt lat="43.89107958278703" lon="11.287472686235684"><ele>309.0</ele><time>2026-04-11T14:00:52.999Z</time></trkpt><trkpt lat="43.891099018098174" lon="11.287317655378342"><ele>309.0</ele><time>2026-04-11T14:00:53.999Z</time></trkpt><trkpt lat="43.891126960608986" lon="11.287182175523453"><ele>309.0</ele><time>2026-04-11T14:00:54.999Z</time></trkpt><trkpt lat="43.89115486027339" lon="11.287054729585428"><ele>309.0</ele><time>2026-04-11T14:00:55.999Z</time></trkpt><trkpt lat="43.89118374814655" lon="11.286931846311614"><ele>308.4</ele><time>2026-04-11T14:00:56.999Z</time></trkpt><trkpt lat="43.89121498412592" lon="11.286813175579544"><ele>307.79999999999995</ele><time>2026-04-11T14:00:57.999Z</time></trkpt><trkpt lat="43.891268863090744" lon="11.286695702424524"><ele>307.20000000000005</ele><time>2026-04-11T14:00:58.999Z</time></trkpt><trkpt lat="43.89135114698264" lon="11.286579569798581"><ele>306.6</ele><time>2026-04-11T14:00:59.999Z</time></trkpt><trkpt lat="43.89144738117588" lon="11.286490879373115"><ele>306.0</ele><time>2026-04-11T14:01:00.999Z</time></trkpt><trkpt lat="43.891538648779665" lon="11.286423173612077"><ele>305.2</ele><time>2026-04-11T14:01:01.999Z</time></trkpt><trkpt lat="43.89162124951619" lon="11.286356724827435"><ele>304.40000000000003</ele><time>2026-04-11T14:01:02.999Z</time></trkpt><trkpt lat="43.8917118719547" lon="11.286308120663552"><ele>303.6</ele><time>2026-04-11T14:01:03.999Z</time></trkpt><trkpt lat="43.891799895465" lon="11.286204244227918"><ele>302.8</ele><time>2026-04-11T14:01:04.999Z</time></trkpt><trkpt lat="43.891869978764426" lon="11.286040362938769"><ele>302.0</ele><time>2026-04-11T14:01:05.999Z</time></trkpt><trkpt lat="43.89194816309322" lon="11.285893241632106"><ele>302.0</ele><time>2026-04-11T14:01:06.999Z</time></trkpt><trkpt lat="43.89202815075981" lon="11.285772864050404"><ele>302.0</ele><time>2026-04-11T14:01:07.999Z</time></trkpt><trkpt lat="43.89211345369436" lon="11.285661389082266"><ele>302.0</ele><time>2026-04-11T14:01:08.999Z</time></trkpt><trkpt lat="43.892202225243345" lon="11.285562760060353"><ele>302.0</ele><time>2026-04-11T14:01:09.999Z</time></trkpt><trkpt lat="43.892293419849324" lon="11.285475470494912"><ele>302.25</ele><time>2026-04-11T14:01:10.999Z</time></trkpt><trkpt lat="43.892388976130455" lon="11.285392513828594"><ele>302.5</ele><time>2026-04-11T14:01:11.999Z</time></trkpt><trkpt lat="43.89249661788915" lon="11.285305522153251"><ele>302.75</ele><time>2026-04-11T14:01:12.999Z</time></trkpt><trkpt lat="43.892621640784675" lon="11.285234172720273"><ele>303.0</ele><time>2026-04-11T14:01:13.999Z</time></trkpt><trkpt lat="43.89274429727761" lon="11.285167145333391"><ele>303.0</ele><time>2026-04-11T14:01:14.999Z</time></trkpt><trkpt lat="43.8928627881457" lon="11.285105816359021"><ele>303.0</ele><time>2026-04-11T14:01:15.999Z</time></trkpt><trkpt lat="43.89297436534994" lon="11.285042810261226"><ele>303.0</ele><time>2026-04-11T14:01:16.999Z</time></trkpt><trkpt lat="43.89310257932362" lon="11.284968412175406"><ele>303.0</ele><time>2026-04-11T14:01:17.999Z</time></trkpt><trkpt lat="43.89324591551579" lon="11.28488325058184"><ele>303.0</ele><time>2026-04-11T14:01:18.999Z</time></trkpt><trkpt lat="43.89339663720941" lon="11.284801676181516"><ele>303.0</ele><time>2026-04-11T14:01:19.999Z</time></trkpt><trkpt lat="43.893539835209914" lon="11.28472085036023"><ele>303.0</ele><time>2026-04-11T14:01:20.999Z</time></trkpt><trkpt lat="43.89365960650301" lon="11.284642474785507"><ele>303.0</ele><time>2026-04-11T14:01:21.999Z</time></trkpt><trkpt lat="43.8937718758016" lon="11.28457635732268"><ele>302.0</ele><time>2026-04-11T14:01:22.999Z</time></trkpt><trkpt lat="43.893888513271214" lon="11.284512753900243"><ele>301.0</ele><time>2026-04-11T14:01:23.999Z</time></trkpt><trkpt lat="43.89400391665669" lon="11.284446131948508"><ele>300.0</ele><time>2026-04-11T14:01:24.999Z</time></trkpt><trkpt lat="43.89422832281323" lon="11.284302103262336"><ele>301.0</ele><time>2026-04-11T14:01:26.999Z</time></trkpt><trkpt lat="43.89432818901805" lon="11.28423631564565"><ele>302.0</ele><time>2026-04-11T14:01:27.999Z</time></trkpt><trkpt lat="43.894442249386785" lon="11.28416797917192"><ele>303.0</ele><time>2026-04-11T14:01:28.999Z</time></trkpt><trkpt lat="43.894570619812804" lon="11.284099479175392"><ele>304.0</ele><time>2026-04-11T14:01:29.999Z</time></trkpt><trkpt lat="43.894692568278465" lon="11.284035405280578"><ele>304.0</ele><time>2026-04-11T14:01:30.999Z</time></trkpt><trkpt lat="43.89482402151718" lon="11.28395318367803"><ele>304.0</ele><time>2026-04-11T14:01:31.999Z</time></trkpt><trkpt lat="43.89496383426482" lon="11.283862892309108"><ele>304.0</ele><time>2026-04-11T14:01:32.999Z</time></trkpt><trkpt lat="43.895101366886394" lon="11.283778803058086"><ele>304.0</ele><time>2026-04-11T14:01:33.999Z</time></trkpt><trkpt lat="43.89526147859719" lon="11.283687664087559"><ele>302.3333333333333</ele><time>2026-04-11T14:01:34.999Z</time></trkpt><trkpt lat="43.895427932119794" lon="11.283593306365535"><ele>300.6666666666667</ele><time>2026-04-11T14:01:35.999Z</time></trkpt><trkpt lat="43.895588816580855" lon="11.283498239859084"><ele>299.0</ele><time>2026-04-11T14:01:36.999Z</time></trkpt><trkpt lat="43.89573676422698" lon="11.283399411380698"><ele>299.0</ele><time>2026-04-11T14:01:37.999Z</time></trkpt><trkpt lat="43.89587557793406" lon="11.283318562504084"><ele>299.0</ele><time>2026-04-11T14:01:38.999Z</time></trkpt><trkpt lat="43.89600953421344" lon="11.283245222974884"><ele>299.0</ele><time>2026-04-11T14:01:39.999Z</time></trkpt><trkpt lat="43.89614977252512" lon="11.283166816592376"><ele>299.0</ele><time>2026-04-11T14:01:40.999Z</time></trkpt><trkpt lat="43.896290371006295" lon="11.283087144899497"><ele>299.0</ele><time>2026-04-11T14:01:41.999Z</time></trkpt><trkpt lat="43.89643286716691" lon="11.28300310775329"><ele>299.0</ele><time>2026-04-11T14:01:42.999Z</time></trkpt><trkpt lat="43.8965664839581" lon="11.282925230267137"><ele>299.0</ele><time>2026-04-11T14:01:43.999Z</time></trkpt><trkpt lat="43.89669905956889" lon="11.282869989657943"><ele>299.0</ele><time>2026-04-11T14:01:44.999Z</time></trkpt><trkpt lat="43.896832685152845" lon="11.282842208841837"><ele>303.6666666666667</ele><time>2026-04-11T14:01:45.999Z</time></trkpt><trkpt lat="43.896969347470936" lon="11.282840873088992"><ele>308.3333333333333</ele><time>2026-04-11T14:01:46.999Z</time></trkpt><trkpt lat="43.89712041172443" lon="11.282900876054402"><ele>313.0</ele><time>2026-04-11T14:01:47.999Z</time></trkpt><trkpt lat="43.897296433823726" lon="11.28298619572759"><ele>312.75</ele><time>2026-04-11T14:01:48.999Z</time></trkpt><trkpt lat="43.89743405389516" lon="11.283127006727543"><ele>312.5</ele><time>2026-04-11T14:01:49.999Z</time></trkpt><trkpt lat="43.897518216179556" lon="11.283197862596758"><ele>312.25</ele><time>2026-04-11T14:01:50.999Z</time></trkpt><trkpt lat="43.89759008482679" lon="11.283278567300023"><ele>312.0</ele><time>2026-04-11T14:01:51.999Z</time></trkpt><trkpt lat="43.89765001521459" lon="11.28337488431091"><ele>312.0</ele><time>2026-04-11T14:01:52.999Z</time></trkpt><trkpt lat="43.897779090645884" lon="11.283477562908132"><ele>312.0</ele><time>2026-04-11T14:01:53.999Z</time></trkpt><trkpt lat="43.89790552475493" lon="11.283561257964532"><ele>312.0</ele><time>2026-04-11T14:01:54.999Z</time></trkpt><trkpt lat="43.89804099080359" lon="11.283620564587682"><ele>312.0</ele><time>2026-04-11T14:01:55.999Z</time></trkpt><trkpt lat="43.89817429651467" lon="11.283644912238774"><ele>312.0</ele><time>2026-04-11T14:01:56.999Z</time></trkpt><trkpt lat="43.898313303129044" lon="11.283637508228754"><ele>312.0</ele><time>2026-04-11T14:01:57.999Z</time></trkpt><trkpt lat="43.89845167893936" lon="11.28360140127316"><ele>312.0</ele><time>2026-04-11T14:01:58.999Z</time></trkpt><trkpt lat="43.89860036368016" lon="11.283546481164024"><ele>312.0</ele><time>2026-04-11T14:01:59.999Z</time></trkpt><trkpt lat="43.89874527385463" lon="11.283482828138325"><ele>309.0</ele><time>2026-04-11T14:02:00.999Z</time></trkpt><trkpt lat="43.89888571424844" lon="11.283416733278164"><ele>306.0</ele><time>2026-04-11T14:02:01.999Z</time></trkpt><trkpt lat="43.89902807399479" lon="11.283360255776063"><ele>303.0</ele><time>2026-04-11T14:02:02.999Z</time></trkpt><trkpt lat="43.89917397906201" lon="11.283320965490336"><ele>300.0</ele><time>2026-04-11T14:02:03.999Z</time></trkpt><trkpt lat="43.8993319214221" lon="11.28328740991627"><ele>298.25</ele><time>2026-04-11T14:02:04.999Z</time></trkpt><trkpt lat="43.89947177244295" lon="11.28326310415997"><ele>296.5</ele><time>2026-04-11T14:02:05.999Z</time></trkpt><trkpt lat="43.899606153903754" lon="11.28323662790337"><ele>294.75</ele><time>2026-04-11T14:02:06.999Z</time></trkpt><trkpt lat="43.899734990040955" lon="11.283206640710157"><ele>293.0</ele><time>2026-04-11T14:02:07.999Z</time></trkpt><trkpt lat="43.89985897693808" lon="11.283173555167952"><ele>293.0</ele><time>2026-04-11T14:02:08.999Z</time></trkpt><trkpt lat="43.89997701533864" lon="11.283154557179266"><ele>293.0</ele><time>2026-04-11T14:02:09.999Z</time></trkpt><trkpt lat="43.90010073649635" lon="11.283119135725988"><ele>293.0</ele><time>2026-04-11T14:02:10.999Z</time></trkpt><trkpt lat="43.90022850030448" lon="11.283042797067665"><ele>293.0</ele><time>2026-04-11T14:02:11.999Z</time></trkpt><trkpt lat="43.90035108245401" lon="11.282951027304188"><ele>294.75</ele><time>2026-04-11T14:02:13Z</time></trkpt><trkpt lat="43.900472652903865" lon="11.28285830782025"><ele>296.5</ele><time>2026-04-11T14:02:14Z</time></trkpt><trkpt lat="43.900583428822884" lon="11.282781480993764"><ele>298.25</ele><time>2026-04-11T14:02:15Z</time></trkpt><trkpt lat="43.90069163373493" lon="11.282712904686022"><ele>300.0</ele><time>2026-04-11T14:02:16Z</time></trkpt><trkpt lat="43.90080917555193" lon="11.282664788416252"><ele>297.75</ele><time>2026-04-11T14:02:17Z</time></trkpt><trkpt lat="43.90093225519776" lon="11.282639006304038"><ele>295.5</ele><time>2026-04-11T14:02:18Z</time></trkpt><trkpt lat="43.90104648202759" lon="11.282632065471422"><ele>293.25</ele><time>2026-04-11T14:02:19Z</time></trkpt><trkpt lat="43.90117055385701" lon="11.28263860645564"><ele>291.0</ele><time>2026-04-11T14:02:20Z</time></trkpt><trkpt lat="43.90129650227749" lon="11.28266480592922"><ele>291.0</ele><time>2026-04-11T14:02:21Z</time></trkpt><trkpt lat="43.901412337779504" lon="11.282703921392693"><ele>291.0</ele><time>2026-04-11T14:02:22Z</time></trkpt><trkpt lat="43.901519117019234" lon="11.28274810522628"><ele>291.0</ele><time>2026-04-11T14:02:23Z</time></trkpt><trkpt lat="43.90163660612931" lon="11.282795255954438"><ele>291.0</ele><time>2026-04-11T14:02:24Z</time></trkpt><trkpt lat="43.90176609001023" lon="11.282842134946812"><ele>291.75</ele><time>2026-04-11T14:02:25Z</time></trkpt><trkpt lat="43.90190015132787" lon="11.282887214647317"><ele>292.5</ele><time>2026-04-11T14:02:26Z</time></trkpt><trkpt lat="43.90203838431949" lon="11.282933462691688"><ele>293.25</ele><time>2026-04-11T14:02:27Z</time></trkpt><trkpt lat="43.902163556870796" lon="11.282983037449716"><ele>294.0</ele><time>2026-04-11T14:02:28Z</time></trkpt><trkpt lat="43.90226954200238" lon="11.28302479560928"><ele>294.0</ele><time>2026-04-11T14:02:29Z</time></trkpt><trkpt lat="43.902376995168666" lon="11.283071505306767"><ele>294.0</ele><time>2026-04-11T14:02:30Z</time></trkpt><trkpt lat="43.90250068676419" lon="11.283101308626337"><ele>294.0</ele><time>2026-04-11T14:02:31Z</time></trkpt><trkpt lat="43.902627135286345" lon="11.28314024086415"><ele>294.0</ele><time>2026-04-11T14:02:32Z</time></trkpt><trkpt lat="43.90276153354543" lon="11.28315926639553"><ele>292.75</ele><time>2026-04-11T14:02:33Z</time></trkpt><trkpt lat="43.90290049788543" lon="11.283170415860829"><ele>291.5</ele><time>2026-04-11T14:02:34Z</time></trkpt><trkpt lat="43.90304237631769" lon="11.283169926987174"><ele>290.25</ele><time>2026-04-11T14:02:35Z</time></trkpt><trkpt lat="43.90319348958044" lon="11.283171530499548"><ele>289.0</ele><time>2026-04-11T14:02:36Z</time></trkpt><trkpt lat="43.903342546166414" lon="11.283167199914866"><ele>288.25</ele><time>2026-04-11T14:02:37Z</time></trkpt><trkpt lat="43.90349181181331" lon="11.283163725948127"><ele>287.5</ele><time>2026-04-11T14:02:38Z</time></trkpt><trkpt lat="43.903641875880375" lon="11.283167631639452"><ele>286.75</ele><time>2026-04-11T14:02:39Z</time></trkpt><trkpt lat="43.90378897222577" lon="11.283165092511334"><ele>286.0</ele><time>2026-04-11T14:02:40Z</time></trkpt><trkpt lat="43.90393957143144" lon="11.283156377816827"><ele>286.0</ele><time>2026-04-11T14:02:41Z</time></trkpt><trkpt lat="43.90408162339763" lon="11.283149119129325"><ele>286.0</ele><time>2026-04-11T14:02:42Z</time></trkpt><trkpt lat="43.90422718820247" lon="11.283146418751008"><ele>286.0</ele><time>2026-04-11T14:02:43Z</time></trkpt><trkpt lat="43.90437158511971" lon="11.283132614399342"><ele>286.0</ele><time>2026-04-11T14:02:44Z</time></trkpt><trkpt lat="43.9045078751862" lon="11.28313136450491"><ele>285.0</ele><time>2026-04-11T14:02:45Z</time></trkpt><trkpt lat="43.90465524163589" lon="11.283093345433837"><ele>284.0</ele><time>2026-04-11T14:02:46Z</time></trkpt><trkpt lat="43.904780317995886" lon="11.283030937779571"><ele>283.0</ele><time>2026-04-11T14:02:47Z</time></trkpt><trkpt lat="43.904905224538744" lon="11.282970395034623"><ele>282.0</ele><time>2026-04-11T14:02:48Z</time></trkpt><trkpt lat="43.9050247233103" lon="11.282916988915225"><ele>283.0</ele><time>2026-04-11T14:02:49.012Z</time></trkpt><trkpt lat="43.905145427502106" lon="11.28286457156277"><ele>284.0</ele><time>2026-04-11T14:02:50.014Z</time></trkpt><trkpt lat="43.90527166890074" lon="11.282806800275837"><ele>285.0</ele><time>2026-04-11T14:02:51.013Z</time></trkpt><trkpt lat="43.90539036797484" lon="11.282748861005093"><ele>286.0</ele><time>2026-04-11T14:02:52.014Z</time></trkpt><trkpt lat="43.90548525867778" lon="11.282650927718768"><ele>286.0</ele><time>2026-04-11T14:02:53Z</time></trkpt><trkpt lat="43.905746994210894" lon="11.282587367817419"><ele>286.0</ele><time>2026-04-11T14:02:54Z</time></trkpt><trkpt lat="43.90593399134166" lon="11.282526086078184"><ele>285.5</ele><time>2026-04-11T14:02:55Z</time></trkpt><trkpt lat="43.906082759611536" lon="11.282483377756838"><ele>285.0</ele><time>2026-04-11T14:02:56Z</time></trkpt><trkpt lat="43.90619843813652" lon="11.282474025056514"><ele>284.5</ele><time>2026-04-11T14:02:57Z</time></trkpt><trkpt lat="43.90631500086777" lon="11.28245348561807"><ele>284.0</ele><time>2026-04-11T14:02:58Z</time></trkpt><trkpt lat="43.9064317647924" lon="11.282451369186923"><ele>284.0</ele><time>2026-04-11T14:02:59Z</time></trkpt><trkpt lat="43.90653878922235" lon="11.282434498086127"><ele>284.0</ele><time>2026-04-11T14:03:00Z</time></trkpt><trkpt lat="43.906650916342564" lon="11.282415472220105"><ele>284.0</ele><time>2026-04-11T14:03:01Z</time></trkpt><trkpt lat="43.90678671726077" lon="11.282393634644963"><ele>284.0</ele><time>2026-04-11T14:03:02Z</time></trkpt><trkpt lat="43.90693847693477" lon="11.282377594091903"><ele>283.33333333333337</ele><time>2026-04-11T14:03:03Z</time></trkpt><trkpt lat="43.90710949349482" lon="11.282367817987822"><ele>282.6666666666667</ele><time>2026-04-11T14:03:04Z</time></trkpt><trkpt lat="43.907299109816826" lon="11.282361470300472"><ele>282.0</ele><time>2026-04-11T14:03:05Z</time></trkpt><trkpt lat="43.907499830172" lon="11.282349094294744"><ele>282.5</ele><time>2026-04-11T14:03:06Z</time></trkpt><trkpt lat="43.907719324175986" lon="11.282325456917391"><ele>283.0</ele><time>2026-04-11T14:03:07Z</time></trkpt><trkpt lat="43.90795277716567" lon="11.282312191432128"><ele>283.0</ele><time>2026-04-11T14:03:08Z</time></trkpt><trkpt lat="43.90816782763259" lon="11.282299931537292"><ele>283.0</ele><time>2026-04-11T14:03:09Z</time></trkpt><trkpt lat="43.908359983031346" lon="11.282286997581798"><ele>283.0</ele><time>2026-04-11T14:03:10Z</time></trkpt><trkpt lat="43.90853853484463" lon="11.282273112050612"><ele>281.0</ele><time>2026-04-11T14:03:11Z</time></trkpt><trkpt lat="43.90870980805465" lon="11.282259464505835"><ele>279.0</ele><time>2026-04-11T14:03:11.999Z</time></trkpt><trkpt lat="43.90889067140019" lon="11.282243130938502"><ele>277.0</ele><time>2026-04-11T14:03:12.999Z</time></trkpt><trkpt lat="43.90908518481424" lon="11.282219150112885"><ele>277.0</ele><time>2026-04-11T14:03:13.999Z</time></trkpt><trkpt lat="43.909286410559474" lon="11.282190399441685"><ele>277.0</ele><time>2026-04-11T14:03:14.999Z</time></trkpt><trkpt lat="43.90949409042642" lon="11.282145828251695"><ele>277.0</ele><time>2026-04-11T14:03:15.999Z</time></trkpt><trkpt lat="43.90969351929252" lon="11.282080557372668"><ele>277.0</ele><time>2026-04-11T14:03:16.999Z</time></trkpt><trkpt lat="43.909884824985" lon="11.282007231760808"><ele>277.0</ele><time>2026-04-11T14:03:17.999Z</time></trkpt><trkpt lat="43.91005725550465" lon="11.281945096964062"><ele>277.0</ele><time>2026-04-11T14:03:18.999Z</time></trkpt><trkpt lat="43.910217165584726" lon="11.281895596904281"><ele>276.66666666666663</ele><time>2026-04-11T14:03:19.999Z</time></trkpt><trkpt lat="43.910373476048896" lon="11.281854465979672"><ele>276.3333333333333</ele><time>2026-04-11T14:03:20.999Z</time></trkpt><trkpt lat="43.91053308126694" lon="11.28182549667186"><ele>276.0</ele><time>2026-04-11T14:03:21.999Z</time></trkpt><trkpt lat="43.910709729300436" lon="11.28181485095809"><ele>276.0</ele><time>2026-04-11T14:03:22.999Z</time></trkpt><trkpt lat="43.910897973386575" lon="11.281846322482457"><ele>276.0</ele><time>2026-04-11T14:03:23.999Z</time></trkpt><trkpt lat="43.91108802752593" lon="11.28191123279663"><ele>276.0</ele><time>2026-04-11T14:03:24.999Z</time></trkpt><trkpt lat="43.91126420409508" lon="11.282021124793788"><ele>275.3333333333333</ele><time>2026-04-11T14:03:25.999Z</time></trkpt><trkpt lat="43.911433802456216" lon="11.282169676334536"><ele>274.66666666666663</ele><time>2026-04-11T14:03:26.999Z</time></trkpt><trkpt lat="43.9115920543339" lon="11.2823520083717"><ele>274.0</ele><time>2026-04-11T14:03:27.999Z</time></trkpt><trkpt lat="43.91171098116384" lon="11.282580792169233"><ele>275.0</ele><time>2026-04-11T14:03:28.999Z</time></trkpt><trkpt lat="43.91184255820015" lon="11.28278993758829"><ele>276.0</ele><time>2026-04-11T14:03:29.999Z</time></trkpt><trkpt lat="43.911967497109416" lon="11.28300149631022"><ele>277.0</ele><time>2026-04-11T14:03:30.999Z</time></trkpt><trkpt lat="43.91212426705461" lon="11.283187863635764"><ele>276.3333333333333</ele><time>2026-04-11T14:03:31.999Z</time></trkpt><trkpt lat="43.91229871947373" lon="11.283332491766645"><ele>275.6666666666667</ele><time>2026-04-11T14:03:32.999Z</time></trkpt><trkpt lat="43.91248599495003" lon="11.283461024669045"><ele>275.0</ele><time>2026-04-11T14:03:33.999Z</time></trkpt><trkpt lat="43.91266636952248" lon="11.283568610754104"><ele>275.0</ele><time>2026-04-11T14:03:34.999Z</time></trkpt><trkpt lat="43.91283524255156" lon="11.283664993892383"><ele>275.0</ele><time>2026-04-11T14:03:35.999Z</time></trkpt><trkpt lat="43.9129926944595" lon="11.283756241282404"><ele>275.0</ele><time>2026-04-11T14:03:36.999Z</time></trkpt><trkpt lat="43.91315234721563" lon="11.283859103305609"><ele>276.33333333333337</ele><time>2026-04-11T14:03:37.999Z</time></trkpt><trkpt lat="43.91331731450178" lon="11.28395617366848"><ele>277.6666666666667</ele><time>2026-04-11T14:03:38.999Z</time></trkpt><trkpt lat="43.91347260298793" lon="11.2840396086721"><ele>279.0</ele><time>2026-04-11T14:03:39.999Z</time></trkpt><trkpt lat="43.91363322214501" lon="11.284098868651743"><ele>279.0</ele><time>2026-04-11T14:03:40.999Z</time></trkpt><trkpt lat="43.913801022219644" lon="11.284144297458909"><ele>279.0</ele><time>2026-04-11T14:03:41.999Z</time></trkpt><trkpt lat="43.91396690489306" lon="11.284164249892553"><ele>279.0</ele><time>2026-04-11T14:03:42.999Z</time></trkpt><trkpt lat="43.9141274371328" lon="11.284157964413827"><ele>277.6666666666667</ele><time>2026-04-11T14:03:43.999Z</time></trkpt><trkpt lat="43.91428481272926" lon="11.284136560264164"><ele>276.33333333333337</ele><time>2026-04-11T14:03:44.999Z</time></trkpt><trkpt lat="43.914456718974535" lon="11.284090827222007"><ele>275.0</ele><time>2026-04-11T14:03:45.999Z</time></trkpt><trkpt lat="43.914627438795144" lon="11.284019644779855"><ele>273.0</ele><time>2026-04-11T14:03:46.999Z</time></trkpt><trkpt lat="43.91479675963008" lon="11.283929019798277"><ele>271.0</ele><time>2026-04-11T14:03:47.999Z</time></trkpt><trkpt lat="43.9149655749296" lon="11.28381807829831"><ele>269.0</ele><time>2026-04-11T14:03:48.999Z</time></trkpt><trkpt lat="43.915126832280876" lon="11.283695224282447"><ele>269.0</ele><time>2026-04-11T14:03:49.999Z</time></trkpt><trkpt lat="43.91528803488506" lon="11.28356759736965"><ele>269.0</ele><time>2026-04-11T14:03:50.999Z</time></trkpt><trkpt lat="43.91543559666343" lon="11.28346018287033"><ele>269.0</ele><time>2026-04-11T14:03:51.999Z</time></trkpt><trkpt lat="43.91558766825828" lon="11.283350429279267"><ele>269.0</ele><time>2026-04-11T14:03:52.999Z</time></trkpt><trkpt lat="43.91574007232134" lon="11.283233059050595"><ele>269.0</ele><time>2026-04-11T14:03:53.999Z</time></trkpt><trkpt lat="43.915878604747114" lon="11.283133292104251"><ele>269.0</ele><time>2026-04-11T14:03:54.999Z</time></trkpt><trkpt lat="43.91602477014921" lon="11.283051112478772"><ele>278.0</ele><time>2026-04-11T14:03:55.999Z</time></trkpt><trkpt lat="43.916177689288105" lon="11.282994961962128"><ele>287.0</ele><time>2026-04-11T14:03:56.999Z</time></trkpt><trkpt lat="43.916341322759315" lon="11.28295789688947"><ele>296.0</ele><time>2026-04-11T14:03:57.999Z</time></trkpt><trkpt lat="43.91650692777567" lon="11.282943926305869"><ele>296.0</ele><time>2026-04-11T14:03:58.999Z</time></trkpt><trkpt lat="43.91666485224636" lon="11.282958146878128"><ele>296.0</ele><time>2026-04-11T14:03:59.999Z</time></trkpt><trkpt lat="43.91682314674833" lon="11.282996294155156"><ele>296.0</ele><time>2026-04-11T14:04:00.999Z</time></trkpt><trkpt lat="43.916972347947315" lon="11.283055136751427"><ele>291.6666666666667</ele><time>2026-04-11T14:04:01.999Z</time></trkpt><trkpt lat="43.91711849558957" lon="11.283129867633585"><ele>287.3333333333333</ele><time>2026-04-11T14:04:02.999Z</time></trkpt><trkpt lat="43.91727731176207" lon="11.283222521180706"><ele>283.0</ele><time>2026-04-11T14:04:03.999Z</time></trkpt><trkpt lat="43.917421770127106" lon="11.283358467970144"><ele>291.66666666666663</ele><time>2026-04-11T14:04:04.999Z</time></trkpt><trkpt lat="43.91757281455619" lon="11.283478572692227"><ele>300.3333333333333</ele><time>2026-04-11T14:04:05.999Z</time></trkpt><trkpt lat="43.91769075560384" lon="11.283628783983447"><ele>309.0</ele><time>2026-04-11T14:04:06.999Z</time></trkpt><trkpt lat="43.917809171987486" lon="11.283785029309316"><ele>309.0</ele><time>2026-04-11T14:04:07.999Z</time></trkpt><trkpt lat="43.917921253959534" lon="11.283923291200574"><ele>309.0</ele><time>2026-04-11T14:04:08.999Z</time></trkpt><trkpt lat="43.91803078786871" lon="11.28406938277718"><ele>309.0</ele><time>2026-04-11T14:04:09.999Z</time></trkpt><trkpt lat="43.91814215973817" lon="11.284237940333107"><ele>300.6666666666667</ele><time>2026-04-11T14:04:10.999Z</time></trkpt><trkpt lat="43.918250543342786" lon="11.284405290926635"><ele>292.33333333333337</ele><time>2026-04-11T14:04:11.999Z</time></trkpt><trkpt lat="43.91836377826822" lon="11.28454567967015"><ele>284.0</ele><time>2026-04-11T14:04:12.999Z</time></trkpt><trkpt lat="43.91848830229217" lon="11.284684309981836"><ele>279.75</ele><time>2026-04-11T14:04:13.999Z</time></trkpt><trkpt lat="43.91861051897534" lon="11.284795267425448"><ele>275.5</ele><time>2026-04-11T14:04:14.999Z</time></trkpt><trkpt lat="43.918739910083104" lon="11.284881626441594"><ele>271.25</ele><time>2026-04-11T14:04:15.999Z</time></trkpt><trkpt lat="43.918888399203745" lon="11.284932375356606"><ele>267.0</ele><time>2026-04-11T14:04:16.999Z</time></trkpt><trkpt lat="43.91904246928219" lon="11.28496872710425"><ele>267.0</ele><time>2026-04-11T14:04:17.999Z</time></trkpt><trkpt lat="43.91918549130679" lon="11.285000050700372"><ele>267.0</ele><time>2026-04-11T14:04:19Z</time></trkpt><trkpt lat="43.919337287217914" lon="11.285011025319518"><ele>267.0</ele><time>2026-04-11T14:04:20Z</time></trkpt><trkpt lat="43.9194943532227" lon="11.285000252873376"><ele>267.0</ele><time>2026-04-11T14:04:21Z</time></trkpt><trkpt lat="43.91965337735953" lon="11.284967951891169"><ele>267.0</ele><time>2026-04-11T14:04:22Z</time></trkpt><trkpt lat="43.91981426372642" lon="11.28494627837672"><ele>267.0</ele><time>2026-04-11T14:04:23Z</time></trkpt><trkpt lat="43.919972933560956" lon="11.28495237413564"><ele>268.0</ele><time>2026-04-11T14:04:24Z</time></trkpt><trkpt lat="43.92013092133742" lon="11.284984939454654"><ele>269.0</ele><time>2026-04-11T14:04:25Z</time></trkpt><trkpt lat="43.92027933070453" lon="11.285040224512382"><ele>270.0</ele><time>2026-04-11T14:04:26Z</time></trkpt><trkpt lat="43.92041369835998" lon="11.285107827144083"><ele>270.0</ele><time>2026-04-11T14:04:27Z</time></trkpt><trkpt lat="43.9205333700121" lon="11.28518743220137"><ele>270.0</ele><time>2026-04-11T14:04:28Z</time></trkpt><trkpt lat="43.920652646057334" lon="11.28527986777613"><ele>270.0</ele><time>2026-04-11T14:04:29Z</time></trkpt><trkpt lat="43.92078084151887" lon="11.285395727774238"><ele>270.0</ele><time>2026-04-11T14:04:30Z</time></trkpt><trkpt lat="43.920903537153315" lon="11.285535426391565"><ele>270.0</ele><time>2026-04-11T14:04:31Z</time></trkpt><trkpt lat="43.921033143042" lon="11.285658828592918"><ele>270.0</ele><time>2026-04-11T14:04:32Z</time></trkpt><trkpt lat="43.92113662692626" lon="11.285807793938403"><ele>270.0</ele><time>2026-04-11T14:04:33Z</time></trkpt><trkpt lat="43.921234825146634" lon="11.285960542916587"><ele>270.0</ele><time>2026-04-11T14:04:34Z</time></trkpt><trkpt lat="43.92133113910848" lon="11.286099255845716"><ele>270.0</ele><time>2026-04-11T14:04:35Z</time></trkpt><trkpt lat="43.92142786969136" lon="11.286252875297969"><ele>270.0</ele><time>2026-04-11T14:04:36Z</time></trkpt><trkpt lat="43.9215321536572" lon="11.286428145311913"><ele>270.0</ele><time>2026-04-11T14:04:37Z</time></trkpt><trkpt lat="43.92164354587102" lon="11.286612674625829"><ele>274.6666666666667</ele><time>2026-04-11T14:04:38Z</time></trkpt><trkpt lat="43.9217535884336" lon="11.286794584967103"><ele>279.33333333333337</ele><time>2026-04-11T14:04:39Z</time></trkpt><trkpt lat="43.92186995858973" lon="11.286972111121342"><ele>284.0</ele><time>2026-04-11T14:04:40Z</time></trkpt><trkpt lat="43.921987824981315" lon="11.287161560073978"><ele>280.0</ele><time>2026-04-11T14:04:41Z</time></trkpt><trkpt lat="43.92210808679786" lon="11.287347566693139"><ele>276.0</ele><time>2026-04-11T14:04:42Z</time></trkpt><trkpt lat="43.92222310394644" lon="11.287539666770332"><ele>272.0</ele><time>2026-04-11T14:04:43Z</time></trkpt><trkpt lat="43.92233950221375" lon="11.287728210252848"><ele>272.0</ele><time>2026-04-11T14:04:44Z</time></trkpt><trkpt lat="43.92245131847821" lon="11.287902974736559"><ele>272.0</ele><time>2026-04-11T14:04:45Z</time></trkpt><trkpt lat="43.922542283045786" lon="11.288064435850874"><ele>272.0</ele><time>2026-04-11T14:04:46Z</time></trkpt><trkpt lat="43.922641498711414" lon="11.288216493859391"><ele>273.33333333333337</ele><time>2026-04-11T14:04:47Z</time></trkpt><trkpt lat="43.922754547151484" lon="11.28833828127088"><ele>274.6666666666667</ele><time>2026-04-11T14:04:48Z</time></trkpt><trkpt lat="43.92289840121921" lon="11.288434710312808"><ele>276.0</ele><time>2026-04-11T14:04:49Z</time></trkpt><trkpt lat="43.923062436838855" lon="11.288514683086872"><ele>276.0</ele><time>2026-04-11T14:04:50Z</time></trkpt><trkpt lat="43.92324025140625" lon="11.288585632526802"><ele>276.0</ele><time>2026-04-11T14:04:51Z</time></trkpt><trkpt lat="43.923429031121664" lon="11.288653559614449"><ele>276.0</ele><time>2026-04-11T14:04:52Z</time></trkpt><trkpt lat="43.92359872763091" lon="11.288682400771446"><ele>278.3333333333333</ele><time>2026-04-11T14:04:53Z</time></trkpt><trkpt lat="43.92376674710217" lon="11.288691856377614"><ele>280.66666666666663</ele><time>2026-04-11T14:04:54Z</time></trkpt><trkpt lat="43.923936228189056" lon="11.288689114182633"><ele>283.0</ele><time>2026-04-11T14:04:55Z</time></trkpt><trkpt lat="43.92409929591036" lon="11.288656560810802"><ele>284.0</ele><time>2026-04-11T14:04:56Z</time></trkpt><trkpt lat="43.924267995546415" lon="11.288608861665756"><ele>285.0</ele><time>2026-04-11T14:04:57Z</time></trkpt><trkpt lat="43.92442481276217" lon="11.288568764209302"><ele>286.0</ele><time>2026-04-11T14:04:58Z</time></trkpt><trkpt lat="43.9245709790716" lon="11.28862895974305"><ele>286.0</ele><time>2026-04-11T14:04:59Z</time></trkpt><trkpt lat="43.92471447704429" lon="11.28869280599328"><ele>286.0</ele><time>2026-04-11T14:05:00Z</time></trkpt><trkpt lat="43.92484278395432" lon="11.288798506194027"><ele>286.0</ele><time>2026-04-11T14:05:01Z</time></trkpt><trkpt lat="43.92498222895658" lon="11.288896156244533"><ele>277.0</ele><time>2026-04-11T14:05:02Z</time></trkpt><trkpt lat="43.92512467292573" lon="11.288998916696753"><ele>268.0</ele><time>2026-04-11T14:05:03Z</time></trkpt><trkpt lat="43.925250825155416" lon="11.289120543751691"><ele>259.0</ele><time>2026-04-11T14:05:04Z</time></trkpt><trkpt lat="43.92537079859845" lon="11.289244477369753"><ele>259.0</ele><time>2026-04-11T14:05:05Z</time></trkpt><trkpt lat="43.92548876184023" lon="11.289367046080436"><ele>259.0</ele><time>2026-04-11T14:05:06Z</time></trkpt><trkpt lat="43.92561047903235" lon="11.289480841998744"><ele>259.0</ele><time>2026-04-11T14:05:07Z</time></trkpt><trkpt lat="43.925723946293694" lon="11.289589402205637"><ele>259.0</ele><time>2026-04-11T14:05:08Z</time></trkpt><trkpt lat="43.925839672379716" lon="11.289689836098404"><ele>259.66666666666663</ele><time>2026-04-11T14:05:09Z</time></trkpt><trkpt lat="43.92596571779886" lon="11.289806354983234"><ele>260.3333333333333</ele><time>2026-04-11T14:05:10Z</time></trkpt><trkpt lat="43.926104037909994" lon="11.289933994111776"><ele>261.0</ele><time>2026-04-11T14:05:11Z</time></trkpt><trkpt lat="43.92624219931879" lon="11.290065779018384"><ele>261.0</ele><time>2026-04-11T14:05:12Z</time></trkpt><trkpt lat="43.92637763408866" lon="11.290197167355005"><ele>261.0</ele><time>2026-04-11T14:05:13Z</time></trkpt><trkpt lat="43.926512432340246" lon="11.290327233765222"><ele>261.0</ele><time>2026-04-11T14:05:14Z</time></trkpt><trkpt lat="43.926643681776625" lon="11.290456217892803"><ele>261.3333333333333</ele><time>2026-04-11T14:05:15Z</time></trkpt><trkpt lat="43.92678129906166" lon="11.290582866060486"><ele>261.66666666666663</ele><time>2026-04-11T14:05:16Z</time></trkpt><trkpt lat="43.926926101427426" lon="11.290681247799025"><ele>262.0</ele><time>2026-04-11T14:05:17Z</time></trkpt><trkpt lat="43.927076972842265" lon="11.29074075363716"><ele>259.0</ele><time>2026-04-11T14:05:18Z</time></trkpt><trkpt lat="43.92722665434923" lon="11.29076008704464"><ele>256.0</ele><time>2026-04-11T14:05:19Z</time></trkpt><trkpt lat="43.927389726199074" lon="11.290750279617528"><ele>253.0</ele><time>2026-04-11T14:05:20Z</time></trkpt><trkpt lat="43.92754822640137" lon="11.290711284794261"><ele>253.0</ele><time>2026-04-11T14:05:21Z</time></trkpt><trkpt lat="43.9276987769058" lon="11.29064288985656"><ele>253.0</ele><time>2026-04-11T14:05:22Z</time></trkpt><trkpt lat="43.92786095933349" lon="11.290565594019268"><ele>253.0</ele><time>2026-04-11T14:05:23Z</time></trkpt><trkpt lat="43.9280281364865" lon="11.290487851256549"><ele>256.66666666666663</ele><time>2026-04-11T14:05:24Z</time></trkpt><trkpt lat="43.92820037868347" lon="11.290404192160443"><ele>260.3333333333333</ele><time>2026-04-11T14:05:25Z</time></trkpt><trkpt lat="43.928376778847294" lon="11.29032030900433"><ele>264.0</ele><time>2026-04-11T14:05:26Z</time></trkpt><trkpt lat="43.9285472531924" lon="11.290243058321954"><ele>267.3333333333333</ele><time>2026-04-11T14:05:27Z</time></trkpt><trkpt lat="43.92869597352645" lon="11.290168309909578"><ele>270.66666666666663</ele><time>2026-04-11T14:05:28Z</time></trkpt><trkpt lat="43.92884162798492" lon="11.290112949584683"><ele>274.0</ele><time>2026-04-11T14:05:29Z</time></trkpt><trkpt lat="43.92898436695416" lon="11.290084515628548"><ele>274.0</ele><time>2026-04-11T14:05:30Z</time></trkpt><trkpt lat="43.92912128018411" lon="11.290123731844385"><ele>274.0</ele><time>2026-04-11T14:05:31Z</time></trkpt><trkpt lat="43.929259767814806" lon="11.290136764774958"><ele>274.0</ele><time>2026-04-11T14:05:32Z</time></trkpt><trkpt lat="43.92938682289014" lon="11.290206489425769"><ele>274.0</ele><time>2026-04-11T14:05:32.999Z</time></trkpt><trkpt lat="43.929522894710914" lon="11.290302481869139"><ele>276.0</ele><time>2026-04-11T14:05:33.999Z</time></trkpt><trkpt lat="43.929667301608845" lon="11.29038902274815"><ele>278.0</ele><time>2026-04-11T14:05:34.999Z</time></trkpt><trkpt lat="43.929820406543705" lon="11.290470504525096"><ele>280.0</ele><time>2026-04-11T14:05:35.999Z</time></trkpt><trkpt lat="43.92997227413613" lon="11.290563651669734"><ele>275.3333333333333</ele><time>2026-04-11T14:05:36.999Z</time></trkpt><trkpt lat="43.93011953094625" lon="11.29065114193356"><ele>270.6666666666667</ele><time>2026-04-11T14:05:37.999Z</time></trkpt><trkpt lat="43.93025049476617" lon="11.290736809747692"><ele>266.0</ele><time>2026-04-11T14:05:38.999Z</time></trkpt><trkpt lat="43.93038706991227" lon="11.290832962741256"><ele>266.0</ele><time>2026-04-11T14:05:39.999Z</time></trkpt><trkpt lat="43.93051972182218" lon="11.290953090195279"><ele>266.0</ele><time>2026-04-11T14:05:40.999Z</time></trkpt><trkpt lat="43.93064641054115" lon="11.291083275911552"><ele>266.0</ele><time>2026-04-11T14:05:41.999Z</time></trkpt><trkpt lat="43.9307780032157" lon="11.291230278645639"><ele>266.6666666666667</ele><time>2026-04-11T14:05:42.999Z</time></trkpt><trkpt lat="43.93091347626802" lon="11.291389027935478"><ele>267.3333333333333</ele><time>2026-04-11T14:05:43.999Z</time></trkpt><trkpt lat="43.93103985823525" lon="11.29155021857815"><ele>268.0</ele><time>2026-04-11T14:05:44.999Z</time></trkpt><trkpt lat="43.931165995057974" lon="11.291727439675377"><ele>268.0</ele><time>2026-04-11T14:05:45.999Z</time></trkpt><trkpt lat="43.931291058468446" lon="11.291913075860851"><ele>268.0</ele><time>2026-04-11T14:05:46.999Z</time></trkpt><trkpt lat="43.931426688855886" lon="11.292094880777652"><ele>268.0</ele><time>2026-04-11T14:05:47.999Z</time></trkpt><trkpt lat="43.93155655041973" lon="11.292261882130436"><ele>266.0</ele><time>2026-04-11T14:05:48.999Z</time></trkpt><trkpt lat="43.93168987722022" lon="11.292438237491377"><ele>264.0</ele><time>2026-04-11T14:05:49.999Z</time></trkpt><trkpt lat="43.93181516382099" lon="11.292608529280908"><ele>262.0</ele><time>2026-04-11T14:05:50.999Z</time></trkpt><trkpt lat="43.93192430206268" lon="11.29275396344776"><ele>263.5</ele><time>2026-04-11T14:05:51.999Z</time></trkpt><trkpt lat="43.932029956207984" lon="11.292894102565148"><ele>265.0</ele><time>2026-04-11T14:05:52.999Z</time></trkpt><trkpt lat="43.93214135950518" lon="11.293040479503441"><ele>266.5</ele><time>2026-04-11T14:05:53.999Z</time></trkpt><trkpt lat="43.93225026729807" lon="11.293176904254862"><ele>268.0</ele><time>2026-04-11T14:05:54.999Z</time></trkpt><trkpt lat="43.93235972071338" lon="11.293314687116588"><ele>268.0</ele><time>2026-04-11T14:05:55.999Z</time></trkpt><trkpt lat="43.9324616589391" lon="11.293461948855883"><ele>268.0</ele><time>2026-04-11T14:05:56.999Z</time></trkpt><trkpt lat="43.93257026682052" lon="11.293596747114913"><ele>268.0</ele><time>2026-04-11T14:05:57.999Z</time></trkpt><trkpt lat="43.93269422015341" lon="11.293752676151453"><ele>268.3333333333333</ele><time>2026-04-11T14:05:58.999Z</time></trkpt><trkpt lat="43.93281754881409" lon="11.293916358698882"><ele>268.6666666666667</ele><time>2026-04-11T14:05:59.999Z</time></trkpt><trkpt lat="43.93294345891255" lon="11.294092471365069"><ele>269.0</ele><time>2026-04-11T14:06:00.999Z</time></trkpt><trkpt lat="43.933063980641144" lon="11.294272099987078"><ele>269.0</ele><time>2026-04-11T14:06:01.999Z</time></trkpt><trkpt lat="43.9331805357936" lon="11.294455467516293"><ele>269.0</ele><time>2026-04-11T14:06:02.999Z</time></trkpt><trkpt lat="43.93329624466445" lon="11.294626215084834"><ele>269.0</ele><time>2026-04-11T14:06:03.999Z</time></trkpt><trkpt lat="43.933397228277556" lon="11.294788730924513"><ele>269.25</ele><time>2026-04-11T14:06:04.999Z</time></trkpt><trkpt lat="43.93348460512865" lon="11.294948930961587"><ele>269.5</ele><time>2026-04-11T14:06:05.999Z</time></trkpt><trkpt lat="43.933571459062065" lon="11.295098415149582"><ele>269.75</ele><time>2026-04-11T14:06:06.999Z</time></trkpt><trkpt lat="43.93364814416241" lon="11.295237145795568"><ele>270.0</ele><time>2026-04-11T14:06:07.999Z</time></trkpt><trkpt lat="43.93372739219558" lon="11.29537948183715"><ele>270.0</ele><time>2026-04-11T14:06:08.999Z</time></trkpt><trkpt lat="43.93381134473625" lon="11.295507334038202"><ele>270.0</ele><time>2026-04-11T14:06:09.999Z</time></trkpt><trkpt lat="43.93388515706768" lon="11.295611513478903"><ele>270.0</ele><time>2026-04-11T14:06:10.999Z</time></trkpt><trkpt lat="43.933935260299386" lon="11.295713572991849"><ele>270.0</ele><time>2026-04-11T14:06:11.999Z</time></trkpt><trkpt lat="43.933977014289624" lon="11.295783915971326"><ele>270.0</ele><time>2026-04-11T14:06:13.999Z</time></trkpt><trkpt lat="43.934087669527706" lon="11.295682353391335"><ele>270.0</ele><time>2026-04-11T14:06:15.999Z</time></trkpt><trkpt lat="43.93409348697372" lon="11.295575543091871"><ele>270.0</ele><time>2026-04-11T14:06:16.999Z</time></trkpt><trkpt lat="43.934044538481075" lon="11.295455510746713"><ele>270.0</ele><time>2026-04-11T14:06:18.999Z</time></trkpt><trkpt lat="43.93406847608422" lon="11.295272567064053"><ele>270.0</ele><time>2026-04-11T14:06:20.999Z</time></trkpt><trkpt lat="43.93412389786575" lon="11.295181815796358"><ele>270.0</ele><time>2026-04-11T14:06:21.999Z</time></trkpt><trkpt lat="43.93419443551421" lon="11.295086577594947"><ele>273.4</ele><time>2026-04-11T14:06:22.999Z</time></trkpt><trkpt lat="43.93427236075937" lon="11.294979952760297"><ele>276.8</ele><time>2026-04-11T14:06:23.999Z</time></trkpt><trkpt lat="43.934351500125274" lon="11.294855555614246"><ele>280.2</ele><time>2026-04-11T14:06:25Z</time></trkpt><trkpt lat="43.93441656019746" lon="11.294728278040594"><ele>283.6</ele><time>2026-04-11T14:06:26Z</time></trkpt><trkpt lat="43.9344559607146" lon="11.2946071087331"><ele>287.0</ele><time>2026-04-11T14:06:27Z</time></trkpt><trkpt lat="43.93447641618218" lon="11.29450966316415"><ele>287.1666666666667</ele><time>2026-04-11T14:06:28Z</time></trkpt><trkpt lat="43.93449939905042" lon="11.294406442128347"><ele>287.33333333333337</ele><time>2026-04-11T14:06:29Z</time></trkpt><trkpt lat="43.93451835343602" lon="11.29429280298558"><ele>287.5</ele><time>2026-04-11T14:06:31Z</time></trkpt><trkpt lat="43.9345354358347" lon="11.294171128500835"><ele>287.6666666666667</ele><time>2026-04-11T14:07:55.999Z</time></trkpt><trkpt lat="43.9345457453328" lon="11.29407802172317"><ele>287.8333333333333</ele><time>2026-04-11T14:07:56.999Z</time></trkpt><trkpt lat="43.93456931105333" lon="11.29397820630219"><ele>288.0</ele><time>2026-04-11T14:07:57.999Z</time></trkpt><trkpt lat="43.93459259782197" lon="11.293870124327567"><ele>288.8</ele><time>2026-04-11T14:07:58.999Z</time></trkpt><trkpt lat="43.934625860787186" lon="11.293756909698635"><ele>289.6</ele><time>2026-04-11T14:07:59.999Z</time></trkpt><trkpt lat="43.934676793841625" lon="11.293633895980953"><ele>290.4</ele><time>2026-04-11T14:08:00.999Z</time></trkpt><trkpt lat="43.93468773915917" lon="11.293474049567864"><ele>291.2</ele><time>2026-04-11T14:08:01.999Z</time></trkpt><trkpt lat="43.9347203602509" lon="11.293320678377732"><ele>292.0</ele><time>2026-04-11T14:08:02.999Z</time></trkpt><trkpt lat="43.934748493533846" lon="11.293212825616303"><ele>292.0</ele><time>2026-04-11T14:08:03.999Z</time></trkpt><trkpt lat="43.93477654946699" lon="11.293115535857952"><ele>292.0</ele><time>2026-04-11T14:08:04.999Z</time></trkpt><trkpt lat="43.93482857457255" lon="11.293049800255616"><ele>292.0</ele><time>2026-04-11T14:08:05.999Z</time></trkpt><trkpt lat="43.93490255065223" lon="11.293004648918144"><ele>292.0</ele><time>2026-04-11T14:08:06.999Z</time></trkpt><trkpt lat="43.934988903828014" lon="11.29298976136745"><ele>292.0</ele><time>2026-04-11T14:08:07.999Z</time></trkpt><trkpt lat="43.935097044007094" lon="11.29295525069857"><ele>292.0</ele><time>2026-04-11T14:08:08.999Z</time></trkpt><trkpt lat="43.935201407437724" lon="11.292922788996892"><ele>296.75</ele><time>2026-04-11T14:08:09.999Z</time></trkpt><trkpt lat="43.93532508656654" lon="11.292872208610321"><ele>301.5</ele><time>2026-04-11T14:08:10.999Z</time></trkpt><trkpt lat="43.93545188962749" lon="11.292805341231977"><ele>306.25</ele><time>2026-04-11T14:08:11.999Z</time></trkpt><trkpt lat="43.93556605714774" lon="11.292742238506165"><ele>311.0</ele><time>2026-04-11T14:08:12.999Z</time></trkpt><trkpt lat="43.935663295541616" lon="11.292690978371843"><ele>311.0</ele><time>2026-04-11T14:08:13.999Z</time></trkpt><trkpt lat="43.93574524397345" lon="11.292652446537065"><ele>311.0</ele><time>2026-04-11T14:08:14.999Z</time></trkpt><trkpt lat="43.93583652429696" lon="11.292622684012198"><ele>311.0</ele><time>2026-04-11T14:08:15.999Z</time></trkpt><trkpt lat="43.93593877257397" lon="11.292607519864664"><ele>311.0</ele><time>2026-04-11T14:08:16.999Z</time></trkpt><trkpt lat="43.9360276949276" lon="11.292603326130067"><ele>311.0</ele><time>2026-04-11T14:08:17.999Z</time></trkpt><trkpt lat="43.9361039822893" lon="11.292573955043373"><ele>312.2</ele><time>2026-04-11T14:08:18.999Z</time></trkpt><trkpt lat="43.9361663347504" lon="11.292420534714816"><ele>313.40000000000003</ele><time>2026-04-11T14:08:20.999Z</time></trkpt><trkpt lat="43.93615860457521" lon="11.292303366216123"><ele>314.6</ele><time>2026-04-11T14:08:21.999Z</time></trkpt><trkpt lat="43.93616315782538" lon="11.292183962313358"><ele>315.8</ele><time>2026-04-11T14:08:22.999Z</time></trkpt><trkpt lat="43.93621075252797" lon="11.292084541614994"><ele>317.0</ele><time>2026-04-11T14:08:23.999Z</time></trkpt><trkpt lat="43.93628396592432" lon="11.29203638277788"><ele>320.0</ele><time>2026-04-11T14:08:24.999Z</time></trkpt><trkpt lat="43.93636994063992" lon="11.2920117765427"><ele>323.0</ele><time>2026-04-11T14:08:25.999Z</time></trkpt><trkpt lat="43.9364624125717" lon="11.291975746967623"><ele>326.0</ele><time>2026-04-11T14:08:26.999Z</time></trkpt><trkpt lat="43.936568568692664" lon="11.291926518054535"><ele>329.0</ele><time>2026-04-11T14:08:27.999Z</time></trkpt><trkpt lat="43.936678390639635" lon="11.291876359582753"><ele>332.0</ele><time>2026-04-11T14:08:28.999Z</time></trkpt><trkpt lat="43.93677123953162" lon="11.291853492969118"><ele>332.6</ele><time>2026-04-11T14:08:29.999Z</time></trkpt><trkpt lat="43.936860702571046" lon="11.291856944668213"><ele>333.20000000000005</ele><time>2026-04-11T14:08:31Z</time></trkpt><trkpt lat="43.936943988353704" lon="11.291905436899166"><ele>333.8</ele><time>2026-04-11T14:08:32Z</time></trkpt><trkpt lat="43.936993679777835" lon="11.291975343489616"><ele>334.4</ele><time>2026-04-11T14:08:33Z</time></trkpt><trkpt lat="43.93706188903669" lon="11.292057830989856"><ele>335.0</ele><time>2026-04-11T14:08:34Z</time></trkpt><trkpt lat="43.93717398232428" lon="11.292011925247428"><ele>335.0</ele><time>2026-04-11T14:08:36Z</time></trkpt><trkpt lat="43.93721229572651" lon="11.291921971012345"><ele>335.0</ele><time>2026-04-11T14:08:37Z</time></trkpt><trkpt lat="43.93722673310057" lon="11.29182596099508"><ele>335.0</ele><time>2026-04-11T14:08:38Z</time></trkpt><trkpt lat="43.937240984425884" lon="11.29171827090013"><ele>335.0</ele><time>2026-04-11T14:08:39Z</time></trkpt><trkpt lat="43.937253813755746" lon="11.291594602094223"><ele>335.0</ele><time>2026-04-11T14:08:40Z</time></trkpt><trkpt lat="43.937271687013364" lon="11.291463073540392"><ele>335.0</ele><time>2026-04-11T14:08:41Z</time></trkpt><trkpt lat="43.93726605501009" lon="11.291335515213076"><ele>336.5</ele><time>2026-04-11T14:08:42Z</time></trkpt><trkpt lat="43.93724749659035" lon="11.291198681723662"><ele>338.0</ele><time>2026-04-11T14:08:43Z</time></trkpt><trkpt lat="43.9372022246671" lon="11.291045276764384"><ele>339.5</ele><time>2026-04-11T14:08:44Z</time></trkpt><trkpt lat="43.937153739476116" lon="11.290879488037266"><ele>341.0</ele><time>2026-04-11T14:08:45Z</time></trkpt><trkpt lat="43.93709608822659" lon="11.290710734736901"><ele>342.4</ele><time>2026-04-11T14:08:46Z</time></trkpt><trkpt lat="43.93704582870441" lon="11.29054962126934"><ele>343.8</ele><time>2026-04-11T14:08:47Z</time></trkpt><trkpt lat="43.937038821284546" lon="11.290427298858704"><ele>345.2</ele><time>2026-04-11T14:08:48Z</time></trkpt><trkpt lat="43.937008478678976" lon="11.290286130198709"><ele>346.59999999999997</ele><time>2026-04-11T14:08:49Z</time></trkpt><trkpt lat="43.93696724638749" lon="11.290189472584558"><ele>348.0</ele><time>2026-04-11T14:08:50Z</time></trkpt><trkpt lat="43.93691243204954" lon="11.290097874311927"><ele>348.0</ele><time>2026-04-11T14:08:51Z</time></trkpt><trkpt lat="43.93688578215935" lon="11.289980254520056"><ele>348.0</ele><time>2026-04-11T14:08:52Z</time></trkpt><trkpt lat="43.93689670682244" lon="11.28988430293226"><ele>348.0</ele><time>2026-04-11T14:08:53Z</time></trkpt><trkpt lat="43.93693517009694" lon="11.289800645664071"><ele>348.0</ele><time>2026-04-11T14:08:54Z</time></trkpt><trkpt lat="43.937002375558095" lon="11.289763770536455"><ele>348.0</ele><time>2026-04-11T14:08:55Z</time></trkpt><trkpt lat="43.93708937550227" lon="11.2897361264466"><ele>348.0</ele><time>2026-04-11T14:08:56Z</time></trkpt><trkpt lat="43.93719063732102" lon="11.28973045090361"><ele>349.4</ele><time>2026-04-11T14:08:57Z</time></trkpt><trkpt lat="43.93729665835801" lon="11.289734677900421"><ele>350.79999999999995</ele><time>2026-04-11T14:08:58Z</time></trkpt><trkpt lat="43.93742265480157" lon="11.289731519545409"><ele>352.2</ele><time>2026-04-11T14:08:59Z</time></trkpt><trkpt lat="43.93752440297054" lon="11.289707379151436"><ele>353.6</ele><time>2026-04-11T14:09:00Z</time></trkpt><trkpt lat="43.93761092567717" lon="11.289657140193487"><ele>355.0</ele><time>2026-04-11T14:09:01Z</time></trkpt><trkpt lat="43.937687427857554" lon="11.289573884145996"><ele>357.4</ele><time>2026-04-11T14:09:02Z</time></trkpt><trkpt lat="43.937771587242814" lon="11.289489621547867"><ele>359.8</ele><time>2026-04-11T14:09:03Z</time></trkpt><trkpt lat="43.9378480246023" lon="11.289368564923548"><ele>362.20000000000005</ele><time>2026-04-11T14:09:04Z</time></trkpt><trkpt lat="43.9379206102824" lon="11.289285139919174"><ele>364.6</ele><time>2026-04-11T14:09:05Z</time></trkpt><trkpt lat="43.93799614189035" lon="11.289241517045813"><ele>367.0</ele><time>2026-04-11T14:09:06Z</time></trkpt><trkpt lat="43.93808369956886" lon="11.28924566633947"><ele>367.0</ele><time>2026-04-11T14:09:07Z</time></trkpt><trkpt lat="43.93817048213175" lon="11.289301377469833"><ele>367.0</ele><time>2026-04-11T14:09:08Z</time></trkpt><trkpt lat="43.938252479561164" lon="11.289373992511962"><ele>367.0</ele><time>2026-04-11T14:09:09Z</time></trkpt><trkpt lat="43.93834542505418" lon="11.289455823725582"><ele>367.0</ele><time>2026-04-11T14:09:10Z</time></trkpt><trkpt lat="43.938434540384144" lon="11.289507808047356"><ele>367.0</ele><time>2026-04-11T14:09:11Z</time></trkpt><trkpt lat="43.93852838059036" lon="11.289572248695471"><ele>367.5</ele><time>2026-04-11T14:09:12Z</time></trkpt><trkpt lat="43.93863965116179" lon="11.289642949442953"><ele>368.0</ele><time>2026-04-11T14:09:13Z</time></trkpt><trkpt lat="43.9387239205894" lon="11.289756214942175"><ele>368.5</ele><time>2026-04-11T14:09:14Z</time></trkpt><trkpt lat="43.93881031267461" lon="11.289883481039052"><ele>369.0</ele><time>2026-04-11T14:09:15Z</time></trkpt><trkpt lat="43.938898615760785" lon="11.289967849203096"><ele>369.0</ele><time>2026-04-11T14:09:16Z</time></trkpt><trkpt lat="43.93899078108801" lon="11.290016261350928"><ele>369.0</ele><time>2026-04-11T14:09:17Z</time></trkpt><trkpt lat="43.939087367643445" lon="11.290026756046553"><ele>369.0</ele><time>2026-04-11T14:09:18Z</time></trkpt><trkpt lat="43.93916157452745" lon="11.289996348916958"><ele>369.0</ele><time>2026-04-11T14:09:19Z</time></trkpt><trkpt lat="43.93922278343332" lon="11.289920430012849"><ele>369.0</ele><time>2026-04-11T14:09:20Z</time></trkpt><trkpt lat="43.939279734721545" lon="11.289814276053798"><ele>372.4</ele><time>2026-04-11T14:09:21Z</time></trkpt><trkpt lat="43.93933898309709" lon="11.289697938310892"><ele>375.79999999999995</ele><time>2026-04-11T14:09:22Z</time></trkpt><trkpt lat="43.93939394746418" lon="11.289590859685777"><ele>379.20000000000005</ele><time>2026-04-11T14:09:23Z</time></trkpt><trkpt lat="43.93946428065519" lon="11.28949282021346"><ele>382.6</ele><time>2026-04-11T14:09:24Z</time></trkpt><trkpt lat="43.93955521127403" lon="11.289400157558696"><ele>386.0</ele><time>2026-04-11T14:09:25Z</time></trkpt><trkpt lat="43.9396654972487" lon="11.289318341733381"><ele>386.0</ele><time>2026-04-11T14:09:26Z</time></trkpt><trkpt lat="43.93976775447591" lon="11.289244337118351"><ele>386.0</ele><time>2026-04-11T14:09:27Z</time></trkpt><trkpt lat="43.939867660732205" lon="11.289187957231766"><ele>386.0</ele><time>2026-04-11T14:09:28Z</time></trkpt><trkpt lat="43.93996735831624" lon="11.289176354600075"><ele>386.0</ele><time>2026-04-11T14:09:29Z</time></trkpt><trkpt lat="43.94007483668192" lon="11.289185419388579"><ele>386.0</ele><time>2026-04-11T14:09:30Z</time></trkpt><trkpt lat="43.94018238901191" lon="11.289209425361696"><ele>388.20000000000005</ele><time>2026-04-11T14:09:31Z</time></trkpt><trkpt lat="43.94027952542358" lon="11.289230007050694"><ele>390.40000000000003</ele><time>2026-04-11T14:09:32Z</time></trkpt><trkpt lat="43.94035708948983" lon="11.289256810148496"><ele>392.6</ele><time>2026-04-11T14:09:33Z</time></trkpt><trkpt lat="43.9404489924755" lon="11.289288886431365"><ele>394.8</ele><time>2026-04-11T14:09:34Z</time></trkpt><trkpt lat="43.940550329913535" lon="11.289310561037635"><ele>397.0</ele><time>2026-04-11T14:09:36Z</time></trkpt><trkpt lat="43.94067545813724" lon="11.289346927678729"><ele>397.0</ele><time>2026-04-11T14:09:38Z</time></trkpt><trkpt lat="43.94076540560227" lon="11.289384999594034"><ele>397.0</ele><time>2026-04-11T14:09:39Z</time></trkpt><trkpt lat="43.9408633390158" lon="11.289419029184668"><ele>397.0</ele><time>2026-04-11T14:09:40Z</time></trkpt><trkpt lat="43.940965016837545" lon="11.289456790692439"><ele>397.0</ele><time>2026-04-11T14:09:40.999Z</time></trkpt><trkpt lat="43.94106870193602" lon="11.289489232200914"><ele>397.0</ele><time>2026-04-11T14:09:41.999Z</time></trkpt><trkpt lat="43.94119180819892" lon="11.289509942671534"><ele>397.75</ele><time>2026-04-11T14:09:42.999Z</time></trkpt><trkpt lat="43.94131003064083" lon="11.289519404522641"><ele>398.5</ele><time>2026-04-11T14:09:43.999Z</time></trkpt><trkpt lat="43.94144014100016" lon="11.289513988863593"><ele>399.25</ele><time>2026-04-11T14:09:44.999Z</time></trkpt><trkpt lat="43.94154247706019" lon="11.289499944403085"><ele>400.0</ele><time>2026-04-11T14:09:45.999Z</time></trkpt><trkpt lat="43.94165372625947" lon="11.289506930768523"><ele>401.8</ele><time>2026-04-11T14:09:46.999Z</time></trkpt><trkpt lat="43.941765412223795" lon="11.289473876071039"><ele>403.6</ele><time>2026-04-11T14:09:47.999Z</time></trkpt><trkpt lat="43.94187598196247" lon="11.28944190375563"><ele>405.4</ele><time>2026-04-11T14:09:48.999Z</time></trkpt><trkpt lat="43.94199065137914" lon="11.289420228885236"><ele>407.2</ele><time>2026-04-11T14:09:49.999Z</time></trkpt><trkpt lat="43.94208120225452" lon="11.289401957966009"><ele>409.0</ele><time>2026-04-11T14:09:50.999Z</time></trkpt><trkpt lat="43.94216531797256" lon="11.289395386664673"><ele>409.00000000000006</ele><time>2026-04-11T14:09:51.999Z</time></trkpt><trkpt lat="43.94224462854659" lon="11.28940371401053"><ele>409.0</ele><time>2026-04-11T14:09:52.999Z</time></trkpt><trkpt lat="43.942327198061655" lon="11.2894633998375"><ele>409.0</ele><time>2026-04-11T14:09:55.999Z</time></trkpt><trkpt lat="43.94238212510572" lon="11.289577535869613"><ele>409.0</ele><time>2026-04-11T14:09:57.999Z</time></trkpt><trkpt lat="43.942415075064126" lon="11.28966548261653"><ele>409.00000000000006</ele><time>2026-04-11T14:09:58.999Z</time></trkpt><trkpt lat="43.94243946719915" lon="11.289768663717778"><ele>409.0</ele><time>2026-04-11T14:09:59.999Z</time></trkpt><trkpt lat="43.94247526046048" lon="11.28987660061196"><ele>408.79999999999995</ele><time>2026-04-11T14:10:00.999Z</time></trkpt><trkpt lat="43.942592749674674" lon="11.289969922350313"><ele>408.59999999999997</ele><time>2026-04-11T14:10:02.999Z</time></trkpt><trkpt lat="43.94268087174616" lon="11.289991114082744"><ele>408.4</ele><time>2026-04-11T14:10:03.999Z</time></trkpt><trkpt lat="43.94276956631226" lon="11.29003562795198"><ele>408.2</ele><time>2026-04-11T14:10:04.999Z</time></trkpt><trkpt lat="43.94283504692504" lon="11.290106728783046"><ele>408.0</ele><time>2026-04-11T14:10:05.999Z</time></trkpt><trkpt lat="43.94289633264521" lon="11.290202923981631"><ele>408.0</ele><time>2026-04-11T14:10:06.999Z</time></trkpt><trkpt lat="43.9429453978138" lon="11.290321051182023"><ele>408.0</ele><time>2026-04-11T14:10:07.999Z</time></trkpt><trkpt lat="43.942985297740464" lon="11.290461415053137"><ele>408.0</ele><time>2026-04-11T14:10:08.999Z</time></trkpt><trkpt lat="43.943028560965196" lon="11.29058225774771"><ele>408.0</ele><time>2026-04-11T14:10:09.999Z</time></trkpt><trkpt lat="43.94307193969969" lon="11.290687723210073"><ele>408.0</ele><time>2026-04-11T14:10:10.999Z</time></trkpt><trkpt lat="43.94311524316871" lon="11.290789938061254"><ele>406.6666666666667</ele><time>2026-04-11T14:10:11.999Z</time></trkpt><trkpt lat="43.94316708492121" lon="11.290902859056233"><ele>405.33333333333337</ele><time>2026-04-11T14:10:12.999Z</time></trkpt><trkpt lat="43.94321875657727" lon="11.29098896925713"><ele>404.0</ele><time>2026-04-11T14:10:13.999Z</time></trkpt><trkpt lat="43.943273438408355" lon="11.291050016382627"><ele>402.6666666666667</ele><time>2026-04-11T14:10:14.999Z</time></trkpt><trkpt lat="43.94336460718323" lon="11.291077906620238"><ele>401.33333333333337</ele><time>2026-04-11T14:10:16.999Z</time></trkpt><trkpt lat="43.943457806550654" lon="11.291035549510314"><ele>400.0</ele><time>2026-04-11T14:10:19.999Z</time></trkpt><trkpt lat="43.943517217408655" lon="11.291002388640047"><ele>400.50000000000006</ele><time>2026-04-11T14:10:20.999Z</time></trkpt><trkpt lat="43.94358501157505" lon="11.290950383166772"><ele>401.0</ele><time>2026-04-11T14:10:21.999Z</time></trkpt><trkpt lat="43.943659593232724" lon="11.290879611829512"><ele>401.5</ele><time>2026-04-11T14:10:22.999Z</time></trkpt><trkpt lat="43.943739180892166" lon="11.290797845804011"><ele>402.0</ele><time>2026-04-11T14:10:23.999Z</time></trkpt><trkpt lat="43.943807054006534" lon="11.290707807107623"><ele>402.50000000000006</ele><time>2026-04-11T14:10:24.999Z</time></trkpt><trkpt lat="43.943847567741145" lon="11.290632343870124"><ele>403.0</ele><time>2026-04-11T14:10:25.999Z</time></trkpt><trkpt lat="43.94389316176037" lon="11.290456578107188"><ele>403.0</ele><time>2026-04-11T14:10:27.999Z</time></trkpt><trkpt lat="43.94389533707426" lon="11.290331636253047"><ele>403.0</ele><time>2026-04-11T14:10:28.999Z</time></trkpt><trkpt lat="43.94388308742734" lon="11.290180209106117"><ele>403.0</ele><time>2026-04-11T14:10:29.999Z</time></trkpt><trkpt lat="43.943867196290235" lon="11.290013576383833"><ele>403.0</ele><time>2026-04-11T14:10:30.999Z</time></trkpt><trkpt lat="43.94383678066911" lon="11.289862174150167"><ele>403.0</ele><time>2026-04-11T14:10:31.999Z</time></trkpt><trkpt lat="43.94379425053733" lon="11.289715448166461"><ele>404.1666666666667</ele><time>2026-04-11T14:10:32.999Z</time></trkpt><trkpt lat="43.943740168771164" lon="11.289576810382457"><ele>405.33333333333337</ele><time>2026-04-11T14:10:33.999Z</time></trkpt><trkpt lat="43.94368603565233" lon="11.289461415762496"><ele>406.5</ele><time>2026-04-11T14:10:34.999Z</time></trkpt><trkpt lat="43.94364768833835" lon="11.289373219299646"><ele>407.66666666666663</ele><time>2026-04-11T14:10:35.999Z</time></trkpt><trkpt lat="43.943620750995635" lon="11.289280987421977"><ele>408.8333333333333</ele><time>2026-04-11T14:10:37Z</time></trkpt><trkpt lat="43.94360247590062" lon="11.289188971814047"><ele>410.0</ele><time>2026-04-11T14:10:38Z</time></trkpt><trkpt lat="43.9436097145463" lon="11.289100482319277"><ele>410.0</ele><time>2026-04-11T14:10:39Z</time></trkpt><trkpt lat="43.94362358537966" lon="11.288987380341545"><ele>410.0</ele><time>2026-04-11T14:10:40Z</time></trkpt><trkpt lat="43.94365219789154" lon="11.288860859429366"><ele>410.0</ele><time>2026-04-11T14:10:41Z</time></trkpt><trkpt lat="43.943680244406416" lon="11.288712443580627"><ele>410.0</ele><time>2026-04-11T14:10:42Z</time></trkpt><trkpt lat="43.943704513366264" lon="11.288550443924464"><ele>410.0</ele><time>2026-04-11T14:10:43Z</time></trkpt><trkpt lat="43.94373772784538" lon="11.288368813626539"><ele>412.5</ele><time>2026-04-11T14:10:44Z</time></trkpt><trkpt lat="43.94377216368374" lon="11.28818337452998"><ele>415.0</ele><time>2026-04-11T14:10:45Z</time></trkpt><trkpt lat="43.943786710243394" lon="11.288011835365722"><ele>417.5</ele><time>2026-04-11T14:10:46Z</time></trkpt><trkpt lat="43.943801706873266" lon="11.287854995829727"><ele>420.0</ele><time>2026-04-11T14:10:47Z</time></trkpt><trkpt lat="43.943804491084535" lon="11.287686694290858"><ele>422.2</ele><time>2026-04-11T14:10:48Z</time></trkpt><trkpt lat="43.94382781691419" lon="11.287530964241244"><ele>424.4</ele><time>2026-04-11T14:10:49Z</time></trkpt><trkpt lat="43.94384489875162" lon="11.287387494749172"><ele>426.6</ele><time>2026-04-11T14:10:50Z</time></trkpt><trkpt lat="43.94385538754161" lon="11.287273701436638"><ele>428.8</ele><time>2026-04-11T14:10:51Z</time></trkpt><trkpt lat="43.943859628405754" lon="11.287155309614606"><ele>431.0</ele><time>2026-04-11T14:10:52Z</time></trkpt><trkpt lat="43.943886638996645" lon="11.287038147827735"><ele>431.8</ele><time>2026-04-11T14:10:53Z</time></trkpt><trkpt lat="43.94392934360613" lon="11.286947393542025"><ele>432.6</ele><time>2026-04-11T14:10:54Z</time></trkpt><trkpt lat="43.94399510279881" lon="11.28685309076645"><ele>433.4</ele><time>2026-04-11T14:10:55Z</time></trkpt><trkpt lat="43.944090456800076" lon="11.286775642569365"><ele>434.2</ele><time>2026-04-11T14:10:56Z</time></trkpt><trkpt lat="43.94419458319934" lon="11.286713645026976"><ele>435.0</ele><time>2026-04-11T14:10:57Z</time></trkpt><trkpt lat="43.9443114512738" lon="11.286631332350723"><ele>435.0</ele><time>2026-04-11T14:10:58Z</time></trkpt><trkpt lat="43.94443746171493" lon="11.286529268391902"><ele>435.0</ele><time>2026-04-11T14:10:59Z</time></trkpt><trkpt lat="43.944568360297275" lon="11.286427909178656"><ele>435.0</ele><time>2026-04-11T14:11:00Z</time></trkpt><trkpt lat="43.94469485048027" lon="11.28632037125969"><ele>435.0</ele><time>2026-04-11T14:11:01Z</time></trkpt><trkpt lat="43.94482501665508" lon="11.286212950269956"><ele>436.75</ele><time>2026-04-11T14:11:02Z</time></trkpt><trkpt lat="43.94494634605938" lon="11.286113743001222"><ele>438.5</ele><time>2026-04-11T14:11:03Z</time></trkpt><trkpt lat="43.94507098529977" lon="11.286009582792483"><ele>440.25</ele><time>2026-04-11T14:11:04Z</time></trkpt><trkpt lat="43.945185462563494" lon="11.285913744469472"><ele>442.0</ele><time>2026-04-11T14:11:05Z</time></trkpt><trkpt lat="43.94529398979128" lon="11.285832786824141"><ele>442.0</ele><time>2026-04-11T14:11:06Z</time></trkpt><trkpt lat="43.945398181590924" lon="11.285760169509008"><ele>442.00000000000006</ele><time>2026-04-11T14:11:07Z</time></trkpt><trkpt lat="43.94549799382963" lon="11.285712523035086"><ele>442.00000000000006</ele><time>2026-04-11T14:11:08Z</time></trkpt><trkpt lat="43.94559774111138" lon="11.28567709129799"><ele>442.0</ele><time>2026-04-11T14:11:09Z</time></trkpt><trkpt lat="43.94567170655364" lon="11.285661526656662"><ele>442.0</ele><time>2026-04-11T14:11:10Z</time></trkpt><trkpt lat="43.945735007221764" lon="11.28565395788056"><ele>442.00000000000006</ele><time>2026-04-11T14:11:11Z</time></trkpt><trkpt lat="43.94580840559931" lon="11.285647705429206"><ele>442.0</ele><time>2026-04-11T14:11:12Z</time></trkpt><trkpt lat="43.945884581255996" lon="11.285655411045973"><ele>442.0</ele><time>2026-04-11T14:11:13Z</time></trkpt><trkpt lat="43.945964336645986" lon="11.285647102612629"><ele>442.0</ele><time>2026-04-11T14:11:14Z</time></trkpt><trkpt lat="43.946064475560625" lon="11.285647393013543"><ele>442.00000000000006</ele><time>2026-04-11T14:11:15Z</time></trkpt><trkpt lat="43.94616016048743" lon="11.285650992351547"><ele>442.0</ele><time>2026-04-11T14:11:16Z</time></trkpt><trkpt lat="43.94625622588349" lon="11.285657957451859"><ele>440.25</ele><time>2026-04-11T14:11:17Z</time></trkpt><trkpt lat="43.946365191336426" lon="11.285661104397954"><ele>438.5</ele><time>2026-04-11T14:11:18Z</time></trkpt><trkpt lat="43.946480448883214" lon="11.28564574592174"><ele>436.75</ele><time>2026-04-11T14:11:19Z</time></trkpt><trkpt lat="43.946597153975304" lon="11.285614559337246"><ele>435.0</ele><time>2026-04-11T14:11:20Z</time></trkpt><trkpt lat="43.94672004188273" lon="11.285586100277683"><ele>434.25</ele><time>2026-04-11T14:11:21Z</time></trkpt><trkpt lat="43.94683704654167" lon="11.28554860640379"><ele>433.5</ele><time>2026-04-11T14:11:22Z</time></trkpt><trkpt lat="43.9469620092174" lon="11.285499926699677"><ele>432.75</ele><time>2026-04-11T14:11:23Z</time></trkpt><trkpt lat="43.94707116396529" lon="11.285459016552487"><ele>432.0</ele><time>2026-04-11T14:11:24Z</time></trkpt><trkpt lat="43.947176332891786" lon="11.285422704990381"><ele>432.0</ele><time>2026-04-11T14:11:25Z</time></trkpt><trkpt lat="43.947281112586" lon="11.28538350691208"><ele>432.00000000000006</ele><time>2026-04-11T14:11:26Z</time></trkpt><trkpt lat="43.94738120040157" lon="11.285344659141625"><ele>432.00000000000006</ele><time>2026-04-11T14:11:27Z</time></trkpt><trkpt lat="43.94747296377964" lon="11.285311378019733"><ele>432.0</ele><time>2026-04-11T14:11:28Z</time></trkpt><trkpt lat="43.94756682975316" lon="11.285278085038073"><ele>432.0</ele><time>2026-04-11T14:11:29Z</time></trkpt><trkpt lat="43.947653460658685" lon="11.285252538363686"><ele>430.8</ele><time>2026-04-11T14:11:30Z</time></trkpt><trkpt lat="43.947735149807045" lon="11.285224457271108"><ele>429.6</ele><time>2026-04-11T14:11:31Z</time></trkpt><trkpt lat="43.94781184161777" lon="11.285205001222218"><ele>428.40000000000003</ele><time>2026-04-11T14:11:32Z</time></trkpt><trkpt lat="43.947902015863875" lon="11.285187110383662"><ele>427.20000000000005</ele><time>2026-04-11T14:11:33Z</time></trkpt><trkpt lat="43.94800375680051" lon="11.28515799491566"><ele>426.0</ele><time>2026-04-11T14:11:34Z</time></trkpt><trkpt lat="43.948114824752615" lon="11.285135003518871"><ele>426.0</ele><time>2026-04-11T14:11:35Z</time></trkpt><trkpt lat="43.948240812467546" lon="11.28510935323666"><ele>426.0</ele><time>2026-04-11T14:11:36Z</time></trkpt><trkpt lat="43.94836580697361" lon="11.285089257985733"><ele>426.0</ele><time>2026-04-11T14:11:37Z</time></trkpt><trkpt lat="43.94849364942654" lon="11.285081142451258"><ele>426.0</ele><time>2026-04-11T14:11:38Z</time></trkpt><trkpt lat="43.94863395733431" lon="11.285047633873903"><ele>424.75</ele><time>2026-04-11T14:11:39Z</time></trkpt><trkpt lat="43.94877526598094" lon="11.285007912901932"><ele>423.5</ele><time>2026-04-11T14:11:40Z</time></trkpt><trkpt lat="43.948918986142054" lon="11.284975724368763"><ele>422.25</ele><time>2026-04-11T14:11:41Z</time></trkpt><trkpt lat="43.94904519302347" lon="11.284958230543323"><ele>421.0</ele><time>2026-04-11T14:11:42Z</time></trkpt><trkpt lat="43.94917471062424" lon="11.284952180577971"><ele>422.0</ele><time>2026-04-11T14:11:42.999Z</time></trkpt><trkpt lat="43.949298198426355" lon="11.28496299506532"><ele>423.0</ele><time>2026-04-11T14:11:43.999Z</time></trkpt><trkpt lat="43.94943009769154" lon="11.284996345776527"><ele>424.0</ele><time>2026-04-11T14:11:44.999Z</time></trkpt><trkpt lat="43.94957565901057" lon="11.285032901444957"><ele>425.0</ele><time>2026-04-11T14:11:45.999Z</time></trkpt><trkpt lat="43.94972281537316" lon="11.285070725720784"><ele>425.0</ele><time>2026-04-11T14:11:46.999Z</time></trkpt><trkpt lat="43.94987746214656" lon="11.285101123652545"><ele>425.0</ele><time>2026-04-11T14:11:47.999Z</time></trkpt><trkpt lat="43.95001011786521" lon="11.285096157434003"><ele>425.0</ele><time>2026-04-11T14:11:48.999Z</time></trkpt><trkpt lat="43.95014058224183" lon="11.285091068560218"><ele>425.0</ele><time>2026-04-11T14:11:49.999Z</time></trkpt><trkpt lat="43.95026403325425" lon="11.285110545624786"><ele>429.0</ele><time>2026-04-11T14:11:50.999Z</time></trkpt><trkpt lat="43.950386346844034" lon="11.285165190452972"><ele>433.0</ele><time>2026-04-11T14:11:51.999Z</time></trkpt><trkpt lat="43.950502506925886" lon="11.285237095645469"><ele>437.0</ele><time>2026-04-11T14:11:52.999Z</time></trkpt><trkpt lat="43.95060237979462" lon="11.285293790533675"><ele>441.0</ele><time>2026-04-11T14:11:53.999Z</time></trkpt><trkpt lat="43.95070498543794" lon="11.28534426429946"><ele>441.0</ele><time>2026-04-11T14:11:54.999Z</time></trkpt><trkpt lat="43.950801357611354" lon="11.28537871916243"><ele>441.0</ele><time>2026-04-11T14:11:55.999Z</time></trkpt><trkpt lat="43.950894566217215" lon="11.285409327320075"><ele>441.0</ele><time>2026-04-11T14:11:56.999Z</time></trkpt><trkpt lat="43.95100002415128" lon="11.285446075233887"><ele>441.0</ele><time>2026-04-11T14:11:57.999Z</time></trkpt><trkpt lat="43.95112470277984" lon="11.285478975567159"><ele>441.0</ele><time>2026-04-11T14:11:58.999Z</time></trkpt><trkpt lat="43.9512582534733" lon="11.285495874852735"><ele>440.75</ele><time>2026-04-11T14:11:59.999Z</time></trkpt><trkpt lat="43.95141247164679" lon="11.285503006103596"><ele>440.5</ele><time>2026-04-11T14:12:00.999Z</time></trkpt><trkpt lat="43.95155156262127" lon="11.2855169200191"><ele>440.25</ele><time>2026-04-11T14:12:01.999Z</time></trkpt><trkpt lat="43.95170509659429" lon="11.285541193766592"><ele>440.0</ele><time>2026-04-11T14:12:02.999Z</time></trkpt><trkpt lat="43.951839031840144" lon="11.285544939429922"><ele>438.6</ele><time>2026-04-11T14:12:03.999Z</time></trkpt><trkpt lat="43.95196084011029" lon="11.285552034933609"><ele>437.2</ele><time>2026-04-11T14:12:04.999Z</time></trkpt><trkpt lat="43.952068307716814" lon="11.285543813430552"><ele>435.79999999999995</ele><time>2026-04-11T14:12:05.999Z</time></trkpt><trkpt lat="43.95217520586871" lon="11.285518068530862"><ele>434.4</ele><time>2026-04-11T14:12:06.999Z</time></trkpt><trkpt lat="43.952263949202674" lon="11.28548610155066"><ele>433.0</ele><time>2026-04-11T14:12:07.999Z</time></trkpt><trkpt lat="43.952338635586536" lon="11.285461903505745"><ele>433.0</ele><time>2026-04-11T14:12:09.999Z</time></trkpt><trkpt lat="43.95239438636789" lon="11.28539198926421"><ele>432.99999999999994</ele><time>2026-04-11T14:12:11.999Z</time></trkpt><trkpt lat="43.952452409651514" lon="11.285330821953387"><ele>432.99999999999994</ele><time>2026-04-11T14:12:17.999Z</time></trkpt><trkpt lat="43.95254731429627" lon="11.285213832380428"><ele>433.0</ele><time>2026-04-11T14:12:19.999Z</time></trkpt><trkpt lat="43.95260463066752" lon="11.28513258339447"><ele>433.0</ele><time>2026-04-11T14:12:20.999Z</time></trkpt><trkpt lat="43.9526714406211" lon="11.285033814363498"><ele>431.00000000000006</ele><time>2026-04-11T14:12:21.999Z</time></trkpt><trkpt lat="43.95273954025919" lon="11.284921542988453"><ele>429.0</ele><time>2026-04-11T14:12:22.999Z</time></trkpt><trkpt lat="43.95278843938809" lon="11.284841625695705"><ele>427.0</ele><time>2026-04-11T14:12:23.999Z</time></trkpt><trkpt lat="43.95282660095463" lon="11.284770757941713"><ele>425.0</ele><time>2026-04-11T14:12:27.999Z</time></trkpt><trkpt lat="43.95291506865375" lon="11.284747758035522"><ele>423.00000000000006</ele><time>2026-04-11T14:12:30.999Z</time></trkpt><trkpt lat="43.95287924721363" lon="11.284820784358699"><ele>421.0</ele><time>2026-04-11T14:12:33.999Z</time></trkpt><trkpt lat="43.952816690381496" lon="11.28486271961985"><ele>421.0</ele><time>2026-04-11T14:12:36.999Z</time></trkpt><trkpt lat="43.95274867024265" lon="11.284981731854925"><ele>421.0</ele><time>2026-04-11T14:12:38.999Z</time></trkpt><trkpt lat="43.9526961873665" lon="11.285060391420952"><ele>421.0</ele><time>2026-04-11T14:12:39.999Z</time></trkpt><trkpt lat="43.9526344242319" lon="11.28514230362727"><ele>421.0</ele><time>2026-04-11T14:12:40.999Z</time></trkpt><trkpt lat="43.952560227289396" lon="11.285226455390546"><ele>421.0</ele><time>2026-04-11T14:12:41.999Z</time></trkpt><trkpt lat="43.952480096035934" lon="11.285291098418252"><ele>423.00000000000006</ele><time>2026-04-11T14:12:43Z</time></trkpt><trkpt lat="43.95242046914247" lon="11.2853370662543"><ele>425.0</ele><time>2026-04-11T14:12:44Z</time></trkpt><trkpt lat="43.95234644583912" lon="11.285341546192562"><ele>427.0</ele><time>2026-04-11T14:12:46Z</time></trkpt><trkpt lat="43.95230179051332" lon="11.28522100656199"><ele>429.0</ele><time>2026-04-11T14:12:48Z</time></trkpt><trkpt lat="43.95224222415706" lon="11.285132561527297"><ele>431.00000000000006</ele><time>2026-04-11T14:12:49Z</time></trkpt><trkpt lat="43.95219694204505" lon="11.28502808620105"><ele>433.0</ele><time>2026-04-11T14:12:50Z</time></trkpt><trkpt lat="43.95214531684824" lon="11.284909505258538"><ele>433.0</ele><time>2026-04-11T14:12:51Z</time></trkpt><trkpt lat="43.9520859936245" lon="11.284774645921551"><ele>432.99999999999994</ele><time>2026-04-11T14:12:52Z</time></trkpt><trkpt lat="43.95202364542661" lon="11.284637971729543"><ele>432.99999999999994</ele><time>2026-04-11T14:12:53Z</time></trkpt><trkpt lat="43.95196694478796" lon="11.284509077328451"><ele>433.0</ele><time>2026-04-11T14:12:54Z</time></trkpt><trkpt lat="43.95191239055923" lon="11.284392157063996"><ele>433.0</ele><time>2026-04-11T14:12:55Z</time></trkpt><trkpt lat="43.951859968332336" lon="11.284270276466938"><ele>432.79999999999995</ele><time>2026-04-11T14:12:56Z</time></trkpt><trkpt lat="43.951809155488704" lon="11.284152793743974"><ele>432.59999999999997</ele><time>2026-04-11T14:12:57Z</time></trkpt><trkpt lat="43.95177487974263" lon="11.284054859708426"><ele>432.40000000000003</ele><time>2026-04-11T14:12:58Z</time></trkpt><trkpt lat="43.95173484073491" lon="11.283943394937276"><ele>432.20000000000005</ele><time>2026-04-11T14:12:59Z</time></trkpt><trkpt lat="43.95169549373746" lon="11.283810773254908"><ele>432.0</ele><time>2026-04-11T14:13:00Z</time></trkpt><trkpt lat="43.95169433769758" lon="11.283668538933977"><ele>432.75</ele><time>2026-04-11T14:13:01Z</time></trkpt><trkpt lat="43.951708688980936" lon="11.28351488236601"><ele>433.5</ele><time>2026-04-11T14:13:02Z</time></trkpt><trkpt lat="43.95174206248892" lon="11.283368348263132"><ele>434.25</ele><time>2026-04-11T14:13:03Z</time></trkpt><trkpt lat="43.95173447935127" lon="11.283198048893953"><ele>435.0</ele><time>2026-04-11T14:13:04Z</time></trkpt><trkpt lat="43.95178271127108" lon="11.283047488355411"><ele>435.8</ele><time>2026-04-11T14:13:05Z</time></trkpt><trkpt lat="43.951834596302184" lon="11.282911986371193"><ele>436.6</ele><time>2026-04-11T14:13:06Z</time></trkpt><trkpt lat="43.9518877442739" lon="11.282801781819575"><ele>437.4</ele><time>2026-04-11T14:13:07Z</time></trkpt><trkpt lat="43.951951067863575" lon="11.282698089537858"><ele>438.2</ele><time>2026-04-11T14:13:08Z</time></trkpt><trkpt lat="43.95200858788759" lon="11.282589443695539"><ele>439.0</ele><time>2026-04-11T14:13:09Z</time></trkpt><trkpt lat="43.95206596319524" lon="11.282495214818306"><ele>439.0</ele><time>2026-04-11T14:13:10Z</time></trkpt><trkpt lat="43.95211100336418" lon="11.28240387455663"><ele>439.0</ele><time>2026-04-11T14:13:11Z</time></trkpt><trkpt lat="43.9521702225877" lon="11.282307758310663"><ele>439.0</ele><time>2026-04-11T14:13:12Z</time></trkpt><trkpt lat="43.95224448168364" lon="11.282162119007964"><ele>439.0</ele><time>2026-04-11T14:13:13Z</time></trkpt><trkpt lat="43.952293535769556" lon="11.28203157651954"><ele>439.0</ele><time>2026-04-11T14:13:14Z</time></trkpt><trkpt lat="43.952350748724996" lon="11.281905449466075"><ele>439.4</ele><time>2026-04-11T14:13:15Z</time></trkpt><trkpt lat="43.952400629185455" lon="11.281773203750536"><ele>439.79999999999995</ele><time>2026-04-11T14:13:16Z</time></trkpt><trkpt lat="43.9524358059001" lon="11.281665012001811"><ele>440.20000000000005</ele><time>2026-04-11T14:13:17Z</time></trkpt><trkpt lat="43.95248222609084" lon="11.281538904347954"><ele>440.6</ele><time>2026-04-11T14:13:18Z</time></trkpt><trkpt lat="43.95251237496301" lon="11.281398018177555"><ele>441.0</ele><time>2026-04-11T14:13:19Z</time></trkpt><trkpt lat="43.952522675531" lon="11.281261952280607"><ele>441.0</ele><time>2026-04-11T14:13:20Z</time></trkpt><trkpt lat="43.95250497967293" lon="11.281127889541136"><ele>441.0</ele><time>2026-04-11T14:13:21Z</time></trkpt><trkpt lat="43.9525335584212" lon="11.281009412759063"><ele>441.0</ele><time>2026-04-11T14:13:22Z</time></trkpt><trkpt lat="43.95256223938962" lon="11.280929138273656"><ele>441.0</ele><time>2026-04-11T14:13:23Z</time></trkpt><trkpt lat="43.952524392632554" lon="11.280755757422884"><ele>441.0</ele><time>2026-04-11T14:13:25Z</time></trkpt><trkpt lat="43.95247855677924" lon="11.280659025695662"><ele>439.5</ele><time>2026-04-11T14:13:26Z</time></trkpt><trkpt lat="43.95242903447892" lon="11.280554118377662"><ele>438.0</ele><time>2026-04-11T14:13:27Z</time></trkpt><trkpt lat="43.95239724106051" lon="11.280461415580028"><ele>436.5</ele><time>2026-04-11T14:13:28Z</time></trkpt><trkpt lat="43.952370047242105" lon="11.280355300209143"><ele>435.0</ele><time>2026-04-11T14:13:29Z</time></trkpt><trkpt lat="43.95233021980723" lon="11.28025696641103"><ele>433.5</ele><time>2026-04-11T14:13:30Z</time></trkpt><trkpt lat="43.95229615003788" lon="11.280136003285074"><ele>432.0</ele><time>2026-04-11T14:13:31Z</time></trkpt><trkpt lat="43.95226610949301" lon="11.280012440197712"><ele>432.0</ele><time>2026-04-11T14:13:32Z</time></trkpt><trkpt lat="43.952239744503515" lon="11.279903944355123"><ele>432.0</ele><time>2026-04-11T14:13:33Z</time></trkpt><trkpt lat="43.952225178278354" lon="11.279782783813877"><ele>432.0</ele><time>2026-04-11T14:13:34Z</time></trkpt><trkpt lat="43.95223173788591" lon="11.279678833153241"><ele>432.0</ele><time>2026-04-11T14:13:35Z</time></trkpt><trkpt lat="43.952264876764175" lon="11.27955523927206"><ele>432.0</ele><time>2026-04-11T14:13:36Z</time></trkpt><trkpt lat="43.952328364748084" lon="11.279436443967688"><ele>432.0</ele><time>2026-04-11T14:13:37Z</time></trkpt><trkpt lat="43.952398461929306" lon="11.27929207870293"><ele>431.0</ele><time>2026-04-11T14:13:38Z</time></trkpt><trkpt lat="43.95246492037469" lon="11.279126391347075"><ele>430.0</ele><time>2026-04-11T14:13:39Z</time></trkpt><trkpt lat="43.952524187154985" lon="11.278962717780802"><ele>429.0</ele><time>2026-04-11T14:13:40Z</time></trkpt><trkpt lat="43.952585601323605" lon="11.278810627190312"><ele>428.0</ele><time>2026-04-11T14:13:41Z</time></trkpt><trkpt lat="43.952647709275666" lon="11.278674190587884"><ele>427.2</ele><time>2026-04-11T14:13:42Z</time></trkpt><trkpt lat="43.952680993763536" lon="11.278550635718904"><ele>426.4</ele><time>2026-04-11T14:13:43Z</time></trkpt><trkpt lat="43.95271390332039" lon="11.27841186486465"><ele>425.59999999999997</ele><time>2026-04-11T14:13:44Z</time></trkpt><trkpt lat="43.95274930882877" lon="11.27826694111219"><ele>424.79999999999995</ele><time>2026-04-11T14:13:45Z</time></trkpt><trkpt lat="43.95279615749501" lon="11.278120450017989"><ele>424.0</ele><time>2026-04-11T14:13:46Z</time></trkpt><trkpt lat="43.95283737594502" lon="11.277995867859005"><ele>425.83333333333337</ele><time>2026-04-11T14:13:46.999Z</time></trkpt><trkpt lat="43.952864087990804" lon="11.277876519497308"><ele>427.6666666666667</ele><time>2026-04-11T14:13:47.999Z</time></trkpt><trkpt lat="43.95288247952523" lon="11.277772300825225"><ele>429.5</ele><time>2026-04-11T14:13:48.999Z</time></trkpt><trkpt lat="43.95289407800302" lon="11.277674741009514"><ele>431.33333333333337</ele><time>2026-04-11T14:13:49.999Z</time></trkpt><trkpt lat="43.95288655114348" lon="11.277565336299705"><ele>433.1666666666667</ele><time>2026-04-11T14:13:50.999Z</time></trkpt><trkpt lat="43.95287542192989" lon="11.277455123072752"><ele>435.0</ele><time>2026-04-11T14:13:51.999Z</time></trkpt><trkpt lat="43.95288961148392" lon="11.277366102044816"><ele>435.0</ele><time>2026-04-11T14:13:52.999Z</time></trkpt><trkpt lat="43.9529437268898" lon="11.277300721581021"><ele>435.0</ele><time>2026-04-11T14:13:53.999Z</time></trkpt><trkpt lat="43.95302806334603" lon="11.277232675256121"><ele>435.0</ele><time>2026-04-11T14:13:54.999Z</time></trkpt><trkpt lat="43.9531074884136" lon="11.277138079762922"><ele>435.0</ele><time>2026-04-11T14:13:55.999Z</time></trkpt><trkpt lat="43.95316455066591" lon="11.27704089469976"><ele>435.0</ele><time>2026-04-11T14:13:56.999Z</time></trkpt><trkpt lat="43.95318979036178" lon="11.276928793843911"><ele>435.0</ele><time>2026-04-11T14:13:57.999Z</time></trkpt><trkpt lat="43.95320760079472" lon="11.276814822135176"><ele>435.8</ele><time>2026-04-11T14:13:58.999Z</time></trkpt><trkpt lat="43.95325719652125" lon="11.27668110790906"><ele>436.6</ele><time>2026-04-11T14:13:59.999Z</time></trkpt><trkpt lat="43.95332588441006" lon="11.276558266484866"><ele>437.4</ele><time>2026-04-11T14:14:00.999Z</time></trkpt><trkpt lat="43.95338408732608" lon="11.276429184578348"><ele>438.2</ele><time>2026-04-11T14:14:01.999Z</time></trkpt><trkpt lat="43.953435786616055" lon="11.276290628485311"><ele>439.0</ele><time>2026-04-11T14:14:02.999Z</time></trkpt><trkpt lat="43.95348294970479" lon="11.276179993840074"><ele>439.00000000000006</ele><time>2026-04-11T14:14:03.999Z</time></trkpt><trkpt lat="43.953533497331534" lon="11.27607734663042"><ele>439.0</ele><time>2026-04-11T14:14:04.999Z</time></trkpt><trkpt lat="43.953569546272426" lon="11.27597978880202"><ele>439.0</ele><time>2026-04-11T14:14:05.999Z</time></trkpt><trkpt lat="43.95359041532117" lon="11.275886171871793"><ele>439.0</ele><time>2026-04-11T14:14:06.999Z</time></trkpt><trkpt lat="43.95363035163924" lon="11.275777132378945"><ele>439.00000000000006</ele><time>2026-04-11T14:14:07.999Z</time></trkpt><trkpt lat="43.95368353003844" lon="11.275663418629655"><ele>439.0</ele><time>2026-04-11T14:14:08.999Z</time></trkpt><trkpt lat="43.953719241441824" lon="11.2755443584918"><ele>440.0</ele><time>2026-04-11T14:14:09.999Z</time></trkpt><trkpt lat="43.953754764737866" lon="11.275426708699742"><ele>441.0</ele><time>2026-04-11T14:14:10.999Z</time></trkpt><trkpt lat="43.95376220550921" lon="11.275316145690013"><ele>442.0</ele><time>2026-04-11T14:14:11.999Z</time></trkpt><trkpt lat="43.953754932553636" lon="11.275166912230334"><ele>443.0</ele><time>2026-04-11T14:14:12.999Z</time></trkpt><trkpt lat="43.953724403474176" lon="11.275000678576486"><ele>444.0</ele><time>2026-04-11T14:14:13.999Z</time></trkpt><trkpt lat="43.95369104044962" lon="11.274829069860816"><ele>446.0</ele><time>2026-04-11T14:14:14.999Z</time></trkpt><trkpt lat="43.953665889755044" lon="11.27466761419725"><ele>448.0</ele><time>2026-04-11T14:14:15.999Z</time></trkpt><trkpt lat="43.95364872167329" lon="11.274541204279878"><ele>450.0</ele><time>2026-04-11T14:14:16.999Z</time></trkpt><trkpt lat="43.953644473996185" lon="11.274434759466752"><ele>452.0</ele><time>2026-04-11T14:14:17.999Z</time></trkpt><trkpt lat="43.95364159352162" lon="11.27426987504734"><ele>454.0</ele><time>2026-04-11T14:14:19.999Z</time></trkpt><trkpt lat="43.953668911074054" lon="11.274183242463119"><ele>454.0</ele><time>2026-04-11T14:14:21.999Z</time></trkpt><trkpt lat="43.953744792246376" lon="11.274087281570386"><ele>454.0</ele><time>2026-04-11T14:14:23.999Z</time></trkpt><trkpt lat="43.95384948349307" lon="11.273976819837571"><ele>454.0</ele><time>2026-04-11T14:14:25.999Z</time></trkpt><trkpt lat="43.95390245090821" lon="11.273908326919367"><ele>454.0</ele><time>2026-04-11T14:14:26.999Z</time></trkpt><trkpt lat="43.95395607483147" lon="11.27383965435227"><ele>454.0</ele><time>2026-04-11T14:14:27.999Z</time></trkpt><trkpt lat="43.95401638581227" lon="11.273752631051439"><ele>455.4</ele><time>2026-04-11T14:14:28.999Z</time></trkpt><trkpt lat="43.9540793029348" lon="11.273643177522597"><ele>456.79999999999995</ele><time>2026-04-11T14:14:29.999Z</time></trkpt><trkpt lat="43.954149488447854" lon="11.273535872858089"><ele>458.20000000000005</ele><time>2026-04-11T14:14:30.999Z</time></trkpt><trkpt lat="43.95422154520202" lon="11.273466520071757"><ele>459.6</ele><time>2026-04-11T14:14:31.999Z</time></trkpt><trkpt lat="43.95430248394606" lon="11.273395909818923"><ele>461.0</ele><time>2026-04-11T14:14:32.999Z</time></trkpt><trkpt lat="43.9543842732265" lon="11.273341457865069"><ele>461.0</ele><time>2026-04-11T14:14:33.999Z</time></trkpt><trkpt lat="43.95447667077369" lon="11.273295354959115"><ele>461.0</ele><time>2026-04-11T14:14:34.999Z</time></trkpt><trkpt lat="43.95459315665178" lon="11.273254650366358"><ele>461.0</ele><time>2026-04-11T14:14:35.999Z</time></trkpt><trkpt lat="43.954702514939086" lon="11.273253215231435"><ele>461.0</ele><time>2026-04-11T14:14:36.999Z</time></trkpt><trkpt lat="43.95479518106437" lon="11.273245816597823"><ele>461.0</ele><time>2026-04-11T14:14:37.999Z</time></trkpt><trkpt lat="43.95485907946571" lon="11.273246817254883"><ele>460.99999999999994</ele><time>2026-04-11T14:14:38.999Z</time></trkpt><trkpt lat="43.95492656005982" lon="11.273129763603126"><ele>461.0</ele><time>2026-04-11T14:14:40.999Z</time></trkpt><trkpt lat="43.9549394201971" lon="11.273023370756537"><ele>461.0</ele><time>2026-04-11T14:14:41.999Z</time></trkpt><trkpt lat="43.95496382590163" lon="11.272921047731458"><ele>461.0</ele><time>2026-04-11T14:14:42.999Z</time></trkpt><trkpt lat="43.95499710632878" lon="11.27283282950358"><ele>460.99999999999994</ele><time>2026-04-11T14:14:43.999Z</time></trkpt><trkpt lat="43.95500119043103" lon="11.272708027997528"><ele>461.0</ele><time>2026-04-11T14:14:44.999Z</time></trkpt><trkpt lat="43.95499444445876" lon="11.272598652491116"><ele>463.20000000000005</ele><time>2026-04-11T14:14:45.999Z</time></trkpt><trkpt lat="43.955027628189505" lon="11.27245681721872"><ele>465.40000000000003</ele><time>2026-04-11T14:14:47.999Z</time></trkpt><trkpt lat="43.95507335708333" lon="11.27235433882637"><ele>467.6</ele><time>2026-04-11T14:14:49Z</time></trkpt><trkpt lat="43.95513349336551" lon="11.272310372859453"><ele>469.8</ele><time>2026-04-11T14:14:50Z</time></trkpt><trkpt lat="43.95522267048454" lon="11.272314997545088"><ele>472.0</ele><time>2026-04-11T14:14:51Z</time></trkpt><trkpt lat="43.95535054416928" lon="11.272317685237846"><ele>472.1666666666667</ele><time>2026-04-11T14:14:53Z</time></trkpt><trkpt lat="43.95542750840619" lon="11.272322715617058"><ele>472.33333333333337</ele><time>2026-04-11T14:14:54Z</time></trkpt><trkpt lat="43.955496263262596" lon="11.272340046692621"><ele>472.5</ele><time>2026-04-11T14:14:55Z</time></trkpt><trkpt lat="43.955573734000986" lon="11.27239706067656"><ele>472.66666666666663</ele><time>2026-04-11T14:14:56Z</time></trkpt><trkpt lat="43.955642664107955" lon="11.272456095240516"><ele>472.8333333333333</ele><time>2026-04-11T14:14:57Z</time></trkpt><trkpt lat="43.95570598337973" lon="11.27252044778544"><ele>473.0</ele><time>2026-04-11T14:14:58Z</time></trkpt><trkpt lat="43.95577049509953" lon="11.272571140709891"><ele>473.0</ele><time>2026-04-11T14:14:59Z</time></trkpt><trkpt lat="43.95586640461737" lon="11.272704430257745"><ele>472.99999999999994</ele><time>2026-04-11T14:15:01Z</time></trkpt><trkpt lat="43.9559255911319" lon="11.272838021100448"><ele>472.99999999999994</ele><time>2026-04-11T14:15:02Z</time></trkpt><trkpt lat="43.95598112142158" lon="11.272933595781655"><ele>473.0</ele><time>2026-04-11T14:15:03Z</time></trkpt><trkpt lat="43.95606059987287" lon="11.272991027820883"><ele>473.0</ele><time>2026-04-11T14:15:05Z</time></trkpt><trkpt lat="43.95614372982255" lon="11.27292245078766"><ele>472.4</ele><time>2026-04-11T14:15:07Z</time></trkpt><trkpt lat="43.95619621655544" lon="11.272823513131694"><ele>471.79999999999995</ele><time>2026-04-11T14:15:09Z</time></trkpt><trkpt lat="43.95629902268866" lon="11.27282135306317"><ele>471.2</ele><time>2026-04-11T14:15:12Z</time></trkpt><trkpt lat="43.956395929048284" lon="11.272800653012862"><ele>470.6</ele><time>2026-04-11T14:15:14Z</time></trkpt><trkpt lat="43.95645549939774" lon="11.272703084920595"><ele>470.0</ele><time>2026-04-11T14:15:16Z</time></trkpt><trkpt lat="43.95652134731439" lon="11.272633227496367"><ele>469.99999999999994</ele><time>2026-04-11T14:15:17Z</time></trkpt><trkpt lat="43.956585842292995" lon="11.27261149044339"><ele>470.0</ele><time>2026-04-11T14:15:18Z</time></trkpt><trkpt lat="43.95667158381285" lon="11.272612530901103"><ele>470.0</ele><time>2026-04-11T14:15:20Z</time></trkpt><trkpt lat="43.95675919959178" lon="11.27268260657914"><ele>470.0</ele><time>2026-04-11T14:15:22Z</time></trkpt><trkpt lat="43.956810777195074" lon="11.272592212981678"><ele>469.99999999999994</ele><time>2026-04-11T14:15:24Z</time></trkpt><trkpt lat="43.956893687743126" lon="11.272589094760628"><ele>470.0</ele><time>2026-04-11T14:15:26Z</time></trkpt><trkpt lat="43.95691907082796" lon="11.272763728568886"><ele>469.8333333333333</ele><time>2026-04-11T14:15:28Z</time></trkpt><trkpt lat="43.95692867468253" lon="11.272871029779097"><ele>469.66666666666663</ele><time>2026-04-11T14:15:29Z</time></trkpt><trkpt lat="43.95693671337358" lon="11.272994227512712"><ele>469.5</ele><time>2026-04-11T14:15:30Z</time></trkpt><trkpt lat="43.956949107767954" lon="11.273103722375843"><ele>469.33333333333337</ele><time>2026-04-11T14:15:31Z</time></trkpt><trkpt lat="43.95696758179119" lon="11.273206143701074"><ele>469.1666666666667</ele><time>2026-04-11T14:15:32Z</time></trkpt><trkpt lat="43.95700092016132" lon="11.273313020212555"><ele>469.0</ele><time>2026-04-11T14:15:33Z</time></trkpt><trkpt lat="43.95703979110325" lon="11.27339941588771"><ele>469.00000000000006</ele><time>2026-04-11T14:15:34Z</time></trkpt><trkpt lat="43.95708962152024" lon="11.273514533927118"><ele>469.0</ele><time>2026-04-11T14:15:35Z</time></trkpt><trkpt lat="43.957130072443775" lon="11.273605632036867"><ele>469.0</ele><time>2026-04-11T14:15:36Z</time></trkpt><trkpt lat="43.95715203431291" lon="11.273752049205761"><ele>469.0</ele><time>2026-04-11T14:15:37Z</time></trkpt><trkpt lat="43.95717477320419" lon="11.273847510287126"><ele>469.00000000000006</ele><time>2026-04-11T14:15:38Z</time></trkpt><trkpt lat="43.957217829550935" lon="11.273917551317487"><ele>469.0</ele><time>2026-04-11T14:15:39Z</time></trkpt><trkpt lat="43.95729291446688" lon="11.273966172260558"><ele>468.00000000000006</ele><time>2026-04-11T14:15:40Z</time></trkpt><trkpt lat="43.95736308697817" lon="11.27401816968563"><ele>467.0</ele><time>2026-04-11T14:15:41Z</time></trkpt><trkpt lat="43.9574341155795" lon="11.274058786838033"><ele>466.0</ele><time>2026-04-11T14:15:42Z</time></trkpt><trkpt lat="43.95750996369568" lon="11.274099572452165"><ele>465.0</ele><time>2026-04-11T14:15:43Z</time></trkpt><trkpt lat="43.95757679284233" lon="11.27414622374254"><ele>464.00000000000006</ele><time>2026-04-11T14:15:44Z</time></trkpt><trkpt lat="43.957637308140626" lon="11.2742180512819"><ele>463.0</ele><time>2026-04-11T14:15:45Z</time></trkpt><trkpt lat="43.957697373407676" lon="11.27426660918446"><ele>463.0</ele><time>2026-04-11T14:15:46Z</time></trkpt><trkpt lat="43.9578180368215" lon="11.274351307616413"><ele>462.99999999999994</ele><time>2026-04-11T14:15:48Z</time></trkpt><trkpt lat="43.957876317614506" lon="11.274429868392772"><ele>462.99999999999994</ele><time>2026-04-11T14:15:50Z</time></trkpt><trkpt lat="43.95798333141307" lon="11.274526659124279"><ele>463.0</ele><time>2026-04-11T14:15:51.999Z</time></trkpt><trkpt lat="43.9580570655514" lon="11.274568181913136"><ele>463.0</ele><time>2026-04-11T14:15:52.999Z</time></trkpt><trkpt lat="43.95813867125461" lon="11.274610626979998"><ele>463.00000000000006</ele><time>2026-04-11T14:15:53.999Z</time></trkpt><trkpt lat="43.95821246152556" lon="11.274638647289626"><ele>463.0</ele><time>2026-04-11T14:15:54.999Z</time></trkpt><trkpt lat="43.9582762597464" lon="11.274674254954743"><ele>463.0</ele><time>2026-04-11T14:15:55.999Z</time></trkpt><trkpt lat="43.95835525702385" lon="11.274748422653268"><ele>463.0</ele><time>2026-04-11T14:15:56.999Z</time></trkpt><trkpt lat="43.958431145484504" lon="11.274825489873765"><ele>463.00000000000006</ele><time>2026-04-11T14:15:57.999Z</time></trkpt><trkpt lat="43.95848920217783" lon="11.274889605521343"><ele>463.0</ele><time>2026-04-11T14:15:58.999Z</time></trkpt><trkpt lat="43.95856709634066" lon="11.2749758241599"><ele>460.59999999999997</ele><time>2026-04-11T14:15:59.999Z</time></trkpt><trkpt lat="43.95865397477186" lon="11.27503575995631"><ele>458.19999999999993</ele><time>2026-04-11T14:16:00.999Z</time></trkpt><trkpt lat="43.95876254338026" lon="11.275152981270544"><ele>455.8</ele><time>2026-04-11T14:16:02.999Z</time></trkpt><trkpt lat="43.958818706319626" lon="11.275198280941469"><ele>453.4</ele><time>2026-04-11T14:16:03.999Z</time></trkpt><trkpt lat="43.95894769590312" lon="11.275229891086306"><ele>451.0</ele><time>2026-04-11T14:16:05.999Z</time></trkpt><trkpt lat="43.959027510976824" lon="11.27521316413546"><ele>451.0</ele><time>2026-04-11T14:16:06.999Z</time></trkpt><trkpt lat="43.9591134462608" lon="11.275234600769187"><ele>451.0</ele><time>2026-04-11T14:16:07.999Z</time></trkpt><trkpt lat="43.95919442680041" lon="11.275247844257024"><ele>451.0</ele><time>2026-04-11T14:16:08.999Z</time></trkpt><trkpt lat="43.95929408786688" lon="11.275300988781485"><ele>451.0</ele><time>2026-04-11T14:16:09.999Z</time></trkpt><trkpt lat="43.959397959631005" lon="11.27537822642276"><ele>451.0</ele><time>2026-04-11T14:16:10.999Z</time></trkpt><trkpt lat="43.95949879140553" lon="11.275453640302857"><ele>449.20000000000005</ele><time>2026-04-11T14:16:11.999Z</time></trkpt><trkpt lat="43.95959137301029" lon="11.275496925109584"><ele>447.40000000000003</ele><time>2026-04-11T14:16:12.999Z</time></trkpt><trkpt lat="43.95966782734707" lon="11.2755274193489"><ele>445.6</ele><time>2026-04-11T14:16:13.999Z</time></trkpt><trkpt lat="43.959738824719686" lon="11.275635055132774"><ele>443.8</ele><time>2026-04-11T14:16:14.999Z</time></trkpt><trkpt lat="43.95981656279135" lon="11.275757240656409"><ele>442.0</ele><time>2026-04-11T14:16:16.999Z</time></trkpt><trkpt lat="43.959862136236495" lon="11.275848004711188"><ele>442.0</ele><time>2026-04-11T14:16:17.999Z</time></trkpt><trkpt lat="43.95990472872342" lon="11.275951576502207"><ele>442.00000000000006</ele><time>2026-04-11T14:16:18.999Z</time></trkpt><trkpt lat="43.95995619437828" lon="11.27604078805372"><ele>442.00000000000006</ele><time>2026-04-11T14:16:19.999Z</time></trkpt><trkpt lat="43.96001299687202" lon="11.27612541478595"><ele>442.0</ele><time>2026-04-11T14:16:20.999Z</time></trkpt><trkpt lat="43.96006589914691" lon="11.27620654921225"><ele>442.0</ele><time>2026-04-11T14:16:21.999Z</time></trkpt><trkpt lat="43.96018099155965" lon="11.27630409931275"><ele>441.33333333333337</ele><time>2026-04-11T14:16:23.999Z</time></trkpt><trkpt lat="43.960276486801654" lon="11.276330105755575"><ele>440.6666666666667</ele><time>2026-04-11T14:16:25.999Z</time></trkpt><trkpt lat="43.96033450910968" lon="11.276291087005877"><ele>440.0</ele><time>2026-04-11T14:16:27.999Z</time></trkpt><trkpt lat="43.960429007362265" lon="11.276233469001374"><ele>439.33333333333337</ele><time>2026-04-11T14:16:29.999Z</time></trkpt><trkpt lat="43.96048648427483" lon="11.276177721447567"><ele>438.6666666666667</ele><time>2026-04-11T14:16:30.999Z</time></trkpt><trkpt lat="43.96053258041874" lon="11.276097591631794"><ele>438.0</ele><time>2026-04-11T14:16:31.999Z</time></trkpt><trkpt lat="43.960626580025426" lon="11.275970004346844"><ele>438.0</ele><time>2026-04-11T14:16:33.999Z</time></trkpt><trkpt lat="43.96068417949133" lon="11.275906672425407"><ele>438.0</ele><time>2026-04-11T14:16:34.999Z</time></trkpt><trkpt lat="43.960736271828246" lon="11.275834293737804"><ele>438.0</ele><time>2026-04-11T14:16:35.999Z</time></trkpt><trkpt lat="43.960807665677684" lon="11.275760717406275"><ele>438.0</ele><time>2026-04-11T14:16:36.999Z</time></trkpt><trkpt lat="43.96089182027159" lon="11.275696253287872"><ele>438.0</ele><time>2026-04-11T14:16:37.999Z</time></trkpt><trkpt lat="43.96098804432378" lon="11.27564530775539"><ele>438.0</ele><time>2026-04-11T14:16:38.999Z</time></trkpt><trkpt lat="43.96108628569064" lon="11.275614091491729"><ele>437.5</ele><time>2026-04-11T14:16:39.999Z</time></trkpt><trkpt lat="43.96117362273373" lon="11.275594835031784"><ele>437.0</ele><time>2026-04-11T14:16:40.999Z</time></trkpt><trkpt lat="43.961257482341004" lon="11.27560720866968"><ele>436.5</ele><time>2026-04-11T14:16:41.999Z</time></trkpt><trkpt lat="43.96134602578363" lon="11.275618956561816"><ele>436.0</ele><time>2026-04-11T14:16:42.999Z</time></trkpt><trkpt lat="43.96143440844351" lon="11.275627875857348"><ele>435.5</ele><time>2026-04-11T14:16:43.999Z</time></trkpt><trkpt lat="43.961517328498466" lon="11.275616201260146"><ele>435.0</ele><time>2026-04-11T14:16:44.999Z</time></trkpt><trkpt lat="43.961588256829984" lon="11.27557987524147"><ele>435.0</ele><time>2026-04-11T14:16:45.999Z</time></trkpt><trkpt lat="43.96165691537175" lon="11.275515265249341"><ele>435.0</ele><time>2026-04-11T14:16:46.999Z</time></trkpt><trkpt lat="43.9617362426452" lon="11.27544117100858"><ele>435.0</ele><time>2026-04-11T14:16:47.999Z</time></trkpt><trkpt lat="43.961790918987546" lon="11.27535999172086"><ele>435.0</ele><time>2026-04-11T14:16:48.999Z</time></trkpt><trkpt lat="43.96186663203406" lon="11.275267003056207"><ele>435.0</ele><time>2026-04-11T14:16:49.999Z</time></trkpt><trkpt lat="43.96195487759996" lon="11.275151763532659"><ele>431.2</ele><time>2026-04-11T14:16:50.999Z</time></trkpt><trkpt lat="43.962039430752554" lon="11.275042427671886"><ele>427.4</ele><time>2026-04-11T14:16:51.999Z</time></trkpt><trkpt lat="43.96211721745729" lon="11.274934550330954"><ele>423.6</ele><time>2026-04-11T14:16:52.999Z</time></trkpt><trkpt lat="43.96218123922856" lon="11.274838769738158"><ele>419.8</ele><time>2026-04-11T14:16:54Z</time></trkpt><trkpt lat="43.962239824492976" lon="11.274767053331212"><ele>416.0</ele><time>2026-04-11T14:16:55Z</time></trkpt><trkpt lat="43.9622919395837" lon="11.27469821012909"><ele>416.0</ele><time>2026-04-11T14:16:56Z</time></trkpt><trkpt lat="43.962340215642676" lon="11.274625312377442"><ele>416.0</ele><time>2026-04-11T14:16:57Z</time></trkpt><trkpt lat="43.96239660659102" lon="11.274535548264387"><ele>416.0</ele><time>2026-04-11T14:16:58Z</time></trkpt><trkpt lat="43.96245681573834" lon="11.274431914237367"><ele>416.0</ele><time>2026-04-11T14:16:59Z</time></trkpt><trkpt lat="43.96251348720538" lon="11.27431391239691"><ele>416.0</ele><time>2026-04-11T14:17:00Z</time></trkpt><trkpt lat="43.96257844546382" lon="11.274195174210249"><ele>416.8</ele><time>2026-04-11T14:17:01Z</time></trkpt><trkpt lat="43.96263533838819" lon="11.274082657077571"><ele>417.6</ele><time>2026-04-11T14:17:02Z</time></trkpt><trkpt lat="43.96267422641033" lon="11.273994933404028"><ele>418.4</ele><time>2026-04-11T14:17:03Z</time></trkpt><trkpt lat="43.9627233087145" lon="11.273904151314127"><ele>419.2</ele><time>2026-04-11T14:17:04Z</time></trkpt><trkpt lat="43.96282147193638" lon="11.273792213229287"><ele>420.0</ele><time>2026-04-11T14:17:06Z</time></trkpt><trkpt lat="43.96291878785458" lon="11.27380360157957"><ele>420.0</ele><time>2026-04-11T14:17:07Z</time></trkpt><trkpt lat="43.963024769105694" lon="11.27380747809569"><ele>420.0</ele><time>2026-04-11T14:17:08Z</time></trkpt><trkpt lat="43.96313222356947" lon="11.273788928587042"><ele>420.0</ele><time>2026-04-11T14:17:09Z</time></trkpt><trkpt lat="43.96322372851856" lon="11.273790842382422"><ele>420.0</ele><time>2026-04-11T14:17:10Z</time></trkpt><trkpt lat="43.963307114903664" lon="11.2737825677619"><ele>420.0</ele><time>2026-04-11T14:17:11Z</time></trkpt><trkpt lat="43.96341162785259" lon="11.273794387796865"><ele>415.25</ele><time>2026-04-11T14:17:12Z</time></trkpt><trkpt lat="43.96353512329316" lon="11.273832712954913"><ele>410.5</ele><time>2026-04-11T14:17:13Z</time></trkpt><trkpt lat="43.96365714121319" lon="11.273859679826435"><ele>405.75</ele><time>2026-04-11T14:17:14Z</time></trkpt><trkpt lat="43.9637719469586" lon="11.273872524436136"><ele>401.0</ele><time>2026-04-11T14:17:15Z</time></trkpt><trkpt lat="43.9638822473413" lon="11.273863866428679"><ele>401.0</ele><time>2026-04-11T14:17:16Z</time></trkpt><trkpt lat="43.963979172726646" lon="11.273845205053284"><ele>401.0</ele><time>2026-04-11T14:17:17Z</time></trkpt><trkpt lat="43.96407489720922" lon="11.273792197899459"><ele>401.0</ele><time>2026-04-11T14:17:18Z</time></trkpt><trkpt lat="43.96417091716124" lon="11.273718952259749"><ele>401.0</ele><time>2026-04-11T14:17:19Z</time></trkpt><trkpt lat="43.964251904231176" lon="11.273619175168443"><ele>401.0</ele><time>2026-04-11T14:17:20Z</time></trkpt><trkpt lat="43.96431658398033" lon="11.273499583494246"><ele>396.20000000000005</ele><time>2026-04-11T14:17:21Z</time></trkpt><trkpt lat="43.96438863309844" lon="11.273368510928755"><ele>391.40000000000003</ele><time>2026-04-11T14:17:22Z</time></trkpt><trkpt lat="43.96445312718734" lon="11.273249966232235"><ele>386.6</ele><time>2026-04-11T14:17:23Z</time></trkpt><trkpt lat="43.964491718465815" lon="11.273123049613194"><ele>381.8</ele><time>2026-04-11T14:17:24Z</time></trkpt><trkpt lat="43.96451894706688" lon="11.272980682148217"><ele>377.0</ele><time>2026-04-11T14:17:25Z</time></trkpt><trkpt lat="43.96454038068988" lon="11.272823951700625"><ele>377.0</ele><time>2026-04-11T14:17:26Z</time></trkpt><trkpt lat="43.964565597008914" lon="11.272656499945429"><ele>377.0</ele><time>2026-04-11T14:17:27Z</time></trkpt><trkpt lat="43.96458212679249" lon="11.27248507935619"><ele>377.0</ele><time>2026-04-11T14:17:28Z</time></trkpt><trkpt lat="43.96460882189769" lon="11.272339719486249"><ele>377.0</ele><time>2026-04-11T14:17:29Z</time></trkpt><trkpt lat="43.964637954616414" lon="11.272200105622911"><ele>377.6666666666667</ele><time>2026-04-11T14:17:30Z</time></trkpt><trkpt lat="43.96467244071339" lon="11.272055799875893"><ele>378.33333333333337</ele><time>2026-04-11T14:17:31Z</time></trkpt><trkpt lat="43.96471273640841" lon="11.271948730997726"><ele>379.0</ele><time>2026-04-11T14:17:32Z</time></trkpt><trkpt lat="43.9647566196117" lon="11.271858958448831"><ele>379.6666666666667</ele><time>2026-04-11T14:17:33Z</time></trkpt><trkpt lat="43.964805380373974" lon="11.271787291899235"><ele>380.3333333333333</ele><time>2026-04-11T14:17:34Z</time></trkpt><trkpt lat="43.96485361580967" lon="11.271708548919344"><ele>381.0</ele><time>2026-04-11T14:17:35Z</time></trkpt><trkpt lat="43.964915356587376" lon="11.27153974567524"><ele>381.0</ele><time>2026-04-11T14:17:37Z</time></trkpt><trkpt lat="43.964952896678554" lon="11.271456502671809"><ele>381.0</ele><time>2026-04-11T14:17:38Z</time></trkpt><trkpt lat="43.96499317709446" lon="11.271368131776356"><ele>381.0</ele><time>2026-04-11T14:17:39Z</time></trkpt><trkpt lat="43.9650312900338" lon="11.27127026257736"><ele>381.0</ele><time>2026-04-11T14:17:40Z</time></trkpt><trkpt lat="43.965063523045934" lon="11.271171888334498"><ele>381.0</ele><time>2026-04-11T14:17:41Z</time></trkpt><trkpt lat="43.96509119166322" lon="11.271078119159272"><ele>381.0</ele><time>2026-04-11T14:17:42Z</time></trkpt><trkpt lat="43.9651452162863" lon="11.27093992439624"><ele>379.0</ele><time>2026-04-11T14:17:44Z</time></trkpt><trkpt lat="43.96522745533624" lon="11.270830294246267"><ele>377.0</ele><time>2026-04-11T14:17:46Z</time></trkpt><trkpt lat="43.965294098627986" lon="11.27076893684884"><ele>375.0</ele><time>2026-04-11T14:17:47Z</time></trkpt><trkpt lat="43.965371224998655" lon="11.270699366888245"><ele>373.0</ele><time>2026-04-11T14:17:48Z</time></trkpt><trkpt lat="43.965447663686106" lon="11.270632002967293"><ele>371.0</ele><time>2026-04-11T14:17:49Z</time></trkpt><trkpt lat="43.9655153788625" lon="11.27055555848077"><ele>370.0</ele><time>2026-04-11T14:17:50Z</time></trkpt><trkpt lat="43.965629375995306" lon="11.270501461848097"><ele>369.0</ele><time>2026-04-11T14:17:52Z</time></trkpt><trkpt lat="43.96570551977334" lon="11.270509833155197"><ele>368.0</ele><time>2026-04-11T14:17:53Z</time></trkpt><trkpt lat="43.96579958924398" lon="11.270518148178091"><ele>367.0</ele><time>2026-04-11T14:17:54Z</time></trkpt><trkpt lat="43.96588854045166" lon="11.27052098002515"><ele>366.0</ele><time>2026-04-11T14:17:55Z</time></trkpt><trkpt lat="43.965978919813985" lon="11.270522113065866"><ele>364.5</ele><time>2026-04-11T14:17:56Z</time></trkpt><trkpt lat="43.96607215766998" lon="11.27051401152605"><ele>363.0</ele><time>2026-04-11T14:17:57Z</time></trkpt><trkpt lat="43.96614029841214" lon="11.270504199286687"><ele>361.5</ele><time>2026-04-11T14:17:58Z</time></trkpt><trkpt lat="43.96623734879154" lon="11.270450465221408"><ele>360.0</ele><time>2026-04-11T14:18:00Z</time></trkpt><trkpt lat="43.96627118377494" lon="11.270375247001033"><ele>358.5</ele><time>2026-04-11T14:18:01Z</time></trkpt><trkpt lat="43.96629791387192" lon="11.270292911825837"><ele>357.0</ele><time>2026-04-11T14:18:02Z</time></trkpt><trkpt lat="43.96630512465341" lon="11.27019925480622"><ele>357.0</ele><time>2026-04-11T14:18:02.999Z</time></trkpt><trkpt lat="43.966302982916" lon="11.27009293093398"><ele>357.0</ele><time>2026-04-11T14:18:03.999Z</time></trkpt><trkpt lat="43.96630842105162" lon="11.269979321510478"><ele>357.0</ele><time>2026-04-11T14:18:04.999Z</time></trkpt><trkpt lat="43.966330003903835" lon="11.269849970755718"><ele>357.0</ele><time>2026-04-11T14:18:05.999Z</time></trkpt><trkpt lat="43.96637746270868" lon="11.269732482219194"><ele>357.0</ele><time>2026-04-11T14:18:06.999Z</time></trkpt><trkpt lat="43.96642736259246" lon="11.269612265745195"><ele>355.5</ele><time>2026-04-11T14:18:07.999Z</time></trkpt><trkpt lat="43.96648546282817" lon="11.269526420835028"><ele>354.0</ele><time>2026-04-11T14:18:08.999Z</time></trkpt><trkpt lat="43.96655040510709" lon="11.269450923641305"><ele>352.5</ele><time>2026-04-11T14:18:09.999Z</time></trkpt><trkpt lat="43.966617765540256" lon="11.2693718426096"><ele>351.0</ele><time>2026-04-11T14:18:10.999Z</time></trkpt><trkpt lat="43.96668978714718" lon="11.269315105243708"><ele>349.5</ele><time>2026-04-11T14:18:11.999Z</time></trkpt><trkpt lat="43.96675889910068" lon="11.269289248555866"><ele>348.0</ele><time>2026-04-11T14:18:12.999Z</time></trkpt><trkpt lat="43.96684292522864" lon="11.269241695297746"><ele>345.4</ele><time>2026-04-11T14:18:13.999Z</time></trkpt><trkpt lat="43.966935075166425" lon="11.269191115254193"><ele>342.79999999999995</ele><time>2026-04-11T14:18:14.999Z</time></trkpt><trkpt lat="43.96702540466195" lon="11.269147636668654"><ele>340.2</ele><time>2026-04-11T14:18:15.999Z</time></trkpt><trkpt lat="43.967118612463835" lon="11.269096857004328"><ele>337.6</ele><time>2026-04-11T14:18:16.999Z</time></trkpt><trkpt lat="43.96720740948163" lon="11.26904856058549"><ele>335.0</ele><time>2026-04-11T14:18:17.999Z</time></trkpt><trkpt lat="43.96730326293512" lon="11.26899225320888"><ele>334.2</ele><time>2026-04-11T14:18:18.999Z</time></trkpt><trkpt lat="43.967392662454714" lon="11.268939443292005"><ele>333.4</ele><time>2026-04-11T14:18:19.999Z</time></trkpt><trkpt lat="43.96748218462377" lon="11.268894451485506"><ele>332.6</ele><time>2026-04-11T14:18:20.999Z</time></trkpt><trkpt lat="43.96756152705355" lon="11.268853429291193"><ele>331.8</ele><time>2026-04-11T14:18:21.999Z</time></trkpt><trkpt lat="43.96766762389315" lon="11.268747762762427"><ele>331.0</ele><time>2026-04-11T14:18:23.999Z</time></trkpt><trkpt lat="43.967691219035174" lon="11.26864000104395"><ele>328.40000000000003</ele><time>2026-04-11T14:18:24.999Z</time></trkpt><trkpt lat="43.96768500523453" lon="11.268490162364394"><ele>325.8</ele><time>2026-04-11T14:18:25.999Z</time></trkpt><trkpt lat="43.96766338769196" lon="11.268325608575092"><ele>323.20000000000005</ele><time>2026-04-11T14:18:26.999Z</time></trkpt><trkpt lat="43.96763554691806" lon="11.268162345567427"><ele>320.6</ele><time>2026-04-11T14:18:27.999Z</time></trkpt><trkpt lat="43.96761430560158" lon="11.268054467088723"><ele>318.0</ele><time>2026-04-11T14:18:28.999Z</time></trkpt><trkpt lat="43.967592756226765" lon="11.267925731531975"><ele>317.8333333333333</ele><time>2026-04-11T14:18:30.999Z</time></trkpt><trkpt lat="43.96758176583706" lon="11.26782483162453"><ele>317.6666666666667</ele><time>2026-04-11T14:18:31.999Z</time></trkpt><trkpt lat="43.967569485110104" lon="11.267728496720633"><ele>317.5</ele><time>2026-04-11T14:18:32.999Z</time></trkpt><trkpt lat="43.96757390177395" lon="11.267629693484519"><ele>317.33333333333337</ele><time>2026-04-11T14:18:33.999Z</time></trkpt><trkpt lat="43.96760865745294" lon="11.267548508510858"><ele>317.1666666666667</ele><time>2026-04-11T14:18:34.999Z</time></trkpt><trkpt lat="43.96767884814078" lon="11.267477942066328"><ele>317.0</ele><time>2026-04-11T14:18:35.999Z</time></trkpt><trkpt lat="43.96776271493391" lon="11.267405306090833"><ele>317.0</ele><time>2026-04-11T14:18:36.999Z</time></trkpt><trkpt lat="43.967830989243566" lon="11.267268053382988"><ele>317.0</ele><time>2026-04-11T14:18:37.999Z</time></trkpt><trkpt lat="43.96788474122162" lon="11.267112123817155"><ele>317.0</ele><time>2026-04-11T14:18:38.999Z</time></trkpt><trkpt lat="43.96793558428598" lon="11.266969253909675"><ele>317.0</ele><time>2026-04-11T14:18:39.999Z</time></trkpt><trkpt lat="43.96799809176225" lon="11.266824052209243"><ele>317.0</ele><time>2026-04-11T14:18:40.999Z</time></trkpt><trkpt lat="43.96803198509537" lon="11.26668919809381"><ele>317.0</ele><time>2026-04-11T14:18:41.999Z</time></trkpt><trkpt lat="43.968059948019054" lon="11.26656842279426"><ele>317.0</ele><time>2026-04-11T14:18:42.999Z</time></trkpt><trkpt lat="43.96810283469984" lon="11.266481857466578"><ele>317.0</ele><time>2026-04-11T14:18:43.999Z</time></trkpt><trkpt lat="43.96815357058164" lon="11.266429353692912"><ele>317.0</ele><time>2026-04-11T14:18:44.999Z</time></trkpt><trkpt lat="43.968209966240245" lon="11.2663784475561"><ele>317.0</ele><time>2026-04-11T14:18:45.999Z</time></trkpt><trkpt lat="43.96827522089251" lon="11.266316021899828"><ele>317.1666666666667</ele><time>2026-04-11T14:18:46.999Z</time></trkpt><trkpt lat="43.96833147442461" lon="11.266230524885295"><ele>317.33333333333337</ele><time>2026-04-11T14:18:47.999Z</time></trkpt><trkpt lat="43.96837870742967" lon="11.266126766389771"><ele>317.5</ele><time>2026-04-11T14:18:48.999Z</time></trkpt><trkpt lat="43.968417866364824" lon="11.266024828930119"><ele>317.6666666666667</ele><time>2026-04-11T14:18:49.999Z</time></trkpt><trkpt lat="43.968451605605715" lon="11.265927611884544"><ele>317.8333333333333</ele><time>2026-04-11T14:18:50.999Z</time></trkpt><trkpt lat="43.96848747443868" lon="11.265815299382501"><ele>318.0</ele><time>2026-04-11T14:18:51.999Z</time></trkpt><trkpt lat="43.968534422018294" lon="11.265682900123155"><ele>315.25</ele><time>2026-04-11T14:18:52.999Z</time></trkpt><trkpt lat="43.96859252503729" lon="11.265531579699914"><ele>312.5</ele><time>2026-04-11T14:18:53.999Z</time></trkpt><trkpt lat="43.968642581852734" lon="11.265379599509918"><ele>309.75</ele><time>2026-04-11T14:18:54.999Z</time></trkpt><trkpt lat="43.96869475756802" lon="11.265238699737491"><ele>307.0</ele><time>2026-04-11T14:18:55.999Z</time></trkpt><trkpt lat="43.96875157087435" lon="11.265076932712102"><ele>307.0</ele><time>2026-04-11T14:18:56.999Z</time></trkpt><trkpt lat="43.96880695767785" lon="11.26492473298548"><ele>307.0</ele><time>2026-04-11T14:18:57.999Z</time></trkpt><trkpt lat="43.968869535867306" lon="11.264798490412014"><ele>307.0</ele><time>2026-04-11T14:18:58.999Z</time></trkpt><trkpt lat="43.96893444579051" lon="11.264683372601754"><ele>307.0</ele><time>2026-04-11T14:19:00.001Z</time></trkpt><trkpt lat="43.96899094055122" lon="11.264588833091034"><ele>307.0</ele><time>2026-04-11T14:19:01.001Z</time></trkpt><trkpt lat="43.96903346193666" lon="11.264515028038247"><ele>305.6</ele><time>2026-04-11T14:19:02.001Z</time></trkpt><trkpt lat="43.96906673859257" lon="11.26442873745576"><ele>304.2</ele><time>2026-04-11T14:19:03.001Z</time></trkpt><trkpt lat="43.96907537912472" lon="11.26433484794327"><ele>302.8</ele><time>2026-04-11T14:19:04.001Z</time></trkpt><trkpt lat="43.96904546962255" lon="11.26421121277812"><ele>301.4</ele><time>2026-04-11T14:19:05.001Z</time></trkpt><trkpt lat="43.96899644133485" lon="11.264085630997203"><ele>300.0</ele><time>2026-04-11T14:19:06.001Z</time></trkpt><trkpt lat="43.96894349446466" lon="11.263944719251697"><ele>298.0</ele><time>2026-04-11T14:19:07.001Z</time></trkpt><trkpt lat="43.96891561400387" lon="11.263784401714666"><ele>296.0</ele><time>2026-04-11T14:19:08.001Z</time></trkpt><trkpt lat="43.968909224679706" lon="11.263608274305131"><ele>294.0</ele><time>2026-04-11T14:19:09.001Z</time></trkpt><trkpt lat="43.96891080646896" lon="11.263446603504647"><ele>292.0</ele><time>2026-04-11T14:19:10Z</time></trkpt><trkpt lat="43.96891516378877" lon="11.263291178043476"><ele>292.0</ele><time>2026-04-11T14:19:11Z</time></trkpt><trkpt lat="43.968944063171186" lon="11.263138328192412"><ele>292.0</ele><time>2026-04-11T14:19:12Z</time></trkpt><trkpt lat="43.9689968186078" lon="11.262975329614886"><ele>292.0</ele><time>2026-04-11T14:19:13Z</time></trkpt><trkpt lat="43.96905788841179" lon="11.2628278966661"><ele>292.0</ele><time>2026-04-11T14:19:14Z</time></trkpt><trkpt lat="43.96913475407056" lon="11.262709967922447"><ele>288.75</ele><time>2026-04-11T14:19:15Z</time></trkpt><trkpt lat="43.96924526594833" lon="11.26259841942667"><ele>285.5</ele><time>2026-04-11T14:19:16Z</time></trkpt><trkpt lat="43.969356925864" lon="11.262509467308428"><ele>282.25</ele><time>2026-04-11T14:19:17Z</time></trkpt><trkpt lat="43.96945699206093" lon="11.262434540335448"><ele>279.0</ele><time>2026-04-11T14:19:18Z</time></trkpt><trkpt lat="43.96954830189581" lon="11.262345713780565"><ele>279.2</ele><time>2026-04-11T14:19:19Z</time></trkpt><trkpt lat="43.96962736827244" lon="11.26226577120726"><ele>279.4</ele><time>2026-04-11T14:19:20Z</time></trkpt><trkpt lat="43.96970755964899" lon="11.262196772760019"><ele>279.6</ele><time>2026-04-11T14:19:21Z</time></trkpt><trkpt lat="43.96977773402232" lon="11.262116621241892"><ele>279.8</ele><time>2026-04-11T14:19:22Z</time></trkpt><trkpt lat="43.96984008448161" lon="11.262032576593404"><ele>280.0</ele><time>2026-04-11T14:19:23Z</time></trkpt><trkpt lat="43.96991028149427" lon="11.261939477167346"><ele>280.0</ele><time>2026-04-11T14:19:24Z</time></trkpt><trkpt lat="43.969980333149635" lon="11.261860574723439"><ele>280.0</ele><time>2026-04-11T14:19:25Z</time></trkpt><trkpt lat="43.970031685582164" lon="11.261795474778111"><ele>280.0</ele><time>2026-04-11T14:19:26Z</time></trkpt><trkpt lat="43.97007497254939" lon="11.261723175571579"><ele>280.0</ele><time>2026-04-11T14:19:27Z</time></trkpt><trkpt lat="43.97010206973509" lon="11.261621454139817"><ele>280.0</ele><time>2026-04-11T14:19:28Z</time></trkpt><trkpt lat="43.970105602263324" lon="11.26150907453969"><ele>280.0</ele><time>2026-04-11T14:19:29Z</time></trkpt><trkpt lat="43.97008172451466" lon="11.261373640705806"><ele>278.8333333333333</ele><time>2026-04-11T14:19:30Z</time></trkpt><trkpt lat="43.970027856703624" lon="11.26124790679169"><ele>277.66666666666663</ele><time>2026-04-11T14:19:31Z</time></trkpt><trkpt lat="43.96996497030034" lon="11.261138162827573"><ele>276.5</ele><time>2026-04-11T14:19:32Z</time></trkpt><trkpt lat="43.96991220533715" lon="11.26105672602155"><ele>275.3333333333333</ele><time>2026-04-11T14:19:33Z</time></trkpt><trkpt lat="43.96986013210727" lon="11.260988142665822"><ele>274.1666666666667</ele><time>2026-04-11T14:19:34Z</time></trkpt><trkpt lat="43.969811874414994" lon="11.260920784427906"><ele>273.0</ele><time>2026-04-11T14:19:35Z</time></trkpt><trkpt lat="43.96980606117464" lon="11.260771720968167"><ele>273.0</ele><time>2026-04-11T14:19:37Z</time></trkpt><trkpt lat="43.96986300417194" lon="11.260700796619194"><ele>273.0</ele><time>2026-04-11T14:19:39Z</time></trkpt><trkpt lat="43.969875067678004" lon="11.260609591467656"><ele>273.0</ele><time>2026-04-11T14:19:41Z</time></trkpt><trkpt lat="43.96980494395638" lon="11.260437780983061"><ele>273.0</ele><time>2026-04-11T14:19:43Z</time></trkpt><trkpt lat="43.96974160872633" lon="11.260329672174906"><ele>273.0</ele><time>2026-04-11T14:19:44Z</time></trkpt><trkpt lat="43.96967128186701" lon="11.260203279735181"><ele>271.25</ele><time>2026-04-11T14:19:45Z</time></trkpt><trkpt lat="43.96959723863609" lon="11.26007194446969"><ele>269.5</ele><time>2026-04-11T14:19:46Z</time></trkpt><trkpt lat="43.96953368765705" lon="11.259892163946745"><ele>267.75</ele><time>2026-04-11T14:19:47Z</time></trkpt><trkpt lat="43.96947289304353" lon="11.259665686954667"><ele>266.0</ele><time>2026-04-11T14:19:48Z</time></trkpt><trkpt lat="43.96939792518037" lon="11.259417191695224"><ele>265.0</ele><time>2026-04-11T14:19:49Z</time></trkpt><trkpt lat="43.969325635971096" lon="11.259164486294429"><ele>264.0</ele><time>2026-04-11T14:19:50Z</time></trkpt><trkpt lat="43.969249339787005" lon="11.258909113263572"><ele>263.0</ele><time>2026-04-11T14:19:51Z</time></trkpt><trkpt lat="43.969177778779894" lon="11.258679688685996"><ele>263.0</ele><time>2026-04-11T14:19:52Z</time></trkpt><trkpt lat="43.969115306843385" lon="11.258466940579225"><ele>263.0</ele><time>2026-04-11T14:19:53Z</time></trkpt><trkpt lat="43.96905995904829" lon="11.258266975020744"><ele>263.0</ele><time>2026-04-11T14:19:54Z</time></trkpt><trkpt lat="43.96901619777004" lon="11.258118725459706"><ele>263.0</ele><time>2026-04-11T14:19:55Z</time></trkpt><trkpt lat="43.96899270412237" lon="11.257971510173986"><ele>263.25</ele><time>2026-04-11T14:19:56Z</time></trkpt><trkpt lat="43.96900181164508" lon="11.257776098869368"><ele>263.5</ele><time>2026-04-11T14:19:57Z</time></trkpt><trkpt lat="43.96903656621091" lon="11.257577587462626"><ele>263.75</ele><time>2026-04-11T14:19:58Z</time></trkpt><trkpt lat="43.96910702973025" lon="11.257415880355884"><ele>264.0</ele><time>2026-04-11T14:19:59Z</time></trkpt><trkpt lat="43.96921206789735" lon="11.25726688162086"><ele>267.3333333333333</ele><time>2026-04-11T14:20:00Z</time></trkpt><trkpt lat="43.969341540272204" lon="11.257148910445014"><ele>270.66666666666663</ele><time>2026-04-11T14:20:01Z</time></trkpt><trkpt lat="43.96949106331239" lon="11.25706745949814"><ele>274.0</ele><time>2026-04-11T14:20:02Z</time></trkpt><trkpt lat="43.96963788643181" lon="11.25698231071773"><ele>274.0</ele><time>2026-04-11T14:20:03Z</time></trkpt><trkpt lat="43.969791303463495" lon="11.256878142701549"><ele>274.0</ele><time>2026-04-11T14:20:04Z</time></trkpt><trkpt lat="43.969958276308255" lon="11.256763407470542"><ele>274.0</ele><time>2026-04-11T14:20:05Z</time></trkpt><trkpt lat="43.97014397996609" lon="11.256633938190046"><ele>273.3333333333333</ele><time>2026-04-11T14:20:06Z</time></trkpt><trkpt lat="43.97033524836376" lon="11.256512321253714"><ele>272.6666666666667</ele><time>2026-04-11T14:20:07Z</time></trkpt><trkpt lat="43.97052054598415" lon="11.25639100311112"><ele>272.0</ele><time>2026-04-11T14:20:08Z</time></trkpt><trkpt lat="43.97069365985537" lon="11.256278037246773"><ele>272.6666666666667</ele><time>2026-04-11T14:20:08.999Z</time></trkpt><trkpt lat="43.97085317499538" lon="11.256168399034454"><ele>273.3333333333333</ele><time>2026-04-11T14:20:09.999Z</time></trkpt><trkpt lat="43.9709947384804" lon="11.256060904919964"><ele>274.0</ele><time>2026-04-11T14:20:10.999Z</time></trkpt><trkpt lat="43.971115042022674" lon="11.25593794184685"><ele>274.0</ele><time>2026-04-11T14:20:11.999Z</time></trkpt><trkpt lat="43.97122519760491" lon="11.255801834161787"><ele>274.0</ele><time>2026-04-11T14:20:12.999Z</time></trkpt><trkpt lat="43.97130199072841" lon="11.255659779609271"><ele>274.0</ele><time>2026-04-11T14:20:13.999Z</time></trkpt><trkpt lat="43.97134277266314" lon="11.25550343425314"><ele>274.0</ele><time>2026-04-11T14:20:14.999Z</time></trkpt><trkpt lat="43.971361643953564" lon="11.255334499193241"><ele>275.25</ele><time>2026-04-11T14:20:15.999Z</time></trkpt><trkpt lat="43.97133600851156" lon="11.25516077823771"><ele>276.5</ele><time>2026-04-11T14:20:16.999Z</time></trkpt><trkpt lat="43.97128590717028" lon="11.254981552467576"><ele>277.75</ele><time>2026-04-11T14:20:17.999Z</time></trkpt><trkpt lat="43.97122575923549" lon="11.25480169108815"><ele>279.0</ele><time>2026-04-11T14:20:18.999Z</time></trkpt><trkpt lat="43.97117138857594" lon="11.254618153326899"><ele>279.6666666666667</ele><time>2026-04-11T14:20:19.999Z</time></trkpt><trkpt lat="43.97111675526528" lon="11.254421823372365"><ele>280.33333333333337</ele><time>2026-04-11T14:20:20.999Z</time></trkpt><trkpt lat="43.971059149887864" lon="11.254210841834372"><ele>281.0</ele><time>2026-04-11T14:20:21.999Z</time></trkpt><trkpt lat="43.971002823644845" lon="11.253996111623582"><ele>281.0</ele><time>2026-04-11T14:20:22.999Z</time></trkpt><trkpt lat="43.97095197391452" lon="11.253800491356946"><ele>281.0</ele><time>2026-04-11T14:20:23.999Z</time></trkpt><trkpt lat="43.97090431007007" lon="11.253622529134384"><ele>281.0</ele><time>2026-04-11T14:20:24.999Z</time></trkpt><trkpt lat="43.97084745704662" lon="11.253496664652163"><ele>281.0</ele><time>2026-04-11T14:20:25.999Z</time></trkpt><trkpt lat="43.97076522868914" lon="11.25337338656628"><ele>281.0</ele><time>2026-04-11T14:20:26.999Z</time></trkpt><trkpt lat="43.970644163198344" lon="11.253273084856705"><ele>281.0</ele><time>2026-04-11T14:20:27.999Z</time></trkpt><trkpt lat="43.970523038821995" lon="11.25319856930465"><ele>281.0</ele><time>2026-04-11T14:20:28.999Z</time></trkpt><trkpt lat="43.97041422265515" lon="11.253130421704755"><ele>281.0</ele><time>2026-04-11T14:20:29.999Z</time></trkpt><trkpt lat="43.97034126279374" lon="11.253021186552113"><ele>280.25</ele><time>2026-04-11T14:20:30.999Z</time></trkpt><trkpt lat="43.97030194565897" lon="11.252871408844632"><ele>279.5</ele><time>2026-04-11T14:20:31.999Z</time></trkpt><trkpt lat="43.970290752301395" lon="11.252714703335906"><ele>278.75</ele><time>2026-04-11T14:20:32.999Z</time></trkpt><trkpt lat="43.97031901373323" lon="11.252564150029775"><ele>278.0</ele><time>2026-04-11T14:20:33.999Z</time></trkpt><trkpt lat="43.970381389558206" lon="11.252434282774459"><ele>278.0</ele><time>2026-04-11T14:20:34.999Z</time></trkpt><trkpt lat="43.97047967029795" lon="11.25232113939001"><ele>278.0</ele><time>2026-04-11T14:20:35.999Z</time></trkpt><trkpt lat="43.970608839183484" lon="11.252241753382757"><ele>278.0</ele><time>2026-04-11T14:20:36.999Z</time></trkpt><trkpt lat="43.9707426523152" lon="11.25218912577307"><ele>278.0</ele><time>2026-04-11T14:20:37.999Z</time></trkpt><trkpt lat="43.970878637771975" lon="11.252150807796905"><ele>277.25</ele><time>2026-04-11T14:20:38.999Z</time></trkpt><trkpt lat="43.971016095562355" lon="11.252099500788544"><ele>276.5</ele><time>2026-04-11T14:20:39.999Z</time></trkpt><trkpt lat="43.97114432802756" lon="11.252054097933055"><ele>275.75</ele><time>2026-04-11T14:20:40.999Z</time></trkpt><trkpt lat="43.97126666721257" lon="11.252001461265428"><ele>275.0</ele><time>2026-04-11T14:20:41.999Z</time></trkpt><trkpt lat="43.971393404801404" lon="11.251916234566012"><ele>275.0</ele><time>2026-04-11T14:20:42.999Z</time></trkpt><trkpt lat="43.97150918016743" lon="11.251798431222433"><ele>275.0</ele><time>2026-04-11T14:20:43.999Z</time></trkpt><trkpt lat="43.971613541773486" lon="11.251655547217878"><ele>275.0</ele><time>2026-04-11T14:20:44.999Z</time></trkpt><trkpt lat="43.971706716539565" lon="11.25148548304344"><ele>275.0</ele><time>2026-04-11T14:20:45.999Z</time></trkpt><trkpt lat="43.971789039844296" lon="11.251327038875532"><ele>273.8</ele><time>2026-04-11T14:20:46.999Z</time></trkpt><trkpt lat="43.971851134545744" lon="11.251168312987009"><ele>272.6</ele><time>2026-04-11T14:20:47.999Z</time></trkpt><trkpt lat="43.97188844069622" lon="11.25100696452115"><ele>271.4</ele><time>2026-04-11T14:20:48.999Z</time></trkpt><trkpt lat="43.97188477624681" lon="11.250862257328306"><ele>270.2</ele><time>2026-04-11T14:20:49.999Z</time></trkpt><trkpt lat="43.971864105197476" lon="11.250737948699086"><ele>269.0</ele><time>2026-04-11T14:20:50.999Z</time></trkpt><trkpt lat="43.971819069042574" lon="11.250613680173146"><ele>268.75</ele><time>2026-04-11T14:20:51.999Z</time></trkpt><trkpt lat="43.97173488228115" lon="11.250479898666688"><ele>268.5</ele><time>2026-04-11T14:20:52.999Z</time></trkpt><trkpt lat="43.97163676997324" lon="11.25036559831634"><ele>268.25</ele><time>2026-04-11T14:20:53.999Z</time></trkpt><trkpt lat="43.97156758041821" lon="11.250257470571684"><ele>268.0</ele><time>2026-04-11T14:20:54.999Z</time></trkpt><trkpt lat="43.97145270272464" lon="11.250160054390259"><ele>268.0</ele><time>2026-04-11T14:20:55.999Z</time></trkpt><trkpt lat="43.97136163644032" lon="11.25002943775141"><ele>268.0</ele><time>2026-04-11T14:20:56.999Z</time></trkpt><trkpt lat="43.97130683830521" lon="11.249876084215083"><ele>268.0</ele><time>2026-04-11T14:20:57.999Z</time></trkpt><trkpt lat="43.97130038910333" lon="11.249709213062546"><ele>268.0</ele><time>2026-04-11T14:20:58.999Z</time></trkpt><trkpt lat="43.97133208822486" lon="11.249541201932049"><ele>268.5</ele><time>2026-04-11T14:20:59.999Z</time></trkpt><trkpt lat="43.971401351058574" lon="11.24938027941134"><ele>269.0</ele><time>2026-04-11T14:21:00.999Z</time></trkpt><trkpt lat="43.97149946343007" lon="11.24925052958688"><ele>269.5</ele><time>2026-04-11T14:21:01.999Z</time></trkpt><trkpt lat="43.97162829188626" lon="11.249147629844117"><ele>270.0</ele><time>2026-04-11T14:21:02.999Z</time></trkpt><trkpt lat="43.971755340103115" lon="11.249045325288629"><ele>270.25</ele><time>2026-04-11T14:21:03.999Z</time></trkpt><trkpt lat="43.971870822420925" lon="11.248963195384443"><ele>270.5</ele><time>2026-04-11T14:21:04.999Z</time></trkpt><trkpt lat="43.97199489096115" lon="11.24892971496028"><ele>270.75</ele><time>2026-04-11T14:21:06Z</time></trkpt><trkpt lat="43.97214251658972" lon="11.248963092569042"><ele>271.0</ele><time>2026-04-11T14:21:07Z</time></trkpt><trkpt lat="43.97229627783223" lon="11.249034078648283"><ele>271.0</ele><time>2026-04-11T14:21:08Z</time></trkpt><trkpt lat="43.97246801306575" lon="11.24910679178455"><ele>271.0</ele><time>2026-04-11T14:21:09Z</time></trkpt><trkpt lat="43.972663971871434" lon="11.249168345812999"><ele>271.0</ele><time>2026-04-11T14:21:10Z</time></trkpt><trkpt lat="43.97286707395049" lon="11.249223274461505"><ele>271.66666666666663</ele><time>2026-04-11T14:21:11Z</time></trkpt><trkpt lat="43.973071874442375" lon="11.249289451602861"><ele>272.3333333333333</ele><time>2026-04-11T14:21:12Z</time></trkpt><trkpt lat="43.97327617084271" lon="11.24935790862909"><ele>273.0</ele><time>2026-04-11T14:21:13Z</time></trkpt><trkpt lat="43.973472706274656" lon="11.249408915255202"><ele>271.6666666666667</ele><time>2026-04-11T14:21:14Z</time></trkpt><trkpt lat="43.9736535302062" lon="11.249444994806181"><ele>270.33333333333337</ele><time>2026-04-11T14:21:15Z</time></trkpt><trkpt lat="43.9738118437386" lon="11.249461996277955"><ele>269.0</ele><time>2026-04-11T14:21:16Z</time></trkpt><trkpt lat="43.973922153415174" lon="11.249457978637588"><ele>269.0</ele><time>2026-04-11T14:21:17Z</time></trkpt><trkpt lat="43.97401954071574" lon="11.249428931609922"><ele>269.0</ele><time>2026-04-11T14:21:18Z</time></trkpt><trkpt lat="43.97411226103369" lon="11.249356320116748"><ele>269.0</ele><time>2026-04-11T14:21:19Z</time></trkpt><trkpt lat="43.97418698919236" lon="11.249235256279256"><ele>269.0</ele><time>2026-04-11T14:21:20Z</time></trkpt><trkpt lat="43.97425684803776" lon="11.249073414825519"><ele>267.5</ele><time>2026-04-11T14:21:21Z</time></trkpt><trkpt lat="43.97432106049102" lon="11.248894853486382"><ele>266.0</ele><time>2026-04-11T14:21:22Z</time></trkpt><trkpt lat="43.97438269348042" lon="11.248704952405543"><ele>264.5</ele><time>2026-04-11T14:21:23Z</time></trkpt><trkpt lat="43.97445158960767" lon="11.248546651826105"><ele>263.0</ele><time>2026-04-11T14:21:24Z</time></trkpt><trkpt lat="43.97454186761312" lon="11.248413552047827"><ele>263.0</ele><time>2026-04-11T14:21:25Z</time></trkpt><trkpt lat="43.97465665326289" lon="11.248327511670585"><ele>263.0</ele><time>2026-04-11T14:21:26Z</time></trkpt><trkpt lat="43.97480193958315" lon="11.248280379284006"><ele>263.0</ele><time>2026-04-11T14:21:27Z</time></trkpt><trkpt lat="43.97493536787427" lon="11.248220238550374"><ele>263.0</ele><time>2026-04-11T14:21:28Z</time></trkpt><trkpt lat="43.97503651934715" lon="11.248136746747532"><ele>260.75</ele><time>2026-04-11T14:21:29Z</time></trkpt><trkpt lat="43.97512986370863" lon="11.248015799651277"><ele>258.5</ele><time>2026-04-11T14:21:30Z</time></trkpt><trkpt lat="43.97521409547875" lon="11.24785888657255"><ele>256.25</ele><time>2026-04-11T14:21:31Z</time></trkpt><trkpt lat="43.97529900700187" lon="11.247673844322"><ele>254.0</ele><time>2026-04-11T14:21:32Z</time></trkpt><trkpt lat="43.9753770243564" lon="11.247481555030463"><ele>256.0</ele><time>2026-04-11T14:21:33Z</time></trkpt><trkpt lat="43.97545991519346" lon="11.247272398258284"><ele>258.0</ele><time>2026-04-11T14:21:34Z</time></trkpt><trkpt lat="43.975546462461104" lon="11.247061628367478"><ele>260.0</ele><time>2026-04-11T14:21:35Z</time></trkpt><trkpt lat="43.97563816050509" lon="11.246844136434383"><ele>260.0</ele><time>2026-04-11T14:21:36Z</time></trkpt><trkpt lat="43.975723195725024" lon="11.246630155212022"><ele>260.0</ele><time>2026-04-11T14:21:37Z</time></trkpt><trkpt lat="43.97580755212414" lon="11.246425018946097"><ele>260.0</ele><time>2026-04-11T14:21:38Z</time></trkpt><trkpt lat="43.97588589140741" lon="11.246233350158889"><ele>256.25</ele><time>2026-04-11T14:21:39Z</time></trkpt><trkpt lat="43.975963961187" lon="11.246051681580434"><ele>252.5</ele><time>2026-04-11T14:21:40Z</time></trkpt><trkpt lat="43.976019171371185" lon="11.245873619421356"><ele>248.75</ele><time>2026-04-11T14:21:41Z</time></trkpt><trkpt lat="43.9760480867748" lon="11.245707721007419"><ele>245.0</ele><time>2026-04-11T14:21:42Z</time></trkpt><trkpt lat="43.97605435301364" lon="11.245544269979195"><ele>244.25</ele><time>2026-04-11T14:21:43Z</time></trkpt><trkpt lat="43.976027649621855" lon="11.245374800257348"><ele>243.5</ele><time>2026-04-11T14:21:44Z</time></trkpt><trkpt lat="43.9759737945952" lon="11.245206765242457"><ele>242.75</ele><time>2026-04-11T14:21:45Z</time></trkpt><trkpt lat="43.97589450493614" lon="11.245040135804611"><ele>242.0</ele><time>2026-04-11T14:21:46Z</time></trkpt><trkpt lat="43.97581267607925" lon="11.24487869963623"><ele>243.5</ele><time>2026-04-11T14:21:47Z</time></trkpt><trkpt lat="43.975745223981306" lon="11.244738696305307"><ele>245.0</ele><time>2026-04-11T14:21:48Z</time></trkpt><trkpt lat="43.97567602274666" lon="11.24460491182939"><ele>246.5</ele><time>2026-04-11T14:21:49Z</time></trkpt><trkpt lat="43.97559332793102" lon="11.24448243480214"><ele>248.0</ele><time>2026-04-11T14:21:50Z</time></trkpt><trkpt lat="43.97547613504898" lon="11.244400315355087"><ele>248.0</ele><time>2026-04-11T14:21:51Z</time></trkpt><trkpt lat="43.97533413627664" lon="11.24434572878934"><ele>248.0</ele><time>2026-04-11T14:21:52Z</time></trkpt><trkpt lat="43.97518294960627" lon="11.244320888058992"><ele>248.0</ele><time>2026-04-11T14:21:53Z</time></trkpt><trkpt lat="43.9750134338835" lon="11.244299318081643"><ele>251.0</ele><time>2026-04-11T14:21:54Z</time></trkpt><trkpt lat="43.97485007032816" lon="11.24427650122207"><ele>254.0</ele><time>2026-04-11T14:21:55Z</time></trkpt><trkpt lat="43.97469556524844" lon="11.24424602934343"><ele>257.0</ele><time>2026-04-11T14:21:56Z</time></trkpt><trkpt lat="43.97456336247952" lon="11.24420102414048"><ele>257.0</ele><time>2026-04-11T14:21:57Z</time></trkpt><trkpt lat="43.9744528644277" lon="11.244119092607507"><ele>257.0</ele><time>2026-04-11T14:21:58Z</time></trkpt><trkpt lat="43.974332487558335" lon="11.243988376763012"><ele>257.0</ele><time>2026-04-11T14:21:59Z</time></trkpt><trkpt lat="43.97421550782448" lon="11.243825791857926"><ele>257.0</ele><time>2026-04-11T14:22:00Z</time></trkpt><trkpt lat="43.97410539770302" lon="11.243648366058142"><ele>257.0</ele><time>2026-04-11T14:22:01Z</time></trkpt><trkpt lat="43.97398733267773" lon="11.243457821046336"><ele>257.0</ele><time>2026-04-11T14:22:02Z</time></trkpt><trkpt lat="43.97386249112969" lon="11.24326278953054"><ele>257.0</ele><time>2026-04-11T14:22:03Z</time></trkpt><trkpt lat="43.97373698029697" lon="11.243071104878018"><ele>255.0</ele><time>2026-04-11T14:22:04Z</time></trkpt><trkpt lat="43.973609768540506" lon="11.24287966750352"><ele>253.0</ele><time>2026-04-11T14:22:05Z</time></trkpt><trkpt lat="43.97350403420494" lon="11.242715355835148"><ele>251.0</ele><time>2026-04-11T14:22:06Z</time></trkpt><trkpt lat="43.973405106992494" lon="11.242583751291892"><ele>251.33333333333334</ele><time>2026-04-11T14:22:07Z</time></trkpt><trkpt lat="43.97331285141277" lon="11.242447067785372"><ele>251.66666666666669</ele><time>2026-04-11T14:22:08Z</time></trkpt><trkpt lat="43.97322679081876" lon="11.242263076489689"><ele>252.0</ele><time>2026-04-11T14:22:09Z</time></trkpt><trkpt lat="43.973150471217345" lon="11.242057555486292"><ele>252.0</ele><time>2026-04-11T14:22:09.999Z</time></trkpt><trkpt lat="43.97308197333721" lon="11.241840107968534"><ele>252.0</ele><time>2026-04-11T14:22:10.999Z</time></trkpt><trkpt lat="43.973005455419035" lon="11.241609596603336"><ele>252.0</ele><time>2026-04-11T14:22:11.999Z</time></trkpt><trkpt lat="43.972936588875314" lon="11.24140785168191"><ele>251.75</ele><time>2026-04-11T14:22:12.999Z</time></trkpt><trkpt lat="43.97287485648081" lon="11.24122171648351"><ele>251.5</ele><time>2026-04-11T14:22:13.999Z</time></trkpt><trkpt lat="43.97283239125263" lon="11.241073851966192"><ele>251.25</ele><time>2026-04-11T14:22:14.999Z</time></trkpt><trkpt lat="43.97280373322716" lon="11.24093260227898"><ele>251.0</ele><time>2026-04-11T14:22:15.999Z</time></trkpt><trkpt lat="43.97279736784874" lon="11.240776146333564"><ele>253.0</ele><time>2026-04-11T14:22:16.999Z</time></trkpt><trkpt lat="43.97282018539835" lon="11.240603175821324"><ele>255.0</ele><time>2026-04-11T14:22:17.999Z</time></trkpt><trkpt lat="43.97288966217307" lon="11.24044068815558"><ele>257.0</ele><time>2026-04-11T14:22:18.999Z</time></trkpt><trkpt lat="43.97298006558392" lon="11.240289346944273"><ele>259.0</ele><time>2026-04-11T14:22:19.999Z</time></trkpt><trkpt lat="43.97305940589409" lon="11.240142146212285"><ele>259.0</ele><time>2026-04-11T14:22:20.999Z</time></trkpt><trkpt lat="43.97315415929169" lon="11.240017978787261"><ele>259.0</ele><time>2026-04-11T14:22:21.999Z</time></trkpt><trkpt lat="43.97327248501648" lon="11.239961235896091"><ele>259.0</ele><time>2026-04-11T14:22:22.999Z</time></trkpt><trkpt lat="43.973415722418366" lon="11.239966306703328"><ele>259.0</ele><time>2026-04-11T14:22:23.999Z</time></trkpt><trkpt lat="43.97356881663529" lon="11.239989598055733"><ele>259.0</ele><time>2026-04-11T14:22:24.999Z</time></trkpt><trkpt lat="43.97374579590062" lon="11.240011814391995"><ele>259.0</ele><time>2026-04-11T14:22:25.999Z</time></trkpt><trkpt lat="43.97392932470074" lon="11.240023792029271"><ele>259.0</ele><time>2026-04-11T14:22:26.999Z</time></trkpt><trkpt lat="43.97409767791385" lon="11.240034817345752"><ele>258.66666666666663</ele><time>2026-04-11T14:22:27.999Z</time></trkpt><trkpt lat="43.97426763734388" lon="11.240044113643426"><ele>258.3333333333333</ele><time>2026-04-11T14:22:28.999Z</time></trkpt><trkpt lat="43.97441919720471" lon="11.240050908171797"><ele>258.0</ele><time>2026-04-11T14:22:29.999Z</time></trkpt><trkpt lat="43.97458199008428" lon="11.240055596321742"><ele>258.0</ele><time>2026-04-11T14:22:30.999Z</time></trkpt><trkpt lat="43.97473778220549" lon="11.240013553215205"><ele>258.0</ele><time>2026-04-11T14:22:31.999Z</time></trkpt><trkpt lat="43.97491348359786" lon="11.239931530629157"><ele>258.0</ele><time>2026-04-11T14:22:32.999Z</time></trkpt><trkpt lat="43.97509621697751" lon="11.239834215078304"><ele>261.3333333333333</ele><time>2026-04-11T14:22:33.999Z</time></trkpt><trkpt lat="43.97529172144789" lon="11.239738602296855"><ele>264.66666666666663</ele><time>2026-04-11T14:22:34.999Z</time></trkpt><trkpt lat="43.97550431384601" lon="11.239637294077099"><ele>268.0</ele><time>2026-04-11T14:22:35.999Z</time></trkpt><trkpt lat="43.97572530577953" lon="11.23953706227083"><ele>263.0</ele><time>2026-04-11T14:22:36.999Z</time></trkpt><trkpt lat="43.975961683347386" lon="11.239429434459705"><ele>258.0</ele><time>2026-04-11T14:22:37.999Z</time></trkpt><trkpt lat="43.976201682412245" lon="11.239317636326671"><ele>258.0</ele><time>2026-04-11T14:22:38.999Z</time></trkpt><trkpt lat="43.97641711122695" lon="11.239218498003183"><ele>258.0</ele><time>2026-04-11T14:22:39.999Z</time></trkpt><trkpt lat="43.97661496236898" lon="11.239126912663192"><ele>258.0</ele><time>2026-04-11T14:22:40.999Z</time></trkpt><trkpt lat="43.97680591374902" lon="11.239032497140627"><ele>258.3333333333333</ele><time>2026-04-11T14:22:41.999Z</time></trkpt><trkpt lat="43.97699636582695" lon="11.2389409473434"><ele>258.66666666666663</ele><time>2026-04-11T14:22:42.999Z</time></trkpt><trkpt lat="43.977166465285364" lon="11.238863439479394"><ele>259.0</ele><time>2026-04-11T14:22:43.999Z</time></trkpt><trkpt lat="43.97732147911106" lon="11.23879408266908"><ele>259.0</ele><time>2026-04-11T14:22:44.999Z</time></trkpt><trkpt lat="43.97746489295242" lon="11.238734875902711"><ele>259.0</ele><time>2026-04-11T14:22:45.999Z</time></trkpt><trkpt lat="43.97759069505375" lon="11.23867097492396"><ele>259.0</ele><time>2026-04-11T14:22:46.999Z</time></trkpt><trkpt lat="43.97770988423538" lon="11.238579470064169"><ele>259.0</ele><time>2026-04-11T14:22:47.999Z</time></trkpt><trkpt lat="43.97781844346279" lon="11.23843966952985"><ele>256.66666666666663</ele><time>2026-04-11T14:22:48.999Z</time></trkpt><trkpt lat="43.97791720892464" lon="11.238258247122527"><ele>254.33333333333331</ele><time>2026-04-11T14:22:49.999Z</time></trkpt><trkpt lat="43.9779834014616" lon="11.238067391951873"><ele>252.0</ele><time>2026-04-11T14:22:50.999Z</time></trkpt><trkpt lat="43.97801061221086" lon="11.2378679316457"><ele>251.66666666666669</ele><time>2026-04-11T14:22:51.999Z</time></trkpt><trkpt lat="43.97801467591222" lon="11.237660351244507"><ele>251.33333333333334</ele><time>2026-04-11T14:22:52.999Z</time></trkpt><trkpt lat="43.977977542184874" lon="11.23745063665221"><ele>251.0</ele><time>2026-04-11T14:22:53.999Z</time></trkpt><trkpt lat="43.97792149725709" lon="11.237222954890274"><ele>250.0</ele><time>2026-04-11T14:22:54.999Z</time></trkpt><trkpt lat="43.977847710749984" lon="11.236976583200704"><ele>249.0</ele><time>2026-04-11T14:22:55.999Z</time></trkpt><trkpt lat="43.97777711005246" lon="11.236752299936846"><ele>248.0</ele><time>2026-04-11T14:22:56.999Z</time></trkpt><trkpt lat="43.9777056455255" lon="11.236525856864384"><ele>248.66666666666669</ele><time>2026-04-11T14:22:57.999Z</time></trkpt><trkpt lat="43.97762059175712" lon="11.23632441943189"><ele>249.33333333333331</ele><time>2026-04-11T14:22:58.999Z</time></trkpt><trkpt lat="43.97752927313098" lon="11.236155987610392"><ele>250.0</ele><time>2026-04-11T14:22:59.999Z</time></trkpt><trkpt lat="43.97741101259983" lon="11.235967274727379"><ele>250.0</ele><time>2026-04-11T14:23:00.999Z</time></trkpt><trkpt lat="43.977269680181664" lon="11.235759360034384"><ele>250.0</ele><time>2026-04-11T14:23:01.999Z</time></trkpt><trkpt lat="43.97712144732887" lon="11.235543438345776"><ele>250.0</ele><time>2026-04-11T14:23:02.999Z</time></trkpt><trkpt lat="43.976971968322395" lon="11.235320116206553"><ele>250.0</ele><time>2026-04-11T14:23:03.999Z</time></trkpt><trkpt lat="43.97682131219101" lon="11.235088446091806"><ele>250.0</ele><time>2026-04-11T14:23:04.999Z</time></trkpt><trkpt lat="43.976668422055056" lon="11.23484758900208"><ele>251.0</ele><time>2026-04-11T14:23:05.999Z</time></trkpt><trkpt lat="43.97651358075214" lon="11.234608624272441"><ele>252.0</ele><time>2026-04-11T14:23:06.999Z</time></trkpt><trkpt lat="43.97636791173328" lon="11.234386279050101"><ele>253.0</ele><time>2026-04-11T14:23:07.999Z</time></trkpt><trkpt lat="43.976234328313204" lon="11.234188047524858"><ele>253.0</ele><time>2026-04-11T14:23:08.999Z</time></trkpt><trkpt lat="43.97611273380691" lon="11.233999788435247"><ele>253.0</ele><time>2026-04-11T14:23:09.999Z</time></trkpt><trkpt lat="43.97599816779912" lon="11.233812641049038"><ele>253.0</ele><time>2026-04-11T14:23:11Z</time></trkpt><trkpt lat="43.97588507298666" lon="11.233609059575034"><ele>254.33333333333331</ele><time>2026-04-11T14:23:12Z</time></trkpt><trkpt lat="43.97578065297028" lon="11.233387230011111"><ele>255.66666666666669</ele><time>2026-04-11T14:23:13Z</time></trkpt><trkpt lat="43.97569741720902" lon="11.233166788031461"><ele>257.0</ele><time>2026-04-11T14:23:14Z</time></trkpt><trkpt lat="43.97563944722474" lon="11.232957019716851"><ele>257.0</ele><time>2026-04-11T14:23:15Z</time></trkpt><trkpt lat="43.975589579692254" lon="11.23274502823663"><ele>257.0</ele><time>2026-04-11T14:23:16Z</time></trkpt><trkpt lat="43.97554368593001" lon="11.232531816132115"><ele>257.0</ele><time>2026-04-11T14:23:17Z</time></trkpt><trkpt lat="43.97549891568641" lon="11.232313590452739"><ele>256.5</ele><time>2026-04-11T14:23:18Z</time></trkpt><trkpt lat="43.97545619120964" lon="11.232106325645656"><ele>256.0</ele><time>2026-04-11T14:23:19Z</time></trkpt><trkpt lat="43.97542111668789" lon="11.23191612780154"><ele>255.5</ele><time>2026-04-11T14:23:20Z</time></trkpt><trkpt lat="43.97541060403299" lon="11.231739891214497"><ele>255.0</ele><time>2026-04-11T14:23:21Z</time></trkpt><trkpt lat="43.97542353285868" lon="11.231555805074954"><ele>256.75</ele><time>2026-04-11T14:23:22Z</time></trkpt><trkpt lat="43.97546784303774" lon="11.231378806228616"><ele>258.5</ele><time>2026-04-11T14:23:23Z</time></trkpt><trkpt lat="43.97554195680145" lon="11.231233463943235"><ele>260.25</ele><time>2026-04-11T14:23:24Z</time></trkpt><trkpt lat="43.97564278450302" lon="11.231113623405966"><ele>262.0</ele><time>2026-04-11T14:23:25Z</time></trkpt><trkpt lat="43.97576991561714" lon="11.231008773756994"><ele>263.0</ele><time>2026-04-11T14:23:26Z</time></trkpt><trkpt lat="43.97589771440806" lon="11.23088682690268"><ele>264.0</ele><time>2026-04-11T14:23:27Z</time></trkpt><trkpt lat="43.97603074267438" lon="11.230758991868715"><ele>265.0</ele><time>2026-04-11T14:23:28Z</time></trkpt><trkpt lat="43.97616564135975" lon="11.230622197831503"><ele>265.0</ele><time>2026-04-11T14:23:29Z</time></trkpt><trkpt lat="43.976300998422474" lon="11.230480404845025"><ele>265.0</ele><time>2026-04-11T14:23:30Z</time></trkpt><trkpt lat="43.976447740572155" lon="11.230334862865647"><ele>265.0</ele><time>2026-04-11T14:23:31Z</time></trkpt><trkpt lat="43.97658176103238" lon="11.230191598091356"><ele>262.25</ele><time>2026-04-11T14:23:32Z</time></trkpt><trkpt lat="43.97670530098425" lon="11.230076919408887"><ele>259.5</ele><time>2026-04-11T14:23:33Z</time></trkpt><trkpt lat="43.97681217620684" lon="11.229982052480096"><ele>256.75</ele><time>2026-04-11T14:23:34Z</time></trkpt><trkpt lat="43.97691160031911" lon="11.229923913214172"><ele>254.0</ele><time>2026-04-11T14:23:35Z</time></trkpt><trkpt lat="43.97701831257304" lon="11.229914464253149"><ele>254.0</ele><time>2026-04-11T14:23:36Z</time></trkpt><trkpt lat="43.977136697991156" lon="11.22993449728147"><ele>254.0</ele><time>2026-04-11T14:23:37Z</time></trkpt><trkpt lat="43.977267687729324" lon="11.230002087400823"><ele>254.0</ele><time>2026-04-11T14:23:38Z</time></trkpt><trkpt lat="43.97740215141079" lon="11.23007722397475"><ele>254.0</ele><time>2026-04-11T14:23:39Z</time></trkpt><trkpt lat="43.97755049835245" lon="11.230148400921697"><ele>253.33333333333334</ele><time>2026-04-11T14:23:40Z</time></trkpt><trkpt lat="43.97771157312284" lon="11.230208867094518"><ele>252.66666666666669</ele><time>2026-04-11T14:23:41Z</time></trkpt><trkpt lat="43.97786767437056" lon="11.230279105195407"><ele>252.0</ele><time>2026-04-11T14:23:42Z</time></trkpt><trkpt lat="43.978024436610255" lon="11.230370082432849"><ele>252.0</ele><time>2026-04-11T14:23:43Z</time></trkpt><trkpt lat="43.978174892254415" lon="11.230478362682103"><ele>252.0</ele><time>2026-04-11T14:23:44Z</time></trkpt><trkpt lat="43.978304882050686" lon="11.23060257503712"><ele>252.0</ele><time>2026-04-11T14:23:45Z</time></trkpt><trkpt lat="43.97843678821982" lon="11.230719323756528"><ele>252.25</ele><time>2026-04-11T14:23:46Z</time></trkpt><trkpt lat="43.97857325884812" lon="11.230805912639205"><ele>252.5</ele><time>2026-04-11T14:23:47Z</time></trkpt><trkpt lat="43.97871628160138" lon="11.230855662657813"><ele>252.75</ele><time>2026-04-11T14:23:48Z</time></trkpt><trkpt lat="43.9788373341417" lon="11.23085116677526"><ele>253.0</ele><time>2026-04-11T14:23:49Z</time></trkpt><trkpt lat="43.97895140572982" lon="11.230828739845318"><ele>253.0</ele><time>2026-04-11T14:23:50Z</time></trkpt><trkpt lat="43.97907239205274" lon="11.230768302356488"><ele>253.0</ele><time>2026-04-11T14:23:51Z</time></trkpt><trkpt lat="43.97918951106135" lon="11.230675958972125"><ele>253.0</ele><time>2026-04-11T14:23:52Z</time></trkpt><trkpt lat="43.97928356104678" lon="11.230599892879765"><ele>253.0</ele><time>2026-04-11T14:23:53Z</time></trkpt><trkpt lat="43.97936729714247" lon="11.230538910069644"><ele>253.33333333333331</ele><time>2026-04-11T14:23:54Z</time></trkpt><trkpt lat="43.979448932655146" lon="11.230475194332667"><ele>253.66666666666666</ele><time>2026-04-11T14:23:55Z</time></trkpt><trkpt lat="43.97952506116968" lon="11.23041477745223"><ele>254.0</ele><time>2026-04-11T14:23:56Z</time></trkpt><trkpt lat="43.97959922775824" lon="11.230359898276486"><ele>254.33333333333331</ele><time>2026-04-11T14:23:57Z</time></trkpt><trkpt lat="43.979668589687925" lon="11.230289488868769"><ele>254.66666666666666</ele><time>2026-04-11T14:23:58Z</time></trkpt><trkpt lat="43.97973043311951" lon="11.230192441666599"><ele>255.0</ele><time>2026-04-11T14:23:59Z</time></trkpt><trkpt lat="43.97977818351996" lon="11.230093593165462"><ele>255.0</ele><time>2026-04-11T14:24:00Z</time></trkpt><trkpt lat="43.97981485275172" lon="11.229992673505432"><ele>255.0</ele><time>2026-04-11T14:24:01Z</time></trkpt><trkpt lat="43.97984794492258" lon="11.229876555059114"><ele>255.0</ele><time>2026-04-11T14:24:02Z</time></trkpt><trkpt lat="43.97986703891582" lon="11.229743475804726"><ele>255.0</ele><time>2026-04-11T14:24:03Z</time></trkpt><trkpt lat="43.9798771997206" lon="11.229596729305182"><ele>255.0</ele><time>2026-04-11T14:24:04Z</time></trkpt><trkpt lat="43.97988924152891" lon="11.229439905896976"><ele>254.75</ele><time>2026-04-11T14:24:05Z</time></trkpt><trkpt lat="43.979901856719174" lon="11.229273964994807"><ele>254.5</ele><time>2026-04-11T14:24:05.999Z</time></trkpt><trkpt lat="43.979908410191385" lon="11.229098290342323"><ele>254.25</ele><time>2026-04-11T14:24:06.999Z</time></trkpt><trkpt lat="43.979917241636855" lon="11.228922101530884"><ele>254.0</ele><time>2026-04-11T14:24:07.999Z</time></trkpt><trkpt lat="43.97993144399217" lon="11.228739705231611"><ele>254.0</ele><time>2026-04-11T14:24:08.999Z</time></trkpt><trkpt lat="43.97994792514268" lon="11.228538572956825"><ele>254.0</ele><time>2026-04-11T14:24:09.999Z</time></trkpt><trkpt lat="43.97996843483943" lon="11.228319989303843"><ele>254.0</ele><time>2026-04-11T14:24:10.999Z</time></trkpt><trkpt lat="43.9800033217513" lon="11.228076177079158"><ele>256.0</ele><time>2026-04-11T14:24:11.999Z</time></trkpt><trkpt lat="43.980060076033446" lon="11.227820607986141"><ele>258.0</ele><time>2026-04-11T14:24:12.999Z</time></trkpt><trkpt lat="43.98001761797145" lon="11.227702869412681"><ele>260.0</ele><time>2026-04-11T14:24:13.999Z</time></trkpt><trkpt lat="43.980044192484826" lon="11.227505834307815"><ele>262.0</ele><time>2026-04-11T14:24:14.999Z</time></trkpt><trkpt lat="43.980081938596754" lon="11.227331830739274"><ele>261.25</ele><time>2026-04-11T14:24:15.999Z</time></trkpt><trkpt lat="43.98013123170128" lon="11.22717253287249"><ele>260.5</ele><time>2026-04-11T14:24:16.999Z</time></trkpt><trkpt lat="43.9801817949828" lon="11.227014676167144"><ele>259.75</ele><time>2026-04-11T14:24:17.999Z</time></trkpt><trkpt lat="43.980228257332605" lon="11.226875690247724"><ele>259.0</ele><time>2026-04-11T14:24:18.999Z</time></trkpt><trkpt lat="43.98027207249959" lon="11.226755137317994"><ele>259.0</ele><time>2026-04-11T14:24:19.999Z</time></trkpt><trkpt lat="43.980312678285856" lon="11.226676300707114"><ele>259.0</ele><time>2026-04-11T14:24:20.999Z</time></trkpt><trkpt lat="43.98037821139885" lon="11.22663480084408"><ele>259.0</ele><time>2026-04-11T14:24:22.999Z</time></trkpt><trkpt lat="43.98047128081998" lon="11.22664235948864"><ele>259.0</ele><time>2026-04-11T14:24:27.999Z</time></trkpt><trkpt lat="43.98058826621326" lon="11.226686360625695"><ele>259.0</ele><time>2026-04-11T14:24:29.999Z</time></trkpt><trkpt lat="43.98064732980895" lon="11.226783499988077"><ele>259.0</ele><time>2026-04-11T14:24:30.999Z</time></trkpt><trkpt lat="43.98069680904455" lon="11.226901998741736"><ele>259.0</ele><time>2026-04-11T14:24:31.999Z</time></trkpt><trkpt lat="43.98073272376352" lon="11.227050863618802"><ele>259.0</ele><time>2026-04-11T14:24:32.999Z</time></trkpt><trkpt lat="43.98074548608884" lon="11.22720919706383"><ele>259.0</ele><time>2026-04-11T14:24:33.999Z</time></trkpt><trkpt lat="43.98076277857204" lon="11.227388329311527"><ele>259.0</ele><time>2026-04-11T14:24:34.999Z</time></trkpt><trkpt lat="43.98078068412273" lon="11.227567548101225"><ele>260.0</ele><time>2026-04-11T14:24:35.999Z</time></trkpt><trkpt lat="43.98076198697793" lon="11.227780042224017"><ele>261.0</ele><time>2026-04-11T14:24:36.999Z</time></trkpt><trkpt lat="43.980730884826215" lon="11.227986643087359"><ele>262.0</ele><time>2026-04-11T14:24:37.999Z</time></trkpt><trkpt lat="43.98069817002773" lon="11.228200371487008"><ele>263.0</ele><time>2026-04-11T14:24:38.999Z</time></trkpt><trkpt lat="43.980662840090666" lon="11.22841836249772"><ele>264.0</ele><time>2026-04-11T14:24:39.999Z</time></trkpt><trkpt lat="43.98063355898586" lon="11.228651189500486"><ele>265.0</ele><time>2026-04-11T14:24:40.999Z</time></trkpt><trkpt lat="43.98061078988139" lon="11.22888391761187"><ele>265.66666666666663</ele><time>2026-04-11T14:24:41.999Z</time></trkpt><trkpt lat="43.98061240194566" lon="11.229140276890103"><ele>266.3333333333333</ele><time>2026-04-11T14:24:42.999Z</time></trkpt><trkpt lat="43.980617512471746" lon="11.229399839252633"><ele>267.0</ele><time>2026-04-11T14:24:43.999Z</time></trkpt><trkpt lat="43.98063000650627" lon="11.229639676120375"><ele>267.0</ele><time>2026-04-11T14:24:44.999Z</time></trkpt><trkpt lat="43.980653277143105" lon="11.229871690923622"><ele>267.0</ele><time>2026-04-11T14:24:45.999Z</time></trkpt><trkpt lat="43.98068767103153" lon="11.230109582173112"><ele>267.0</ele><time>2026-04-11T14:24:46.999Z</time></trkpt><trkpt lat="43.980737212411285" lon="11.230360108966307"><ele>267.0</ele><time>2026-04-11T14:24:47.999Z</time></trkpt><trkpt lat="43.98078817802303" lon="11.230603040018062"><ele>267.0</ele><time>2026-04-11T14:24:48.999Z</time></trkpt><trkpt lat="43.98083308578821" lon="11.230831705436872"><ele>267.0</ele><time>2026-04-11T14:24:49.999Z</time></trkpt><trkpt lat="43.98087719158326" lon="11.231053601609952"><ele>267.6666666666667</ele><time>2026-04-11T14:24:50.999Z</time></trkpt><trkpt lat="43.98091687811342" lon="11.231274574753106"><ele>268.33333333333337</ele><time>2026-04-11T14:24:51.999Z</time></trkpt><trkpt lat="43.980953894093275" lon="11.231475556169569"><ele>269.0</ele><time>2026-04-11T14:24:52.999Z</time></trkpt><trkpt lat="43.98099159074536" lon="11.231663804257604"><ele>269.0</ele><time>2026-04-11T14:24:53.999Z</time></trkpt><trkpt lat="43.981021495704766" lon="11.231837453943408"><ele>269.0</ele><time>2026-04-11T14:24:54.999Z</time></trkpt><trkpt lat="43.98106292394983" lon="11.231992014187865"><ele>269.0</ele><time>2026-04-11T14:24:55.999Z</time></trkpt><trkpt lat="43.98110011152733" lon="11.232128042822266"><ele>269.0</ele><time>2026-04-11T14:24:56.999Z</time></trkpt><trkpt lat="43.98113994231892" lon="11.232257126392925"><ele>268.5</ele><time>2026-04-11T14:24:57.999Z</time></trkpt><trkpt lat="43.98120162763391" lon="11.232376563423324"><ele>268.0</ele><time>2026-04-11T14:24:58.999Z</time></trkpt><trkpt lat="43.98128293584192" lon="11.232489109298168"><ele>267.5</ele><time>2026-04-11T14:24:59.999Z</time></trkpt><trkpt lat="43.981374624784706" lon="11.23260591556167"><ele>267.0</ele><time>2026-04-11T14:25:00.999Z</time></trkpt><trkpt lat="43.98146411282956" lon="11.232737836884349"><ele>267.0</ele><time>2026-04-11T14:25:01.999Z</time></trkpt><trkpt lat="43.98155251618558" lon="11.232879916101014"><ele>267.0</ele><time>2026-04-11T14:25:02.999Z</time></trkpt><trkpt lat="43.981639209193766" lon="11.233033263622952"><ele>267.0</ele><time>2026-04-11T14:25:03.999Z</time></trkpt><trkpt lat="43.981723880489895" lon="11.2331861035425"><ele>267.0</ele><time>2026-04-11T14:25:04.999Z</time></trkpt><trkpt lat="43.981803967911404" lon="11.233344921191938"><ele>266.75</ele><time>2026-04-11T14:25:05.999Z</time></trkpt><trkpt lat="43.98188017493619" lon="11.23349923120626"><ele>266.5</ele><time>2026-04-11T14:25:06.999Z</time></trkpt><trkpt lat="43.98195606369859" lon="11.233650369111809"><ele>266.25</ele><time>2026-04-11T14:25:07.999Z</time></trkpt><trkpt lat="43.98202385577627" lon="11.233808344734651"><ele>266.0</ele><time>2026-04-11T14:25:08.999Z</time></trkpt><trkpt lat="43.98208210945275" lon="11.233953575955848"><ele>266.2</ele><time>2026-04-11T14:25:09.999Z</time></trkpt><trkpt lat="43.98211882106108" lon="11.234076648794403"><ele>266.40000000000003</ele><time>2026-04-11T14:25:10.999Z</time></trkpt><trkpt lat="43.98214803786311" lon="11.234182021828968"><ele>266.6</ele><time>2026-04-11T14:25:11.999Z</time></trkpt><trkpt lat="43.98217176742788" lon="11.234272470251522"><ele>266.8</ele><time>2026-04-11T14:25:12.999Z</time></trkpt><trkpt lat="43.98221579462618" lon="11.234396477894736"><ele>267.0</ele><time>2026-04-11T14:25:14.999Z</time></trkpt><trkpt lat="43.98223475151286" lon="11.234253115229048"><ele>267.0</ele><time>2026-04-11T14:25:19Z</time></trkpt><trkpt lat="43.982191938334346" lon="11.234151120806427"><ele>267.0</ele><time>2026-04-11T14:25:20Z</time></trkpt><trkpt lat="43.982150815547534" lon="11.234064166708398"><ele>267.0</ele><time>2026-04-11T14:25:21Z</time></trkpt><trkpt lat="43.982109595726314" lon="11.233960337279116"><ele>267.0</ele><time>2026-04-11T14:25:22Z</time></trkpt><trkpt lat="43.982059878601945" lon="11.233837176324293"><ele>267.0</ele><time>2026-04-11T14:25:23Z</time></trkpt><trkpt lat="43.9820014487101" lon="11.23369348051119"><ele>266.75</ele><time>2026-04-11T14:25:24Z</time></trkpt><trkpt lat="43.98193319462537" lon="11.233544009063635"><ele>266.5</ele><time>2026-04-11T14:25:25Z</time></trkpt><trkpt lat="43.98186210159523" lon="11.23340727349812"><ele>266.25</ele><time>2026-04-11T14:25:26Z</time></trkpt><trkpt lat="43.98178683354109" lon="11.233278901332074"><ele>266.0</ele><time>2026-04-11T14:25:27Z</time></trkpt><trkpt lat="43.98172910793305" lon="11.233152723493724"><ele>266.2</ele><time>2026-04-11T14:25:28Z</time></trkpt><trkpt lat="43.98167009028542" lon="11.233044906499126"><ele>266.40000000000003</ele><time>2026-04-11T14:25:29Z</time></trkpt><trkpt lat="43.98161435287058" lon="11.23294679975113"><ele>266.6</ele><time>2026-04-11T14:25:30Z</time></trkpt><trkpt lat="43.981571970402236" lon="11.232856205641795"><ele>266.8</ele><time>2026-04-11T14:25:31Z</time></trkpt><trkpt lat="43.98154572708376" lon="11.23271073066261"><ele>267.0</ele><time>2026-04-11T14:25:33Z</time></trkpt><trkpt lat="43.98157511667424" lon="11.232606209798975"><ele>267.0</ele><time>2026-04-11T14:25:34Z</time></trkpt><trkpt lat="43.981640990299056" lon="11.232520047979099"><ele>267.0</ele><time>2026-04-11T14:25:35Z</time></trkpt><trkpt lat="43.98173474092695" lon="11.232480016163445"><ele>267.0</ele><time>2026-04-11T14:25:36Z</time></trkpt><trkpt lat="43.981842493155064" lon="11.232495751875598"><ele>267.0</ele><time>2026-04-11T14:25:37Z</time></trkpt><trkpt lat="43.981960795001385" lon="11.23253410638313"><ele>267.0</ele><time>2026-04-11T14:25:38Z</time></trkpt><trkpt lat="43.98208666194455" lon="11.232566070493288"><ele>267.0</ele><time>2026-04-11T14:25:39Z</time></trkpt><trkpt lat="43.98221898864997" lon="11.232595258200785"><ele>267.0</ele><time>2026-04-11T14:25:40Z</time></trkpt><trkpt lat="43.982370559268816" lon="11.232628728128942"><ele>267.0</ele><time>2026-04-11T14:25:41Z</time></trkpt><trkpt lat="43.98251587795103" lon="11.232656313389365"><ele>267.0</ele><time>2026-04-11T14:25:42Z</time></trkpt><trkpt lat="43.9826557852706" lon="11.232684226148557"><ele>267.25</ele><time>2026-04-11T14:25:43Z</time></trkpt><trkpt lat="43.98280289844087" lon="11.232715162410729"><ele>267.5</ele><time>2026-04-11T14:25:44Z</time></trkpt><trkpt lat="43.98294158607294" lon="11.23273731569701"><ele>267.75</ele><time>2026-04-11T14:25:45Z</time></trkpt><trkpt lat="43.983066911137264" lon="11.23276058389347"><ele>268.0</ele><time>2026-04-11T14:25:46Z</time></trkpt><trkpt lat="43.98318334586133" lon="11.232782903240386"><ele>268.0</ele><time>2026-04-11T14:25:47Z</time></trkpt><trkpt lat="43.9832935231351" lon="11.232809820503121"><ele>268.0</ele><time>2026-04-11T14:25:48Z</time></trkpt><trkpt lat="43.983394390686364" lon="11.232832420428705"><ele>268.0</ele><time>2026-04-11T14:25:49Z</time></trkpt><trkpt lat="43.98348711089778" lon="11.232853941813993"><ele>268.0</ele><time>2026-04-11T14:25:50Z</time></trkpt><trkpt lat="43.98358905067995" lon="11.232873592667497"><ele>268.0</ele><time>2026-04-11T14:25:51Z</time></trkpt><trkpt lat="43.983682038803444" lon="11.23289403363199"><ele>268.3333333333333</ele><time>2026-04-11T14:25:52Z</time></trkpt><trkpt lat="43.98376295843827" lon="11.232917022366125"><ele>268.66666666666663</ele><time>2026-04-11T14:25:53Z</time></trkpt><trkpt lat="43.98383845306729" lon="11.232951869280614"><ele>269.0</ele><time>2026-04-11T14:25:54Z</time></trkpt><trkpt lat="43.98390853676441" lon="11.232983603093949"><ele>269.3333333333333</ele><time>2026-04-11T14:25:55Z</time></trkpt><trkpt lat="43.98398294138062" lon="11.23302219333052"><ele>269.6666666666667</ele><time>2026-04-11T14:25:56Z</time></trkpt><trkpt lat="43.984066943626054" lon="11.233057324828588"><ele>270.0</ele><time>2026-04-11T14:25:57Z</time></trkpt><trkpt lat="43.98413876418048" lon="11.233080474855857"><ele>270.5</ele><time>2026-04-11T14:25:58Z</time></trkpt><trkpt lat="43.98420626524764" lon="11.233107294345203"><ele>271.0</ele><time>2026-04-11T14:25:59Z</time></trkpt><trkpt lat="43.984319771270584" lon="11.233165170901959"><ele>271.5</ele><time>2026-04-11T14:26:01Z</time></trkpt><trkpt lat="43.98443402790389" lon="11.233203736734064"><ele>272.0</ele><time>2026-04-11T14:26:02.999Z</time></trkpt><trkpt lat="43.98449915023712" lon="11.233217589448264"><ele>272.5</ele><time>2026-04-11T14:26:03.999Z</time></trkpt><trkpt lat="43.984569371255276" lon="11.233224881733191"><ele>273.0</ele><time>2026-04-11T14:26:04.999Z</time></trkpt><trkpt lat="43.98465418591186" lon="11.233230494728117"><ele>273.0</ele><time>2026-04-11T14:26:05.999Z</time></trkpt><trkpt lat="43.984736469344604" lon="11.233236476843585"><ele>273.0</ele><time>2026-04-11T14:26:06.999Z</time></trkpt><trkpt lat="43.98480545801609" lon="11.233244102101237"><ele>273.0</ele><time>2026-04-11T14:26:07.999Z</time></trkpt><trkpt lat="43.98487724317774" lon="11.233249756904254"><ele>273.0</ele><time>2026-04-11T14:26:08.999Z</time></trkpt><trkpt lat="43.984942268898976" lon="11.233259251944094"><ele>273.0</ele><time>2026-04-11T14:26:09.999Z</time></trkpt><trkpt lat="43.98500740297862" lon="11.233272054965763"><ele>273.0</ele><time>2026-04-11T14:26:10.999Z</time></trkpt><trkpt lat="43.98507887157606" lon="11.233289449755246"><ele>273.0</ele><time>2026-04-11T14:26:11.999Z</time></trkpt><trkpt lat="43.985171536200895" lon="11.233298417640553"><ele>271.0</ele><time>2026-04-11T14:26:12.999Z</time></trkpt><trkpt lat="43.985250291574125" lon="11.23331740876348"><ele>269.0</ele><time>2026-04-11T14:26:13.999Z</time></trkpt><trkpt lat="43.985328230985026" lon="11.233319117578455"><ele>267.0</ele><time>2026-04-11T14:26:14.999Z</time></trkpt><trkpt lat="43.985398632709234" lon="11.233317593084609"><ele>265.0</ele><time>2026-04-11T14:26:15.999Z</time></trkpt><trkpt lat="43.98550013901766" lon="11.233318650986511"><ele>263.0</ele><time>2026-04-11T14:26:17.999Z</time></trkpt><trkpt lat="43.98556731876284" lon="11.233316401032454"><ele>261.0</ele><time>2026-04-11T14:26:18.999Z</time></trkpt><trkpt lat="43.985641526463816" lon="11.233301538583568"><ele>261.0</ele><time>2026-04-11T14:26:19.999Z</time></trkpt><trkpt lat="43.98572233919652" lon="11.233277951251974"><ele>261.0</ele><time>2026-04-11T14:26:20.999Z</time></trkpt><trkpt lat="43.98580509812092" lon="11.233242217414139"><ele>261.0</ele><time>2026-04-11T14:26:21.999Z</time></trkpt><trkpt lat="43.98589373046118" lon="11.23319994143698"><ele>261.0</ele><time>2026-04-11T14:26:22.999Z</time></trkpt><trkpt lat="43.9859864609914" lon="11.233154002403772"><ele>261.0</ele><time>2026-04-11T14:26:23.999Z</time></trkpt><trkpt lat="43.986082937116436" lon="11.233105603070298"><ele>261.40000000000003</ele><time>2026-04-11T14:26:24.999Z</time></trkpt><trkpt lat="43.98618365859069" lon="11.233058057574349"><ele>261.8</ele><time>2026-04-11T14:26:25.999Z</time></trkpt><trkpt lat="43.986287962756826" lon="11.233009986798145"><ele>262.20000000000005</ele><time>2026-04-11T14:26:26.999Z</time></trkpt><trkpt lat="43.98639249504555" lon="11.23296713997566"><ele>262.6</ele><time>2026-04-11T14:26:27.999Z</time></trkpt><trkpt lat="43.986512590168914" lon="11.23294230428594"><ele>263.0</ele><time>2026-04-11T14:26:28.999Z</time></trkpt><trkpt lat="43.986653416402135" lon="11.23292632518074"><ele>262.25</ele><time>2026-04-11T14:26:29.999Z</time></trkpt><trkpt lat="43.9867902017831" lon="11.232931661139583"><ele>261.5</ele><time>2026-04-11T14:26:30.999Z</time></trkpt><trkpt lat="43.98692377775668" lon="11.232941438605199"><ele>260.75</ele><time>2026-04-11T14:26:31.999Z</time></trkpt><trkpt lat="43.98706895787507" lon="11.232953460498436"><ele>260.0</ele><time>2026-04-11T14:26:32.999Z</time></trkpt><trkpt lat="43.98721390790496" lon="11.232960869530245"><ele>260.0</ele><time>2026-04-11T14:26:33.999Z</time></trkpt><trkpt lat="43.98735008020744" lon="11.232965483789705"><ele>260.0</ele><time>2026-04-11T14:26:34.999Z</time></trkpt><trkpt lat="43.98748637727434" lon="11.232973025311976"><ele>260.0</ele><time>2026-04-11T14:26:35.999Z</time></trkpt><trkpt lat="43.98761450823693" lon="11.232993461902135"><ele>260.0</ele><time>2026-04-11T14:26:36.999Z</time></trkpt><trkpt lat="43.98775533192907" lon="11.23304711186098"><ele>259.33333333333337</ele><time>2026-04-11T14:26:37.999Z</time></trkpt><trkpt lat="43.98790497812293" lon="11.233103046070536"><ele>258.6666666666667</ele><time>2026-04-11T14:26:38.999Z</time></trkpt><trkpt lat="43.98805343045423" lon="11.23319090322315"><ele>258.0</ele><time>2026-04-11T14:26:39.999Z</time></trkpt><trkpt lat="43.988198042449994" lon="11.23330749669901"><ele>257.6666666666667</ele><time>2026-04-11T14:26:40.999Z</time></trkpt><trkpt lat="43.988339413761246" lon="11.233451541932691"><ele>257.33333333333337</ele><time>2026-04-11T14:26:41.999Z</time></trkpt><trkpt lat="43.988463376577414" lon="11.233594583390637"><ele>257.0</ele><time>2026-04-11T14:26:42.999Z</time></trkpt><trkpt lat="43.98858871298675" lon="11.233743922717675"><ele>257.0</ele><time>2026-04-11T14:26:43.999Z</time></trkpt><trkpt lat="43.98871091068351" lon="11.233871857272504"><ele>257.0</ele><time>2026-04-11T14:26:44.999Z</time></trkpt><trkpt lat="43.98884077397945" lon="11.234009892656456"><ele>257.0</ele><time>2026-04-11T14:26:45.999Z</time></trkpt><trkpt lat="43.98897527964658" lon="11.23413935370205"><ele>257.33333333333337</ele><time>2026-04-11T14:26:46.999Z</time></trkpt><trkpt lat="43.98910123157197" lon="11.234248936291344"><ele>257.6666666666667</ele><time>2026-04-11T14:26:47.999Z</time></trkpt><trkpt lat="43.989236396121356" lon="11.23435398046041"><ele>258.0</ele><time>2026-04-11T14:26:48.999Z</time></trkpt><trkpt lat="43.989385782445986" lon="11.234449537697758"><ele>258.6666666666667</ele><time>2026-04-11T14:26:49.999Z</time></trkpt><trkpt lat="43.989538133008814" lon="11.234517235571303"><ele>259.33333333333337</ele><time>2026-04-11T14:26:50.999Z</time></trkpt><trkpt lat="43.98968528924755" lon="11.234587206441844"><ele>260.0</ele><time>2026-04-11T14:26:51.999Z</time></trkpt><trkpt lat="43.9898389856992" lon="11.234655532987743"><ele>260.0</ele><time>2026-04-11T14:26:52.999Z</time></trkpt><trkpt lat="43.9899772558137" lon="11.234725043365852"><ele>260.0</ele><time>2026-04-11T14:26:53.999Z</time></trkpt><trkpt lat="43.99011212802877" lon="11.234794007533392"><ele>260.0</ele><time>2026-04-11T14:26:54.999Z</time></trkpt><trkpt lat="43.99022797518835" lon="11.23485796609363"><ele>260.0</ele><time>2026-04-11T14:26:55.999Z</time></trkpt><trkpt lat="43.99034161142174" lon="11.234916998213674"><ele>260.25</ele><time>2026-04-11T14:26:56.999Z</time></trkpt><trkpt lat="43.99049267894521" lon="11.234981244994318"><ele>260.5</ele><time>2026-04-11T14:26:57.999Z</time></trkpt><trkpt lat="43.990608436693705" lon="11.23503954750235"><ele>260.75</ele><time>2026-04-11T14:26:58.999Z</time></trkpt><trkpt lat="43.99073511131896" lon="11.235104405235406"><ele>261.0</ele><time>2026-04-11T14:26:59.999Z</time></trkpt><trkpt lat="43.99086651007866" lon="11.235169229333426"><ele>261.75</ele><time>2026-04-11T14:27:00.999Z</time></trkpt><trkpt lat="43.990995931150344" lon="11.23524296650445"><ele>262.5</ele><time>2026-04-11T14:27:01.999Z</time></trkpt><trkpt lat="43.99110460021931" lon="11.23531610545975"><ele>263.25</ele><time>2026-04-11T14:27:02.999Z</time></trkpt><trkpt lat="43.99120433674512" lon="11.235385579387206"><ele>264.0</ele><time>2026-04-11T14:27:03.999Z</time></trkpt><trkpt lat="43.99128364854827" lon="11.235447889276504"><ele>264.0</ele><time>2026-04-11T14:27:04.999Z</time></trkpt><trkpt lat="43.991343064295776" lon="11.235503777832077"><ele>264.0</ele><time>2026-04-11T14:27:05.999Z</time></trkpt><trkpt lat="43.99141879869497" lon="11.235596478477119"><ele>264.0</ele><time>2026-04-11T14:27:07.999Z</time></trkpt><trkpt lat="43.99145610762685" lon="11.235670808009964"><ele>264.0</ele><time>2026-04-11T14:27:09.999Z</time></trkpt><trkpt lat="43.99146279132897" lon="11.23575986171244"><ele>264.0</ele><time>2026-04-11T14:27:11.999Z</time></trkpt><trkpt lat="43.99150280551767" lon="11.235896317189834"><ele>264.0</ele><time>2026-04-11T14:27:13.999Z</time></trkpt><trkpt lat="43.991544618209744" lon="11.235969674632216"><ele>264.1666666666667</ele><time>2026-04-11T14:27:14.999Z</time></trkpt><trkpt lat="43.99159009441017" lon="11.236040542904226"><ele>264.3333333333333</ele><time>2026-04-11T14:27:15.999Z</time></trkpt><trkpt lat="43.991652337681955" lon="11.236106542011074"><ele>264.5</ele><time>2026-04-11T14:27:16.999Z</time></trkpt><trkpt lat="43.99172415473052" lon="11.236180393785258"><ele>264.66666666666663</ele><time>2026-04-11T14:27:17.998Z</time></trkpt><trkpt lat="43.99178422792768" lon="11.23627003575976"><ele>264.8333333333333</ele><time>2026-04-11T14:27:18.998Z</time></trkpt><trkpt lat="43.991818223975336" lon="11.236374086204096"><ele>265.0</ele><time>2026-04-11T14:27:19.998Z</time></trkpt><trkpt lat="43.99185071701053" lon="11.236497856402329"><ele>264.6</ele><time>2026-04-11T14:27:20.998Z</time></trkpt><trkpt lat="43.99188313428446" lon="11.236606887987296"><ele>264.2</ele><time>2026-04-11T14:27:21.998Z</time></trkpt><trkpt lat="43.99192012944565" lon="11.236716916583832"><ele>263.8</ele><time>2026-04-11T14:27:23Z</time></trkpt><trkpt lat="43.99195856990249" lon="11.2368350548219"><ele>263.4</ele><time>2026-04-11T14:27:24Z</time></trkpt><trkpt lat="43.992001758346284" lon="11.236965986241966"><ele>263.0</ele><time>2026-04-11T14:27:25Z</time></trkpt><trkpt lat="43.99205144116371" lon="11.237093533407364"><ele>263.0</ele><time>2026-04-11T14:27:26Z</time></trkpt><trkpt lat="43.99210795538891" lon="11.237225981168026"><ele>263.0</ele><time>2026-04-11T14:27:27Z</time></trkpt><trkpt lat="43.99215028866222" lon="11.237364179156309"><ele>263.0</ele><time>2026-04-11T14:27:28Z</time></trkpt><trkpt lat="43.99219649933406" lon="11.23751170811477"><ele>263.0</ele><time>2026-04-11T14:27:29Z</time></trkpt><trkpt lat="43.99224444737236" lon="11.237649769958656"><ele>263.0</ele><time>2026-04-11T14:27:30Z</time></trkpt><trkpt lat="43.992288450426955" lon="11.237780686657944"><ele>263.0</ele><time>2026-04-11T14:27:31Z</time></trkpt><trkpt lat="43.99237491092814" lon="11.238031398463507"><ele>263.0</ele><time>2026-04-11T14:27:33Z</time></trkpt><trkpt lat="43.992409433134895" lon="11.238147334214391"><ele>263.0</ele><time>2026-04-11T14:27:34Z</time></trkpt><trkpt lat="43.992426302535954" lon="11.238243775879814"><ele>263.0</ele><time>2026-04-11T14:27:35Z</time></trkpt><trkpt lat="43.99242628709168" lon="11.238349577179564"><ele>263.0</ele><time>2026-04-11T14:27:37Z</time></trkpt><trkpt lat="43.992444803170194" lon="11.23847473162943"><ele>263.0</ele><time>2026-04-11T14:27:40Z</time></trkpt><trkpt lat="43.99247186674398" lon="11.238563525633257"><ele>263.0</ele><time>2026-04-11T14:27:44Z</time></trkpt><trkpt lat="43.99245080400262" lon="11.238660663974002"><ele>263.0</ele><time>2026-04-11T14:27:48Z</time></trkpt><trkpt lat="43.99249599020865" lon="11.238725219404959"><ele>263.0</ele><time>2026-04-11T14:34:41Z</time></trkpt><trkpt lat="43.992582498840136" lon="11.23878903348034"><ele>263.0</ele><time>2026-04-11T14:34:43Z</time></trkpt><trkpt lat="43.99266118954367" lon="11.238857837952104"><ele>263.0</ele><time>2026-04-11T14:34:45Z</time></trkpt><trkpt lat="43.99270360063793" lon="11.238938770989435"><ele>263.0</ele><time>2026-04-11T14:34:46Z</time></trkpt><trkpt lat="43.99274319430553" lon="11.239059644631718"><ele>263.0</ele><time>2026-04-11T14:34:47Z</time></trkpt><trkpt lat="43.992793219654395" lon="11.239203494452132"><ele>263.0</ele><time>2026-04-11T14:34:48Z</time></trkpt><trkpt lat="43.9928492508558" lon="11.23936022374373"><ele>263.0</ele><time>2026-04-11T14:34:49Z</time></trkpt><trkpt lat="43.99290019395712" lon="11.23952014640764"><ele>263.0</ele><time>2026-04-11T14:34:49.999Z</time></trkpt><trkpt lat="43.99294380040961" lon="11.239668132586651"><ele>263.0</ele><time>2026-04-11T14:34:50.999Z</time></trkpt><trkpt lat="43.992987522502034" lon="11.239796529410853"><ele>263.0</ele><time>2026-04-11T14:34:51.999Z</time></trkpt><trkpt lat="43.993030632473456" lon="11.239920235271436"><ele>263.0</ele><time>2026-04-11T14:34:52.999Z</time></trkpt><trkpt lat="43.9930460581062" lon="11.24004261218038"><ele>263.0</ele><time>2026-04-11T14:34:53.999Z</time></trkpt><trkpt lat="43.99308067937286" lon="11.240166129769758"><ele>263.0</ele><time>2026-04-11T14:34:54.999Z</time></trkpt><trkpt lat="43.99310222094983" lon="11.240298013509559"><ele>263.0</ele><time>2026-04-11T14:34:55.999Z</time></trkpt><trkpt lat="43.993135615122235" lon="11.240426027552797"><ele>263.0</ele><time>2026-04-11T14:34:56.999Z</time></trkpt><trkpt lat="43.993175837145905" lon="11.240528737897678"><ele>263.0</ele><time>2026-04-11T14:34:57.999Z</time></trkpt><trkpt lat="43.99324715500042" lon="11.240601203975098"><ele>263.0</ele><time>2026-04-11T14:34:58.999Z</time></trkpt><trkpt lat="43.993331516838694" lon="11.240617558567521"><ele>263.0</ele><time>2026-04-11T14:34:59.999Z</time></trkpt><trkpt lat="43.993431417158796" lon="11.240589880839172"><ele>263.0</ele><time>2026-04-11T14:35:00.999Z</time></trkpt><trkpt lat="43.99353453219501" lon="11.24053581012816"><ele>263.0</ele><time>2026-04-11T14:35:01.999Z</time></trkpt><trkpt lat="43.99365342696742" lon="11.240478472665604"><ele>263.0</ele><time>2026-04-11T14:35:02.999Z</time></trkpt><trkpt lat="43.99377236062418" lon="11.240440358493762"><ele>263.0</ele><time>2026-04-11T14:35:03.999Z</time></trkpt><trkpt lat="43.99388162323744" lon="11.24041203138921"><ele>263.0</ele><time>2026-04-11T14:35:04.999Z</time></trkpt><trkpt lat="43.993979226194256" lon="11.240379509209122"><ele>263.0</ele><time>2026-04-11T14:35:05.999Z</time></trkpt><trkpt lat="43.99408089289229" lon="11.240358508669415"><ele>263.0</ele><time>2026-04-11T14:35:06.999Z</time></trkpt><trkpt lat="43.99418896092161" lon="11.240348387013118"><ele>263.0</ele><time>2026-04-11T14:35:07.999Z</time></trkpt><trkpt lat="43.99429679576292" lon="11.240334827436392"><ele>263.4</ele><time>2026-04-11T14:35:08.999Z</time></trkpt><trkpt lat="43.99439601130829" lon="11.240327049657006"><ele>263.8</ele><time>2026-04-11T14:35:09.999Z</time></trkpt><trkpt lat="43.994488230537854" lon="11.240310418498433"><ele>264.2</ele><time>2026-04-11T14:35:10.999Z</time></trkpt><trkpt lat="43.99457882768844" lon="11.240303057612394"><ele>264.6</ele><time>2026-04-11T14:35:11.999Z</time></trkpt><trkpt lat="43.99466960365878" lon="11.24029600833956"><ele>265.0</ele><time>2026-04-11T14:35:12.999Z</time></trkpt><trkpt lat="43.99476234858258" lon="11.240283788154095"><ele>265.0</ele><time>2026-04-11T14:35:13.999Z</time></trkpt><trkpt lat="43.99485137812989" lon="11.240267995815822"><ele>265.0</ele><time>2026-04-11T14:35:14.999Z</time></trkpt><trkpt lat="43.99493226202869" lon="11.24026085075578"><ele>265.0</ele><time>2026-04-11T14:35:15.999Z</time></trkpt><trkpt lat="43.99501321543453" lon="11.240255744278377"><ele>265.0</ele><time>2026-04-11T14:35:16.999Z</time></trkpt><trkpt lat="43.99508727989077" lon="11.240247543344697"><ele>265.0</ele><time>2026-04-11T14:35:17.999Z</time></trkpt><trkpt lat="43.9951536427783" lon="11.24025353972434"><ele>265.0</ele><time>2026-04-11T14:35:18.999Z</time></trkpt><trkpt lat="43.995218278211425" lon="11.240263021184877"><ele>264.99999999999994</ele><time>2026-04-11T14:35:19.999Z</time></trkpt><trkpt lat="43.99528321258199" lon="11.240256395320541"><ele>265.0</ele><time>2026-04-11T14:35:20.999Z</time></trkpt><trkpt lat="43.99535004373356" lon="11.240254745339707"><ele>265.0</ele><time>2026-04-11T14:35:21.999Z</time></trkpt><trkpt lat="43.995418852542855" lon="11.240245571725223"><ele>265.0</ele><time>2026-04-11T14:35:22.999Z</time></trkpt><trkpt lat="43.995467260676584" lon="11.24031425081289"><ele>265.0</ele><time>2026-04-11T14:35:26.999Z</time></trkpt><trkpt lat="43.99544961072499" lon="11.240409372947603"><ele>264.99999999999994</ele><time>2026-04-11T14:35:30.999Z</time></trkpt><trkpt lat="43.99546112229111" lon="11.2405043215256"><ele>265.0</ele><time>2026-04-11T14:36:11Z</time></trkpt><trkpt lat="43.99539114461098" lon="11.240565583059322"><ele>265.0</ele><time>2026-04-11T14:36:30Z</time></trkpt><trkpt lat="43.9954495918412" lon="11.240615343049678"><ele>265.0</ele><time>2026-04-11T14:36:33Z</time></trkpt><trkpt lat="43.99538920145375" lon="11.240675670284892"><ele>265.0</ele><time>2026-04-11T14:36:45.999Z</time></trkpt><trkpt lat="43.99548253571638" lon="11.240812618238579"><ele>265.0</ele><time>2026-04-11T14:36:57.999Z</time></trkpt><trkpt lat="43.995449499885886" lon="11.240731693419221"><ele>265.0</ele><time>2026-04-11T14:37:18.999Z</time></trkpt><trkpt lat="43.99545469407816" lon="11.24058649179931"><ele>265.0</ele><time>2026-04-11T14:41:02.999Z</time></trkpt><trkpt lat="43.995423158700774" lon="11.240499732391946"><ele>265.0</ele><time>2026-04-11T14:41:15.999Z</time></trkpt><trkpt lat="43.99543416423344" lon="11.240395877673123"><ele>265.0</ele><time>2026-04-11T14:41:18.999Z</time></trkpt><trkpt lat="43.99529079258596" lon="11.240388715669141"><ele>265.0</ele><time>2026-04-11T14:50:36.998Z</time></trkpt><trkpt lat="43.99524503708567" lon="11.240310483434842"><ele>265.0</ele><time>2026-04-11T14:50:39.998Z</time></trkpt><trkpt lat="43.99517128272361" lon="11.240232367978006"><ele>265.0</ele><time>2026-04-11T14:50:44.998Z</time></trkpt><trkpt lat="43.99510063353614" lon="11.240225597363604"><ele>265.0</ele><time>2026-04-11T14:50:45.998Z</time></trkpt><trkpt lat="43.99501417483848" lon="11.240227916974687"><ele>265.0</ele><time>2026-04-11T14:50:46.999Z</time></trkpt><trkpt lat="43.994908140576" lon="11.240239806014745"><ele>265.0</ele><time>2026-04-11T14:50:47.999Z</time></trkpt><trkpt lat="43.99478695457921" lon="11.240256813103958"><ele>265.0</ele><time>2026-04-11T14:50:48.999Z</time></trkpt><trkpt lat="43.99465139552102" lon="11.24027347456759"><ele>265.0</ele><time>2026-04-11T14:50:49.999Z</time></trkpt><trkpt lat="43.99453574220338" lon="11.240290910637809"><ele>265.0</ele><time>2026-04-11T14:50:50.999Z</time></trkpt><trkpt lat="43.99443284669192" lon="11.240299488465716"><ele>265.0</ele><time>2026-04-11T14:50:51.999Z</time></trkpt><trkpt lat="43.99434166317565" lon="11.240305656765813"><ele>265.0</ele><time>2026-04-11T14:50:52.999Z</time></trkpt><trkpt lat="43.99425313901413" lon="11.240311443132518"><ele>265.0</ele><time>2026-04-11T14:50:53.999Z</time></trkpt><trkpt lat="43.994161723077916" lon="11.240327274993437"><ele>264.66666666666663</ele><time>2026-04-11T14:50:54.999Z</time></trkpt><trkpt lat="43.99406346167717" lon="11.24033785828912"><ele>264.3333333333333</ele><time>2026-04-11T14:50:55.999Z</time></trkpt><trkpt lat="43.993973331517324" lon="11.24035140980108"><ele>264.0</ele><time>2026-04-11T14:50:56.999Z</time></trkpt><trkpt lat="43.99389080084284" lon="11.240358355539184"><ele>263.6666666666667</ele><time>2026-04-11T14:50:57.999Z</time></trkpt><trkpt lat="43.99381119507495" lon="11.240368117925325"><ele>263.33333333333337</ele><time>2026-04-11T14:50:58.999Z</time></trkpt><trkpt lat="43.99371460782444" lon="11.24037179844593"><ele>263.0</ele><time>2026-04-11T14:50:59.999Z</time></trkpt><trkpt lat="43.99360443926324" lon="11.24036011505051"><ele>263.0</ele><time>2026-04-11T14:51:00.999Z</time></trkpt><trkpt lat="43.99350543117338" lon="11.24033960850195"><ele>263.0</ele><time>2026-04-11T14:51:01.999Z</time></trkpt><trkpt lat="43.9934038971465" lon="11.240262259209056"><ele>263.0</ele><time>2026-04-11T14:51:02.999Z</time></trkpt><trkpt lat="43.9932947024151" lon="11.240163119667473"><ele>263.0</ele><time>2026-04-11T14:51:03.999Z</time></trkpt><trkpt lat="43.99319010095739" lon="11.240072820515946"><ele>263.0</ele><time>2026-04-11T14:51:04.999Z</time></trkpt><trkpt lat="43.99309173677043" lon="11.239965332243521"><ele>263.0</ele><time>2026-04-11T14:51:05.999Z</time></trkpt><trkpt lat="43.993019498175734" lon="11.239839886869834"><ele>263.0</ele><time>2026-04-11T14:51:06.999Z</time></trkpt><trkpt lat="43.99295968158911" lon="11.239693484109127"><ele>263.0</ele><time>2026-04-11T14:51:07.999Z</time></trkpt><trkpt lat="43.992923495057944" lon="11.239542494941778"><ele>263.0</ele><time>2026-04-11T14:51:08.999Z</time></trkpt><trkpt lat="43.992864340875514" lon="11.23938942135587"><ele>263.0</ele><time>2026-04-11T14:51:09.999Z</time></trkpt><trkpt lat="43.99279881384116" lon="11.239220455480078"><ele>263.0</ele><time>2026-04-11T14:51:10.999Z</time></trkpt><trkpt lat="43.992727724831774" lon="11.239034359450487"><ele>263.0</ele><time>2026-04-11T14:51:11.999Z</time></trkpt><trkpt lat="43.99264880997469" lon="11.238827135306074"><ele>263.0</ele><time>2026-04-11T14:51:12.999Z</time></trkpt><trkpt lat="43.99255850588634" lon="11.23858101055275"><ele>263.0</ele><time>2026-04-11T14:51:13.999Z</time></trkpt><trkpt lat="43.992466698364765" lon="11.238318202724859"><ele>263.0</ele><time>2026-04-11T14:51:14.999Z</time></trkpt><trkpt lat="43.99238339608045" lon="11.2380747624844"><ele>263.0</ele><time>2026-04-11T14:51:15.999Z</time></trkpt><trkpt lat="43.992310268626" lon="11.237853828040295"><ele>263.0</ele><time>2026-04-11T14:51:16.999Z</time></trkpt><trkpt lat="43.99224247133465" lon="11.2376469498094"><ele>263.0</ele><time>2026-04-11T14:51:17.999Z</time></trkpt><trkpt lat="43.99218092416236" lon="11.237464340186557"><ele>263.0</ele><time>2026-04-11T14:51:18.999Z</time></trkpt><trkpt lat="43.99211837938489" lon="11.237281453033432"><ele>263.0</ele><time>2026-04-11T14:51:19.998Z</time></trkpt><trkpt lat="43.99205825970983" lon="11.23710641187899"><ele>263.0</ele><time>2026-04-11T14:51:20.998Z</time></trkpt><trkpt lat="43.9920087723433" lon="11.236947809380979"><ele>263.0</ele><time>2026-04-11T14:51:21.998Z</time></trkpt><trkpt lat="43.991956285392696" lon="11.236785326749613"><ele>263.0</ele><time>2026-04-11T14:51:22.998Z</time></trkpt><trkpt lat="43.991903571667784" lon="11.23663274927326"><ele>263.0</ele><time>2026-04-11T14:51:23.998Z</time></trkpt><trkpt lat="43.991856479698114" lon="11.236495451498834"><ele>263.0</ele><time>2026-04-11T14:51:24.998Z</time></trkpt><trkpt lat="43.99181920977308" lon="11.236379874996405"><ele>263.0</ele><time>2026-04-11T14:51:25.998Z</time></trkpt><trkpt lat="43.991789475102344" lon="11.236283621101379"><ele>263.0</ele><time>2026-04-11T14:51:26.998Z</time></trkpt><trkpt lat="43.991763119009555" lon="11.236152703896845"><ele>263.4</ele><time>2026-04-11T14:51:28.998Z</time></trkpt><trkpt lat="43.991756660731966" lon="11.236003924364258"><ele>263.8</ele><time>2026-04-11T14:51:32.998Z</time></trkpt><trkpt lat="43.991788918242044" lon="11.235885391647463"><ele>264.2</ele><time>2026-04-11T14:51:34.998Z</time></trkpt><trkpt lat="43.9918374997007" lon="11.235822314487544"><ele>264.6</ele><time>2026-04-11T14:51:35.998Z</time></trkpt><trkpt lat="43.991958303360484" lon="11.235760895279874"><ele>265.0</ele><time>2026-04-11T14:51:37.998Z</time></trkpt><trkpt lat="43.9920286955096" lon="11.235760568118355"><ele>265.0</ele><time>2026-04-11T14:51:38.998Z</time></trkpt><trkpt lat="43.99209857765488" lon="11.235775921503238"><ele>265.0</ele><time>2026-04-11T14:51:39.998Z</time></trkpt><trkpt lat="43.99217859893882" lon="11.23579434937861"><ele>265.0</ele><time>2026-04-11T14:51:40.998Z</time></trkpt><trkpt lat="43.99225953725782" lon="11.235813954593576"><ele>265.0</ele><time>2026-04-11T14:51:41.998Z</time></trkpt><trkpt lat="43.992362492646635" lon="11.235836258618548"><ele>265.0</ele><time>2026-04-11T14:51:43.998Z</time></trkpt><trkpt lat="43.992454547477365" lon="11.23586809434828"><ele>265.0</ele><time>2026-04-11T14:51:45.998Z</time></trkpt><trkpt lat="43.992405746299795" lon="11.23579987113897"><ele>265.0</ele><time>2026-04-11T14:51:49.998Z</time></trkpt><trkpt lat="43.992239865092564" lon="11.235759958461223"><ele>265.0</ele><time>2026-04-11T14:51:51.998Z</time></trkpt><trkpt lat="43.992135230544285" lon="11.23573779691155"><ele>265.0</ele><time>2026-04-11T14:51:52.998Z</time></trkpt><trkpt lat="43.99207358294909" lon="11.235693891835176"><ele>265.0</ele><time>2026-04-11T14:51:53.998Z</time></trkpt><trkpt lat="43.99203780978549" lon="11.235619447545083"><ele>265.0</ele><time>2026-04-11T14:51:54.998Z</time></trkpt><trkpt lat="43.99203890199192" lon="11.235518112753613"><ele>265.5</ele><time>2026-04-11T14:51:55.998Z</time></trkpt><trkpt lat="43.99215720291001" lon="11.235361605077184"><ele>266.0</ele><time>2026-04-11T14:51:57.998Z</time></trkpt><trkpt lat="43.99223892024658" lon="11.235280893225587"><ele>266.5</ele><time>2026-04-11T14:51:58.998Z</time></trkpt><trkpt lat="43.9923293281736" lon="11.235188886108537"><ele>267.0</ele><time>2026-04-11T14:51:59.998Z</time></trkpt><trkpt lat="43.99244211516953" lon="11.235081767674025"><ele>267.3333333333333</ele><time>2026-04-11T14:52:00.998Z</time></trkpt><trkpt lat="43.992560379166676" lon="11.234964797954657"><ele>267.66666666666663</ele><time>2026-04-11T14:52:01.998Z</time></trkpt><trkpt lat="43.992693003404234" lon="11.234840363586187"><ele>268.0</ele><time>2026-04-11T14:52:02.998Z</time></trkpt><trkpt lat="43.99283496689436" lon="11.234686369832284"><ele>269.0</ele><time>2026-04-11T14:52:03.998Z</time></trkpt><trkpt lat="43.99297403587283" lon="11.234528418789992"><ele>270.0</ele><time>2026-04-11T14:52:04.998Z</time></trkpt><trkpt lat="43.99310145643972" lon="11.234384588113517"><ele>271.0</ele><time>2026-04-11T14:52:05.998Z</time></trkpt><trkpt lat="43.99324773521385" lon="11.234264536854276"><ele>272.3333333333333</ele><time>2026-04-11T14:52:06.998Z</time></trkpt><trkpt lat="43.993378073756965" lon="11.234117531362333"><ele>273.6666666666667</ele><time>2026-04-11T14:52:07.998Z</time></trkpt><trkpt lat="43.993527852082416" lon="11.234001113334456"><ele>275.0</ele><time>2026-04-11T14:52:08.998Z</time></trkpt><trkpt lat="43.993685231139104" lon="11.23389104754253"><ele>275.0</ele><time>2026-04-11T14:52:09.998Z</time></trkpt><trkpt lat="43.99385034115795" lon="11.233786222982737"><ele>275.0</ele><time>2026-04-11T14:52:10.998Z</time></trkpt><trkpt lat="43.99403448252042" lon="11.233710035550729"><ele>275.0</ele><time>2026-04-11T14:52:11.998Z</time></trkpt><trkpt lat="43.994198968481115" lon="11.233622746345493"><ele>276.33333333333337</ele><time>2026-04-11T14:52:12.998Z</time></trkpt><trkpt lat="43.994377093124584" lon="11.233530926025095"><ele>277.6666666666667</ele><time>2026-04-11T14:52:13.998Z</time></trkpt><trkpt lat="43.99457003381045" lon="11.233441231467264"><ele>279.0</ele><time>2026-04-11T14:52:14.998Z</time></trkpt><trkpt lat="43.994775863529256" lon="11.233359569280282"><ele>279.0</ele><time>2026-04-11T14:52:15.998Z</time></trkpt><trkpt lat="43.99499592895755" lon="11.233285139730071"><ele>279.0</ele><time>2026-04-11T14:52:16.998Z</time></trkpt><trkpt lat="43.995221072125396" lon="11.233219501882656"><ele>279.6666666666667</ele><time>2026-04-11T14:52:17.998Z</time></trkpt><trkpt lat="43.99543919926982" lon="11.233159859614155"><ele>280.33333333333337</ele><time>2026-04-11T14:52:18.998Z</time></trkpt><trkpt lat="43.99565384322851" lon="11.233100428406502"><ele>281.0</ele><time>2026-04-11T14:52:19.998Z</time></trkpt><trkpt lat="43.995863289558436" lon="11.23304100744976"><ele>283.6666666666667</ele><time>2026-04-11T14:52:20.998Z</time></trkpt><trkpt lat="43.99606531812249" lon="11.232983223717717"><ele>286.3333333333333</ele><time>2026-04-11T14:52:21.998Z</time></trkpt><trkpt lat="43.996258174586416" lon="11.232926609952317"><ele>289.0</ele><time>2026-04-11T14:52:22.998Z</time></trkpt><trkpt lat="43.996443565513616" lon="11.232850833714327"><ele>289.0</ele><time>2026-04-11T14:52:23.998Z</time></trkpt><trkpt lat="43.99662653862185" lon="11.23279761375883"><ele>289.0</ele><time>2026-04-11T14:52:24.998Z</time></trkpt><trkpt lat="43.99680998822963" lon="11.232735509627169"><ele>289.0</ele><time>2026-04-11T14:52:25.998Z</time></trkpt><trkpt lat="43.996984987231734" lon="11.232666725165375"><ele>290.0</ele><time>2026-04-11T14:52:26.998Z</time></trkpt><trkpt lat="43.997165516284404" lon="11.232590988440455"><ele>291.0</ele><time>2026-04-11T14:52:27.998Z</time></trkpt><trkpt lat="43.99734735327024" lon="11.23250817447058"><ele>292.0</ele><time>2026-04-11T14:52:28.997Z</time></trkpt><trkpt lat="43.99752601863494" lon="11.232449061524175"><ele>292.0</ele><time>2026-04-11T14:52:29.997Z</time></trkpt><trkpt lat="43.99770165140655" lon="11.232363751738943"><ele>292.0</ele><time>2026-04-11T14:52:30.997Z</time></trkpt><trkpt lat="43.99785915894094" lon="11.23226369340205"><ele>292.0</ele><time>2026-04-11T14:52:31.997Z</time></trkpt><trkpt lat="43.9980033744066" lon="11.232194834533603"><ele>292.0</ele><time>2026-04-11T14:52:32.997Z</time></trkpt><trkpt lat="43.99814726405518" lon="11.23212572967242"><ele>292.0</ele><time>2026-04-11T14:52:33.997Z</time></trkpt><trkpt lat="43.998281344729435" lon="11.232061691258615"><ele>292.0</ele><time>2026-04-11T14:52:34.997Z</time></trkpt><trkpt lat="43.99841309420086" lon="11.231992345210516"><ele>292.0</ele><time>2026-04-11T14:52:35.997Z</time></trkpt><trkpt lat="43.99853133035712" lon="11.231936062272165"><ele>292.6</ele><time>2026-04-11T14:52:36.997Z</time></trkpt><trkpt lat="43.99864417646093" lon="11.231881703465566"><ele>293.2</ele><time>2026-04-11T14:52:37.997Z</time></trkpt><trkpt lat="43.99875294033338" lon="11.231850143657114"><ele>293.8</ele><time>2026-04-11T14:52:38.997Z</time></trkpt><trkpt lat="43.99884848709802" lon="11.231783241912114"><ele>294.4</ele><time>2026-04-11T14:52:39.997Z</time></trkpt><trkpt lat="43.998929037994685" lon="11.231750673635327"><ele>295.0</ele><time>2026-04-11T14:52:40.997Z</time></trkpt><trkpt lat="43.99900941477802" lon="11.231707432007234"><ele>295.0</ele><time>2026-04-11T14:52:42.997Z</time></trkpt><trkpt lat="43.99911975819935" lon="11.231651003615715"><ele>295.0</ele><time>2026-04-11T14:53:00.998Z</time></trkpt><trkpt lat="43.99920558579011" lon="11.23161309137063"><ele>295.0</ele><time>2026-04-11T14:53:01.998Z</time></trkpt><trkpt lat="43.99930804190711" lon="11.231561821588592"><ele>295.0</ele><time>2026-04-11T14:53:02.998Z</time></trkpt><trkpt lat="43.999426773055596" lon="11.231508893071263"><ele>295.0</ele><time>2026-04-11T14:53:03.998Z</time></trkpt><trkpt lat="43.99956069438443" lon="11.231445318507161"><ele>296.3333333333333</ele><time>2026-04-11T14:53:04.998Z</time></trkpt><trkpt lat="43.99970123551946" lon="11.231363776721997"><ele>297.6666666666667</ele><time>2026-04-11T14:53:05.998Z</time></trkpt><trkpt lat="43.99985021043032" lon="11.231258612375894"><ele>299.0</ele><time>2026-04-11T14:53:06.998Z</time></trkpt><trkpt lat="44.0000189639562" lon="11.23113063468998"><ele>299.0</ele><time>2026-04-11T14:53:07.998Z</time></trkpt><trkpt lat="44.00018523521329" lon="11.231003662872281"><ele>299.0</ele><time>2026-04-11T14:53:08.998Z</time></trkpt><trkpt lat="44.00036321617002" lon="11.230855262172"><ele>299.0</ele><time>2026-04-11T14:53:09.998Z</time></trkpt><trkpt lat="44.000548739365705" lon="11.230706533427238"><ele>298.33333333333337</ele><time>2026-04-11T14:53:10.998Z</time></trkpt><trkpt lat="44.00073915370626" lon="11.230555457905291"><ele>297.6666666666667</ele><time>2026-04-11T14:53:11.998Z</time></trkpt><trkpt lat="44.00092032904264" lon="11.230413147935772"><ele>297.0</ele><time>2026-04-11T14:53:12.998Z</time></trkpt><trkpt lat="44.00108614325607" lon="11.230285056486247"><ele>297.0</ele><time>2026-04-11T14:53:13.998Z</time></trkpt><trkpt lat="44.00124397783939" lon="11.230175628634894"><ele>297.0</ele><time>2026-04-11T14:53:14.998Z</time></trkpt><trkpt lat="44.00140448149242" lon="11.230102863587392"><ele>297.0</ele><time>2026-04-11T14:53:15.998Z</time></trkpt><trkpt lat="44.001566137404204" lon="11.23005262011173"><ele>299.6666666666667</ele><time>2026-04-11T14:53:16.998Z</time></trkpt><trkpt lat="44.00172312926364" lon="11.230010665119764"><ele>302.33333333333337</ele><time>2026-04-11T14:53:17.998Z</time></trkpt><trkpt lat="44.00189788511129" lon="11.229961782915797"><ele>305.0</ele><time>2026-04-11T14:53:18.998Z</time></trkpt><trkpt lat="44.002078293369195" lon="11.229909644619083"><ele>305.0</ele><time>2026-04-11T14:53:19.998Z</time></trkpt><trkpt lat="44.002264018190694" lon="11.229849272125533"><ele>305.0</ele><time>2026-04-11T14:53:20.998Z</time></trkpt><trkpt lat="44.00246231403229" lon="11.22975806835141"><ele>305.0</ele><time>2026-04-11T14:53:21.998Z</time></trkpt><trkpt lat="44.00266770642544" lon="11.229628915871844"><ele>306.0</ele><time>2026-04-11T14:53:22.998Z</time></trkpt><trkpt lat="44.00286994426085" lon="11.2294882169608"><ele>307.0</ele><time>2026-04-11T14:53:23.998Z</time></trkpt><trkpt lat="44.003077140757995" lon="11.229343650622264"><ele>307.0</ele><time>2026-04-11T14:53:24.998Z</time></trkpt><trkpt lat="44.00328111717124" lon="11.229201855624614"><ele>307.0</ele><time>2026-04-11T14:53:25.998Z</time></trkpt><trkpt lat="44.00348767143467" lon="11.2290606687239"><ele>307.0</ele><time>2026-04-11T14:53:26.998Z</time></trkpt><trkpt lat="44.0036916170545" lon="11.22892498303809"><ele>307.0</ele><time>2026-04-11T14:53:27.998Z</time></trkpt><trkpt lat="44.00389797452436" lon="11.228787412922753"><ele>307.0</ele><time>2026-04-11T14:53:28.998Z</time></trkpt><trkpt lat="44.00410324463772" lon="11.228648707418738"><ele>307.0</ele><time>2026-04-11T14:53:29.998Z</time></trkpt><trkpt lat="44.00431105971554" lon="11.228504855706696"><ele>307.0</ele><time>2026-04-11T14:53:30.998Z</time></trkpt><trkpt lat="44.00450586660113" lon="11.228364466575472"><ele>307.0</ele><time>2026-04-11T14:53:31.998Z</time></trkpt><trkpt lat="44.00469362649725" lon="11.228240449589615"><ele>307.0</ele><time>2026-04-11T14:53:32.998Z</time></trkpt><trkpt lat="44.00488580118743" lon="11.228125999706899"><ele>311.3333333333333</ele><time>2026-04-11T14:53:33.998Z</time></trkpt><trkpt lat="44.00508845237873" lon="11.228032333656822"><ele>315.6666666666667</ele><time>2026-04-11T14:53:34.998Z</time></trkpt><trkpt lat="44.00528573969448" lon="11.227975817986977"><ele>320.0</ele><time>2026-04-11T14:53:35.998Z</time></trkpt><trkpt lat="44.00548143727093" lon="11.22795319667455"><ele>320.0</ele><time>2026-04-11T14:53:36.998Z</time></trkpt><trkpt lat="44.00568020764804" lon="11.22796256061114"><ele>320.0</ele><time>2026-04-11T14:53:37.998Z</time></trkpt><trkpt lat="44.00587913136758" lon="11.227995344782931"><ele>320.0</ele><time>2026-04-11T14:53:38.998Z</time></trkpt><trkpt lat="44.006051866948596" lon="11.228054294718167"><ele>319.0</ele><time>2026-04-11T14:53:39.998Z</time></trkpt><trkpt lat="44.00620379948743" lon="11.228138744089689"><ele>318.0</ele><time>2026-04-11T14:53:40.998Z</time></trkpt><trkpt lat="44.006361174374405" lon="11.228252143596418"><ele>317.0</ele><time>2026-04-11T14:53:41.998Z</time></trkpt><trkpt lat="44.00653287576621" lon="11.22838512485504"><ele>315.6666666666667</ele><time>2026-04-11T14:53:42.998Z</time></trkpt><trkpt lat="44.006702904823264" lon="11.228533219813642"><ele>314.3333333333333</ele><time>2026-04-11T14:53:43.998Z</time></trkpt><trkpt lat="44.0068836783942" lon="11.228697473266294"><ele>313.0</ele><time>2026-04-11T14:53:44.998Z</time></trkpt><trkpt lat="44.007063317696215" lon="11.22886985477701"><ele>313.66666666666663</ele><time>2026-04-11T14:53:45.998Z</time></trkpt><trkpt lat="44.00724577775512" lon="11.229039459228048"><ele>314.3333333333333</ele><time>2026-04-11T14:53:46.998Z</time></trkpt><trkpt lat="44.00742925258614" lon="11.22920838309009"><ele>315.0</ele><time>2026-04-11T14:53:48.012Z</time></trkpt><trkpt lat="44.007607873827176" lon="11.229374958539406"><ele>315.0</ele><time>2026-04-11T14:53:49.01Z</time></trkpt><trkpt lat="44.00778937571706" lon="11.229542384032667"><ele>315.0</ele><time>2026-04-11T14:53:50.013Z</time></trkpt><trkpt lat="44.00797585715941" lon="11.229713361876186"><ele>315.0</ele><time>2026-04-11T14:53:51.013Z</time></trkpt><trkpt lat="44.00816714129741" lon="11.229858227583229"><ele>310.5</ele><time>2026-04-11T14:53:52.015Z</time></trkpt><trkpt lat="44.008506872553774" lon="11.230171540078683"><ele>306.0</ele><time>2026-04-11T14:53:52.998Z</time></trkpt><trkpt lat="44.00869545137159" lon="11.230347026020786"><ele>306.0</ele><time>2026-04-11T14:53:53.998Z</time></trkpt><trkpt lat="44.00888478831522" lon="11.23054563344144"><ele>306.0</ele><time>2026-04-11T14:53:54.998Z</time></trkpt><trkpt lat="44.00906231501595" lon="11.230679426276692"><ele>306.0</ele><time>2026-04-11T14:53:55.998Z</time></trkpt><trkpt lat="44.00926075591009" lon="11.230768242473975"><ele>298.3333333333333</ele><time>2026-04-11T14:53:56.998Z</time></trkpt><trkpt lat="44.00946374483245" lon="11.23084860901348"><ele>290.66666666666663</ele><time>2026-04-11T14:53:57.998Z</time></trkpt><trkpt lat="44.009644402149185" lon="11.230886148878087"><ele>283.0</ele><time>2026-04-11T14:53:58.998Z</time></trkpt><trkpt lat="44.0098464877254" lon="11.230892214691027"><ele>284.0</ele><time>2026-04-11T14:53:59.998Z</time></trkpt><trkpt lat="44.01004862869257" lon="11.230864964381936"><ele>285.0</ele><time>2026-04-11T14:54:00.998Z</time></trkpt><trkpt lat="44.01021739645653" lon="11.230802183935735"><ele>286.0</ele><time>2026-04-11T14:54:01.998Z</time></trkpt><trkpt lat="44.010381135502435" lon="11.23070983893375"><ele>288.66666666666663</ele><time>2026-04-11T14:54:02.998Z</time></trkpt><trkpt lat="44.0105433566758" lon="11.230597142390511"><ele>291.3333333333333</ele><time>2026-04-11T14:54:03.998Z</time></trkpt><trkpt lat="44.01069471389972" lon="11.23046256493284"><ele>294.0</ele><time>2026-04-11T14:54:04.998Z</time></trkpt><trkpt lat="44.01084539690929" lon="11.230347069938114"><ele>294.0</ele><time>2026-04-11T14:54:05.998Z</time></trkpt><trkpt lat="44.01096301644567" lon="11.230198331389197"><ele>294.0</ele><time>2026-04-11T14:54:06.998Z</time></trkpt><trkpt lat="44.01109815568834" lon="11.230075104067232"><ele>294.0</ele><time>2026-04-11T14:54:07.998Z</time></trkpt><trkpt lat="44.01123272792412" lon="11.229963970421121"><ele>294.0</ele><time>2026-04-11T14:54:08.998Z</time></trkpt><trkpt lat="44.01138606523216" lon="11.229866380064072"><ele>294.0</ele><time>2026-04-11T14:54:09.998Z</time></trkpt><trkpt lat="44.01154540409393" lon="11.22982246887435"><ele>294.0</ele><time>2026-04-11T14:54:10.998Z</time></trkpt><trkpt lat="44.01168900875934" lon="11.22978778927754"><ele>292.6666666666667</ele><time>2026-04-11T14:54:11.998Z</time></trkpt><trkpt lat="44.011835486751174" lon="11.229767324183024"><ele>291.33333333333337</ele><time>2026-04-11T14:54:12.998Z</time></trkpt><trkpt lat="44.011987318424865" lon="11.229761728667288"><ele>290.0</ele><time>2026-04-11T14:54:13.998Z</time></trkpt><trkpt lat="44.01213945901736" lon="11.229784885532817"><ele>290.0</ele><time>2026-04-11T14:54:14.998Z</time></trkpt><trkpt lat="44.01229244626117" lon="11.229804805751286"><ele>290.0</ele><time>2026-04-11T14:54:15.998Z</time></trkpt><trkpt lat="44.0124307216051" lon="11.229863405553758"><ele>290.0</ele><time>2026-04-11T14:54:16.998Z</time></trkpt><trkpt lat="44.012557410543394" lon="11.22992113201653"><ele>290.0</ele><time>2026-04-11T14:54:17.998Z</time></trkpt><trkpt lat="44.012688221918445" lon="11.229967547871953"><ele>289.8</ele><time>2026-04-11T14:54:18.998Z</time></trkpt><trkpt lat="44.01281469637177" lon="11.230011159287645"><ele>289.6</ele><time>2026-04-11T14:54:19.998Z</time></trkpt><trkpt lat="44.012918702235496" lon="11.230048921369628"><ele>289.4</ele><time>2026-04-11T14:54:20.998Z</time></trkpt><trkpt lat="44.01298138017124" lon="11.230076460061534"><ele>289.2</ele><time>2026-04-11T14:54:21.998Z</time></trkpt><trkpt lat="44.01310151381865" lon="11.23014206255598"><ele>289.0</ele><time>2026-04-11T14:54:23.998Z</time></trkpt><trkpt lat="44.013169178038396" lon="11.230210543385871"><ele>289.0</ele><time>2026-04-11T14:54:24.998Z</time></trkpt><trkpt lat="44.013221765464486" lon="11.230290317891352"><ele>289.0</ele><time>2026-04-11T14:54:25.998Z</time></trkpt><trkpt lat="44.01328180687088" lon="11.230364393337124"><ele>289.0</ele><time>2026-04-11T14:54:26.998Z</time></trkpt><trkpt lat="44.013322778081154" lon="11.230446951082003"><ele>289.0</ele><time>2026-04-11T14:54:27.998Z</time></trkpt><trkpt lat="44.01333527589225" lon="11.230582811228098"><ele>289.0</ele><time>2026-04-11T14:54:29.998Z</time></trkpt><trkpt lat="44.01337711550734" lon="11.230666165777688"><ele>289.0</ele><time>2026-04-11T14:54:32.998Z</time></trkpt><trkpt lat="44.013425118488165" lon="11.230577873363307"><ele>290.0</ele><time>2026-04-11T14:54:34.998Z</time></trkpt><trkpt lat="44.01349570421573" lon="11.230462889220098"><ele>291.0</ele><time>2026-04-11T14:54:36.998Z</time></trkpt><trkpt lat="44.013553547126904" lon="11.230416999814391"><ele>292.0</ele><time>2026-04-11T14:54:37.998Z</time></trkpt><trkpt lat="44.013615438382985" lon="11.230384130261424"><ele>293.0</ele><time>2026-04-11T14:54:38.998Z</time></trkpt><trkpt lat="44.013711953201856" lon="11.230377197766206"><ele>294.0</ele><time>2026-04-11T14:54:40.998Z</time></trkpt><trkpt lat="44.01378892801046" lon="11.23039870321507"><ele>295.0</ele><time>2026-04-11T14:54:42.998Z</time></trkpt><trkpt lat="44.01391982824748" lon="11.23044723012263"><ele>295.0</ele><time>2026-04-11T14:54:44.998Z</time></trkpt><trkpt lat="44.01400159579393" lon="11.230462915966879"><ele>295.0</ele><time>2026-04-11T14:54:45.998Z</time></trkpt><trkpt lat="44.014099470063975" lon="11.230481766677906"><ele>295.0</ele><time>2026-04-11T14:54:46.998Z</time></trkpt><trkpt lat="44.014213752437726" lon="11.230505292365628"><ele>295.0</ele><time>2026-04-11T14:54:47.998Z</time></trkpt><trkpt lat="44.01434224424622" lon="11.230526728842198"><ele>295.0</ele><time>2026-04-11T14:54:48.998Z</time></trkpt><trkpt lat="44.01448689118039" lon="11.230545185483331"><ele>296.66666666666663</ele><time>2026-04-11T14:54:49.998Z</time></trkpt><trkpt lat="44.014643687045" lon="11.230550580730288"><ele>298.3333333333333</ele><time>2026-04-11T14:54:50.998Z</time></trkpt><trkpt lat="44.01480961948364" lon="11.230525983327047"><ele>300.0</ele><time>2026-04-11T14:54:51.998Z</time></trkpt><trkpt lat="44.014978681713615" lon="11.23048169959343"><ele>299.0</ele><time>2026-04-11T14:54:52.998Z</time></trkpt><trkpt lat="44.01514271396378" lon="11.230431023587506"><ele>298.0</ele><time>2026-04-11T14:54:53.998Z</time></trkpt><trkpt lat="44.01528198331002" lon="11.230368691269305"><ele>297.0</ele><time>2026-04-11T14:54:54.998Z</time></trkpt><trkpt lat="44.01541215442054" lon="11.230295693949715"><ele>297.0</ele><time>2026-04-11T14:54:55.998Z</time></trkpt><trkpt lat="44.01553384733043" lon="11.230238819282336"><ele>297.0</ele><time>2026-04-11T14:54:56.998Z</time></trkpt><trkpt lat="44.01564916985783" lon="11.230226607089811"><ele>297.0</ele><time>2026-04-11T14:54:57.999Z</time></trkpt><trkpt lat="44.015769790769276" lon="11.23026551796665"><ele>297.0</ele><time>2026-04-11T14:54:58.999Z</time></trkpt><trkpt lat="44.015879264112435" lon="11.23035813096868"><ele>296.5</ele><time>2026-04-11T14:54:59.999Z</time></trkpt><trkpt lat="44.015966859805125" lon="11.230503407145099"><ele>296.0</ele><time>2026-04-11T14:55:00.999Z</time></trkpt><trkpt lat="44.016043123476976" lon="11.230670311873961"><ele>295.5</ele><time>2026-04-11T14:55:01.999Z</time></trkpt><trkpt lat="44.01612397668591" lon="11.230823574093947"><ele>295.0</ele><time>2026-04-11T14:55:02.999Z</time></trkpt><trkpt lat="44.01621269957274" lon="11.230982136061703"><ele>293.75</ele><time>2026-04-11T14:55:03.999Z</time></trkpt><trkpt lat="44.016310337892" lon="11.231152839708589"><ele>292.5</ele><time>2026-04-11T14:55:04.999Z</time></trkpt><trkpt lat="44.01640398988355" lon="11.231307242030043"><ele>291.25</ele><time>2026-04-11T14:55:05.999Z</time></trkpt><trkpt lat="44.01647870838835" lon="11.231453150456739"><ele>290.0</ele><time>2026-04-11T14:55:06.999Z</time></trkpt><trkpt lat="44.01651965524988" lon="11.231602659630171"><ele>289.8</ele><time>2026-04-11T14:55:07.999Z</time></trkpt><trkpt lat="44.016548169891564" lon="11.231725241757356"><ele>289.6</ele><time>2026-04-11T14:55:08.999Z</time></trkpt><trkpt lat="44.01660137920004" lon="11.231819690169521"><ele>289.4</ele><time>2026-04-11T14:55:09.999Z</time></trkpt><trkpt lat="44.0166581947883" lon="11.231966381658854"><ele>289.2</ele><time>2026-04-11T14:55:10.999Z</time></trkpt><trkpt lat="44.01672850287608" lon="11.23214637441864"><ele>289.0</ele><time>2026-04-11T14:55:11.999Z</time></trkpt><trkpt lat="44.01679805154122" lon="11.232349584436074"><ele>289.75</ele><time>2026-04-11T14:55:12.999Z</time></trkpt><trkpt lat="44.01686518982782" lon="11.232512088955975"><ele>290.5</ele><time>2026-04-11T14:55:13.999Z</time></trkpt><trkpt lat="44.01692451600054" lon="11.232667880102989"><ele>291.25</ele><time>2026-04-11T14:55:14.999Z</time></trkpt><trkpt lat="44.01697935749155" lon="11.232811799280407"><ele>292.0</ele><time>2026-04-11T14:55:15.999Z</time></trkpt><trkpt lat="44.01702786947046" lon="11.232947665403556"><ele>292.0</ele><time>2026-04-11T14:55:16.999Z</time></trkpt><trkpt lat="44.017070693626884" lon="11.233070204698016"><ele>292.0</ele><time>2026-04-11T14:55:17.999Z</time></trkpt><trkpt lat="44.0171095181121" lon="11.233178057607855"><ele>292.0</ele><time>2026-04-11T14:55:18.999Z</time></trkpt><trkpt lat="44.01711754867214" lon="11.233273210669296"><ele>292.0</ele><time>2026-04-11T14:55:19.999Z</time></trkpt><trkpt lat="44.01712709869881" lon="11.233367851372744"><ele>292.0</ele><time>2026-04-11T14:55:21.999Z</time></trkpt><trkpt lat="44.01724319676852" lon="11.233371664162133"><ele>292.0</ele><time>2026-04-11T14:55:22.999Z</time></trkpt><trkpt lat="44.01732006838577" lon="11.233367686593446"><ele>291.8</ele><time>2026-04-11T14:55:23.999Z</time></trkpt><trkpt lat="44.017412416366334" lon="11.233386711495154"><ele>291.6</ele><time>2026-04-11T14:55:24.999Z</time></trkpt><trkpt lat="44.017490411472124" lon="11.23342889745742"><ele>291.40000000000003</ele><time>2026-04-11T14:55:25.999Z</time></trkpt><trkpt lat="44.017599785199344" lon="11.233474758095007"><ele>291.2</ele><time>2026-04-11T14:55:26.999Z</time></trkpt><trkpt lat="44.01772741715213" lon="11.233533769571888"><ele>291.0</ele><time>2026-04-11T14:55:27.999Z</time></trkpt><trkpt lat="44.01786613459446" lon="11.233596572364274"><ele>291.0</ele><time>2026-04-11T14:55:28.999Z</time></trkpt><trkpt lat="44.0179850028082" lon="11.233648853295508"><ele>291.0</ele><time>2026-04-11T14:55:29.999Z</time></trkpt><trkpt lat="44.01811202291272" lon="11.233697148547833"><ele>291.0</ele><time>2026-04-11T14:55:30.999Z</time></trkpt><trkpt lat="44.0182390233004" lon="11.233730282057454"><ele>291.0</ele><time>2026-04-11T14:55:31.999Z</time></trkpt><trkpt lat="44.01835248907424" lon="11.233749711683407"><ele>290.75</ele><time>2026-04-11T14:55:32.999Z</time></trkpt><trkpt lat="44.018481191335674" lon="11.233762574916403"><ele>290.5</ele><time>2026-04-11T14:55:33.999Z</time></trkpt><trkpt lat="44.01862527458208" lon="11.233751718515135"><ele>290.25</ele><time>2026-04-11T14:55:34.999Z</time></trkpt><trkpt lat="44.01877995227602" lon="11.23375501233108"><ele>290.0</ele><time>2026-04-11T14:55:35.999Z</time></trkpt><trkpt lat="44.018942534226916" lon="11.23371539620891"><ele>290.0</ele><time>2026-04-11T14:55:36.999Z</time></trkpt><trkpt lat="44.01912075414323" lon="11.233705010625936"><ele>290.0</ele><time>2026-04-11T14:55:37.999Z</time></trkpt><trkpt lat="44.01931455174964" lon="11.233700798400358"><ele>290.0</ele><time>2026-04-11T14:55:38.999Z</time></trkpt><trkpt lat="44.019527638299394" lon="11.233728146861257"><ele>290.6666666666667</ele><time>2026-04-11T14:55:39.999Z</time></trkpt><trkpt lat="44.01971386818785" lon="11.233756052521576"><ele>291.3333333333333</ele><time>2026-04-11T14:55:40.999Z</time></trkpt><trkpt lat="44.0198986398669" lon="11.233803979997509"><ele>292.0</ele><time>2026-04-11T14:55:41.999Z</time></trkpt><trkpt lat="44.020085356896985" lon="11.233837448258386"><ele>293.0</ele><time>2026-04-11T14:55:42.999Z</time></trkpt><trkpt lat="44.020256724932736" lon="11.233855755731764"><ele>294.0</ele><time>2026-04-11T14:55:43.999Z</time></trkpt><trkpt lat="44.020428703202484" lon="11.233875368184394"><ele>295.0</ele><time>2026-04-11T14:55:44.999Z</time></trkpt><trkpt lat="44.02061405428422" lon="11.233882874973089"><ele>295.0</ele><time>2026-04-11T14:55:45.999Z</time></trkpt><trkpt lat="44.02080698390161" lon="11.23386710134659"><ele>295.0</ele><time>2026-04-11T14:55:46.999Z</time></trkpt><trkpt lat="44.02100600551412" lon="11.23387059763192"><ele>295.0</ele><time>2026-04-11T14:55:47.999Z</time></trkpt><trkpt lat="44.02122331711658" lon="11.233924234227906"><ele>295.0</ele><time>2026-04-11T14:55:48.999Z</time></trkpt><trkpt lat="44.02141354241536" lon="11.233967975227971"><ele>295.0</ele><time>2026-04-11T14:55:49.999Z</time></trkpt><trkpt lat="44.021582548401476" lon="11.2340105314172"><ele>295.0</ele><time>2026-04-11T14:55:50.999Z</time></trkpt><trkpt lat="44.02174312582634" lon="11.234054338860055"><ele>295.5</ele><time>2026-04-11T14:55:51.999Z</time></trkpt><trkpt lat="44.02188292948237" lon="11.234095525919836"><ele>296.0</ele><time>2026-04-11T14:55:52.999Z</time></trkpt><trkpt lat="44.021994712916474" lon="11.234137497565124"><ele>296.5</ele><time>2026-04-11T14:55:53.999Z</time></trkpt><trkpt lat="44.02208874579671" lon="11.234208173711082"><ele>297.0</ele><time>2026-04-11T14:55:54.999Z</time></trkpt><trkpt lat="44.0221995991933" lon="11.23432894936918"><ele>297.0</ele><time>2026-04-11T14:55:55.999Z</time></trkpt><trkpt lat="44.022319667521636" lon="11.23446064726485"><ele>297.0</ele><time>2026-04-11T14:55:56.999Z</time></trkpt><trkpt lat="44.02246430656" lon="11.234604673677758"><ele>297.0</ele><time>2026-04-11T14:55:57.999Z</time></trkpt><trkpt lat="44.02261359633047" lon="11.234736886942635"><ele>297.3333333333333</ele><time>2026-04-11T14:55:58.999Z</time></trkpt><trkpt lat="44.0227680530619" lon="11.234850252724035"><ele>297.66666666666663</ele><time>2026-04-11T14:55:59.999Z</time></trkpt><trkpt lat="44.02291126873704" lon="11.23494099433321"><ele>298.0</ele><time>2026-04-11T14:56:00.999Z</time></trkpt><trkpt lat="44.02305134371896" lon="11.235011156913382"><ele>298.0</ele><time>2026-04-11T14:56:01.999Z</time></trkpt><trkpt lat="44.02320865615002" lon="11.235078682464435"><ele>298.0</ele><time>2026-04-11T14:56:02.999Z</time></trkpt><trkpt lat="44.023370678262864" lon="11.235135465899814"><ele>298.0</ele><time>2026-04-11T14:56:03.999Z</time></trkpt><trkpt lat="44.02354796837613" lon="11.235194419107385"><ele>298.3333333333333</ele><time>2026-04-11T14:56:04.999Z</time></trkpt><trkpt lat="44.023717545149395" lon="11.23523313281043"><ele>298.6666666666667</ele><time>2026-04-11T14:56:05.999Z</time></trkpt><trkpt lat="44.023888166854526" lon="11.23526573975823"><ele>299.0</ele><time>2026-04-11T14:56:06.999Z</time></trkpt><trkpt lat="44.02407323778488" lon="11.235305516074842"><ele>300.33333333333337</ele><time>2026-04-11T14:56:07.999Z</time></trkpt><trkpt lat="44.02426216606305" lon="11.235347825510326"><ele>301.6666666666667</ele><time>2026-04-11T14:56:08.999Z</time></trkpt><trkpt lat="44.02445978027815" lon="11.235388092541337"><ele>303.0</ele><time>2026-04-11T14:56:09.999Z</time></trkpt><trkpt lat="44.02464250019118" lon="11.235432672458385"><ele>303.0</ele><time>2026-04-11T14:56:10.999Z</time></trkpt><trkpt lat="44.02480743664146" lon="11.235473307988721"><ele>303.0</ele><time>2026-04-11T14:56:11.999Z</time></trkpt><trkpt lat="44.02497783399506" lon="11.23552968940938"><ele>303.0</ele><time>2026-04-11T14:56:12.999Z</time></trkpt><trkpt lat="44.02515109015409" lon="11.235619408872699"><ele>302.6666666666667</ele><time>2026-04-11T14:56:13.999Z</time></trkpt><trkpt lat="44.025319516876706" lon="11.235715944062019"><ele>302.33333333333337</ele><time>2026-04-11T14:56:14.999Z</time></trkpt><trkpt lat="44.02546322725717" lon="11.235799248263008"><ele>302.0</ele><time>2026-04-11T14:56:15.999Z</time></trkpt><trkpt lat="44.02561018437329" lon="11.235874405212137"><ele>302.0</ele><time>2026-04-11T14:56:16.999Z</time></trkpt><trkpt lat="44.025757835213234" lon="11.235918904436343"><ele>302.0</ele><time>2026-04-11T14:56:17.999Z</time></trkpt><trkpt lat="44.025918713493446" lon="11.2359361069348"><ele>302.0</ele><time>2026-04-11T14:56:18.999Z</time></trkpt><trkpt lat="44.02608479451606" lon="11.235935340302147"><ele>305.25</ele><time>2026-04-11T14:56:19.999Z</time></trkpt><trkpt lat="44.02623608660005" lon="11.235932592109151"><ele>308.5</ele><time>2026-04-11T14:56:20.999Z</time></trkpt><trkpt lat="44.026375251769004" lon="11.235986061824097"><ele>311.75</ele><time>2026-04-11T14:56:21.999Z</time></trkpt><trkpt lat="44.02650021027879" lon="11.236016745798299"><ele>315.0</ele><time>2026-04-11T14:56:22.999Z</time></trkpt><trkpt lat="44.02663142191298" lon="11.23609687556373"><ele>318.75</ele><time>2026-04-11T14:56:23.999Z</time></trkpt><trkpt lat="44.026753510040976" lon="11.236197339456387"><ele>322.5</ele><time>2026-04-11T14:56:24.999Z</time></trkpt><trkpt lat="44.02688012013166" lon="11.236316861190073"><ele>326.25</ele><time>2026-04-11T14:56:25.999Z</time></trkpt><trkpt lat="44.026986199416434" lon="11.236400045391225"><ele>330.0</ele><time>2026-04-11T14:56:26.999Z</time></trkpt><trkpt lat="44.0271132055659" lon="11.23644582619498"><ele>328.0</ele><time>2026-04-11T14:56:27.999Z</time></trkpt><trkpt lat="44.02724554906552" lon="11.236480033565632"><ele>326.0</ele><time>2026-04-11T14:56:28.999Z</time></trkpt><trkpt lat="44.027390724538584" lon="11.23650452038179"><ele>324.0</ele><time>2026-04-11T14:56:29.999Z</time></trkpt><trkpt lat="44.02753939124331" lon="11.236539437539584"><ele>322.0</ele><time>2026-04-11T14:56:30.999Z</time></trkpt><trkpt lat="44.02766987189187" lon="11.236557745822228"><ele>322.0</ele><time>2026-04-11T14:56:31.999Z</time></trkpt><trkpt lat="44.027777821640115" lon="11.236597368755458"><ele>322.0</ele><time>2026-04-11T14:56:32.999Z</time></trkpt><trkpt lat="44.02788155899413" lon="11.236671563862695"><ele>322.0</ele><time>2026-04-11T14:56:33.999Z</time></trkpt><trkpt lat="44.02800352752153" lon="11.236767484797154"><ele>322.0</ele><time>2026-04-11T14:56:34.999Z</time></trkpt><trkpt lat="44.02811258113094" lon="11.236870036502411"><ele>322.0</ele><time>2026-04-11T14:56:35.999Z</time></trkpt><trkpt lat="44.028207510974276" lon="11.236989305944649"><ele>322.0</ele><time>2026-04-11T14:56:36.999Z</time></trkpt><trkpt lat="44.0282957166815" lon="11.237119136632344"><ele>322.0</ele><time>2026-04-11T14:56:37.999Z</time></trkpt><trkpt lat="44.0283939685268" lon="11.237240134943692"><ele>322.0</ele><time>2026-04-11T14:56:38.999Z</time></trkpt><trkpt lat="44.028498831752" lon="11.237342163252237"><ele>321.5</ele><time>2026-04-11T14:56:39.999Z</time></trkpt><trkpt lat="44.02860570740943" lon="11.23742881461898"><ele>321.0</ele><time>2026-04-11T14:56:40.999Z</time></trkpt><trkpt lat="44.028731321038656" lon="11.23752230820114"><ele>320.5</ele><time>2026-04-11T14:56:41.999Z</time></trkpt><trkpt lat="44.028867283005184" lon="11.237611229784422"><ele>320.0</ele><time>2026-04-11T14:56:42.999Z</time></trkpt><trkpt lat="44.02901142732461" lon="11.237694905118328"><ele>321.25</ele><time>2026-04-11T14:56:43.999Z</time></trkpt><trkpt lat="44.029146865781904" lon="11.237782076340858"><ele>322.5</ele><time>2026-04-11T14:56:44.999Z</time></trkpt><trkpt lat="44.029275331762605" lon="11.237856973585338"><ele>323.75</ele><time>2026-04-11T14:56:45.999Z</time></trkpt><trkpt lat="44.029393609662634" lon="11.237920957034108"><ele>325.0</ele><time>2026-04-11T14:56:46.999Z</time></trkpt><trkpt lat="44.02949978028001" lon="11.237992505470164"><ele>325.0</ele><time>2026-04-11T14:56:47.999Z</time></trkpt><trkpt lat="44.02958067988171" lon="11.238027348502499"><ele>325.0</ele><time>2026-04-11T14:56:48.999Z</time></trkpt><trkpt lat="44.029648657277576" lon="11.23810571560928"><ele>325.0</ele><time>2026-04-11T14:56:49.999Z</time></trkpt><trkpt lat="44.029776967657355" lon="11.238177621942267"><ele>325.0</ele><time>2026-04-11T14:56:50.999Z</time></trkpt><trkpt lat="44.02989127434853" lon="11.238298126014723"><ele>322.4</ele><time>2026-04-11T14:56:51.999Z</time></trkpt><trkpt lat="44.02999041673175" lon="11.238411378059263"><ele>319.8</ele><time>2026-04-11T14:56:52.999Z</time></trkpt><trkpt lat="44.03008454234649" lon="11.238500506744478"><ele>317.2</ele><time>2026-04-11T14:56:53.999Z</time></trkpt><trkpt lat="44.03016339460799" lon="11.238578784108775"><ele>314.6</ele><time>2026-04-11T14:56:54.999Z</time></trkpt><trkpt lat="44.03024860351564" lon="11.238667974297499"><ele>312.0</ele><time>2026-04-11T14:56:55.999Z</time></trkpt><trkpt lat="44.030332109995285" lon="11.238754458133808"><ele>312.0</ele><time>2026-04-11T14:56:56.999Z</time></trkpt><trkpt lat="44.03040198239992" lon="11.238816617061149"><ele>312.0</ele><time>2026-04-11T14:56:57.999Z</time></trkpt><trkpt lat="44.03046483025772" lon="11.238870250304641"><ele>312.0</ele><time>2026-04-11T14:56:58.999Z</time></trkpt><trkpt lat="44.03054680039757" lon="11.238835326646463"><ele>312.0</ele><time>2026-04-11T14:57:00.999Z</time></trkpt><trkpt lat="44.03062854006458" lon="11.238725617317652"><ele>312.0</ele><time>2026-04-11T14:57:02.999Z</time></trkpt><trkpt lat="44.03069311846245" lon="11.238646033898751"><ele>312.0</ele><time>2026-04-11T14:57:03.999Z</time></trkpt><trkpt lat="44.03076460015049" lon="11.2385628904594"><ele>312.4</ele><time>2026-04-11T14:57:04.999Z</time></trkpt><trkpt lat="44.03083661618483" lon="11.238454643457997"><ele>312.79999999999995</ele><time>2026-04-11T14:57:05.999Z</time></trkpt><trkpt lat="44.030897603984656" lon="11.238328287726398"><ele>313.2</ele><time>2026-04-11T14:57:06.999Z</time></trkpt><trkpt lat="44.03096020194901" lon="11.238221238543103"><ele>313.59999999999997</ele><time>2026-04-11T14:57:07.999Z</time></trkpt><trkpt lat="44.03103588454907" lon="11.238144889461543"><ele>314.0</ele><time>2026-04-11T14:57:08.999Z</time></trkpt><trkpt lat="44.03112285429477" lon="11.238121790769597"><ele>314.0</ele><time>2026-04-11T14:57:09.999Z</time></trkpt><trkpt lat="44.03122212877963" lon="11.238148918679366"><ele>314.0</ele><time>2026-04-11T14:57:10.999Z</time></trkpt><trkpt lat="44.03129706906516" lon="11.238207348427919"><ele>314.0</ele><time>2026-04-11T14:57:11.999Z</time></trkpt><trkpt lat="44.031362459906575" lon="11.2382994748114"><ele>314.0</ele><time>2026-04-11T14:57:13Z</time></trkpt><trkpt lat="44.03139766540292" lon="11.23840311555071"><ele>314.0</ele><time>2026-04-11T14:57:14Z</time></trkpt><trkpt lat="44.03140309937104" lon="11.238516464649745"><ele>314.0</ele><time>2026-04-11T14:57:15Z</time></trkpt><trkpt lat="44.031397645446006" lon="11.238644288970459"><ele>314.0</ele><time>2026-04-11T14:57:16Z</time></trkpt><trkpt lat="44.03137287379397" lon="11.238780164633837"><ele>314.0</ele><time>2026-04-11T14:57:17Z</time></trkpt><trkpt lat="44.03133029454235" lon="11.23891129458066"><ele>314.0</ele><time>2026-04-11T14:57:18Z</time></trkpt><trkpt lat="44.03126386638615" lon="11.239036000936869"><ele>314.0</ele><time>2026-04-11T14:57:19Z</time></trkpt><trkpt lat="44.03120239211998" lon="11.239176353700588"><ele>314.0</ele><time>2026-04-11T14:57:20Z</time></trkpt><trkpt lat="44.0311885620581" lon="11.23933985514686"><ele>316.0</ele><time>2026-04-11T14:57:21Z</time></trkpt><trkpt lat="44.031215761003374" lon="11.239505837004659"><ele>318.0</ele><time>2026-04-11T14:57:22Z</time></trkpt><trkpt lat="44.031280925585854" lon="11.239672680410065"><ele>320.0</ele><time>2026-04-11T14:57:23Z</time></trkpt><trkpt lat="44.03136066756422" lon="11.239845215469892"><ele>322.0</ele><time>2026-04-11T14:57:24Z</time></trkpt><trkpt lat="44.03144449314053" lon="11.240021614120469"><ele>322.75</ele><time>2026-04-11T14:57:25Z</time></trkpt><trkpt lat="44.031518675092336" lon="11.240200174602787"><ele>323.5</ele><time>2026-04-11T14:57:26Z</time></trkpt><trkpt lat="44.031583049402386" lon="11.240348312384778"><ele>324.25</ele><time>2026-04-11T14:57:27Z</time></trkpt><trkpt lat="44.03165337962573" lon="11.240464770234967"><ele>325.0</ele><time>2026-04-11T14:57:28Z</time></trkpt><trkpt lat="44.03175221268815" lon="11.240535370843528"><ele>330.5</ele><time>2026-04-11T14:57:29Z</time></trkpt><trkpt lat="44.03187843992456" lon="11.240559050558023"><ele>336.0</ele><time>2026-04-11T14:57:30Z</time></trkpt><trkpt lat="44.03201022491604" lon="11.240540573458757"><ele>341.5</ele><time>2026-04-11T14:57:31Z</time></trkpt><trkpt lat="44.032142750191014" lon="11.240502699715297"><ele>347.0</ele><time>2026-04-11T14:57:32Z</time></trkpt><trkpt lat="44.03228824718393" lon="11.240468566848714"><ele>347.0</ele><time>2026-04-11T14:57:33Z</time></trkpt><trkpt lat="44.03243873525984" lon="11.240474797052727"><ele>347.0</ele><time>2026-04-11T14:57:34Z</time></trkpt><trkpt lat="44.03259884658949" lon="11.24051199846177"><ele>347.0</ele><time>2026-04-11T14:57:35Z</time></trkpt><trkpt lat="44.03275080275" lon="11.240586141808508"><ele>348.33333333333337</ele><time>2026-04-11T14:57:36Z</time></trkpt><trkpt lat="44.03289856252035" lon="11.240688492871346"><ele>349.6666666666667</ele><time>2026-04-11T14:57:37Z</time></trkpt><trkpt lat="44.033040694900826" lon="11.24078623191849"><ele>351.0</ele><time>2026-04-11T14:57:38Z</time></trkpt><trkpt lat="44.03319983662652" lon="11.240865828132344"><ele>356.3333333333333</ele><time>2026-04-11T14:57:39Z</time></trkpt><trkpt lat="44.033353876753935" lon="11.240913219651128"><ele>361.66666666666663</ele><time>2026-04-11T14:57:40Z</time></trkpt><trkpt lat="44.03352990055392" lon="11.240951312621437"><ele>367.0</ele><time>2026-04-11T14:57:41Z</time></trkpt><trkpt lat="44.033703427941596" lon="11.24098830606858"><ele>367.0</ele><time>2026-04-11T14:57:42Z</time></trkpt><trkpt lat="44.03387702264489" lon="11.241026853272002"><ele>367.0</ele><time>2026-04-11T14:57:43Z</time></trkpt><trkpt lat="44.034069865087275" lon="11.241055475198907"><ele>367.0</ele><time>2026-04-11T14:57:44Z</time></trkpt><trkpt lat="44.03425335900077" lon="11.241062089609798"><ele>371.0</ele><time>2026-04-11T14:57:45Z</time></trkpt><trkpt lat="44.03444129713049" lon="11.241061493904722"><ele>375.0</ele><time>2026-04-11T14:57:46Z</time></trkpt><trkpt lat="44.034606270385844" lon="11.241049678730766"><ele>379.0</ele><time>2026-04-11T14:57:47Z</time></trkpt><trkpt lat="44.03475835075193" lon="11.24102037239012"><ele>379.0</ele><time>2026-04-11T14:57:48Z</time></trkpt><trkpt lat="44.034886645913495" lon="11.240985300281515"><ele>379.0</ele><time>2026-04-11T14:57:49Z</time></trkpt><trkpt lat="44.035008395648795" lon="11.240901806582484"><ele>379.0</ele><time>2026-04-11T14:57:50Z</time></trkpt><trkpt lat="44.03510868349876" lon="11.24080089713415"><ele>379.0</ele><time>2026-04-11T14:57:51Z</time></trkpt><trkpt lat="44.03523774068604" lon="11.240760243086969"><ele>377.75</ele><time>2026-04-11T14:57:52Z</time></trkpt><trkpt lat="44.035377076136854" lon="11.240766283606103"><ele>376.5</ele><time>2026-04-11T14:57:53Z</time></trkpt><trkpt lat="44.03551784392473" lon="11.240776530676907"><ele>375.25</ele><time>2026-04-11T14:57:54Z</time></trkpt><trkpt lat="44.03565126879378" lon="11.240832153653335"><ele>374.0</ele><time>2026-04-11T14:57:55Z</time></trkpt><trkpt lat="44.03576259438491" lon="11.240915456591825"><ele>376.25</ele><time>2026-04-11T14:57:56Z</time></trkpt><trkpt lat="44.03587595719993" lon="11.241082141851027"><ele>378.5</ele><time>2026-04-11T14:57:57Z</time></trkpt><trkpt lat="44.036013397772905" lon="11.241131058253584"><ele>380.75</ele><time>2026-04-11T14:57:58Z</time></trkpt><trkpt lat="44.03613460982011" lon="11.241224002313299"><ele>383.0</ele><time>2026-04-11T14:57:59Z</time></trkpt><trkpt lat="44.03625886314652" lon="11.241302556984536"><ele>383.0</ele><time>2026-04-11T14:58:00Z</time></trkpt><trkpt lat="44.03639174974125" lon="11.24136696833786"><ele>383.0</ele><time>2026-04-11T14:58:01Z</time></trkpt><trkpt lat="44.036536342516385" lon="11.241434107380819"><ele>383.0</ele><time>2026-04-11T14:58:02Z</time></trkpt><trkpt lat="44.03669843280435" lon="11.24144488639871"><ele>384.75</ele><time>2026-04-11T14:58:03Z</time></trkpt><trkpt lat="44.03685023278153" lon="11.24147513538591"><ele>386.5</ele><time>2026-04-11T14:58:04Z</time></trkpt><trkpt lat="44.03698730250076" lon="11.241498677476557"><ele>388.25</ele><time>2026-04-11T14:58:05Z</time></trkpt><trkpt lat="44.03713520796056" lon="11.241533857401492"><ele>390.0</ele><time>2026-04-11T14:58:06Z</time></trkpt><trkpt lat="44.0373011008539" lon="11.241591597780532"><ele>390.0</ele><time>2026-04-11T14:58:07Z</time></trkpt><trkpt lat="44.03746317588549" lon="11.241687186050726"><ele>390.0</ele><time>2026-04-11T14:58:08Z</time></trkpt><trkpt lat="44.03763029475205" lon="11.24181083109157"><ele>390.0</ele><time>2026-04-11T14:58:09Z</time></trkpt><trkpt lat="44.03780062664658" lon="11.241941640527202"><ele>391.33333333333337</ele><time>2026-04-11T14:58:10Z</time></trkpt><trkpt lat="44.037957645250735" lon="11.242061147578834"><ele>392.6666666666667</ele><time>2026-04-11T14:58:11Z</time></trkpt><trkpt lat="44.03811935430868" lon="11.242188262308094"><ele>394.0</ele><time>2026-04-11T14:58:12Z</time></trkpt><trkpt lat="44.038260417989896" lon="11.24229800290721"><ele>396.25</ele><time>2026-04-11T14:58:13Z</time></trkpt><trkpt lat="44.03839163756688" lon="11.242402687991405"><ele>398.5</ele><time>2026-04-11T14:58:14Z</time></trkpt><trkpt lat="44.03850858283269" lon="11.242515369954763"><ele>400.75</ele><time>2026-04-11T14:58:15Z</time></trkpt><trkpt lat="44.038603950823635" lon="11.242652258457664"><ele>403.0</ele><time>2026-04-11T14:58:16Z</time></trkpt><trkpt lat="44.038682515185855" lon="11.242829800578999"><ele>403.0</ele><time>2026-04-11T14:58:17Z</time></trkpt><trkpt lat="44.038735760792754" lon="11.243032545255433"><ele>403.0</ele><time>2026-04-11T14:58:18Z</time></trkpt><trkpt lat="44.03878302950415" lon="11.243257123105012"><ele>403.0</ele><time>2026-04-11T14:58:19Z</time></trkpt><trkpt lat="44.03883718538085" lon="11.24344939610822"><ele>402.0</ele><time>2026-04-11T14:58:20Z</time></trkpt><trkpt lat="44.03891591973718" lon="11.243605989691645"><ele>401.0</ele><time>2026-04-11T14:58:21Z</time></trkpt><trkpt lat="44.03902357755077" lon="11.24374837969912"><ele>400.0</ele><time>2026-04-11T14:58:22Z</time></trkpt><trkpt lat="44.039160622891345" lon="11.243867324214968"><ele>399.0</ele><time>2026-04-11T14:58:23Z</time></trkpt><trkpt lat="44.03931233167783" lon="11.243957319163906"><ele>401.0</ele><time>2026-04-11T14:58:24Z</time></trkpt><trkpt lat="44.03947774249492" lon="11.244006348680422"><ele>403.0</ele><time>2026-04-11T14:58:25Z</time></trkpt><trkpt lat="44.03965770859443" lon="11.24404050629225"><ele>405.0</ele><time>2026-04-11T14:58:26Z</time></trkpt><trkpt lat="44.03982817762896" lon="11.244071924470862"><ele>407.5</ele><time>2026-04-11T14:58:27Z</time></trkpt><trkpt lat="44.03997455083616" lon="11.244093517770484"><ele>410.0</ele><time>2026-04-11T14:58:28Z</time></trkpt><trkpt lat="44.040116346211676" lon="11.244096591387098"><ele>412.5</ele><time>2026-04-11T14:58:29Z</time></trkpt><trkpt lat="44.04025762322339" lon="11.244058936608528"><ele>415.0</ele><time>2026-04-11T14:58:30Z</time></trkpt><trkpt lat="44.040405404496816" lon="11.243971478617059"><ele>419.0</ele><time>2026-04-11T14:58:31Z</time></trkpt><trkpt lat="44.04054487162369" lon="11.243835308112223"><ele>423.0</ele><time>2026-04-11T14:58:32Z</time></trkpt><trkpt lat="44.04067442379649" lon="11.243686039924595"><ele>427.0</ele><time>2026-04-11T14:58:33Z</time></trkpt><trkpt lat="44.04081525067902" lon="11.243554821712742"><ele>427.0</ele><time>2026-04-11T14:58:34Z</time></trkpt><trkpt lat="44.04095166606592" lon="11.243449052594675"><ele>427.0</ele><time>2026-04-11T14:58:35Z</time></trkpt><trkpt lat="44.041076268642584" lon="11.243343985295178"><ele>427.0</ele><time>2026-04-11T14:58:36Z</time></trkpt><trkpt lat="44.04118615953734" lon="11.243216361306159"><ele>427.0</ele><time>2026-04-11T14:58:37Z</time></trkpt><trkpt lat="44.0412740863196" lon="11.243061032856723"><ele>426.5</ele><time>2026-04-11T14:58:38Z</time></trkpt><trkpt lat="44.041337729518" lon="11.24287063641143"><ele>426.0</ele><time>2026-04-11T14:58:39Z</time></trkpt><trkpt lat="44.04137345814544" lon="11.242660736073859"><ele>425.5</ele><time>2026-04-11T14:58:40Z</time></trkpt><trkpt lat="44.041407752160445" lon="11.242472993167857"><ele>425.0</ele><time>2026-04-11T14:58:41Z</time></trkpt><trkpt lat="44.04147338565935" lon="11.24229935196943"><ele>420.0</ele><time>2026-04-11T14:58:42Z</time></trkpt><trkpt lat="44.041589121095335" lon="11.242156990621035"><ele>415.0</ele><time>2026-04-11T14:58:43Z</time></trkpt><trkpt lat="44.04171056147691" lon="11.242026359244054"><ele>410.0</ele><time>2026-04-11T14:58:44Z</time></trkpt><trkpt lat="44.041811943796155" lon="11.241859674756475"><ele>410.0</ele><time>2026-04-11T14:58:45Z</time></trkpt><trkpt lat="44.04188570608616" lon="11.241699777131988"><ele>410.0</ele><time>2026-04-11T14:58:46Z</time></trkpt><trkpt lat="44.04196863220416" lon="11.24155290041416"><ele>410.0</ele><time>2026-04-11T14:58:47Z</time></trkpt><trkpt lat="44.04208531299395" lon="11.241444910902445"><ele>410.0</ele><time>2026-04-11T14:58:48Z</time></trkpt><trkpt lat="44.042209491610144" lon="11.241357444133966"><ele>410.75</ele><time>2026-04-11T14:58:49Z</time></trkpt><trkpt lat="44.04233626842366" lon="11.241330284668347"><ele>411.5</ele><time>2026-04-11T14:58:50Z</time></trkpt><trkpt lat="44.04248198532186" lon="11.241339552117873"><ele>412.25</ele><time>2026-04-11T14:58:51Z</time></trkpt><trkpt lat="44.042622734060345" lon="11.24139985668238"><ele>413.0</ele><time>2026-04-11T14:58:52Z</time></trkpt><trkpt lat="44.042758390627306" lon="11.241502008822444"><ele>415.3333333333333</ele><time>2026-04-11T14:58:53Z</time></trkpt><trkpt lat="44.04289909007815" lon="11.241601871761942"><ele>417.66666666666663</ele><time>2026-04-11T14:58:54Z</time></trkpt><trkpt lat="44.043044909931034" lon="11.2416849373607"><ele>420.0</ele><time>2026-04-11T14:58:55Z</time></trkpt><trkpt lat="44.043201359263286" lon="11.241745107239087"><ele>423.33333333333337</ele><time>2026-04-11T14:58:56Z</time></trkpt><trkpt lat="44.043368754051905" lon="11.241776783872895"><ele>426.6666666666667</ele><time>2026-04-11T14:58:57Z</time></trkpt><trkpt lat="44.04354332000781" lon="11.241778099295002"><ele>430.0</ele><time>2026-04-11T14:58:58Z</time></trkpt><trkpt lat="44.043713637976246" lon="11.241759863365571"><ele>430.0</ele><time>2026-04-11T14:58:59Z</time></trkpt><trkpt lat="44.04385715850917" lon="11.241724858935507"><ele>430.0</ele><time>2026-04-11T14:59:00Z</time></trkpt><trkpt lat="44.043973783448244" lon="11.241656452355448"><ele>430.0</ele><time>2026-04-11T14:59:01Z</time></trkpt><trkpt lat="44.044101975303604" lon="11.241547208781839"><ele>430.0</ele><time>2026-04-11T14:59:02Z</time></trkpt><trkpt lat="44.04421072340795" lon="11.241402655005414"><ele>434.33333333333337</ele><time>2026-04-11T14:59:03Z</time></trkpt><trkpt lat="44.04433498536823" lon="11.241262687816768"><ele>438.66666666666663</ele><time>2026-04-11T14:59:04Z</time></trkpt><trkpt lat="44.044468488656534" lon="11.241113369481031"><ele>443.0</ele><time>2026-04-11T14:59:05Z</time></trkpt><trkpt lat="44.044605095678" lon="11.240970715847325"><ele>443.0</ele><time>2026-04-11T14:59:06Z</time></trkpt><trkpt lat="44.044744437654" lon="11.240823879034497"><ele>443.0</ele><time>2026-04-11T14:59:07Z</time></trkpt><trkpt lat="44.04488990978259" lon="11.240667928874807"><ele>443.0</ele><time>2026-04-11T14:59:08Z</time></trkpt><trkpt lat="44.045044856473126" lon="11.240511976561445"><ele>443.66666666666663</ele><time>2026-04-11T14:59:09Z</time></trkpt><trkpt lat="44.045174127880806" lon="11.240364736012003"><ele>444.33333333333337</ele><time>2026-04-11T14:59:10Z</time></trkpt><trkpt lat="44.045292890198105" lon="11.240228201775157"><ele>445.0</ele><time>2026-04-11T14:59:11Z</time></trkpt><trkpt lat="44.04539307866185" lon="11.240088931881724"><ele>445.0</ele><time>2026-04-11T14:59:12Z</time></trkpt><trkpt lat="44.045492298048906" lon="11.239942963639688"><ele>445.0</ele><time>2026-04-11T14:59:13Z</time></trkpt><trkpt lat="44.04559190385147" lon="11.23983317731614"><ele>445.0</ele><time>2026-04-11T14:59:14Z</time></trkpt><trkpt lat="44.04571636892954" lon="11.239738948046297"><ele>445.0</ele><time>2026-04-11T14:59:15Z</time></trkpt><trkpt lat="44.045855643036454" lon="11.239696083729713"><ele>446.0</ele><time>2026-04-11T14:59:16Z</time></trkpt><trkpt lat="44.04600672895834" lon="11.239683281378676"><ele>447.0</ele><time>2026-04-11T14:59:17Z</time></trkpt><trkpt lat="44.04616476834391" lon="11.239658672509943"><ele>448.0</ele><time>2026-04-11T14:59:18Z</time></trkpt><trkpt lat="44.04632558973165" lon="11.23965277750844"><ele>448.0</ele><time>2026-04-11T14:59:19Z</time></trkpt><trkpt lat="44.04649934249443" lon="11.239604310807088"><ele>448.0</ele><time>2026-04-11T14:59:20Z</time></trkpt><trkpt lat="44.04666651582319" lon="11.2395461393513"><ele>448.0</ele><time>2026-04-11T14:59:21Z</time></trkpt><trkpt lat="44.046848793288284" lon="11.23947891390618"><ele>451.0</ele><time>2026-04-11T14:59:22Z</time></trkpt><trkpt lat="44.047041544303475" lon="11.239411084799835"><ele>454.0</ele><time>2026-04-11T14:59:23Z</time></trkpt><trkpt lat="44.04721686793817" lon="11.239356355342954"><ele>457.0</ele><time>2026-04-11T14:59:24Z</time></trkpt><trkpt lat="44.04737806153183" lon="11.239307682747457"><ele>459.6666666666667</ele><time>2026-04-11T14:59:25Z</time></trkpt><trkpt lat="44.04751572287025" lon="11.239264118431183"><ele>462.33333333333337</ele><time>2026-04-11T14:59:26Z</time></trkpt><trkpt lat="44.047666213554166" lon="11.239205187044837"><ele>465.0</ele><time>2026-04-11T14:59:27Z</time></trkpt><trkpt lat="44.04783176612162" lon="11.239135213669611"><ele>465.0</ele><time>2026-04-11T14:59:28Z</time></trkpt><trkpt lat="44.047986964909484" lon="11.239064797090789"><ele>465.0</ele><time>2026-04-11T14:59:29Z</time></trkpt><trkpt lat="44.048132005961165" lon="11.238960967453089"><ele>465.0</ele><time>2026-04-11T14:59:30Z</time></trkpt><trkpt lat="44.048251310579815" lon="11.238843744688246"><ele>463.5</ele><time>2026-04-11T14:59:31Z</time></trkpt><trkpt lat="44.04836661931833" lon="11.2387368680428"><ele>462.0</ele><time>2026-04-11T14:59:32Z</time></trkpt><trkpt lat="44.048485691319065" lon="11.238678760442891"><ele>460.5</ele><time>2026-04-11T14:59:33Z</time></trkpt><trkpt lat="44.04860446889994" lon="11.238643859170928"><ele>459.0</ele><time>2026-04-11T14:59:34Z</time></trkpt><trkpt lat="44.04872270469297" lon="11.238642799524376"><ele>459.0</ele><time>2026-04-11T14:59:35Z</time></trkpt><trkpt lat="44.048859096718076" lon="11.238682338018823"><ele>459.0</ele><time>2026-04-11T14:59:36Z</time></trkpt><trkpt lat="44.049003673476925" lon="11.238759584196826"><ele>459.0</ele><time>2026-04-11T14:59:37Z</time></trkpt><trkpt lat="44.04915186633058" lon="11.238867055357767"><ele>459.25</ele><time>2026-04-11T14:59:38Z</time></trkpt><trkpt lat="44.04929387441606" lon="11.238966871482782"><ele>459.5</ele><time>2026-04-11T14:59:39Z</time></trkpt><trkpt lat="44.049418412607295" lon="11.239052496504556"><ele>459.75</ele><time>2026-04-11T14:59:40Z</time></trkpt><trkpt lat="44.049524202909666" lon="11.239112505043318"><ele>460.0</ele><time>2026-04-11T14:59:41Z</time></trkpt><trkpt lat="44.04961502694295" lon="11.239139850574684"><ele>460.0</ele><time>2026-04-11T14:59:42Z</time></trkpt><trkpt lat="44.049710672218815" lon="11.23914367851866"><ele>460.0</ele><time>2026-04-11T14:59:43Z</time></trkpt><trkpt lat="44.04982018343815" lon="11.239123288765263"><ele>460.0</ele><time>2026-04-11T14:59:44Z</time></trkpt><trkpt lat="44.04994655874571" lon="11.239113205940935"><ele>460.0</ele><time>2026-04-11T14:59:45Z</time></trkpt><trkpt lat="44.05008609208716" lon="11.23912348197653"><ele>459.33333333333337</ele><time>2026-04-11T14:59:46Z</time></trkpt><trkpt lat="44.05023172472167" lon="11.239130242170868"><ele>458.66666666666663</ele><time>2026-04-11T14:59:47Z</time></trkpt><trkpt lat="44.05038832871892" lon="11.239130335358052"><ele>458.0</ele><time>2026-04-11T14:59:48Z</time></trkpt><trkpt lat="44.05055529169038" lon="11.23913058642223"><ele>458.0</ele><time>2026-04-11T14:59:49Z</time></trkpt><trkpt lat="44.050727143994884" lon="11.23913554794679"><ele>458.0</ele><time>2026-04-11T14:59:50Z</time></trkpt><trkpt lat="44.050903231580264" lon="11.239141777678446"><ele>458.0</ele><time>2026-04-11T14:59:51Z</time></trkpt><trkpt lat="44.05106946188532" lon="11.239148970471895"><ele>458.5</ele><time>2026-04-11T14:59:52Z</time></trkpt><trkpt lat="44.05122643925475" lon="11.239159067426243"><ele>459.0</ele><time>2026-04-11T14:59:53Z</time></trkpt><trkpt lat="44.05136990011721" lon="11.23916648414028"><ele>459.5</ele><time>2026-04-11T14:59:54Z</time></trkpt><trkpt lat="44.051497210484335" lon="11.239164124640274"><ele>460.0</ele><time>2026-04-11T14:59:55Z</time></trkpt><trkpt lat="44.05163373738831" lon="11.239164023194512"><ele>461.5</ele><time>2026-04-11T14:59:56Z</time></trkpt><trkpt lat="44.05176779341" lon="11.239162084532982"><ele>463.0</ele><time>2026-04-11T14:59:57Z</time></trkpt><trkpt lat="44.051918754522454" lon="11.239172279427631"><ele>464.5</ele><time>2026-04-11T14:59:58Z</time></trkpt><trkpt lat="44.052060257112615" lon="11.239174641170266"><ele>466.0</ele><time>2026-04-11T14:59:59Z</time></trkpt><trkpt lat="44.05219154915325" lon="11.239178775374526"><ele>466.0</ele><time>2026-04-11T15:00:00Z</time></trkpt><trkpt lat="44.052334642010486" lon="11.239163310236373"><ele>466.0</ele><time>2026-04-11T15:00:01Z</time></trkpt><trkpt lat="44.0524652007783" lon="11.239141263236826"><ele>466.0</ele><time>2026-04-11T15:00:02Z</time></trkpt><trkpt lat="44.0526109141789" lon="11.239135700041217"><ele>466.0</ele><time>2026-04-11T15:00:03Z</time></trkpt><trkpt lat="44.052750828674334" lon="11.239095735953375"><ele>468.75</ele><time>2026-04-11T15:00:04Z</time></trkpt><trkpt lat="44.052889710205875" lon="11.239041612004968"><ele>471.5</ele><time>2026-04-11T15:00:05Z</time></trkpt><trkpt lat="44.053023848426754" lon="11.239000170681045"><ele>474.25</ele><time>2026-04-11T15:00:06Z</time></trkpt><trkpt lat="44.05316512517735" lon="11.238995475796235"><ele>477.0</ele><time>2026-04-11T15:00:07Z</time></trkpt><trkpt lat="44.053321687434604" lon="11.239012859614624"><ele>477.33333333333337</ele><time>2026-04-11T15:00:08Z</time></trkpt><trkpt lat="44.05346859830823" lon="11.239027239506878"><ele>477.6666666666667</ele><time>2026-04-11T15:00:09Z</time></trkpt><trkpt lat="44.0536205980673" lon="11.239029758482415"><ele>478.0</ele><time>2026-04-11T15:00:10Z</time></trkpt><trkpt lat="44.053774959909376" lon="11.239009207861747"><ele>478.0</ele><time>2026-04-11T15:00:11Z</time></trkpt><trkpt lat="44.05391615584031" lon="11.238977060758314"><ele>478.0</ele><time>2026-04-11T15:00:12Z</time></trkpt><trkpt lat="44.05405431256139" lon="11.238929635909521"><ele>478.0</ele><time>2026-04-11T15:00:13Z</time></trkpt><trkpt lat="44.054181670062924" lon="11.238887816988468"><ele>478.0</ele><time>2026-04-11T15:00:14Z</time></trkpt><trkpt lat="44.054306264014194" lon="11.238794990924399"><ele>483.6666666666667</ele><time>2026-04-11T15:00:15Z</time></trkpt><trkpt lat="44.054426624623304" lon="11.238671097171766"><ele>489.33333333333337</ele><time>2026-04-11T15:00:16Z</time></trkpt><trkpt lat="44.05454493720401" lon="11.2385361513034"><ele>495.0</ele><time>2026-04-11T15:00:17Z</time></trkpt><trkpt lat="44.05465601627153" lon="11.238396731842565"><ele>495.0</ele><time>2026-04-11T15:00:18Z</time></trkpt><trkpt lat="44.05473874989164" lon="11.238262680728884"><ele>495.0</ele><time>2026-04-11T15:00:19Z</time></trkpt><trkpt lat="44.05481355956927" lon="11.238137150311983"><ele>495.0</ele><time>2026-04-11T15:00:20Z</time></trkpt><trkpt lat="44.054873313354186" lon="11.238030716329128"><ele>495.0</ele><time>2026-04-11T15:00:21Z</time></trkpt><trkpt lat="44.0549307241716" lon="11.23794197960508"><ele>495.0</ele><time>2026-04-11T15:00:22Z</time></trkpt><trkpt lat="44.05501170723183" lon="11.237862422188705"><ele>495.25</ele><time>2026-04-11T15:00:23Z</time></trkpt><trkpt lat="44.05509642085367" lon="11.237794596922917"><ele>495.5</ele><time>2026-04-11T15:00:24Z</time></trkpt><trkpt lat="44.055209137919014" lon="11.237758083489966"><ele>495.75</ele><time>2026-04-11T15:00:25Z</time></trkpt><trkpt lat="44.05533809233264" lon="11.237767454148447"><ele>496.0</ele><time>2026-04-11T15:00:26Z</time></trkpt><trkpt lat="44.05546772753781" lon="11.23782127748203"><ele>496.0</ele><time>2026-04-11T15:00:27Z</time></trkpt><trkpt lat="44.05559939147392" lon="11.237900699551556"><ele>496.0</ele><time>2026-04-11T15:00:28Z</time></trkpt><trkpt lat="44.05571969779449" lon="11.237970057254575"><ele>496.0</ele><time>2026-04-11T15:00:29Z</time></trkpt><trkpt lat="44.05584113552846" lon="11.238010966300156"><ele>496.0</ele><time>2026-04-11T15:00:30Z</time></trkpt><trkpt lat="44.05596729456179" lon="11.238018789155497"><ele>496.5</ele><time>2026-04-11T15:00:31Z</time></trkpt><trkpt lat="44.05610464503705" lon="11.238013540006301"><ele>497.0</ele><time>2026-04-11T15:00:32Z</time></trkpt><trkpt lat="44.0562298282306" lon="11.238009452643588"><ele>497.5</ele><time>2026-04-11T15:00:33Z</time></trkpt><trkpt lat="44.05636675312667" lon="11.237995083051349"><ele>498.0</ele><time>2026-04-11T15:00:34Z</time></trkpt><trkpt lat="44.056505175893925" lon="11.237933844234545"><ele>500.75</ele><time>2026-04-11T15:00:35Z</time></trkpt><trkpt lat="44.056657026881524" lon="11.237841930662288"><ele>503.5</ele><time>2026-04-11T15:00:36Z</time></trkpt><trkpt lat="44.05678557572717" lon="11.237755454508504"><ele>506.25</ele><time>2026-04-11T15:00:37Z</time></trkpt><trkpt lat="44.05691724352601" lon="11.237731179223282"><ele>509.0</ele><time>2026-04-11T15:00:38Z</time></trkpt><trkpt lat="44.05704940951088" lon="11.237747216728096"><ele>509.0</ele><time>2026-04-11T15:00:39Z</time></trkpt><trkpt lat="44.057181224602246" lon="11.237788955855034"><ele>509.0</ele><time>2026-04-11T15:00:40Z</time></trkpt><trkpt lat="44.05729409331465" lon="11.237842703889086"><ele>509.0</ele><time>2026-04-11T15:00:41Z</time></trkpt><trkpt lat="44.05740601856965" lon="11.237901547524137"><ele>509.0</ele><time>2026-04-11T15:00:42Z</time></trkpt><trkpt lat="44.05749381821394" lon="11.23802180293199"><ele>510.4</ele><time>2026-04-11T15:00:43Z</time></trkpt><trkpt lat="44.0575137654021" lon="11.23812979782114"><ele>511.79999999999995</ele><time>2026-04-11T15:00:44Z</time></trkpt><trkpt lat="44.0575273040636" lon="11.238267594882904"><ele>513.2</ele><time>2026-04-11T15:00:45Z</time></trkpt><trkpt lat="44.05751794436818" lon="11.238421306343115"><ele>514.6</ele><time>2026-04-11T15:00:46Z</time></trkpt><trkpt lat="44.05749848588557" lon="11.238589155108954"><ele>516.0</ele><time>2026-04-11T15:00:47Z</time></trkpt><trkpt lat="44.05750210767291" lon="11.238724386179035"><ele>516.2</ele><time>2026-04-11T15:00:48Z</time></trkpt><trkpt lat="44.05755399738956" lon="11.238814222062942"><ele>516.4000000000001</ele><time>2026-04-11T15:00:49Z</time></trkpt><trkpt lat="44.057637309912" lon="11.238891946807279"><ele>516.6</ele><time>2026-04-11T15:00:50Z</time></trkpt><trkpt lat="44.05774414854607" lon="11.238933384862037"><ele>516.8000000000001</ele><time>2026-04-11T15:00:51Z</time></trkpt><trkpt lat="44.05784014031726" lon="11.238999903659558"><ele>517.0</ele><time>2026-04-11T15:00:52Z</time></trkpt><trkpt lat="44.057959113527914" lon="11.23907261709388"><ele>518.25</ele><time>2026-04-11T15:00:53Z</time></trkpt><trkpt lat="44.05808710970216" lon="11.239118006099373"><ele>519.5</ele><time>2026-04-11T15:00:54Z</time></trkpt><trkpt lat="44.058206970386934" lon="11.239136788612974"><ele>520.75</ele><time>2026-04-11T15:00:55Z</time></trkpt><trkpt lat="44.058329430997155" lon="11.239116840899392"><ele>522.0</ele><time>2026-04-11T15:00:56Z</time></trkpt><trkpt lat="44.058443591270766" lon="11.239054686367384"><ele>526.25</ele><time>2026-04-11T15:00:57Z</time></trkpt><trkpt lat="44.05856028440672" lon="11.238957364381523"><ele>530.5</ele><time>2026-04-11T15:00:58Z</time></trkpt><trkpt lat="44.05866080060859" lon="11.238835838827155"><ele>534.75</ele><time>2026-04-11T15:00:59.001Z</time></trkpt><trkpt lat="44.058766672926374" lon="11.238700678899358"><ele>539.0</ele><time>2026-04-11T15:01:00.001Z</time></trkpt><trkpt lat="44.058879077067466" lon="11.238558431943515"><ele>539.0</ele><time>2026-04-11T15:01:01.001Z</time></trkpt><trkpt lat="44.05900207767587" lon="11.23840368066142"><ele>539.0</ele><time>2026-04-11T15:01:02.001Z</time></trkpt><trkpt lat="44.05913189755082" lon="11.238237612053858"><ele>539.0</ele><time>2026-04-11T15:01:03.001Z</time></trkpt><trkpt lat="44.05925068804011" lon="11.238079739494344"><ele>542.75</ele><time>2026-04-11T15:01:04.001Z</time></trkpt><trkpt lat="44.059361171448494" lon="11.237918064326088"><ele>546.5</ele><time>2026-04-11T15:01:05.001Z</time></trkpt><trkpt lat="44.05945481628779" lon="11.237767010834265"><ele>550.25</ele><time>2026-04-11T15:01:06.001Z</time></trkpt><trkpt lat="44.059544921666" lon="11.237631051825593"><ele>554.0</ele><time>2026-04-11T15:01:07.001Z</time></trkpt><trkpt lat="44.05964716544307" lon="11.237531641192824"><ele>554.0</ele><time>2026-04-11T15:01:08.001Z</time></trkpt><trkpt lat="44.05976660163773" lon="11.237499001436742"><ele>554.0</ele><time>2026-04-11T15:01:09.001Z</time></trkpt><trkpt lat="44.05989981381083" lon="11.237526662707689"><ele>554.0</ele><time>2026-04-11T15:01:10.001Z</time></trkpt><trkpt lat="44.0600216532997" lon="11.237589340815784"><ele>554.0</ele><time>2026-04-11T15:01:11.001Z</time></trkpt><trkpt lat="44.06013457669826" lon="11.237695825534471"><ele>553.75</ele><time>2026-04-11T15:01:12.001Z</time></trkpt><trkpt lat="44.06023953264321" lon="11.237805953488493"><ele>553.5</ele><time>2026-04-11T15:01:13.001Z</time></trkpt><trkpt lat="44.06035493867282" lon="11.237904082873973"><ele>553.25</ele><time>2026-04-11T15:01:14.001Z</time></trkpt><trkpt lat="44.060475167637534" lon="11.238000010817315"><ele>553.0</ele><time>2026-04-11T15:01:15.001Z</time></trkpt><trkpt lat="44.06060761146358" lon="11.238089407143256"><ele>553.25</ele><time>2026-04-11T15:01:16.001Z</time></trkpt><trkpt lat="44.06075126362327" lon="11.238155347439546"><ele>553.5</ele><time>2026-04-11T15:01:17.001Z</time></trkpt><trkpt lat="44.060890022778345" lon="11.238186996827602"><ele>553.75</ele><time>2026-04-11T15:01:18Z</time></trkpt><trkpt lat="44.06100443146684" lon="11.238255999221218"><ele>554.0</ele><time>2026-04-11T15:01:19Z</time></trkpt><trkpt lat="44.06109248995437" lon="11.2383643937967"><ele>554.0</ele><time>2026-04-11T15:01:20Z</time></trkpt><trkpt lat="44.06115736611434" lon="11.23852093064285"><ele>554.0</ele><time>2026-04-11T15:01:21Z</time></trkpt><trkpt lat="44.06119541723038" lon="11.238691751051894"><ele>554.0</ele><time>2026-04-11T15:01:22Z</time></trkpt><trkpt lat="44.061241768964685" lon="11.238853528555522"><ele>554.0</ele><time>2026-04-11T15:01:23Z</time></trkpt><trkpt lat="44.061294642077776" lon="11.238966650443935"><ele>554.0</ele><time>2026-04-11T15:01:24Z</time></trkpt><trkpt lat="44.06136900539119" lon="11.239023180827045"><ele>554.0</ele><time>2026-04-11T15:01:25Z</time></trkpt><trkpt lat="44.06146217327571" lon="11.239015130184896"><ele>554.0</ele><time>2026-04-11T15:01:26Z</time></trkpt><trkpt lat="44.061544433128255" lon="11.238936151111993"><ele>554.0</ele><time>2026-04-11T15:01:27Z</time></trkpt><trkpt lat="44.061600182420065" lon="11.238810877758036"><ele>554.0</ele><time>2026-04-11T15:01:28Z</time></trkpt><trkpt lat="44.06163235014395" lon="11.238664053028366"><ele>556.25</ele><time>2026-04-11T15:01:29Z</time></trkpt><trkpt lat="44.06166393116646" lon="11.23848670672068"><ele>558.5</ele><time>2026-04-11T15:01:30Z</time></trkpt><trkpt lat="44.06169180043055" lon="11.238313880348086"><ele>560.75</ele><time>2026-04-11T15:01:31Z</time></trkpt><trkpt lat="44.0616861016558" lon="11.238136040444628"><ele>563.0</ele><time>2026-04-11T15:01:32Z</time></trkpt><trkpt lat="44.06165034220705" lon="11.237946853573934"><ele>562.3333333333333</ele><time>2026-04-11T15:01:33Z</time></trkpt><trkpt lat="44.06159382101724" lon="11.237740549333354"><ele>561.6666666666666</ele><time>2026-04-11T15:01:34Z</time></trkpt><trkpt lat="44.06154053624547" lon="11.237520046258295"><ele>561.0</ele><time>2026-04-11T15:01:35Z</time></trkpt><trkpt lat="44.06149311768843" lon="11.237285446421941"><ele>563.25</ele><time>2026-04-11T15:01:36Z</time></trkpt><trkpt lat="44.0614389131375" lon="11.237055744651055"><ele>565.5</ele><time>2026-04-11T15:01:37Z</time></trkpt><trkpt lat="44.061396068760644" lon="11.236856562889152"><ele>567.75</ele><time>2026-04-11T15:01:38Z</time></trkpt><trkpt lat="44.06136081112221" lon="11.236689402917648"><ele>570.0</ele><time>2026-04-11T15:01:39Z</time></trkpt><trkpt lat="44.06133625265718" lon="11.236567636096375"><ele>572.8</ele><time>2026-04-11T15:01:40Z</time></trkpt><trkpt lat="44.06133213117604" lon="11.236443855765284"><ele>575.6</ele><time>2026-04-11T15:01:41Z</time></trkpt><trkpt lat="44.061373420508446" lon="11.23630183089647"><ele>578.4</ele><time>2026-04-11T15:01:42Z</time></trkpt><trkpt lat="44.06143050587722" lon="11.236166291241187"><ele>581.2</ele><time>2026-04-11T15:01:43Z</time></trkpt><trkpt lat="44.06151343178017" lon="11.236046455498526"><ele>584.0</ele><time>2026-04-11T15:01:44Z</time></trkpt><trkpt lat="44.06160314518339" lon="11.235938347875136"><ele>583.0</ele><time>2026-04-11T15:01:45Z</time></trkpt><trkpt lat="44.061697311235235" lon="11.235814510697708"><ele>582.0</ele><time>2026-04-11T15:01:46Z</time></trkpt><trkpt lat="44.061804202222206" lon="11.235705754774079"><ele>581.0</ele><time>2026-04-11T15:01:47Z</time></trkpt><trkpt lat="44.06191647569126" lon="11.235583205667641"><ele>580.0</ele><time>2026-04-11T15:01:48Z</time></trkpt><trkpt lat="44.062010493530146" lon="11.23546959876727"><ele>582.6</ele><time>2026-04-11T15:01:49Z</time></trkpt><trkpt lat="44.06209307120947" lon="11.235363308887994"><ele>585.2</ele><time>2026-04-11T15:01:50Z</time></trkpt><trkpt lat="44.06216989228413" lon="11.23525192216994"><ele>587.8</ele><time>2026-04-11T15:01:51Z</time></trkpt><trkpt lat="44.062219247346626" lon="11.235127384451943"><ele>590.4</ele><time>2026-04-11T15:01:52Z</time></trkpt><trkpt lat="44.062228258058354" lon="11.234999751612564"><ele>593.0</ele><time>2026-04-11T15:01:53Z</time></trkpt><trkpt lat="44.06219429474406" lon="11.234870764336415"><ele>593.0</ele><time>2026-04-11T15:01:54Z</time></trkpt><trkpt lat="44.062103064761814" lon="11.234807219983061"><ele>593.0</ele><time>2026-04-11T15:01:55Z</time></trkpt><trkpt lat="44.06200104160301" lon="11.234796736921709"><ele>593.0</ele><time>2026-04-11T15:01:56Z</time></trkpt><trkpt lat="44.06190547646873" lon="11.234855243790728"><ele>593.0</ele><time>2026-04-11T15:01:57Z</time></trkpt><trkpt lat="44.061829178621984" lon="11.234952021624165"><ele>593.0</ele><time>2026-04-11T15:01:58Z</time></trkpt><trkpt lat="44.06175609138449" lon="11.235015551611571"><ele>593.0</ele><time>2026-04-11T15:01:59Z</time></trkpt><trkpt lat="44.06167880824267" lon="11.234997627901237"><ele>593.0</ele><time>2026-04-11T15:02:00Z</time></trkpt><trkpt lat="44.06161046322735" lon="11.2348991820728"><ele>593.0</ele><time>2026-04-11T15:02:01Z</time></trkpt><trkpt lat="44.06155922601447" lon="11.234767472253326"><ele>593.0</ele><time>2026-04-11T15:02:02Z</time></trkpt><trkpt lat="44.061522744699076" lon="11.234661054815342"><ele>593.0</ele><time>2026-04-11T15:02:03Z</time></trkpt><trkpt lat="44.06149851220915" lon="11.234557012865572"><ele>593.0</ele><time>2026-04-11T15:02:04Z</time></trkpt><trkpt lat="44.061481820061346" lon="11.234430187809108"><ele>595.25</ele><time>2026-04-11T15:02:05Z</time></trkpt><trkpt lat="44.061492738086784" lon="11.234280016487268"><ele>597.5</ele><time>2026-04-11T15:02:06Z</time></trkpt><trkpt lat="44.061504872688566" lon="11.234120175956278"><ele>599.75</ele><time>2026-04-11T15:02:07Z</time></trkpt><trkpt lat="44.06151802266257" lon="11.23394381385082"><ele>602.0</ele><time>2026-04-11T15:02:08Z</time></trkpt><trkpt lat="44.06153968109433" lon="11.233764499102534"><ele>602.0</ele><time>2026-04-11T15:02:09Z</time></trkpt><trkpt lat="44.06157409795296" lon="11.233578990503062"><ele>602.0</ele><time>2026-04-11T15:02:10Z</time></trkpt><trkpt lat="44.061625488477624" lon="11.233397748882616"><ele>602.0</ele><time>2026-04-11T15:02:11Z</time></trkpt><trkpt lat="44.061703646361025" lon="11.233244961469408"><ele>602.0</ele><time>2026-04-11T15:02:12Z</time></trkpt><trkpt lat="44.061805758672406" lon="11.233117640068976"><ele>606.0</ele><time>2026-04-11T15:02:13Z</time></trkpt><trkpt lat="44.0619400186149" lon="11.232997418730827"><ele>610.0</ele><time>2026-04-11T15:02:14Z</time></trkpt><trkpt lat="44.06207546939603" lon="11.232863979995992"><ele>614.0</ele><time>2026-04-11T15:02:15Z</time></trkpt><trkpt lat="44.06219707978528" lon="11.232726298404264"><ele>614.0</ele><time>2026-04-11T15:02:16Z</time></trkpt><trkpt lat="44.062314365623564" lon="11.2325882058276"><ele>614.0</ele><time>2026-04-11T15:02:17Z</time></trkpt><trkpt lat="44.06244259957547" lon="11.232470382940493"><ele>614.0</ele><time>2026-04-11T15:02:18Z</time></trkpt><trkpt lat="44.06256419734411" lon="11.232323466160846"><ele>614.5</ele><time>2026-04-11T15:02:19Z</time></trkpt><trkpt lat="44.06264450838531" lon="11.232160689858908"><ele>615.0</ele><time>2026-04-11T15:02:20Z</time></trkpt><trkpt lat="44.0627212138853" lon="11.231987673846398"><ele>615.5</ele><time>2026-04-11T15:02:21Z</time></trkpt><trkpt lat="44.06281936797651" lon="11.231813928149878"><ele>616.0</ele><time>2026-04-11T15:02:22Z</time></trkpt><trkpt lat="44.062945701516504" lon="11.231667407720133"><ele>616.0</ele><time>2026-04-11T15:02:23Z</time></trkpt><trkpt lat="44.063075908234495" lon="11.23154867219764"><ele>616.0</ele><time>2026-04-11T15:02:24Z</time></trkpt><trkpt lat="44.063215557743604" lon="11.231446423312832"><ele>616.0</ele><time>2026-04-11T15:02:25Z</time></trkpt><trkpt lat="44.063338062614534" lon="11.23133660424103"><ele>618.75</ele><time>2026-04-11T15:02:26Z</time></trkpt><trkpt lat="44.06344541693373" lon="11.23121408399136"><ele>621.5</ele><time>2026-04-11T15:02:27Z</time></trkpt><trkpt lat="44.06353794176233" lon="11.231093230067339"><ele>624.25</ele><time>2026-04-11T15:02:28Z</time></trkpt><trkpt lat="44.063623219727454" lon="11.230971416869156"><ele>627.0</ele><time>2026-04-11T15:02:29Z</time></trkpt><trkpt lat="44.06370605654235" lon="11.230781048258665"><ele>627.25</ele><time>2026-04-11T15:02:30Z</time></trkpt><trkpt lat="44.06378158621677" lon="11.23062509395673"><ele>627.5</ele><time>2026-04-11T15:02:31Z</time></trkpt><trkpt lat="44.06383643369378" lon="11.230477445492868"><ele>627.75</ele><time>2026-04-11T15:02:32Z</time></trkpt><trkpt lat="44.06391708388239" lon="11.230324895251249"><ele>628.0</ele><time>2026-04-11T15:02:33Z</time></trkpt><trkpt lat="44.06402092557809" lon="11.230190040841654"><ele>630.0</ele><time>2026-04-11T15:02:34Z</time></trkpt><trkpt lat="44.06415107191427" lon="11.23008042508993"><ele>632.0</ele><time>2026-04-11T15:02:35Z</time></trkpt><trkpt lat="44.064293590935854" lon="11.22997216314463"><ele>634.0</ele><time>2026-04-11T15:02:36Z</time></trkpt><trkpt lat="44.064436861984845" lon="11.22986673104108"><ele>633.6666666666667</ele><time>2026-04-11T15:02:37Z</time></trkpt><trkpt lat="44.064589489830446" lon="11.22974659540912"><ele>633.3333333333334</ele><time>2026-04-11T15:02:38Z</time></trkpt><trkpt lat="44.06471719551782" lon="11.229637396066613"><ele>633.0</ele><time>2026-04-11T15:02:39Z</time></trkpt><trkpt lat="44.0648752350491" lon="11.229539251941976"><ele>634.6666666666666</ele><time>2026-04-11T15:02:40Z</time></trkpt><trkpt lat="44.06502792976815" lon="11.22944051558164"><ele>636.3333333333333</ele><time>2026-04-11T15:02:41Z</time></trkpt><trkpt lat="44.065177973582244" lon="11.229344025292619"><ele>638.0</ele><time>2026-04-11T15:02:42Z</time></trkpt><trkpt lat="44.065307909717205" lon="11.229247106856818"><ele>638.0</ele><time>2026-04-11T15:02:43Z</time></trkpt><trkpt lat="44.065438065319896" lon="11.229150805044249"><ele>638.0</ele><time>2026-04-11T15:02:44Z</time></trkpt><trkpt lat="44.06556782243945" lon="11.229051584527127"><ele>638.0</ele><time>2026-04-11T15:02:45Z</time></trkpt><trkpt lat="44.06567522024934" lon="11.228961983960241"><ele>638.0</ele><time>2026-04-11T15:02:46Z</time></trkpt><trkpt lat="44.065767503217096" lon="11.228871107498724"><ele>639.0</ele><time>2026-04-11T15:02:47Z</time></trkpt><trkpt lat="44.06584400021222" lon="11.228780880797055"><ele>640.0</ele><time>2026-04-11T15:02:48Z</time></trkpt><trkpt lat="44.065916875339774" lon="11.228645705266487"><ele>641.0</ele><time>2026-04-11T15:02:49Z</time></trkpt><trkpt lat="44.06596824506429" lon="11.228472842105534"><ele>642.0</ele><time>2026-04-11T15:02:50Z</time></trkpt><trkpt lat="44.06600034056861" lon="11.228322387224129"><ele>642.0</ele><time>2026-04-11T15:02:51Z</time></trkpt><trkpt lat="44.066081697843984" lon="11.228203764111454"><ele>642.0</ele><time>2026-04-11T15:02:52Z</time></trkpt><trkpt lat="44.06617866018496" lon="11.228070045516317"><ele>642.0</ele><time>2026-04-11T15:02:53Z</time></trkpt><trkpt lat="44.06628882817872" lon="11.227983847629318"><ele>642.0</ele><time>2026-04-11T15:02:54Z</time></trkpt><trkpt lat="44.06641800927445" lon="11.227931624600075"><ele>642.25</ele><time>2026-04-11T15:02:55Z</time></trkpt><trkpt lat="44.066513237174284" lon="11.227810310770115"><ele>642.5</ele><time>2026-04-11T15:02:56Z</time></trkpt><trkpt lat="44.0665960618321" lon="11.227659885234974"><ele>642.75</ele><time>2026-04-11T15:02:57Z</time></trkpt><trkpt lat="44.066648859121294" lon="11.227486733151848"><ele>643.0</ele><time>2026-04-11T15:02:58Z</time></trkpt><trkpt lat="44.06666036360711" lon="11.22730477474548"><ele>644.2</ele><time>2026-04-11T15:02:59Z</time></trkpt><trkpt lat="44.066641694868025" lon="11.227132268565173"><ele>645.4</ele><time>2026-04-11T15:03:00Z</time></trkpt><trkpt lat="44.06663537511954" lon="11.226984592618637"><ele>646.6</ele><time>2026-04-11T15:03:01Z</time></trkpt><trkpt lat="44.06668172326952" lon="11.226859652470532"><ele>647.8000000000001</ele><time>2026-04-11T15:03:02Z</time></trkpt><trkpt lat="44.06677496563443" lon="11.226795116031925"><ele>649.0</ele><time>2026-04-11T15:03:03Z</time></trkpt><trkpt lat="44.06688862042181" lon="11.226770508188329"><ele>649.0</ele><time>2026-04-11T15:03:04Z</time></trkpt><trkpt lat="44.06694701042648" lon="11.226709388026132"><ele>649.0</ele><time>2026-04-11T15:03:05.001Z</time></trkpt><trkpt lat="44.066953497213824" lon="11.22658196211168"><ele>649.0</ele><time>2026-04-11T15:03:06.001Z</time></trkpt><trkpt lat="44.06693839453121" lon="11.226444496531315"><ele>649.0</ele><time>2026-04-11T15:03:07.001Z</time></trkpt><trkpt lat="44.06694425792748" lon="11.226305041059051"><ele>649.0</ele><time>2026-04-11T15:03:08.001Z</time></trkpt><trkpt lat="44.06700874338455" lon="11.226194425959664"><ele>648.75</ele><time>2026-04-11T15:03:09.001Z</time></trkpt><trkpt lat="44.06712411981581" lon="11.226136869154708"><ele>648.5</ele><time>2026-04-11T15:03:10.001Z</time></trkpt><trkpt lat="44.067260273250874" lon="11.226107572990148"><ele>648.25</ele><time>2026-04-11T15:03:11.001Z</time></trkpt><trkpt lat="44.06742043991552" lon="11.226040393855973"><ele>648.0</ele><time>2026-04-11T15:03:12.001Z</time></trkpt><trkpt lat="44.067579770261915" lon="11.22597901496361"><ele>649.75</ele><time>2026-04-11T15:03:13.001Z</time></trkpt><trkpt lat="44.06772561446853" lon="11.225933876253588"><ele>651.5</ele><time>2026-04-11T15:03:14.001Z</time></trkpt><trkpt lat="44.06786123022385" lon="11.22586122982848"><ele>653.25</ele><time>2026-04-11T15:03:15.001Z</time></trkpt><trkpt lat="44.06799893547748" lon="11.225821001067967"><ele>655.0</ele><time>2026-04-11T15:03:16.001Z</time></trkpt><trkpt lat="44.06811162489873" lon="11.22577032631294"><ele>655.0</ele><time>2026-04-11T15:03:17.001Z</time></trkpt><trkpt lat="44.068210141771914" lon="11.225714596386283"><ele>655.0</ele><time>2026-04-11T15:03:18.001Z</time></trkpt><trkpt lat="44.06830673327417" lon="11.225671543520777"><ele>655.0</ele><time>2026-04-11T15:03:19.001Z</time></trkpt><trkpt lat="44.06839612655389" lon="11.225644269751763"><ele>655.0</ele><time>2026-04-11T15:03:20.001Z</time></trkpt><trkpt lat="44.068500492670644" lon="11.225639074406768"><ele>655.0</ele><time>2026-04-11T15:03:21.001Z</time></trkpt><trkpt lat="44.068612494866436" lon="11.225648496060451"><ele>654.0</ele><time>2026-04-11T15:03:22.001Z</time></trkpt><trkpt lat="44.06872630528565" lon="11.225691465628893"><ele>653.0</ele><time>2026-04-11T15:03:23.001Z</time></trkpt><trkpt lat="44.068844473016995" lon="11.225749010907359"><ele>652.0</ele><time>2026-04-11T15:03:24.001Z</time></trkpt><trkpt lat="44.06897132062828" lon="11.225767518021497"><ele>651.0</ele><time>2026-04-11T15:03:25.001Z</time></trkpt><trkpt lat="44.06910296184992" lon="11.225737798132378"><ele>653.25</ele><time>2026-04-11T15:03:26.001Z</time></trkpt><trkpt lat="44.06923625241441" lon="11.225716189030502"><ele>655.5</ele><time>2026-04-11T15:03:27.001Z</time></trkpt><trkpt lat="44.069372695604955" lon="11.225723728157623"><ele>657.75</ele><time>2026-04-11T15:03:28.001Z</time></trkpt><trkpt lat="44.06951147004162" lon="11.225729397180654"><ele>660.0</ele><time>2026-04-11T15:03:29.001Z</time></trkpt><trkpt lat="44.069631549168456" lon="11.225713207968155"><ele>660.0</ele><time>2026-04-11T15:03:30.001Z</time></trkpt><trkpt lat="44.06976460491284" lon="11.225697597223258"><ele>660.0</ele><time>2026-04-11T15:03:31.001Z</time></trkpt><trkpt lat="44.06988505597333" lon="11.225659586823427"><ele>660.0</ele><time>2026-04-11T15:03:32Z</time></trkpt><trkpt lat="44.06999321550487" lon="11.22560439934021"><ele>660.0</ele><time>2026-04-11T15:03:33Z</time></trkpt><trkpt lat="44.07009639488051" lon="11.225546474374605"><ele>663.8</ele><time>2026-04-11T15:03:34Z</time></trkpt><trkpt lat="44.070188161656176" lon="11.225509880898251"><ele>667.6</ele><time>2026-04-11T15:03:35Z</time></trkpt><trkpt lat="44.07028630552829" lon="11.2255071225232"><ele>671.4000000000001</ele><time>2026-04-11T15:03:36Z</time></trkpt><trkpt lat="44.070387051289245" lon="11.225529273925526"><ele>675.2</ele><time>2026-04-11T15:03:37Z</time></trkpt><trkpt lat="44.07048306226847" lon="11.22557966236755"><ele>679.0</ele><time>2026-04-11T15:03:38Z</time></trkpt><trkpt lat="44.07059422139464" lon="11.225632686207874"><ele>680.2</ele><time>2026-04-11T15:03:39Z</time></trkpt><trkpt lat="44.0706926496698" lon="11.225653599661982"><ele>681.4000000000001</ele><time>2026-04-11T15:03:40Z</time></trkpt><trkpt lat="44.07079969371769" lon="11.225621482217983"><ele>682.6</ele><time>2026-04-11T15:03:41Z</time></trkpt><trkpt lat="44.07090428196095" lon="11.225568299734684"><ele>683.8</ele><time>2026-04-11T15:03:42Z</time></trkpt><trkpt lat="44.07100781320468" lon="11.225500676592105"><ele>685.0</ele><time>2026-04-11T15:03:43Z</time></trkpt><trkpt lat="44.07111438806439" lon="11.22540291447053"><ele>685.0</ele><time>2026-04-11T15:03:44Z</time></trkpt><trkpt lat="44.07121751798091" lon="11.225310999154862"><ele>685.0</ele><time>2026-04-11T15:03:45Z</time></trkpt><trkpt lat="44.07132209657741" lon="11.225249581750306"><ele>685.0</ele><time>2026-04-11T15:03:46Z</time></trkpt><trkpt lat="44.07142935885434" lon="11.225230540788761"><ele>685.0</ele><time>2026-04-11T15:03:47Z</time></trkpt><trkpt lat="44.07152962340276" lon="11.225220927650154"><ele>685.0</ele><time>2026-04-11T15:03:48Z</time></trkpt><trkpt lat="44.07163259663432" lon="11.225184284922914"><ele>684.2</ele><time>2026-04-11T15:03:49Z</time></trkpt><trkpt lat="44.07172731337509" lon="11.225121178178789"><ele>683.4</ele><time>2026-04-11T15:03:50Z</time></trkpt><trkpt lat="44.07180610995806" lon="11.22504472370159"><ele>682.5999999999999</ele><time>2026-04-11T15:03:51Z</time></trkpt><trkpt lat="44.07186542005522" lon="11.224985067645957"><ele>681.8</ele><time>2026-04-11T15:03:52Z</time></trkpt><trkpt lat="44.07194899084009" lon="11.224973421879763"><ele>681.0</ele><time>2026-04-11T15:03:53Z</time></trkpt><trkpt lat="44.072047262414124" lon="11.224996517737367"><ele>681.0</ele><time>2026-04-11T15:03:54Z</time></trkpt><trkpt lat="44.07214643088585" lon="11.225041149419413"><ele>681.0</ele><time>2026-04-11T15:03:55Z</time></trkpt><trkpt lat="44.07225738464748" lon="11.225116612211671"><ele>681.0</ele><time>2026-04-11T15:03:56Z</time></trkpt><trkpt lat="44.07238654292958" lon="11.225196868108883"><ele>681.0</ele><time>2026-04-11T15:03:57Z</time></trkpt><trkpt lat="44.07251996656928" lon="11.225280620638888"><ele>680.0</ele><time>2026-04-11T15:03:58Z</time></trkpt><trkpt lat="44.07263869610213" lon="11.225350119296502"><ele>679.0</ele><time>2026-04-11T15:03:59Z</time></trkpt><trkpt lat="44.07274517287883" lon="11.225416310185281"><ele>678.0</ele><time>2026-04-11T15:04:00Z</time></trkpt><trkpt lat="44.07283403036548" lon="11.225460678129581"><ele>677.0</ele><time>2026-04-11T15:04:01Z</time></trkpt><trkpt lat="44.07291960615528" lon="11.225468996904171"><ele>676.0</ele><time>2026-04-11T15:04:02Z</time></trkpt><trkpt lat="44.073018785241224" lon="11.22545019574594"><ele>676.0</ele><time>2026-04-11T15:04:03Z</time></trkpt><trkpt lat="44.07312194495923" lon="11.225396102603911"><ele>676.0</ele><time>2026-04-11T15:04:04Z</time></trkpt><trkpt lat="44.073232723621096" lon="11.225345834438494"><ele>676.0</ele><time>2026-04-11T15:04:05Z</time></trkpt><trkpt lat="44.07333749316111" lon="11.225301013059275"><ele>676.0</ele><time>2026-04-11T15:04:06Z</time></trkpt><trkpt lat="44.073445778047315" lon="11.225269003138314"><ele>676.0</ele><time>2026-04-11T15:04:07Z</time></trkpt><trkpt lat="44.07354152564566" lon="11.225248216295547"><ele>678.6666666666667</ele><time>2026-04-11T15:04:08Z</time></trkpt><trkpt lat="44.073608778033666" lon="11.225227868063284"><ele>681.3333333333334</ele><time>2026-04-11T15:04:09Z</time></trkpt><trkpt lat="44.07351075743566" lon="11.225233152971665"><ele>684.0</ele><time>2026-04-11T15:04:16Z</time></trkpt><trkpt lat="44.07339968409928" lon="11.225269152557336"><ele>686.6666666666666</ele><time>2026-04-11T15:04:18Z</time></trkpt><trkpt lat="44.07333417636936" lon="11.22525939194923"><ele>689.3333333333333</ele><time>2026-04-11T15:04:20Z</time></trkpt><trkpt lat="44.07341476036999" lon="11.22531839160156"><ele>692.0</ele><time>2026-04-11T15:04:26Z</time></trkpt><trkpt lat="44.07349736900032" lon="11.225366355306802"><ele>692.0</ele><time>2026-04-11T15:04:28Z</time></trkpt><trkpt lat="44.073611877050205" lon="11.225389148851969"><ele>692.0</ele><time>2026-04-11T15:04:30Z</time></trkpt><trkpt lat="44.07373898710401" lon="11.225417028521306"><ele>692.0</ele><time>2026-04-11T15:04:32Z</time></trkpt><trkpt lat="44.0738191501541" lon="11.225492178502286"><ele>692.0</ele><time>2026-04-11T15:04:34Z</time></trkpt><trkpt lat="44.07389162833179" lon="11.225528069797676"><ele>692.0</ele><time>2026-04-11T15:04:45Z</time></trkpt><trkpt lat="44.07396724168194" lon="11.225556496717177"><ele>692.0</ele><time>2026-04-11T15:04:48Z</time></trkpt><trkpt lat="44.07386146072485" lon="11.225501947672592"><ele>692.0</ele><time>2026-04-11T15:05:14.001Z</time></trkpt><trkpt lat="44.07379866516117" lon="11.225455197999633"><ele>692.0</ele><time>2026-04-11T15:05:16.001Z</time></trkpt><trkpt lat="44.07369890269599" lon="11.225395174723383"><ele>692.0</ele><time>2026-04-11T15:05:19.001Z</time></trkpt><trkpt lat="44.0736196184964" lon="11.225383959250442"><ele>692.0</ele><time>2026-04-11T15:05:21.001Z</time></trkpt><trkpt lat="44.073523925639485" lon="11.22537385955707"><ele>692.0</ele><time>2026-04-11T15:05:23.001Z</time></trkpt><trkpt lat="44.073449491675284" lon="11.225346378637989"><ele>692.0</ele><time>2026-04-11T15:05:25.001Z</time></trkpt><trkpt lat="44.073389970465676" lon="11.225309722865548"><ele>692.0</ele><time>2026-04-11T15:05:27.001Z</time></trkpt><trkpt lat="44.07327841364529" lon="11.225345673111685"><ele>692.0</ele><time>2026-04-11T15:05:30.001Z</time></trkpt><trkpt lat="44.07320918604609" lon="11.225367642318812"><ele>692.0</ele><time>2026-04-11T15:05:31.001Z</time></trkpt><trkpt lat="44.07312608145964" lon="11.225398798017084"><ele>692.0</ele><time>2026-04-11T15:05:32.001Z</time></trkpt><trkpt lat="44.073044557574946" lon="11.22541977538925"><ele>690.5</ele><time>2026-04-11T15:05:33.001Z</time></trkpt><trkpt lat="44.072980273781205" lon="11.225440610931415"><ele>689.0</ele><time>2026-04-11T15:05:34.001Z</time></trkpt><trkpt lat="44.072892753681145" lon="11.225473009304705"><ele>687.5</ele><time>2026-04-11T15:05:36.001Z</time></trkpt><trkpt lat="44.072853264318866" lon="11.225553534360357"><ele>686.0</ele><time>2026-04-11T15:05:38.001Z</time></trkpt><trkpt lat="44.07286258057187" lon="11.225695929278054"><ele>684.5</ele><time>2026-04-11T15:05:40Z</time></trkpt><trkpt lat="44.072880914412245" lon="11.225784118168663"><ele>683.0</ele><time>2026-04-11T15:05:41Z</time></trkpt><trkpt lat="44.0729143624222" lon="11.225886389571533"><ele>683.0</ele><time>2026-04-11T15:05:42Z</time></trkpt><trkpt lat="44.07295085541009" lon="11.225977723603185"><ele>683.0</ele><time>2026-04-11T15:05:43Z</time></trkpt><trkpt lat="44.07300620726017" lon="11.226050599171822"><ele>683.0</ele><time>2026-04-11T15:05:44Z</time></trkpt><trkpt lat="44.0731235562734" lon="11.226120888802432"><ele>683.0</ele><time>2026-04-11T15:05:46Z</time></trkpt><trkpt lat="44.07319093521341" lon="11.226146464483568"><ele>683.0</ele><time>2026-04-11T15:05:47Z</time></trkpt><trkpt lat="44.07327550232906" lon="11.226173248498323"><ele>683.0</ele><time>2026-04-11T15:05:48Z</time></trkpt><trkpt lat="44.07335055081983" lon="11.2262270167856"><ele>686.3333333333333</ele><time>2026-04-11T15:05:49Z</time></trkpt><trkpt lat="44.0734163306513" lon="11.226245398614191"><ele>689.6666666666666</ele><time>2026-04-11T15:05:50Z</time></trkpt><trkpt lat="44.07348281937744" lon="11.22623435041126"><ele>693.0</ele><time>2026-04-11T15:05:51Z</time></trkpt><trkpt lat="44.07355630048376" lon="11.226218405772167"><ele>696.3333333333334</ele><time>2026-04-11T15:05:52Z</time></trkpt><trkpt lat="44.07363359183974" lon="11.22618433895793"><ele>699.6666666666667</ele><time>2026-04-11T15:05:53Z</time></trkpt><trkpt lat="44.07371877298696" lon="11.226131157950407"><ele>703.0</ele><time>2026-04-11T15:05:54Z</time></trkpt><trkpt lat="44.07380779303517" lon="11.226078836940696"><ele>703.0</ele><time>2026-04-11T15:05:55Z</time></trkpt><trkpt lat="44.07391343249998" lon="11.226045629449589"><ele>703.0</ele><time>2026-04-11T15:05:56Z</time></trkpt><trkpt lat="44.07400583499789" lon="11.226023365087094"><ele>703.0</ele><time>2026-04-11T15:05:57Z</time></trkpt><trkpt lat="44.074107396284276" lon="11.22601531737323"><ele>703.0</ele><time>2026-04-11T15:05:58Z</time></trkpt><trkpt lat="44.07420321925754" lon="11.226019132333102"><ele>703.0</ele><time>2026-04-11T15:05:59Z</time></trkpt><trkpt lat="44.07430120053651" lon="11.226041430616645"><ele>706.2</ele><time>2026-04-11T15:06:00Z</time></trkpt><trkpt lat="44.07439001433022" lon="11.226090609904013"><ele>709.4</ele><time>2026-04-11T15:06:01Z</time></trkpt><trkpt lat="44.074461732721446" lon="11.226148997765225"><ele>712.6</ele><time>2026-04-11T15:06:02Z</time></trkpt><trkpt lat="44.07455017078889" lon="11.226217034388123"><ele>715.8000000000001</ele><time>2026-04-11T15:06:03Z</time></trkpt><trkpt lat="44.07462643685071" lon="11.226287189568552"><ele>719.0</ele><time>2026-04-11T15:06:04Z</time></trkpt><trkpt lat="44.07471820472525" lon="11.226356662656798"><ele>719.0</ele><time>2026-04-11T15:06:05Z</time></trkpt><trkpt lat="44.07479367738989" lon="11.22638656066695"><ele>719.0</ele><time>2026-04-11T15:06:06Z</time></trkpt><trkpt lat="44.07485938956391" lon="11.226383936450551"><ele>719.0</ele><time>2026-04-11T15:06:07Z</time></trkpt><trkpt lat="44.07493194868198" lon="11.22636222011948"><ele>719.0</ele><time>2026-04-11T15:06:08Z</time></trkpt><trkpt lat="44.074978678846215" lon="11.22629054042231"><ele>719.0</ele><time>2026-04-11T15:06:09Z</time></trkpt><trkpt lat="44.07505394286838" lon="11.226225325304371"><ele>719.0</ele><time>2026-04-11T15:06:10Z</time></trkpt><trkpt lat="44.07511025490457" lon="11.226148855077392"><ele>721.1666666666666</ele><time>2026-04-11T15:06:11Z</time></trkpt><trkpt lat="44.07517015945056" lon="11.226064115188649"><ele>723.3333333333333</ele><time>2026-04-11T15:06:12Z</time></trkpt><trkpt lat="44.075228047491294" lon="11.225997434153783"><ele>725.5</ele><time>2026-04-11T15:06:13Z</time></trkpt><trkpt lat="44.07531661992246" lon="11.225964378917524"><ele>727.6666666666666</ele><time>2026-04-11T15:06:14Z</time></trkpt><trkpt lat="44.07540939647086" lon="11.225969421844137"><ele>729.8333333333334</ele><time>2026-04-11T15:06:15Z</time></trkpt><trkpt lat="44.07550961171312" lon="11.226008921487185"><ele>732.0</ele><time>2026-04-11T15:06:16Z</time></trkpt><trkpt lat="44.07560373078876" lon="11.22605048682675"><ele>732.0</ele><time>2026-04-11T15:06:17Z</time></trkpt><trkpt lat="44.07569449334466" lon="11.226110040110356"><ele>732.0</ele><time>2026-04-11T15:06:18Z</time></trkpt><trkpt lat="44.07578870072073" lon="11.226167444571606"><ele>732.0</ele><time>2026-04-11T15:06:19Z</time></trkpt><trkpt lat="44.07586730850299" lon="11.22620399247878"><ele>732.0</ele><time>2026-04-11T15:06:20Z</time></trkpt><trkpt lat="44.075947908228855" lon="11.226214795101441"><ele>732.0</ele><time>2026-04-11T15:06:21Z</time></trkpt><trkpt lat="44.07601013051568" lon="11.226188467210237"><ele>732.0</ele><time>2026-04-11T15:06:22Z</time></trkpt><trkpt lat="44.07608148093173" lon="11.226128859007906"><ele>733.8333333333334</ele><time>2026-04-11T15:06:23Z</time></trkpt><trkpt lat="44.07615970065168" lon="11.226063324180735"><ele>735.6666666666666</ele><time>2026-04-11T15:06:24Z</time></trkpt><trkpt lat="44.076223983231074" lon="11.22601078339111"><ele>737.5</ele><time>2026-04-11T15:06:25Z</time></trkpt><trkpt lat="44.0763005861195" lon="11.225996197600265"><ele>739.3333333333333</ele><time>2026-04-11T15:06:26Z</time></trkpt><trkpt lat="44.076379425160255" lon="11.226029009143168"><ele>741.1666666666666</ele><time>2026-04-11T15:06:27Z</time></trkpt><trkpt lat="44.07642960155413" lon="11.226094838365787"><ele>743.0</ele><time>2026-04-11T15:06:28Z</time></trkpt><trkpt lat="44.07646032008167" lon="11.226211328580497"><ele>743.0</ele><time>2026-04-11T15:06:29Z</time></trkpt><trkpt lat="44.07649269081664" lon="11.226329651947683"><ele>743.0</ele><time>2026-04-11T15:06:30Z</time></trkpt><trkpt lat="44.07654356019638" lon="11.226433365426853"><ele>743.0</ele><time>2026-04-11T15:06:31Z</time></trkpt><trkpt lat="44.0766179506289" lon="11.226497037483412"><ele>743.0</ele><time>2026-04-11T15:06:32Z</time></trkpt><trkpt lat="44.07671147000046" lon="11.226552152337096"><ele>743.0</ele><time>2026-04-11T15:06:33Z</time></trkpt><trkpt lat="44.07679719768443" lon="11.226579625287496"><ele>739.0</ele><time>2026-04-11T15:06:34Z</time></trkpt><trkpt lat="44.07688726223628" lon="11.226593157335543"><ele>735.0</ele><time>2026-04-11T15:06:35Z</time></trkpt><trkpt lat="44.07697606883396" lon="11.226580434457444"><ele>731.0</ele><time>2026-04-11T15:06:36Z</time></trkpt><trkpt lat="44.07708110810943" lon="11.226554487597053"><ele>727.0</ele><time>2026-04-11T15:06:37Z</time></trkpt><trkpt lat="44.077183046469514" lon="11.226520310873259"><ele>723.0</ele><time>2026-04-11T15:06:38Z</time></trkpt><trkpt lat="44.077291306561875" lon="11.226489008425455"><ele>726.3333333333334</ele><time>2026-04-11T15:06:39Z</time></trkpt><trkpt lat="44.077386963896664" lon="11.226462024290027"><ele>729.6666666666666</ele><time>2026-04-11T15:06:40Z</time></trkpt><trkpt lat="44.0774744590447" lon="11.226449578170147"><ele>733.0</ele><time>2026-04-11T15:06:41Z</time></trkpt><trkpt lat="44.07756162787523" lon="11.226460435714738"><ele>736.3333333333333</ele><time>2026-04-11T15:06:42Z</time></trkpt><trkpt lat="44.077638402536834" lon="11.22648954555264"><ele>739.6666666666666</ele><time>2026-04-11T15:06:43Z</time></trkpt><trkpt lat="44.077704733545794" lon="11.226549168652552"><ele>743.0</ele><time>2026-04-11T15:06:44Z</time></trkpt><trkpt lat="44.07776324855472" lon="11.226652278323476"><ele>743.0</ele><time>2026-04-11T15:06:45Z</time></trkpt><trkpt lat="44.07778496870906" lon="11.226767849298461"><ele>743.0</ele><time>2026-04-11T15:06:46Z</time></trkpt><trkpt lat="44.07780520491969" lon="11.226921983447195"><ele>743.0</ele><time>2026-04-11T15:06:47Z</time></trkpt><trkpt lat="44.077831404493786" lon="11.227052859458563"><ele>743.0</ele><time>2026-04-11T15:06:48Z</time></trkpt><trkpt lat="44.07787624808186" lon="11.227184193680687"><ele>743.0</ele><time>2026-04-11T15:06:49Z</time></trkpt><trkpt lat="44.07794277195132" lon="11.227305475559318"><ele>744.5999999999999</ele><time>2026-04-11T15:06:50Z</time></trkpt><trkpt lat="44.078007721724866" lon="11.227433262215362"><ele>746.1999999999999</ele><time>2026-04-11T15:06:51Z</time></trkpt><trkpt lat="44.07808215234583" lon="11.227511950312671"><ele>747.8</ele><time>2026-04-11T15:06:52Z</time></trkpt><trkpt lat="44.078159746681116" lon="11.227579940885986"><ele>749.4</ele><time>2026-04-11T15:06:53Z</time></trkpt><trkpt lat="44.078247198897124" lon="11.227632637627618"><ele>751.0</ele><time>2026-04-11T15:06:54Z</time></trkpt><trkpt lat="44.078342525964395" lon="11.227667842641758"><ele>751.0</ele><time>2026-04-11T15:06:55Z</time></trkpt><trkpt lat="44.0784453646664" lon="11.227697322741404"><ele>751.0</ele><time>2026-04-11T15:06:56Z</time></trkpt><trkpt lat="44.078550848314904" lon="11.227773560527867"><ele>751.0</ele><time>2026-04-11T15:06:57Z</time></trkpt><trkpt lat="44.078638352146505" lon="11.2278857314772"><ele>751.0</ele><time>2026-04-11T15:06:58Z</time></trkpt><trkpt lat="44.07870174822408" lon="11.227987364136325"><ele>751.0</ele><time>2026-04-11T15:06:59Z</time></trkpt><trkpt lat="44.07873891626928" lon="11.228104020303377"><ele>747.1999999999999</ele><time>2026-04-11T15:07:00Z</time></trkpt><trkpt lat="44.07876273515332" lon="11.228231357709127"><ele>743.4</ele><time>2026-04-11T15:07:01Z</time></trkpt><trkpt lat="44.07879758085573" lon="11.228369922509511"><ele>739.6</ele><time>2026-04-11T15:07:02Z</time></trkpt><trkpt lat="44.078846607562355" lon="11.228523356992229"><ele>735.8</ele><time>2026-04-11T15:07:03Z</time></trkpt><trkpt lat="44.07890404210823" lon="11.228619222836365"><ele>732.0</ele><time>2026-04-11T15:07:04Z</time></trkpt><trkpt lat="44.07897219382041" lon="11.228706598136222"><ele>732.0</ele><time>2026-04-11T15:07:05Z</time></trkpt><trkpt lat="44.079047253699514" lon="11.228807053478455"><ele>732.0</ele><time>2026-04-11T15:07:06Z</time></trkpt><trkpt lat="44.07913737047968" lon="11.228905022522765"><ele>732.0</ele><time>2026-04-11T15:07:07Z</time></trkpt><trkpt lat="44.07923090292786" lon="11.228990549354789"><ele>732.0</ele><time>2026-04-11T15:07:08Z</time></trkpt><trkpt lat="44.07932415911566" lon="11.229074309925329"><ele>732.0</ele><time>2026-04-11T15:07:09Z</time></trkpt><trkpt lat="44.07942833804611" lon="11.229147708392142"><ele>737.8</ele><time>2026-04-11T15:07:10Z</time></trkpt><trkpt lat="44.07952403051263" lon="11.229199691908335"><ele>743.6</ele><time>2026-04-11T15:07:11Z</time></trkpt><trkpt lat="44.079636452920084" lon="11.22925089944688"><ele>749.4</ele><time>2026-04-11T15:07:12Z</time></trkpt><trkpt lat="44.079746206672766" lon="11.22930298039224"><ele>755.1999999999999</ele><time>2026-04-11T15:07:13Z</time></trkpt><trkpt lat="44.07984882451827" lon="11.229363522309365"><ele>761.0</ele><time>2026-04-11T15:07:14Z</time></trkpt><trkpt lat="44.07992968025932" lon="11.229401569451651"><ele>764.8</ele><time>2026-04-11T15:07:15Z</time></trkpt><trkpt lat="44.08001811193823" lon="11.229446187135556"><ele>768.5999999999999</ele><time>2026-04-11T15:07:16Z</time></trkpt><trkpt lat="44.08010424984038" lon="11.229513887068206"><ele>772.4</ele><time>2026-04-11T15:07:17.001Z</time></trkpt><trkpt lat="44.080184289137776" lon="11.229592271676678"><ele>776.2</ele><time>2026-04-11T15:07:18.001Z</time></trkpt><trkpt lat="44.08026315932239" lon="11.229636132079397"><ele>780.0</ele><time>2026-04-11T15:07:19.001Z</time></trkpt><trkpt lat="44.08035111589858" lon="11.229634795143342"><ele>780.0</ele><time>2026-04-11T15:07:20.001Z</time></trkpt><trkpt lat="44.080410066702704" lon="11.229580381781957"><ele>780.0</ele><time>2026-04-11T15:07:21.001Z</time></trkpt><trkpt lat="44.080450093113825" lon="11.229500899869064"><ele>780.0</ele><time>2026-04-11T15:07:22.001Z</time></trkpt><trkpt lat="44.08047552026691" lon="11.229395969468815"><ele>780.0</ele><time>2026-04-11T15:07:23.001Z</time></trkpt><trkpt lat="44.080507359400656" lon="11.22926628737404"><ele>780.0</ele><time>2026-04-11T15:07:24.001Z</time></trkpt><trkpt lat="44.080556005594474" lon="11.229153488320213"><ele>780.0</ele><time>2026-04-11T15:07:25.001Z</time></trkpt><trkpt lat="44.08062415838376" lon="11.229036459454576"><ele>781.2</ele><time>2026-04-11T15:07:26.001Z</time></trkpt><trkpt lat="44.08068563873642" lon="11.228938355940308"><ele>782.4</ele><time>2026-04-11T15:07:27.001Z</time></trkpt><trkpt lat="44.08075312144934" lon="11.228812878384682"><ele>783.5999999999999</ele><time>2026-04-11T15:07:28.001Z</time></trkpt><trkpt lat="44.08083502424375" lon="11.228682262138673"><ele>784.8</ele><time>2026-04-11T15:07:29.001Z</time></trkpt><trkpt lat="44.080887242265604" lon="11.228563580960827"><ele>786.0</ele><time>2026-04-11T15:07:30.001Z</time></trkpt><trkpt lat="44.08094569633463" lon="11.228452537668513"><ele>786.0</ele><time>2026-04-11T15:07:31.001Z</time></trkpt><trkpt lat="44.081016264201494" lon="11.228346944131873"><ele>786.0</ele><time>2026-04-11T15:07:32.001Z</time></trkpt><trkpt lat="44.0811326502783" lon="11.228221622828428"><ele>786.0</ele><time>2026-04-11T15:07:34.001Z</time></trkpt><trkpt lat="44.08120999087059" lon="11.228142358199598"><ele>786.0</ele><time>2026-04-11T15:07:35Z</time></trkpt><trkpt lat="44.08127679777064" lon="11.228055093471465"><ele>786.0</ele><time>2026-04-11T15:07:36Z</time></trkpt><trkpt lat="44.08135219721536" lon="11.227984124512682"><ele>785.8</ele><time>2026-04-11T15:07:37Z</time></trkpt><trkpt lat="44.08143247981367" lon="11.227902287874665"><ele>785.5999999999999</ele><time>2026-04-11T15:07:38Z</time></trkpt><trkpt lat="44.08150894348054" lon="11.227818645266703"><ele>785.4</ele><time>2026-04-11T15:07:39Z</time></trkpt><trkpt lat="44.08161444292912" lon="11.22773703034102"><ele>785.2</ele><time>2026-04-11T15:07:40Z</time></trkpt><trkpt lat="44.08172090784816" lon="11.227660279684489"><ele>785.0</ele><time>2026-04-11T15:07:41Z</time></trkpt><trkpt lat="44.08185810560157" lon="11.227604720637496"><ele>785.0</ele><time>2026-04-11T15:07:42Z</time></trkpt><trkpt lat="44.08198919125498" lon="11.227556569543465"><ele>785.0</ele><time>2026-04-11T15:07:43Z</time></trkpt><trkpt lat="44.08210163926227" lon="11.227522440480064"><ele>785.0</ele><time>2026-04-11T15:07:44Z</time></trkpt><trkpt lat="44.08221074805584" lon="11.227474343460319"><ele>785.0</ele><time>2026-04-11T15:07:45Z</time></trkpt><trkpt lat="44.08231110251326" lon="11.227407656040514"><ele>785.0</ele><time>2026-04-11T15:07:46Z</time></trkpt><trkpt lat="44.08241954009441" lon="11.227344638282315"><ele>785.0</ele><time>2026-04-11T15:07:47Z</time></trkpt><trkpt lat="44.08250613486532" lon="11.227297093094588"><ele>785.0</ele><time>2026-04-11T15:07:48Z</time></trkpt><trkpt lat="44.082594245139724" lon="11.227242397984028"><ele>785.0</ele><time>2026-04-11T15:07:49Z</time></trkpt><trkpt lat="44.082654059835114" lon="11.227148607622267"><ele>785.0</ele><time>2026-04-11T15:07:50Z</time></trkpt><trkpt lat="44.08271609482198" lon="11.227068565764814"><ele>785.4</ele><time>2026-04-11T15:07:51Z</time></trkpt><trkpt lat="44.082716085578426" lon="11.226957098145434"><ele>785.8</ele><time>2026-04-11T15:07:52Z</time></trkpt><trkpt lat="44.08273604273982" lon="11.226834339021488"><ele>786.2</ele><time>2026-04-11T15:07:53Z</time></trkpt><trkpt lat="44.08275886466463" lon="11.22669846660159"><ele>786.6</ele><time>2026-04-11T15:07:54Z</time></trkpt><trkpt lat="44.08282885093056" lon="11.226585913383653"><ele>787.0</ele><time>2026-04-11T15:07:55Z</time></trkpt><trkpt lat="44.08287698208233" lon="11.226477923403202"><ele>788.9999999999999</ele><time>2026-04-11T15:07:56Z</time></trkpt><trkpt lat="44.082945255880475" lon="11.226394777342422"><ele>791.0</ele><time>2026-04-11T15:07:57Z</time></trkpt><trkpt lat="44.08305400046915" lon="11.22636170262877"><ele>793.0</ele><time>2026-04-11T15:07:58Z</time></trkpt><trkpt lat="44.08314979006673" lon="11.226384789816004"><ele>795.0</ele><time>2026-04-11T15:08:00Z</time></trkpt><trkpt lat="44.083202396709446" lon="11.226436704294082"><ele>796.9999999999999</ele><time>2026-04-11T15:08:01Z</time></trkpt><trkpt lat="44.08326546731869" lon="11.226451236756992"><ele>799.0</ele><time>2026-04-11T15:08:02Z</time></trkpt><trkpt lat="44.08333310594479" lon="11.226460926436495"><ele>795.2</ele><time>2026-04-11T15:08:03Z</time></trkpt><trkpt lat="44.083378110159074" lon="11.22654600968263"><ele>791.4000000000001</ele><time>2026-04-11T15:08:04Z</time></trkpt><trkpt lat="44.08345846687694" lon="11.226607728290617"><ele>787.6</ele><time>2026-04-11T15:08:05Z</time></trkpt><trkpt lat="44.08356315221955" lon="11.22665147488419"><ele>783.8</ele><time>2026-04-11T15:08:06Z</time></trkpt><trkpt lat="44.08366254863981" lon="11.226708138134088"><ele>780.0</ele><time>2026-04-11T15:08:07Z</time></trkpt><trkpt lat="44.08372387264822" lon="11.226779869992445"><ele>780.0</ele><time>2026-04-11T15:08:08Z</time></trkpt><trkpt lat="44.08376306318568" lon="11.226862923859617"><ele>780.0</ele><time>2026-04-11T15:08:09Z</time></trkpt><trkpt lat="44.08381220318827" lon="11.226983824531494"><ele>780.0</ele><time>2026-04-11T15:08:10Z</time></trkpt><trkpt lat="44.08386702688792" lon="11.227028307143591"><ele>780.0</ele><time>2026-04-11T15:08:11Z</time></trkpt><trkpt lat="44.08395856047081" lon="11.227101405645401"><ele>780.0</ele><time>2026-04-11T15:08:13Z</time></trkpt><trkpt lat="44.08407379995196" lon="11.22716024765758"><ele>779.5</ele><time>2026-04-11T15:08:15Z</time></trkpt><trkpt lat="44.08414706155707" lon="11.227202638921003"><ele>779.0</ele><time>2026-04-11T15:08:16Z</time></trkpt><trkpt lat="44.084219305686474" lon="11.227252639510949"><ele>778.5</ele><time>2026-04-11T15:08:17Z</time></trkpt><trkpt lat="44.084278252704465" lon="11.227334632910086"><ele>778.0</ele><time>2026-04-11T15:08:18Z</time></trkpt><trkpt lat="44.08432923237998" lon="11.227459635462996"><ele>777.5</ele><time>2026-04-11T15:08:19Z</time></trkpt><trkpt lat="44.08434596152451" lon="11.2275969655103"><ele>777.0</ele><time>2026-04-11T15:08:20Z</time></trkpt><trkpt lat="44.084348382048645" lon="11.227762397087714"><ele>777.0</ele><time>2026-04-11T15:08:21Z</time></trkpt><trkpt lat="44.08438476235552" lon="11.227928576087697"><ele>777.0</ele><time>2026-04-11T15:08:22Z</time></trkpt><trkpt lat="44.08442227638346" lon="11.228075630686059"><ele>777.0</ele><time>2026-04-11T15:08:23Z</time></trkpt><trkpt lat="44.08447495898518" lon="11.228197804741017"><ele>777.0</ele><time>2026-04-11T15:08:24Z</time></trkpt><trkpt lat="44.08454217333876" lon="11.228254266112103"><ele>777.0</ele><time>2026-04-11T15:08:25Z</time></trkpt><trkpt lat="44.08468242759552" lon="11.228341051241516"><ele>776.5</ele><time>2026-04-11T15:08:27Z</time></trkpt><trkpt lat="44.08475243775185" lon="11.228375463073526"><ele>776.0</ele><time>2026-04-11T15:08:28Z</time></trkpt><trkpt lat="44.084874436378584" lon="11.228340432637639"><ele>775.5</ele><time>2026-04-11T15:08:30Z</time></trkpt><trkpt lat="44.08492437278678" lon="11.228258544564989"><ele>775.0</ele><time>2026-04-11T15:08:31Z</time></trkpt><trkpt lat="44.084959359963904" lon="11.22816301513957"><ele>774.5</ele><time>2026-04-11T15:08:32Z</time></trkpt><trkpt lat="44.084989936320525" lon="11.228042400167398"><ele>774.0</ele><time>2026-04-11T15:08:33Z</time></trkpt><trkpt lat="44.08502607293318" lon="11.227935413708769"><ele>777.2</ele><time>2026-04-11T15:08:34Z</time></trkpt><trkpt lat="44.08507780667541" lon="11.2278680443267"><ele>780.4000000000001</ele><time>2026-04-11T15:08:35Z</time></trkpt><trkpt lat="44.0851643693261" lon="11.227843819095236"><ele>783.6</ele><time>2026-04-11T15:08:36Z</time></trkpt><trkpt lat="44.08525571519348" lon="11.227874008607218"><ele>786.8</ele><time>2026-04-11T15:08:37Z</time></trkpt><trkpt lat="44.08535305485019" lon="11.227932147126575"><ele>790.0</ele><time>2026-04-11T15:08:38Z</time></trkpt><trkpt lat="44.0854591470541" lon="11.22798237029775"><ele>790.0</ele><time>2026-04-11T15:08:39Z</time></trkpt><trkpt lat="44.08558921251222" lon="11.22802190655665"><ele>790.0</ele><time>2026-04-11T15:08:40Z</time></trkpt><trkpt lat="44.085700744650154" lon="11.228074241862233"><ele>790.0</ele><time>2026-04-11T15:08:41Z</time></trkpt><trkpt lat="44.0857842096867" lon="11.228135892533974"><ele>790.0</ele><time>2026-04-11T15:08:41.999Z</time></trkpt><trkpt lat="44.08585914847823" lon="11.228158288048107"><ele>790.0</ele><time>2026-04-11T15:08:42.999Z</time></trkpt><trkpt lat="44.085936985686494" lon="11.228139115439511"><ele>792.2</ele><time>2026-04-11T15:08:43.999Z</time></trkpt><trkpt lat="44.086031627070795" lon="11.228078651876928"><ele>794.4</ele><time>2026-04-11T15:08:44.999Z</time></trkpt><trkpt lat="44.08611735328406" lon="11.228022988277836"><ele>796.5999999999999</ele><time>2026-04-11T15:08:45.999Z</time></trkpt><trkpt lat="44.086210082656535" lon="11.228018052518218"><ele>798.8</ele><time>2026-04-11T15:08:46.999Z</time></trkpt><trkpt lat="44.08629478511771" lon="11.2280417670136"><ele>801.0</ele><time>2026-04-11T15:08:47.999Z</time></trkpt><trkpt lat="44.08636564557987" lon="11.228111989107997"><ele>798.8</ele><time>2026-04-11T15:08:48.999Z</time></trkpt><trkpt lat="44.08642857140571" lon="11.228214583759815"><ele>796.5999999999999</ele><time>2026-04-11T15:08:49.999Z</time></trkpt><trkpt lat="44.0864826437417" lon="11.228339784984723"><ele>794.4</ele><time>2026-04-11T15:08:50.999Z</time></trkpt><trkpt lat="44.08655113389052" lon="11.228437516747892"><ele>792.2</ele><time>2026-04-11T15:08:51.999Z</time></trkpt><trkpt lat="44.08662161184107" lon="11.22850998011887"><ele>790.0</ele><time>2026-04-11T15:08:52.999Z</time></trkpt><trkpt lat="44.08669848797326" lon="11.228600930957125"><ele>790.0</ele><time>2026-04-11T15:08:53.999Z</time></trkpt><trkpt lat="44.086778109011696" lon="11.228689718478892"><ele>790.0</ele><time>2026-04-11T15:08:54.999Z</time></trkpt><trkpt lat="44.086853046217335" lon="11.228771164187776"><ele>790.0</ele><time>2026-04-11T15:08:55.999Z</time></trkpt><trkpt lat="44.08691734900434" lon="11.228869260548304"><ele>790.0</ele><time>2026-04-11T15:08:56.999Z</time></trkpt><trkpt lat="44.08697334868141" lon="11.228949621774966"><ele>790.0</ele><time>2026-04-11T15:08:57.999Z</time></trkpt><trkpt lat="44.08704054273955" lon="11.229053131047673"><ele>788.6</ele><time>2026-04-11T15:08:59.999Z</time></trkpt><trkpt lat="44.087080405542174" lon="11.229212362819199"><ele>787.2</ele><time>2026-04-11T15:09:01.999Z</time></trkpt><trkpt lat="44.08705436605137" lon="11.22937782440344"><ele>785.8</ele><time>2026-04-11T15:09:03.999Z</time></trkpt><trkpt lat="44.08701424001725" lon="11.229467087927636"><ele>784.4</ele><time>2026-04-11T15:09:04.999Z</time></trkpt><trkpt lat="44.086965845175946" lon="11.229569647998481"><ele>783.0</ele><time>2026-04-11T15:09:05.999Z</time></trkpt><trkpt lat="44.08691684532637" lon="11.229695571802335"><ele>782.5</ele><time>2026-04-11T15:09:06.999Z</time></trkpt><trkpt lat="44.086861158372955" lon="11.22984918163925"><ele>782.0</ele><time>2026-04-11T15:09:07.999Z</time></trkpt><trkpt lat="44.0867910819519" lon="11.230002445459101"><ele>781.5</ele><time>2026-04-11T15:09:08.999Z</time></trkpt><trkpt lat="44.08671083208662" lon="11.230179655433698"><ele>781.0</ele><time>2026-04-11T15:09:09.999Z</time></trkpt><trkpt lat="44.0866277457504" lon="11.230375464945457"><ele>778.0</ele><time>2026-04-11T15:09:10.999Z</time></trkpt><trkpt lat="44.08654364437401" lon="11.230584367463603"><ele>775.0</ele><time>2026-04-11T15:09:11.999Z</time></trkpt><trkpt lat="44.086456606011545" lon="11.230807557743423"><ele>772.0</ele><time>2026-04-11T15:09:12.999Z</time></trkpt><trkpt lat="44.08636864649141" lon="11.23103880545852"><ele>771.6666666666666</ele><time>2026-04-11T15:09:13.999Z</time></trkpt><trkpt lat="44.08627320791638" lon="11.231278059361163"><ele>771.3333333333333</ele><time>2026-04-11T15:09:14.999Z</time></trkpt><trkpt lat="44.08619145156904" lon="11.23148949666675"><ele>771.0</ele><time>2026-04-11T15:09:15.999Z</time></trkpt><trkpt lat="44.086110368288935" lon="11.231691075864873"><ele>773.0</ele><time>2026-04-11T15:09:16.999Z</time></trkpt><trkpt lat="44.08603134870601" lon="11.231889747834161"><ele>775.0</ele><time>2026-04-11T15:09:17.999Z</time></trkpt><trkpt lat="44.08595125042671" lon="11.232084684563509"><ele>777.0</ele><time>2026-04-11T15:09:18.999Z</time></trkpt><trkpt lat="44.08585587451518" lon="11.232297554425369"><ele>773.25</ele><time>2026-04-11T15:09:19.999Z</time></trkpt><trkpt lat="44.085760255815885" lon="11.232471577632577"><ele>769.5</ele><time>2026-04-11T15:09:20.999Z</time></trkpt><trkpt lat="44.085707409360936" lon="11.232637067247156"><ele>765.75</ele><time>2026-04-11T15:09:21.999Z</time></trkpt><trkpt lat="44.085645935918215" lon="11.232786189302162"><ele>762.0</ele><time>2026-04-11T15:09:23.001Z</time></trkpt><trkpt lat="44.085582957820414" lon="11.23292008054848"><ele>762.0</ele><time>2026-04-11T15:09:24.001Z</time></trkpt><trkpt lat="44.085539524668825" lon="11.233044030205734"><ele>762.0</ele><time>2026-04-11T15:09:25.001Z</time></trkpt><trkpt lat="44.08549636957616" lon="11.233156106922102"><ele>762.0</ele><time>2026-04-11T15:09:26.001Z</time></trkpt><trkpt lat="44.085435821940614" lon="11.233271463312887"><ele>762.0</ele><time>2026-04-11T15:09:27.001Z</time></trkpt><trkpt lat="44.08537768313411" lon="11.233417288681386"><ele>762.0</ele><time>2026-04-11T15:09:28.001Z</time></trkpt><trkpt lat="44.08531474802805" lon="11.233575144262112"><ele>762.0</ele><time>2026-04-11T15:09:29.001Z</time></trkpt><trkpt lat="44.085256278356276" lon="11.233721799512823"><ele>762.0</ele><time>2026-04-11T15:09:30.001Z</time></trkpt><trkpt lat="44.085207941778975" lon="11.233843038664936"><ele>762.0</ele><time>2026-04-11T15:09:31.001Z</time></trkpt><trkpt lat="44.08515892075192" lon="11.233954925530016"><ele>762.0</ele><time>2026-04-11T15:09:32.001Z</time></trkpt><trkpt lat="44.085121200315676" lon="11.234047830182242"><ele>762.0</ele><time>2026-04-11T15:09:33.001Z</time></trkpt><trkpt lat="44.08507406833495" lon="11.23418788537991"><ele>762.0</ele><time>2026-04-11T15:09:34.001Z</time></trkpt><trkpt lat="44.085052406934196" lon="11.234354976875757"><ele>762.0</ele><time>2026-04-11T15:09:35.001Z</time></trkpt><trkpt lat="44.08505192659053" lon="11.234488848981913"><ele>762.0</ele><time>2026-04-11T15:09:36.001Z</time></trkpt><trkpt lat="44.08505869970378" lon="11.23460328348462"><ele>762.0</ele><time>2026-04-11T15:09:37.001Z</time></trkpt><trkpt lat="44.08508436781838" lon="11.234787788034472"><ele>762.0</ele><time>2026-04-11T15:09:38.001Z</time></trkpt><trkpt lat="44.08512566840119" lon="11.234988961797923"><ele>762.0</ele><time>2026-04-11T15:09:39Z</time></trkpt><trkpt lat="44.0851742924751" lon="11.23519694483013"><ele>762.0</ele><time>2026-04-11T15:09:40Z</time></trkpt><trkpt lat="44.085229052722454" lon="11.235424366026814"><ele>762.0</ele><time>2026-04-11T15:09:41Z</time></trkpt><trkpt lat="44.08528503353789" lon="11.235644596798723"><ele>758.5</ele><time>2026-04-11T15:09:42Z</time></trkpt><trkpt lat="44.08534880506957" lon="11.235835290722244"><ele>755.0</ele><time>2026-04-11T15:09:43Z</time></trkpt><trkpt lat="44.08539118780405" lon="11.236031740174248"><ele>751.5</ele><time>2026-04-11T15:09:44Z</time></trkpt><trkpt lat="44.08544423551933" lon="11.236223127677869"><ele>748.0</ele><time>2026-04-11T15:09:45Z</time></trkpt><trkpt lat="44.085501966235064" lon="11.23640025195418"><ele>747.0</ele><time>2026-04-11T15:09:46Z</time></trkpt><trkpt lat="44.0855458026233" lon="11.23656523240763"><ele>746.0</ele><time>2026-04-11T15:09:47Z</time></trkpt><trkpt lat="44.08557775847662" lon="11.236703398752384"><ele>745.0</ele><time>2026-04-11T15:09:48Z</time></trkpt><trkpt lat="44.085588381285426" lon="11.236840531170749"><ele>744.0</ele><time>2026-04-11T15:09:49Z</time></trkpt><trkpt lat="44.08557042993137" lon="11.236999278610853"><ele>743.0</ele><time>2026-04-11T15:09:50Z</time></trkpt><trkpt lat="44.085506827710944" lon="11.23714018214142"><ele>743.0</ele><time>2026-04-11T15:09:51Z</time></trkpt><trkpt lat="44.08541397893478" lon="11.237287879394344"><ele>743.0</ele><time>2026-04-11T15:09:52Z</time></trkpt><trkpt lat="44.08530665911111" lon="11.23742764436592"><ele>743.0</ele><time>2026-04-11T15:09:53Z</time></trkpt><trkpt lat="44.08520875036559" lon="11.23758806611528"><ele>743.0</ele><time>2026-04-11T15:09:54Z</time></trkpt><trkpt lat="44.08512767230795" lon="11.237734322622334"><ele>743.0</ele><time>2026-04-11T15:09:55Z</time></trkpt><trkpt lat="44.08504055559189" lon="11.237860679458128"><ele>743.0</ele><time>2026-04-11T15:09:56Z</time></trkpt><trkpt lat="44.08493860887604" lon="11.237940011665087"><ele>743.0</ele><time>2026-04-11T15:09:57Z</time></trkpt><trkpt lat="44.08483109218535" lon="11.237977046525629"><ele>743.0</ele><time>2026-04-11T15:09:58Z</time></trkpt><trkpt lat="44.0847275540086" lon="11.238008830350047"><ele>742.0</ele><time>2026-04-11T15:09:59Z</time></trkpt><trkpt lat="44.08462630292044" lon="11.238041878613261"><ele>741.0</ele><time>2026-04-11T15:10:00Z</time></trkpt><trkpt lat="44.084520080709055" lon="11.23808454964225"><ele>740.0</ele><time>2026-04-11T15:10:01Z</time></trkpt><trkpt lat="44.084411655053756" lon="11.238148123622887"><ele>739.0</ele><time>2026-04-11T15:10:02Z</time></trkpt><trkpt lat="44.08429578309656" lon="11.238230971360831"><ele>739.0</ele><time>2026-04-11T15:10:03Z</time></trkpt><trkpt lat="44.08418011736246" lon="11.238326742580966"><ele>739.0</ele><time>2026-04-11T15:10:04Z</time></trkpt><trkpt lat="44.08406814204162" lon="11.238426085341816"><ele>739.0</ele><time>2026-04-11T15:10:05Z</time></trkpt><trkpt lat="44.0839533002397" lon="11.238504520383442"><ele>739.0</ele><time>2026-04-11T15:10:06Z</time></trkpt><trkpt lat="44.08383723770777" lon="11.238584503561098"><ele>734.5</ele><time>2026-04-11T15:10:07Z</time></trkpt><trkpt lat="44.0837164255976" lon="11.238681310639379"><ele>730.0</ele><time>2026-04-11T15:10:08Z</time></trkpt><trkpt lat="44.083595463154666" lon="11.238768580101192"><ele>725.5</ele><time>2026-04-11T15:10:09Z</time></trkpt><trkpt lat="44.08346992194115" lon="11.238840074083363"><ele>721.0</ele><time>2026-04-11T15:10:10Z</time></trkpt><trkpt lat="44.08333909262836" lon="11.238885109887612"><ele>720.5</ele><time>2026-04-11T15:10:11Z</time></trkpt><trkpt lat="44.083197396285165" lon="11.238931095388855"><ele>720.0</ele><time>2026-04-11T15:10:12Z</time></trkpt><trkpt lat="44.083066847974834" lon="11.238972736299084"><ele>719.5</ele><time>2026-04-11T15:10:13Z</time></trkpt><trkpt lat="44.08294945361963" lon="11.239025509985066"><ele>719.0</ele><time>2026-04-11T15:10:14Z</time></trkpt><trkpt lat="44.08286341642124" lon="11.239089610340445"><ele>719.0</ele><time>2026-04-11T15:10:15Z</time></trkpt><trkpt lat="44.08279684469804" lon="11.239182482084445"><ele>719.0</ele><time>2026-04-11T15:10:16Z</time></trkpt><trkpt lat="44.08274580217974" lon="11.239326381703222"><ele>719.0</ele><time>2026-04-11T15:10:17Z</time></trkpt><trkpt lat="44.082722740857704" lon="11.239486135042435"><ele>719.0</ele><time>2026-04-11T15:10:18Z</time></trkpt><trkpt lat="44.08271172797199" lon="11.239681414542972"><ele>721.25</ele><time>2026-04-11T15:10:19Z</time></trkpt><trkpt lat="44.08270890665256" lon="11.239876066485717"><ele>723.5</ele><time>2026-04-11T15:10:20Z</time></trkpt><trkpt lat="44.08266027989524" lon="11.24003125780736"><ele>725.75</ele><time>2026-04-11T15:10:21Z</time></trkpt><trkpt lat="44.08263032264872" lon="11.24018454537502"><ele>728.0</ele><time>2026-04-11T15:10:22Z</time></trkpt><trkpt lat="44.08254880217352" lon="11.240296344061719"><ele>728.0</ele><time>2026-04-11T15:10:23Z</time></trkpt><trkpt lat="44.08248305289557" lon="11.240417705177837"><ele>728.0</ele><time>2026-04-11T15:10:24Z</time></trkpt><trkpt lat="44.08244864532711" lon="11.240561054664933"><ele>728.0</ele><time>2026-04-11T15:10:25Z</time></trkpt><trkpt lat="44.08244986194073" lon="11.240718189160965"><ele>728.0</ele><time>2026-04-11T15:10:26Z</time></trkpt><trkpt lat="44.08249264863904" lon="11.240864562762514"><ele>728.0</ele><time>2026-04-11T15:10:27Z</time></trkpt><trkpt lat="44.08257075947112" lon="11.240987824482817"><ele>729.0</ele><time>2026-04-11T15:10:28Z</time></trkpt><trkpt lat="44.08267839717183" lon="11.241093369915143"><ele>730.0</ele><time>2026-04-11T15:10:29Z</time></trkpt><trkpt lat="44.08280638553528" lon="11.241186150361072"><ele>731.0</ele><time>2026-04-11T15:10:30Z</time></trkpt><trkpt lat="44.082933470689575" lon="11.241276210286944"><ele>732.0</ele><time>2026-04-11T15:10:31Z</time></trkpt><trkpt lat="44.08308552593927" lon="11.241369708816318"><ele>735.0</ele><time>2026-04-11T15:10:32Z</time></trkpt><trkpt lat="44.083231334499025" lon="11.24148268059076"><ele>738.0</ele><time>2026-04-11T15:10:33Z</time></trkpt><trkpt lat="44.083380717082576" lon="11.241589681027023"><ele>741.0</ele><time>2026-04-11T15:10:34Z</time></trkpt><trkpt lat="44.08351465449657" lon="11.2416869870078"><ele>741.0</ele><time>2026-04-11T15:10:35Z</time></trkpt><trkpt lat="44.08364795481867" lon="11.241778949490897"><ele>741.0</ele><time>2026-04-11T15:10:36Z</time></trkpt><trkpt lat="44.0837647225331" lon="11.241888484110982"><ele>741.0</ele><time>2026-04-11T15:10:37Z</time></trkpt><trkpt lat="44.08391252952628" lon="11.241916876122287"><ele>741.0</ele><time>2026-04-11T15:10:38Z</time></trkpt><trkpt lat="44.084043432273916" lon="11.24196486383064"><ele>744.5</ele><time>2026-04-11T15:10:39Z</time></trkpt><trkpt lat="44.08417379690844" lon="11.241978172351033"><ele>748.0</ele><time>2026-04-11T15:10:40Z</time></trkpt><trkpt lat="44.084289966299174" lon="11.241990213421028"><ele>751.5</ele><time>2026-04-11T15:10:40.999Z</time></trkpt><trkpt lat="44.084409017896895" lon="11.242021081335716"><ele>755.0</ele><time>2026-04-11T15:10:41.999Z</time></trkpt><trkpt lat="44.08449823285264" lon="11.242081801063263"><ele>755.0</ele><time>2026-04-11T15:10:42.999Z</time></trkpt><trkpt lat="44.08456905996684" lon="11.242188577622096"><ele>755.0</ele><time>2026-04-11T15:10:43.999Z</time></trkpt><trkpt lat="44.08459255068654" lon="11.242329764701516"><ele>755.0</ele><time>2026-04-11T15:10:44.999Z</time></trkpt><trkpt lat="44.08457793479393" lon="11.242475244652217"><ele>755.0</ele><time>2026-04-11T15:10:45.999Z</time></trkpt><trkpt lat="44.084574218092406" lon="11.242633955174295"><ele>755.0</ele><time>2026-04-11T15:10:46.999Z</time></trkpt><trkpt lat="44.084577384250835" lon="11.242802077452994"><ele>754.5</ele><time>2026-04-11T15:10:47.999Z</time></trkpt><trkpt lat="44.08462299407016" lon="11.242947299164767"><ele>754.0</ele><time>2026-04-11T15:10:48.999Z</time></trkpt><trkpt lat="44.084717970478785" lon="11.243087694806933"><ele>753.5</ele><time>2026-04-11T15:10:49.999Z</time></trkpt><trkpt lat="44.08485409657913" lon="11.243173149975268"><ele>753.0</ele><time>2026-04-11T15:10:50.999Z</time></trkpt><trkpt lat="44.08499934126121" lon="11.243221780341006"><ele>753.0</ele><time>2026-04-11T15:10:51.999Z</time></trkpt><trkpt lat="44.0851424609325" lon="11.243231097702397"><ele>753.0</ele><time>2026-04-11T15:10:52.999Z</time></trkpt><trkpt lat="44.08528028220708" lon="11.243271582488715"><ele>753.0</ele><time>2026-04-11T15:10:53.999Z</time></trkpt><trkpt lat="44.08537429441965" lon="11.243289012469903"><ele>753.0</ele><time>2026-04-11T15:10:54.999Z</time></trkpt><trkpt lat="44.08549697551361" lon="11.243280980648453"><ele>753.0</ele><time>2026-04-11T15:10:55.999Z</time></trkpt><trkpt lat="44.08560502601965" lon="11.243307198052792"><ele>753.0</ele><time>2026-04-11T15:10:56.999Z</time></trkpt><trkpt lat="44.08568301232544" lon="11.243358196945044"><ele>753.0</ele><time>2026-04-11T15:10:57.999Z</time></trkpt><trkpt lat="44.085731934193085" lon="11.24345643038018"><ele>753.0</ele><time>2026-04-11T15:10:58.999Z</time></trkpt><trkpt lat="44.085789283250534" lon="11.243616902490809"><ele>753.0</ele><time>2026-04-11T15:10:59.999Z</time></trkpt><trkpt lat="44.085813333793475" lon="11.243797896007637"><ele>756.0</ele><time>2026-04-11T15:11:00.999Z</time></trkpt><trkpt lat="44.08584864077263" lon="11.243986021996717"><ele>759.0</ele><time>2026-04-11T15:11:01.999Z</time></trkpt><trkpt lat="44.08588792464802" lon="11.244188129536754"><ele>762.0</ele><time>2026-04-11T15:11:02.999Z</time></trkpt><trkpt lat="44.08593025590334" lon="11.244398905372556"><ele>765.0</ele><time>2026-04-11T15:11:03.999Z</time></trkpt><trkpt lat="44.08596552580998" lon="11.244580216422328"><ele>765.0</ele><time>2026-04-11T15:11:04.999Z</time></trkpt><trkpt lat="44.08598605831434" lon="11.24474928815656"><ele>765.0</ele><time>2026-04-11T15:11:05.999Z</time></trkpt><trkpt lat="44.08598153947321" lon="11.244906636334049"><ele>765.0</ele><time>2026-04-11T15:11:06.999Z</time></trkpt><trkpt lat="44.08594290282287" lon="11.245046055758769"><ele>765.0</ele><time>2026-04-11T15:11:07.999Z</time></trkpt><trkpt lat="44.0858639533728" lon="11.245134518885994"><ele>765.0</ele><time>2026-04-11T15:11:08.999Z</time></trkpt><trkpt lat="44.085782853504995" lon="11.245259847038717"><ele>763.75</ele><time>2026-04-11T15:11:09.999Z</time></trkpt><trkpt lat="44.085682301105145" lon="11.245353474078767"><ele>762.5</ele><time>2026-04-11T15:11:10.999Z</time></trkpt><trkpt lat="44.0855890160705" lon="11.245472583210535"><ele>761.25</ele><time>2026-04-11T15:11:11.999Z</time></trkpt><trkpt lat="44.085523091772565" lon="11.245616305105122"><ele>760.0</ele><time>2026-04-11T15:11:12.999Z</time></trkpt><trkpt lat="44.08549898472543" lon="11.245762951401032"><ele>760.0</ele><time>2026-04-11T15:11:13.999Z</time></trkpt><trkpt lat="44.08549154107844" lon="11.245853703820929"><ele>760.0</ele><time>2026-04-11T15:11:14.999Z</time></trkpt><trkpt lat="44.08556705046273" lon="11.246064715763012"><ele>760.0</ele><time>2026-04-11T15:11:16.999Z</time></trkpt><trkpt lat="44.08566755596737" lon="11.246318866448064"><ele>760.0</ele><time>2026-04-11T15:11:17.999Z</time></trkpt><trkpt lat="44.085750090458234" lon="11.246438416896407"><ele>761.2</ele><time>2026-04-11T15:11:18.999Z</time></trkpt><trkpt lat="44.08582470493119" lon="11.246540273979882"><ele>762.4</ele><time>2026-04-11T15:11:19.999Z</time></trkpt><trkpt lat="44.085898534183315" lon="11.246644973921507"><ele>763.5999999999999</ele><time>2026-04-11T15:11:20.999Z</time></trkpt><trkpt lat="44.08595932522832" lon="11.246747118553944"><ele>764.8</ele><time>2026-04-11T15:11:21.999Z</time></trkpt><trkpt lat="44.086002890526345" lon="11.246853667836394"><ele>766.0</ele><time>2026-04-11T15:11:22.999Z</time></trkpt><trkpt lat="44.086018300450974" lon="11.246993413318165"><ele>766.0</ele><time>2026-04-11T15:11:23.999Z</time></trkpt><trkpt lat="44.086024202241624" lon="11.247153647141902"><ele>766.0</ele><time>2026-04-11T15:11:24.999Z</time></trkpt><trkpt lat="44.086031781277796" lon="11.247346177364381"><ele>766.0</ele><time>2026-04-11T15:11:25.999Z</time></trkpt><trkpt lat="44.08601265960258" lon="11.24755305954899"><ele>766.0</ele><time>2026-04-11T15:11:26.999Z</time></trkpt><trkpt lat="44.08599400301715" lon="11.247770298304651"><ele>765.0</ele><time>2026-04-11T15:11:27.999Z</time></trkpt><trkpt lat="44.08598568454198" lon="11.247998058341613"><ele>764.0</ele><time>2026-04-11T15:11:29.001Z</time></trkpt><trkpt lat="44.085978954073106" lon="11.248212562583007"><ele>763.0</ele><time>2026-04-11T15:11:30.001Z</time></trkpt><trkpt lat="44.08597593511309" lon="11.248409409672764"><ele>762.8333333333334</ele><time>2026-04-11T15:11:31Z</time></trkpt><trkpt lat="44.085974708729395" lon="11.24855961952488"><ele>762.6666666666667</ele><time>2026-04-11T15:11:32.001Z</time></trkpt><trkpt lat="44.08597943063288" lon="11.248656173180168"><ele>762.5</ele><time>2026-04-11T15:11:33.001Z</time></trkpt><trkpt lat="44.08598405048937" lon="11.248757306246427"><ele>762.3333333333334</ele><time>2026-04-11T15:11:35Z</time></trkpt><trkpt lat="44.08602691508692" lon="11.248688751456822"><ele>762.1666666666666</ele><time>2026-04-11T15:11:38Z</time></trkpt><trkpt lat="44.086026104621666" lon="11.248555939277248"><ele>762.0</ele><time>2026-04-11T15:11:40Z</time></trkpt><trkpt lat="44.08602676130482" lon="11.248398443154466"><ele>762.0</ele><time>2026-04-11T15:11:42Z</time></trkpt><trkpt lat="44.086025161577226" lon="11.248297563256608"><ele>762.0</ele><time>2026-04-11T15:11:43Z</time></trkpt><trkpt lat="44.086020842917804" lon="11.248179837393755"><ele>762.0</ele><time>2026-04-11T15:11:44Z</time></trkpt><trkpt lat="44.08602637657304" lon="11.248031815407485"><ele>762.0</ele><time>2026-04-11T15:11:45Z</time></trkpt><trkpt lat="44.08603328420434" lon="11.247868041482882"><ele>762.0</ele><time>2026-04-11T15:11:46Z</time></trkpt><trkpt lat="44.086044420062436" lon="11.247669241038073"><ele>762.25</ele><time>2026-04-11T15:11:47Z</time></trkpt><trkpt lat="44.0860628980533" lon="11.24746508127415"><ele>762.5</ele><time>2026-04-11T15:11:48Z</time></trkpt><trkpt lat="44.086072825242674" lon="11.247260140133507"><ele>762.75</ele><time>2026-04-11T15:11:49Z</time></trkpt><trkpt lat="44.08606924688735" lon="11.247073535034497"><ele>763.0</ele><time>2026-04-11T15:11:50Z</time></trkpt><trkpt lat="44.08606040429015" lon="11.246905186654994"><ele>763.5</ele><time>2026-04-11T15:11:51Z</time></trkpt><trkpt lat="44.08604422451428" lon="11.246803296615377"><ele>764.0</ele><time>2026-04-11T15:11:52Z</time></trkpt><trkpt lat="44.085995105622295" lon="11.246715556711044"><ele>764.5</ele><time>2026-04-11T15:11:53Z</time></trkpt><trkpt lat="44.08595812040731" lon="11.246640968375058"><ele>765.0</ele><time>2026-04-11T15:11:55Z</time></trkpt><trkpt lat="44.086037854565966" lon="11.24658116678102"><ele>765.5</ele><time>2026-04-11T15:11:58Z</time></trkpt><trkpt lat="44.08610241026647" lon="11.246545895859585"><ele>766.0</ele><time>2026-04-11T15:12:00Z</time></trkpt><trkpt lat="44.08619502182318" lon="11.246546460216978"><ele>766.0</ele><time>2026-04-11T15:12:02Z</time></trkpt><trkpt lat="44.08631557437725" lon="11.246603603983246"><ele>766.0</ele><time>2026-04-11T15:12:04Z</time></trkpt><trkpt lat="44.086380487911356" lon="11.246669890363814"><ele>766.0</ele><time>2026-04-11T15:12:05Z</time></trkpt><trkpt lat="44.08642982980707" lon="11.246754174846028"><ele>766.0</ele><time>2026-04-11T15:12:06Z</time></trkpt><trkpt lat="44.08644920165772" lon="11.24686583960546"><ele>766.0</ele><time>2026-04-11T15:12:07Z</time></trkpt><trkpt lat="44.08645101340532" lon="11.246982794879589"><ele>766.0</ele><time>2026-04-11T15:12:08Z</time></trkpt><trkpt lat="44.08645097911863" lon="11.247090302146136"><ele>766.0</ele><time>2026-04-11T15:12:09Z</time></trkpt><trkpt lat="44.08642160387287" lon="11.247254391826289"><ele>766.0</ele><time>2026-04-11T15:12:10Z</time></trkpt><trkpt lat="44.08640205906945" lon="11.24738638086695"><ele>766.0</ele><time>2026-04-11T15:12:11Z</time></trkpt><trkpt lat="44.0863931989909" lon="11.247520057990263"><ele>766.0</ele><time>2026-04-11T15:12:12Z</time></trkpt><trkpt lat="44.0863966644601" lon="11.247663640373846"><ele>765.4</ele><time>2026-04-11T15:12:13Z</time></trkpt><trkpt lat="44.08640638485689" lon="11.24780704131477"><ele>764.8</ele><time>2026-04-11T15:12:14Z</time></trkpt><trkpt lat="44.08641374770085" lon="11.247935664139767"><ele>764.1999999999999</ele><time>2026-04-11T15:12:15Z</time></trkpt><trkpt lat="44.086441555118526" lon="11.24806384938599"><ele>763.5999999999999</ele><time>2026-04-11T15:12:16Z</time></trkpt><trkpt lat="44.08643900448064" lon="11.248282658365154"><ele>763.0</ele><time>2026-04-11T15:12:18Z</time></trkpt><trkpt lat="44.08640932441636" lon="11.248413238013828"><ele>762.8</ele><time>2026-04-11T15:12:19Z</time></trkpt><trkpt lat="44.0863591401803" lon="11.248538845759322"><ele>762.5999999999999</ele><time>2026-04-11T15:12:20Z</time></trkpt><trkpt lat="44.086342748721364" lon="11.248655904633907"><ele>762.4000000000001</ele><time>2026-04-11T15:12:21Z</time></trkpt><trkpt lat="44.08631230873144" lon="11.248758714967217"><ele>762.2</ele><time>2026-04-11T15:12:22Z</time></trkpt><trkpt lat="44.086315849249225" lon="11.248945855261388"><ele>762.0</ele><time>2026-04-11T15:12:24Z</time></trkpt><trkpt lat="44.08635921348582" lon="11.249053034178894"><ele>760.8333333333334</ele><time>2026-04-11T15:12:25Z</time></trkpt><trkpt lat="44.08642529069645" lon="11.249143817077071"><ele>759.6666666666666</ele><time>2026-04-11T15:12:26Z</time></trkpt><trkpt lat="44.08649193332604" lon="11.249202156365124"><ele>758.5</ele><time>2026-04-11T15:12:27Z</time></trkpt><trkpt lat="44.0865618039459" lon="11.249234925729729"><ele>757.3333333333333</ele><time>2026-04-11T15:12:28Z</time></trkpt><trkpt lat="44.086658069910044" lon="11.249246991532019"><ele>756.1666666666666</ele><time>2026-04-11T15:12:29Z</time></trkpt><trkpt lat="44.08675257133215" lon="11.249259111529962"><ele>755.0</ele><time>2026-04-11T15:12:30Z</time></trkpt><trkpt lat="44.086881615418946" lon="11.24928217683502"><ele>762.25</ele><time>2026-04-11T15:12:31Z</time></trkpt><trkpt lat="44.08700299449643" lon="11.249314320005231"><ele>769.5</ele><time>2026-04-11T15:12:31.999Z</time></trkpt><trkpt lat="44.08712739363449" lon="11.249343176276843"><ele>776.75</ele><time>2026-04-11T15:12:32.999Z</time></trkpt><trkpt lat="44.08723256759662" lon="11.249362887884793"><ele>784.0</ele><time>2026-04-11T15:12:33.999Z</time></trkpt><trkpt lat="44.08733297480728" lon="11.24936278277005"><ele>787.0</ele><time>2026-04-11T15:12:34.999Z</time></trkpt><trkpt lat="44.08743503543105" lon="11.249419028050625"><ele>790.0</ele><time>2026-04-11T15:12:35.999Z</time></trkpt><trkpt lat="44.087524684253765" lon="11.249511415455586"><ele>793.0</ele><time>2026-04-11T15:12:36.999Z</time></trkpt><trkpt lat="44.08762164842069" lon="11.249593687934205"><ele>796.0</ele><time>2026-04-11T15:12:37.999Z</time></trkpt><trkpt lat="44.087718996065696" lon="11.249653490447814"><ele>799.0</ele><time>2026-04-11T15:12:38.999Z</time></trkpt><trkpt lat="44.08782639080737" lon="11.249694983365709"><ele>799.0</ele><time>2026-04-11T15:12:39.999Z</time></trkpt><trkpt lat="44.08791565435889" lon="11.249749510714157"><ele>799.0</ele><time>2026-04-11T15:12:40.999Z</time></trkpt><trkpt lat="44.08800955280268" lon="11.249790874717805"><ele>799.0</ele><time>2026-04-11T15:12:41.999Z</time></trkpt><trkpt lat="44.08810633046402" lon="11.249835356392081"><ele>799.0</ele><time>2026-04-11T15:12:42.999Z</time></trkpt><trkpt lat="44.08821813091486" lon="11.2498791895474"><ele>799.0</ele><time>2026-04-11T15:12:43.999Z</time></trkpt><trkpt lat="44.08832161235153" lon="11.249953079221463"><ele>798.8000000000001</ele><time>2026-04-11T15:12:44.999Z</time></trkpt><trkpt lat="44.08841214966237" lon="11.250005246169199"><ele>798.6</ele><time>2026-04-11T15:12:45.999Z</time></trkpt><trkpt lat="44.088518097535534" lon="11.250068603494391"><ele>798.4</ele><time>2026-04-11T15:12:46.999Z</time></trkpt><trkpt lat="44.088606211066825" lon="11.250110212310648"><ele>798.2</ele><time>2026-04-11T15:12:47.999Z</time></trkpt><trkpt lat="44.08871035287254" lon="11.250162771874997"><ele>798.0</ele><time>2026-04-11T15:12:48.999Z</time></trkpt><trkpt lat="44.08881678317732" lon="11.250245105428844"><ele>798.0</ele><time>2026-04-11T15:12:49.999Z</time></trkpt><trkpt lat="44.08891834650611" lon="11.250309829796617"><ele>798.0</ele><time>2026-04-11T15:12:50.999Z</time></trkpt><trkpt lat="44.089022267728325" lon="11.250386493406166"><ele>798.0</ele><time>2026-04-11T15:12:51.999Z</time></trkpt><trkpt lat="44.089123866088634" lon="11.250463248100889"><ele>798.0</ele><time>2026-04-11T15:12:52.999Z</time></trkpt><trkpt lat="44.089221824453" lon="11.25053339863457"><ele>798.5999999999999</ele><time>2026-04-11T15:12:53.999Z</time></trkpt><trkpt lat="44.08932295057136" lon="11.250615602760519"><ele>799.1999999999999</ele><time>2026-04-11T15:12:54.999Z</time></trkpt><trkpt lat="44.08942111554326" lon="11.250678199404792"><ele>799.8</ele><time>2026-04-11T15:12:55.999Z</time></trkpt><trkpt lat="44.089511910248525" lon="11.250738212157339"><ele>800.4</ele><time>2026-04-11T15:12:56.999Z</time></trkpt><trkpt lat="44.08959387503153" lon="11.250766091363054"><ele>801.0</ele><time>2026-04-11T15:12:57.999Z</time></trkpt><trkpt lat="44.08966177119166" lon="11.250807318744153"><ele>801.0</ele><time>2026-04-11T15:12:58.999Z</time></trkpt><trkpt lat="44.08979603870667" lon="11.250923790584654"><ele>801.0</ele><time>2026-04-11T15:13:00.999Z</time></trkpt><trkpt lat="44.089861266382286" lon="11.25101273418887"><ele>801.0</ele><time>2026-04-11T15:13:01.999Z</time></trkpt><trkpt lat="44.0899160322717" lon="11.251129053050416"><ele>801.0</ele><time>2026-04-11T15:13:02.999Z</time></trkpt><trkpt lat="44.089952821948096" lon="11.251261731969675"><ele>801.1999999999999</ele><time>2026-04-11T15:13:03.999Z</time></trkpt><trkpt lat="44.08996987284655" lon="11.251379750088628"><ele>801.4</ele><time>2026-04-11T15:13:04.999Z</time></trkpt><trkpt lat="44.08992490774999" lon="11.251532919862473"><ele>801.6</ele><time>2026-04-11T15:13:06.999Z</time></trkpt><trkpt lat="44.08984215267602" lon="11.251649857284908"><ele>801.8</ele><time>2026-04-11T15:13:08.999Z</time></trkpt><trkpt lat="44.08978981605969" lon="11.251707430640453"><ele>802.0</ele><time>2026-04-11T15:13:09.999Z</time></trkpt><trkpt lat="44.08975482707908" lon="11.251814933110564"><ele>802.0</ele><time>2026-04-11T15:13:10.999Z</time></trkpt><trkpt lat="44.0897243272289" lon="11.25195354109102"><ele>802.0</ele><time>2026-04-11T15:13:11.999Z</time></trkpt><trkpt lat="44.0896823116026" lon="11.252111811204822"><ele>802.0</ele><time>2026-04-11T15:13:12.999Z</time></trkpt><trkpt lat="44.08964080808157" lon="11.252251455286146"><ele>802.0</ele><time>2026-04-11T15:13:13.999Z</time></trkpt><trkpt lat="44.089615678651015" lon="11.252367619385785"><ele>802.0</ele><time>2026-04-11T15:13:14.999Z</time></trkpt><trkpt lat="44.089611015712585" lon="11.252466875898667"><ele>801.8</ele><time>2026-04-11T15:13:15.999Z</time></trkpt><trkpt lat="44.089625349513135" lon="11.252556901873232"><ele>801.6</ele><time>2026-04-11T15:13:16.999Z</time></trkpt><trkpt lat="44.089674969848815" lon="11.25271869896584"><ele>801.4</ele><time>2026-04-11T15:13:18.999Z</time></trkpt><trkpt lat="44.089721006464366" lon="11.252822398901253"><ele>801.1999999999999</ele><time>2026-04-11T15:13:19.999Z</time></trkpt><trkpt lat="44.089761345741145" lon="11.252943216171975"><ele>801.0</ele><time>2026-04-11T15:13:20.999Z</time></trkpt><trkpt lat="44.0897873142805" lon="11.253048638148849"><ele>801.4</ele><time>2026-04-11T15:13:21.999Z</time></trkpt><trkpt lat="44.08982945852956" lon="11.253161900056819"><ele>801.8</ele><time>2026-04-11T15:13:22.999Z</time></trkpt><trkpt lat="44.089849433512434" lon="11.253274283477678"><ele>802.1999999999999</ele><time>2026-04-11T15:13:23.999Z</time></trkpt><trkpt lat="44.08986673947385" lon="11.253396208561263"><ele>802.5999999999999</ele><time>2026-04-11T15:13:24.999Z</time></trkpt><trkpt lat="44.08986629802521" lon="11.253533008529294"><ele>803.0</ele><time>2026-04-11T15:13:25.999Z</time></trkpt><trkpt lat="44.08985887595755" lon="11.253665902517152"><ele>803.0</ele><time>2026-04-11T15:13:26.999Z</time></trkpt><trkpt lat="44.08985317078565" lon="11.25381160458147"><ele>803.0</ele><time>2026-04-11T15:13:27.999Z</time></trkpt><trkpt lat="44.089832402046504" lon="11.25395748523634"><ele>803.0</ele><time>2026-04-11T15:13:28.999Z</time></trkpt><trkpt lat="44.089806377057336" lon="11.254091430468742"><ele>803.0</ele><time>2026-04-11T15:13:29.999Z</time></trkpt><trkpt lat="44.089782401900976" lon="11.254226417090512"><ele>803.0</ele><time>2026-04-11T15:13:30.999Z</time></trkpt><trkpt lat="44.08974633268557" lon="11.254362807726666"><ele>804.2</ele><time>2026-04-11T15:13:31.999Z</time></trkpt><trkpt lat="44.08968786772911" lon="11.254516156832292"><ele>805.4</ele><time>2026-04-11T15:13:32.999Z</time></trkpt><trkpt lat="44.08964210724595" lon="11.254639993256886"><ele>806.6</ele><time>2026-04-11T15:13:33.999Z</time></trkpt><trkpt lat="44.089608401872916" lon="11.254771257250418"><ele>807.8000000000001</ele><time>2026-04-11T15:13:35Z</time></trkpt><trkpt lat="44.08957244500582" lon="11.254901748612612"><ele>809.0</ele><time>2026-04-11T15:13:36Z</time></trkpt><trkpt lat="44.08951491827132" lon="11.255028176521634"><ele>810.8000000000001</ele><time>2026-04-11T15:13:37Z</time></trkpt><trkpt lat="44.08945113680985" lon="11.25513568312896"><ele>812.6</ele><time>2026-04-11T15:13:38Z</time></trkpt><trkpt lat="44.08940123840374" lon="11.255249267866825"><ele>814.4</ele><time>2026-04-11T15:13:39Z</time></trkpt><trkpt lat="44.08933620426058" lon="11.255353652703075"><ele>816.2</ele><time>2026-04-11T15:13:40Z</time></trkpt><trkpt lat="44.08926536766474" lon="11.255481347730658"><ele>818.0</ele><time>2026-04-11T15:13:41Z</time></trkpt><trkpt lat="44.08919347858054" lon="11.255619126887598"><ele>819.5</ele><time>2026-04-11T15:13:42Z</time></trkpt><trkpt lat="44.08915270797483" lon="11.255764953580908"><ele>821.0</ele><time>2026-04-11T15:13:43Z</time></trkpt><trkpt lat="44.0891308642691" lon="11.255962451935657"><ele>822.5</ele><time>2026-04-11T15:13:44Z</time></trkpt><trkpt lat="44.089093192360004" lon="11.256132888261487"><ele>824.0</ele><time>2026-04-11T15:13:45Z</time></trkpt><trkpt lat="44.08907239185283" lon="11.256305381271495"><ele>822.75</ele><time>2026-04-11T15:13:46Z</time></trkpt><trkpt lat="44.089058873155246" lon="11.256489365748562"><ele>821.5</ele><time>2026-04-11T15:13:47Z</time></trkpt><trkpt lat="44.089061670624695" lon="11.256654971771782"><ele>820.25</ele><time>2026-04-11T15:13:48Z</time></trkpt><trkpt lat="44.08905528875265" lon="11.256805550100882"><ele>819.0</ele><time>2026-04-11T15:13:49Z</time></trkpt><trkpt lat="44.08903535091313" lon="11.256956768636272"><ele>819.0</ele><time>2026-04-11T15:13:50Z</time></trkpt><trkpt lat="44.088993588027535" lon="11.257103277954906"><ele>819.0</ele><time>2026-04-11T15:13:51Z</time></trkpt><trkpt lat="44.08893723275559" lon="11.257280863542722"><ele>819.0</ele><time>2026-04-11T15:13:52Z</time></trkpt><trkpt lat="44.088910846378305" lon="11.257451250423268"><ele>819.0</ele><time>2026-04-11T15:13:53Z</time></trkpt><trkpt lat="44.088921908207794" lon="11.257620552159262"><ele>821.0</ele><time>2026-04-11T15:13:54Z</time></trkpt><trkpt lat="44.08895130502001" lon="11.25778146177231"><ele>823.0</ele><time>2026-04-11T15:13:55Z</time></trkpt><trkpt lat="44.089000377034225" lon="11.257945517751992"><ele>825.0</ele><time>2026-04-11T15:13:56Z</time></trkpt><trkpt lat="44.08903016344434" lon="11.25811389317201"><ele>827.0</ele><time>2026-04-11T15:13:57Z</time></trkpt><trkpt lat="44.089029568337864" lon="11.258272646861657"><ele>831.0</ele><time>2026-04-11T15:13:58Z</time></trkpt><trkpt lat="44.089048333634565" lon="11.258460306841346"><ele>835.0</ele><time>2026-04-11T15:13:59Z</time></trkpt><trkpt lat="44.0890530730989" lon="11.258668242926147"><ele>839.0</ele><time>2026-04-11T15:14:00Z</time></trkpt><trkpt lat="44.08906495836139" lon="11.25884899897376"><ele>843.0</ele><time>2026-04-11T15:14:01Z</time></trkpt><trkpt lat="44.08909139068548" lon="11.2590027099039"><ele>844.8</ele><time>2026-04-11T15:14:02Z</time></trkpt><trkpt lat="44.089121264198624" lon="11.259135246936061"><ele>846.5999999999999</ele><time>2026-04-11T15:14:03Z</time></trkpt><trkpt lat="44.08917305495107" lon="11.259251098915533"><ele>848.4000000000001</ele><time>2026-04-11T15:14:04Z</time></trkpt><trkpt lat="44.089226212475495" lon="11.259339453538237"><ele>850.2</ele><time>2026-04-11T15:14:05Z</time></trkpt><trkpt lat="44.08931379486711" lon="11.259436567239923"><ele>852.0</ele><time>2026-04-11T15:14:06Z</time></trkpt><trkpt lat="44.089409520576424" lon="11.259534315001027"><ele>852.0</ele><time>2026-04-11T15:14:07Z</time></trkpt><trkpt lat="44.08951095195442" lon="11.259639444791258"><ele>852.0</ele><time>2026-04-11T15:14:08Z</time></trkpt><trkpt lat="44.089619594592584" lon="11.259739963192025"><ele>852.0</ele><time>2026-04-11T15:14:09Z</time></trkpt><trkpt lat="44.08971867657996" lon="11.259841831025616"><ele>852.0</ele><time>2026-04-11T15:14:10Z</time></trkpt><trkpt lat="44.089793064184825" lon="11.259913593499844"><ele>853.6</ele><time>2026-04-11T15:14:11Z</time></trkpt><trkpt lat="44.08985537612481" lon="11.260021345341926"><ele>855.2</ele><time>2026-04-11T15:14:12Z</time></trkpt><trkpt lat="44.08991048409821" lon="11.260152663629441"><ele>856.8</ele><time>2026-04-11T15:14:13Z</time></trkpt><trkpt lat="44.08993721955584" lon="11.260267575780773"><ele>858.4</ele><time>2026-04-11T15:14:14Z</time></trkpt><trkpt lat="44.08993510895052" lon="11.260375673849188"><ele>860.0</ele><time>2026-04-11T15:14:15Z</time></trkpt><trkpt lat="44.08992390110289" lon="11.26048166393216"><ele>860.8</ele><time>2026-04-11T15:14:16Z</time></trkpt><trkpt lat="44.08985486225139" lon="11.260581610625984"><ele>861.6</ele><time>2026-04-11T15:14:17Z</time></trkpt><trkpt lat="44.089774319520664" lon="11.260692718399264"><ele>862.4000000000001</ele><time>2026-04-11T15:14:18Z</time></trkpt><trkpt lat="44.089693088318185" lon="11.26078397467099"><ele>863.2</ele><time>2026-04-11T15:14:19Z</time></trkpt><trkpt lat="44.08961216344883" lon="11.2608948976224"><ele>864.0</ele><time>2026-04-11T15:14:20Z</time></trkpt><trkpt lat="44.089545128256844" lon="11.26102226369936"><ele>865.0</ele><time>2026-04-11T15:14:21Z</time></trkpt><trkpt lat="44.089495150741584" lon="11.261166258292747"><ele>866.0000000000001</ele><time>2026-04-11T15:14:22Z</time></trkpt><trkpt lat="44.089457267324036" lon="11.261299513256127"><ele>867.0000000000001</ele><time>2026-04-11T15:14:23Z</time></trkpt><trkpt lat="44.08944239499101" lon="11.261453775900577"><ele>868.0</ele><time>2026-04-11T15:14:24Z</time></trkpt><trkpt lat="44.08945039889808" lon="11.261613969313037"><ele>869.0</ele><time>2026-04-11T15:14:25Z</time></trkpt><trkpt lat="44.089464421656494" lon="11.26177290307872"><ele>869.0</ele><time>2026-04-11T15:14:26Z</time></trkpt><trkpt lat="44.089464892245" lon="11.261927097447025"><ele>869.0</ele><time>2026-04-11T15:14:27Z</time></trkpt><trkpt lat="44.08946679632175" lon="11.26206691369685"><ele>869.0</ele><time>2026-04-11T15:14:28Z</time></trkpt><trkpt lat="44.089451499121715" lon="11.262261991547721"><ele>869.0</ele><time>2026-04-11T15:14:29Z</time></trkpt><trkpt lat="44.089438046474434" lon="11.262428929945237"><ele>868.0</ele><time>2026-04-11T15:14:30Z</time></trkpt><trkpt lat="44.08941892853623" lon="11.262589555292893"><ele>867.0</ele><time>2026-04-11T15:14:31Z</time></trkpt><trkpt lat="44.089393618323335" lon="11.262760028284939"><ele>866.0</ele><time>2026-04-11T15:14:31.999Z</time></trkpt><trkpt lat="44.08939145634496" lon="11.262918077157481"><ele>865.0</ele><time>2026-04-11T15:14:32.999Z</time></trkpt><trkpt lat="44.08939433687327" lon="11.263061167721517"><ele>864.75</ele><time>2026-04-11T15:14:33.999Z</time></trkpt><trkpt lat="44.08940733598248" lon="11.263213406154971"><ele>864.5</ele><time>2026-04-11T15:14:34.999Z</time></trkpt><trkpt lat="44.089427041269616" lon="11.263387478530683"><ele>864.25</ele><time>2026-04-11T15:14:35.999Z</time></trkpt><trkpt lat="44.089451109646795" lon="11.263554919565177"><ele>864.0</ele><time>2026-04-11T15:14:36.999Z</time></trkpt><trkpt lat="44.08946025121295" lon="11.263720496048126"><ele>864.0</ele><time>2026-04-11T15:14:37.999Z</time></trkpt><trkpt lat="44.08946602039744" lon="11.263896542130416"><ele>864.0</ele><time>2026-04-11T15:14:38.999Z</time></trkpt><trkpt lat="44.08946309951194" lon="11.264074439096355"><ele>864.0</ele><time>2026-04-11T15:14:39.999Z</time></trkpt><trkpt lat="44.089476408081104" lon="11.264248182934839"><ele>864.0</ele><time>2026-04-11T15:14:40.999Z</time></trkpt><trkpt lat="44.08954518677848" lon="11.264429306243645"><ele>865.2</ele><time>2026-04-11T15:14:41.999Z</time></trkpt><trkpt lat="44.08960263542069" lon="11.26461027708407"><ele>866.4000000000001</ele><time>2026-04-11T15:14:42.999Z</time></trkpt><trkpt lat="44.08963862803295" lon="11.264740593139546"><ele>867.6</ele><time>2026-04-11T15:14:43.999Z</time></trkpt><trkpt lat="44.08964056019255" lon="11.264869783137414"><ele>868.8</ele><time>2026-04-11T15:14:44.999Z</time></trkpt><trkpt lat="44.089707397117806" lon="11.264990841529128"><ele>870.0</ele><time>2026-04-11T15:14:45.999Z</time></trkpt><trkpt lat="44.08978536665813" lon="11.265093299301533"><ele>871.4</ele><time>2026-04-11T15:14:46.999Z</time></trkpt><trkpt lat="44.08987771263101" lon="11.265174423497989"><ele>872.8</ele><time>2026-04-11T15:14:47.999Z</time></trkpt><trkpt lat="44.08996188560274" lon="11.265221756417306"><ele>874.2</ele><time>2026-04-11T15:14:48.999Z</time></trkpt><trkpt lat="44.09002495220132" lon="11.265250675966941"><ele>875.6</ele><time>2026-04-11T15:14:49.999Z</time></trkpt><trkpt lat="44.09008784980397" lon="11.265284105261028"><ele>877.0</ele><time>2026-04-11T15:14:50.999Z</time></trkpt><trkpt lat="44.090180914950416" lon="11.265435502001402"><ele>877.8</ele><time>2026-04-11T15:14:52.999Z</time></trkpt><trkpt lat="44.090216856618134" lon="11.265554001998703"><ele>878.6</ele><time>2026-04-11T15:14:53.999Z</time></trkpt><trkpt lat="44.0902429507729" lon="11.265664241857877"><ele>879.3999999999999</ele><time>2026-04-11T15:14:54.999Z</time></trkpt><trkpt lat="44.09029384332274" lon="11.265796528178388"><ele>880.1999999999999</ele><time>2026-04-11T15:14:55.999Z</time></trkpt><trkpt lat="44.090361477923274" lon="11.265904720494547"><ele>881.0</ele><time>2026-04-11T15:14:56.999Z</time></trkpt><trkpt lat="44.09043842408336" lon="11.266031438045392"><ele>881.8</ele><time>2026-04-11T15:14:57.999Z</time></trkpt><trkpt lat="44.09051391646253" lon="11.26618164153119"><ele>882.5999999999999</ele><time>2026-04-11T15:14:58.999Z</time></trkpt><trkpt lat="44.09058447999619" lon="11.266294546264573"><ele>883.4</ele><time>2026-04-11T15:14:59.999Z</time></trkpt><trkpt lat="44.090658834003484" lon="11.266393838853526"><ele>884.2</ele><time>2026-04-11T15:15:00.999Z</time></trkpt><trkpt lat="44.090709051791876" lon="11.266476510219627"><ele>885.0</ele><time>2026-04-11T15:15:01.999Z</time></trkpt><trkpt lat="44.090766588455146" lon="11.26658956064588"><ele>887.75</ele><time>2026-04-11T15:15:02.999Z</time></trkpt><trkpt lat="44.090832117806485" lon="11.266707857699902"><ele>890.5</ele><time>2026-04-11T15:15:03.999Z</time></trkpt><trkpt lat="44.09089705695053" lon="11.26683833469197"><ele>893.25</ele><time>2026-04-11T15:15:04.999Z</time></trkpt><trkpt lat="44.09094654268756" lon="11.266983631237714"><ele>896.0</ele><time>2026-04-11T15:15:05.999Z</time></trkpt><trkpt lat="44.090986898387506" lon="11.267135608190559"><ele>896.0</ele><time>2026-04-11T15:15:06.999Z</time></trkpt><trkpt lat="44.09102300416201" lon="11.267270759132293"><ele>895.9999999999999</ele><time>2026-04-11T15:15:07.999Z</time></trkpt><trkpt lat="44.09105568580208" lon="11.267409941533314"><ele>895.9999999999999</ele><time>2026-04-11T15:15:08.999Z</time></trkpt><trkpt lat="44.091088130745774" lon="11.267550998453942"><ele>896.0</ele><time>2026-04-11T15:15:09.999Z</time></trkpt><trkpt lat="44.09112041701735" lon="11.26771681049941"><ele>896.0</ele><time>2026-04-11T15:15:10.999Z</time></trkpt><trkpt lat="44.09115326895327" lon="11.267865663749077"><ele>895.8</ele><time>2026-04-11T15:15:11.999Z</time></trkpt><trkpt lat="44.09120485289991" lon="11.267985976347738"><ele>895.5999999999999</ele><time>2026-04-11T15:15:12.999Z</time></trkpt><trkpt lat="44.09126093031456" lon="11.268055467111685"><ele>895.4</ele><time>2026-04-11T15:15:13.999Z</time></trkpt><trkpt lat="44.0913302833882" lon="11.268134885575098"><ele>895.2</ele><time>2026-04-11T15:15:14.999Z</time></trkpt><trkpt lat="44.091421056278875" lon="11.268160384231185"><ele>895.0</ele><time>2026-04-11T15:15:15.999Z</time></trkpt><trkpt lat="44.09152567184271" lon="11.268157705033156"><ele>896.3333333333333</ele><time>2026-04-11T15:15:16.999Z</time></trkpt><trkpt lat="44.09160382813358" lon="11.268160863353717"><ele>897.6666666666666</ele><time>2026-04-11T15:15:17.999Z</time></trkpt><trkpt lat="44.09167716886075" lon="11.268179040239948"><ele>899.0</ele><time>2026-04-11T15:15:18.999Z</time></trkpt><trkpt lat="44.09177636417984" lon="11.268200476713577"><ele>900.3333333333333</ele><time>2026-04-11T15:15:19.999Z</time></trkpt><trkpt lat="44.09184930667119" lon="11.2682214010236"><ele>901.6666666666666</ele><time>2026-04-11T15:15:20.999Z</time></trkpt><trkpt lat="44.091926176044865" lon="11.268231428391312"><ele>903.0</ele><time>2026-04-11T15:15:21.999Z</time></trkpt><trkpt lat="44.09201668386851" lon="11.26825356190248"><ele>903.0</ele><time>2026-04-11T15:15:23.999Z</time></trkpt><trkpt lat="44.09211083696982" lon="11.26823373437956"><ele>903.0</ele><time>2026-04-11T15:15:25.999Z</time></trkpt><trkpt lat="44.09219183475204" lon="11.268243998915013"><ele>903.0</ele><time>2026-04-11T15:15:26.999Z</time></trkpt><trkpt lat="44.09228916288022" lon="11.268278737269794"><ele>903.0</ele><time>2026-04-11T15:15:27.999Z</time></trkpt><trkpt lat="44.092390504205056" lon="11.268309866798269"><ele>903.0</ele><time>2026-04-11T15:15:28.999Z</time></trkpt><trkpt lat="44.09248396053546" lon="11.268330159153484"><ele>903.0</ele><time>2026-04-11T15:15:29.999Z</time></trkpt><trkpt lat="44.09254276489208" lon="11.268363033774632"><ele>903.0</ele><time>2026-04-11T15:15:30.999Z</time></trkpt><trkpt lat="44.092565417859845" lon="11.268448716733944"><ele>903.0</ele><time>2026-04-11T15:15:33.999Z</time></trkpt><trkpt lat="44.09250884102423" lon="11.268581394154094"><ele>903.0</ele><time>2026-04-11T15:15:35.999Z</time></trkpt><trkpt lat="44.09243891995149" lon="11.268620166850736"><ele>903.0</ele><time>2026-04-11T15:15:36.999Z</time></trkpt><trkpt lat="44.09235455045861" lon="11.268718069975888"><ele>903.0</ele><time>2026-04-11T15:15:38.998Z</time></trkpt><trkpt lat="44.09229454338099" lon="11.26880051274821"><ele>903.0</ele><time>2026-04-11T15:15:41Z</time></trkpt><trkpt lat="44.092245179168756" lon="11.268910610286591"><ele>903.0</ele><time>2026-04-11T15:15:43Z</time></trkpt><trkpt lat="44.09229897145455" lon="11.269008779491417"><ele>903.0</ele><time>2026-04-11T15:15:47Z</time></trkpt><trkpt lat="44.092427501445144" lon="11.269075308050251"><ele>903.0</ele><time>2026-04-11T15:15:49Z</time></trkpt><trkpt lat="44.09251689432851" lon="11.269107153657515"><ele>903.0</ele><time>2026-04-11T15:15:50Z</time></trkpt><trkpt lat="44.0926169636792" lon="11.26914007476544"><ele>901.25</ele><time>2026-04-11T15:15:51Z</time></trkpt><trkpt lat="44.09272359417052" lon="11.269180683096774"><ele>899.5</ele><time>2026-04-11T15:15:52Z</time></trkpt><trkpt lat="44.0928432693776" lon="11.269226740420034"><ele>897.75</ele><time>2026-04-11T15:15:53Z</time></trkpt><trkpt lat="44.09297414301308" lon="11.26927920504056"><ele>896.0</ele><time>2026-04-11T15:15:54Z</time></trkpt><trkpt lat="44.09311115690465" lon="11.269333755551289"><ele>896.0</ele><time>2026-04-11T15:15:55Z</time></trkpt><trkpt lat="44.09324004141014" lon="11.269392536642536"><ele>896.0</ele><time>2026-04-11T15:15:56Z</time></trkpt><trkpt lat="44.09335731722475" lon="11.269442239902252"><ele>896.0</ele><time>2026-04-11T15:15:57Z</time></trkpt><trkpt lat="44.09346602329724" lon="11.26950026668254"><ele>896.0</ele><time>2026-04-11T15:15:58Z</time></trkpt><trkpt lat="44.09356229920296" lon="11.269593297791848"><ele>895.75</ele><time>2026-04-11T15:15:59Z</time></trkpt><trkpt lat="44.09362183113172" lon="11.269717011991606"><ele>895.5</ele><time>2026-04-11T15:16:00Z</time></trkpt><trkpt lat="44.09365834810742" lon="11.269878133188811"><ele>895.25</ele><time>2026-04-11T15:16:01Z</time></trkpt><trkpt lat="44.09369027594989" lon="11.27005273998897"><ele>895.0</ele><time>2026-04-11T15:16:02Z</time></trkpt><trkpt lat="44.093706071319765" lon="11.27025681601508"><ele>895.0</ele><time>2026-04-11T15:16:03Z</time></trkpt><trkpt lat="44.093728943238155" lon="11.270456488292883"><ele>895.0</ele><time>2026-04-11T15:16:04Z</time></trkpt><trkpt lat="44.09375977023832" lon="11.270689217884337"><ele>895.0</ele><time>2026-04-11T15:16:05Z</time></trkpt><trkpt lat="44.093792597510934" lon="11.270941522542406"><ele>894.0</ele><time>2026-04-11T15:16:06Z</time></trkpt><trkpt lat="44.0938254669386" lon="11.271207309229403"><ele>893.0</ele><time>2026-04-11T15:16:07Z</time></trkpt><trkpt lat="44.09385837290181" lon="11.271476906233676"><ele>892.0</ele><time>2026-04-11T15:16:08Z</time></trkpt><trkpt lat="44.09389221217755" lon="11.271765988349713"><ele>892.0</ele><time>2026-04-11T15:16:09Z</time></trkpt><trkpt lat="44.093925620296694" lon="11.272052709778704"><ele>892.0</ele><time>2026-04-11T15:16:10Z</time></trkpt><trkpt lat="44.093958143084755" lon="11.272322564105057"><ele>892.0</ele><time>2026-04-11T15:16:11Z</time></trkpt><trkpt lat="44.0939933832272" lon="11.272594828673256"><ele>891.0</ele><time>2026-04-11T15:16:12Z</time></trkpt><trkpt lat="44.09403207087224" lon="11.272890986393932"><ele>890.0</ele><time>2026-04-11T15:16:13Z</time></trkpt><trkpt lat="44.094065074039186" lon="11.273200912586287"><ele>889.0</ele><time>2026-04-11T15:16:14Z</time></trkpt><trkpt lat="44.09407949705359" lon="11.27350636637191"><ele>888.0</ele><time>2026-04-11T15:16:15Z</time></trkpt><trkpt lat="44.094087682812365" lon="11.273804970447298"><ele>887.0</ele><time>2026-04-11T15:16:16Z</time></trkpt><trkpt lat="44.09409331924317" lon="11.274068903963128"><ele>886.0</ele><time>2026-04-11T15:16:17Z</time></trkpt><trkpt lat="44.09410000784029" lon="11.274318368243755"><ele>892.3333333333333</ele><time>2026-04-11T15:16:18Z</time></trkpt><trkpt lat="44.09411128550146" lon="11.274551306812315"><ele>898.6666666666667</ele><time>2026-04-11T15:16:19Z</time></trkpt><trkpt lat="44.0941218629081" lon="11.274768922727178"><ele>905.0</ele><time>2026-04-11T15:16:20Z</time></trkpt><trkpt lat="44.094136037938995" lon="11.27498640038376"><ele>905.0</ele><time>2026-04-11T15:16:21Z</time></trkpt><trkpt lat="44.09414662057563" lon="11.275173106425363"><ele>905.0</ele><time>2026-04-11T15:16:22Z</time></trkpt><trkpt lat="44.09414733473808" lon="11.275334959906047"><ele>905.0</ele><time>2026-04-11T15:16:23Z</time></trkpt><trkpt lat="44.09412567183601" lon="11.275472724870871"><ele>905.0</ele><time>2026-04-11T15:16:24Z</time></trkpt><trkpt lat="44.09407307236719" lon="11.275622365410849"><ele>902.0</ele><time>2026-04-11T15:16:25Z</time></trkpt><trkpt lat="44.09400182808776" lon="11.275766136973358"><ele>899.0</ele><time>2026-04-11T15:16:26Z</time></trkpt><trkpt lat="44.09393330513252" lon="11.275893009341265"><ele>896.0</ele><time>2026-04-11T15:16:27Z</time></trkpt><trkpt lat="44.09389108650795" lon="11.276016960567729"><ele>893.0</ele><time>2026-04-11T15:16:28Z</time></trkpt><trkpt lat="44.093884801872086" lon="11.276129256018987"><ele>890.0</ele><time>2026-04-11T15:16:29Z</time></trkpt><trkpt lat="44.093906062932454" lon="11.276223142206701"><ele>890.0</ele><time>2026-04-11T15:16:30Z</time></trkpt><trkpt lat="44.09397379966432" lon="11.276320013616074"><ele>890.0</ele><time>2026-04-11T15:16:32Z</time></trkpt><trkpt lat="44.093988397981605" lon="11.276412543268817"><ele>890.0</ele><time>2026-04-11T15:16:32.999Z</time></trkpt><trkpt lat="44.09400478864791" lon="11.27650417205201"><ele>890.0</ele><time>2026-04-11T15:16:33.999Z</time></trkpt><trkpt lat="44.09404078786702" lon="11.276589254041507"><ele>890.0</ele><time>2026-04-11T15:16:34.999Z</time></trkpt><trkpt lat="44.094100677010225" lon="11.276633700920925"><ele>890.0</ele><time>2026-04-11T15:16:35.999Z</time></trkpt><trkpt lat="44.094169065949146" lon="11.276634502008715"><ele>890.0</ele><time>2026-04-11T15:16:36.999Z</time></trkpt><trkpt lat="44.09426951363205" lon="11.276536661288942"><ele>892.8</ele><time>2026-04-11T15:16:38.999Z</time></trkpt><trkpt lat="44.09430640365168" lon="11.27641369274227"><ele>895.6</ele><time>2026-04-11T15:16:40.999Z</time></trkpt><trkpt lat="44.094272542404994" lon="11.276305006611036"><ele>898.4000000000001</ele><time>2026-04-11T15:16:45.999Z</time></trkpt><trkpt lat="44.094208541662525" lon="11.276162367887174"><ele>901.2</ele><time>2026-04-11T15:16:47.999Z</time></trkpt><trkpt lat="44.09421922271722" lon="11.276055504542317"><ele>904.0</ele><time>2026-04-11T15:16:48.999Z</time></trkpt><trkpt lat="44.09425476421765" lon="11.275963530324194"><ele>904.0</ele><time>2026-04-11T15:16:49.999Z</time></trkpt><trkpt lat="44.09431706575138" lon="11.275871030619049"><ele>904.0000000000001</ele><time>2026-04-11T15:16:50.999Z</time></trkpt><trkpt lat="44.09438294335101" lon="11.275757872061261"><ele>904.0000000000001</ele><time>2026-04-11T15:16:51.999Z</time></trkpt><trkpt lat="44.094443007999075" lon="11.275634668276703"><ele>904.0</ele><time>2026-04-11T15:16:52.999Z</time></trkpt><trkpt lat="44.09450214174824" lon="11.275486369365984"><ele>904.0</ele><time>2026-04-11T15:16:53.999Z</time></trkpt><trkpt lat="44.09457040264376" lon="11.275330224020175"><ele>904.25</ele><time>2026-04-11T15:16:54.999Z</time></trkpt><trkpt lat="44.09465780862294" lon="11.275176949615597"><ele>904.5</ele><time>2026-04-11T15:16:55.999Z</time></trkpt><trkpt lat="44.09476207934803" lon="11.275049503452738"><ele>904.75</ele><time>2026-04-11T15:16:56.999Z</time></trkpt><trkpt lat="44.09489693197279" lon="11.274955774649655"><ele>905.0</ele><time>2026-04-11T15:16:57.999Z</time></trkpt><trkpt lat="44.09504837649445" lon="11.274881800009437"><ele>908.3333333333334</ele><time>2026-04-11T15:16:58.999Z</time></trkpt><trkpt lat="44.09521131200162" lon="11.274803500535493"><ele>911.6666666666667</ele><time>2026-04-11T15:16:59.999Z</time></trkpt><trkpt lat="44.09537316558694" lon="11.274725887504363"><ele>915.0</ele><time>2026-04-11T15:17:00.999Z</time></trkpt><trkpt lat="44.09553131547672" lon="11.274647676451359"><ele>917.0</ele><time>2026-04-11T15:17:01.999Z</time></trkpt><trkpt lat="44.09568827565941" lon="11.27456368254973"><ele>919.0</ele><time>2026-04-11T15:17:02.999Z</time></trkpt><trkpt lat="44.095858066094884" lon="11.274480789466796"><ele>921.0</ele><time>2026-04-11T15:17:03.999Z</time></trkpt><trkpt lat="44.09602057622068" lon="11.274403569460421"><ele>923.6666666666667</ele><time>2026-04-11T15:17:04.999Z</time></trkpt><trkpt lat="44.096165034499414" lon="11.274324633893462"><ele>926.3333333333334</ele><time>2026-04-11T15:17:05.999Z</time></trkpt><trkpt lat="44.096299379560804" lon="11.274214715688693"><ele>929.0</ele><time>2026-04-11T15:17:06.999Z</time></trkpt><trkpt lat="44.096408501411126" lon="11.274069229851843"><ele>930.6666666666667</ele><time>2026-04-11T15:17:07.999Z</time></trkpt><trkpt lat="44.09650612816966" lon="11.273888243680478"><ele>932.3333333333333</ele><time>2026-04-11T15:17:08.999Z</time></trkpt><trkpt lat="44.09661338073529" lon="11.27367582913494"><ele>934.0</ele><time>2026-04-11T15:17:09.999Z</time></trkpt><trkpt lat="44.096706697994414" lon="11.273501358488959"><ele>935.0</ele><time>2026-04-11T15:17:10.999Z</time></trkpt><trkpt lat="44.09681095922172" lon="11.273316749019113"><ele>936.0</ele><time>2026-04-11T15:17:11.999Z</time></trkpt><trkpt lat="44.09686980112804" lon="11.273143476331105"><ele>937.0</ele><time>2026-04-11T15:17:12.999Z</time></trkpt><trkpt lat="44.09693866854107" lon="11.27299533001155"><ele>938.0</ele><time>2026-04-11T15:17:13.999Z</time></trkpt><trkpt lat="44.097020827214344" lon="11.272869174489516"><ele>939.0</ele><time>2026-04-11T15:17:14.999Z</time></trkpt><trkpt lat="44.097089392672935" lon="11.272697845683771"><ele>940.0</ele><time>2026-04-11T15:17:15.999Z</time></trkpt><trkpt lat="44.097181499933455" lon="11.272553679578861"><ele>941.0</ele><time>2026-04-11T15:17:16.999Z</time></trkpt><trkpt lat="44.097262628417724" lon="11.272401790836334"><ele>942.0</ele><time>2026-04-11T15:17:17.999Z</time></trkpt><trkpt lat="44.09734284099266" lon="11.272241871546958"><ele>942.0</ele><time>2026-04-11T15:17:18.999Z</time></trkpt><trkpt lat="44.09743038490047" lon="11.272088323175359"><ele>942.0</ele><time>2026-04-11T15:17:19.999Z</time></trkpt><trkpt lat="44.0975465637761" lon="11.271960785398706"><ele>942.0</ele><time>2026-04-11T15:17:20.999Z</time></trkpt><trkpt lat="44.09769339119326" lon="11.27188769224595"><ele>942.0</ele><time>2026-04-11T15:17:21.999Z</time></trkpt><trkpt lat="44.09785242396409" lon="11.271822113524241"><ele>942.0</ele><time>2026-04-11T15:17:22.999Z</time></trkpt><trkpt lat="44.098012848884245" lon="11.271753606903438"><ele>942.0</ele><time>2026-04-11T15:17:23.999Z</time></trkpt><trkpt lat="44.09816707137665" lon="11.271682198427003"><ele>942.0</ele><time>2026-04-11T15:17:24.999Z</time></trkpt><trkpt lat="44.09832376905304" lon="11.271516880050005"><ele>939.6666666666667</ele><time>2026-04-11T15:17:25.999Z</time></trkpt><trkpt lat="44.098486529957654" lon="11.271324600407851"><ele>937.3333333333334</ele><time>2026-04-11T15:17:26.999Z</time></trkpt><trkpt lat="44.09862025834891" lon="11.271121367557202"><ele>935.0</ele><time>2026-04-11T15:17:27.999Z</time></trkpt><trkpt lat="44.098696100908356" lon="11.270957445319668"><ele>935.0</ele><time>2026-04-11T15:17:28.999Z</time></trkpt><trkpt lat="44.09880665150684" lon="11.27076531130044"><ele>935.0</ele><time>2026-04-11T15:17:30.999Z</time></trkpt><trkpt lat="44.0989190281548" lon="11.270728802493736"><ele>935.0</ele><time>2026-04-11T15:17:31.999Z</time></trkpt><trkpt lat="44.0990566940492" lon="11.270749032046078"><ele>935.0</ele><time>2026-04-11T15:17:32.999Z</time></trkpt><trkpt lat="44.09921798768434" lon="11.270789427902201"><ele>934.0</ele><time>2026-04-11T15:17:33.999Z</time></trkpt><trkpt lat="44.09938941391698" lon="11.270693092156396"><ele>933.0</ele><time>2026-04-11T15:17:34.999Z</time></trkpt><trkpt lat="44.099557262219584" lon="11.27055269515142"><ele>932.0</ele><time>2026-04-11T15:17:35.999Z</time></trkpt><trkpt lat="44.099723975665384" lon="11.270391547585344"><ele>932.0</ele><time>2026-04-11T15:17:36.998Z</time></trkpt><trkpt lat="44.099873279972286" lon="11.270228784369353"><ele>932.0</ele><time>2026-04-11T15:17:37.998Z</time></trkpt><trkpt lat="44.09999818155573" lon="11.270093578108451"><ele>932.0</ele><time>2026-04-11T15:17:38.998Z</time></trkpt><trkpt lat="44.100121519571154" lon="11.26995793093316"><ele>929.0</ele><time>2026-04-11T15:17:39.998Z</time></trkpt><trkpt lat="44.10025544078215" lon="11.269835973836196"><ele>926.0</ele><time>2026-04-11T15:17:40.998Z</time></trkpt><trkpt lat="44.10040151574391" lon="11.269732231821195"><ele>923.0</ele><time>2026-04-11T15:17:41.998Z</time></trkpt><trkpt lat="44.100571599860196" lon="11.26964913311445"><ele>923.0</ele><time>2026-04-11T15:17:42.998Z</time></trkpt><trkpt lat="44.10074411015156" lon="11.26957757787588"><ele>923.0</ele><time>2026-04-11T15:17:43.998Z</time></trkpt><trkpt lat="44.100907931290905" lon="11.269513891521934"><ele>923.0</ele><time>2026-04-11T15:17:44.998Z</time></trkpt><trkpt lat="44.10105206716153" lon="11.269428728299317"><ele>928.3333333333334</ele><time>2026-04-11T15:17:45.998Z</time></trkpt><trkpt lat="44.10119687351682" lon="11.269308703179385"><ele>933.6666666666667</ele><time>2026-04-11T15:17:47Z</time></trkpt><trkpt lat="44.101320439333335" lon="11.269169625027258"><ele>939.0</ele><time>2026-04-11T15:17:48Z</time></trkpt><trkpt lat="44.101441511799855" lon="11.269015219370196"><ele>939.3333333333333</ele><time>2026-04-11T15:17:49Z</time></trkpt><trkpt lat="44.10156133348135" lon="11.268864011673301"><ele>939.6666666666666</ele><time>2026-04-11T15:17:50Z</time></trkpt><trkpt lat="44.10168183646395" lon="11.268720112141606"><ele>940.0</ele><time>2026-04-11T15:17:51Z</time></trkpt><trkpt lat="44.101793108173844" lon="11.268595139083601"><ele>940.0</ele><time>2026-04-11T15:17:52Z</time></trkpt><trkpt lat="44.101900911551255" lon="11.268477775907066"><ele>940.0</ele><time>2026-04-11T15:17:53Z</time></trkpt><trkpt lat="44.10199256201071" lon="11.268389698608058"><ele>940.0</ele><time>2026-04-11T15:17:54Z</time></trkpt><trkpt lat="44.102101839524195" lon="11.268351024202392"><ele>940.0</ele><time>2026-04-11T15:17:55Z</time></trkpt><trkpt lat="44.10223756895927" lon="11.268385698887236"><ele>940.0</ele><time>2026-04-11T15:17:56Z</time></trkpt><trkpt lat="44.102394252059725" lon="11.268401551532252"><ele>940.0</ele><time>2026-04-11T15:17:57Z</time></trkpt><trkpt lat="44.10256278654499" lon="11.268451297603002"><ele>940.0</ele><time>2026-04-11T15:17:58Z</time></trkpt><trkpt lat="44.10275552684239" lon="11.268489900369214"><ele>939.0</ele><time>2026-04-11T15:17:59Z</time></trkpt><trkpt lat="44.102959716949066" lon="11.268515641118519"><ele>938.0</ele><time>2026-04-11T15:18:00Z</time></trkpt><trkpt lat="44.10314985868937" lon="11.26855908181982"><ele>937.0</ele><time>2026-04-11T15:18:01Z</time></trkpt><trkpt lat="44.1033242441865" lon="11.268590943731574"><ele>934.3333333333333</ele><time>2026-04-11T15:18:02Z</time></trkpt><trkpt lat="44.10349331574522" lon="11.268625635376399"><ele>931.6666666666667</ele><time>2026-04-11T15:18:03Z</time></trkpt><trkpt lat="44.10366199925788" lon="11.268651509933912"><ele>929.0</ele><time>2026-04-11T15:18:04Z</time></trkpt><trkpt lat="44.10384731434333" lon="11.268649565801526"><ele>929.0</ele><time>2026-04-11T15:18:05Z</time></trkpt><trkpt lat="44.10403742379322" lon="11.268610975034308"><ele>929.0</ele><time>2026-04-11T15:18:06Z</time></trkpt><trkpt lat="44.1042357851862" lon="11.268556504887778"><ele>929.0</ele><time>2026-04-11T15:18:07Z</time></trkpt><trkpt lat="44.10444937018747" lon="11.268497162557487"><ele>928.6666666666667</ele><time>2026-04-11T15:18:08Z</time></trkpt><trkpt lat="44.104668898757474" lon="11.268443122212425"><ele>928.3333333333333</ele><time>2026-04-11T15:18:09Z</time></trkpt><trkpt lat="44.10489142862222" lon="11.26838999183199"><ele>928.0</ele><time>2026-04-11T15:18:10Z</time></trkpt><trkpt lat="44.10511214081685" lon="11.268331986942673"><ele>928.0</ele><time>2026-04-11T15:18:11Z</time></trkpt><trkpt lat="44.10531559053748" lon="11.268281173902693"><ele>928.0</ele><time>2026-04-11T15:18:12Z</time></trkpt><trkpt lat="44.105512682393865" lon="11.2682388169114"><ele>928.0</ele><time>2026-04-11T15:18:13Z</time></trkpt><trkpt lat="44.10570397769603" lon="11.26819949734619"><ele>927.6666666666666</ele><time>2026-04-11T15:18:14Z</time></trkpt><trkpt lat="44.105877463619514" lon="11.268158214092962"><ele>927.3333333333333</ele><time>2026-04-11T15:18:15Z</time></trkpt><trkpt lat="44.10604939417251" lon="11.268111332989108"><ele>927.0</ele><time>2026-04-11T15:18:16Z</time></trkpt><trkpt lat="44.10622328019173" lon="11.268038686656801"><ele>924.6666666666667</ele><time>2026-04-11T15:18:17Z</time></trkpt><trkpt lat="44.10639527618471" lon="11.267920125779233"><ele>922.3333333333334</ele><time>2026-04-11T15:18:18Z</time></trkpt><trkpt lat="44.106552823825496" lon="11.267773683109372"><ele>920.0</ele><time>2026-04-11T15:18:19Z</time></trkpt><trkpt lat="44.106707987058215" lon="11.267632106233028"><ele>920.0</ele><time>2026-04-11T15:18:20Z</time></trkpt><trkpt lat="44.1068508583016" lon="11.267506952559865"><ele>920.0</ele><time>2026-04-11T15:18:21Z</time></trkpt><trkpt lat="44.10699206801464" lon="11.267392107535791"><ele>920.0</ele><time>2026-04-11T15:18:22Z</time></trkpt><trkpt lat="44.10711641063117" lon="11.267302592208644"><ele>920.3333333333334</ele><time>2026-04-11T15:18:23Z</time></trkpt><trkpt lat="44.107245311355086" lon="11.267228082213311"><ele>920.6666666666667</ele><time>2026-04-11T15:18:24Z</time></trkpt><trkpt lat="44.10739147472033" lon="11.267189870847712"><ele>921.0</ele><time>2026-04-11T15:18:25Z</time></trkpt><trkpt lat="44.107556324066145" lon="11.267190286170607"><ele>921.0</ele><time>2026-04-11T15:18:26Z</time></trkpt><trkpt lat="44.10773814854384" lon="11.267189742706407"><ele>921.0</ele><time>2026-04-11T15:18:27Z</time></trkpt><trkpt lat="44.10791682291167" lon="11.26717759198117"><ele>921.0</ele><time>2026-04-11T15:18:28Z</time></trkpt><trkpt lat="44.108102012171194" lon="11.267155972674207"><ele>922.3333333333333</ele><time>2026-04-11T15:18:29Z</time></trkpt><trkpt lat="44.10828648413431" lon="11.267108793220793"><ele>923.6666666666666</ele><time>2026-04-11T15:18:30Z</time></trkpt><trkpt lat="44.108461628124346" lon="11.267013828006881"><ele>925.0</ele><time>2026-04-11T15:18:30.999Z</time></trkpt><trkpt lat="44.10863468358386" lon="11.2668744414401"><ele>925.0</ele><time>2026-04-11T15:18:31.999Z</time></trkpt><trkpt lat="44.10878845697099" lon="11.2667367142449"><ele>925.0</ele><time>2026-04-11T15:18:32.999Z</time></trkpt><trkpt lat="44.108936452436616" lon="11.26661489882635"><ele>925.0</ele><time>2026-04-11T15:18:33.999Z</time></trkpt><trkpt lat="44.10907759552381" lon="11.266505801904211"><ele>923.5</ele><time>2026-04-11T15:18:34.999Z</time></trkpt><trkpt lat="44.10921490977781" lon="11.26640516309732"><ele>922.0</ele><time>2026-04-11T15:18:35.999Z</time></trkpt><trkpt lat="44.10934318499661" lon="11.266316406807164"><ele>920.5</ele><time>2026-04-11T15:18:36.999Z</time></trkpt><trkpt lat="44.109483322755686" lon="11.26627066862007"><ele>919.0</ele><time>2026-04-11T15:18:37.999Z</time></trkpt><trkpt lat="44.10965498530344" lon="11.266230359350056"><ele>919.0</ele><time>2026-04-11T15:18:38.999Z</time></trkpt><trkpt lat="44.10983180614248" lon="11.266179002182437"><ele>919.0</ele><time>2026-04-11T15:18:39.999Z</time></trkpt><trkpt lat="44.11001345091747" lon="11.266137496601543"><ele>919.0</ele><time>2026-04-11T15:18:40.999Z</time></trkpt><trkpt lat="44.11019068603351" lon="11.266101990164824"><ele>920.0</ele><time>2026-04-11T15:18:41.999Z</time></trkpt><trkpt lat="44.110352860891986" lon="11.266077302428254"><ele>921.0</ele><time>2026-04-11T15:18:42.999Z</time></trkpt><trkpt lat="44.11049863301775" lon="11.266074049410657"><ele>922.0</ele><time>2026-04-11T15:18:43.999Z</time></trkpt><trkpt lat="44.1106537948362" lon="11.26609829268983"><ele>921.3333333333333</ele><time>2026-04-11T15:18:44.999Z</time></trkpt><trkpt lat="44.11081641770828" lon="11.266176057628451"><ele>920.6666666666667</ele><time>2026-04-11T15:18:45.999Z</time></trkpt><trkpt lat="44.110987422999585" lon="11.266256137916272"><ele>920.0</ele><time>2026-04-11T15:18:46.999Z</time></trkpt><trkpt lat="44.11118287228134" lon="11.26630440989032"><ele>920.0</ele><time>2026-04-11T15:18:47.999Z</time></trkpt><trkpt lat="44.11137135180902" lon="11.266333548136359"><ele>920.0</ele><time>2026-04-11T15:18:48.999Z</time></trkpt><trkpt lat="44.11155752069212" lon="11.266349349107434"><ele>920.0</ele><time>2026-04-11T15:18:49.999Z</time></trkpt><trkpt lat="44.11172843687558" lon="11.266372796276098"><ele>917.0</ele><time>2026-04-11T15:18:50.999Z</time></trkpt><trkpt lat="44.11190300814731" lon="11.26637585097651"><ele>914.0</ele><time>2026-04-11T15:18:51.999Z</time></trkpt><trkpt lat="44.112070803436424" lon="11.266346390982028"><ele>911.0</ele><time>2026-04-11T15:18:52.999Z</time></trkpt><trkpt lat="44.11222349552189" lon="11.266273419293347"><ele>911.0</ele><time>2026-04-11T15:18:53.999Z</time></trkpt><trkpt lat="44.11236020540162" lon="11.266153746589303"><ele>911.0</ele><time>2026-04-11T15:18:54.999Z</time></trkpt><trkpt lat="44.112490654566415" lon="11.26599294410902"><ele>911.0</ele><time>2026-04-11T15:18:55.999Z</time></trkpt><trkpt lat="44.1125956899389" lon="11.265811388655461"><ele>911.0</ele><time>2026-04-11T15:18:56.999Z</time></trkpt><trkpt lat="44.11268936373571" lon="11.265578190681968"><ele>911.0</ele><time>2026-04-11T15:18:57.999Z</time></trkpt><trkpt lat="44.11276369304049" lon="11.265337875125924"><ele>911.0</ele><time>2026-04-11T15:18:58.999Z</time></trkpt><trkpt lat="44.112842222039475" lon="11.265080319609458"><ele>911.0</ele><time>2026-04-11T15:18:59.999Z</time></trkpt><trkpt lat="44.11291923096698" lon="11.264856992415023"><ele>911.0</ele><time>2026-04-11T15:19:00.999Z</time></trkpt><trkpt lat="44.112982814443285" lon="11.264666986299355"><ele>911.0</ele><time>2026-04-11T15:19:01.999Z</time></trkpt><trkpt lat="44.11302290000853" lon="11.264496174079584"><ele>911.3333333333334</ele><time>2026-04-11T15:19:02.999Z</time></trkpt><trkpt lat="44.113025056965625" lon="11.2642900890534"><ele>911.6666666666667</ele><time>2026-04-11T15:19:03.999Z</time></trkpt><trkpt lat="44.112994367916535" lon="11.264043881855013"><ele>912.0</ele><time>2026-04-11T15:19:04.999Z</time></trkpt><trkpt lat="44.112959117725644" lon="11.263794164043967"><ele>912.0</ele><time>2026-04-11T15:19:05.999Z</time></trkpt><trkpt lat="44.11292519846065" lon="11.263528194731196"><ele>912.0</ele><time>2026-04-11T15:19:06.999Z</time></trkpt><trkpt lat="44.11289725490512" lon="11.263274831568365"><ele>912.0</ele><time>2026-04-11T15:19:07.999Z</time></trkpt><trkpt lat="44.11286961663058" lon="11.263038915285815"><ele>909.3333333333333</ele><time>2026-04-11T15:19:08.999Z</time></trkpt><trkpt lat="44.112849896976144" lon="11.262805850792986"><ele>906.6666666666666</ele><time>2026-04-11T15:19:09.999Z</time></trkpt><trkpt lat="44.112869283585866" lon="11.2626039306031"><ele>904.0</ele><time>2026-04-11T15:19:10.999Z</time></trkpt><trkpt lat="44.11290466144567" lon="11.262406247898417"><ele>903.0</ele><time>2026-04-11T15:19:11.999Z</time></trkpt><trkpt lat="44.11296885028425" lon="11.26223354256618"><ele>902.0</ele><time>2026-04-11T15:19:12.999Z</time></trkpt><trkpt lat="44.11305883243507" lon="11.262082903804302"><ele>901.0</ele><time>2026-04-11T15:19:13.999Z</time></trkpt><trkpt lat="44.11316168599416" lon="11.262007014018957"><ele>900.0</ele><time>2026-04-11T15:19:14.999Z</time></trkpt><trkpt lat="44.11328401083171" lon="11.261963110076644"><ele>900.0</ele><time>2026-04-11T15:19:15.999Z</time></trkpt><trkpt lat="44.113408733316426" lon="11.261968404574018"><ele>900.0</ele><time>2026-04-11T15:19:16.999Z</time></trkpt><trkpt lat="44.113580351482646" lon="11.261996284552566"><ele>900.0</ele><time>2026-04-11T15:19:17.999Z</time></trkpt><trkpt lat="44.11373659179702" lon="11.262028694414154"><ele>900.0</ele><time>2026-04-11T15:19:18.999Z</time></trkpt><trkpt lat="44.113897215577396" lon="11.262034323576277"><ele>900.0</ele><time>2026-04-11T15:19:19.999Z</time></trkpt><trkpt lat="44.11404629121329" lon="11.262019394665371"><ele>900.0</ele><time>2026-04-11T15:19:20.999Z</time></trkpt><trkpt lat="44.114196457532685" lon="11.261991735060565"><ele>901.6666666666667</ele><time>2026-04-11T15:19:21.999Z</time></trkpt><trkpt lat="44.11434528237187" lon="11.261921922961019"><ele>903.3333333333334</ele><time>2026-04-11T15:19:22.999Z</time></trkpt><trkpt lat="44.11449443322687" lon="11.261808366669685"><ele>905.0</ele><time>2026-04-11T15:19:23.999Z</time></trkpt><trkpt lat="44.11464027729587" lon="11.261653229281846"><ele>905.0</ele><time>2026-04-11T15:19:24.999Z</time></trkpt><trkpt lat="44.11478725822721" lon="11.261495439338367"><ele>905.0</ele><time>2026-04-11T15:19:25.999Z</time></trkpt><trkpt lat="44.11494877269874" lon="11.261341388425139"><ele>905.0</ele><time>2026-04-11T15:19:26.999Z</time></trkpt><trkpt lat="44.11512661775152" lon="11.261170405553598"><ele>902.0</ele><time>2026-04-11T15:19:27.999Z</time></trkpt><trkpt lat="44.115296376912696" lon="11.260988269176329"><ele>899.0</ele><time>2026-04-11T15:19:28.999Z</time></trkpt><trkpt lat="44.11546283817605" lon="11.260794401111141"><ele>896.0</ele><time>2026-04-11T15:19:29.999Z</time></trkpt><trkpt lat="44.11561949636775" lon="11.260608696281968"><ele>894.6666666666667</ele><time>2026-04-11T15:19:30.999Z</time></trkpt><trkpt lat="44.11576675259197" lon="11.260421922884351"><ele>893.3333333333333</ele><time>2026-04-11T15:19:31.999Z</time></trkpt><trkpt lat="44.115914346281336" lon="11.260232619351251"><ele>892.0</ele><time>2026-04-11T15:19:32.999Z</time></trkpt><trkpt lat="44.11606017760792" lon="11.26005004935327"><ele>892.0</ele><time>2026-04-11T15:19:33.998Z</time></trkpt><trkpt lat="44.116203614429544" lon="11.259871435208044"><ele>892.0</ele><time>2026-04-11T15:19:34.998Z</time></trkpt><trkpt lat="44.11634171419088" lon="11.259711549093696"><ele>892.0</ele><time>2026-04-11T15:19:35.998Z</time></trkpt><trkpt lat="44.116468380739875" lon="11.259573393326134"><ele>890.0</ele><time>2026-04-11T15:19:36.998Z</time></trkpt><trkpt lat="44.11661478620965" lon="11.259437972137283"><ele>888.0</ele><time>2026-04-11T15:19:37.998Z</time></trkpt><trkpt lat="44.11678574457187" lon="11.259311736108302"><ele>886.0</ele><time>2026-04-11T15:19:38.998Z</time></trkpt><trkpt lat="44.116994626330225" lon="11.25919612596672"><ele>886.0</ele><time>2026-04-11T15:19:39.998Z</time></trkpt><trkpt lat="44.117211253493394" lon="11.259069471654609"><ele>886.0</ele><time>2026-04-11T15:19:40.998Z</time></trkpt><trkpt lat="44.11742361593504" lon="11.258943070359715"><ele>879.0</ele><time>2026-04-11T15:19:41.998Z</time></trkpt><trkpt lat="44.11762200543018" lon="11.258822825013374"><ele>872.0</ele><time>2026-04-11T15:19:42.998Z</time></trkpt><trkpt lat="44.11781450582484" lon="11.258706817859531"><ele>865.0</ele><time>2026-04-11T15:19:43.998Z</time></trkpt><trkpt lat="44.11799867382201" lon="11.258588564821874"><ele>865.0</ele><time>2026-04-11T15:19:44.998Z</time></trkpt><trkpt lat="44.11817801326224" lon="11.25850493243726"><ele>865.0</ele><time>2026-04-11T15:19:45.998Z</time></trkpt><trkpt lat="44.11831897809254" lon="11.258394648297532"><ele>865.0</ele><time>2026-04-11T15:19:46.998Z</time></trkpt><trkpt lat="44.11846464687986" lon="11.258278192314213"><ele>865.0</ele><time>2026-04-11T15:19:47.998Z</time></trkpt><trkpt lat="44.11860388409785" lon="11.25811943809048"><ele>865.0</ele><time>2026-04-11T15:19:48.998Z</time></trkpt><trkpt lat="44.11874333554405" lon="11.257906278258648"><ele>865.0</ele><time>2026-04-11T15:19:49.998Z</time></trkpt><trkpt lat="44.118869322936234" lon="11.25766835055948"><ele>863.5</ele><time>2026-04-11T15:19:50.998Z</time></trkpt><trkpt lat="44.119001759129695" lon="11.257416932022565"><ele>862.0</ele><time>2026-04-11T15:19:52Z</time></trkpt><trkpt lat="44.11914184479216" lon="11.257164448633292"><ele>862.0</ele><time>2026-04-11T15:19:53Z</time></trkpt><trkpt lat="44.11928076382174" lon="11.256919241152454"><ele>862.0</ele><time>2026-04-11T15:19:54Z</time></trkpt><trkpt lat="44.11940929846393" lon="11.256706553491698"><ele>862.0</ele><time>2026-04-11T15:19:55Z</time></trkpt><trkpt lat="44.119524501427286" lon="11.256512418443931"><ele>860.3333333333333</ele><time>2026-04-11T15:19:56Z</time></trkpt><trkpt lat="44.11962837775707" lon="11.256336708755468"><ele>858.6666666666667</ele><time>2026-04-11T15:19:57Z</time></trkpt><trkpt lat="44.119750065143464" lon="11.256169940679928"><ele>857.0</ele><time>2026-04-11T15:19:58Z</time></trkpt><trkpt lat="44.11989767137802" lon="11.256025422022397"><ele>859.6666666666667</ele><time>2026-04-11T15:19:59Z</time></trkpt><trkpt lat="44.12006838254839" lon="11.255890808370234"><ele>862.3333333333333</ele><time>2026-04-11T15:20:00Z</time></trkpt><trkpt lat="44.12023035459091" lon="11.255794067831312"><ele>865.0</ele><time>2026-04-11T15:20:01Z</time></trkpt><trkpt lat="44.12037335757139" lon="11.255632437898784"><ele>859.6666666666666</ele><time>2026-04-11T15:20:02Z</time></trkpt><trkpt lat="44.120500542630715" lon="11.255459109946841"><ele>854.3333333333333</ele><time>2026-04-11T15:20:03Z</time></trkpt><trkpt lat="44.120591465204726" lon="11.25527728643663"><ele>849.0</ele><time>2026-04-11T15:20:04Z</time></trkpt><trkpt lat="44.120675237411234" lon="11.255103605076071"><ele>849.3333333333333</ele><time>2026-04-11T15:20:05Z</time></trkpt><trkpt lat="44.12080042628818" lon="11.2549769790094"><ele>849.6666666666666</ele><time>2026-04-11T15:20:06Z</time></trkpt><trkpt lat="44.12095951201942" lon="11.254869082338862"><ele>850.0</ele><time>2026-04-11T15:20:07Z</time></trkpt><trkpt lat="44.121142942852046" lon="11.254757527948566"><ele>850.0</ele><time>2026-04-11T15:20:08Z</time></trkpt><trkpt lat="44.1213342600102" lon="11.254621017968882"><ele>850.0</ele><time>2026-04-11T15:20:09Z</time></trkpt><trkpt lat="44.1215315999219" lon="11.254498756717787"><ele>850.0</ele><time>2026-04-11T15:20:10Z</time></trkpt><trkpt lat="44.12174041083732" lon="11.254369192954426"><ele>856.0</ele><time>2026-04-11T15:20:11Z</time></trkpt><trkpt lat="44.12195351190988" lon="11.25423918967832"><ele>862.0</ele><time>2026-04-11T15:20:12Z</time></trkpt><trkpt lat="44.122165998178666" lon="11.254105525932156"><ele>862.0</ele><time>2026-04-11T15:20:13Z</time></trkpt><trkpt lat="44.122365846316285" lon="11.253970923557047"><ele>862.0</ele><time>2026-04-11T15:20:14Z</time></trkpt><trkpt lat="44.12255853845688" lon="11.25388128233375"><ele>862.0</ele><time>2026-04-11T15:20:15Z</time></trkpt><trkpt lat="44.122733841157256" lon="11.253777903316614"><ele>861.3333333333333</ele><time>2026-04-11T15:20:16Z</time></trkpt><trkpt lat="44.122908469634794" lon="11.253661947842273"><ele>860.6666666666667</ele><time>2026-04-11T15:20:17Z</time></trkpt><trkpt lat="44.123080395789884" lon="11.253570877627073"><ele>860.0</ele><time>2026-04-11T15:20:18Z</time></trkpt><trkpt lat="44.123234524345655" lon="11.253507169095847"><ele>860.0</ele><time>2026-04-11T15:20:19Z</time></trkpt><trkpt lat="44.12339231723741" lon="11.253456476033818"><ele>860.0</ele><time>2026-04-11T15:20:20Z</time></trkpt><trkpt lat="44.123557156096325" lon="11.253412142958867"><ele>860.0</ele><time>2026-04-11T15:20:21Z</time></trkpt><trkpt lat="44.12372295702856" lon="11.253371034429483"><ele>860.0</ele><time>2026-04-11T15:20:22Z</time></trkpt><trkpt lat="44.12389170769576" lon="11.253331617666177"><ele>860.0</ele><time>2026-04-11T15:20:23Z</time></trkpt><trkpt lat="44.124049666414706" lon="11.253298174431732"><ele>860.0</ele><time>2026-04-11T15:20:24Z</time></trkpt><trkpt lat="44.124191645815024" lon="11.253270717797744"><ele>858.5</ele><time>2026-04-11T15:20:25Z</time></trkpt><trkpt lat="44.1243156752072" lon="11.253262657091254"><ele>857.0</ele><time>2026-04-11T15:20:26Z</time></trkpt><trkpt lat="44.124441707602884" lon="11.253284625453805"><ele>855.5</ele><time>2026-04-11T15:20:27Z</time></trkpt><trkpt lat="44.12456503690861" lon="11.253349239600176"><ele>854.0</ele><time>2026-04-11T15:20:28Z</time></trkpt><trkpt lat="44.12467202060297" lon="11.253482228461197"><ele>854.0</ele><time>2026-04-11T15:20:29Z</time></trkpt><trkpt lat="44.124787174504924" lon="11.253614411484639"><ele>854.0</ele><time>2026-04-11T15:20:30Z</time></trkpt><trkpt lat="44.12490246383906" lon="11.253752527946046"><ele>854.0</ele><time>2026-04-11T15:20:31Z</time></trkpt><trkpt lat="44.12506121926576" lon="11.253834528949074"><ele>849.3333333333334</ele><time>2026-04-11T15:20:32Z</time></trkpt><trkpt lat="44.125235758988715" lon="11.253874248794592"><ele>844.6666666666667</ele><time>2026-04-11T15:20:33Z</time></trkpt><trkpt lat="44.12540370308322" lon="11.25390311187328"><ele>840.0</ele><time>2026-04-11T15:20:34Z</time></trkpt><trkpt lat="44.12556951187294" lon="11.25390999878106"><ele>838.0</ele><time>2026-04-11T15:20:35Z</time></trkpt><trkpt lat="44.12572934413692" lon="11.253885172539396"><ele>836.0</ele><time>2026-04-11T15:20:36Z</time></trkpt><trkpt lat="44.12588149033735" lon="11.253816600013588"><ele>834.0</ele><time>2026-04-11T15:20:36.999Z</time></trkpt><trkpt lat="44.12603433989785" lon="11.25369700160107"><ele>834.0</ele><time>2026-04-11T15:20:37.999Z</time></trkpt><trkpt lat="44.126156688902384" lon="11.253526346492798"><ele>834.0</ele><time>2026-04-11T15:20:38.999Z</time></trkpt><trkpt lat="44.12626403140288" lon="11.253337196937617"><ele>834.0</ele><time>2026-04-11T15:20:39.999Z</time></trkpt><trkpt lat="44.12636490393537" lon="11.253164258867534"><ele>833.25</ele><time>2026-04-11T15:20:40.999Z</time></trkpt><trkpt lat="44.126469826756505" lon="11.253044549491316"><ele>832.5</ele><time>2026-04-11T15:20:41.999Z</time></trkpt><trkpt lat="44.12660033617239" lon="11.253000184920685"><ele>831.75</ele><time>2026-04-11T15:20:42.999Z</time></trkpt><trkpt lat="44.12674666583949" lon="11.252964717562172"><ele>831.0</ele><time>2026-04-11T15:20:43.999Z</time></trkpt><trkpt lat="44.12691358432085" lon="11.252934636747868"><ele>831.0</ele><time>2026-04-11T15:20:44.999Z</time></trkpt><trkpt lat="44.1270514588527" lon="11.252919642027301"><ele>831.0</ele><time>2026-04-11T15:20:45.999Z</time></trkpt><trkpt lat="44.12716999549795" lon="11.252864751932478"><ele>831.0</ele><time>2026-04-11T15:20:46.999Z</time></trkpt><trkpt lat="44.127268699490855" lon="11.252787392722611"><ele>831.0</ele><time>2026-04-11T15:20:47.999Z</time></trkpt><trkpt lat="44.12738112772207" lon="11.252604526875645"><ele>828.0</ele><time>2026-04-11T15:20:48.999Z</time></trkpt><trkpt lat="44.1274967494125" lon="11.25232855818751"><ele>825.0</ele><time>2026-04-11T15:20:49.999Z</time></trkpt><trkpt lat="44.12759581570318" lon="11.252047519498154"><ele>823.0</ele><time>2026-04-11T15:20:50.999Z</time></trkpt><trkpt lat="44.12765689004252" lon="11.251835979117566"><ele>821.0</ele><time>2026-04-11T15:20:51.999Z</time></trkpt><trkpt lat="44.12773826650989" lon="11.251795910838771"><ele>819.0</ele><time>2026-04-11T15:20:52.999Z</time></trkpt><trkpt lat="44.127816186165276" lon="11.251709853943096"><ele>817.0</ele><time>2026-04-11T15:20:53.999Z</time></trkpt><trkpt lat="44.127910122382154" lon="11.251638189775987"><ele>817.0</ele><time>2026-04-11T15:20:54.999Z</time></trkpt><trkpt lat="44.128008236229356" lon="11.25161958617237"><ele>817.0</ele><time>2026-04-11T15:20:55.999Z</time></trkpt><trkpt lat="44.128117612592405" lon="11.251684283525305"><ele>817.0</ele><time>2026-04-11T15:20:56.999Z</time></trkpt><trkpt lat="44.12823083793272" lon="11.251797788260209"><ele>817.0</ele><time>2026-04-11T15:20:57.999Z</time></trkpt><trkpt lat="44.12835147537776" lon="11.251884741447496"><ele>815.5</ele><time>2026-04-11T15:20:58.999Z</time></trkpt><trkpt lat="44.128476903052935" lon="11.251928674248793"><ele>814.0</ele><time>2026-04-11T15:20:59.999Z</time></trkpt><trkpt lat="44.12858286620317" lon="11.251959314694265"><ele>812.5</ele><time>2026-04-11T15:21:00.999Z</time></trkpt><trkpt lat="44.12866739304707" lon="11.251952623383234"><ele>811.0</ele><time>2026-04-11T15:21:01.999Z</time></trkpt><trkpt lat="44.128793892984085" lon="11.25191244844265"><ele>811.0</ele><time>2026-04-11T15:21:02.999Z</time></trkpt><trkpt lat="44.128909272952875" lon="11.251833017649098"><ele>811.0</ele><time>2026-04-11T15:21:03.999Z</time></trkpt><trkpt lat="44.12902911169421" lon="11.251766049288747"><ele>811.0</ele><time>2026-04-11T15:21:04.999Z</time></trkpt><trkpt lat="44.129146902474815" lon="11.251728981856047"><ele>811.0</ele><time>2026-04-11T15:21:05.999Z</time></trkpt><trkpt lat="44.129239074675965" lon="11.251705935918935"><ele>810.0</ele><time>2026-04-11T15:21:06.999Z</time></trkpt><trkpt lat="44.129308788154155" lon="11.251703823403043"><ele>809.0</ele><time>2026-04-11T15:21:07.999Z</time></trkpt><trkpt lat="44.129373303219886" lon="11.251771417956894"><ele>808.0</ele><time>2026-04-11T15:21:08.999Z</time></trkpt><trkpt lat="44.12944181240687" lon="11.251899196285118"><ele>807.0</ele><time>2026-04-11T15:21:09.999Z</time></trkpt><trkpt lat="44.12953706552003" lon="11.251977776747355"><ele>806.0</ele><time>2026-04-11T15:21:10.999Z</time></trkpt><trkpt lat="44.12963583278108" lon="11.252006899760351"><ele>806.0</ele><time>2026-04-11T15:21:11.999Z</time></trkpt><trkpt lat="44.1297535042564" lon="11.25196684283661"><ele>806.0</ele><time>2026-04-11T15:21:12.999Z</time></trkpt><trkpt lat="44.12987519444451" lon="11.251886197666238"><ele>806.0</ele><time>2026-04-11T15:21:13.999Z</time></trkpt><trkpt lat="44.130029763894925" lon="11.251835023809216"><ele>806.0</ele><time>2026-04-11T15:21:14.999Z</time></trkpt><trkpt lat="44.13020228226603" lon="11.251766790420808"><ele>804.75</ele><time>2026-04-11T15:21:15.999Z</time></trkpt><trkpt lat="44.13034862838115" lon="11.251618654780932"><ele>803.5</ele><time>2026-04-11T15:21:16.999Z</time></trkpt><trkpt lat="44.13039077326288" lon="11.2515325296631"><ele>802.25</ele><time>2026-04-11T15:21:17.999Z</time></trkpt><trkpt lat="44.13051682855564" lon="11.251480143282095"><ele>801.0</ele><time>2026-04-11T15:21:18.999Z</time></trkpt><trkpt lat="44.13060014480196" lon="11.251497386402665"><ele>800.0</ele><time>2026-04-11T15:21:19.999Z</time></trkpt><trkpt lat="44.130743042782534" lon="11.251497969421475"><ele>799.0</ele><time>2026-04-11T15:21:20.999Z</time></trkpt><trkpt lat="44.13094618941242" lon="11.251534951946049"><ele>798.0</ele><time>2026-04-11T15:21:21.999Z</time></trkpt><trkpt lat="44.131197508131784" lon="11.251565597390998"><ele>798.0</ele><time>2026-04-11T15:21:22.999Z</time></trkpt><trkpt lat="44.13137771821278" lon="11.25159421794415"><ele>798.0</ele><time>2026-04-11T15:21:23.999Z</time></trkpt><trkpt lat="44.131531091062264" lon="11.251611568854297"><ele>798.0</ele><time>2026-04-11T15:21:24.999Z</time></trkpt><trkpt lat="44.13168970516597" lon="11.251614800579764"><ele>795.6666666666667</ele><time>2026-04-11T15:21:25.999Z</time></trkpt><trkpt lat="44.1318600127195" lon="11.251589237530869"><ele>793.3333333333334</ele><time>2026-04-11T15:21:26.999Z</time></trkpt><trkpt lat="44.13203723703718" lon="11.251530950853514"><ele>791.0</ele><time>2026-04-11T15:21:27.999Z</time></trkpt><trkpt lat="44.13222154539639" lon="11.25143180481968"><ele>788.0</ele><time>2026-04-11T15:21:28.999Z</time></trkpt><trkpt lat="44.13240561994462" lon="11.251323337992325"><ele>785.0</ele><time>2026-04-11T15:21:29.999Z</time></trkpt><trkpt lat="44.13258382639934" lon="11.251232851861735"><ele>782.0</ele><time>2026-04-11T15:21:30.999Z</time></trkpt><trkpt lat="44.132757052241665" lon="11.251149173316936"><ele>782.0</ele><time>2026-04-11T15:21:31.999Z</time></trkpt><trkpt lat="44.13292609136269" lon="11.251064491178534"><ele>782.0</ele><time>2026-04-11T15:21:32.999Z</time></trkpt><trkpt lat="44.13311129711171" lon="11.250974411406656"><ele>782.0</ele><time>2026-04-11T15:21:33.999Z</time></trkpt><trkpt lat="44.13330217025962" lon="11.250872649325672"><ele>780.3333333333334</ele><time>2026-04-11T15:21:34.999Z</time></trkpt><trkpt lat="44.13348769897761" lon="11.250782644736072"><ele>778.6666666666667</ele><time>2026-04-11T15:21:35.999Z</time></trkpt><trkpt lat="44.13365946276813" lon="11.250686751157074"><ele>777.0</ele><time>2026-04-11T15:21:36.999Z</time></trkpt><trkpt lat="44.133822424530806" lon="11.250590977999018"><ele>775.0</ele><time>2026-04-11T15:21:37.999Z</time></trkpt><trkpt lat="44.1339856601733" lon="11.250489644942588"><ele>773.0</ele><time>2026-04-11T15:21:38.999Z</time></trkpt><trkpt lat="44.13412653605" lon="11.250365664577028"><ele>771.0</ele><time>2026-04-11T15:21:39.999Z</time></trkpt><trkpt lat="44.134241263980584" lon="11.250252027248505"><ele>771.0</ele><time>2026-04-11T15:21:40.998Z</time></trkpt><trkpt lat="44.13433094361465" lon="11.250173432179965"><ele>771.0</ele><time>2026-04-11T15:21:41.998Z</time></trkpt><trkpt lat="44.13441407507605" lon="11.250134956047972"><ele>771.0</ele><time>2026-04-11T15:21:42.998Z</time></trkpt><trkpt lat="44.13450412056466" lon="11.250125605550604"><ele>771.0</ele><time>2026-04-11T15:21:43.998Z</time></trkpt><trkpt lat="44.13458316352088" lon="11.250210020516848"><ele>771.0</ele><time>2026-04-11T15:21:44.998Z</time></trkpt><trkpt lat="44.13463087096252" lon="11.25032135553213"><ele>771.0</ele><time>2026-04-11T15:21:45.998Z</time></trkpt><trkpt lat="44.134684024060306" lon="11.250453048980333"><ele>771.0</ele><time>2026-04-11T15:21:46.998Z</time></trkpt><trkpt lat="44.134725806659915" lon="11.250617530401593"><ele>771.0</ele><time>2026-04-11T15:21:47.998Z</time></trkpt><trkpt lat="44.134801820769134" lon="11.250724694307195"><ele>771.0</ele><time>2026-04-11T15:21:48.998Z</time></trkpt><trkpt lat="44.134939240688794" lon="11.250801774150005"><ele>770.6666666666667</ele><time>2026-04-11T15:21:49.998Z</time></trkpt><trkpt lat="44.1350752772188" lon="11.250803682610002"><ele>770.3333333333334</ele><time>2026-04-11T15:21:50.998Z</time></trkpt><trkpt lat="44.135226092843936" lon="11.250768583636338"><ele>770.0</ele><time>2026-04-11T15:21:51.998Z</time></trkpt><trkpt lat="44.13539954875388" lon="11.250722678019095"><ele>770.0</ele><time>2026-04-11T15:21:52.998Z</time></trkpt><trkpt lat="44.13558711872224" lon="11.250677687657006"><ele>770.0</ele><time>2026-04-11T15:21:53.998Z</time></trkpt><trkpt lat="44.13577149746232" lon="11.25063240432216"><ele>770.0</ele><time>2026-04-11T15:21:54.998Z</time></trkpt><trkpt lat="44.13597708998814" lon="11.250590255817244"><ele>770.3333333333334</ele><time>2026-04-11T15:21:55.998Z</time></trkpt><trkpt lat="44.13618789152804" lon="11.250540274962276"><ele>770.6666666666667</ele><time>2026-04-11T15:21:56.998Z</time></trkpt><trkpt lat="44.13640360460394" lon="11.25049967227202"><ele>771.0</ele><time>2026-04-11T15:21:58Z</time></trkpt><trkpt lat="44.13661147765065" lon="11.250459390940991"><ele>771.0</ele><time>2026-04-11T15:21:59Z</time></trkpt><trkpt lat="44.13680510884476" lon="11.250423316321955"><ele>771.0</ele><time>2026-04-11T15:22:00Z</time></trkpt><trkpt lat="44.13700600969875" lon="11.25039117204775"><ele>771.0</ele><time>2026-04-11T15:22:01Z</time></trkpt><trkpt lat="44.13720287825348" lon="11.250372141829624"><ele>770.0</ele><time>2026-04-11T15:22:02Z</time></trkpt><trkpt lat="44.137387407610156" lon="11.25037534493036"><ele>769.0</ele><time>2026-04-11T15:22:03Z</time></trkpt><trkpt lat="44.13755267619929" lon="11.250386191588143"><ele>768.0</ele><time>2026-04-11T15:22:04Z</time></trkpt><trkpt lat="44.137700720585684" lon="11.250383841916957"><ele>768.0</ele><time>2026-04-11T15:22:05Z</time></trkpt><trkpt lat="44.137849901038074" lon="11.25038885888537"><ele>768.0</ele><time>2026-04-11T15:22:06Z</time></trkpt><trkpt lat="44.13799971737058" lon="11.250406500309419"><ele>768.0</ele><time>2026-04-11T15:22:07Z</time></trkpt><trkpt lat="44.13815198371842" lon="11.250450565826727"><ele>769.0</ele><time>2026-04-11T15:22:08Z</time></trkpt><trkpt lat="44.138295437727315" lon="11.250517849240426"><ele>770.0</ele><time>2026-04-11T15:22:09Z</time></trkpt><trkpt lat="44.13842135965909" lon="11.250575789889625"><ele>771.0</ele><time>2026-04-11T15:22:10Z</time></trkpt><trkpt lat="44.13852611766023" lon="11.250595905482763"><ele>772.0</ele><time>2026-04-11T15:22:11Z</time></trkpt><trkpt lat="44.13864223549127" lon="11.250553372883015"><ele>772.0</ele><time>2026-04-11T15:22:12Z</time></trkpt><trkpt lat="44.138767822613175" lon="11.25043848935174"><ele>772.0</ele><time>2026-04-11T15:22:13Z</time></trkpt><trkpt lat="44.13888732354669" lon="11.250277209143297"><ele>772.0</ele><time>2026-04-11T15:22:14Z</time></trkpt><trkpt lat="44.139005261455296" lon="11.250097889646373"><ele>772.6666666666666</ele><time>2026-04-11T15:22:15Z</time></trkpt><trkpt lat="44.13913363895589" lon="11.249899691612722"><ele>773.3333333333333</ele><time>2026-04-11T15:22:16Z</time></trkpt><trkpt lat="44.13925900265531" lon="11.249707753850178"><ele>774.0</ele><time>2026-04-11T15:22:17Z</time></trkpt><trkpt lat="44.13937214048181" lon="11.24953707939303"><ele>772.6666666666667</ele><time>2026-04-11T15:22:18Z</time></trkpt><trkpt lat="44.1394829582141" lon="11.249348896930222"><ele>771.3333333333334</ele><time>2026-04-11T15:22:19Z</time></trkpt><trkpt lat="44.139577201646084" lon="11.24913446914598"><ele>770.0</ele><time>2026-04-11T15:22:20Z</time></trkpt><trkpt lat="44.13966102916518" lon="11.248876636776659"><ele>766.6666666666667</ele><time>2026-04-11T15:22:21Z</time></trkpt><trkpt lat="44.1397322720349" lon="11.24859674404448"><ele>763.3333333333334</ele><time>2026-04-11T15:22:22Z</time></trkpt><trkpt lat="44.1398053240696" lon="11.248321060310799"><ele>760.0</ele><time>2026-04-11T15:22:23Z</time></trkpt><trkpt lat="44.139879396864664" lon="11.248062972810306"><ele>759.3333333333334</ele><time>2026-04-11T15:22:24Z</time></trkpt><trkpt lat="44.139966661456675" lon="11.247792886638761"><ele>758.6666666666666</ele><time>2026-04-11T15:22:25Z</time></trkpt><trkpt lat="44.14006603270196" lon="11.247525183369692"><ele>758.0</ele><time>2026-04-11T15:22:26Z</time></trkpt><trkpt lat="44.1401778535938" lon="11.247246120801506"><ele>756.0</ele><time>2026-04-11T15:22:27Z</time></trkpt><trkpt lat="44.140295320015035" lon="11.246978402548033"><ele>754.0</ele><time>2026-04-11T15:22:28Z</time></trkpt><trkpt lat="44.140405261556026" lon="11.246687770139722"><ele>754.5</ele><time>2026-04-11T15:22:29Z</time></trkpt><trkpt lat="44.140495134825464" lon="11.24637709561965"><ele>755.0</ele><time>2026-04-11T15:22:30Z</time></trkpt><trkpt lat="44.140568565988" lon="11.24608358549463"><ele>755.0</ele><time>2026-04-11T15:22:31Z</time></trkpt><trkpt lat="44.14063086910543" lon="11.245820623555993"><ele>755.0</ele><time>2026-04-11T15:22:32Z</time></trkpt><trkpt lat="44.14069560638708" lon="11.245570341849046"><ele>755.0</ele><time>2026-04-11T15:22:33Z</time></trkpt><trkpt lat="44.14075595627015" lon="11.245328696241447"><ele>756.0</ele><time>2026-04-11T15:22:34Z</time></trkpt><trkpt lat="44.14080781663236" lon="11.245120837960213"><ele>757.0</ele><time>2026-04-11T15:22:35Z</time></trkpt><trkpt lat="44.14085608194274" lon="11.24495698324818"><ele>758.0</ele><time>2026-04-11T15:22:36Z</time></trkpt><trkpt lat="44.140918459512434" lon="11.244817733958135"><ele>759.0</ele><time>2026-04-11T15:22:37Z</time></trkpt><trkpt lat="44.14101087962982" lon="11.244697857645225"><ele>759.0</ele><time>2026-04-11T15:22:38Z</time></trkpt><trkpt lat="44.14114102040737" lon="11.244589561452594"><ele>759.0</ele><time>2026-04-11T15:22:39Z</time></trkpt><trkpt lat="44.14128918254126" lon="11.244491618841488"><ele>759.0</ele><time>2026-04-11T15:22:40Z</time></trkpt><trkpt lat="44.14144000581733" lon="11.24436339739345"><ele>758.6666666666666</ele><time>2026-04-11T15:22:40.999Z</time></trkpt><trkpt lat="44.14159352033621" lon="11.244199993691026"><ele>758.3333333333333</ele><time>2026-04-11T15:22:41.999Z</time></trkpt><trkpt lat="44.141728195162344" lon="11.24403171723981"><ele>758.0</ele><time>2026-04-11T15:22:42.999Z</time></trkpt><trkpt lat="44.14185095395869" lon="11.243885895148278"><ele>758.0</ele><time>2026-04-11T15:22:43.999Z</time></trkpt><trkpt lat="44.141962209373865" lon="11.243735180956877"><ele>758.0</ele><time>2026-04-11T15:22:44.999Z</time></trkpt><trkpt lat="44.1420553600868" lon="11.243587754012834"><ele>758.0</ele><time>2026-04-11T15:22:45.999Z</time></trkpt><trkpt lat="44.14212904667571" lon="11.24340554996362"><ele>758.0</ele><time>2026-04-11T15:22:46.999Z</time></trkpt><trkpt lat="44.14219413500789" lon="11.243180611721465"><ele>756.0</ele><time>2026-04-11T15:22:47.999Z</time></trkpt><trkpt lat="44.14224219027388" lon="11.242955885690886"><ele>754.0</ele><time>2026-04-11T15:22:48.999Z</time></trkpt><trkpt lat="44.142291170150145" lon="11.242737381067077"><ele>752.0</ele><time>2026-04-11T15:22:49.999Z</time></trkpt><trkpt lat="44.14233653931622" lon="11.242553733088469"><ele>752.25</ele><time>2026-04-11T15:22:50.999Z</time></trkpt><trkpt lat="44.14238823062869" lon="11.242381909298873"><ele>752.5</ele><time>2026-04-11T15:22:51.999Z</time></trkpt><trkpt lat="44.14244142621963" lon="11.2422334324267"><ele>752.75</ele><time>2026-04-11T15:22:52.999Z</time></trkpt><trkpt lat="44.14252187756341" lon="11.24209173557356"><ele>753.0</ele><time>2026-04-11T15:22:53.999Z</time></trkpt><trkpt lat="44.14264513215792" lon="11.241968646424024"><ele>753.0</ele><time>2026-04-11T15:22:54.999Z</time></trkpt><trkpt lat="44.14276381109615" lon="11.241807219758996"><ele>753.0</ele><time>2026-04-11T15:22:55.999Z</time></trkpt><trkpt lat="44.1428878038579" lon="11.241684310854634"><ele>753.0</ele><time>2026-04-11T15:22:56.999Z</time></trkpt><trkpt lat="44.1430122906811" lon="11.241541113612843"><ele>751.0</ele><time>2026-04-11T15:22:57.999Z</time></trkpt><trkpt lat="44.14313337829546" lon="11.241414762598623"><ele>749.0</ele><time>2026-04-11T15:22:58.999Z</time></trkpt><trkpt lat="44.14322946480405" lon="11.241336173770398"><ele>747.0</ele><time>2026-04-11T15:22:59.999Z</time></trkpt><trkpt lat="44.14332113562142" lon="11.241301400910356"><ele>745.0</ele><time>2026-04-11T15:23:00.999Z</time></trkpt><trkpt lat="44.1434262847702" lon="11.241326524541275"><ele>745.0</ele><time>2026-04-11T15:23:01.999Z</time></trkpt><trkpt lat="44.143543671100076" lon="11.241402081753977"><ele>745.0</ele><time>2026-04-11T15:23:02.999Z</time></trkpt><trkpt lat="44.14365683363519" lon="11.241523889996914"><ele>745.0</ele><time>2026-04-11T15:23:03.999Z</time></trkpt><trkpt lat="44.143773218992756" lon="11.241649865108311"><ele>745.0</ele><time>2026-04-11T15:23:04.999Z</time></trkpt><trkpt lat="44.14388846723187" lon="11.24174464280011"><ele>747.25</ele><time>2026-04-11T15:23:05.999Z</time></trkpt><trkpt lat="44.14399677630422" lon="11.241830971368936"><ele>749.5</ele><time>2026-04-11T15:23:06.999Z</time></trkpt><trkpt lat="44.14410898444528" lon="11.241866292531931"><ele>751.75</ele><time>2026-04-11T15:23:07.999Z</time></trkpt><trkpt lat="44.144214203156665" lon="11.241854634192066"><ele>754.0</ele><time>2026-04-11T15:23:08.999Z</time></trkpt><trkpt lat="44.14433274853509" lon="11.241786695306217"><ele>754.0</ele><time>2026-04-11T15:23:09.999Z</time></trkpt><trkpt lat="44.14444816278321" lon="11.241662140685238"><ele>754.0</ele><time>2026-04-11T15:23:10.999Z</time></trkpt><trkpt lat="44.14453713880241" lon="11.24150569662677"><ele>754.0</ele><time>2026-04-11T15:23:11.999Z</time></trkpt><trkpt lat="44.14463741052902" lon="11.241376877912634"><ele>754.0</ele><time>2026-04-11T15:23:12.999Z</time></trkpt><trkpt lat="44.14471920136778" lon="11.241272724243489"><ele>751.8000000000001</ele><time>2026-04-11T15:23:13.999Z</time></trkpt><trkpt lat="44.14476328040994" lon="11.241156944270042"><ele>749.6</ele><time>2026-04-11T15:23:14.999Z</time></trkpt><trkpt lat="44.1447887828056" lon="11.2410290088803"><ele>747.4</ele><time>2026-04-11T15:23:15.999Z</time></trkpt><trkpt lat="44.14474716983186" lon="11.240885078618474"><ele>745.2</ele><time>2026-04-11T15:23:16.999Z</time></trkpt><trkpt lat="44.144684353310176" lon="11.240746224008591"><ele>743.0</ele><time>2026-04-11T15:23:17.999Z</time></trkpt><trkpt lat="44.14462417647112" lon="11.240592685098353"><ele>743.0</ele><time>2026-04-11T15:23:18.999Z</time></trkpt><trkpt lat="44.1445649340364" lon="11.240429646781926"><ele>743.0</ele><time>2026-04-11T15:23:19.999Z</time></trkpt><trkpt lat="44.14450372768563" lon="11.24025494664626"><ele>743.0</ele><time>2026-04-11T15:23:20.999Z</time></trkpt><trkpt lat="44.14442632460474" lon="11.240067672310625"><ele>743.0</ele><time>2026-04-11T15:23:21.999Z</time></trkpt><trkpt lat="44.144338422195574" lon="11.239877252882296"><ele>749.0</ele><time>2026-04-11T15:23:22.999Z</time></trkpt><trkpt lat="44.14425878068612" lon="11.239684039053861"><ele>755.0</ele><time>2026-04-11T15:23:23.999Z</time></trkpt><trkpt lat="44.144179425237034" lon="11.23951421017472"><ele>761.0</ele><time>2026-04-11T15:23:24.999Z</time></trkpt><trkpt lat="44.14411445202894" lon="11.23934284554595"><ele>767.0</ele><time>2026-04-11T15:23:25.999Z</time></trkpt><trkpt lat="44.14407502648789" lon="11.239143632614267"><ele>770.6666666666666</ele><time>2026-04-11T15:23:26.999Z</time></trkpt><trkpt lat="44.14405003239091" lon="11.238921015118484"><ele>774.3333333333333</ele><time>2026-04-11T15:23:27.999Z</time></trkpt><trkpt lat="44.14403337102853" lon="11.238687059178055"><ele>778.0</ele><time>2026-04-11T15:23:28.999Z</time></trkpt><trkpt lat="44.14400942428404" lon="11.238446938022427"><ele>768.3333333333333</ele><time>2026-04-11T15:23:29.999Z</time></trkpt><trkpt lat="44.14396531549688" lon="11.238196165325109"><ele>758.6666666666666</ele><time>2026-04-11T15:23:30.999Z</time></trkpt><trkpt lat="44.143899935222265" lon="11.237948404521903"><ele>749.0</ele><time>2026-04-11T15:23:31.999Z</time></trkpt><trkpt lat="44.143807319916284" lon="11.237687303024732"><ele>749.0</ele><time>2026-04-11T15:23:32.999Z</time></trkpt><trkpt lat="44.14371071766616" lon="11.237415397106906"><ele>749.0</ele><time>2026-04-11T15:23:33.999Z</time></trkpt><trkpt lat="44.14359850723732" lon="11.237135144505991"><ele>749.0</ele><time>2026-04-11T15:23:34.999Z</time></trkpt><trkpt lat="44.14347525690751" lon="11.236855637319433"><ele>751.0</ele><time>2026-04-11T15:23:35.999Z</time></trkpt><trkpt lat="44.143371240967305" lon="11.236607706019962"><ele>753.0</ele><time>2026-04-11T15:23:36.999Z</time></trkpt><trkpt lat="44.143280108061255" lon="11.236393276461092"><ele>755.0</ele><time>2026-04-11T15:23:37.999Z</time></trkpt><trkpt lat="44.143197980773444" lon="11.236194901651313"><ele>755.0</ele><time>2026-04-11T15:23:38.999Z</time></trkpt><trkpt lat="44.14311295830216" lon="11.2360108991955"><ele>755.0</ele><time>2026-04-11T15:23:39.999Z</time></trkpt><trkpt lat="44.14301155268508" lon="11.23584793378916"><ele>755.0</ele><time>2026-04-11T15:23:40.999Z</time></trkpt><trkpt lat="44.142872747514524" lon="11.235705597528817"><ele>756.25</ele><time>2026-04-11T15:23:41.999Z</time></trkpt><trkpt lat="44.14272311763112" lon="11.235593060412766"><ele>757.5</ele><time>2026-04-11T15:23:42.999Z</time></trkpt><trkpt lat="44.14259687530939" lon="11.23549912078783"><ele>758.75</ele><time>2026-04-11T15:23:43.999Z</time></trkpt><trkpt lat="44.1425217766194" lon="11.235410346015462"><ele>760.0</ele><time>2026-04-11T15:23:44.998Z</time></trkpt><trkpt lat="44.14247599113009" lon="11.235295990598106"><ele>760.0</ele><time>2026-04-11T15:23:45.998Z</time></trkpt><trkpt lat="44.142466343513306" lon="11.235153003178276"><ele>760.0</ele><time>2026-04-11T15:23:46.998Z</time></trkpt><trkpt lat="44.142541267630754" lon="11.235030358255194"><ele>760.0</ele><time>2026-04-11T15:23:47.998Z</time></trkpt><trkpt lat="44.14260473433445" lon="11.234918566476622"><ele>760.0</ele><time>2026-04-11T15:23:48.998Z</time></trkpt><trkpt lat="44.14272937091176" lon="11.234905816962511"><ele>760.0</ele><time>2026-04-11T15:23:49.998Z</time></trkpt><trkpt lat="44.142847016437635" lon="11.234912822076101"><ele>760.0</ele><time>2026-04-11T15:23:50.998Z</time></trkpt><trkpt lat="44.142969841450984" lon="11.234956724424407"><ele>760.0</ele><time>2026-04-11T15:23:51.998Z</time></trkpt><trkpt lat="44.14311536292581" lon="11.235000233549464"><ele>760.0</ele><time>2026-04-11T15:23:52.998Z</time></trkpt><trkpt lat="44.14325045880442" lon="11.235007739252756"><ele>760.0</ele><time>2026-04-11T15:23:53.998Z</time></trkpt><trkpt lat="44.14339423012303" lon="11.23495769116774"><ele>761.6666666666667</ele><time>2026-04-11T15:23:54.998Z</time></trkpt><trkpt lat="44.14353596829959" lon="11.234859574447363"><ele>763.3333333333334</ele><time>2026-04-11T15:23:55.998Z</time></trkpt><trkpt lat="44.143676635124976" lon="11.234743773499565"><ele>765.0</ele><time>2026-04-11T15:23:56.998Z</time></trkpt><trkpt lat="44.14384269082581" lon="11.234610324608832"><ele>764.3333333333334</ele><time>2026-04-11T15:23:57.998Z</time></trkpt><trkpt lat="44.14401310752207" lon="11.234477400352652"><ele>763.6666666666667</ele><time>2026-04-11T15:23:58.998Z</time></trkpt><trkpt lat="44.14417230169054" lon="11.234356242423019"><ele>763.0</ele><time>2026-04-11T15:23:59.998Z</time></trkpt><trkpt lat="44.14431719461538" lon="11.23423769546003"><ele>763.0</ele><time>2026-04-11T15:24:00.998Z</time></trkpt><trkpt lat="44.14444145113804" lon="11.234137006201294"><ele>763.0</ele><time>2026-04-11T15:24:01.998Z</time></trkpt><trkpt lat="44.144551760651474" lon="11.234047322693732"><ele>763.0</ele><time>2026-04-11T15:24:02.998Z</time></trkpt><trkpt lat="44.14466676534494" lon="11.233970209475473"><ele>763.0</ele><time>2026-04-11T15:24:04Z</time></trkpt><trkpt lat="44.144761130008" lon="11.233888622182537"><ele>760.6666666666667</ele><time>2026-04-11T15:24:05Z</time></trkpt><trkpt lat="44.144811847865775" lon="11.233510623175416"><ele>758.3333333333334</ele><time>2026-04-11T15:24:06Z</time></trkpt><trkpt lat="44.14482575136698" lon="11.233279845697295"><ele>756.0</ele><time>2026-04-11T15:24:07Z</time></trkpt><trkpt lat="44.14482971476329" lon="11.233025646422302"><ele>755.5</ele><time>2026-04-11T15:24:08Z</time></trkpt><trkpt lat="44.14482942456136" lon="11.232786384842806"><ele>755.0</ele><time>2026-04-11T15:24:09Z</time></trkpt><trkpt lat="44.144834481593" lon="11.232589239239202"><ele>754.5</ele><time>2026-04-11T15:24:10Z</time></trkpt><trkpt lat="44.14485558758038" lon="11.232447050644533"><ele>754.0</ele><time>2026-04-11T15:24:11Z</time></trkpt><trkpt lat="44.14490547408353" lon="11.232320580930585"><ele>757.0</ele><time>2026-04-11T15:24:12Z</time></trkpt><trkpt lat="44.14502509218052" lon="11.23223955268058"><ele>760.0</ele><time>2026-04-11T15:24:13Z</time></trkpt><trkpt lat="44.14514120622808" lon="11.232114750978548"><ele>763.0</ele><time>2026-04-11T15:24:14Z</time></trkpt><trkpt lat="44.14526248415824" lon="11.231980014421534"><ele>766.0</ele><time>2026-04-11T15:24:15Z</time></trkpt><trkpt lat="44.145381004794054" lon="11.23181710014756"><ele>766.0</ele><time>2026-04-11T15:24:16Z</time></trkpt><trkpt lat="44.14549258834785" lon="11.23165387873187"><ele>766.0</ele><time>2026-04-11T15:24:17Z</time></trkpt><trkpt lat="44.145576629776286" lon="11.231449776181034"><ele>766.0</ele><time>2026-04-11T15:24:18Z</time></trkpt><trkpt lat="44.14562259868191" lon="11.231218870398262"><ele>766.0</ele><time>2026-04-11T15:24:19Z</time></trkpt><trkpt lat="44.14564432035609" lon="11.230974884319094"><ele>766.0</ele><time>2026-04-11T15:24:20Z</time></trkpt><trkpt lat="44.14564302987304" lon="11.23071204236834"><ele>766.0</ele><time>2026-04-11T15:24:21Z</time></trkpt><trkpt lat="44.14560955714661" lon="11.230433767831524"><ele>766.0</ele><time>2026-04-11T15:24:22Z</time></trkpt><trkpt lat="44.14555352542607" lon="11.230154499132816"><ele>766.0</ele><time>2026-04-11T15:24:23Z</time></trkpt><trkpt lat="44.14548834821869" lon="11.229868266775963"><ele>766.0</ele><time>2026-04-11T15:24:24Z</time></trkpt><trkpt lat="44.14543486827464" lon="11.22960250626296"><ele>767.0</ele><time>2026-04-11T15:24:25Z</time></trkpt><trkpt lat="44.14538719056847" lon="11.229366709335382"><ele>768.0</ele><time>2026-04-11T15:24:26Z</time></trkpt><trkpt lat="44.14532033925701" lon="11.229137720295263"><ele>769.0</ele><time>2026-04-11T15:24:27Z</time></trkpt><trkpt lat="44.145205490436794" lon="11.228919409650741"><ele>766.5</ele><time>2026-04-11T15:24:28Z</time></trkpt><trkpt lat="44.14500024455087" lon="11.22870099017123"><ele>764.0</ele><time>2026-04-11T15:24:29Z</time></trkpt><trkpt lat="44.14485898245582" lon="11.228491677311302"><ele>764.0</ele><time>2026-04-11T15:24:30Z</time></trkpt><trkpt lat="44.144715623309295" lon="11.228281656960338"><ele>764.0</ele><time>2026-04-11T15:24:31Z</time></trkpt><trkpt lat="44.14459531063533" lon="11.228100117440833"><ele>764.0</ele><time>2026-04-11T15:24:32Z</time></trkpt><trkpt lat="44.144489541230946" lon="11.227933680786213"><ele>767.0</ele><time>2026-04-11T15:24:33Z</time></trkpt><trkpt lat="44.1444008331429" lon="11.227775207370133"><ele>770.0</ele><time>2026-04-11T15:24:34Z</time></trkpt><trkpt lat="44.14432821685262" lon="11.227593929626366"><ele>773.0</ele><time>2026-04-11T15:24:35Z</time></trkpt><trkpt lat="44.14426511984999" lon="11.227386647011691"><ele>770.6666666666667</ele><time>2026-04-11T15:24:36Z</time></trkpt><trkpt lat="44.14420059413631" lon="11.227159150374774"><ele>768.3333333333334</ele><time>2026-04-11T15:24:37Z</time></trkpt><trkpt lat="44.14413323747264" lon="11.226946667206551"><ele>766.0</ele><time>2026-04-11T15:24:38Z</time></trkpt><trkpt lat="44.14402326573337" lon="11.22676506761544"><ele>766.0</ele><time>2026-04-11T15:24:39Z</time></trkpt><trkpt lat="44.14389939977533" lon="11.226593423505168"><ele>766.0</ele><time>2026-04-11T15:24:40Z</time></trkpt><trkpt lat="44.143746503571684" lon="11.226459391512744"><ele>766.0</ele><time>2026-04-11T15:24:41Z</time></trkpt><trkpt lat="44.14358853935509" lon="11.226324105095113"><ele>768.25</ele><time>2026-04-11T15:24:42Z</time></trkpt><trkpt lat="44.14345659630204" lon="11.226169240069625"><ele>770.5</ele><time>2026-04-11T15:24:43Z</time></trkpt><trkpt lat="44.14334094095525" lon="11.226056818237906"><ele>772.75</ele><time>2026-04-11T15:24:44Z</time></trkpt><trkpt lat="44.14323507139278" lon="11.225945209126424"><ele>775.0</ele><time>2026-04-11T15:24:45Z</time></trkpt><trkpt lat="44.14315263107374" lon="11.225859788923833"><ele>775.0</ele><time>2026-04-11T15:24:46Z</time></trkpt><trkpt lat="44.143091658774644" lon="11.225706330658761"><ele>775.0</ele><time>2026-04-11T15:24:47Z</time></trkpt><trkpt lat="44.14308037933753" lon="11.225548375985404"><ele>775.0</ele><time>2026-04-11T15:24:47.999Z</time></trkpt><trkpt lat="44.14309888696511" lon="11.225391655238633"><ele>775.0</ele><time>2026-04-11T15:24:48.999Z</time></trkpt><trkpt lat="44.143168590348075" lon="11.225253617660835"><ele>777.0</ele><time>2026-04-11T15:24:49.999Z</time></trkpt><trkpt lat="44.14325601223363" lon="11.225166812458165"><ele>779.0</ele><time>2026-04-11T15:24:50.999Z</time></trkpt><trkpt lat="44.14337510498836" lon="11.225103775490076"><ele>781.0</ele><time>2026-04-11T15:24:51.999Z</time></trkpt><trkpt lat="44.14352527716767" lon="11.22505909003737"><ele>783.0</ele><time>2026-04-11T15:24:52.999Z</time></trkpt><trkpt lat="44.14367856728167" lon="11.225058343120418"><ele>783.0</ele><time>2026-04-11T15:24:53.999Z</time></trkpt><trkpt lat="44.143832464299" lon="11.225039407186788"><ele>783.0</ele><time>2026-04-11T15:24:54.999Z</time></trkpt><trkpt lat="44.14399526750842" lon="11.22501039514271"><ele>783.0</ele><time>2026-04-11T15:24:55.999Z</time></trkpt><trkpt lat="44.14416388002195" lon="11.224987521809688"><ele>783.3333333333333</ele><time>2026-04-11T15:24:56.999Z</time></trkpt><trkpt lat="44.144348673931525" lon="11.224965369468551"><ele>783.6666666666666</ele><time>2026-04-11T15:24:57.999Z</time></trkpt><trkpt lat="44.144523548093055" lon="11.224944371375187"><ele>784.0</ele><time>2026-04-11T15:24:58.999Z</time></trkpt><trkpt lat="44.14469584218484" lon="11.224921901130939"><ele>784.0</ele><time>2026-04-11T15:24:59.999Z</time></trkpt><trkpt lat="44.144852546268574" lon="11.224903975524235"><ele>784.0</ele><time>2026-04-11T15:25:00.999Z</time></trkpt><trkpt lat="44.14500129027066" lon="11.22488792025727"><ele>784.0</ele><time>2026-04-11T15:25:01.999Z</time></trkpt><trkpt lat="44.1451332125926" lon="11.224862611981166"><ele>784.0</ele><time>2026-04-11T15:25:02.999Z</time></trkpt><trkpt lat="44.14523887616124" lon="11.224809163894717"><ele>780.25</ele><time>2026-04-11T15:25:03.999Z</time></trkpt><trkpt lat="44.145330024693884" lon="11.224708534055072"><ele>776.5</ele><time>2026-04-11T15:25:04.999Z</time></trkpt><trkpt lat="44.145391993808445" lon="11.224580888179498"><ele>772.75</ele><time>2026-04-11T15:25:05.999Z</time></trkpt><trkpt lat="44.14541748707763" lon="11.224390278009686"><ele>769.0</ele><time>2026-04-11T15:25:06.999Z</time></trkpt><trkpt lat="44.145412371748186" lon="11.224173658374568"><ele>768.0</ele><time>2026-04-11T15:25:07.999Z</time></trkpt><trkpt lat="44.14540118383803" lon="11.223931337397337"><ele>767.0</ele><time>2026-04-11T15:25:08.999Z</time></trkpt><trkpt lat="44.14540417702725" lon="11.223683708270217"><ele>766.0</ele><time>2026-04-11T15:25:09.999Z</time></trkpt><trkpt lat="44.145413375888005" lon="11.223461210065468"><ele>766.0</ele><time>2026-04-11T15:25:10.999Z</time></trkpt><trkpt lat="44.145461966268975" lon="11.22325691626145"><ele>766.0</ele><time>2026-04-11T15:25:11.999Z</time></trkpt><trkpt lat="44.14552732345754" lon="11.223044936830318"><ele>766.0</ele><time>2026-04-11T15:25:12.999Z</time></trkpt><trkpt lat="44.14560598976101" lon="11.222825328172929"><ele>765.0</ele><time>2026-04-11T15:25:13.999Z</time></trkpt><trkpt lat="44.14568453074571" lon="11.222611088743715"><ele>764.0</ele><time>2026-04-11T15:25:14.999Z</time></trkpt><trkpt lat="44.14575555515387" lon="11.222417673204687"><ele>763.0</ele><time>2026-04-11T15:25:15.999Z</time></trkpt><trkpt lat="44.145807887014755" lon="11.222271825793598"><ele>762.0</ele><time>2026-04-11T15:25:16.999Z</time></trkpt><trkpt lat="44.14586689968419" lon="11.222135907307221"><ele>762.0</ele><time>2026-04-11T15:25:17.999Z</time></trkpt><trkpt lat="44.14596124797952" lon="11.22203213653644"><ele>762.0</ele><time>2026-04-11T15:25:18.999Z</time></trkpt><trkpt lat="44.14608333576549" lon="11.221966252729063"><ele>762.0</ele><time>2026-04-11T15:25:19.999Z</time></trkpt><trkpt lat="44.1462259360268" lon="11.221976069289886"><ele>762.0</ele><time>2026-04-11T15:25:20.999Z</time></trkpt><trkpt lat="44.146382559653524" lon="11.221999773962326"><ele>762.0</ele><time>2026-04-11T15:25:21.999Z</time></trkpt><trkpt lat="44.14655679953913" lon="11.222018351610195"><ele>762.0</ele><time>2026-04-11T15:25:22.999Z</time></trkpt><trkpt lat="44.14674865530311" lon="11.222051284923621"><ele>762.0</ele><time>2026-04-11T15:25:23.999Z</time></trkpt><trkpt lat="44.146952318332964" lon="11.222073674245841"><ele>762.0</ele><time>2026-04-11T15:25:24.999Z</time></trkpt><trkpt lat="44.147141306318154" lon="11.222099727803124"><ele>762.0</ele><time>2026-04-11T15:25:25.999Z</time></trkpt><trkpt lat="44.147311042154556" lon="11.222125155740159"><ele>762.0</ele><time>2026-04-11T15:25:26.999Z</time></trkpt><trkpt lat="44.147475431024326" lon="11.222149561413472"><ele>760.6666666666666</ele><time>2026-04-11T15:25:27.999Z</time></trkpt><trkpt lat="44.14765612490406" lon="11.222142809812377"><ele>759.3333333333333</ele><time>2026-04-11T15:25:28.999Z</time></trkpt><trkpt lat="44.14784584787668" lon="11.222098699773003"><ele>758.0</ele><time>2026-04-11T15:25:29.999Z</time></trkpt><trkpt lat="44.14803917179552" lon="11.222015871434609"><ele>756.3333333333333</ele><time>2026-04-11T15:25:30.999Z</time></trkpt><trkpt lat="44.14821489016673" lon="11.221923821383859"><ele>754.6666666666666</ele><time>2026-04-11T15:25:31.999Z</time></trkpt><trkpt lat="44.1483782872604" lon="11.221844563669313"><ele>753.0</ele><time>2026-04-11T15:25:32.999Z</time></trkpt><trkpt lat="44.14854141177303" lon="11.22177682496378"><ele>753.0</ele><time>2026-04-11T15:25:33.999Z</time></trkpt><trkpt lat="44.14872001299468" lon="11.221745281004461"><ele>753.0</ele><time>2026-04-11T15:25:34.999Z</time></trkpt><trkpt lat="44.14892214381847" lon="11.221691374984097"><ele>753.0</ele><time>2026-04-11T15:25:35.999Z</time></trkpt><trkpt lat="44.14914263195946" lon="11.221690957120353"><ele>753.0</ele><time>2026-04-11T15:25:36.999Z</time></trkpt><trkpt lat="44.149346146513594" lon="11.22171959259171"><ele>753.0</ele><time>2026-04-11T15:25:37.999Z</time></trkpt><trkpt lat="44.14954179612066" lon="11.221730386779058"><ele>753.0</ele><time>2026-04-11T15:25:38.999Z</time></trkpt><trkpt lat="44.149747995631195" lon="11.221768115468171"><ele>750.3333333333334</ele><time>2026-04-11T15:25:39.999Z</time></trkpt><trkpt lat="44.14994288645816" lon="11.221811215797214"><ele>747.6666666666667</ele><time>2026-04-11T15:25:40.999Z</time></trkpt><trkpt lat="44.15011731467272" lon="11.22188544006836"><ele>745.0</ele><time>2026-04-11T15:25:41.999Z</time></trkpt><trkpt lat="44.1502781544859" lon="11.221950891146744"><ele>745.0</ele><time>2026-04-11T15:25:42.999Z</time></trkpt><trkpt lat="44.150414544203684" lon="11.221998611075643"><ele>745.0</ele><time>2026-04-11T15:25:43.999Z</time></trkpt><trkpt lat="44.15052652586822" lon="11.222012030265857"><ele>745.0</ele><time>2026-04-11T15:25:44.999Z</time></trkpt><trkpt lat="44.15063870376299" lon="11.221961632948528"><ele>745.0</ele><time>2026-04-11T15:25:45.999Z</time></trkpt><trkpt lat="44.15077199294729" lon="11.22183042748593"><ele>744.3333333333334</ele><time>2026-04-11T15:25:46.999Z</time></trkpt><trkpt lat="44.15091166277173" lon="11.221675531438883"><ele>743.6666666666666</ele><time>2026-04-11T15:25:47.999Z</time></trkpt><trkpt lat="44.15104131535275" lon="11.221531776192103"><ele>743.0</ele><time>2026-04-11T15:25:48.999Z</time></trkpt><trkpt lat="44.15117227242553" lon="11.221403981014676"><ele>742.6666666666666</ele><time>2026-04-11T15:25:49.999Z</time></trkpt><trkpt lat="44.151310935717724" lon="11.221282059097186"><ele>742.3333333333334</ele><time>2026-04-11T15:25:50.999Z</time></trkpt><trkpt lat="44.15144197293037" lon="11.221155109569324"><ele>742.0</ele><time>2026-04-11T15:25:51.998Z</time></trkpt><trkpt lat="44.151556725025124" lon="11.221001167061464"><ele>742.0</ele><time>2026-04-11T15:25:52.998Z</time></trkpt><trkpt lat="44.15164219396933" lon="11.220805777327357"><ele>742.0</ele><time>2026-04-11T15:25:53.998Z</time></trkpt><trkpt lat="44.151686626414865" lon="11.220581665349915"><ele>742.0</ele><time>2026-04-11T15:25:54.998Z</time></trkpt><trkpt lat="44.151716170807525" lon="11.220364544446127"><ele>740.2</ele><time>2026-04-11T15:25:55.998Z</time></trkpt><trkpt lat="44.151748392775744" lon="11.22017693053591"><ele>738.4000000000001</ele><time>2026-04-11T15:25:56.998Z</time></trkpt><trkpt lat="44.1517813260072" lon="11.220041892341118"><ele>736.5999999999999</ele><time>2026-04-11T15:25:57.998Z</time></trkpt><trkpt lat="44.15182165467045" lon="11.219955366850952"><ele>734.8</ele><time>2026-04-11T15:25:58.998Z</time></trkpt><trkpt lat="44.15188880392117" lon="11.219891708252412"><ele>733.0</ele><time>2026-04-11T15:25:59.998Z</time></trkpt><trkpt lat="44.15199548389348" lon="11.219888376250791"><ele>733.0</ele><time>2026-04-11T15:26:00.998Z</time></trkpt><trkpt lat="44.1521142310039" lon="11.219853090626684"><ele>733.0</ele><time>2026-04-11T15:26:01.998Z</time></trkpt><trkpt lat="44.152248236496646" lon="11.21985587911085"><ele>733.0</ele><time>2026-04-11T15:26:02.998Z</time></trkpt><trkpt lat="44.15237690926537" lon="11.21984414633146"><ele>733.0</ele><time>2026-04-11T15:26:03.998Z</time></trkpt><trkpt lat="44.15250912590363" lon="11.219814333475291"><ele>730.3333333333334</ele><time>2026-04-11T15:26:04.998Z</time></trkpt><trkpt lat="44.152654864581656" lon="11.219777240802713"><ele>727.6666666666666</ele><time>2026-04-11T15:26:05.998Z</time></trkpt><trkpt lat="44.15280872667731" lon="11.219732762072475"><ele>725.0</ele><time>2026-04-11T15:26:06.998Z</time></trkpt><trkpt lat="44.152953960925934" lon="11.219679794691729"><ele>725.0</ele><time>2026-04-11T15:26:07.998Z</time></trkpt><trkpt lat="44.15309060489529" lon="11.219597573013061"><ele>725.0</ele><time>2026-04-11T15:26:08.998Z</time></trkpt><trkpt lat="44.15321263748685" lon="11.219464453379526"><ele>725.0</ele><time>2026-04-11T15:26:10Z</time></trkpt><trkpt lat="44.15332205628167" lon="11.219279132670442"><ele>726.6666666666666</ele><time>2026-04-11T15:26:11Z</time></trkpt><trkpt lat="44.153422597365925" lon="11.219083978365102"><ele>728.3333333333334</ele><time>2026-04-11T15:26:12Z</time></trkpt><trkpt lat="44.153513962346125" lon="11.218922624228497"><ele>730.0</ele><time>2026-04-11T15:26:13Z</time></trkpt><trkpt lat="44.153616352572854" lon="11.218777336876595"><ele>726.6666666666667</ele><time>2026-04-11T15:26:14Z</time></trkpt><trkpt lat="44.153737345522465" lon="11.218631888501083"><ele>723.3333333333334</ele><time>2026-04-11T15:26:15Z</time></trkpt><trkpt lat="44.15387527286729" lon="11.218478828366992"><ele>720.0</ele><time>2026-04-11T15:26:16Z</time></trkpt><trkpt lat="44.15402734579009" lon="11.218316577059056"><ele>719.3333333333334</ele><time>2026-04-11T15:26:17Z</time></trkpt><trkpt lat="44.15418369657026" lon="11.218152144064474"><ele>718.6666666666667</ele><time>2026-04-11T15:26:18Z</time></trkpt><trkpt lat="44.154331772259155" lon="11.217969153092291"><ele>718.0</ele><time>2026-04-11T15:26:19Z</time></trkpt><trkpt lat="44.15445997759967" lon="11.217781272149342"><ele>718.0</ele><time>2026-04-11T15:26:20Z</time></trkpt><trkpt lat="44.15456032956546" lon="11.217595961531087"><ele>718.0</ele><time>2026-04-11T15:26:21Z</time></trkpt><trkpt lat="44.15466139478306" lon="11.217403833884429"><ele>718.0</ele><time>2026-04-11T15:26:22Z</time></trkpt><trkpt lat="44.15479659501802" lon="11.217234570716611"><ele>718.6666666666667</ele><time>2026-04-11T15:26:23Z</time></trkpt><trkpt lat="44.15494435967232" lon="11.217082205444115"><ele>719.3333333333334</ele><time>2026-04-11T15:26:24Z</time></trkpt><trkpt lat="44.15507599905169" lon="11.216941113928291"><ele>720.0</ele><time>2026-04-11T15:26:25Z</time></trkpt><trkpt lat="44.1551947857387" lon="11.216783614340534"><ele>720.0</ele><time>2026-04-11T15:26:26Z</time></trkpt><trkpt lat="44.15530711330847" lon="11.216625840749781"><ele>720.0</ele><time>2026-04-11T15:26:27Z</time></trkpt><trkpt lat="44.15542425349897" lon="11.21649405917064"><ele>720.0</ele><time>2026-04-11T15:26:28Z</time></trkpt><trkpt lat="44.15557372890193" lon="11.216410414787667"><ele>718.0</ele><time>2026-04-11T15:26:29Z</time></trkpt><trkpt lat="44.15571375422839" lon="11.216325049887699"><ele>716.0</ele><time>2026-04-11T15:26:30Z</time></trkpt><trkpt lat="44.15584800870871" lon="11.216283806087112"><ele>714.0</ele><time>2026-04-11T15:26:31Z</time></trkpt><trkpt lat="44.155974868526876" lon="11.216267922909331"><ele>712.0</ele><time>2026-04-11T15:26:32Z</time></trkpt><trkpt lat="44.156118797000026" lon="11.2162869643329"><ele>712.0</ele><time>2026-04-11T15:26:33Z</time></trkpt><trkpt lat="44.156262523274435" lon="11.21634926134869"><ele>712.0</ele><time>2026-04-11T15:26:34Z</time></trkpt><trkpt lat="44.15641228499118" lon="11.21648040436845"><ele>712.0</ele><time>2026-04-11T15:26:35Z</time></trkpt><trkpt lat="44.15657664406772" lon="11.216587863078841"><ele>713.75</ele><time>2026-04-11T15:26:36Z</time></trkpt><trkpt lat="44.156731337500766" lon="11.216682585073347"><ele>715.5</ele><time>2026-04-11T15:26:37Z</time></trkpt><trkpt lat="44.156880728117585" lon="11.216752887713406"><ele>717.25</ele><time>2026-04-11T15:26:38Z</time></trkpt><trkpt lat="44.15699795765483" lon="11.216802608215284"><ele>719.0</ele><time>2026-04-11T15:26:39Z</time></trkpt><trkpt lat="44.15710274383851" lon="11.216818418177732"><ele>719.0</ele><time>2026-04-11T15:26:40Z</time></trkpt><trkpt lat="44.15720941294479" lon="11.216795656504122"><ele>719.0</ele><time>2026-04-11T15:26:41Z</time></trkpt><trkpt lat="44.15731164484749" lon="11.21669916473555"><ele>719.0</ele><time>2026-04-11T15:26:42Z</time></trkpt><trkpt lat="44.15737951069294" lon="11.216565500549459"><ele>719.0</ele><time>2026-04-11T15:26:43Z</time></trkpt><trkpt lat="44.1574209965327" lon="11.216381238599494"><ele>716.75</ele><time>2026-04-11T15:26:44Z</time></trkpt><trkpt lat="44.15744972160438" lon="11.216185705005513"><ele>714.5</ele><time>2026-04-11T15:26:45Z</time></trkpt><trkpt lat="44.15747332713299" lon="11.215987414688724"><ele>712.25</ele><time>2026-04-11T15:26:46Z</time></trkpt><trkpt lat="44.15750059717567" lon="11.21581229343288"><ele>710.0</ele><time>2026-04-11T15:26:47Z</time></trkpt><trkpt lat="44.1575786723387" lon="11.215652144940965"><ele>705.6666666666666</ele><time>2026-04-11T15:26:48Z</time></trkpt><trkpt lat="44.15766584130068" lon="11.21546946662368"><ele>701.3333333333334</ele><time>2026-04-11T15:26:49Z</time></trkpt><trkpt lat="44.1577700866392" lon="11.215286182984006"><ele>697.0</ele><time>2026-04-11T15:26:50Z</time></trkpt><trkpt lat="44.15784185689357" lon="11.215073601431461"><ele>697.0</ele><time>2026-04-11T15:26:51Z</time></trkpt><trkpt lat="44.15789662530873" lon="11.214866537084301"><ele>697.0</ele><time>2026-04-11T15:26:52Z</time></trkpt><trkpt lat="44.15797115035115" lon="11.214637540324754"><ele>697.0</ele><time>2026-04-11T15:26:52.999Z</time></trkpt><trkpt lat="44.158094117723806" lon="11.214433131464169"><ele>697.3333333333334</ele><time>2026-04-11T15:26:53.999Z</time></trkpt><trkpt lat="44.15819342264347" lon="11.214213863052223"><ele>697.6666666666666</ele><time>2026-04-11T15:26:54.999Z</time></trkpt><trkpt lat="44.1582966170217" lon="11.21401577245383"><ele>698.0</ele><time>2026-04-11T15:26:55.999Z</time></trkpt><trkpt lat="44.15839269840531" lon="11.213839107411108"><ele>692.75</ele><time>2026-04-11T15:26:56.999Z</time></trkpt><trkpt lat="44.15847598675941" lon="11.213691843234683"><ele>687.5</ele><time>2026-04-11T15:26:57.999Z</time></trkpt><trkpt lat="44.158567224490966" lon="11.213578228398534"><ele>682.25</ele><time>2026-04-11T15:26:58.999Z</time></trkpt><trkpt lat="44.15867716133441" lon="11.213479931579341"><ele>677.0</ele><time>2026-04-11T15:26:59.999Z</time></trkpt><trkpt lat="44.158804802080894" lon="11.213397259569218"><ele>677.0</ele><time>2026-04-11T15:27:00.999Z</time></trkpt><trkpt lat="44.15893899910153" lon="11.213345538217158"><ele>677.0</ele><time>2026-04-11T15:27:01.999Z</time></trkpt><trkpt lat="44.159065887334904" lon="11.213329628474922"><ele>677.0</ele><time>2026-04-11T15:27:02.999Z</time></trkpt><trkpt lat="44.159153884272754" lon="11.21336295496784"><ele>677.0</ele><time>2026-04-11T15:27:03.999Z</time></trkpt><trkpt lat="44.15925059933162" lon="11.21344159805974"><ele>677.75</ele><time>2026-04-11T15:27:04.999Z</time></trkpt><trkpt lat="44.159311678936234" lon="11.21358679956368"><ele>678.5</ele><time>2026-04-11T15:27:05.999Z</time></trkpt><trkpt lat="44.159399304331295" lon="11.213747382202927"><ele>679.25</ele><time>2026-04-11T15:27:06.999Z</time></trkpt><trkpt lat="44.15946392662914" lon="11.213933484165443"><ele>680.0</ele><time>2026-04-11T15:27:07.999Z</time></trkpt><trkpt lat="44.15953931017331" lon="11.21412564692923"><ele>681.0</ele><time>2026-04-11T15:27:08.999Z</time></trkpt><trkpt lat="44.15960784364596" lon="11.214292826191505"><ele>682.0</ele><time>2026-04-11T15:27:09.999Z</time></trkpt><trkpt lat="44.15969127731611" lon="11.214429938858263"><ele>683.0</ele><time>2026-04-11T15:27:10.999Z</time></trkpt><trkpt lat="44.15979256107516" lon="11.214538761335543"><ele>684.0</ele><time>2026-04-11T15:27:11.999Z</time></trkpt><trkpt lat="44.15992632858405" lon="11.214611748968013"><ele>684.0</ele><time>2026-04-11T15:27:12.999Z</time></trkpt><trkpt lat="44.160066246611855" lon="11.214649851470101"><ele>684.0</ele><time>2026-04-11T15:27:13.999Z</time></trkpt><trkpt lat="44.160214650672614" lon="11.214670509002126"><ele>684.0</ele><time>2026-04-11T15:27:14.999Z</time></trkpt><trkpt lat="44.16036449838992" lon="11.214662267743075"><ele>684.0</ele><time>2026-04-11T15:27:15.999Z</time></trkpt><trkpt lat="44.16050968908149" lon="11.214658735665452"><ele>684.0</ele><time>2026-04-11T15:27:16.999Z</time></trkpt><trkpt lat="44.16064762318368" lon="11.2146672424804"><ele>684.0</ele><time>2026-04-11T15:27:17.999Z</time></trkpt><trkpt lat="44.16079411970469" lon="11.21469987987166"><ele>684.0</ele><time>2026-04-11T15:27:18.999Z</time></trkpt><trkpt lat="44.16094232889503" lon="11.214735138104942"><ele>684.0</ele><time>2026-04-11T15:27:19.999Z</time></trkpt><trkpt lat="44.161069580244515" lon="11.214772136884342"><ele>684.0</ele><time>2026-04-11T15:27:20.999Z</time></trkpt><trkpt lat="44.16117484308771" lon="11.214825095578753"><ele>684.0</ele><time>2026-04-11T15:27:21.999Z</time></trkpt><trkpt lat="44.16129033183691" lon="11.214837877926323"><ele>684.0</ele><time>2026-04-11T15:27:22.999Z</time></trkpt><trkpt lat="44.16142094303804" lon="11.21478881230359"><ele>684.0</ele><time>2026-04-11T15:27:23.999Z</time></trkpt><trkpt lat="44.16158420169579" lon="11.21470214515081"><ele>679.5</ele><time>2026-04-11T15:27:24.999Z</time></trkpt><trkpt lat="44.16170451255421" lon="11.214602523466697"><ele>675.0</ele><time>2026-04-11T15:27:25.999Z</time></trkpt><trkpt lat="44.16182100808441" lon="11.214549583603535"><ele>670.5</ele><time>2026-04-11T15:27:26.999Z</time></trkpt><trkpt lat="44.161936084638775" lon="11.214552356911607"><ele>666.0</ele><time>2026-04-11T15:27:27.999Z</time></trkpt><trkpt lat="44.162040156486164" lon="11.214612892331713"><ele>666.0</ele><time>2026-04-11T15:27:28.999Z</time></trkpt><trkpt lat="44.16212560682139" lon="11.214728734220104"><ele>666.0</ele><time>2026-04-11T15:27:29.999Z</time></trkpt><trkpt lat="44.16219210001753" lon="11.214893954218182"><ele>666.0</ele><time>2026-04-11T15:27:30.999Z</time></trkpt><trkpt lat="44.16224371236068" lon="11.21507508078969"><ele>666.0</ele><time>2026-04-11T15:27:31.999Z</time></trkpt><trkpt lat="44.16230278564597" lon="11.215244754119723"><ele>666.1999999999999</ele><time>2026-04-11T15:27:32.999Z</time></trkpt><trkpt lat="44.16236160994591" lon="11.215403164608098"><ele>666.4</ele><time>2026-04-11T15:27:33.999Z</time></trkpt><trkpt lat="44.16241781348332" lon="11.215549209644607"><ele>666.6</ele><time>2026-04-11T15:27:34.999Z</time></trkpt><trkpt lat="44.1624565736621" lon="11.215680081035254"><ele>666.8</ele><time>2026-04-11T15:27:35.999Z</time></trkpt><trkpt lat="44.1624813432328" lon="11.21577941672191"><ele>667.0</ele><time>2026-04-11T15:27:36.999Z</time></trkpt><trkpt lat="44.16253911639163" lon="11.215891530963335"><ele>667.0</ele><time>2026-04-11T15:27:38.999Z</time></trkpt><trkpt lat="44.162605578726925" lon="11.21593678868524"><ele>667.0</ele><time>2026-04-11T15:27:40.999Z</time></trkpt><trkpt lat="44.16269795785288" lon="11.21598546939707"><ele>667.0</ele><time>2026-04-11T15:27:42.999Z</time></trkpt><trkpt lat="44.16281456185985" lon="11.216049992601553"><ele>667.0</ele><time>2026-04-11T15:27:44.999Z</time></trkpt><trkpt lat="44.1628992435625" lon="11.216075146867581"><ele>667.0</ele><time>2026-04-11T15:27:45.999Z</time></trkpt><trkpt lat="44.162991946688905" lon="11.216082742946043"><ele>667.0</ele><time>2026-04-11T15:27:46.999Z</time></trkpt><trkpt lat="44.16307830097679" lon="11.216075714764846"><ele>667.0</ele><time>2026-04-11T15:27:47.999Z</time></trkpt><trkpt lat="44.1631614526366" lon="11.216051866230188"><ele>667.0</ele><time>2026-04-11T15:27:48.999Z</time></trkpt><trkpt lat="44.163241412088524" lon="11.216024395312186"><ele>667.0</ele><time>2026-04-11T15:27:49.999Z</time></trkpt><trkpt lat="44.16331632193342" lon="11.216001664777531"><ele>667.0</ele><time>2026-04-11T15:27:50.999Z</time></trkpt><trkpt lat="44.16339011982789" lon="11.215990712300606"><ele>667.0</ele><time>2026-04-11T15:27:51.999Z</time></trkpt><trkpt lat="44.16346414711307" lon="11.215976868258476"><ele>665.0</ele><time>2026-04-11T15:27:52.999Z</time></trkpt><trkpt lat="44.16353496826511" lon="11.21596983979768"><ele>663.0</ele><time>2026-04-11T15:27:53.999Z</time></trkpt><trkpt lat="44.163605189291005" lon="11.215960257792926"><ele>661.0</ele><time>2026-04-11T15:27:54.999Z</time></trkpt><trkpt lat="44.16367492382868" lon="11.215951260549813"><ele>659.0</ele><time>2026-04-11T15:27:55.998Z</time></trkpt><trkpt lat="44.16377021041002" lon="11.21595122258594"><ele>657.0</ele><time>2026-04-11T15:27:57.998Z</time></trkpt><trkpt lat="44.163833310283046" lon="11.215929246181705"><ele>655.0</ele><time>2026-04-11T15:27:59.998Z</time></trkpt><trkpt lat="44.1637139638849" lon="11.215936286439575"><ele>655.0</ele><time>2026-04-11T15:28:04.998Z</time></trkpt><trkpt lat="44.163579870954884" lon="11.2159490598788"><ele>655.0</ele><time>2026-04-11T15:28:05.998Z</time></trkpt><trkpt lat="44.16348016921168" lon="11.215987034289165"><ele>655.0</ele><time>2026-04-11T15:28:06.998Z</time></trkpt><trkpt lat="44.16334940532098" lon="11.21603149940282"><ele>655.0</ele><time>2026-04-11T15:28:07.998Z</time></trkpt><trkpt lat="44.1632268391402" lon="11.216071712981224"><ele>657.4</ele><time>2026-04-11T15:28:08.998Z</time></trkpt><trkpt lat="44.16312051991553" lon="11.216079378442215"><ele>659.8</ele><time>2026-04-11T15:28:09.998Z</time></trkpt><trkpt lat="44.16299858930336" lon="11.216120036200463"><ele>662.2</ele><time>2026-04-11T15:28:10.998Z</time></trkpt><trkpt lat="44.162907059162" lon="11.216076116845654"><ele>664.6</ele><time>2026-04-11T15:28:11.998Z</time></trkpt><trkpt lat="44.16279885390922" lon="11.21605158601191"><ele>667.0</ele><time>2026-04-11T15:28:12.998Z</time></trkpt><trkpt lat="44.162727376525474" lon="11.215949275933523"><ele>667.0</ele><time>2026-04-11T15:28:13.998Z</time></trkpt><trkpt lat="44.1626431568729" lon="11.215899569265266"><ele>667.0</ele><time>2026-04-11T15:28:14.998Z</time></trkpt><trkpt lat="44.16257549967924" lon="11.21584979218237"><ele>667.0</ele><time>2026-04-11T15:28:16Z</time></trkpt><trkpt lat="44.16249067814644" lon="11.215986726552206"><ele>667.0</ele><time>2026-04-11T15:28:19Z</time></trkpt><trkpt lat="44.162546732170604" lon="11.216076957214687"><ele>667.0</ele><time>2026-04-11T15:28:21Z</time></trkpt><trkpt lat="44.16260169031667" lon="11.21612900885871"><ele>667.0</ele><time>2026-04-11T15:28:22Z</time></trkpt><trkpt lat="44.16265630875947" lon="11.216195789907504"><ele>667.0</ele><time>2026-04-11T15:28:23Z</time></trkpt><trkpt lat="44.162694681428675" lon="11.21627663399334"><ele>667.0</ele><time>2026-04-11T15:28:24Z</time></trkpt><trkpt lat="44.162750835349186" lon="11.216414467053388"><ele>667.0</ele><time>2026-04-11T15:28:26Z</time></trkpt><trkpt lat="44.16284917208866" lon="11.216488006828287"><ele>667.0</ele><time>2026-04-11T15:28:28Z</time></trkpt><trkpt lat="44.16291003610292" lon="11.216513047223106"><ele>667.0</ele><time>2026-04-11T15:28:29Z</time></trkpt><trkpt lat="44.163052880764226" lon="11.216529983442747"><ele>668.8</ele><time>2026-04-11T15:28:31Z</time></trkpt><trkpt lat="44.16312998117744" lon="11.216527660651288"><ele>670.6</ele><time>2026-04-11T15:28:32Z</time></trkpt><trkpt lat="44.1632243174627" lon="11.216530724245564"><ele>672.4</ele><time>2026-04-11T15:28:33Z</time></trkpt><trkpt lat="44.16334455850955" lon="11.216571494478504"><ele>674.1999999999999</ele><time>2026-04-11T15:28:34Z</time></trkpt><trkpt lat="44.16343169989009" lon="11.216519052169607"><ele>676.0</ele><time>2026-04-11T15:28:36Z</time></trkpt><trkpt lat="44.16356780829423" lon="11.216434461627241"><ele>671.8</ele><time>2026-04-11T15:28:38Z</time></trkpt><trkpt lat="44.16367472613394" lon="11.216403553995296"><ele>667.5999999999999</ele><time>2026-04-11T15:28:39Z</time></trkpt><trkpt lat="44.16376191641329" lon="11.216372209718845"><ele>663.4</ele><time>2026-04-11T15:28:40Z</time></trkpt><trkpt lat="44.163851620165325" lon="11.216357119302005"><ele>659.2</ele><time>2026-04-11T15:28:41Z</time></trkpt><trkpt lat="44.163919703029904" lon="11.216340929994905"><ele>655.0</ele><time>2026-04-11T15:28:42Z</time></trkpt><trkpt lat="44.16401422752098" lon="11.21633928074025"><ele>654.6</ele><time>2026-04-11T15:28:43Z</time></trkpt><trkpt lat="44.16410968609916" lon="11.216332986750672"><ele>654.2</ele><time>2026-04-11T15:28:44Z</time></trkpt><trkpt lat="44.16418639145984" lon="11.216336780328962"><ele>653.8</ele><time>2026-04-11T15:28:45Z</time></trkpt><trkpt lat="44.16428054835657" lon="11.216321168919974"><ele>653.4</ele><time>2026-04-11T15:28:46Z</time></trkpt><trkpt lat="44.164379352401035" lon="11.21632498157816"><ele>653.0</ele><time>2026-04-11T15:28:47Z</time></trkpt><trkpt lat="44.16447164850244" lon="11.216331922426043"><ele>653.0</ele><time>2026-04-11T15:28:48Z</time></trkpt><trkpt lat="44.164565033642695" lon="11.216338492314673"><ele>653.0</ele><time>2026-04-11T15:28:49Z</time></trkpt><trkpt lat="44.16466057721639" lon="11.216347717964473"><ele>653.0</ele><time>2026-04-11T15:28:50Z</time></trkpt><trkpt lat="44.164755531785914" lon="11.216341268982747"><ele>653.0</ele><time>2026-04-11T15:28:51Z</time></trkpt><trkpt lat="44.16484809416393" lon="11.21632492368174"><ele>653.0</ele><time>2026-04-11T15:28:52Z</time></trkpt><trkpt lat="44.164944702398124" lon="11.216308879570327"><ele>654.0</ele><time>2026-04-11T15:28:53Z</time></trkpt><trkpt lat="44.16503854721661" lon="11.216271219673008"><ele>655.0</ele><time>2026-04-11T15:28:54Z</time></trkpt><trkpt lat="44.16513328936069" lon="11.216220218740885"><ele>656.0</ele><time>2026-04-11T15:28:55Z</time></trkpt><trkpt lat="44.165221766350726" lon="11.216165146925158"><ele>657.0</ele><time>2026-04-11T15:28:56Z</time></trkpt><trkpt lat="44.16530957573156" lon="11.216116351678414"><ele>658.0</ele><time>2026-04-11T15:28:57Z</time></trkpt><trkpt lat="44.16539997153993" lon="11.216067613973546"><ele>658.0</ele><time>2026-04-11T15:28:58Z</time></trkpt><trkpt lat="44.1655013993703" lon="11.216005633372115"><ele>658.0</ele><time>2026-04-11T15:28:59Z</time></trkpt><trkpt lat="44.165595650647056" lon="11.21594337349298"><ele>658.0</ele><time>2026-04-11T15:28:59.999Z</time></trkpt><trkpt lat="44.16567505236142" lon="11.21591853428359"><ele>658.0</ele><time>2026-04-11T15:29:00.999Z</time></trkpt><trkpt lat="44.165758849869874" lon="11.215881430336127"><ele>658.0</ele><time>2026-04-11T15:29:01.999Z</time></trkpt><trkpt lat="44.1658467994493" lon="11.215814026963093"><ele>659.2</ele><time>2026-04-11T15:29:02.999Z</time></trkpt><trkpt lat="44.16593884768803" lon="11.215776305163278"><ele>660.4</ele><time>2026-04-11T15:29:03.999Z</time></trkpt><trkpt lat="44.16601103213489" lon="11.215736731600062"><ele>661.6</ele><time>2026-04-11T15:29:04.999Z</time></trkpt><trkpt lat="44.16607416431919" lon="11.215700900868807"><ele>662.8000000000001</ele><time>2026-04-11T15:29:05.999Z</time></trkpt><trkpt lat="44.166187611710136" lon="11.215651333109525"><ele>664.0</ele><time>2026-04-11T15:29:07.999Z</time></trkpt><trkpt lat="44.16631379966996" lon="11.215639528053485"><ele>659.0</ele><time>2026-04-11T15:29:09.999Z</time></trkpt><trkpt lat="44.16639035156591" lon="11.215634112969974"><ele>654.0</ele><time>2026-04-11T15:29:10.999Z</time></trkpt><trkpt lat="44.16648332757902" lon="11.215590784746214"><ele>649.0</ele><time>2026-04-11T15:29:11.999Z</time></trkpt><trkpt lat="44.166596238865054" lon="11.2155201025963"><ele>644.0</ele><time>2026-04-11T15:29:12.999Z</time></trkpt><trkpt lat="44.166704431306044" lon="11.215438822525412"><ele>639.0</ele><time>2026-04-11T15:29:13.999Z</time></trkpt><trkpt lat="44.16680537964758" lon="11.215357541940381"><ele>639.0</ele><time>2026-04-11T15:29:14.999Z</time></trkpt><trkpt lat="44.166905113434495" lon="11.21528182791526"><ele>639.0</ele><time>2026-04-11T15:29:15.999Z</time></trkpt><trkpt lat="44.16700873233118" lon="11.215216800356202"><ele>639.0</ele><time>2026-04-11T15:29:16.999Z</time></trkpt><trkpt lat="44.16711045494693" lon="11.215151443310235"><ele>639.0</ele><time>2026-04-11T15:29:17.999Z</time></trkpt><trkpt lat="44.16721001158908" lon="11.215096789603123"><ele>639.0</ele><time>2026-04-11T15:29:18.999Z</time></trkpt><trkpt lat="44.16729760814474" lon="11.215049540331037"><ele>638.8</ele><time>2026-04-11T15:29:19.999Z</time></trkpt><trkpt lat="44.1673911814565" lon="11.215008441315684"><ele>638.5999999999999</ele><time>2026-04-11T15:29:20.999Z</time></trkpt><trkpt lat="44.167492247784644" lon="11.214974958875665"><ele>638.4</ele><time>2026-04-11T15:29:21.999Z</time></trkpt><trkpt lat="44.167596077317526" lon="11.214935618060553"><ele>638.1999999999999</ele><time>2026-04-11T15:29:22.999Z</time></trkpt><trkpt lat="44.16769873165236" lon="11.214891602498245"><ele>638.0</ele><time>2026-04-11T15:29:23.999Z</time></trkpt><trkpt lat="44.16781108594887" lon="11.214840093007098"><ele>634.1999999999999</ele><time>2026-04-11T15:29:24.999Z</time></trkpt><trkpt lat="44.1679179449966" lon="11.214782686914365"><ele>630.4</ele><time>2026-04-11T15:29:25.999Z</time></trkpt><trkpt lat="44.16801321832665" lon="11.214715050005212"><ele>626.5999999999999</ele><time>2026-04-11T15:29:26.999Z</time></trkpt><trkpt lat="44.16808523576841" lon="11.214637621947803"><ele>622.8</ele><time>2026-04-11T15:29:27.999Z</time></trkpt><trkpt lat="44.168135147126705" lon="11.214572643181173"><ele>619.0</ele><time>2026-04-11T15:29:28.999Z</time></trkpt><trkpt lat="44.16818717652471" lon="11.21466738726473"><ele>622.8</ele><time>2026-04-11T15:29:31.999Z</time></trkpt><trkpt lat="44.168142536638975" lon="11.214838658388677"><ele>626.5999999999999</ele><time>2026-04-11T15:29:33.999Z</time></trkpt><trkpt lat="44.168119012958435" lon="11.214956078653827"><ele>630.4</ele><time>2026-04-11T15:29:34.999Z</time></trkpt><trkpt lat="44.16809002424881" lon="11.2151024317113"><ele>634.1999999999999</ele><time>2026-04-11T15:29:35.999Z</time></trkpt><trkpt lat="44.16805912287355" lon="11.215251095574494"><ele>638.0</ele><time>2026-04-11T15:29:36.999Z</time></trkpt><trkpt lat="44.16802452111776" lon="11.215388943556555"><ele>638.0</ele><time>2026-04-11T15:29:37.999Z</time></trkpt><trkpt lat="44.167993779448835" lon="11.215531672525394"><ele>638.0</ele><time>2026-04-11T15:29:38.999Z</time></trkpt><trkpt lat="44.16798303653502" lon="11.215675556605007"><ele>638.0</ele><time>2026-04-11T15:29:39.999Z</time></trkpt><trkpt lat="44.16799530272365" lon="11.215793513913674"><ele>638.0</ele><time>2026-04-11T15:29:40.999Z</time></trkpt><trkpt lat="44.16802450553957" lon="11.215895014148126"><ele>638.0</ele><time>2026-04-11T15:29:41.999Z</time></trkpt><trkpt lat="44.168072925482505" lon="11.215982846065844"><ele>639.0</ele><time>2026-04-11T15:29:42.999Z</time></trkpt><trkpt lat="44.16812989511666" lon="11.216070235349726"><ele>640.0</ele><time>2026-04-11T15:29:43.999Z</time></trkpt><trkpt lat="44.16816598366097" lon="11.216159646465963"><ele>641.0</ele><time>2026-04-11T15:29:44.999Z</time></trkpt><trkpt lat="44.16817923627367" lon="11.21629805795614"><ele>642.0</ele><time>2026-04-11T15:29:45.999Z</time></trkpt><trkpt lat="44.16818244682795" lon="11.216464566413501"><ele>643.0</ele><time>2026-04-11T15:29:46.999Z</time></trkpt><trkpt lat="44.16818457604148" lon="11.216639832143734"><ele>643.5</ele><time>2026-04-11T15:29:47.999Z</time></trkpt><trkpt lat="44.16818331439769" lon="11.216812136320282"><ele>644.0</ele><time>2026-04-11T15:29:48.999Z</time></trkpt><trkpt lat="44.168175609828275" lon="11.21697734400484"><ele>644.5</ele><time>2026-04-11T15:29:49.999Z</time></trkpt><trkpt lat="44.16816191029296" lon="11.217137900829657"><ele>645.0</ele><time>2026-04-11T15:29:50.999Z</time></trkpt><trkpt lat="44.16814233811553" lon="11.217295422646417"><ele>645.2</ele><time>2026-04-11T15:29:51.999Z</time></trkpt><trkpt lat="44.168110119475635" lon="11.217444446039671"><ele>645.4</ele><time>2026-04-11T15:29:52.999Z</time></trkpt><trkpt lat="44.1680691017528" lon="11.217551070813712"><ele>645.5999999999999</ele><time>2026-04-11T15:29:53.999Z</time></trkpt><trkpt lat="44.168013058255575" lon="11.21767107456829"><ele>645.8</ele><time>2026-04-11T15:29:55.999Z</time></trkpt><trkpt lat="44.1680741665968" lon="11.217797358139528"><ele>646.0</ele><time>2026-04-11T15:29:57.999Z</time></trkpt><trkpt lat="44.16813358389787" lon="11.217847936083391"><ele>640.8333333333334</ele><time>2026-04-11T15:29:58.999Z</time></trkpt><trkpt lat="44.16820232444164" lon="11.217891687937444"><ele>635.6666666666667</ele><time>2026-04-11T15:29:59.999Z</time></trkpt><trkpt lat="44.168280972678005" lon="11.217913265951562"><ele>630.5</ele><time>2026-04-11T15:30:01.999Z</time></trkpt><trkpt lat="44.1683496860034" lon="11.217776007359852"><ele>625.3333333333334</ele><time>2026-04-11T15:30:03.998Z</time></trkpt><trkpt lat="44.16839477360666" lon="11.21766367758892"><ele>620.1666666666666</ele><time>2026-04-11T15:30:04.998Z</time></trkpt><trkpt lat="44.16844894712185" lon="11.217590982576185"><ele>615.0</ele><time>2026-04-11T15:30:05.998Z</time></trkpt><trkpt lat="44.16853682919807" lon="11.21762567939046"><ele>615.0</ele><time>2026-04-11T15:30:07.998Z</time></trkpt><trkpt lat="44.16857092529881" lon="11.21770599132604"><ele>615.0</ele><time>2026-04-11T15:30:08.998Z</time></trkpt><trkpt lat="44.16862566643524" lon="11.217807253610102"><ele>615.0</ele><time>2026-04-11T15:30:09.998Z</time></trkpt><trkpt lat="44.16870412603521" lon="11.217904389105383"><ele>615.0</ele><time>2026-04-11T15:30:10.998Z</time></trkpt><trkpt lat="44.16880787317476" lon="11.21798013234329"><ele>615.0</ele><time>2026-04-11T15:30:11.998Z</time></trkpt><trkpt lat="44.168930505353615" lon="11.218038483806554"><ele>613.5</ele><time>2026-04-11T15:30:12.998Z</time></trkpt><trkpt lat="44.169055813138776" lon="11.218099293859073"><ele>612.0</ele><time>2026-04-11T15:30:13.998Z</time></trkpt><trkpt lat="44.16918357130743" lon="11.218157127579701"><ele>610.5</ele><time>2026-04-11T15:30:14.998Z</time></trkpt><trkpt lat="44.1692974184664" lon="11.218220942000432"><ele>609.0</ele><time>2026-04-11T15:30:15.998Z</time></trkpt><trkpt lat="44.16939892841441" lon="11.21827175993548"><ele>609.0</ele><time>2026-04-11T15:30:16.998Z</time></trkpt><trkpt lat="44.16947136419305" lon="11.218370235561299"><ele>609.0</ele><time>2026-04-11T15:30:17.998Z</time></trkpt><trkpt lat="44.16953471347178" lon="11.218503455926841"><ele>609.0</ele><time>2026-04-11T15:30:18.998Z</time></trkpt><trkpt lat="44.169586052202064" lon="11.218684429533246"><ele>609.0</ele><time>2026-04-11T15:30:19.998Z</time></trkpt><trkpt lat="44.169629260899406" lon="11.218887224233024"><ele>611.75</ele><time>2026-04-11T15:30:20.998Z</time></trkpt><trkpt lat="44.169667985203574" lon="11.219090029071168"><ele>614.5</ele><time>2026-04-11T15:30:22Z</time></trkpt><trkpt lat="44.16971246768444" lon="11.219294063547053"><ele>617.25</ele><time>2026-04-11T15:30:23Z</time></trkpt><trkpt lat="44.16975534160512" lon="11.21946672327033"><ele>620.0</ele><time>2026-04-11T15:30:24Z</time></trkpt><trkpt lat="44.16980548237793" lon="11.219613571825516"><ele>617.8</ele><time>2026-04-11T15:30:25Z</time></trkpt><trkpt lat="44.16986366478087" lon="11.2197341413638"><ele>615.6</ele><time>2026-04-11T15:30:26Z</time></trkpt><trkpt lat="44.169937636273666" lon="11.219843917732513"><ele>613.4</ele><time>2026-04-11T15:30:27Z</time></trkpt><trkpt lat="44.17002332145935" lon="11.219943774894078"><ele>611.2</ele><time>2026-04-11T15:30:28Z</time></trkpt><trkpt lat="44.1701265150793" lon="11.220031946349517"><ele>609.0</ele><time>2026-04-11T15:30:29Z</time></trkpt><trkpt lat="44.17023453649459" lon="11.220093662177003"><ele>609.0</ele><time>2026-04-11T15:30:30Z</time></trkpt><trkpt lat="44.170345215757905" lon="11.220138978634594"><ele>609.0</ele><time>2026-04-11T15:30:31Z</time></trkpt><trkpt lat="44.170438395326094" lon="11.220192565589848"><ele>609.0</ele><time>2026-04-11T15:30:32Z</time></trkpt><trkpt lat="44.170509332984906" lon="11.22026300996496"><ele>609.0</ele><time>2026-04-11T15:30:33Z</time></trkpt><trkpt lat="44.170554393891805" lon="11.220367346421543"><ele>609.0</ele><time>2026-04-11T15:30:34Z</time></trkpt><trkpt lat="44.170579475904944" lon="11.22048895324105"><ele>609.0</ele><time>2026-04-11T15:30:35Z</time></trkpt><trkpt lat="44.1705747617143" lon="11.220621528308063"><ele>609.0</ele><time>2026-04-11T15:30:36Z</time></trkpt><trkpt lat="44.170547424673494" lon="11.220761011860349"><ele>609.0</ele><time>2026-04-11T15:30:37Z</time></trkpt><trkpt lat="44.17049821382695" lon="11.220915728226583"><ele>609.0</ele><time>2026-04-11T15:30:38Z</time></trkpt><trkpt lat="44.1704384813678" lon="11.22108075539448"><ele>611.0</ele><time>2026-04-11T15:30:39Z</time></trkpt><trkpt lat="44.17037594582751" lon="11.22126492933952"><ele>613.0</ele><time>2026-04-11T15:30:40Z</time></trkpt><trkpt lat="44.170314559887096" lon="11.221439694953544"><ele>615.0</ele><time>2026-04-11T15:30:41Z</time></trkpt><trkpt lat="44.17024725155033" lon="11.221602833510108"><ele>617.0</ele><time>2026-04-11T15:30:42Z</time></trkpt><trkpt lat="44.17020259686525" lon="11.221779839748995"><ele>617.0</ele><time>2026-04-11T15:30:43Z</time></trkpt><trkpt lat="44.17019284521112" lon="11.221972214441523"><ele>617.0</ele><time>2026-04-11T15:30:44Z</time></trkpt><trkpt lat="44.17021504795106" lon="11.222165420281058"><ele>617.0</ele><time>2026-04-11T15:30:45Z</time></trkpt><trkpt lat="44.17026266636227" lon="11.222343491070335"><ele>617.0</ele><time>2026-04-11T15:30:46Z</time></trkpt><trkpt lat="44.170307754980776" lon="11.22250931671442"><ele>616.25</ele><time>2026-04-11T15:30:47Z</time></trkpt><trkpt lat="44.170319975789205" lon="11.222680369010412"><ele>615.5</ele><time>2026-04-11T15:30:48Z</time></trkpt><trkpt lat="44.170298952256466" lon="11.222860362561658"><ele>614.75</ele><time>2026-04-11T15:30:49Z</time></trkpt><trkpt lat="44.1702503282441" lon="11.223042372391253"><ele>614.0</ele><time>2026-04-11T15:30:50Z</time></trkpt><trkpt lat="44.1701522268035" lon="11.223202002301441"><ele>612.6666666666666</ele><time>2026-04-11T15:30:51Z</time></trkpt><trkpt lat="44.17008016245172" lon="11.223398399476519"><ele>611.3333333333334</ele><time>2026-04-11T15:30:52Z</time></trkpt><trkpt lat="44.17005371014778" lon="11.223600213328051"><ele>610.0</ele><time>2026-04-11T15:30:53Z</time></trkpt><trkpt lat="44.17006092552673" lon="11.22382126064705"><ele>609.25</ele><time>2026-04-11T15:30:54Z</time></trkpt><trkpt lat="44.17007433228253" lon="11.224044958704262"><ele>608.5</ele><time>2026-04-11T15:30:55Z</time></trkpt><trkpt lat="44.170087246464576" lon="11.22423900775774"><ele>607.75</ele><time>2026-04-11T15:30:56Z</time></trkpt><trkpt lat="44.17012753516539" lon="11.224416541008388"><ele>607.0</ele><time>2026-04-11T15:30:57Z</time></trkpt><trkpt lat="44.1701777677723" lon="11.224577136095185"><ele>607.0</ele><time>2026-04-11T15:30:58Z</time></trkpt><trkpt lat="44.17023885279859" lon="11.224676999738525"><ele>607.0</ele><time>2026-04-11T15:30:59Z</time></trkpt><trkpt lat="44.17032330129407" lon="11.224747325512917"><ele>607.0</ele><time>2026-04-11T15:31:00Z</time></trkpt><trkpt lat="44.17043736741371" lon="11.224781300428154"><ele>607.0</ele><time>2026-04-11T15:31:01Z</time></trkpt><trkpt lat="44.17056743100374" lon="11.224781451693222"><ele>607.0</ele><time>2026-04-11T15:31:02Z</time></trkpt><trkpt lat="44.17069343594881" lon="11.224729847007982"><ele>602.5</ele><time>2026-04-11T15:31:03Z</time></trkpt><trkpt lat="44.17080669984848" lon="11.224626316552028"><ele>598.0</ele><time>2026-04-11T15:31:04Z</time></trkpt><trkpt lat="44.170910507746036" lon="11.224496003247134"><ele>593.5</ele><time>2026-04-11T15:31:05Z</time></trkpt><trkpt lat="44.17100640346349" lon="11.224388950774813"><ele>589.0</ele><time>2026-04-11T15:31:06Z</time></trkpt><trkpt lat="44.171099173080336" lon="11.224328848627326"><ele>589.0</ele><time>2026-04-11T15:31:06.999Z</time></trkpt><trkpt lat="44.17121033707445" lon="11.224340650818752"><ele>589.0</ele><time>2026-04-11T15:31:07.999Z</time></trkpt><trkpt lat="44.17134947350942" lon="11.224411581207233"><ele>589.0</ele><time>2026-04-11T15:31:08.999Z</time></trkpt><trkpt lat="44.1714604157155" lon="11.224516317550211"><ele>589.0</ele><time>2026-04-11T15:31:09.999Z</time></trkpt><trkpt lat="44.171541312773755" lon="11.224628043466897"><ele>590.0</ele><time>2026-04-11T15:31:10.999Z</time></trkpt><trkpt lat="44.171612642192606" lon="11.224700273540908"><ele>591.0</ele><time>2026-04-11T15:31:11.999Z</time></trkpt><trkpt lat="44.1716997003377" lon="11.224692969116022"><ele>592.0</ele><time>2026-04-11T15:31:12.999Z</time></trkpt><trkpt lat="44.17179154847007" lon="11.224606683095042"><ele>593.0</ele><time>2026-04-11T15:31:13.999Z</time></trkpt><trkpt lat="44.17186593839587" lon="11.224475918428622"><ele>594.0</ele><time>2026-04-11T15:31:14.999Z</time></trkpt><trkpt lat="44.1719074332635" lon="11.224337472484164"><ele>594.0</ele><time>2026-04-11T15:31:15.999Z</time></trkpt><trkpt lat="44.17191929031542" lon="11.224178684554017"><ele>594.0</ele><time>2026-04-11T15:31:16.999Z</time></trkpt><trkpt lat="44.171893968008824" lon="11.223992137050375"><ele>594.0</ele><time>2026-04-11T15:31:17.999Z</time></trkpt><trkpt lat="44.171849799412485" lon="11.223794163694036"><ele>594.0</ele><time>2026-04-11T15:31:18.999Z</time></trkpt><trkpt lat="44.1717957636911" lon="11.223604832919083"><ele>593.5</ele><time>2026-04-11T15:31:19.999Z</time></trkpt><trkpt lat="44.17175034057703" lon="11.223437213025846"><ele>593.0</ele><time>2026-04-11T15:31:20.999Z</time></trkpt><trkpt lat="44.171733653043944" lon="11.223246039518113"><ele>592.5</ele><time>2026-04-11T15:31:21.999Z</time></trkpt><trkpt lat="44.17176052392664" lon="11.223055979061488"><ele>592.0</ele><time>2026-04-11T15:31:22.999Z</time></trkpt><trkpt lat="44.17180250878882" lon="11.222857649466073"><ele>590.25</ele><time>2026-04-11T15:31:23.999Z</time></trkpt><trkpt lat="44.17184431600726" lon="11.222686840056328"><ele>588.5</ele><time>2026-04-11T15:31:24.999Z</time></trkpt><trkpt lat="44.171899038068894" lon="11.222552824970187"><ele>586.75</ele><time>2026-04-11T15:31:25.999Z</time></trkpt><trkpt lat="44.171974213583134" lon="11.222443579541984"><ele>585.0</ele><time>2026-04-11T15:31:26.999Z</time></trkpt><trkpt lat="44.17208247980057" lon="11.222375355662775"><ele>585.0</ele><time>2026-04-11T15:31:27.999Z</time></trkpt><trkpt lat="44.172223044211094" lon="11.222357874304516"><ele>585.0</ele><time>2026-04-11T15:31:28.999Z</time></trkpt><trkpt lat="44.17237904072661" lon="11.22234017030753"><ele>585.0</ele><time>2026-04-11T15:31:29.999Z</time></trkpt><trkpt lat="44.17254347900684" lon="11.222298013420358"><ele>586.6666666666666</ele><time>2026-04-11T15:31:30.999Z</time></trkpt><trkpt lat="44.172706682513834" lon="11.22224709876931"><ele>588.3333333333333</ele><time>2026-04-11T15:31:31.999Z</time></trkpt><trkpt lat="44.17287366358153" lon="11.2221801177328"><ele>590.0</ele><time>2026-04-11T15:31:32.999Z</time></trkpt><trkpt lat="44.17303481326683" lon="11.222094466391558"><ele>593.3333333333333</ele><time>2026-04-11T15:31:33.999Z</time></trkpt><trkpt lat="44.17319880992046" lon="11.221990858629663"><ele>596.6666666666666</ele><time>2026-04-11T15:31:34.999Z</time></trkpt><trkpt lat="44.17335145532514" lon="11.221885828616138"><ele>600.0</ele><time>2026-04-11T15:31:35.999Z</time></trkpt><trkpt lat="44.17350116673338" lon="11.221781022921906"><ele>600.0</ele><time>2026-04-11T15:31:36.999Z</time></trkpt><trkpt lat="44.17364735720178" lon="11.221671315057877"><ele>600.0</ele><time>2026-04-11T15:31:37.999Z</time></trkpt><trkpt lat="44.17376503790246" lon="11.221547377977684"><ele>600.0</ele><time>2026-04-11T15:31:38.999Z</time></trkpt><trkpt lat="44.17385449477967" lon="11.221403723621822"><ele>597.25</ele><time>2026-04-11T15:31:39.999Z</time></trkpt><trkpt lat="44.17392117884038" lon="11.221221256510116"><ele>594.5</ele><time>2026-04-11T15:31:40.999Z</time></trkpt><trkpt lat="44.17396936262074" lon="11.22104493789525"><ele>591.75</ele><time>2026-04-11T15:31:41.999Z</time></trkpt><trkpt lat="44.174044394590666" lon="11.220874544599047"><ele>589.0</ele><time>2026-04-11T15:31:42.999Z</time></trkpt><trkpt lat="44.17409972737604" lon="11.220676269392634"><ele>595.3333333333334</ele><time>2026-04-11T15:31:43.999Z</time></trkpt><trkpt lat="44.17411662775078" lon="11.220445188474764"><ele>601.6666666666666</ele><time>2026-04-11T15:31:44.999Z</time></trkpt><trkpt lat="44.174195280401335" lon="11.220235261984374"><ele>608.0</ele><time>2026-04-11T15:31:45.999Z</time></trkpt><trkpt lat="44.1742665085187" lon="11.220031995247895"><ele>608.0</ele><time>2026-04-11T15:31:46.999Z</time></trkpt><trkpt lat="44.174325475020176" lon="11.219838793004664"><ele>608.0</ele><time>2026-04-11T15:31:47.999Z</time></trkpt><trkpt lat="44.17435918652418" lon="11.219665805489026"><ele>608.0</ele><time>2026-04-11T15:31:48.999Z</time></trkpt><trkpt lat="44.17438767971928" lon="11.21951222624559"><ele>608.0</ele><time>2026-04-11T15:31:49.999Z</time></trkpt><trkpt lat="44.174431069486225" lon="11.219399467833744"><ele>607.0</ele><time>2026-04-11T15:31:50.999Z</time></trkpt><trkpt lat="44.174498924184284" lon="11.219311631605205"><ele>606.0</ele><time>2026-04-11T15:31:51.999Z</time></trkpt><trkpt lat="44.17459975607488" lon="11.219267205745835"><ele>605.0</ele><time>2026-04-11T15:31:52.999Z</time></trkpt><trkpt lat="44.174713597936226" lon="11.219291769313394"><ele>604.0</ele><time>2026-04-11T15:31:53.999Z</time></trkpt><trkpt lat="44.17482761699183" lon="11.219329828378232"><ele>603.0</ele><time>2026-04-11T15:31:54.999Z</time></trkpt><trkpt lat="44.174953362160906" lon="11.219403158766706"><ele>605.5</ele><time>2026-04-11T15:31:55.999Z</time></trkpt><trkpt lat="44.17507777129681" lon="11.219441289174988"><ele>608.0</ele><time>2026-04-11T15:31:56.999Z</time></trkpt><trkpt lat="44.17519692530538" lon="11.219474501116023"><ele>610.5</ele><time>2026-04-11T15:31:57.999Z</time></trkpt><trkpt lat="44.1753159089816" lon="11.21947706280083"><ele>613.0</ele><time>2026-04-11T15:31:58.999Z</time></trkpt><trkpt lat="44.17543095145677" lon="11.21946203449099"><ele>613.0</ele><time>2026-04-11T15:31:59.999Z</time></trkpt><trkpt lat="44.17553610604122" lon="11.219439870284777"><ele>613.0</ele><time>2026-04-11T15:32:00.999Z</time></trkpt><trkpt lat="44.17564015417116" lon="11.219438921921022"><ele>613.0</ele><time>2026-04-11T15:32:01.999Z</time></trkpt><trkpt lat="44.17573290127197" lon="11.219490575191482"><ele>613.0</ele><time>2026-04-11T15:32:02.999Z</time></trkpt><trkpt lat="44.17581154448441" lon="11.219598831405165"><ele>613.0</ele><time>2026-04-11T15:32:03.999Z</time></trkpt><trkpt lat="44.17588879265418" lon="11.219715828723956"><ele>617.6</ele><time>2026-04-11T15:32:04.999Z</time></trkpt><trkpt lat="44.175965563885214" lon="11.21982062127547"><ele>622.1999999999999</ele><time>2026-04-11T15:32:05.999Z</time></trkpt><trkpt lat="44.17604071129224" lon="11.219906546578866"><ele>626.8</ele><time>2026-04-11T15:32:06.999Z</time></trkpt><trkpt lat="44.17612104709865" lon="11.219964670281017"><ele>631.4</ele><time>2026-04-11T15:32:07.999Z</time></trkpt><trkpt lat="44.17619871679239" lon="11.219990017662859"><ele>636.0</ele><time>2026-04-11T15:32:08.998Z</time></trkpt><trkpt lat="44.176278997397525" lon="11.219971733117928"><ele>636.0</ele><time>2026-04-11T15:32:09.998Z</time></trkpt><trkpt lat="44.176369258940575" lon="11.219919899843553"><ele>636.0</ele><time>2026-04-11T15:32:10.998Z</time></trkpt><trkpt lat="44.17644927684455" lon="11.219861388757694"><ele>636.0</ele><time>2026-04-11T15:32:11.998Z</time></trkpt><trkpt lat="44.176521367266524" lon="11.219828377970714"><ele>636.0</ele><time>2026-04-11T15:32:12.998Z</time></trkpt><trkpt lat="44.17659421559678" lon="11.219801944406989"><ele>636.0</ele><time>2026-04-11T15:32:13.998Z</time></trkpt><trkpt lat="44.17666522722156" lon="11.219769034758702"><ele>636.0</ele><time>2026-04-11T15:32:14.998Z</time></trkpt><trkpt lat="44.17673246746264" lon="11.219724362352926"><ele>633.8</ele><time>2026-04-11T15:32:15.998Z</time></trkpt><trkpt lat="44.17680091022715" lon="11.21968380795903"><ele>631.6</ele><time>2026-04-11T15:32:16.998Z</time></trkpt><trkpt lat="44.176893989975085" lon="11.219624205992833"><ele>629.4</ele><time>2026-04-11T15:32:17.998Z</time></trkpt><trkpt lat="44.177007476753666" lon="11.219580963229802"><ele>627.2</ele><time>2026-04-11T15:32:18.998Z</time></trkpt><trkpt lat="44.17713372089057" lon="11.219516513373454"><ele>625.0</ele><time>2026-04-11T15:32:19.998Z</time></trkpt><trkpt lat="44.17727949832882" lon="11.219481062185023"><ele>626.6666666666667</ele><time>2026-04-11T15:32:20.998Z</time></trkpt><trkpt lat="44.177444160947246" lon="11.21948244930487"><ele>628.3333333333334</ele><time>2026-04-11T15:32:21.998Z</time></trkpt><trkpt lat="44.17759967353532" lon="11.21948938299924"><ele>630.0</ele><time>2026-04-11T15:32:22.998Z</time></trkpt><trkpt lat="44.17773384332408" lon="11.21948857181056"><ele>630.0</ele><time>2026-04-11T15:32:23.998Z</time></trkpt><trkpt lat="44.17785786082888" lon="11.21949819633846"><ele>630.0</ele><time>2026-04-11T15:32:24.998Z</time></trkpt><trkpt lat="44.17798229919357" lon="11.219527736695673"><ele>630.0</ele><time>2026-04-11T15:32:25.998Z</time></trkpt><trkpt lat="44.1781135143463" lon="11.219535488413687"><ele>630.0</ele><time>2026-04-11T15:32:26.998Z</time></trkpt><trkpt lat="44.178233497147346" lon="11.219554068295675"><ele>630.0</ele><time>2026-04-11T15:32:28Z</time></trkpt><trkpt lat="44.1783383024229" lon="11.21958986493516"><ele>630.0</ele><time>2026-04-11T15:32:29Z</time></trkpt><trkpt lat="44.178446093357806" lon="11.219629526811426"><ele>630.0</ele><time>2026-04-11T15:32:30Z</time></trkpt><trkpt lat="44.1785580793045" lon="11.21968516031181"><ele>630.0</ele><time>2026-04-11T15:32:31Z</time></trkpt><trkpt lat="44.1786511633292" lon="11.219755517064565"><ele>630.0</ele><time>2026-04-11T15:32:32Z</time></trkpt><trkpt lat="44.17871230340243" lon="11.219864250363823"><ele>631.5</ele><time>2026-04-11T15:32:33Z</time></trkpt><trkpt lat="44.17877834280887" lon="11.219987668081302"><ele>633.0</ele><time>2026-04-11T15:32:34Z</time></trkpt><trkpt lat="44.178864318801416" lon="11.22011633754743"><ele>634.5</ele><time>2026-04-11T15:32:35Z</time></trkpt><trkpt lat="44.17893944939396" lon="11.220276413871598"><ele>636.0</ele><time>2026-04-11T15:32:36Z</time></trkpt><trkpt lat="44.179027980728556" lon="11.22043620421686"><ele>636.0</ele><time>2026-04-11T15:32:37Z</time></trkpt><trkpt lat="44.17911664893898" lon="11.220591056287057"><ele>636.0</ele><time>2026-04-11T15:32:38Z</time></trkpt><trkpt lat="44.17919317374616" lon="11.220725764236866"><ele>636.0</ele><time>2026-04-11T15:32:39Z</time></trkpt><trkpt lat="44.17926408801655" lon="11.22084565359048"><ele>636.0</ele><time>2026-04-11T15:32:40Z</time></trkpt><trkpt lat="44.17932666942478" lon="11.220958460546754"><ele>637.0</ele><time>2026-04-11T15:32:41Z</time></trkpt><trkpt lat="44.17938530069853" lon="11.221064094007605"><ele>638.0</ele><time>2026-04-11T15:32:42Z</time></trkpt><trkpt lat="44.17942990805112" lon="11.221141700814632"><ele>639.0</ele><time>2026-04-11T15:32:43Z</time></trkpt><trkpt lat="44.17950396126255" lon="11.221179457370363"><ele>640.0</ele><time>2026-04-11T15:32:46Z</time></trkpt><trkpt lat="44.179520943922974" lon="11.221084984785138"><ele>641.0</ele><time>2026-04-11T15:32:49Z</time></trkpt><trkpt lat="44.17942469257305" lon="11.220977531801104"><ele>642.0</ele><time>2026-04-11T15:32:51Z</time></trkpt><trkpt lat="44.17932432811862" lon="11.220861915223994"><ele>642.0</ele><time>2026-04-11T15:32:53Z</time></trkpt><trkpt lat="44.17927189785212" lon="11.220774281149435"><ele>642.0</ele><time>2026-04-11T15:32:54Z</time></trkpt><trkpt lat="44.179215269045876" lon="11.220669683728532"><ele>642.0</ele><time>2026-04-11T15:32:55Z</time></trkpt><trkpt lat="44.1791383840195" lon="11.220543635015224"><ele>642.0</ele><time>2026-04-11T15:32:56Z</time></trkpt><trkpt lat="44.17906220922191" lon="11.2204273732043"><ele>642.0</ele><time>2026-04-11T15:32:57Z</time></trkpt><trkpt lat="44.17899367969318" lon="11.220313968603127"><ele>644.0</ele><time>2026-04-11T15:32:58Z</time></trkpt><trkpt lat="44.17893002193384" lon="11.220199507126194"><ele>646.0</ele><time>2026-04-11T15:32:59Z</time></trkpt><trkpt lat="44.178874816321375" lon="11.22009481440241"><ele>648.0</ele><time>2026-04-11T15:33:00Z</time></trkpt><trkpt lat="44.178815173107374" lon="11.219990775915084"><ele>650.0</ele><time>2026-04-11T15:33:02Z</time></trkpt><trkpt lat="44.178744771584554" lon="11.219877266989451"><ele>652.0</ele><time>2026-04-11T15:33:04Z</time></trkpt><trkpt lat="44.17870208310774" lon="11.219799495058258"><ele>647.6</ele><time>2026-04-11T15:33:05Z</time></trkpt><trkpt lat="44.17864574242038" lon="11.219717456716785"><ele>643.2</ele><time>2026-04-11T15:33:06Z</time></trkpt><trkpt lat="44.17855495485078" lon="11.219641790821575"><ele>638.8</ele><time>2026-04-11T15:33:08Z</time></trkpt><trkpt lat="44.17845625376662" lon="11.219602928440128"><ele>634.4</ele><time>2026-04-11T15:33:10Z</time></trkpt><trkpt lat="44.17837805949171" lon="11.219581897753827"><ele>630.0</ele><time>2026-04-11T15:33:11Z</time></trkpt><trkpt lat="44.178286114333254" lon="11.219553940826861"><ele>630.0</ele><time>2026-04-11T15:33:12Z</time></trkpt><trkpt lat="44.17817843364861" lon="11.219521106634774"><ele>630.0</ele><time>2026-04-11T15:33:12.999Z</time></trkpt><trkpt lat="44.1780692864191" lon="11.219500360152132"><ele>630.0</ele><time>2026-04-11T15:33:13.999Z</time></trkpt><trkpt lat="44.17794813169326" lon="11.21947736843234"><ele>630.0</ele><time>2026-04-11T15:33:14.999Z</time></trkpt><trkpt lat="44.17781837671462" lon="11.219473118594566"><ele>630.0</ele><time>2026-04-11T15:33:15.999Z</time></trkpt><trkpt lat="44.17770219586633" lon="11.219465930826237"><ele>630.0</ele><time>2026-04-11T15:33:16.999Z</time></trkpt><trkpt lat="44.17758860189346" lon="11.219455698919576"><ele>630.0</ele><time>2026-04-11T15:33:17.999Z</time></trkpt><trkpt lat="44.177476809096895" lon="11.219452040311271"><ele>630.0</ele><time>2026-04-11T15:33:18.999Z</time></trkpt><trkpt lat="44.17735795096981" lon="11.219445240425722"><ele>628.75</ele><time>2026-04-11T15:33:19.999Z</time></trkpt><trkpt lat="44.17723055312354" lon="11.219450771854754"><ele>627.5</ele><time>2026-04-11T15:33:20.999Z</time></trkpt><trkpt lat="44.17712513540898" lon="11.219476559419281"><ele>626.25</ele><time>2026-04-11T15:33:21.999Z</time></trkpt><trkpt lat="44.17702461833649" lon="11.219528697457406"><ele>625.0</ele><time>2026-04-11T15:33:22.999Z</time></trkpt><trkpt lat="44.17690387844716" lon="11.21959522757334"><ele>625.0</ele><time>2026-04-11T15:33:23.999Z</time></trkpt><trkpt lat="44.176773358185415" lon="11.219676191202858"><ele>625.0</ele><time>2026-04-11T15:33:24.999Z</time></trkpt><trkpt lat="44.17663809293495" lon="11.219752301403428"><ele>625.0</ele><time>2026-04-11T15:33:25.999Z</time></trkpt><trkpt lat="44.176515120677955" lon="11.219817714989656"><ele>625.0</ele><time>2026-04-11T15:33:26.999Z</time></trkpt><trkpt lat="44.17639881464308" lon="11.219879106032062"><ele>627.2</ele><time>2026-04-11T15:33:27.999Z</time></trkpt><trkpt lat="44.17629460141744" lon="11.219932308401368"><ele>629.4</ele><time>2026-04-11T15:33:28.999Z</time></trkpt><trkpt lat="44.176214576013315" lon="11.21996307807942"><ele>631.6</ele><time>2026-04-11T15:33:29.999Z</time></trkpt><trkpt lat="44.176143573387286" lon="11.219956742177745"><ele>633.8</ele><time>2026-04-11T15:33:30.999Z</time></trkpt><trkpt lat="44.176066144788074" lon="11.219919271013769"><ele>636.0</ele><time>2026-04-11T15:33:31.999Z</time></trkpt><trkpt lat="44.17597654089424" lon="11.219826699358322"><ele>630.75</ele><time>2026-04-11T15:33:32.999Z</time></trkpt><trkpt lat="44.17589597127567" lon="11.219698987481948"><ele>625.5</ele><time>2026-04-11T15:33:33.999Z</time></trkpt><trkpt lat="44.1758163511843" lon="11.219574751695593"><ele>620.25</ele><time>2026-04-11T15:33:34.999Z</time></trkpt><trkpt lat="44.17572876880483" lon="11.219476602482779"><ele>615.0</ele><time>2026-04-11T15:33:35.999Z</time></trkpt><trkpt lat="44.17562867149736" lon="11.219420196264714"><ele>614.5</ele><time>2026-04-11T15:33:36.999Z</time></trkpt><trkpt lat="44.17551722070231" lon="11.219397830504915"><ele>614.0</ele><time>2026-04-11T15:33:37.999Z</time></trkpt><trkpt lat="44.17539491764429" lon="11.219426505784758"><ele>613.5</ele><time>2026-04-11T15:33:38.999Z</time></trkpt><trkpt lat="44.175274365099405" lon="11.219452909334287"><ele>613.0</ele><time>2026-04-11T15:33:39.999Z</time></trkpt><trkpt lat="44.1751590141351" lon="11.219451806412163"><ele>613.0</ele><time>2026-04-11T15:33:40.999Z</time></trkpt><trkpt lat="44.175045602808545" lon="11.219421804975074"><ele>613.0</ele><time>2026-04-11T15:33:41.999Z</time></trkpt><trkpt lat="44.1749288825144" lon="11.219364963654428"><ele>613.0</ele><time>2026-04-11T15:33:42.999Z</time></trkpt><trkpt lat="44.17480349062152" lon="11.219307869650963"><ele>613.0</ele><time>2026-04-11T15:33:43.999Z</time></trkpt><trkpt lat="44.174687791272795" lon="11.219273474994711"><ele>611.3333333333334</ele><time>2026-04-11T15:33:44.999Z</time></trkpt><trkpt lat="44.17459103805853" lon="11.219255500730243"><ele>609.6666666666667</ele><time>2026-04-11T15:33:45.999Z</time></trkpt><trkpt lat="44.174506783075856" lon="11.219267591580826"><ele>608.0</ele><time>2026-04-11T15:33:46.999Z</time></trkpt><trkpt lat="44.17443758950073" lon="11.219313757490468"><ele>606.3333333333334</ele><time>2026-04-11T15:33:47.999Z</time></trkpt><trkpt lat="44.17446806655686" lon="11.219186379817234"><ele>604.6666666666666</ele><time>2026-04-11T15:33:52.999Z</time></trkpt><trkpt lat="44.17455472294457" lon="11.219149949851875"><ele>603.0</ele><time>2026-04-11T15:33:53.999Z</time></trkpt><trkpt lat="44.17464113630436" lon="11.219147098405712"><ele>603.0</ele><time>2026-04-11T15:33:54.999Z</time></trkpt><trkpt lat="44.174753891531275" lon="11.219155511233692"><ele>603.0</ele><time>2026-04-11T15:33:55.999Z</time></trkpt><trkpt lat="44.174870892559625" lon="11.219194268732101"><ele>603.0</ele><time>2026-04-11T15:33:56.999Z</time></trkpt><trkpt lat="44.17499042650894" lon="11.219251176086683"><ele>603.0</ele><time>2026-04-11T15:33:57.999Z</time></trkpt><trkpt lat="44.17511008779248" lon="11.21927108800462"><ele>605.5</ele><time>2026-04-11T15:33:58.999Z</time></trkpt><trkpt lat="44.175240236617284" lon="11.219254016008287"><ele>608.0</ele><time>2026-04-11T15:33:59.999Z</time></trkpt><trkpt lat="44.17536598216373" lon="11.219210664420789"><ele>610.5</ele><time>2026-04-11T15:34:00.999Z</time></trkpt><trkpt lat="44.17549444698359" lon="11.219164203675566"><ele>613.0</ele><time>2026-04-11T15:34:01.999Z</time></trkpt><trkpt lat="44.175606720860436" lon="11.219148239591657"><ele>613.4</ele><time>2026-04-11T15:34:02.999Z</time></trkpt><trkpt lat="44.17572122839635" lon="11.21917361293352"><ele>613.8</ele><time>2026-04-11T15:34:03.999Z</time></trkpt><trkpt lat="44.175831455913666" lon="11.21918203797086"><ele>614.2</ele><time>2026-04-11T15:34:04.999Z</time></trkpt><trkpt lat="44.175918432565425" lon="11.219159556381141"><ele>614.6</ele><time>2026-04-11T15:34:05.999Z</time></trkpt><trkpt lat="44.175983577647365" lon="11.219091694152958"><ele>615.0</ele><time>2026-04-11T15:34:06.999Z</time></trkpt><trkpt lat="44.1760219767187" lon="11.218981336385543"><ele>612.5</ele><time>2026-04-11T15:34:07.999Z</time></trkpt><trkpt lat="44.176024631514636" lon="11.218855941117187"><ele>610.0</ele><time>2026-04-11T15:34:08.999Z</time></trkpt><trkpt lat="44.17601654714154" lon="11.218731016592503"><ele>607.5</ele><time>2026-04-11T15:34:09.999Z</time></trkpt><trkpt lat="44.176022931188676" lon="11.218627388801812"><ele>605.0</ele><time>2026-04-11T15:34:10.999Z</time></trkpt><trkpt lat="44.176066131659724" lon="11.218521736140943"><ele>602.5</ele><time>2026-04-11T15:34:11.999Z</time></trkpt><trkpt lat="44.176140473388344" lon="11.218428869507557"><ele>600.0</ele><time>2026-04-11T15:34:12.999Z</time></trkpt><trkpt lat="44.176244507857966" lon="11.218353544853134"><ele>600.0</ele><time>2026-04-11T15:34:13.999Z</time></trkpt><trkpt lat="44.17635604694197" lon="11.21825655821221"><ele>600.0</ele><time>2026-04-11T15:34:14.998Z</time></trkpt><trkpt lat="44.17646467274189" lon="11.218159659073562"><ele>600.0</ele><time>2026-04-11T15:34:15.998Z</time></trkpt><trkpt lat="44.17656379259023" lon="11.218060782562091"><ele>600.0</ele><time>2026-04-11T15:34:16.998Z</time></trkpt><trkpt lat="44.17665426694903" lon="11.217989923625174"><ele>599.5</ele><time>2026-04-11T15:34:17.998Z</time></trkpt><trkpt lat="44.176754046700005" lon="11.217944565457792"><ele>599.0</ele><time>2026-04-11T15:34:18.998Z</time></trkpt><trkpt lat="44.176857065928694" lon="11.217917866355242"><ele>598.5</ele><time>2026-04-11T15:34:19.998Z</time></trkpt><trkpt lat="44.17698159833122" lon="11.217906072822432"><ele>598.0</ele><time>2026-04-11T15:34:20.998Z</time></trkpt><trkpt lat="44.17711856092494" lon="11.217937832178857"><ele>598.0</ele><time>2026-04-11T15:34:21.998Z</time></trkpt><trkpt lat="44.177249704897456" lon="11.217995708509028"><ele>598.0</ele><time>2026-04-11T15:34:22.998Z</time></trkpt><trkpt lat="44.17737841313572" lon="11.218039693345858"><ele>598.0</ele><time>2026-04-11T15:34:23.998Z</time></trkpt><trkpt lat="44.1775181162439" lon="11.21808055409093"><ele>598.0</ele><time>2026-04-11T15:34:24.998Z</time></trkpt><trkpt lat="44.177654267351514" lon="11.218116493223562"><ele>599.25</ele><time>2026-04-11T15:34:25.998Z</time></trkpt><trkpt lat="44.17778114647102" lon="11.21814627385137"><ele>600.5</ele><time>2026-04-11T15:34:26.998Z</time></trkpt><trkpt lat="44.177919779768864" lon="11.218174039157844"><ele>601.75</ele><time>2026-04-11T15:34:27.998Z</time></trkpt><trkpt lat="44.178054305204476" lon="11.218196298534364"><ele>603.0</ele><time>2026-04-11T15:34:28.998Z</time></trkpt><trkpt lat="44.17818544169128" lon="11.218214823438263"><ele>604.0</ele><time>2026-04-11T15:34:29.998Z</time></trkpt><trkpt lat="44.17831733740436" lon="11.218211885243731"><ele>605.0</ele><time>2026-04-11T15:34:30.998Z</time></trkpt><trkpt lat="44.17844332382191" lon="11.218195203365758"><ele>606.0</ele><time>2026-04-11T15:34:31.998Z</time></trkpt><trkpt lat="44.17857674020805" lon="11.218157489395267"><ele>607.0</ele><time>2026-04-11T15:34:32.998Z</time></trkpt><trkpt lat="44.17871622747814" lon="11.218094754260402"><ele>604.0</ele><time>2026-04-11T15:34:34Z</time></trkpt><trkpt lat="44.17885633813734" lon="11.218016197232368"><ele>601.0</ele><time>2026-04-11T15:34:35Z</time></trkpt><trkpt lat="44.17898694101194" lon="11.217932016197738"><ele>598.0</ele><time>2026-04-11T15:34:36Z</time></trkpt><trkpt lat="44.17909787652173" lon="11.217855060786645"><ele>595.0</ele><time>2026-04-11T15:34:37Z</time></trkpt><trkpt lat="44.17920013898622" lon="11.217794739509474"><ele>595.0</ele><time>2026-04-11T15:34:38Z</time></trkpt><trkpt lat="44.17928980378186" lon="11.217752537516752"><ele>595.0</ele><time>2026-04-11T15:34:39Z</time></trkpt><trkpt lat="44.17934444060272" lon="11.217704846893948"><ele>595.0</ele><time>2026-04-11T15:34:41Z</time></trkpt><trkpt lat="44.179331433074246" lon="11.217580786664596"><ele>595.0</ele><time>2026-04-11T15:34:45Z</time></trkpt><trkpt lat="44.179289642241464" lon="11.217483888949705"><ele>595.0</ele><time>2026-04-11T15:34:48Z</time></trkpt><trkpt lat="44.17922250312723" lon="11.217469710116294"><ele>595.0</ele><time>2026-04-11T15:34:50Z</time></trkpt><trkpt lat="44.17921956676544" lon="11.21756968098374"><ele>595.0</ele><time>2026-04-11T15:34:52Z</time></trkpt><trkpt lat="44.179302214057586" lon="11.217632014174544"><ele>595.0</ele><time>2026-04-11T15:34:54Z</time></trkpt><trkpt lat="44.179408641282606" lon="11.217701701000232"><ele>595.0</ele><time>2026-04-11T15:34:56Z</time></trkpt><trkpt lat="44.17948709601313" lon="11.217707078222425"><ele>595.0</ele><time>2026-04-11T15:34:57Z</time></trkpt><trkpt lat="44.17958482819952" lon="11.217690412643124"><ele>595.0</ele><time>2026-04-11T15:34:58Z</time></trkpt><trkpt lat="44.17967114333567" lon="11.217666254939692"><ele>595.0</ele><time>2026-04-11T15:34:59Z</time></trkpt><trkpt lat="44.17974174913883" lon="11.217640964887861"><ele>595.0</ele><time>2026-04-11T15:35:00Z</time></trkpt><trkpt lat="44.17983566838683" lon="11.217589722448613"><ele>595.0</ele><time>2026-04-11T15:35:02Z</time></trkpt><trkpt lat="44.17987615452274" lon="11.21749500314059"><ele>595.0</ele><time>2026-04-11T15:35:04Z</time></trkpt><trkpt lat="44.17988045951416" lon="11.21740350424343"><ele>595.0</ele><time>2026-04-11T15:35:05Z</time></trkpt><trkpt lat="44.17985850477346" lon="11.217289317788472"><ele>595.0</ele><time>2026-04-11T15:35:06Z</time></trkpt><trkpt lat="44.179815686903105" lon="11.217155523167262"><ele>593.5</ele><time>2026-04-11T15:35:07Z</time></trkpt><trkpt lat="44.17974899210376" lon="11.217027217433637"><ele>592.0</ele><time>2026-04-11T15:35:08Z</time></trkpt><trkpt lat="44.179672659061715" lon="11.216892833991968"><ele>590.5</ele><time>2026-04-11T15:35:09Z</time></trkpt><trkpt lat="44.17961566791493" lon="11.216763641318995"><ele>589.0</ele><time>2026-04-11T15:35:10Z</time></trkpt><trkpt lat="44.17958843190779" lon="11.216612929306622"><ele>588.2</ele><time>2026-04-11T15:35:11Z</time></trkpt><trkpt lat="44.179565297818655" lon="11.216463004686915"><ele>587.4</ele><time>2026-04-11T15:35:12Z</time></trkpt><trkpt lat="44.17953994018974" lon="11.216319596060012"><ele>586.6</ele><time>2026-04-11T15:35:13Z</time></trkpt><trkpt lat="44.17951256259356" lon="11.21618720845731"><ele>585.8</ele><time>2026-04-11T15:35:14Z</time></trkpt><trkpt lat="44.179487772803576" lon="11.216059455864507"><ele>585.0</ele><time>2026-04-11T15:35:15Z</time></trkpt><trkpt lat="44.179465027245236" lon="11.21594538037132"><ele>585.0</ele><time>2026-04-11T15:35:15.999Z</time></trkpt><trkpt lat="44.179447029360475" lon="11.215852740036055"><ele>585.0</ele><time>2026-04-11T15:35:16.999Z</time></trkpt><trkpt lat="44.17943661614867" lon="11.215693019141932"><ele>585.0</ele><time>2026-04-11T15:35:18.999Z</time></trkpt><trkpt lat="44.179418113613465" lon="11.21560623293725"><ele>585.0</ele><time>2026-04-11T15:35:19.999Z</time></trkpt><trkpt lat="44.17940208538047" lon="11.215515054447195"><ele>585.0</ele><time>2026-04-11T15:35:20.999Z</time></trkpt><trkpt lat="44.17938895466205" lon="11.215373859920179"><ele>585.0</ele><time>2026-04-11T15:35:22.999Z</time></trkpt><trkpt lat="44.179449283826344" lon="11.215303912212852"><ele>583.8</ele><time>2026-04-11T15:35:25.999Z</time></trkpt><trkpt lat="44.17957537850128" lon="11.215390498748587"><ele>582.6</ele><time>2026-04-11T15:35:27.999Z</time></trkpt><trkpt lat="44.17967144443634" lon="11.215494655200798"><ele>581.4</ele><time>2026-04-11T15:35:29.999Z</time></trkpt><trkpt lat="44.17973234763269" lon="11.21554274353566"><ele>580.2</ele><time>2026-04-11T15:35:30.999Z</time></trkpt><trkpt lat="44.17979834651011" lon="11.215598893974008"><ele>579.0</ele><time>2026-04-11T15:35:31.999Z</time></trkpt><trkpt lat="44.17986800076918" lon="11.215647462030997"><ele>578.4</ele><time>2026-04-11T15:35:32.999Z</time></trkpt><trkpt lat="44.179948311990046" lon="11.215718562422516"><ele>577.8</ele><time>2026-04-11T15:35:33.999Z</time></trkpt><trkpt lat="44.180039007949624" lon="11.21579682383592"><ele>577.2</ele><time>2026-04-11T15:35:34.999Z</time></trkpt><trkpt lat="44.18013339766901" lon="11.215878912179178"><ele>576.6</ele><time>2026-04-11T15:35:35.999Z</time></trkpt><trkpt lat="44.18023352222874" lon="11.215952632858823"><ele>576.0</ele><time>2026-04-11T15:35:36.999Z</time></trkpt><trkpt lat="44.180338053007446" lon="11.216018497463857"><ele>576.0</ele><time>2026-04-11T15:35:37.999Z</time></trkpt><trkpt lat="44.18043878121764" lon="11.216068731995042"><ele>576.0</ele><time>2026-04-11T15:35:38.999Z</time></trkpt><trkpt lat="44.180537014272716" lon="11.216111379030993"><ele>576.0</ele><time>2026-04-11T15:35:39.999Z</time></trkpt><trkpt lat="44.18064030217624" lon="11.216138122417997"><ele>576.0</ele><time>2026-04-11T15:35:40.999Z</time></trkpt><trkpt lat="44.18074416381124" lon="11.216182571780234"><ele>576.0</ele><time>2026-04-11T15:35:41.999Z</time></trkpt><trkpt lat="44.180852391529456" lon="11.216202707514991"><ele>574.2</ele><time>2026-04-11T15:35:42.999Z</time></trkpt><trkpt lat="44.18095236355486" lon="11.216241137569455"><ele>572.4000000000001</ele><time>2026-04-11T15:35:43.999Z</time></trkpt><trkpt lat="44.18106961419789" lon="11.216262599656162"><ele>570.6</ele><time>2026-04-11T15:35:44.999Z</time></trkpt><trkpt lat="44.18118456814616" lon="11.216280797128"><ele>568.8000000000001</ele><time>2026-04-11T15:35:45.999Z</time></trkpt><trkpt lat="44.18128865854969" lon="11.216282134956217"><ele>567.0</ele><time>2026-04-11T15:35:46.999Z</time></trkpt><trkpt lat="44.18139436032143" lon="11.21628184976549"><ele>567.0</ele><time>2026-04-11T15:35:47.999Z</time></trkpt><trkpt lat="44.181496839266586" lon="11.21628465428036"><ele>567.0</ele><time>2026-04-11T15:35:48.999Z</time></trkpt><trkpt lat="44.18158844775418" lon="11.21629546543586"><ele>567.0</ele><time>2026-04-11T15:35:49.999Z</time></trkpt><trkpt lat="44.18167259553612" lon="11.216299965080584"><ele>567.0</ele><time>2026-04-11T15:35:50.999Z</time></trkpt><trkpt lat="44.18175426954227" lon="11.216300590270977"><ele>567.0</ele><time>2026-04-11T15:35:51.999Z</time></trkpt><trkpt lat="44.181827674528144" lon="11.216285174936818"><ele>567.0</ele><time>2026-04-11T15:35:52.999Z</time></trkpt><trkpt lat="44.181901031805985" lon="11.216273926779804"><ele>567.0</ele><time>2026-04-11T15:35:53.999Z</time></trkpt><trkpt lat="44.18195624291563" lon="11.216151047713497"><ele>567.0</ele><time>2026-04-11T15:35:54.999Z</time></trkpt><trkpt lat="44.18201266124615" lon="11.21604426910371"><ele>567.0</ele><time>2026-04-11T15:35:55.999Z</time></trkpt><trkpt lat="44.18209708094616" lon="11.215977838425399"><ele>567.0</ele><time>2026-04-11T15:35:56.999Z</time></trkpt><trkpt lat="44.18216331329311" lon="11.215921220383468"><ele>567.0</ele><time>2026-04-11T15:35:57.999Z</time></trkpt><trkpt lat="44.18224617265311" lon="11.215892526503348"><ele>567.0</ele><time>2026-04-11T15:35:58.999Z</time></trkpt><trkpt lat="44.182323405482705" lon="11.215860757984174"><ele>567.0</ele><time>2026-04-11T15:35:59.999Z</time></trkpt><trkpt lat="44.182402910693924" lon="11.215860059323571"><ele>567.0</ele><time>2026-04-11T15:36:00.999Z</time></trkpt><trkpt lat="44.182500557034416" lon="11.21587830145949"><ele>567.0</ele><time>2026-04-11T15:36:02.999Z</time></trkpt><trkpt lat="44.182562821328546" lon="11.215993222124103"><ele>567.0</ele><time>2026-04-11T15:36:04.999Z</time></trkpt><trkpt lat="44.182619751325944" lon="11.21615078435736"><ele>568.1666666666666</ele><time>2026-04-11T15:36:06.999Z</time></trkpt><trkpt lat="44.18267208012778" lon="11.216214372686158"><ele>569.3333333333334</ele><time>2026-04-11T15:36:07.999Z</time></trkpt><trkpt lat="44.18274783983594" lon="11.216278777806384"><ele>570.5</ele><time>2026-04-11T15:36:08.999Z</time></trkpt><trkpt lat="44.182830530598075" lon="11.216291532159772"><ele>571.6666666666667</ele><time>2026-04-11T15:36:09.999Z</time></trkpt><trkpt lat="44.182912635993695" lon="11.216288763756387"><ele>572.8333333333334</ele><time>2026-04-11T15:36:10.999Z</time></trkpt><trkpt lat="44.182987901322086" lon="11.216264430655155"><ele>574.0</ele><time>2026-04-11T15:36:11.999Z</time></trkpt><trkpt lat="44.18306376270511" lon="11.216208915962238"><ele>574.0</ele><time>2026-04-11T15:36:12.999Z</time></trkpt><trkpt lat="44.18313662253557" lon="11.216159838649645"><ele>574.0</ele><time>2026-04-11T15:36:13.999Z</time></trkpt><trkpt lat="44.18323503697474" lon="11.216089300935156"><ele>574.0</ele><time>2026-04-11T15:36:14.999Z</time></trkpt><trkpt lat="44.18330423624088" lon="11.216057327011281"><ele>574.0</ele><time>2026-04-11T15:36:15.999Z</time></trkpt><trkpt lat="44.18338996699947" lon="11.21601591446522"><ele>574.0</ele><time>2026-04-11T15:36:16.999Z</time></trkpt><trkpt lat="44.18346174669104" lon="11.215990017555105"><ele>574.0</ele><time>2026-04-11T15:36:17.998Z</time></trkpt><trkpt lat="44.18354868356592" lon="11.215988168907689"><ele>575.1666666666667</ele><time>2026-04-11T15:36:19.998Z</time></trkpt><trkpt lat="44.18362528264478" lon="11.216081695362043"><ele>576.3333333333334</ele><time>2026-04-11T15:36:22.998Z</time></trkpt><trkpt lat="44.1836784634183" lon="11.216026348534081"><ele>577.5</ele><time>2026-04-11T15:36:28.998Z</time></trkpt><trkpt lat="44.18373439881225" lon="11.215965907593226"><ele>578.6666666666666</ele><time>2026-04-11T15:36:31.998Z</time></trkpt><trkpt lat="44.1837971263908" lon="11.215923879750584"><ele>579.8333333333333</ele><time>2026-04-11T15:36:33.998Z</time></trkpt><trkpt lat="44.18385812681019" lon="11.215852670730373"><ele>581.0</ele><time>2026-04-11T15:36:51Z</time></trkpt><trkpt lat="44.18394978650353" lon="11.215756341831339"><ele>583.1666666666666</ele><time>2026-04-11T15:36:54Z</time></trkpt><trkpt lat="44.184021597661" lon="11.215677410805322"><ele>585.3333333333333</ele><time>2026-04-11T15:36:56Z</time></trkpt><trkpt lat="44.18410001175581" lon="11.215684554175665"><ele>587.5</ele><time>2026-04-11T15:36:59Z</time></trkpt><trkpt lat="44.18417982998294" lon="11.215645975645462"><ele>589.6666666666666</ele><time>2026-04-11T15:37:08Z</time></trkpt><trkpt lat="44.18427965775334" lon="11.215541774837865"><ele>591.8333333333334</ele><time>2026-04-11T15:37:10Z</time></trkpt><trkpt lat="44.184327537423236" lon="11.215484464584971"><ele>594.0</ele><time>2026-04-11T15:37:11Z</time></trkpt><trkpt lat="44.18438513492457" lon="11.21542074444611"><ele>594.0</ele><time>2026-04-11T15:37:12Z</time></trkpt><trkpt lat="44.18445624891872" lon="11.215366115026875"><ele>594.0</ele><time>2026-04-11T15:37:13Z</time></trkpt><trkpt lat="44.184543206201525" lon="11.215309277869629"><ele>594.0</ele><time>2026-04-11T15:37:14Z</time></trkpt><trkpt lat="44.18463850914569" lon="11.215240311241624"><ele>594.0</ele><time>2026-04-11T15:37:15Z</time></trkpt><trkpt lat="44.18472696124472" lon="11.215178358069576"><ele>594.0</ele><time>2026-04-11T15:37:16Z</time></trkpt><trkpt lat="44.18480693759222" lon="11.215127868393171"><ele>595.8</ele><time>2026-04-11T15:37:17Z</time></trkpt><trkpt lat="44.184894985928544" lon="11.21507219059404"><ele>597.5999999999999</ele><time>2026-04-11T15:37:18Z</time></trkpt><trkpt lat="44.184994837766894" lon="11.215009363244471"><ele>599.4</ele><time>2026-04-11T15:37:19Z</time></trkpt><trkpt lat="44.18509908765676" lon="11.21493532525382"><ele>601.1999999999999</ele><time>2026-04-11T15:37:20Z</time></trkpt><trkpt lat="44.18520363178623" lon="11.214862967864452"><ele>603.0</ele><time>2026-04-11T15:37:21Z</time></trkpt><trkpt lat="44.185310947124485" lon="11.21479268187628"><ele>603.5</ele><time>2026-04-11T15:37:21.999Z</time></trkpt><trkpt lat="44.185416716104044" lon="11.214719239100457"><ele>604.0</ele><time>2026-04-11T15:37:22.999Z</time></trkpt><trkpt lat="44.18552345239007" lon="11.214645615798528"><ele>604.5</ele><time>2026-04-11T15:37:23.999Z</time></trkpt><trkpt lat="44.18563409579093" lon="11.21456900459584"><ele>605.0</ele><time>2026-04-11T15:37:24.999Z</time></trkpt><trkpt lat="44.18576039493903" lon="11.214483785335053"><ele>605.0</ele><time>2026-04-11T15:37:25.999Z</time></trkpt><trkpt lat="44.18588419316508" lon="11.214402103276575"><ele>605.0</ele><time>2026-04-11T15:37:26.999Z</time></trkpt><trkpt lat="44.18600311972462" lon="11.214321426471335"><ele>605.0</ele><time>2026-04-11T15:37:27.999Z</time></trkpt><trkpt lat="44.18611846284257" lon="11.214244473926838"><ele>605.0</ele><time>2026-04-11T15:37:28.999Z</time></trkpt><trkpt lat="44.18623159542557" lon="11.214171323681676"><ele>605.0</ele><time>2026-04-11T15:37:29.999Z</time></trkpt><trkpt lat="44.18634196222425" lon="11.214100137240397"><ele>605.0</ele><time>2026-04-11T15:37:30.999Z</time></trkpt><trkpt lat="44.18645072884296" lon="11.214043164504606"><ele>605.0</ele><time>2026-04-11T15:37:31.999Z</time></trkpt><trkpt lat="44.186569913973756" lon="11.213980468756164"><ele>605.0</ele><time>2026-04-11T15:37:32.999Z</time></trkpt><trkpt lat="44.186684021042495" lon="11.213934223835775"><ele>605.25</ele><time>2026-04-11T15:37:33.999Z</time></trkpt><trkpt lat="44.18679666959413" lon="11.213896939656719"><ele>605.5</ele><time>2026-04-11T15:37:34.999Z</time></trkpt><trkpt lat="44.186928952025326" lon="11.213869755043413"><ele>605.75</ele><time>2026-04-11T15:37:35.999Z</time></trkpt><trkpt lat="44.187051647836306" lon="11.213851399541431"><ele>606.0</ele><time>2026-04-11T15:37:36.999Z</time></trkpt><trkpt lat="44.187167673703385" lon="11.213828326338463"><ele>606.0</ele><time>2026-04-11T15:37:37.999Z</time></trkpt><trkpt lat="44.18728738950366" lon="11.213814891619405"><ele>606.0</ele><time>2026-04-11T15:37:38.999Z</time></trkpt><trkpt lat="44.187422305420974" lon="11.213789371350346"><ele>606.0</ele><time>2026-04-11T15:37:39.999Z</time></trkpt><trkpt lat="44.18756083405339" lon="11.213754893255773"><ele>606.0</ele><time>2026-04-11T15:37:40.999Z</time></trkpt><trkpt lat="44.18769766595938" lon="11.213712115135252"><ele>605.6</ele><time>2026-04-11T15:37:41.999Z</time></trkpt><trkpt lat="44.18782804707204" lon="11.213661031570803"><ele>605.2</ele><time>2026-04-11T15:37:42.999Z</time></trkpt><trkpt lat="44.18795027736279" lon="11.213608701122354"><ele>604.8</ele><time>2026-04-11T15:37:43.999Z</time></trkpt><trkpt lat="44.18805536508646" lon="11.213558298081042"><ele>604.4</ele><time>2026-04-11T15:37:44.999Z</time></trkpt><trkpt lat="44.18811702069754" lon="11.213534201735923"><ele>604.0</ele><time>2026-04-11T15:37:45.999Z</time></trkpt><trkpt lat="44.18802198430301" lon="11.21358146442403"><ele>604.0</ele><time>2026-04-11T15:38:03.999Z</time></trkpt><trkpt lat="44.18795582303014" lon="11.213598870566573"><ele>604.0</ele><time>2026-04-11T15:38:04.999Z</time></trkpt><trkpt lat="44.18789169713372" lon="11.213619110828445"><ele>604.0</ele><time>2026-04-11T15:38:05.999Z</time></trkpt><trkpt lat="44.18782107414235" lon="11.2136499413923"><ele>604.0</ele><time>2026-04-11T15:38:06.999Z</time></trkpt><trkpt lat="44.18774429303801" lon="11.213682959956909"><ele>604.0</ele><time>2026-04-11T15:38:07.999Z</time></trkpt><trkpt lat="44.18767617275691" lon="11.213707740579093"><ele>604.0</ele><time>2026-04-11T15:38:08.999Z</time></trkpt><trkpt lat="44.18756423752466" lon="11.213728551043506"><ele>604.0</ele><time>2026-04-11T15:38:10.999Z</time></trkpt><trkpt lat="44.18747451575053" lon="11.213752869056094"><ele>604.0</ele><time>2026-04-11T15:38:12.999Z</time></trkpt><trkpt lat="44.18738825048879" lon="11.213813891256425"><ele>604.0</ele><time>2026-04-11T15:38:22.999Z</time></trkpt><trkpt lat="44.187255562864486" lon="11.213794442631634"><ele>604.0</ele><time>2026-04-11T15:38:24.998Z</time></trkpt><trkpt lat="44.187173475468036" lon="11.213817056565208"><ele>604.0</ele><time>2026-04-11T15:38:26.998Z</time></trkpt><trkpt lat="44.18711230178421" lon="11.213850192613144"><ele>604.3333333333334</ele><time>2026-04-11T15:38:35.998Z</time></trkpt><trkpt lat="44.18700868821246" lon="11.213834610124088"><ele>604.6666666666667</ele><time>2026-04-11T15:38:38.998Z</time></trkpt><trkpt lat="44.18693914688038" lon="11.213800583668803"><ele>605.0</ele><time>2026-04-11T15:38:41.998Z</time></trkpt><trkpt lat="44.186975860541445" lon="11.213873649930544"><ele>605.3333333333334</ele><time>2026-04-11T15:38:46Z</time></trkpt><trkpt lat="44.1870434226105" lon="11.213867576096343"><ele>605.6666666666666</ele><time>2026-04-11T15:38:49Z</time></trkpt><trkpt lat="44.187135301031354" lon="11.21388315852163"><ele>606.0</ele><time>2026-04-11T15:38:52Z</time></trkpt><trkpt lat="44.18725139797102" lon="11.213951344839685"><ele>606.8</ele><time>2026-04-11T15:38:55Z</time></trkpt><trkpt lat="44.187349532216125" lon="11.2140016738465"><ele>607.6</ele><time>2026-04-11T15:38:57Z</time></trkpt><trkpt lat="44.1874063921135" lon="11.214051872810648"><ele>608.4</ele><time>2026-04-11T15:38:58Z</time></trkpt><trkpt lat="44.187476916525135" lon="11.214120117965537"><ele>609.2</ele><time>2026-04-11T15:38:59Z</time></trkpt><trkpt lat="44.18753847489401" lon="11.214174623810099"><ele>610.0</ele><time>2026-04-11T15:39:00Z</time></trkpt><trkpt lat="44.187645620917316" lon="11.21425053223382"><ele>610.0</ele><time>2026-04-11T15:39:02Z</time></trkpt><trkpt lat="44.18770504550644" lon="11.214296993492827"><ele>610.0</ele><time>2026-04-11T15:39:03Z</time></trkpt><trkpt lat="44.18777076121156" lon="11.214363752372261"><ele>610.0</ele><time>2026-04-11T15:39:04Z</time></trkpt><trkpt lat="44.18783138450916" lon="11.214447809025883"><ele>610.0</ele><time>2026-04-11T15:39:05Z</time></trkpt><trkpt lat="44.187900461136394" lon="11.214555084352732"><ele>610.0</ele><time>2026-04-11T15:39:06Z</time></trkpt><trkpt lat="44.18798420092242" lon="11.214655525004835"><ele>610.0</ele><time>2026-04-11T15:39:07Z</time></trkpt><trkpt lat="44.18807287908505" lon="11.214750856322627"><ele>610.6</ele><time>2026-04-11T15:39:08Z</time></trkpt><trkpt lat="44.18814643676348" lon="11.214823362524948"><ele>611.2</ele><time>2026-04-11T15:39:09Z</time></trkpt><trkpt lat="44.188227533480884" lon="11.214906454334633"><ele>611.8</ele><time>2026-04-11T15:39:10Z</time></trkpt><trkpt lat="44.18829551533503" lon="11.214996556274428"><ele>612.4</ele><time>2026-04-11T15:39:11Z</time></trkpt><trkpt lat="44.18836412806258" lon="11.215081876379205"><ele>613.0</ele><time>2026-04-11T15:39:12Z</time></trkpt><trkpt lat="44.18842647791292" lon="11.215163708475243"><ele>613.0</ele><time>2026-04-11T15:39:13Z</time></trkpt><trkpt lat="44.188493477800826" lon="11.215204291959687"><ele>613.0</ele><time>2026-04-11T15:39:14Z</time></trkpt><trkpt lat="44.188574407481305" lon="11.21523323533309"><ele>613.0</ele><time>2026-04-11T15:39:15Z</time></trkpt><trkpt lat="44.188659409170604" lon="11.215237991225662"><ele>613.0</ele><time>2026-04-11T15:39:16Z</time></trkpt><trkpt lat="44.18874844013367" lon="11.215219018129972"><ele>613.0</ele><time>2026-04-11T15:39:17Z</time></trkpt><trkpt lat="44.18883673071221" lon="11.21520847268559"><ele>613.0</ele><time>2026-04-11T15:39:18Z</time></trkpt><trkpt lat="44.1889197756871" lon="11.215236733824831"><ele>613.0</ele><time>2026-04-11T15:39:19Z</time></trkpt><trkpt lat="44.18900807467427" lon="11.215282214257838"><ele>613.0</ele><time>2026-04-11T15:39:20Z</time></trkpt><trkpt lat="44.1891112862096" lon="11.215306580718117"><ele>613.0</ele><time>2026-04-11T15:39:21Z</time></trkpt><trkpt lat="44.189217247684766" lon="11.215324407541432"><ele>613.0</ele><time>2026-04-11T15:39:22Z</time></trkpt><trkpt lat="44.189315660341684" lon="11.215364322941298"><ele>613.0</ele><time>2026-04-11T15:39:23Z</time></trkpt><trkpt lat="44.18943143924965" lon="11.215396226794136"><ele>612.4</ele><time>2026-04-11T15:39:24Z</time></trkpt><trkpt lat="44.1895296084971" lon="11.21539591897437"><ele>611.8</ele><time>2026-04-11T15:39:25Z</time></trkpt><trkpt lat="44.18961965482562" lon="11.215374648071881"><ele>611.2</ele><time>2026-04-11T15:39:26Z</time></trkpt><trkpt lat="44.189716086520605" lon="11.215323820267027"><ele>610.6</ele><time>2026-04-11T15:39:27Z</time></trkpt><trkpt lat="44.18981727346295" lon="11.215288375266134"><ele>610.0</ele><time>2026-04-11T15:39:28Z</time></trkpt><trkpt lat="44.18992284989721" lon="11.215266640648139"><ele>611.0</ele><time>2026-04-11T15:39:29Z</time></trkpt><trkpt lat="44.19001200214456" lon="11.21524342144165"><ele>612.0</ele><time>2026-04-11T15:39:30Z</time></trkpt><trkpt lat="44.19010895107827" lon="11.215238687425442"><ele>613.0</ele><time>2026-04-11T15:39:31Z</time></trkpt><trkpt lat="44.190196231867674" lon="11.215238223812939"><ele>614.0</ele><time>2026-04-11T15:39:31.999Z</time></trkpt><trkpt lat="44.19027012266054" lon="11.215229043099168"><ele>615.0</ele><time>2026-04-11T15:39:32.999Z</time></trkpt><trkpt lat="44.19035238153134" lon="11.215227043797677"><ele>616.0</ele><time>2026-04-11T15:39:33.999Z</time></trkpt><trkpt lat="44.190415436867916" lon="11.215224525421618"><ele>616.0</ele><time>2026-04-11T15:39:34.999Z</time></trkpt><trkpt lat="44.19048561602" lon="11.21521977018896"><ele>616.0</ele><time>2026-04-11T15:39:35.999Z</time></trkpt><trkpt lat="44.19056875996498" lon="11.215206176458466"><ele>616.0</ele><time>2026-04-11T15:39:36.999Z</time></trkpt><trkpt lat="44.1906444236331" lon="11.215180632218686"><ele>616.0</ele><time>2026-04-11T15:39:37.999Z</time></trkpt><trkpt lat="44.19072872035536" lon="11.215183708918213"><ele>616.0</ele><time>2026-04-11T15:39:38.999Z</time></trkpt><trkpt lat="44.19083013797347" lon="11.215204990633278"><ele>616.0</ele><time>2026-04-11T15:39:39.999Z</time></trkpt><trkpt lat="44.190932941064794" lon="11.215248501772487"><ele>615.5</ele><time>2026-04-11T15:39:40.999Z</time></trkpt><trkpt lat="44.191044339394054" lon="11.21525925714094"><ele>615.0</ele><time>2026-04-11T15:39:41.999Z</time></trkpt><trkpt lat="44.19116576718395" lon="11.215223720256184"><ele>614.5</ele><time>2026-04-11T15:39:42.999Z</time></trkpt><trkpt lat="44.191290411671076" lon="11.21516271526171"><ele>614.0</ele><time>2026-04-11T15:39:43.999Z</time></trkpt><trkpt lat="44.191406672332796" lon="11.215097340278332"><ele>615.0</ele><time>2026-04-11T15:39:44.999Z</time></trkpt><trkpt lat="44.19151940893061" lon="11.215029748727227"><ele>616.0</ele><time>2026-04-11T15:39:45.999Z</time></trkpt><trkpt lat="44.19163407359475" lon="11.214979421849295"><ele>617.0</ele><time>2026-04-11T15:39:46.999Z</time></trkpt><trkpt lat="44.19174819519287" lon="11.214952540115235"><ele>618.0</ele><time>2026-04-11T15:39:47.999Z</time></trkpt><trkpt lat="44.19186338213308" lon="11.214939766831295"><ele>618.0</ele><time>2026-04-11T15:39:48.999Z</time></trkpt><trkpt lat="44.19199099161887" lon="11.214945501155372"><ele>618.0</ele><time>2026-04-11T15:39:49.999Z</time></trkpt><trkpt lat="44.19212293422686" lon="11.214968032487741"><ele>618.0</ele><time>2026-04-11T15:39:50.999Z</time></trkpt><trkpt lat="44.19225328563865" lon="11.215004029970922"><ele>618.0</ele><time>2026-04-11T15:39:51.999Z</time></trkpt><trkpt lat="44.19236381808138" lon="11.21502737186884"><ele>617.6</ele><time>2026-04-11T15:39:52.999Z</time></trkpt><trkpt lat="44.19247845825968" lon="11.215019338593056"><ele>617.1999999999999</ele><time>2026-04-11T15:39:53.999Z</time></trkpt><trkpt lat="44.19255832963998" lon="11.214958616236872"><ele>616.8</ele><time>2026-04-11T15:39:54.999Z</time></trkpt><trkpt lat="44.19261101029012" lon="11.214860826119367"><ele>616.4</ele><time>2026-04-11T15:39:55.999Z</time></trkpt><trkpt lat="44.19267327011706" lon="11.214757361995751"><ele>616.0</ele><time>2026-04-11T15:39:57.999Z</time></trkpt><trkpt lat="44.1926691675148" lon="11.214596656409437"><ele>616.0</ele><time>2026-04-11T15:40:00.999Z</time></trkpt><trkpt lat="44.192668738249665" lon="11.214485093575801"><ele>616.0</ele><time>2026-04-11T15:40:01.999Z</time></trkpt><trkpt lat="44.19268127916529" lon="11.214343048081396"><ele>616.0</ele><time>2026-04-11T15:40:02.999Z</time></trkpt><trkpt lat="44.19272090235528" lon="11.21418008913213"><ele>616.0</ele><time>2026-04-11T15:40:03.999Z</time></trkpt><trkpt lat="44.192767722418566" lon="11.214003518583686"><ele>616.0</ele><time>2026-04-11T15:40:04.999Z</time></trkpt><trkpt lat="44.19283155159332" lon="11.213835788833068"><ele>612.75</ele><time>2026-04-11T15:40:05.999Z</time></trkpt><trkpt lat="44.19288950292859" lon="11.213648769717793"><ele>609.5</ele><time>2026-04-11T15:40:06.999Z</time></trkpt><trkpt lat="44.1929492901375" lon="11.213466452183482"><ele>606.25</ele><time>2026-04-11T15:40:07.999Z</time></trkpt><trkpt lat="44.19300786305615" lon="11.213285449200118"><ele>603.0</ele><time>2026-04-11T15:40:08.999Z</time></trkpt><trkpt lat="44.19306074690366" lon="11.21309330823825"><ele>601.5</ele><time>2026-04-11T15:40:09.999Z</time></trkpt><trkpt lat="44.19311128393054" lon="11.212889758205055"><ele>600.0</ele><time>2026-04-11T15:40:10.999Z</time></trkpt><trkpt lat="44.19312227857626" lon="11.212688924151024"><ele>598.5</ele><time>2026-04-11T15:40:11.999Z</time></trkpt><trkpt lat="44.19316815337697" lon="11.212541650817009"><ele>597.0</ele><time>2026-04-11T15:40:12.999Z</time></trkpt><trkpt lat="44.193149186958046" lon="11.21236087396628"><ele>596.0</ele><time>2026-04-11T15:40:13.999Z</time></trkpt><trkpt lat="44.1930969681305" lon="11.212186359072795"><ele>595.0</ele><time>2026-04-11T15:40:14.999Z</time></trkpt><trkpt lat="44.1930346311907" lon="11.212012077942337"><ele>594.0</ele><time>2026-04-11T15:40:15.999Z</time></trkpt><trkpt lat="44.19297351365629" lon="11.211856556971139"><ele>593.0</ele><time>2026-04-11T15:40:16.999Z</time></trkpt><trkpt lat="44.19292276936171" lon="11.211704062360127"><ele>593.0</ele><time>2026-04-11T15:40:17.999Z</time></trkpt><trkpt lat="44.1928777362662" lon="11.211565409327537"><ele>593.0</ele><time>2026-04-11T15:40:18.999Z</time></trkpt><trkpt lat="44.192830857687014" lon="11.211431880598377"><ele>593.0</ele><time>2026-04-11T15:40:19.999Z</time></trkpt><trkpt lat="44.19279082447676" lon="11.211302390171234"><ele>593.0</ele><time>2026-04-11T15:40:20.999Z</time></trkpt><trkpt lat="44.192764171496506" lon="11.211174234491638"><ele>593.0</ele><time>2026-04-11T15:40:21.999Z</time></trkpt><trkpt lat="44.19275514062093" lon="11.211059720578087"><ele>591.1999999999999</ele><time>2026-04-11T15:40:22.999Z</time></trkpt><trkpt lat="44.192764630972526" lon="11.21096040395214"><ele>589.4</ele><time>2026-04-11T15:40:23.999Z</time></trkpt><trkpt lat="44.19279458885183" lon="11.210855794168062"><ele>587.5999999999999</ele><time>2026-04-11T15:40:24.999Z</time></trkpt><trkpt lat="44.19285689699148" lon="11.210752135267303"><ele>585.8</ele><time>2026-04-11T15:40:25.999Z</time></trkpt><trkpt lat="44.192931951237135" lon="11.210631566476069"><ele>584.0</ele><time>2026-04-11T15:40:26.999Z</time></trkpt><trkpt lat="44.19301233696833" lon="11.21049219775635"><ele>583.4</ele><time>2026-04-11T15:40:27.999Z</time></trkpt><trkpt lat="44.19308195002176" lon="11.210375938304935"><ele>582.8</ele><time>2026-04-11T15:40:28.999Z</time></trkpt><trkpt lat="44.19314570295764" lon="11.210296691378234"><ele>582.2</ele><time>2026-04-11T15:40:29.999Z</time></trkpt><trkpt lat="44.19322463703512" lon="11.210255832349953"><ele>581.6</ele><time>2026-04-11T15:40:30.999Z</time></trkpt><trkpt lat="44.19330934656403" lon="11.210256758533927"><ele>581.0</ele><time>2026-04-11T15:40:31.999Z</time></trkpt><trkpt lat="44.193396566971494" lon="11.210298815452825"><ele>580.8333333333333</ele><time>2026-04-11T15:40:32.999Z</time></trkpt><trkpt lat="44.19347986918831" lon="11.210340750909728"><ele>580.6666666666666</ele><time>2026-04-11T15:40:33.999Z</time></trkpt><trkpt lat="44.19355964817613" lon="11.21034872282132"><ele>580.5</ele><time>2026-04-11T15:40:34.999Z</time></trkpt><trkpt lat="44.19363282865568" lon="11.210320286479208"><ele>580.3333333333334</ele><time>2026-04-11T15:40:35.998Z</time></trkpt><trkpt lat="44.19369533055957" lon="11.210250548121051"><ele>580.1666666666667</ele><time>2026-04-11T15:40:36.998Z</time></trkpt><trkpt lat="44.19375933740133" lon="11.210157120017508"><ele>580.0</ele><time>2026-04-11T15:40:37.998Z</time></trkpt><trkpt lat="44.193767042132464" lon="11.209989339840938"><ele>579.25</ele><time>2026-04-11T15:40:38.998Z</time></trkpt><trkpt lat="44.19378475716553" lon="11.209820448838553"><ele>578.5</ele><time>2026-04-11T15:40:39.998Z</time></trkpt><trkpt lat="44.19382986694735" lon="11.209658182951548"><ele>577.75</ele><time>2026-04-11T15:40:40.998Z</time></trkpt><trkpt lat="44.19386092498315" lon="11.20951174224609"><ele>577.0</ele><time>2026-04-11T15:40:41.998Z</time></trkpt><trkpt lat="44.19392461781802" lon="11.209391631981552"><ele>577.0</ele><time>2026-04-11T15:40:42.998Z</time></trkpt><trkpt lat="44.19400250309619" lon="11.209301328934037"><ele>577.0</ele><time>2026-04-11T15:40:43.998Z</time></trkpt><trkpt lat="44.194106518079124" lon="11.209229580816304"><ele>577.0</ele><time>2026-04-11T15:40:44.998Z</time></trkpt><trkpt lat="44.19423407157345" lon="11.2091788873916"><ele>577.0</ele><time>2026-04-11T15:40:45.998Z</time></trkpt><trkpt lat="44.19434834925522" lon="11.20908811310361"><ele>575.75</ele><time>2026-04-11T15:40:46.998Z</time></trkpt><trkpt lat="44.19443569027795" lon="11.20896133845498"><ele>574.5</ele><time>2026-04-11T15:40:47.998Z</time></trkpt><trkpt lat="44.19451866997348" lon="11.208818737295553"><ele>573.25</ele><time>2026-04-11T15:40:48.998Z</time></trkpt><trkpt lat="44.19464133478373" lon="11.20874401732391"><ele>572.0</ele><time>2026-04-11T15:40:49.998Z</time></trkpt><trkpt lat="44.19475557267609" lon="11.208601914105232"><ele>574.6666666666666</ele><time>2026-04-11T15:40:50.998Z</time></trkpt><trkpt lat="44.19488815552161" lon="11.208467073325838"><ele>577.3333333333334</ele><time>2026-04-11T15:40:52Z</time></trkpt><trkpt lat="44.19498852296767" lon="11.208300722707389"><ele>580.0</ele><time>2026-04-11T15:40:53Z</time></trkpt><trkpt lat="44.195089845598325" lon="11.208169186096287"><ele>576.0</ele><time>2026-04-11T15:40:54Z</time></trkpt><trkpt lat="44.19520529371852" lon="11.20804525059363"><ele>572.0</ele><time>2026-04-11T15:40:55Z</time></trkpt><trkpt lat="44.19533262991002" lon="11.207923553558397"><ele>568.0</ele><time>2026-04-11T15:40:56Z</time></trkpt><trkpt lat="44.195471228032865" lon="11.207796216530058"><ele>568.0</ele><time>2026-04-11T15:40:57Z</time></trkpt><trkpt lat="44.19560875381365" lon="11.207667661382912"><ele>568.0</ele><time>2026-04-11T15:40:58Z</time></trkpt><trkpt lat="44.19572907161849" lon="11.207535190169322"><ele>568.0</ele><time>2026-04-11T15:40:59Z</time></trkpt><trkpt lat="44.19583230458142" lon="11.207407737018848"><ele>567.6</ele><time>2026-04-11T15:41:00Z</time></trkpt><trkpt lat="44.19592259501125" lon="11.207274760341765"><ele>567.1999999999999</ele><time>2026-04-11T15:41:01Z</time></trkpt><trkpt lat="44.196001301680234" lon="11.207154151608295"><ele>566.8</ele><time>2026-04-11T15:41:02Z</time></trkpt><trkpt lat="44.19608234541522" lon="11.207071842400186"><ele>566.4</ele><time>2026-04-11T15:41:03Z</time></trkpt><trkpt lat="44.196163209835646" lon="11.20703586644589"><ele>566.0</ele><time>2026-04-11T15:41:04Z</time></trkpt><trkpt lat="44.196260121773655" lon="11.207051222703704"><ele>566.0</ele><time>2026-04-11T15:41:05Z</time></trkpt><trkpt lat="44.196385789639336" lon="11.207092875156874"><ele>566.0</ele><time>2026-04-11T15:41:06Z</time></trkpt><trkpt lat="44.19651677148761" lon="11.207140805833257"><ele>566.0</ele><time>2026-04-11T15:41:07Z</time></trkpt><trkpt lat="44.19663106533932" lon="11.207199859919086"><ele>566.0</ele><time>2026-04-11T15:41:08Z</time></trkpt><trkpt lat="44.19673766191961" lon="11.20726536996797"><ele>570.25</ele><time>2026-04-11T15:41:09Z</time></trkpt><trkpt lat="44.19683978932527" lon="11.20735346014455"><ele>574.5</ele><time>2026-04-11T15:41:10Z</time></trkpt><trkpt lat="44.1969429820845" lon="11.207443582095227"><ele>578.75</ele><time>2026-04-11T15:41:11Z</time></trkpt><trkpt lat="44.19704524614091" lon="11.207531638798226"><ele>583.0</ele><time>2026-04-11T15:41:12Z</time></trkpt><trkpt lat="44.19715206874869" lon="11.207603537915926"><ele>583.0</ele><time>2026-04-11T15:41:13Z</time></trkpt><trkpt lat="44.197264491941056" lon="11.2076343347604"><ele>583.0</ele><time>2026-04-11T15:41:14Z</time></trkpt><trkpt lat="44.19738784358453" lon="11.207619305744307"><ele>583.0</ele><time>2026-04-11T15:41:15Z</time></trkpt><trkpt lat="44.19751122840157" lon="11.207566733938828"><ele>583.0</ele><time>2026-04-11T15:41:16Z</time></trkpt><trkpt lat="44.197642817372106" lon="11.207503527620245"><ele>578.5</ele><time>2026-04-11T15:41:17Z</time></trkpt><trkpt lat="44.197799707946025" lon="11.20745747453424"><ele>574.0</ele><time>2026-04-11T15:41:18Z</time></trkpt><trkpt lat="44.19794965941326" lon="11.20745023569903"><ele>569.5</ele><time>2026-04-11T15:41:19Z</time></trkpt><trkpt lat="44.19808270525399" lon="11.20748297942495"><ele>565.0</ele><time>2026-04-11T15:41:20Z</time></trkpt><trkpt lat="44.19823089704842" lon="11.207496276367719"><ele>562.0</ele><time>2026-04-11T15:41:21Z</time></trkpt><trkpt lat="44.19836565588182" lon="11.207500631685516"><ele>559.0</ele><time>2026-04-11T15:41:22Z</time></trkpt><trkpt lat="44.198508218244605" lon="11.207448929361993"><ele>556.0</ele><time>2026-04-11T15:41:23Z</time></trkpt><trkpt lat="44.19866191414386" lon="11.207343487707"><ele>552.3333333333334</ele><time>2026-04-11T15:41:24Z</time></trkpt><trkpt lat="44.19881968775358" lon="11.20720569844719"><ele>548.6666666666666</ele><time>2026-04-11T15:41:25Z</time></trkpt><trkpt lat="44.19896710428873" lon="11.207069928069693"><ele>545.0</ele><time>2026-04-11T15:41:26Z</time></trkpt><trkpt lat="44.19909952153161" lon="11.20694451340705"><ele>545.0</ele><time>2026-04-11T15:41:27Z</time></trkpt><trkpt lat="44.1992252119784" lon="11.206808011236376"><ele>545.0</ele><time>2026-04-11T15:41:28Z</time></trkpt><trkpt lat="44.199326115751944" lon="11.206662134309786"><ele>545.0</ele><time>2026-04-11T15:41:29Z</time></trkpt><trkpt lat="44.199418130101016" lon="11.206506348624973"><ele>545.0</ele><time>2026-04-11T15:41:30Z</time></trkpt><trkpt lat="44.199507442113116" lon="11.206355120740499"><ele>545.5</ele><time>2026-04-11T15:41:31Z</time></trkpt><trkpt lat="44.19958722123501" lon="11.206207425600766"><ele>546.0</ele><time>2026-04-11T15:41:32Z</time></trkpt><trkpt lat="44.199686957358246" lon="11.206091834548705"><ele>546.5</ele><time>2026-04-11T15:41:33Z</time></trkpt><trkpt lat="44.1997933390579" lon="11.206003589729072"><ele>547.0</ele><time>2026-04-11T15:41:34Z</time></trkpt><trkpt lat="44.19990007645024" lon="11.205943750380236"><ele>547.0</ele><time>2026-04-11T15:41:34.999Z</time></trkpt><trkpt lat="44.19999371493846" lon="11.205873642830486"><ele>547.0</ele><time>2026-04-11T15:41:35.999Z</time></trkpt><trkpt lat="44.20004672372849" lon="11.205749563440909"><ele>547.0</ele><time>2026-04-11T15:41:36.999Z</time></trkpt><trkpt lat="44.200081276106594" lon="11.205613132625299"><ele>547.0</ele><time>2026-04-11T15:41:37.999Z</time></trkpt><trkpt lat="44.200104668324336" lon="11.205478404348268"><ele>547.0</ele><time>2026-04-11T15:41:38.999Z</time></trkpt><trkpt lat="44.20013805601745" lon="11.205358068845534"><ele>545.6</ele><time>2026-04-11T15:41:39.999Z</time></trkpt><trkpt lat="44.2001547228728" lon="11.205236840328975"><ele>544.2</ele><time>2026-04-11T15:41:40.999Z</time></trkpt><trkpt lat="44.200153672143365" lon="11.205117357348607"><ele>542.8</ele><time>2026-04-11T15:41:41.999Z</time></trkpt><trkpt lat="44.200128499261034" lon="11.204995452310289"><ele>541.4</ele><time>2026-04-11T15:41:42.999Z</time></trkpt><trkpt lat="44.20006959642512" lon="11.204891110322688"><ele>540.0</ele><time>2026-04-11T15:41:43.999Z</time></trkpt><trkpt lat="44.19999001244935" lon="11.204797639241283"><ele>537.6</ele><time>2026-04-11T15:41:44.999Z</time></trkpt><trkpt lat="44.19989696976622" lon="11.204737432877717"><ele>535.2</ele><time>2026-04-11T15:41:45.999Z</time></trkpt><trkpt lat="44.19979355075558" lon="11.204718314216025"><ele>532.8</ele><time>2026-04-11T15:41:46.999Z</time></trkpt><trkpt lat="44.199679127650626" lon="11.204733414731363"><ele>530.4</ele><time>2026-04-11T15:41:47.999Z</time></trkpt><trkpt lat="44.19957324546699" lon="11.204755281272263"><ele>528.0</ele><time>2026-04-11T15:41:48.999Z</time></trkpt><trkpt lat="44.19947516861557" lon="11.204763176105835"><ele>527.8333333333334</ele><time>2026-04-11T15:41:49.999Z</time></trkpt><trkpt lat="44.19939759834838" lon="11.204736471975293"><ele>527.6666666666666</ele><time>2026-04-11T15:41:50.999Z</time></trkpt><trkpt lat="44.19934123785071" lon="11.204670221334766"><ele>527.5</ele><time>2026-04-11T15:41:51.999Z</time></trkpt><trkpt lat="44.199303351033535" lon="11.204565880726966"><ele>527.3333333333333</ele><time>2026-04-11T15:41:52.999Z</time></trkpt><trkpt lat="44.19928356191497" lon="11.204437144765988"><ele>527.1666666666666</ele><time>2026-04-11T15:41:53.999Z</time></trkpt><trkpt lat="44.19926248056795" lon="11.204279944598357"><ele>527.0</ele><time>2026-04-11T15:41:54.999Z</time></trkpt><trkpt lat="44.199229139960494" lon="11.204122581930948"><ele>525.2</ele><time>2026-04-11T15:41:55.999Z</time></trkpt><trkpt lat="44.19919318950575" lon="11.203986604141125"><ele>523.4000000000001</ele><time>2026-04-11T15:41:56.999Z</time></trkpt><trkpt lat="44.1991648767646" lon="11.203874428716048"><ele>521.5999999999999</ele><time>2026-04-11T15:41:57.999Z</time></trkpt><trkpt lat="44.19912520554114" lon="11.203783859344467"><ele>519.8</ele><time>2026-04-11T15:41:58.999Z</time></trkpt><trkpt lat="44.19905983747122" lon="11.203655679262177"><ele>518.0</ele><time>2026-04-11T15:41:59.999Z</time></trkpt><trkpt lat="44.19898634515712" lon="11.203539822273157"><ele>517.8</ele><time>2026-04-11T15:42:00.999Z</time></trkpt><trkpt lat="44.19891348785814" lon="11.203439192469846"><ele>517.5999999999999</ele><time>2026-04-11T15:42:01.999Z</time></trkpt><trkpt lat="44.19884120911282" lon="11.203361380798109"><ele>517.4000000000001</ele><time>2026-04-11T15:42:02.999Z</time></trkpt><trkpt lat="44.19875404076" lon="11.203311263283979"><ele>517.2</ele><time>2026-04-11T15:42:03.999Z</time></trkpt><trkpt lat="44.198659911420336" lon="11.203310806114162"><ele>517.0</ele><time>2026-04-11T15:42:04.999Z</time></trkpt><trkpt lat="44.19856394692313" lon="11.20332691250594"><ele>517.0</ele><time>2026-04-11T15:42:05.999Z</time></trkpt><trkpt lat="44.19846777484819" lon="11.203355271313677"><ele>517.0</ele><time>2026-04-11T15:42:06.999Z</time></trkpt><trkpt lat="44.19837900461494" lon="11.203390022131407"><ele>517.0</ele><time>2026-04-11T15:42:07.999Z</time></trkpt><trkpt lat="44.19831612777886" lon="11.20340226835766"><ele>517.0</ele><time>2026-04-11T15:42:08.999Z</time></trkpt><trkpt lat="44.19826369719306" lon="11.203326906386703"><ele>517.0</ele><time>2026-04-11T15:42:10.999Z</time></trkpt><trkpt lat="44.198358775657965" lon="11.203205598886628"><ele>510.25</ele><time>2026-04-11T15:42:12.999Z</time></trkpt><trkpt lat="44.19844974592208" lon="11.203153531253314"><ele>503.5</ele><time>2026-04-11T15:42:13.999Z</time></trkpt><trkpt lat="44.19855624783215" lon="11.203110467973591"><ele>496.75</ele><time>2026-04-11T15:42:14.999Z</time></trkpt><trkpt lat="44.19867710689224" lon="11.203082344479162"><ele>490.0</ele><time>2026-04-11T15:42:15.999Z</time></trkpt><trkpt lat="44.198811101642455" lon="11.203078536292098"><ele>490.0</ele><time>2026-04-11T15:42:16.999Z</time></trkpt><trkpt lat="44.19894513563806" lon="11.203082568618896"><ele>490.0</ele><time>2026-04-11T15:42:17.999Z</time></trkpt><trkpt lat="44.199074373313124" lon="11.203090700304982"><ele>490.0</ele><time>2026-04-11T15:42:18.999Z</time></trkpt><trkpt lat="44.19919650650703" lon="11.203119177573821"><ele>490.0</ele><time>2026-04-11T15:42:19.999Z</time></trkpt><trkpt lat="44.19930748171543" lon="11.203182325789847"><ele>497.0</ele><time>2026-04-11T15:42:20.999Z</time></trkpt><trkpt lat="44.19940243483967" lon="11.203260689791405"><ele>504.0</ele><time>2026-04-11T15:42:21.999Z</time></trkpt><trkpt lat="44.19950851412407" lon="11.203322256886985"><ele>511.0</ele><time>2026-04-11T15:42:22.999Z</time></trkpt><trkpt lat="44.19960884752202" lon="11.203375297361564"><ele>518.0</ele><time>2026-04-11T15:42:23.999Z</time></trkpt><trkpt lat="44.19972505386277" lon="11.203411476438145"><ele>518.0</ele><time>2026-04-11T15:42:24.999Z</time></trkpt><trkpt lat="44.19981234252383" lon="11.203470949825705"><ele>518.0</ele><time>2026-04-11T15:42:25.999Z</time></trkpt><trkpt lat="44.19993168231804" lon="11.20349682681013"><ele>518.0</ele><time>2026-04-11T15:42:26.999Z</time></trkpt><trkpt lat="44.20004788996285" lon="11.203498849632211"><ele>518.0</ele><time>2026-04-11T15:42:27.999Z</time></trkpt><trkpt lat="44.20017959018932" lon="11.203497236062873"><ele>515.0</ele><time>2026-04-11T15:42:28.999Z</time></trkpt><trkpt lat="44.20030793671177" lon="11.203496782620366"><ele>512.0</ele><time>2026-04-11T15:42:29.999Z</time></trkpt><trkpt lat="44.2004256197466" lon="11.203506121580933"><ele>509.0</ele><time>2026-04-11T15:42:30.999Z</time></trkpt><trkpt lat="44.200553424106246" lon="11.203525586865679"><ele>506.0</ele><time>2026-04-11T15:42:31.999Z</time></trkpt><trkpt lat="44.20068678219847" lon="11.203561007141516"><ele>503.25</ele><time>2026-04-11T15:42:32.999Z</time></trkpt><trkpt lat="44.20082357156432" lon="11.203619105861677"><ele>500.5</ele><time>2026-04-11T15:42:33.999Z</time></trkpt><trkpt lat="44.200956960578985" lon="11.20369436127094"><ele>497.75</ele><time>2026-04-11T15:42:34.999Z</time></trkpt><trkpt lat="44.201114238290096" lon="11.203733372132017"><ele>495.0</ele><time>2026-04-11T15:42:35.999Z</time></trkpt><trkpt lat="44.20128602831618" lon="11.203743249402837"><ele>495.0</ele><time>2026-04-11T15:42:36.999Z</time></trkpt><trkpt lat="44.201457457667146" lon="11.203751302480956"><ele>495.0</ele><time>2026-04-11T15:42:37.999Z</time></trkpt><trkpt lat="44.20162260422699" lon="11.20378369148678"><ele>495.0</ele><time>2026-04-11T15:42:38.999Z</time></trkpt><trkpt lat="44.201795330293486" lon="11.203837760573293"><ele>493.66666666666663</ele><time>2026-04-11T15:42:39.998Z</time></trkpt><trkpt lat="44.201963935434726" lon="11.203908909679235"><ele>492.3333333333333</ele><time>2026-04-11T15:42:40.998Z</time></trkpt><trkpt lat="44.20212502391147" lon="11.20399217015787"><ele>491.0</ele><time>2026-04-11T15:42:41.998Z</time></trkpt><trkpt lat="44.2022883423291" lon="11.204075172112171"><ele>494.0</ele><time>2026-04-11T15:42:42.998Z</time></trkpt><trkpt lat="44.202453999808625" lon="11.204154758235399"><ele>497.0</ele><time>2026-04-11T15:42:43.998Z</time></trkpt><trkpt lat="44.2026154511691" lon="11.20423464413954"><ele>500.0</ele><time>2026-04-11T15:42:44.998Z</time></trkpt><trkpt lat="44.20277646306393" lon="11.204303079799566"><ele>500.0</ele><time>2026-04-11T15:42:45.998Z</time></trkpt><trkpt lat="44.202931597248906" lon="11.204359952573164"><ele>500.0</ele><time>2026-04-11T15:42:46.998Z</time></trkpt><trkpt lat="44.203084555252794" lon="11.204385285119628"><ele>500.0</ele><time>2026-04-11T15:42:47.998Z</time></trkpt><trkpt lat="44.203233670052185" lon="11.20439888989536"><ele>500.75</ele><time>2026-04-11T15:42:48.998Z</time></trkpt><trkpt lat="44.20337218086593" lon="11.20439487998967"><ele>501.5</ele><time>2026-04-11T15:42:49.998Z</time></trkpt><trkpt lat="44.203515402927195" lon="11.204373864631744"><ele>502.25</ele><time>2026-04-11T15:42:50.998Z</time></trkpt><trkpt lat="44.203657600327304" lon="11.20432317771043"><ele>503.0</ele><time>2026-04-11T15:42:51.998Z</time></trkpt><trkpt lat="44.20378244089766" lon="11.2042616215509"><ele>503.0</ele><time>2026-04-11T15:42:52.998Z</time></trkpt><trkpt lat="44.20388735193966" lon="11.20418161388944"><ele>502.99999999999994</ele><time>2026-04-11T15:42:53.998Z</time></trkpt><trkpt lat="44.2039694470682" lon="11.20409485399399"><ele>502.99999999999994</ele><time>2026-04-11T15:42:54.998Z</time></trkpt><trkpt lat="44.204057146573156" lon="11.203991815074954"><ele>503.0</ele><time>2026-04-11T15:42:55.998Z</time></trkpt><trkpt lat="44.204131109970774" lon="11.20390282084589"><ele>503.0</ele><time>2026-04-11T15:42:56.998Z</time></trkpt><trkpt lat="44.20422382369147" lon="11.203804299494674"><ele>503.4</ele><time>2026-04-11T15:42:58Z</time></trkpt><trkpt lat="44.20431486293233" lon="11.203714696500638"><ele>503.79999999999995</ele><time>2026-04-11T15:42:59Z</time></trkpt><trkpt lat="44.20440476719608" lon="11.203634079007317"><ele>504.2</ele><time>2026-04-11T15:43:00Z</time></trkpt><trkpt lat="44.204490716525925" lon="11.203542847384155"><ele>504.6</ele><time>2026-04-11T15:43:01Z</time></trkpt><trkpt lat="44.20457953284992" lon="11.203442490472776"><ele>505.0</ele><time>2026-04-11T15:43:02Z</time></trkpt><trkpt lat="44.204679271402675" lon="11.203332512304755"><ele>505.0</ele><time>2026-04-11T15:43:03Z</time></trkpt><trkpt lat="44.20478312371558" lon="11.203223347651418"><ele>505.0</ele><time>2026-04-11T15:43:04Z</time></trkpt><trkpt lat="44.20489372300524" lon="11.203107169900829"><ele>505.0</ele><time>2026-04-11T15:43:05Z</time></trkpt><trkpt lat="44.20500229042223" lon="11.202992953675253"><ele>505.0</ele><time>2026-04-11T15:43:06Z</time></trkpt><trkpt lat="44.20511729180395" lon="11.20286965958097"><ele>505.33333333333337</ele><time>2026-04-11T15:43:07Z</time></trkpt><trkpt lat="44.20524340310262" lon="11.202734824280416"><ele>505.66666666666663</ele><time>2026-04-11T15:43:08Z</time></trkpt><trkpt lat="44.20537695025747" lon="11.202603557219692"><ele>506.0</ele><time>2026-04-11T15:43:09Z</time></trkpt><trkpt lat="44.20549890224595" lon="11.202463513172487"><ele>501.66666666666663</ele><time>2026-04-11T15:43:10Z</time></trkpt><trkpt lat="44.205628494245154" lon="11.202329008322568"><ele>497.33333333333337</ele><time>2026-04-11T15:43:11Z</time></trkpt><trkpt lat="44.205760260950356" lon="11.20219296825174"><ele>493.0</ele><time>2026-04-11T15:43:12Z</time></trkpt><trkpt lat="44.205889910979714" lon="11.202073411322667"><ele>493.0</ele><time>2026-04-11T15:43:13Z</time></trkpt><trkpt lat="44.20601349607873" lon="11.20197943411521"><ele>493.0</ele><time>2026-04-11T15:43:14Z</time></trkpt><trkpt lat="44.20613584964719" lon="11.20190223565956"><ele>493.0</ele><time>2026-04-11T15:43:15Z</time></trkpt><trkpt lat="44.206252018109225" lon="11.201840385934435"><ele>493.0</ele><time>2026-04-11T15:43:16Z</time></trkpt><trkpt lat="44.20636775171631" lon="11.2017828745396"><ele>493.0</ele><time>2026-04-11T15:43:17Z</time></trkpt><trkpt lat="44.20648328035273" lon="11.20173622244426"><ele>493.0</ele><time>2026-04-11T15:43:18Z</time></trkpt><trkpt lat="44.206605892718386" lon="11.201686309468252"><ele>493.0</ele><time>2026-04-11T15:43:19Z</time></trkpt><trkpt lat="44.20671430031125" lon="11.20162057274477"><ele>493.0</ele><time>2026-04-11T15:43:20Z</time></trkpt><trkpt lat="44.206820534412074" lon="11.20154179744042"><ele>491.25</ele><time>2026-04-11T15:43:21Z</time></trkpt><trkpt lat="44.206907815529014" lon="11.201425660198671"><ele>489.5</ele><time>2026-04-11T15:43:22Z</time></trkpt><trkpt lat="44.206986697704686" lon="11.201307508092146"><ele>487.75</ele><time>2026-04-11T15:43:23Z</time></trkpt><trkpt lat="44.207067390218654" lon="11.201200580977233"><ele>486.0</ele><time>2026-04-11T15:43:24Z</time></trkpt><trkpt lat="44.207150176650664" lon="11.20108782589188"><ele>486.0</ele><time>2026-04-11T15:43:25Z</time></trkpt><trkpt lat="44.2072334175118" lon="11.200974349527238"><ele>486.0</ele><time>2026-04-11T15:43:26Z</time></trkpt><trkpt lat="44.207306478054456" lon="11.200881968124936"><ele>486.0</ele><time>2026-04-11T15:43:27Z</time></trkpt><trkpt lat="44.207378593061456" lon="11.200808737249398"><ele>486.0</ele><time>2026-04-11T15:43:28Z</time></trkpt><trkpt lat="44.207442212623796" lon="11.20075421317081"><ele>486.0</ele><time>2026-04-11T15:43:29Z</time></trkpt><trkpt lat="44.207524268808044" lon="11.200718213253882"><ele>488.6</ele><time>2026-04-11T15:43:30Z</time></trkpt><trkpt lat="44.20762150513125" lon="11.200728602712953"><ele>491.20000000000005</ele><time>2026-04-11T15:43:31Z</time></trkpt><trkpt lat="44.20772280219284" lon="11.200738320593123"><ele>493.79999999999995</ele><time>2026-04-11T15:43:32Z</time></trkpt><trkpt lat="44.20782090277741" lon="11.200766362716777"><ele>496.4</ele><time>2026-04-11T15:43:33Z</time></trkpt><trkpt lat="44.20790416941438" lon="11.200804798467624"><ele>499.0</ele><time>2026-04-11T15:43:34Z</time></trkpt><trkpt lat="44.207977620768354" lon="11.200864715205379"><ele>499.0</ele><time>2026-04-11T15:43:35Z</time></trkpt><trkpt lat="44.208053040485325" lon="11.200943670428359"><ele>499.0</ele><time>2026-04-11T15:43:36Z</time></trkpt><trkpt lat="44.20810469581132" lon="11.201054222821105"><ele>499.0</ele><time>2026-04-11T15:43:37Z</time></trkpt><trkpt lat="44.20813903943705" lon="11.201196950880368"><ele>499.0</ele><time>2026-04-11T15:43:38Z</time></trkpt><trkpt lat="44.208202264837894" lon="11.201305993752571"><ele>499.0</ele><time>2026-04-11T15:43:39Z</time></trkpt><trkpt lat="44.20824069377058" lon="11.20142790825197"><ele>499.6</ele><time>2026-04-11T15:43:39.999Z</time></trkpt><trkpt lat="44.20830810892034" lon="11.20150391758467"><ele>500.2</ele><time>2026-04-11T15:43:40.999Z</time></trkpt><trkpt lat="44.20838812730963" lon="11.201527969692306"><ele>500.80000000000007</ele><time>2026-04-11T15:43:41.999Z</time></trkpt><trkpt lat="44.20847417075681" lon="11.201443979569694"><ele>501.40000000000003</ele><time>2026-04-11T15:43:42.999Z</time></trkpt><trkpt lat="44.20855806682387" lon="11.2013880667787"><ele>502.0</ele><time>2026-04-11T15:43:43.999Z</time></trkpt><trkpt lat="44.20862881417055" lon="11.201283458984888"><ele>498.25</ele><time>2026-04-11T15:43:44.999Z</time></trkpt><trkpt lat="44.20873480639342" lon="11.201243490434129"><ele>494.5</ele><time>2026-04-11T15:43:45.999Z</time></trkpt><trkpt lat="44.20885616740432" lon="11.201218418199385"><ele>490.75</ele><time>2026-04-11T15:43:46.999Z</time></trkpt><trkpt lat="44.20896017773655" lon="11.201192674945911"><ele>487.0</ele><time>2026-04-11T15:43:47.999Z</time></trkpt><trkpt lat="44.209072245886524" lon="11.201228904757821"><ele>486.5</ele><time>2026-04-11T15:43:48.999Z</time></trkpt><trkpt lat="44.20920036311912" lon="11.201194322737544"><ele>486.0</ele><time>2026-04-11T15:43:49.999Z</time></trkpt><trkpt lat="44.20931606403845" lon="11.201156464996352"><ele>485.5</ele><time>2026-04-11T15:43:50.999Z</time></trkpt><trkpt lat="44.20944432803092" lon="11.201106320784582"><ele>485.0</ele><time>2026-04-11T15:43:51.999Z</time></trkpt><trkpt lat="44.20957062323612" lon="11.201039229986712"><ele>485.0</ele><time>2026-04-11T15:43:52.999Z</time></trkpt><trkpt lat="44.20970022269557" lon="11.200972174508593"><ele>485.0</ele><time>2026-04-11T15:43:53.999Z</time></trkpt><trkpt lat="44.20981810886982" lon="11.20089805638002"><ele>485.0</ele><time>2026-04-11T15:43:54.999Z</time></trkpt><trkpt lat="44.20993147936009" lon="11.200808605649849"><ele>485.0</ele><time>2026-04-11T15:43:55.999Z</time></trkpt><trkpt lat="44.21005904845563" lon="11.200716540716344"><ele>482.0</ele><time>2026-04-11T15:43:56.999Z</time></trkpt><trkpt lat="44.21018772717488" lon="11.200620908463087"><ele>479.0</ele><time>2026-04-11T15:43:57.999Z</time></trkpt><trkpt lat="44.21030977812846" lon="11.200526506586508"><ele>476.0</ele><time>2026-04-11T15:43:58.999Z</time></trkpt><trkpt lat="44.21043233619132" lon="11.200427772785845"><ele>473.0</ele><time>2026-04-11T15:43:59.999Z</time></trkpt><trkpt lat="44.21055345713601" lon="11.200329549156889"><ele>471.75</ele><time>2026-04-11T15:44:00.999Z</time></trkpt><trkpt lat="44.21067225222102" lon="11.20023717523615"><ele>470.5</ele><time>2026-04-11T15:44:01.999Z</time></trkpt><trkpt lat="44.21078595111055" lon="11.200137582136367"><ele>469.25</ele><time>2026-04-11T15:44:02.999Z</time></trkpt><trkpt lat="44.21089389930425" lon="11.200050679231984"><ele>468.0</ele><time>2026-04-11T15:44:03.999Z</time></trkpt><trkpt lat="44.211009581725044" lon="11.199965353412905"><ele>468.0</ele><time>2026-04-11T15:44:04.999Z</time></trkpt><trkpt lat="44.21112445153307" lon="11.199894632119133"><ele>468.0</ele><time>2026-04-11T15:44:05.999Z</time></trkpt><trkpt lat="44.21124264155349" lon="11.199830717914931"><ele>468.0</ele><time>2026-04-11T15:44:06.999Z</time></trkpt><trkpt lat="44.21136249603559" lon="11.199761548820716"><ele>468.0</ele><time>2026-04-11T15:44:07.999Z</time></trkpt><trkpt lat="44.21147983775936" lon="11.19970406688243"><ele>465.0</ele><time>2026-04-11T15:44:08.999Z</time></trkpt><trkpt lat="44.21159543093741" lon="11.199661874511657"><ele>461.99999999999994</ele><time>2026-04-11T15:44:09.999Z</time></trkpt><trkpt lat="44.21170672532198" lon="11.199625238373633"><ele>458.99999999999994</ele><time>2026-04-11T15:44:10.999Z</time></trkpt><trkpt lat="44.211808149932786" lon="11.199618684880821"><ele>456.0</ele><time>2026-04-11T15:44:11.999Z</time></trkpt><trkpt lat="44.21189809531435" lon="11.199599205141899"><ele>453.0</ele><time>2026-04-11T15:44:12.999Z</time></trkpt><trkpt lat="44.21197494509434" lon="11.199557599598059"><ele>453.0</ele><time>2026-04-11T15:44:13.999Z</time></trkpt><trkpt lat="44.212038328260995" lon="11.199382282507127"><ele>453.0</ele><time>2026-04-11T15:44:14.999Z</time></trkpt><trkpt lat="44.21207384018808" lon="11.199069373229792"><ele>453.0</ele><time>2026-04-11T15:44:15.999Z</time></trkpt><trkpt lat="44.21216704507207" lon="11.19877371311801"><ele>453.0</ele><time>2026-04-11T15:44:16.999Z</time></trkpt><trkpt lat="44.2122617963591" lon="11.198514544464802"><ele>453.0</ele><time>2026-04-11T15:44:17.999Z</time></trkpt><trkpt lat="44.21233612027406" lon="11.19836983313302"><ele>453.0</ele><time>2026-04-11T15:44:18.999Z</time></trkpt><trkpt lat="44.212391960196456" lon="11.19825345051847"><ele>453.0</ele><time>2026-04-11T15:44:20.999Z</time></trkpt><trkpt lat="44.21251093235311" lon="11.198134668614381"><ele>449.0</ele><time>2026-04-11T15:44:21.999Z</time></trkpt><trkpt lat="44.212634359969485" lon="11.19800695664881"><ele>445.0</ele><time>2026-04-11T15:44:22.999Z</time></trkpt><trkpt lat="44.21275763210007" lon="11.19790777921586"><ele>441.0</ele><time>2026-04-11T15:44:23.999Z</time></trkpt><trkpt lat="44.212881546365054" lon="11.197826954297081"><ele>437.0</ele><time>2026-04-11T15:44:24.999Z</time></trkpt><trkpt lat="44.2130054083278" lon="11.197756472447477"><ele>437.0</ele><time>2026-04-11T15:44:25.999Z</time></trkpt><trkpt lat="44.21313710635819" lon="11.197715447208894"><ele>437.0</ele><time>2026-04-11T15:44:26.999Z</time></trkpt><trkpt lat="44.21328678037359" lon="11.197703407051558"><ele>437.0</ele><time>2026-04-11T15:44:27.999Z</time></trkpt><trkpt lat="44.2134359964444" lon="11.197681670713582"><ele>437.0</ele><time>2026-04-11T15:44:28.999Z</time></trkpt><trkpt lat="44.21357097732363" lon="11.197643064073883"><ele>436.5</ele><time>2026-04-11T15:44:29.999Z</time></trkpt><trkpt lat="44.21366518796404" lon="11.197578666335783"><ele>436.0</ele><time>2026-04-11T15:44:30.999Z</time></trkpt><trkpt lat="44.21375749480147" lon="11.1974929933216"><ele>435.5</ele><time>2026-04-11T15:44:31.999Z</time></trkpt><trkpt lat="44.21383915205712" lon="11.197366324345648"><ele>435.0</ele><time>2026-04-11T15:44:32.999Z</time></trkpt><trkpt lat="44.21389931640373" lon="11.197208364934"><ele>435.0</ele><time>2026-04-11T15:44:33.999Z</time></trkpt><trkpt lat="44.213944548076775" lon="11.197025182765882"><ele>435.0</ele><time>2026-04-11T15:44:34.999Z</time></trkpt><trkpt lat="44.213985673166285" lon="11.19685254528749"><ele>435.0</ele><time>2026-04-11T15:44:35.999Z</time></trkpt><trkpt lat="44.21403530482454" lon="11.19666811668095"><ele>435.0</ele><time>2026-04-11T15:44:36.999Z</time></trkpt><trkpt lat="44.21409694625595" lon="11.196519596922919"><ele>434.5</ele><time>2026-04-11T15:44:37.999Z</time></trkpt><trkpt lat="44.21418145036715" lon="11.196392605562785"><ele>434.0</ele><time>2026-04-11T15:44:38.999Z</time></trkpt><trkpt lat="44.21426956038318" lon="11.196262631825507"><ele>433.5</ele><time>2026-04-11T15:44:39.999Z</time></trkpt><trkpt lat="44.214360894524546" lon="11.196145665554626"><ele>433.0</ele><time>2026-04-11T15:44:40.999Z</time></trkpt><trkpt lat="44.214466528758756" lon="11.196050563657462"><ele>433.0</ele><time>2026-04-11T15:44:41.999Z</time></trkpt><trkpt lat="44.21456133088063" lon="11.195951597725221"><ele>433.0</ele><time>2026-04-11T15:44:42.999Z</time></trkpt><trkpt lat="44.21466422251252" lon="11.195868819320458"><ele>433.0</ele><time>2026-04-11T15:44:43.999Z</time></trkpt><trkpt lat="44.21476362815013" lon="11.195780189863854"><ele>433.0</ele><time>2026-04-11T15:44:44.999Z</time></trkpt><trkpt lat="44.21485972943089" lon="11.195691704867087"><ele>433.1666666666667</ele><time>2026-04-11T15:44:45.999Z</time></trkpt><trkpt lat="44.214949103700796" lon="11.195625961067272"><ele>433.33333333333337</ele><time>2026-04-11T15:44:46.998Z</time></trkpt><trkpt lat="44.21502599343173" lon="11.19558261115408"><ele>433.5</ele><time>2026-04-11T15:44:47.998Z</time></trkpt><trkpt lat="44.21509146998204" lon="11.19558383657861"><ele>433.66666666666663</ele><time>2026-04-11T15:44:48.998Z</time></trkpt><trkpt lat="44.215158256212966" lon="11.195635221605377"><ele>433.8333333333333</ele><time>2026-04-11T15:44:49.998Z</time></trkpt><trkpt lat="44.21522154454986" lon="11.195726247230308"><ele>434.0</ele><time>2026-04-11T15:44:50.998Z</time></trkpt><trkpt lat="44.21527614347571" lon="11.195826691752192"><ele>433.99999999999994</ele><time>2026-04-11T15:44:51.998Z</time></trkpt><trkpt lat="44.2153275077182" lon="11.195889053332662"><ele>434.0</ele><time>2026-04-11T15:44:52.998Z</time></trkpt><trkpt lat="44.21540468609307" lon="11.195928987908584"><ele>434.0</ele><time>2026-04-11T15:44:54.998Z</time></trkpt><trkpt lat="44.21546947785418" lon="11.195925949324893"><ele>434.0</ele><time>2026-04-11T15:44:56.998Z</time></trkpt><trkpt lat="44.21556970448778" lon="11.195886695025012"><ele>433.99999999999994</ele><time>2026-04-11T15:44:58.998Z</time></trkpt><trkpt lat="44.21564471475324" lon="11.195865218787644"><ele>434.0</ele><time>2026-04-11T15:44:59.998Z</time></trkpt><trkpt lat="44.21573470840367" lon="11.195849844300906"><ele>433.0</ele><time>2026-04-11T15:45:00.998Z</time></trkpt><trkpt lat="44.21583117947062" lon="11.195828240084516"><ele>432.0</ele><time>2026-04-11T15:45:01.998Z</time></trkpt><trkpt lat="44.21594766707928" lon="11.195804896576405"><ele>431.0</ele><time>2026-04-11T15:45:03Z</time></trkpt><trkpt lat="44.21608027224943" lon="11.195765158452538"><ele>430.0</ele><time>2026-04-11T15:45:04Z</time></trkpt><trkpt lat="44.21622346402087" lon="11.19575787737945"><ele>430.0</ele><time>2026-04-11T15:45:05Z</time></trkpt><trkpt lat="44.216374050948446" lon="11.195696096593176"><ele>430.0</ele><time>2026-04-11T15:45:06Z</time></trkpt><trkpt lat="44.21653926237733" lon="11.195645046867984"><ele>430.0</ele><time>2026-04-11T15:45:07Z</time></trkpt><trkpt lat="44.21669552524901" lon="11.195610001215307"><ele>428.0</ele><time>2026-04-11T15:45:08Z</time></trkpt><trkpt lat="44.21685205893292" lon="11.19560888462714"><ele>426.0</ele><time>2026-04-11T15:45:09Z</time></trkpt><trkpt lat="44.21699049032927" lon="11.195630280225151"><ele>424.0</ele><time>2026-04-11T15:45:10Z</time></trkpt><trkpt lat="44.21711218480417" lon="11.195663474516602"><ele>422.0</ele><time>2026-04-11T15:45:11Z</time></trkpt><trkpt lat="44.21723499516502" lon="11.195702815857846"><ele>426.75</ele><time>2026-04-11T15:45:12Z</time></trkpt><trkpt lat="44.217333965796236" lon="11.195778348695775"><ele>431.5</ele><time>2026-04-11T15:45:13Z</time></trkpt><trkpt lat="44.21743855278548" lon="11.195882641385332"><ele>436.25</ele><time>2026-04-11T15:45:14Z</time></trkpt><trkpt lat="44.217553852359224" lon="11.19600080720337"><ele>441.0</ele><time>2026-04-11T15:45:15Z</time></trkpt><trkpt lat="44.21767181918415" lon="11.196152947591072"><ele>441.0</ele><time>2026-04-11T15:45:16Z</time></trkpt><trkpt lat="44.217803346536535" lon="11.196286515843349"><ele>441.0</ele><time>2026-04-11T15:45:17Z</time></trkpt><trkpt lat="44.21793630388835" lon="11.19641894099554"><ele>441.0</ele><time>2026-04-11T15:45:18Z</time></trkpt><trkpt lat="44.21808354256869" lon="11.19652050527375"><ele>443.25</ele><time>2026-04-11T15:45:19Z</time></trkpt><trkpt lat="44.21822829648258" lon="11.196600193233703"><ele>445.5</ele><time>2026-04-11T15:45:20Z</time></trkpt><trkpt lat="44.21835213134916" lon="11.196655435366752"><ele>447.75</ele><time>2026-04-11T15:45:21Z</time></trkpt><trkpt lat="44.21848250632703" lon="11.196668784826048"><ele>450.0</ele><time>2026-04-11T15:45:22Z</time></trkpt><trkpt lat="44.21860793571041" lon="11.196630398743912"><ele>450.0</ele><time>2026-04-11T15:45:23Z</time></trkpt><trkpt lat="44.21873507150676" lon="11.196524868430409"><ele>450.0</ele><time>2026-04-11T15:45:24Z</time></trkpt><trkpt lat="44.21884507871443" lon="11.196390240549976"><ele>450.0</ele><time>2026-04-11T15:45:25Z</time></trkpt><trkpt lat="44.21895668539221" lon="11.19628325117284"><ele>450.0</ele><time>2026-04-11T15:45:26Z</time></trkpt><trkpt lat="44.219051880239306" lon="11.19622960513393"><ele>448.5</ele><time>2026-04-11T15:45:27Z</time></trkpt><trkpt lat="44.21916364926066" lon="11.196191967058677"><ele>447.0</ele><time>2026-04-11T15:45:28Z</time></trkpt><trkpt lat="44.219291634081316" lon="11.19619794509102"><ele>445.5</ele><time>2026-04-11T15:45:29Z</time></trkpt><trkpt lat="44.21942204184229" lon="11.196236574298048"><ele>444.0</ele><time>2026-04-11T15:45:30Z</time></trkpt><trkpt lat="44.2195572427541" lon="11.196293771423177"><ele>444.0</ele><time>2026-04-11T15:45:31Z</time></trkpt><trkpt lat="44.2197104624822" lon="11.196309302925233"><ele>444.0</ele><time>2026-04-11T15:45:32Z</time></trkpt><trkpt lat="44.21986769504322" lon="11.196267584841438"><ele>444.0</ele><time>2026-04-11T15:45:33Z</time></trkpt><trkpt lat="44.22003510379352" lon="11.196193186970966"><ele>449.33333333333337</ele><time>2026-04-11T15:45:34Z</time></trkpt><trkpt lat="44.220187436722036" lon="11.196122063755938"><ele>454.6666666666667</ele><time>2026-04-11T15:45:35Z</time></trkpt><trkpt lat="44.22032301922151" lon="11.196058262836354"><ele>460.0</ele><time>2026-04-11T15:45:36Z</time></trkpt><trkpt lat="44.220464172801854" lon="11.19597158937527"><ele>460.0</ele><time>2026-04-11T15:45:37Z</time></trkpt><trkpt lat="44.22058661745389" lon="11.195851928722098"><ele>460.0</ele><time>2026-04-11T15:45:38Z</time></trkpt><trkpt lat="44.22069175458113" lon="11.195678599020464"><ele>460.0</ele><time>2026-04-11T15:45:39Z</time></trkpt><trkpt lat="44.22078715271201" lon="11.195496486455168"><ele>461.0</ele><time>2026-04-11T15:45:40Z</time></trkpt><trkpt lat="44.220850364903505" lon="11.195333747004025"><ele>462.0</ele><time>2026-04-11T15:45:41Z</time></trkpt><trkpt lat="44.22091938271165" lon="11.195215381716256"><ele>463.0</ele><time>2026-04-11T15:45:42Z</time></trkpt><trkpt lat="44.22100688602113" lon="11.195131667459217"><ele>464.0</ele><time>2026-04-11T15:45:43Z</time></trkpt><trkpt lat="44.22111684191243" lon="11.19510957319058"><ele>464.0</ele><time>2026-04-11T15:45:44Z</time></trkpt><trkpt lat="44.22123188866592" lon="11.195130305455558"><ele>464.0</ele><time>2026-04-11T15:45:45Z</time></trkpt><trkpt lat="44.22134767989389" lon="11.195208242793997"><ele>464.0</ele><time>2026-04-11T15:45:45.999Z</time></trkpt><trkpt lat="44.22144621882723" lon="11.195327683051755"><ele>464.0</ele><time>2026-04-11T15:45:46.999Z</time></trkpt><trkpt lat="44.22153225123011" lon="11.195487564048365"><ele>469.75</ele><time>2026-04-11T15:45:47.999Z</time></trkpt><trkpt lat="44.221607348308105" lon="11.195680061956084"><ele>475.5</ele><time>2026-04-11T15:45:48.999Z</time></trkpt><trkpt lat="44.22166374057178" lon="11.195868048404785"><ele>481.25</ele><time>2026-04-11T15:45:49.999Z</time></trkpt><trkpt lat="44.22170854044976" lon="11.196027411883938"><ele>487.0</ele><time>2026-04-11T15:45:50.999Z</time></trkpt><trkpt lat="44.22177284138085" lon="11.196146683745884"><ele>487.0</ele><time>2026-04-11T15:45:51.999Z</time></trkpt><trkpt lat="44.22182889152792" lon="11.196264912429726"><ele>487.00000000000006</ele><time>2026-04-11T15:45:52.999Z</time></trkpt><trkpt lat="44.221931369888964" lon="11.19625692968436"><ele>487.00000000000006</ele><time>2026-04-11T15:45:53.999Z</time></trkpt><trkpt lat="44.222006786201305" lon="11.196200669135795"><ele>487.0</ele><time>2026-04-11T15:45:54.999Z</time></trkpt><trkpt lat="44.22206228365921" lon="11.196079323628124"><ele>487.0</ele><time>2026-04-11T15:45:55.999Z</time></trkpt><trkpt lat="44.222089075978744" lon="11.19593978366962"><ele>487.0</ele><time>2026-04-11T15:45:56.999Z</time></trkpt><trkpt lat="44.22210274459211" lon="11.19580124637615"><ele>487.00000000000006</ele><time>2026-04-11T15:45:57.999Z</time></trkpt><trkpt lat="44.22213952410653" lon="11.195672684009077"><ele>487.00000000000006</ele><time>2026-04-11T15:45:58.999Z</time></trkpt><trkpt lat="44.22222274558318" lon="11.195577108726992"><ele>487.0</ele><time>2026-04-11T15:45:59.999Z</time></trkpt><trkpt lat="44.222333907141284" lon="11.19552717443034"><ele>487.0</ele><time>2026-04-11T15:46:00.999Z</time></trkpt><trkpt lat="44.222465355586614" lon="11.195509102431792"><ele>486.0</ele><time>2026-04-11T15:46:01.999Z</time></trkpt><trkpt lat="44.22260263449398" lon="11.195495363773711"><ele>485.0</ele><time>2026-04-11T15:46:02.999Z</time></trkpt><trkpt lat="44.222743095074755" lon="11.195509895232405"><ele>484.0</ele><time>2026-04-11T15:46:03.999Z</time></trkpt><trkpt lat="44.22290042187849" lon="11.195552473687519"><ele>483.0</ele><time>2026-04-11T15:46:04.999Z</time></trkpt><trkpt lat="44.223062280169074" lon="11.19559784791002"><ele>486.66666666666663</ele><time>2026-04-11T15:46:05.999Z</time></trkpt><trkpt lat="44.22321942681746" lon="11.195598124456327"><ele>490.3333333333333</ele><time>2026-04-11T15:46:06.999Z</time></trkpt><trkpt lat="44.22337127521602" lon="11.195536121527839"><ele>494.0</ele><time>2026-04-11T15:46:07.999Z</time></trkpt><trkpt lat="44.22352505370197" lon="11.19541106188864"><ele>494.0</ele><time>2026-04-11T15:46:08.999Z</time></trkpt><trkpt lat="44.22367701226408" lon="11.195250807011275"><ele>494.0</ele><time>2026-04-11T15:46:09.999Z</time></trkpt><trkpt lat="44.22384689660126" lon="11.195092331040561"><ele>494.0</ele><time>2026-04-11T15:46:10.999Z</time></trkpt><trkpt lat="44.224009466777986" lon="11.19495094921247"><ele>496.0</ele><time>2026-04-11T15:46:11.999Z</time></trkpt><trkpt lat="44.22416035984153" lon="11.194821350014417"><ele>498.0</ele><time>2026-04-11T15:46:12.999Z</time></trkpt><trkpt lat="44.22430898378031" lon="11.194687350016114"><ele>500.0</ele><time>2026-04-11T15:46:13.999Z</time></trkpt><trkpt lat="44.22443743365745" lon="11.194570121664356"><ele>500.0</ele><time>2026-04-11T15:46:14.999Z</time></trkpt><trkpt lat="44.224555354688356" lon="11.194461854971893"><ele>500.0</ele><time>2026-04-11T15:46:15.999Z</time></trkpt><trkpt lat="44.22465883731192" lon="11.194325676088049"><ele>500.0</ele><time>2026-04-11T15:46:16.999Z</time></trkpt><trkpt lat="44.22473427114901" lon="11.194126061020542"><ele>500.0</ele><time>2026-04-11T15:46:17.999Z</time></trkpt><trkpt lat="44.22479152819978" lon="11.193919740075028"><ele>500.8</ele><time>2026-04-11T15:46:18.999Z</time></trkpt><trkpt lat="44.224838081595344" lon="11.19375506185496"><ele>501.6</ele><time>2026-04-11T15:46:19.999Z</time></trkpt><trkpt lat="44.22489624368731" lon="11.193632582447131"><ele>502.4</ele><time>2026-04-11T15:46:20.999Z</time></trkpt><trkpt lat="44.22497777769242" lon="11.19353702140142"><ele>503.2</ele><time>2026-04-11T15:46:21.999Z</time></trkpt><trkpt lat="44.22507763044691" lon="11.193513111048539"><ele>504.0</ele><time>2026-04-11T15:46:22.999Z</time></trkpt><trkpt lat="44.22518342231178" lon="11.193553493660644"><ele>504.0</ele><time>2026-04-11T15:46:23.999Z</time></trkpt><trkpt lat="44.22528999047155" lon="11.19365854433767"><ele>504.0</ele><time>2026-04-11T15:46:24.999Z</time></trkpt><trkpt lat="44.2254073071787" lon="11.19376535319074"><ele>504.0</ele><time>2026-04-11T15:46:25.999Z</time></trkpt><trkpt lat="44.22552117200888" lon="11.19388361222187"><ele>504.0</ele><time>2026-04-11T15:46:26.999Z</time></trkpt><trkpt lat="44.22567063473656" lon="11.193951471024631"><ele>504.0</ele><time>2026-04-11T15:46:27.999Z</time></trkpt><trkpt lat="44.225841339277814" lon="11.193963833475028"><ele>504.0</ele><time>2026-04-11T15:46:28.999Z</time></trkpt><trkpt lat="44.2260336033875" lon="11.19395261486563"><ele>504.0</ele><time>2026-04-11T15:46:29.999Z</time></trkpt><trkpt lat="44.22619687203034" lon="11.193950322509826"><ele>504.0</ele><time>2026-04-11T15:46:30.999Z</time></trkpt><trkpt lat="44.2263413813571" lon="11.19395132319349"><ele>504.0</ele><time>2026-04-11T15:46:31.999Z</time></trkpt><trkpt lat="44.22647596702056" lon="11.193990109476875"><ele>504.0</ele><time>2026-04-11T15:46:32.999Z</time></trkpt><trkpt lat="44.226612473156855" lon="11.19406564134141"><ele>504.0</ele><time>2026-04-11T15:46:33.999Z</time></trkpt><trkpt lat="44.22674600060297" lon="11.19418775154069"><ele>513.6666666666666</ele><time>2026-04-11T15:46:34.999Z</time></trkpt><trkpt lat="44.226887235661216" lon="11.194348590896155"><ele>523.3333333333333</ele><time>2026-04-11T15:46:35.999Z</time></trkpt><trkpt lat="44.2270308810857" lon="11.1944804148033"><ele>533.0</ele><time>2026-04-11T15:46:36.999Z</time></trkpt><trkpt lat="44.22719198619284" lon="11.194570047462774"><ele>532.6666666666666</ele><time>2026-04-11T15:46:37.999Z</time></trkpt><trkpt lat="44.22737404911781" lon="11.19459058538208"><ele>532.3333333333334</ele><time>2026-04-11T15:46:38.999Z</time></trkpt><trkpt lat="44.227551689924105" lon="11.194581918769078"><ele>532.0</ele><time>2026-04-11T15:46:39.999Z</time></trkpt><trkpt lat="44.22771500178535" lon="11.194572292723175"><ele>532.0</ele><time>2026-04-11T15:46:40.999Z</time></trkpt><trkpt lat="44.22787357551273" lon="11.194524262561094"><ele>532.0</ele><time>2026-04-11T15:46:41.999Z</time></trkpt><trkpt lat="44.228026906915176" lon="11.194424336940315"><ele>532.0</ele><time>2026-04-11T15:46:42.999Z</time></trkpt><trkpt lat="44.22815096051372" lon="11.19430899325533"><ele>534.0</ele><time>2026-04-11T15:46:43.999Z</time></trkpt><trkpt lat="44.228264027416806" lon="11.194228306870299"><ele>536.0</ele><time>2026-04-11T15:46:44.999Z</time></trkpt><trkpt lat="44.228354871054655" lon="11.194174622189083"><ele>538.0</ele><time>2026-04-11T15:46:45.999Z</time></trkpt><trkpt lat="44.228430163528884" lon="11.194170672062718"><ele>540.0</ele><time>2026-04-11T15:46:46.999Z</time></trkpt><trkpt lat="44.22849840584325" lon="11.194230658577865"><ele>542.0</ele><time>2026-04-11T15:46:47.999Z</time></trkpt><trkpt lat="44.2285526030535" lon="11.19435880525886"><ele>542.0</ele><time>2026-04-11T15:46:48.999Z</time></trkpt><trkpt lat="44.228572683951754" lon="11.194517528393668"><ele>542.0</ele><time>2026-04-11T15:46:49.999Z</time></trkpt><trkpt lat="44.22860976739427" lon="11.194665587650558"><ele>542.0</ele><time>2026-04-11T15:46:50.999Z</time></trkpt><trkpt lat="44.22863191782515" lon="11.194833553800404"><ele>542.0</ele><time>2026-04-11T15:46:51.999Z</time></trkpt><trkpt lat="44.228708526048266" lon="11.19496820580947"><ele>541.6666666666666</ele><time>2026-04-11T15:46:52.999Z</time></trkpt><trkpt lat="44.22881793941397" lon="11.195136811521051"><ele>541.3333333333334</ele><time>2026-04-11T15:46:53.998Z</time></trkpt><trkpt lat="44.22893834569306" lon="11.195294453354535"><ele>541.0</ele><time>2026-04-11T15:46:54.998Z</time></trkpt><trkpt lat="44.229059650451696" lon="11.195475671513574"><ele>541.0</ele><time>2026-04-11T15:46:55.998Z</time></trkpt><trkpt lat="44.229182403751885" lon="11.1956699967847"><ele>541.0</ele><time>2026-04-11T15:46:56.998Z</time></trkpt><trkpt lat="44.22925881237903" lon="11.195862575368388"><ele>541.0</ele><time>2026-04-11T15:46:57.998Z</time></trkpt><trkpt lat="44.22931878573836" lon="11.196035485904977"><ele>547.0</ele><time>2026-04-11T15:46:58.998Z</time></trkpt><trkpt lat="44.22938629150997" lon="11.196192292859138"><ele>553.0</ele><time>2026-04-11T15:46:59.998Z</time></trkpt><trkpt lat="44.22950572028701" lon="11.19631233727493"><ele>559.0</ele><time>2026-04-11T15:47:00.998Z</time></trkpt><trkpt lat="44.22964808778762" lon="11.196407674661241"><ele>565.0</ele><time>2026-04-11T15:47:01.998Z</time></trkpt><trkpt lat="44.229775387181334" lon="11.196490341756094"><ele>563.5</ele><time>2026-04-11T15:47:02.998Z</time></trkpt><trkpt lat="44.22987376830814" lon="11.196587933380737"><ele>562.0</ele><time>2026-04-11T15:47:03.998Z</time></trkpt><trkpt lat="44.229951547196734" lon="11.196697231183927"><ele>560.5</ele><time>2026-04-11T15:47:04.998Z</time></trkpt><trkpt lat="44.22995193643152" lon="11.19685705576319"><ele>559.0</ele><time>2026-04-11T15:47:05.998Z</time></trkpt><trkpt lat="44.22995758042989" lon="11.197023790085364"><ele>559.0</ele><time>2026-04-11T15:47:06.998Z</time></trkpt><trkpt lat="44.229959852318025" lon="11.197215580335074"><ele>559.0</ele><time>2026-04-11T15:47:07.998Z</time></trkpt><trkpt lat="44.229959423279944" lon="11.197430451880184"><ele>559.0</ele><time>2026-04-11T15:47:09Z</time></trkpt><trkpt lat="44.22995980411574" lon="11.19762169613388"><ele>559.0</ele><time>2026-04-11T15:47:10Z</time></trkpt><trkpt lat="44.2299773709712" lon="11.197814387358223"><ele>561.5</ele><time>2026-04-11T15:47:11Z</time></trkpt><trkpt lat="44.23000045364643" lon="11.19802181972573"><ele>564.0</ele><time>2026-04-11T15:47:12Z</time></trkpt><trkpt lat="44.2300470009263" lon="11.198214294862453"><ele>566.5</ele><time>2026-04-11T15:47:13Z</time></trkpt><trkpt lat="44.230101561534276" lon="11.198366856954841"><ele>569.0</ele><time>2026-04-11T15:47:14Z</time></trkpt><trkpt lat="44.23016522739217" lon="11.198492434755394"><ele>570.3333333333333</ele><time>2026-04-11T15:47:15Z</time></trkpt><trkpt lat="44.23022308269071" lon="11.198600148870456"><ele>571.6666666666666</ele><time>2026-04-11T15:47:16Z</time></trkpt><trkpt lat="44.23028892405624" lon="11.198681811967813"><ele>573.0</ele><time>2026-04-11T15:47:17Z</time></trkpt><trkpt lat="44.23035233616149" lon="11.198753054698853"><ele>574.3333333333334</ele><time>2026-04-11T15:47:18Z</time></trkpt><trkpt lat="44.230410536995414" lon="11.198811781434767"><ele>575.6666666666667</ele><time>2026-04-11T15:47:19Z</time></trkpt><trkpt lat="44.230465125403754" lon="11.198866223488944"><ele>577.0</ele><time>2026-04-11T15:47:20Z</time></trkpt><trkpt lat="44.23051995540241" lon="11.198926282208902"><ele>577.0</ele><time>2026-04-11T15:47:21Z</time></trkpt><trkpt lat="44.23056883922483" lon="11.198988908988698"><ele>577.0</ele><time>2026-04-11T15:47:22Z</time></trkpt><trkpt lat="44.230624752841415" lon="11.199060897590112"><ele>577.0</ele><time>2026-04-11T15:47:23Z</time></trkpt><trkpt lat="44.230688772255455" lon="11.19913661492901"><ele>577.0</ele><time>2026-04-11T15:47:24Z</time></trkpt><trkpt lat="44.23077612750172" lon="11.199212176771567"><ele>577.0</ele><time>2026-04-11T15:47:25Z</time></trkpt><trkpt lat="44.23086221496372" lon="11.199295808954679"><ele>577.0</ele><time>2026-04-11T15:47:26Z</time></trkpt><trkpt lat="44.230940289247535" lon="11.1994131635899"><ele>575.5</ele><time>2026-04-11T15:47:27Z</time></trkpt><trkpt lat="44.231020795441836" lon="11.199496017925307"><ele>574.0</ele><time>2026-04-11T15:47:28Z</time></trkpt><trkpt lat="44.23107932566534" lon="11.19961753897744"><ele>572.5</ele><time>2026-04-11T15:47:29Z</time></trkpt><trkpt lat="44.2311620488518" lon="11.199755356751412"><ele>571.0</ele><time>2026-04-11T15:47:30Z</time></trkpt><trkpt lat="44.23124680606137" lon="11.19988628098949"><ele>570.6666666666667</ele><time>2026-04-11T15:47:31Z</time></trkpt><trkpt lat="44.23133614864989" lon="11.200048069657678"><ele>570.3333333333334</ele><time>2026-04-11T15:47:32Z</time></trkpt><trkpt lat="44.23143159611613" lon="11.200223241186539"><ele>570.0</ele><time>2026-04-11T15:47:33Z</time></trkpt><trkpt lat="44.2315168419414" lon="11.200432101037393"><ele>570.0</ele><time>2026-04-11T15:47:34Z</time></trkpt><trkpt lat="44.23162084005936" lon="11.20063440179615"><ele>570.0</ele><time>2026-04-11T15:47:35Z</time></trkpt><trkpt lat="44.23170925328108" lon="11.2008623022117"><ele>570.0</ele><time>2026-04-11T15:47:36Z</time></trkpt><trkpt lat="44.231789556642326" lon="11.20108974523688"><ele>575.3333333333334</ele><time>2026-04-11T15:47:37Z</time></trkpt><trkpt lat="44.23185942773065" lon="11.20132008487026"><ele>580.6666666666667</ele><time>2026-04-11T15:47:38Z</time></trkpt><trkpt lat="44.23192806975521" lon="11.201514777245423"><ele>586.0</ele><time>2026-04-11T15:47:39Z</time></trkpt><trkpt lat="44.23199356123683" lon="11.201706485755924"><ele>589.5</ele><time>2026-04-11T15:47:40Z</time></trkpt><trkpt lat="44.23205962130759" lon="11.201890386910604"><ele>593.0</ele><time>2026-04-11T15:47:41Z</time></trkpt><trkpt lat="44.232122481165824" lon="11.202043507685612"><ele>596.5</ele><time>2026-04-11T15:47:42Z</time></trkpt><trkpt lat="44.23221505502812" lon="11.202146098462704"><ele>600.0</ele><time>2026-04-11T15:47:43Z</time></trkpt><trkpt lat="44.23229810969018" lon="11.20219264723464"><ele>596.25</ele><time>2026-04-11T15:47:44Z</time></trkpt><trkpt lat="44.23239841874139" lon="11.202193015948192"><ele>592.5</ele><time>2026-04-11T15:47:45Z</time></trkpt><trkpt lat="44.232514552135136" lon="11.202166663837733"><ele>588.75</ele><time>2026-04-11T15:47:46Z</time></trkpt><trkpt lat="44.232635393036475" lon="11.202179768742516"><ele>585.0</ele><time>2026-04-11T15:47:47Z</time></trkpt><trkpt lat="44.232773307722496" lon="11.202203135631905"><ele>585.0</ele><time>2026-04-11T15:47:48Z</time></trkpt><trkpt lat="44.23290904730468" lon="11.202239105748706"><ele>585.0</ele><time>2026-04-11T15:47:49Z</time></trkpt><trkpt lat="44.2330427345705" lon="11.202276570019842"><ele>585.0</ele><time>2026-04-11T15:47:50Z</time></trkpt><trkpt lat="44.23319752332046" lon="11.202333470385327"><ele>585.0</ele><time>2026-04-11T15:47:51Z</time></trkpt><trkpt lat="44.233366060652294" lon="11.2023707518445"><ele>592.0</ele><time>2026-04-11T15:47:51.999Z</time></trkpt><trkpt lat="44.23355420458273" lon="11.202425421737487"><ele>599.0</ele><time>2026-04-11T15:47:52.999Z</time></trkpt><trkpt lat="44.23374383143728" lon="11.202451779608996"><ele>606.0</ele><time>2026-04-11T15:47:53.999Z</time></trkpt><trkpt lat="44.23394451179691" lon="11.202468090397689"><ele>606.0</ele><time>2026-04-11T15:47:54.999Z</time></trkpt><trkpt lat="44.23414234647704" lon="11.202450046515901"><ele>606.0</ele><time>2026-04-11T15:47:55.999Z</time></trkpt><trkpt lat="44.23434884965884" lon="11.202421183873524"><ele>606.0</ele><time>2026-04-11T15:47:56.999Z</time></trkpt><trkpt lat="44.23455976809674" lon="11.202397038040964"><ele>606.0</ele><time>2026-04-11T15:47:57.999Z</time></trkpt><trkpt lat="44.23474608709493" lon="11.202379407619189"><ele>606.0</ele><time>2026-04-11T15:47:58.999Z</time></trkpt><trkpt lat="44.23491343854497" lon="11.202361408933488"><ele>606.0</ele><time>2026-04-11T15:47:59.999Z</time></trkpt><trkpt lat="44.23506327262293" lon="11.202350625270102"><ele>607.5</ele><time>2026-04-11T15:48:00.999Z</time></trkpt><trkpt lat="44.235188820427005" lon="11.202379199402063"><ele>609.0</ele><time>2026-04-11T15:48:01.999Z</time></trkpt><trkpt lat="44.23529302446421" lon="11.202398942065884"><ele>610.5</ele><time>2026-04-11T15:48:02.999Z</time></trkpt><trkpt lat="44.23535891007997" lon="11.202522845429197"><ele>612.0</ele><time>2026-04-11T15:48:03.999Z</time></trkpt><trkpt lat="44.23539872082587" lon="11.202683778206923"><ele>612.0</ele><time>2026-04-11T15:48:04.999Z</time></trkpt><trkpt lat="44.23546447117794" lon="11.202850163294155"><ele>612.0</ele><time>2026-04-11T15:48:05.999Z</time></trkpt><trkpt lat="44.23553387208765" lon="11.202999031465783"><ele>612.0</ele><time>2026-04-11T15:48:06.999Z</time></trkpt><trkpt lat="44.23564764484881" lon="11.203095028111312"><ele>612.0</ele><time>2026-04-11T15:48:07.999Z</time></trkpt><trkpt lat="44.235796747092856" lon="11.203149956308486"><ele>617.0</ele><time>2026-04-11T15:48:08.999Z</time></trkpt><trkpt lat="44.23595749340771" lon="11.203184723820291"><ele>622.0</ele><time>2026-04-11T15:48:09.999Z</time></trkpt><trkpt lat="44.23612472107736" lon="11.203213128163046"><ele>627.0</ele><time>2026-04-11T15:48:10.999Z</time></trkpt><trkpt lat="44.236271016613756" lon="11.203248130560482"><ele>627.0</ele><time>2026-04-11T15:48:11.999Z</time></trkpt><trkpt lat="44.23640872162514" lon="11.2032803362026"><ele>627.0</ele><time>2026-04-11T15:48:12.999Z</time></trkpt><trkpt lat="44.23657188491191" lon="11.203285808810787"><ele>627.0</ele><time>2026-04-11T15:48:13.999Z</time></trkpt><trkpt lat="44.23675594817131" lon="11.20325908938138"><ele>628.3333333333334</ele><time>2026-04-11T15:48:14.999Z</time></trkpt><trkpt lat="44.236944548231726" lon="11.203226731500912"><ele>629.6666666666667</ele><time>2026-04-11T15:48:15.999Z</time></trkpt><trkpt lat="44.23713056189053" lon="11.203193523221971"><ele>631.0</ele><time>2026-04-11T15:48:16.999Z</time></trkpt><trkpt lat="44.23730190440604" lon="11.20316462223371"><ele>628.3333333333334</ele><time>2026-04-11T15:48:17.999Z</time></trkpt><trkpt lat="44.237467439008235" lon="11.20312524981528"><ele>625.6666666666666</ele><time>2026-04-11T15:48:18.999Z</time></trkpt><trkpt lat="44.23763426501231" lon="11.203039665509152"><ele>623.0</ele><time>2026-04-11T15:48:19.999Z</time></trkpt><trkpt lat="44.237787235789604" lon="11.202923453236483"><ele>623.0</ele><time>2026-04-11T15:48:20.999Z</time></trkpt><trkpt lat="44.237929152795196" lon="11.20281031210167"><ele>623.0</ele><time>2026-04-11T15:48:21.999Z</time></trkpt><trkpt lat="44.23805909277404" lon="11.202741352948928"><ele>623.0</ele><time>2026-04-11T15:48:22.999Z</time></trkpt><trkpt lat="44.23816881266235" lon="11.202696360609886"><ele>623.0</ele><time>2026-04-11T15:48:23.999Z</time></trkpt><trkpt lat="44.238271531029596" lon="11.202685765564508"><ele>624.3333333333333</ele><time>2026-04-11T15:48:24.999Z</time></trkpt><trkpt lat="44.23834171180351" lon="11.202735553477845"><ele>625.6666666666666</ele><time>2026-04-11T15:48:25.999Z</time></trkpt><trkpt lat="44.2383903303458" lon="11.202808127442768"><ele>627.0</ele><time>2026-04-11T15:48:26.999Z</time></trkpt><trkpt lat="44.23841217303479" lon="11.202917655378274"><ele>628.3333333333334</ele><time>2026-04-11T15:48:27.999Z</time></trkpt><trkpt lat="44.2383806616995" lon="11.203054078191293"><ele>629.6666666666667</ele><time>2026-04-11T15:48:28.999Z</time></trkpt><trkpt lat="44.238390225400984" lon="11.203200511449095"><ele>631.0</ele><time>2026-04-11T15:48:29.999Z</time></trkpt><trkpt lat="44.2383963900691" lon="11.203354573053097"><ele>632.5</ele><time>2026-04-11T15:48:30.999Z</time></trkpt><trkpt lat="44.23843772503981" lon="11.203521691561283"><ele>634.0</ele><time>2026-04-11T15:48:31.999Z</time></trkpt><trkpt lat="44.23849403128928" lon="11.203702201184806"><ele>635.5</ele><time>2026-04-11T15:48:32.999Z</time></trkpt><trkpt lat="44.23853650316208" lon="11.20391826882348"><ele>637.0</ele><time>2026-04-11T15:48:33.999Z</time></trkpt><trkpt lat="44.23859551429794" lon="11.20414105915651"><ele>640.0</ele><time>2026-04-11T15:48:34.999Z</time></trkpt><trkpt lat="44.238651307609196" lon="11.204348238552042"><ele>643.0</ele><time>2026-04-11T15:48:35.999Z</time></trkpt><trkpt lat="44.23872400087235" lon="11.204516033875318"><ele>646.0</ele><time>2026-04-11T15:48:36.999Z</time></trkpt><trkpt lat="44.2387910927639" lon="11.204697665872569"><ele>649.0</ele><time>2026-04-11T15:48:37.999Z</time></trkpt><trkpt lat="44.23886248354787" lon="11.20486736036425"><ele>653.0</ele><time>2026-04-11T15:48:38.999Z</time></trkpt><trkpt lat="44.238919067816994" lon="11.20502511176276"><ele>657.0</ele><time>2026-04-11T15:48:39.999Z</time></trkpt><trkpt lat="44.23894698386566" lon="11.20520076022821"><ele>661.0</ele><time>2026-04-11T15:48:40.999Z</time></trkpt><trkpt lat="44.2389466477503" lon="11.20540184278083"><ele>665.0</ele><time>2026-04-11T15:48:41.999Z</time></trkpt><trkpt lat="44.23895190607976" lon="11.205603569002749"><ele>661.75</ele><time>2026-04-11T15:48:42.999Z</time></trkpt><trkpt lat="44.23897574707604" lon="11.205794618188042"><ele>658.5</ele><time>2026-04-11T15:48:43.999Z</time></trkpt><trkpt lat="44.23902788894124" lon="11.205947941603444"><ele>655.25</ele><time>2026-04-11T15:48:44.999Z</time></trkpt><trkpt lat="44.23911828899838" lon="11.20605326774544"><ele>652.0</ele><time>2026-04-11T15:48:45.999Z</time></trkpt><trkpt lat="44.239241979440784" lon="11.206126846437671"><ele>652.0</ele><time>2026-04-11T15:48:46.999Z</time></trkpt><trkpt lat="44.23938700360171" lon="11.206158151650653"><ele>652.0</ele><time>2026-04-11T15:48:47.999Z</time></trkpt><trkpt lat="44.239541807252124" lon="11.206152168219475"><ele>652.0</ele><time>2026-04-11T15:48:48.999Z</time></trkpt><trkpt lat="44.23968473976387" lon="11.206174169550568"><ele>652.0</ele><time>2026-04-11T15:48:49.999Z</time></trkpt><trkpt lat="44.23983357430343" lon="11.206247557066384"><ele>648.0</ele><time>2026-04-11T15:48:50.999Z</time></trkpt><trkpt lat="44.239987168901536" lon="11.206332180833094"><ele>644.0</ele><time>2026-04-11T15:48:51.999Z</time></trkpt><trkpt lat="44.240130444756595" lon="11.206426322454409"><ele>640.0</ele><time>2026-04-11T15:48:52.999Z</time></trkpt><trkpt lat="44.240248239865664" lon="11.206510392978178"><ele>643.75</ele><time>2026-04-11T15:48:53.999Z</time></trkpt><trkpt lat="44.24034826035484" lon="11.206594633931045"><ele>647.5</ele><time>2026-04-11T15:48:54.999Z</time></trkpt><trkpt lat="44.24045139898991" lon="11.206677361767467"><ele>651.25</ele><time>2026-04-11T15:48:55.999Z</time></trkpt><trkpt lat="44.24057416743187" lon="11.206771861232918"><ele>655.0</ele><time>2026-04-11T15:48:56.999Z</time></trkpt><trkpt lat="44.24068588254753" lon="11.206863528020738"><ele>655.0</ele><time>2026-04-11T15:48:57.999Z</time></trkpt><trkpt lat="44.24078567900337" lon="11.20695606765931"><ele>655.0</ele><time>2026-04-11T15:48:58.999Z</time></trkpt><trkpt lat="44.24085311812639" lon="11.207043441899673"><ele>655.0</ele><time>2026-04-11T15:48:59.999Z</time></trkpt><trkpt lat="44.24089239828315" lon="11.20712527668808"><ele>655.0</ele><time>2026-04-11T15:49:00.999Z</time></trkpt><trkpt lat="44.24093157328842" lon="11.207223992223275"><ele>655.0</ele><time>2026-04-11T15:49:01.998Z</time></trkpt><trkpt lat="44.24097052406902" lon="11.207364181366794"><ele>655.8</ele><time>2026-04-11T15:49:02.998Z</time></trkpt><trkpt lat="44.24102259299661" lon="11.207494096639781"><ele>656.6</ele><time>2026-04-11T15:49:03.998Z</time></trkpt><trkpt lat="44.241076262835044" lon="11.207610720726608"><ele>657.4000000000001</ele><time>2026-04-11T15:49:04.998Z</time></trkpt><trkpt lat="44.24112755388953" lon="11.20772242692747"><ele>658.2</ele><time>2026-04-11T15:49:05.998Z</time></trkpt><trkpt lat="44.24117691233431" lon="11.207823053378435"><ele>659.0</ele><time>2026-04-11T15:49:06.998Z</time></trkpt><trkpt lat="44.24122130327464" lon="11.207931225777564"><ele>659.0</ele><time>2026-04-11T15:49:07.998Z</time></trkpt><trkpt lat="44.241261711569315" lon="11.208034885171102"><ele>659.0</ele><time>2026-04-11T15:49:08.998Z</time></trkpt><trkpt lat="44.241298203089016" lon="11.208138542483608"><ele>659.0</ele><time>2026-04-11T15:49:09.998Z</time></trkpt><trkpt lat="44.2413256882604" lon="11.208240785185943"><ele>659.0</ele><time>2026-04-11T15:49:10.998Z</time></trkpt><trkpt lat="44.24132909073784" lon="11.20837055750255"><ele>659.0</ele><time>2026-04-11T15:49:12.998Z</time></trkpt><trkpt lat="44.241370142628014" lon="11.208278274399696"><ele>659.0</ele><time>2026-04-11T15:49:18Z</time></trkpt><trkpt lat="44.24134343726835" lon="11.208140660102965"><ele>659.0</ele><time>2026-04-11T15:49:20Z</time></trkpt><trkpt lat="44.24131521882925" lon="11.208043654037185"><ele>659.0</ele><time>2026-04-11T15:49:21Z</time></trkpt><trkpt lat="44.24126778635291" lon="11.207943864186522"><ele>659.0</ele><time>2026-04-11T15:49:22Z</time></trkpt><trkpt lat="44.24121393191306" lon="11.207833984864777"><ele>659.0</ele><time>2026-04-11T15:49:23Z</time></trkpt><trkpt lat="44.241160041781264" lon="11.207703205870747"><ele>659.0</ele><time>2026-04-11T15:49:24Z</time></trkpt><trkpt lat="44.24109477404774" lon="11.20755982309767"><ele>659.0</ele><time>2026-04-11T15:49:25Z</time></trkpt><trkpt lat="44.241022346383225" lon="11.207421616689423"><ele>659.0</ele><time>2026-04-11T15:49:26Z</time></trkpt><trkpt lat="44.2409758417258" lon="11.207304181510532"><ele>659.0</ele><time>2026-04-11T15:49:27Z</time></trkpt><trkpt lat="44.24093745517109" lon="11.207193856346386"><ele>659.0</ele><time>2026-04-11T15:49:28Z</time></trkpt><trkpt lat="44.24097015715102" lon="11.207051643447075"><ele>659.0</ele><time>2026-04-11T15:49:30Z</time></trkpt><trkpt lat="44.24103492203807" lon="11.207022277477739"><ele>658.2</ele><time>2026-04-11T15:49:31Z</time></trkpt><trkpt lat="44.24111799692117" lon="11.207010106853941"><ele>657.4000000000001</ele><time>2026-04-11T15:49:32Z</time></trkpt><trkpt lat="44.241210487697074" lon="11.207024002932494"><ele>656.6</ele><time>2026-04-11T15:49:33Z</time></trkpt><trkpt lat="44.24132105811002" lon="11.207037685936106"><ele>655.8</ele><time>2026-04-11T15:49:34Z</time></trkpt><trkpt lat="44.241445514823916" lon="11.207060274208315"><ele>655.0</ele><time>2026-04-11T15:49:35Z</time></trkpt><trkpt lat="44.24157906727785" lon="11.207086444960366"><ele>652.75</ele><time>2026-04-11T15:49:36Z</time></trkpt><trkpt lat="44.241720290294595" lon="11.207130610831952"><ele>650.5</ele><time>2026-04-11T15:49:37Z</time></trkpt><trkpt lat="44.24186196778912" lon="11.207176059476945"><ele>648.25</ele><time>2026-04-11T15:49:38Z</time></trkpt><trkpt lat="44.2419917844914" lon="11.207224672737881"><ele>646.0</ele><time>2026-04-11T15:49:39Z</time></trkpt><trkpt lat="44.24210984902554" lon="11.207265232537914"><ele>646.0</ele><time>2026-04-11T15:49:40Z</time></trkpt><trkpt lat="44.24224417482139" lon="11.20732095958436"><ele>646.0</ele><time>2026-04-11T15:49:41Z</time></trkpt><trkpt lat="44.24235302395476" lon="11.207381416612593"><ele>646.0</ele><time>2026-04-11T15:49:42Z</time></trkpt><trkpt lat="44.24246597486747" lon="11.207478726155816"><ele>646.0</ele><time>2026-04-11T15:49:43Z</time></trkpt><trkpt lat="44.24257086269734" lon="11.20760114514917"><ele>647.5</ele><time>2026-04-11T15:49:44Z</time></trkpt><trkpt lat="44.24265806450726" lon="11.20771189883858"><ele>649.0</ele><time>2026-04-11T15:49:45Z</time></trkpt><trkpt lat="44.24276754475105" lon="11.20779030620903"><ele>650.5</ele><time>2026-04-11T15:49:46Z</time></trkpt><trkpt lat="44.24287084030785" lon="11.207796438122005"><ele>652.0</ele><time>2026-04-11T15:49:47Z</time></trkpt><trkpt lat="44.24299697169423" lon="11.207833486101373"><ele>652.0</ele><time>2026-04-11T15:49:48Z</time></trkpt><trkpt lat="44.24313030627175" lon="11.207825966883913"><ele>652.0</ele><time>2026-04-11T15:49:49Z</time></trkpt><trkpt lat="44.24326568038343" lon="11.207836196863264"><ele>652.0</ele><time>2026-04-11T15:49:50Z</time></trkpt><trkpt lat="44.24340076563296" lon="11.20785679173475"><ele>652.0</ele><time>2026-04-11T15:49:51Z</time></trkpt><trkpt lat="44.24354136551109" lon="11.207871916027877"><ele>649.25</ele><time>2026-04-11T15:49:52Z</time></trkpt><trkpt lat="44.243680384937015" lon="11.20787816470766"><ele>646.5</ele><time>2026-04-11T15:49:53Z</time></trkpt><trkpt lat="44.24382282409696" lon="11.20790513082874"><ele>643.75</ele><time>2026-04-11T15:49:54Z</time></trkpt><trkpt lat="44.24396471130201" lon="11.207920142778281"><ele>641.0</ele><time>2026-04-11T15:49:55Z</time></trkpt><trkpt lat="44.2440990525535" lon="11.20793777261937"><ele>637.5</ele><time>2026-04-11T15:49:56Z</time></trkpt><trkpt lat="44.24421576479002" lon="11.207957509976906"><ele>634.0</ele><time>2026-04-11T15:49:57Z</time></trkpt><trkpt lat="44.244322476080576" lon="11.207978147220581"><ele>630.5</ele><time>2026-04-11T15:49:58Z</time></trkpt><trkpt lat="44.244445841588096" lon="11.207951792301802"><ele>627.0</ele><time>2026-04-11T15:49:59Z</time></trkpt><trkpt lat="44.24459079425969" lon="11.207899700571375"><ele>627.0</ele><time>2026-04-11T15:50:00Z</time></trkpt><trkpt lat="44.244751748987035" lon="11.207833899510076"><ele>627.0</ele><time>2026-04-11T15:50:01Z</time></trkpt><trkpt lat="44.24491494960006" lon="11.207766594810252"><ele>627.0</ele><time>2026-04-11T15:50:01.999Z</time></trkpt><trkpt lat="44.24505889862188" lon="11.207699194834179"><ele>623.6666666666666</ele><time>2026-04-11T15:50:02.999Z</time></trkpt><trkpt lat="44.24520679299254" lon="11.207633903634665"><ele>620.3333333333333</ele><time>2026-04-11T15:50:03.999Z</time></trkpt><trkpt lat="44.24535470402765" lon="11.207567917107394"><ele>617.0</ele><time>2026-04-11T15:50:04.999Z</time></trkpt><trkpt lat="44.24548829251137" lon="11.207496488185743"><ele>617.0</ele><time>2026-04-11T15:50:05.999Z</time></trkpt><trkpt lat="44.245618936586816" lon="11.207412220700292"><ele>617.0</ele><time>2026-04-11T15:50:06.999Z</time></trkpt><trkpt lat="44.24572885675336" lon="11.207325759448745"><ele>617.0</ele><time>2026-04-11T15:50:07.999Z</time></trkpt><trkpt lat="44.24584319959802" lon="11.207236293814356"><ele>617.0</ele><time>2026-04-11T15:50:08.999Z</time></trkpt><trkpt lat="44.245956130372015" lon="11.207161103037087"><ele>614.0</ele><time>2026-04-11T15:50:09.999Z</time></trkpt><trkpt lat="44.246074231736515" lon="11.207076957580425"><ele>611.0</ele><time>2026-04-11T15:50:10.999Z</time></trkpt><trkpt lat="44.24619419128636" lon="11.206979351153546"><ele>608.0</ele><time>2026-04-11T15:50:11.999Z</time></trkpt><trkpt lat="44.24630464623525" lon="11.206874817395253"><ele>605.0</ele><time>2026-04-11T15:50:12.999Z</time></trkpt><trkpt lat="44.2464110247782" lon="11.206780200429561"><ele>603.75</ele><time>2026-04-11T15:50:13.999Z</time></trkpt><trkpt lat="44.24651346931366" lon="11.206685871392475"><ele>602.5</ele><time>2026-04-11T15:50:14.999Z</time></trkpt><trkpt lat="44.246611906236375" lon="11.206600758396903"><ele>601.25</ele><time>2026-04-11T15:50:15.999Z</time></trkpt><trkpt lat="44.246705338453516" lon="11.206521468982531"><ele>600.0</ele><time>2026-04-11T15:50:16.999Z</time></trkpt><trkpt lat="44.24681779200169" lon="11.206450274445942"><ele>597.5</ele><time>2026-04-11T15:50:17.999Z</time></trkpt><trkpt lat="44.24694369679701" lon="11.206413042138381"><ele>595.0</ele><time>2026-04-11T15:50:18.999Z</time></trkpt><trkpt lat="44.24706646904047" lon="11.206392739486025"><ele>592.5</ele><time>2026-04-11T15:50:19.999Z</time></trkpt><trkpt lat="44.24717373428647" lon="11.20638344924356"><ele>590.0</ele><time>2026-04-11T15:50:20.999Z</time></trkpt><trkpt lat="44.247265289279134" lon="11.2063853743456"><ele>588.0</ele><time>2026-04-11T15:50:21.999Z</time></trkpt><trkpt lat="44.24734674699848" lon="11.206407329140738"><ele>586.0</ele><time>2026-04-11T15:50:22.999Z</time></trkpt><trkpt lat="44.247420683003796" lon="11.206431818016059"><ele>584.0</ele><time>2026-04-11T15:50:23.999Z</time></trkpt><trkpt lat="44.24749000285107" lon="11.206444787394796"><ele>582.0</ele><time>2026-04-11T15:50:24.999Z</time></trkpt><trkpt lat="44.2475577958309" lon="11.206422570176693"><ele>580.0</ele><time>2026-04-11T15:50:25.999Z</time></trkpt><trkpt lat="44.247618420506676" lon="11.206361445211469"><ele>578.0</ele><time>2026-04-11T15:50:26.999Z</time></trkpt><trkpt lat="44.24766741094177" lon="11.206277384985707"><ele>578.0</ele><time>2026-04-11T15:50:27.999Z</time></trkpt><trkpt lat="44.24773999661444" lon="11.206193561203301"><ele>578.0</ele><time>2026-04-11T15:50:28.999Z</time></trkpt><trkpt lat="44.247820931868404" lon="11.206098196516322"><ele>578.0</ele><time>2026-04-11T15:50:29.999Z</time></trkpt><trkpt lat="44.24790852360039" lon="11.205997570447233"><ele>578.0</ele><time>2026-04-11T15:50:30.999Z</time></trkpt><trkpt lat="44.24803058845611" lon="11.205971549997628"><ele>578.0</ele><time>2026-04-11T15:50:31.999Z</time></trkpt><trkpt lat="44.24815140451943" lon="11.205946306390482"><ele>574.5</ele><time>2026-04-11T15:50:32.999Z</time></trkpt><trkpt lat="44.248279860035815" lon="11.205920332159064"><ele>571.0</ele><time>2026-04-11T15:50:33.999Z</time></trkpt><trkpt lat="44.24840299728889" lon="11.205871224822022"><ele>567.5</ele><time>2026-04-11T15:50:34.999Z</time></trkpt><trkpt lat="44.24853426473318" lon="11.205826116064689"><ele>564.0</ele><time>2026-04-11T15:50:35.999Z</time></trkpt><trkpt lat="44.2486542167782" lon="11.205747287723531"><ele>560.5</ele><time>2026-04-11T15:50:36.999Z</time></trkpt><trkpt lat="44.2487706074194" lon="11.205651080985684"><ele>557.0</ele><time>2026-04-11T15:50:37.999Z</time></trkpt><trkpt lat="44.24889175710268" lon="11.205596602960401"><ele>553.5</ele><time>2026-04-11T15:50:38.999Z</time></trkpt><trkpt lat="44.24901665938458" lon="11.205556559123897"><ele>550.0</ele><time>2026-04-11T15:50:39.999Z</time></trkpt><trkpt lat="44.24911424020069" lon="11.205502987996168"><ele>549.0</ele><time>2026-04-11T15:50:40.999Z</time></trkpt><trkpt lat="44.249184277672434" lon="11.205503944480942"><ele>548.0</ele><time>2026-04-11T15:50:41.999Z</time></trkpt><trkpt lat="44.249240990305466" lon="11.205548495336327"><ele>547.0</ele><time>2026-04-11T15:50:42.999Z</time></trkpt><trkpt lat="44.24936785906711" lon="11.205599232603879"><ele>546.0</ele><time>2026-04-11T15:50:44.999Z</time></trkpt><trkpt lat="44.24947048240381" lon="11.205561832194242"><ele>545.0</ele><time>2026-04-11T15:50:45.999Z</time></trkpt><trkpt lat="44.24959029626806" lon="11.205498142903362"><ele>545.0</ele><time>2026-04-11T15:50:46.999Z</time></trkpt><trkpt lat="44.24972267252184" lon="11.205415517623845"><ele>545.0</ele><time>2026-04-11T15:50:47.999Z</time></trkpt><trkpt lat="44.24984561463034" lon="11.20532716336182"><ele>545.0</ele><time>2026-04-11T15:50:48.999Z</time></trkpt><trkpt lat="44.24996867916791" lon="11.205234168329175"><ele>545.0</ele><time>2026-04-11T15:50:49.999Z</time></trkpt><trkpt lat="44.250076796906754" lon="11.205162743856626"><ele>542.75</ele><time>2026-04-11T15:50:50.999Z</time></trkpt><trkpt lat="44.25017904207114" lon="11.205090343958396"><ele>540.5</ele><time>2026-04-11T15:50:51.999Z</time></trkpt><trkpt lat="44.25028596490842" lon="11.20502466072052"><ele>538.25</ele><time>2026-04-11T15:50:52.999Z</time></trkpt><trkpt lat="44.25040286456676" lon="11.204987953621032"><ele>536.0</ele><time>2026-04-11T15:50:53.999Z</time></trkpt><trkpt lat="44.25052723390531" lon="11.2049849026029"><ele>535.0</ele><time>2026-04-11T15:50:54.999Z</time></trkpt><trkpt lat="44.2506576323493" lon="11.205018042827364"><ele>534.0</ele><time>2026-04-11T15:50:55.999Z</time></trkpt><trkpt lat="44.25078662599" lon="11.205041555320365"><ele>533.0</ele><time>2026-04-11T15:50:56.999Z</time></trkpt><trkpt lat="44.25092384909428" lon="11.205056156732606"><ele>532.0</ele><time>2026-04-11T15:50:57.999Z</time></trkpt><trkpt lat="44.25105467626307" lon="11.205059145274626"><ele>532.0</ele><time>2026-04-11T15:50:58.999Z</time></trkpt><trkpt lat="44.251177984421474" lon="11.205055245868618"><ele>532.0</ele><time>2026-04-11T15:50:59.999Z</time></trkpt><trkpt lat="44.25130167130497" lon="11.205065322619747"><ele>532.0</ele><time>2026-04-11T15:51:00.999Z</time></trkpt><trkpt lat="44.25143608373893" lon="11.205093334623264"><ele>532.0</ele><time>2026-04-11T15:51:01.999Z</time></trkpt><trkpt lat="44.25155624044878" lon="11.205130247666165"><ele>530.0</ele><time>2026-04-11T15:51:02.999Z</time></trkpt><trkpt lat="44.25166968125911" lon="11.205172339902068"><ele>528.0</ele><time>2026-04-11T15:51:03.999Z</time></trkpt><trkpt lat="44.25179045548775" lon="11.205206809256802"><ele>526.0</ele><time>2026-04-11T15:51:04.999Z</time></trkpt><trkpt lat="44.25193867106193" lon="11.205213842857844"><ele>524.0</ele><time>2026-04-11T15:51:05.999Z</time></trkpt><trkpt lat="44.25211412236436" lon="11.20518429536164"><ele>521.0</ele><time>2026-04-11T15:51:06.999Z</time></trkpt><trkpt lat="44.25230198817259" lon="11.205128137433217"><ele>518.0</ele><time>2026-04-11T15:51:07.999Z</time></trkpt><trkpt lat="44.25249998098799" lon="11.205035142082163"><ele>515.0</ele><time>2026-04-11T15:51:08.999Z</time></trkpt><trkpt lat="44.25267187380913" lon="11.204943728417867"><ele>515.0</ele><time>2026-04-11T15:51:09.999Z</time></trkpt><trkpt lat="44.25282463880359" lon="11.204888093936956"><ele>515.0</ele><time>2026-04-11T15:51:10.999Z</time></trkpt><trkpt lat="44.25296954390228" lon="11.204904000218132"><ele>515.0</ele><time>2026-04-11T15:51:11.999Z</time></trkpt><trkpt lat="44.253117352272575" lon="11.204908221162784"><ele>515.25</ele><time>2026-04-11T15:51:12.999Z</time></trkpt><trkpt lat="44.25324226349907" lon="11.204914977481144"><ele>515.5</ele><time>2026-04-11T15:51:13.998Z</time></trkpt><trkpt lat="44.253366875503374" lon="11.204944880033793"><ele>515.75</ele><time>2026-04-11T15:51:14.998Z</time></trkpt><trkpt lat="44.25350886256982" lon="11.205003684015786"><ele>516.0</ele><time>2026-04-11T15:51:15.998Z</time></trkpt><trkpt lat="44.2536724140845" lon="11.205081472752946"><ele>516.0</ele><time>2026-04-11T15:51:16.998Z</time></trkpt><trkpt lat="44.25383444758535" lon="11.205135495908086"><ele>516.0</ele><time>2026-04-11T15:51:17.998Z</time></trkpt><trkpt lat="44.25398762607467" lon="11.205182370946126"><ele>516.0</ele><time>2026-04-11T15:51:18.998Z</time></trkpt><trkpt lat="44.254155985210396" lon="11.205208326413425"><ele>513.75</ele><time>2026-04-11T15:51:19.998Z</time></trkpt><trkpt lat="44.254310315826174" lon="11.205202086454117"><ele>511.5</ele><time>2026-04-11T15:51:21Z</time></trkpt><trkpt lat="44.254448734166765" lon="11.205204288170933"><ele>509.25</ele><time>2026-04-11T15:51:22Z</time></trkpt><trkpt lat="44.254591551655075" lon="11.205206346284111"><ele>507.0</ele><time>2026-04-11T15:51:23Z</time></trkpt><trkpt lat="44.2547264421433" lon="11.205207776008715"><ele>502.66666666666663</ele><time>2026-04-11T15:51:24Z</time></trkpt><trkpt lat="44.25488247462561" lon="11.205211412593437"><ele>498.3333333333333</ele><time>2026-04-11T15:51:25Z</time></trkpt><trkpt lat="44.25505868237928" lon="11.205206866073452"><ele>494.0</ele><time>2026-04-11T15:51:26Z</time></trkpt><trkpt lat="44.25521263667631" lon="11.205245000597499"><ele>494.0</ele><time>2026-04-11T15:51:27Z</time></trkpt><trkpt lat="44.25534581937818" lon="11.205296880495093"><ele>494.0</ele><time>2026-04-11T15:51:28Z</time></trkpt><trkpt lat="44.255456744986" lon="11.205358380523244"><ele>494.0</ele><time>2026-04-11T15:51:29Z</time></trkpt><trkpt lat="44.255551808023576" lon="11.205394989669731"><ele>494.0</ele><time>2026-04-11T15:51:30Z</time></trkpt><trkpt lat="44.25564325959735" lon="11.205465702812713"><ele>492.0</ele><time>2026-04-11T15:51:31Z</time></trkpt><trkpt lat="44.25574992624049" lon="11.205528912306795"><ele>490.0</ele><time>2026-04-11T15:51:32Z</time></trkpt><trkpt lat="44.255876477581594" lon="11.205560282514758"><ele>488.0</ele><time>2026-04-11T15:51:33Z</time></trkpt><trkpt lat="44.25602002268196" lon="11.205575189866373"><ele>486.0</ele><time>2026-04-11T15:51:34Z</time></trkpt><trkpt lat="44.25616535919006" lon="11.205578748633291"><ele>486.0</ele><time>2026-04-11T15:51:35Z</time></trkpt><trkpt lat="44.2563025384378" lon="11.205586562667646"><ele>486.0</ele><time>2026-04-11T15:51:36Z</time></trkpt><trkpt lat="44.25644585359884" lon="11.205593833408743"><ele>486.0</ele><time>2026-04-11T15:51:37Z</time></trkpt><trkpt lat="44.25656786916883" lon="11.205609044953905"><ele>486.0</ele><time>2026-04-11T15:51:38Z</time></trkpt><trkpt lat="44.25669598810094" lon="11.20562270397535"><ele>483.0</ele><time>2026-04-11T15:51:39Z</time></trkpt><trkpt lat="44.256817890999905" lon="11.205661397896453"><ele>480.0</ele><time>2026-04-11T15:51:40Z</time></trkpt><trkpt lat="44.25695329209966" lon="11.205653076994015"><ele>477.0</ele><time>2026-04-11T15:51:41Z</time></trkpt><trkpt lat="44.25708560557189" lon="11.205644108261453"><ele>474.0</ele><time>2026-04-11T15:51:42Z</time></trkpt><trkpt lat="44.25723461970987" lon="11.20562385482372"><ele>469.0</ele><time>2026-04-11T15:51:43Z</time></trkpt><trkpt lat="44.25738042416113" lon="11.205584572718585"><ele>464.0</ele><time>2026-04-11T15:51:44Z</time></trkpt><trkpt lat="44.25752751627514" lon="11.205529269364892"><ele>459.0</ele><time>2026-04-11T15:51:45Z</time></trkpt><trkpt lat="44.25767965009234" lon="11.20545366682898"><ele>459.0</ele><time>2026-04-11T15:51:46Z</time></trkpt><trkpt lat="44.257821390428504" lon="11.20538105613539"><ele>459.0</ele><time>2026-04-11T15:51:47Z</time></trkpt><trkpt lat="44.25796477475287" lon="11.20531832391984"><ele>459.0</ele><time>2026-04-11T15:51:48Z</time></trkpt><trkpt lat="44.258090258572686" lon="11.205259500758046"><ele>459.0</ele><time>2026-04-11T15:51:49Z</time></trkpt><trkpt lat="44.258209180154864" lon="11.205217432018777"><ele>458.25</ele><time>2026-04-11T15:51:50Z</time></trkpt><trkpt lat="44.258331148427274" lon="11.205213234239523"><ele>457.5</ele><time>2026-04-11T15:51:51Z</time></trkpt><trkpt lat="44.25847218170249" lon="11.205222472291556"><ele>456.75</ele><time>2026-04-11T15:51:52Z</time></trkpt><trkpt lat="44.25858737475025" lon="11.20524521467695"><ele>456.0</ele><time>2026-04-11T15:51:53Z</time></trkpt><trkpt lat="44.25867833604902" lon="11.20528217460274"><ele>456.0</ele><time>2026-04-11T15:51:54Z</time></trkpt><trkpt lat="44.258767500169846" lon="11.205311203475276"><ele>456.0</ele><time>2026-04-11T15:51:55Z</time></trkpt><trkpt lat="44.25882856002453" lon="11.205420849056006"><ele>456.0</ele><time>2026-04-11T15:51:56Z</time></trkpt><trkpt lat="44.25888660910216" lon="11.205528450429341"><ele>456.0</ele><time>2026-04-11T15:51:57Z</time></trkpt><trkpt lat="44.258980088362556" lon="11.205670938112503"><ele>456.0</ele><time>2026-04-11T15:51:58Z</time></trkpt><trkpt lat="44.25908280963074" lon="11.205795598509969"><ele>454.20000000000005</ele><time>2026-04-11T15:51:59Z</time></trkpt><trkpt lat="44.259175216075874" lon="11.2059066889554"><ele>452.40000000000003</ele><time>2026-04-11T15:52:00Z</time></trkpt><trkpt lat="44.2592535053547" lon="11.205989596388182"><ele>450.6</ele><time>2026-04-11T15:52:01Z</time></trkpt><trkpt lat="44.259334246830235" lon="11.206062751612606"><ele>448.8</ele><time>2026-04-11T15:52:02Z</time></trkpt><trkpt lat="44.25942664676186" lon="11.206119196670842"><ele>447.0</ele><time>2026-04-11T15:52:03Z</time></trkpt><trkpt lat="44.25953040303181" lon="11.206157395328082"><ele>447.0</ele><time>2026-04-11T15:52:04Z</time></trkpt><trkpt lat="44.25964611462506" lon="11.206178362194201"><ele>447.0</ele><time>2026-04-11T15:52:05Z</time></trkpt><trkpt lat="44.25977158343566" lon="11.206187981522264"><ele>447.0</ele><time>2026-04-11T15:52:06Z</time></trkpt><trkpt lat="44.25988510151025" lon="11.206204055211236"><ele>447.0</ele><time>2026-04-11T15:52:07Z</time></trkpt><trkpt lat="44.25998879873045" lon="11.20621600942618"><ele>443.25</ele><time>2026-04-11T15:52:08Z</time></trkpt><trkpt lat="44.2600905688405" lon="11.206202897882035"><ele>439.5</ele><time>2026-04-11T15:52:08.999Z</time></trkpt><trkpt lat="44.260192694362644" lon="11.20614596927268"><ele>435.75</ele><time>2026-04-11T15:52:09.999Z</time></trkpt><trkpt lat="44.260300657794126" lon="11.206052672704692"><ele>432.0</ele><time>2026-04-11T15:52:10.999Z</time></trkpt><trkpt lat="44.26040690918067" lon="11.20596397109996"><ele>432.0</ele><time>2026-04-11T15:52:11.999Z</time></trkpt><trkpt lat="44.26051031405989" lon="11.205913166704562"><ele>432.0</ele><time>2026-04-11T15:52:12.999Z</time></trkpt><trkpt lat="44.26060729656472" lon="11.205880324670531"><ele>432.0</ele><time>2026-04-11T15:52:13.999Z</time></trkpt><trkpt lat="44.26072963025178" lon="11.20581216926978"><ele>432.0</ele><time>2026-04-11T15:52:14.999Z</time></trkpt><trkpt lat="44.260848612935945" lon="11.205802492778982"><ele>430.20000000000005</ele><time>2026-04-11T15:52:15.999Z</time></trkpt><trkpt lat="44.26096144554195" lon="11.205801047593072"><ele>428.40000000000003</ele><time>2026-04-11T15:52:16.999Z</time></trkpt><trkpt lat="44.2610711190097" lon="11.205803474133468"><ele>426.6</ele><time>2026-04-11T15:52:17.999Z</time></trkpt><trkpt lat="44.26117338942062" lon="11.20579822037327"><ele>424.79999999999995</ele><time>2026-04-11T15:52:18.999Z</time></trkpt><trkpt lat="44.26127730606682" lon="11.20579180482397"><ele>423.0</ele><time>2026-04-11T15:52:19.999Z</time></trkpt><trkpt lat="44.26139209411225" lon="11.205795882506004"><ele>420.59999999999997</ele><time>2026-04-11T15:52:20.999Z</time></trkpt><trkpt lat="44.261499091570116" lon="11.20577542556506"><ele>418.2</ele><time>2026-04-11T15:52:21.999Z</time></trkpt><trkpt lat="44.26159221155995" lon="11.20572761495321"><ele>415.8</ele><time>2026-04-11T15:52:22.999Z</time></trkpt><trkpt lat="44.26168189624765" lon="11.205647445261569"><ele>413.4</ele><time>2026-04-11T15:52:23.999Z</time></trkpt><trkpt lat="44.26175437706116" lon="11.205546755204768"><ele>411.0</ele><time>2026-04-11T15:52:24.999Z</time></trkpt><trkpt lat="44.2618158259557" lon="11.205465755728554"><ele>410.20000000000005</ele><time>2026-04-11T15:52:25.999Z</time></trkpt><trkpt lat="44.26189015776333" lon="11.20541051757178"><ele>409.40000000000003</ele><time>2026-04-11T15:52:26.999Z</time></trkpt><trkpt lat="44.26200048085634" lon="11.205380859033975"><ele>408.6</ele><time>2026-04-11T15:52:27.999Z</time></trkpt><trkpt lat="44.262117496453136" lon="11.205357456195797"><ele>407.8</ele><time>2026-04-11T15:52:28.999Z</time></trkpt><trkpt lat="44.26223052674335" lon="11.205319849117863"><ele>407.0</ele><time>2026-04-11T15:52:29.999Z</time></trkpt><trkpt lat="44.26234620995099" lon="11.205260737801336"><ele>406.20000000000005</ele><time>2026-04-11T15:52:30.999Z</time></trkpt><trkpt lat="44.26245506113643" lon="11.205199523086222"><ele>405.4</ele><time>2026-04-11T15:52:31.999Z</time></trkpt><trkpt lat="44.262548062629946" lon="11.205129393112998"><ele>404.6</ele><time>2026-04-11T15:52:32.999Z</time></trkpt><trkpt lat="44.26262850198845" lon="11.205062247649744"><ele>403.79999999999995</ele><time>2026-04-11T15:52:33.999Z</time></trkpt><trkpt lat="44.26269960183932" lon="11.205006109268368"><ele>403.0</ele><time>2026-04-11T15:52:34.999Z</time></trkpt><trkpt lat="44.2627780941966" lon="11.204964664482082"><ele>403.0</ele><time>2026-04-11T15:52:35.999Z</time></trkpt><trkpt lat="44.26287995716137" lon="11.204935183537902"><ele>403.0</ele><time>2026-04-11T15:52:37.999Z</time></trkpt><trkpt lat="44.26295885788953" lon="11.204892356385448"><ele>403.0</ele><time>2026-04-11T15:52:39.999Z</time></trkpt><trkpt lat="44.2630478254168" lon="11.204885726239437"><ele>403.0</ele><time>2026-04-11T15:52:41.999Z</time></trkpt><trkpt lat="44.26313839701191" lon="11.20500531239276"><ele>403.0</ele><time>2026-04-11T15:52:43.999Z</time></trkpt><trkpt lat="44.26318706904952" lon="11.205069915030053"><ele>401.0</ele><time>2026-04-11T15:52:44.999Z</time></trkpt><trkpt lat="44.263262633441315" lon="11.205173718729398"><ele>399.0</ele><time>2026-04-11T15:52:46.999Z</time></trkpt><trkpt lat="44.26333972631654" lon="11.205287014216662"><ele>397.0</ele><time>2026-04-11T15:52:48.999Z</time></trkpt><trkpt lat="44.26342043363775" lon="11.205375927381773"><ele>395.0</ele><time>2026-04-11T15:52:50.999Z</time></trkpt><trkpt lat="44.26348450078137" lon="11.20539315963171"><ele>393.0</ele><time>2026-04-11T15:52:51.999Z</time></trkpt><trkpt lat="44.26354575845557" lon="11.205421399782907"><ele>393.0</ele><time>2026-04-11T15:52:52.999Z</time></trkpt><trkpt lat="44.26361619259201" lon="11.20540925749103"><ele>393.0</ele><time>2026-04-11T15:52:53.999Z</time></trkpt><trkpt lat="44.26367781113452" lon="11.20538158209534"><ele>393.0</ele><time>2026-04-11T15:52:54.999Z</time></trkpt><trkpt lat="44.26374698158081" lon="11.205336958444057"><ele>393.0</ele><time>2026-04-11T15:52:55.999Z</time></trkpt><trkpt lat="44.26383094432934" lon="11.205280550449865"><ele>393.0</ele><time>2026-04-11T15:52:56.999Z</time></trkpt><trkpt lat="44.263918995121905" lon="11.205217941553698"><ele>393.0</ele><time>2026-04-11T15:52:57.999Z</time></trkpt><trkpt lat="44.26402040523265" lon="11.205129711908995"><ele>390.5</ele><time>2026-04-11T15:52:58.999Z</time></trkpt><trkpt lat="44.26414250977811" lon="11.205071822926538"><ele>388.0</ele><time>2026-04-11T15:52:59.999Z</time></trkpt><trkpt lat="44.264274106918954" lon="11.205038482495434"><ele>385.5</ele><time>2026-04-11T15:53:00.999Z</time></trkpt><trkpt lat="44.264432154351546" lon="11.204980121158165"><ele>383.0</ele><time>2026-04-11T15:53:01.999Z</time></trkpt><trkpt lat="44.264581311300496" lon="11.204944391914433"><ele>383.0</ele><time>2026-04-11T15:53:02.999Z</time></trkpt><trkpt lat="44.26470239174635" lon="11.204942393156012"><ele>383.0</ele><time>2026-04-11T15:53:03.999Z</time></trkpt><trkpt lat="44.26461568523717" lon="11.205011235687719"><ele>383.0</ele><time>2026-04-11T15:53:04.999Z</time></trkpt><trkpt lat="44.26463299038606" lon="11.205173580072813"><ele>383.0</ele><time>2026-04-11T15:53:06.999Z</time></trkpt><trkpt lat="44.26451805636058" lon="11.205267886932132"><ele>383.0</ele><time>2026-04-11T15:53:08.999Z</time></trkpt><trkpt lat="44.264456761621645" lon="11.205322685494444"><ele>383.0</ele><time>2026-04-11T15:53:09.999Z</time></trkpt><trkpt lat="44.26441200102121" lon="11.205396721449755"><ele>383.0</ele><time>2026-04-11T15:53:10.999Z</time></trkpt><trkpt lat="44.26440194242662" lon="11.205496688351953"><ele>383.0</ele><time>2026-04-11T15:53:11.999Z</time></trkpt><trkpt lat="44.26444235652099" lon="11.205607095447283"><ele>383.0</ele><time>2026-04-11T15:53:12.999Z</time></trkpt><trkpt lat="44.26451574411539" lon="11.205666000240852"><ele>383.0</ele><time>2026-04-11T15:53:13.999Z</time></trkpt><trkpt lat="44.26460937923979" lon="11.205665542876815"><ele>383.0</ele><time>2026-04-11T15:53:14.999Z</time></trkpt><trkpt lat="44.2647071954046" lon="11.205631644683905"><ele>383.0</ele><time>2026-04-11T15:53:15.999Z</time></trkpt><trkpt lat="44.26481752274336" lon="11.20556491009877"><ele>383.0</ele><time>2026-04-11T15:53:16.999Z</time></trkpt><trkpt lat="44.26493169041155" lon="11.205473144605074"><ele>383.0</ele><time>2026-04-11T15:53:17.999Z</time></trkpt><trkpt lat="44.26503216656989" lon="11.205387607294066"><ele>380.25</ele><time>2026-04-11T15:53:18.998Z</time></trkpt><trkpt lat="44.26512587671844" lon="11.205289660283947"><ele>377.5</ele><time>2026-04-11T15:53:19.998Z</time></trkpt><trkpt lat="44.2652202161331" lon="11.20520310020885"><ele>374.75</ele><time>2026-04-11T15:53:20.998Z</time></trkpt><trkpt lat="44.265319794856026" lon="11.205110182765257"><ele>372.0</ele><time>2026-04-11T15:53:21.998Z</time></trkpt><trkpt lat="44.26543026021296" lon="11.205016764563593"><ele>372.0</ele><time>2026-04-11T15:53:22.998Z</time></trkpt><trkpt lat="44.265550479595085" lon="11.204906866407491"><ele>372.0</ele><time>2026-04-11T15:53:23.998Z</time></trkpt><trkpt lat="44.265667278042855" lon="11.2047992536713"><ele>372.0</ele><time>2026-04-11T15:53:24.998Z</time></trkpt><trkpt lat="44.26578517384323" lon="11.204693705195526"><ele>372.0</ele><time>2026-04-11T15:53:25.998Z</time></trkpt><trkpt lat="44.265905558366555" lon="11.204595117734932"><ele>366.3333333333333</ele><time>2026-04-11T15:53:27Z</time></trkpt><trkpt lat="44.26602549342107" lon="11.204489156236109"><ele>360.66666666666663</ele><time>2026-04-11T15:53:28Z</time></trkpt><trkpt lat="44.266170117979314" lon="11.204386352493009"><ele>355.0</ele><time>2026-04-11T15:53:29Z</time></trkpt><trkpt lat="44.266296253247376" lon="11.204281807263985"><ele>355.0</ele><time>2026-04-11T15:53:30Z</time></trkpt><trkpt lat="44.26641182430186" lon="11.204180726147982"><ele>355.0</ele><time>2026-04-11T15:53:31Z</time></trkpt><trkpt lat="44.26651211468139" lon="11.204113372157645"><ele>355.0</ele><time>2026-04-11T15:53:32Z</time></trkpt><trkpt lat="44.26662966858732" lon="11.20397295851746"><ele>355.0</ele><time>2026-04-11T15:53:33Z</time></trkpt><trkpt lat="44.266723924744404" lon="11.20385829953959"><ele>352.75</ele><time>2026-04-11T15:53:34Z</time></trkpt><trkpt lat="44.26680199622117" lon="11.20371687314715"><ele>350.5</ele><time>2026-04-11T15:53:35Z</time></trkpt><trkpt lat="44.266870715457685" lon="11.203570259280507"><ele>348.25</ele><time>2026-04-11T15:53:36Z</time></trkpt><trkpt lat="44.26694252864697" lon="11.203417032415254"><ele>346.0</ele><time>2026-04-11T15:53:37Z</time></trkpt><trkpt lat="44.26699527062926" lon="11.203250251372124"><ele>343.25</ele><time>2026-04-11T15:53:38Z</time></trkpt><trkpt lat="44.26704828336421" lon="11.20307060352209"><ele>340.5</ele><time>2026-04-11T15:53:39Z</time></trkpt><trkpt lat="44.26710532532485" lon="11.202912019985014"><ele>337.75</ele><time>2026-04-11T15:53:40Z</time></trkpt><trkpt lat="44.26716712020478" lon="11.202779401487126"><ele>335.0</ele><time>2026-04-11T15:53:41Z</time></trkpt><trkpt lat="44.267211871789236" lon="11.202654358771946"><ele>335.0</ele><time>2026-04-11T15:53:42Z</time></trkpt><trkpt lat="44.26721603227194" lon="11.202519033487311"><ele>335.0</ele><time>2026-04-11T15:53:43Z</time></trkpt><trkpt lat="44.26718889276779" lon="11.202351411865935"><ele>335.0</ele><time>2026-04-11T15:53:44Z</time></trkpt><trkpt lat="44.26715964032544" lon="11.20217343934017"><ele>335.0</ele><time>2026-04-11T15:53:45Z</time></trkpt><trkpt lat="44.2671586041506" lon="11.201997310517642"><ele>334.8</ele><time>2026-04-11T15:53:46Z</time></trkpt><trkpt lat="44.267199711896836" lon="11.201851187996656"><ele>334.6</ele><time>2026-04-11T15:53:47Z</time></trkpt><trkpt lat="44.26726217536862" lon="11.20173375246832"><ele>334.4</ele><time>2026-04-11T15:53:48Z</time></trkpt><trkpt lat="44.26736069000121" lon="11.201668380674615"><ele>334.2</ele><time>2026-04-11T15:53:49Z</time></trkpt><trkpt lat="44.26746610637302" lon="11.201629439180358"><ele>334.0</ele><time>2026-04-11T15:53:50Z</time></trkpt><trkpt lat="44.26758182307541" lon="11.201608462457362"><ele>334.0</ele><time>2026-04-11T15:53:51Z</time></trkpt><trkpt lat="44.267663711857956" lon="11.201560678470724"><ele>334.0</ele><time>2026-04-11T15:53:52Z</time></trkpt><trkpt lat="44.26771504505663" lon="11.201508132012371"><ele>334.0</ele><time>2026-04-11T15:53:53Z</time></trkpt><trkpt lat="44.267731484398894" lon="11.201406110486188"><ele>334.0</ele><time>2026-04-11T15:53:54Z</time></trkpt><trkpt lat="44.26773751823363" lon="11.201302991537256"><ele>334.0</ele><time>2026-04-11T15:53:55Z</time></trkpt><trkpt lat="44.26764117918978" lon="11.20118204601498"><ele>334.0</ele><time>2026-04-11T15:53:56Z</time></trkpt><trkpt lat="44.26757070509655" lon="11.201055810363247"><ele>330.2</ele><time>2026-04-11T15:53:57Z</time></trkpt><trkpt lat="44.26750900382205" lon="11.20089887044616"><ele>326.4</ele><time>2026-04-11T15:53:58Z</time></trkpt><trkpt lat="44.26744473577325" lon="11.200758711792716"><ele>322.6</ele><time>2026-04-11T15:53:59Z</time></trkpt><trkpt lat="44.26739331096793" lon="11.20062006444997"><ele>318.8</ele><time>2026-04-11T15:54:00Z</time></trkpt><trkpt lat="44.267344464966506" lon="11.200530435010378"><ele>315.0</ele><time>2026-04-11T15:54:01Z</time></trkpt><trkpt lat="44.26738221339703" lon="11.200351201387406"><ele>312.4</ele><time>2026-04-11T15:54:03Z</time></trkpt><trkpt lat="44.26747812187514" lon="11.200313176166286"><ele>309.8</ele><time>2026-04-11T15:54:04Z</time></trkpt><trkpt lat="44.267562586620585" lon="11.200249113494849"><ele>307.2</ele><time>2026-04-11T15:54:05Z</time></trkpt><trkpt lat="44.267657553222435" lon="11.200174580901793"><ele>304.6</ele><time>2026-04-11T15:54:06Z</time></trkpt><trkpt lat="44.267738223151646" lon="11.200084255163686"><ele>302.0</ele><time>2026-04-11T15:54:07Z</time></trkpt><trkpt lat="44.267829023434935" lon="11.200030153013424"><ele>302.0</ele><time>2026-04-11T15:54:08Z</time></trkpt><trkpt lat="44.26790845794526" lon="11.200026523724022"><ele>302.0</ele><time>2026-04-11T15:54:09Z</time></trkpt><trkpt lat="44.26796710527276" lon="11.200087419306296"><ele>302.0</ele><time>2026-04-11T15:54:10Z</time></trkpt><trkpt lat="44.26802469557037" lon="11.200181004915342"><ele>302.0</ele><time>2026-04-11T15:54:11Z</time></trkpt><trkpt lat="44.26809538981342" lon="11.200253191784984"><ele>302.0</ele><time>2026-04-11T15:54:12Z</time></trkpt><trkpt lat="44.26817507939301" lon="11.200265984576037"><ele>302.0</ele><time>2026-04-11T15:54:13Z</time></trkpt><trkpt lat="44.268259747533705" lon="11.200214170464793"><ele>302.0</ele><time>2026-04-11T15:54:14Z</time></trkpt><trkpt lat="44.268321367590495" lon="11.20010641791612"><ele>302.0</ele><time>2026-04-11T15:54:15Z</time></trkpt><trkpt lat="44.268333178454455" lon="11.199971975478775"><ele>302.0</ele><time>2026-04-11T15:54:16Z</time></trkpt><trkpt lat="44.26831552387951" lon="11.199823599168138"><ele>302.0</ele><time>2026-04-11T15:54:17Z</time></trkpt><trkpt lat="44.26828118045363" lon="11.19968018147801"><ele>302.0</ele><time>2026-04-11T15:54:18Z</time></trkpt><trkpt lat="44.26824989133577" lon="11.19951376671445"><ele>299.6</ele><time>2026-04-11T15:54:18.999Z</time></trkpt><trkpt lat="44.268221047174116" lon="11.19934502626868"><ele>297.2</ele><time>2026-04-11T15:54:19.999Z</time></trkpt><trkpt lat="44.26820320842745" lon="11.199206754975446"><ele>294.8</ele><time>2026-04-11T15:54:20.999Z</time></trkpt><trkpt lat="44.268220543597046" lon="11.199100525556151"><ele>292.4</ele><time>2026-04-11T15:54:21.999Z</time></trkpt><trkpt lat="44.268278111308504" lon="11.199049230801986"><ele>290.0</ele><time>2026-04-11T15:54:22.999Z</time></trkpt><trkpt lat="44.268378943395724" lon="11.198976676557978"><ele>287.0</ele><time>2026-04-11T15:54:23.999Z</time></trkpt><trkpt lat="44.26849805251571" lon="11.198966941171772"><ele>284.0</ele><time>2026-04-11T15:54:24.999Z</time></trkpt><trkpt lat="44.26862222313312" lon="11.198966705321507"><ele>281.0</ele><time>2026-04-11T15:54:25.999Z</time></trkpt><trkpt lat="44.26874222365989" lon="11.198951240030771"><ele>278.0</ele><time>2026-04-11T15:54:26.999Z</time></trkpt><trkpt lat="44.26885374635369" lon="11.19893775596084"><ele>276.75</ele><time>2026-04-11T15:54:27.999Z</time></trkpt><trkpt lat="44.26897369083814" lon="11.19892115514445"><ele>275.5</ele><time>2026-04-11T15:54:28.999Z</time></trkpt><trkpt lat="44.26909182397895" lon="11.198908555868016"><ele>274.25</ele><time>2026-04-11T15:54:29.999Z</time></trkpt><trkpt lat="44.269205779233346" lon="11.198878185346699"><ele>273.0</ele><time>2026-04-11T15:54:30.999Z</time></trkpt><trkpt lat="44.269309115280095" lon="11.198826554868635"><ele>273.0</ele><time>2026-04-11T15:54:31.999Z</time></trkpt><trkpt lat="44.269414073842476" lon="11.19874126703804"><ele>273.0</ele><time>2026-04-11T15:54:32.999Z</time></trkpt><trkpt lat="44.26951160970902" lon="11.198642820345489"><ele>273.0</ele><time>2026-04-11T15:54:33.999Z</time></trkpt><trkpt lat="44.26960982583237" lon="11.198543212493252"><ele>273.0</ele><time>2026-04-11T15:54:34.999Z</time></trkpt><trkpt lat="44.26971417250151" lon="11.198443885460048"><ele>273.0</ele><time>2026-04-11T15:54:35.999Z</time></trkpt><trkpt lat="44.2698238607447" lon="11.198336215581024"><ele>273.0</ele><time>2026-04-11T15:54:36.999Z</time></trkpt><trkpt lat="44.269929407121815" lon="11.19823973195524"><ele>273.0</ele><time>2026-04-11T15:54:37.999Z</time></trkpt><trkpt lat="44.27003058272284" lon="11.198142444941125"><ele>273.0</ele><time>2026-04-11T15:54:38.999Z</time></trkpt><trkpt lat="44.27010676599388" lon="11.198046229265657"><ele>270.6</ele><time>2026-04-11T15:54:39.999Z</time></trkpt><trkpt lat="44.27017146467107" lon="11.197983642188923"><ele>268.20000000000005</ele><time>2026-04-11T15:54:40.999Z</time></trkpt><trkpt lat="44.270245417840975" lon="11.197925214592065"><ele>265.8</ele><time>2026-04-11T15:54:41.999Z</time></trkpt><trkpt lat="44.27032840743254" lon="11.197866340493832"><ele>263.40000000000003</ele><time>2026-04-11T15:54:42.999Z</time></trkpt><trkpt lat="44.27042498416156" lon="11.19781332779072"><ele>261.0</ele><time>2026-04-11T15:54:43.999Z</time></trkpt><trkpt lat="44.270542094707565" lon="11.197778272898748"><ele>260.75</ele><time>2026-04-11T15:54:44.999Z</time></trkpt><trkpt lat="44.27066322446127" lon="11.197775094745696"><ele>260.5</ele><time>2026-04-11T15:54:45.999Z</time></trkpt><trkpt lat="44.27078532970116" lon="11.197767940814026"><ele>260.25</ele><time>2026-04-11T15:54:46.999Z</time></trkpt><trkpt lat="44.27090352145386" lon="11.197738894712405"><ele>260.0</ele><time>2026-04-11T15:54:47.999Z</time></trkpt><trkpt lat="44.271007220391525" lon="11.197688391351988"><ele>260.0</ele><time>2026-04-11T15:54:48.999Z</time></trkpt><trkpt lat="44.27109876920467" lon="11.197608564646627"><ele>260.0</ele><time>2026-04-11T15:54:49.999Z</time></trkpt><trkpt lat="44.271176214668266" lon="11.197516168438906"><ele>260.0</ele><time>2026-04-11T15:54:50.999Z</time></trkpt><trkpt lat="44.271243499807184" lon="11.197407236075158"><ele>260.0</ele><time>2026-04-11T15:54:51.999Z</time></trkpt><trkpt lat="44.27130569371777" lon="11.197314048065827"><ele>260.0</ele><time>2026-04-11T15:54:52.999Z</time></trkpt><trkpt lat="44.27135718888355" lon="11.19725537638676"><ele>258.25</ele><time>2026-04-11T15:54:53.999Z</time></trkpt><trkpt lat="44.27139855558555" lon="11.197185691742519"><ele>256.5</ele><time>2026-04-11T15:54:56.999Z</time></trkpt><trkpt lat="44.27150966918124" lon="11.197070948144512"><ele>254.75</ele><time>2026-04-11T15:54:59.999Z</time></trkpt><trkpt lat="44.2716250315382" lon="11.197205145208367"><ele>253.0</ele><time>2026-04-11T15:55:00.999Z</time></trkpt><trkpt lat="44.271718651245514" lon="11.197238542675617"><ele>251.75</ele><time>2026-04-11T15:55:01.999Z</time></trkpt><trkpt lat="44.27182195902085" lon="11.197287015917956"><ele>250.5</ele><time>2026-04-11T15:55:02.999Z</time></trkpt><trkpt lat="44.27192511656889" lon="11.197367762536421"><ele>249.25</ele><time>2026-04-11T15:55:03.999Z</time></trkpt><trkpt lat="44.27202931474012" lon="11.19746443692759"><ele>248.0</ele><time>2026-04-11T15:55:04.999Z</time></trkpt><trkpt lat="44.27213927596158" lon="11.197559502657715"><ele>248.60000000000002</ele><time>2026-04-11T15:55:05.999Z</time></trkpt><trkpt lat="44.27223412154326" lon="11.19763694348518"><ele>249.20000000000002</ele><time>2026-04-11T15:55:06.999Z</time></trkpt><trkpt lat="44.27232985212169" lon="11.197706221307682"><ele>249.8</ele><time>2026-04-11T15:55:07.999Z</time></trkpt><trkpt lat="44.27242025034083" lon="11.19777690979108"><ele>250.4</ele><time>2026-04-11T15:55:08.999Z</time></trkpt><trkpt lat="44.272514029080284" lon="11.197853294881693"><ele>251.0</ele><time>2026-04-11T15:55:09.999Z</time></trkpt><trkpt lat="44.27261984375165" lon="11.197936017348274"><ele>251.0</ele><time>2026-04-11T15:55:10.999Z</time></trkpt><trkpt lat="44.27273712529474" lon="11.198028662484388"><ele>251.0</ele><time>2026-04-11T15:55:11.999Z</time></trkpt><trkpt lat="44.27284791403117" lon="11.198140345740649"><ele>251.0</ele><time>2026-04-11T15:55:12.999Z</time></trkpt><trkpt lat="44.272945022279835" lon="11.198265090845783"><ele>251.0</ele><time>2026-04-11T15:55:13.999Z</time></trkpt><trkpt lat="44.27306185438319" lon="11.198385293976353"><ele>249.75</ele><time>2026-04-11T15:55:14.999Z</time></trkpt><trkpt lat="44.27319576001826" lon="11.19848203531243"><ele>248.5</ele><time>2026-04-11T15:55:15.999Z</time></trkpt><trkpt lat="44.27331113729337" lon="11.198566327864548"><ele>247.25</ele><time>2026-04-11T15:55:16.999Z</time></trkpt><trkpt lat="44.273406985108004" lon="11.198645645746979"><ele>246.0</ele><time>2026-04-11T15:55:17.999Z</time></trkpt><trkpt lat="44.27347858847084" lon="11.198725535580822"><ele>246.0</ele><time>2026-04-11T15:55:18.999Z</time></trkpt><trkpt lat="44.27357345621614" lon="11.198770875199166"><ele>246.00000000000003</ele><time>2026-04-11T15:55:19.999Z</time></trkpt><trkpt lat="44.27367203474723" lon="11.198808157220052"><ele>246.00000000000003</ele><time>2026-04-11T15:55:20.999Z</time></trkpt><trkpt lat="44.27377087779236" lon="11.198851233325044"><ele>246.0</ele><time>2026-04-11T15:55:21.999Z</time></trkpt><trkpt lat="44.27387644826298" lon="11.19889049665306"><ele>246.0</ele><time>2026-04-11T15:55:22.999Z</time></trkpt><trkpt lat="44.27398585379197" lon="11.19892619024216"><ele>241.25</ele><time>2026-04-11T15:55:23.999Z</time></trkpt><trkpt lat="44.27410028837167" lon="11.198949078817558"><ele>236.5</ele><time>2026-04-11T15:55:24.999Z</time></trkpt><trkpt lat="44.27421566620861" lon="11.198950111591763"><ele>231.75</ele><time>2026-04-11T15:55:25.998Z</time></trkpt><trkpt lat="44.274329887194824" lon="11.198945065791984"><ele>227.0</ele><time>2026-04-11T15:55:26.998Z</time></trkpt><trkpt lat="44.27445002470072" lon="11.198951197481463"><ele>227.0</ele><time>2026-04-11T15:55:27.998Z</time></trkpt><trkpt lat="44.274579246297044" lon="11.198974042666563"><ele>227.0</ele><time>2026-04-11T15:55:28.998Z</time></trkpt><trkpt lat="44.27470556562331" lon="11.199004586884577"><ele>227.0</ele><time>2026-04-11T15:55:29.998Z</time></trkpt><trkpt lat="44.274830650381304" lon="11.199043087962854"><ele>227.0</ele><time>2026-04-11T15:55:30.998Z</time></trkpt><trkpt lat="44.27497036580125" lon="11.19908623636309"><ele>227.66666666666669</ele><time>2026-04-11T15:55:32Z</time></trkpt><trkpt lat="44.275124715277904" lon="11.199134990593494"><ele>228.33333333333331</ele><time>2026-04-11T15:55:33Z</time></trkpt><trkpt lat="44.275297920632035" lon="11.199186346425263"><ele>229.0</ele><time>2026-04-11T15:55:34Z</time></trkpt><trkpt lat="44.27550218017471" lon="11.199243526755826"><ele>227.66666666666666</ele><time>2026-04-11T15:55:35Z</time></trkpt><trkpt lat="44.2757171011486" lon="11.199301554310466"><ele>226.33333333333331</ele><time>2026-04-11T15:55:36Z</time></trkpt><trkpt lat="44.27592050492261" lon="11.199385366706316"><ele>225.0</ele><time>2026-04-11T15:55:37Z</time></trkpt><trkpt lat="44.27608932755523" lon="11.199436962390655"><ele>225.0</ele><time>2026-04-11T15:55:38Z</time></trkpt><trkpt lat="44.276225721274066" lon="11.199460164283783"><ele>225.0</ele><time>2026-04-11T15:55:39Z</time></trkpt><trkpt lat="44.27633339607561" lon="11.199502218891395"><ele>225.0</ele><time>2026-04-11T15:55:40Z</time></trkpt><trkpt lat="44.27643064405638" lon="11.199525609072442"><ele>225.0</ele><time>2026-04-11T15:55:41Z</time></trkpt><trkpt lat="44.276511559156255" lon="11.199551445325035"><ele>225.0</ele><time>2026-04-11T15:55:42Z</time></trkpt><trkpt lat="44.27657989285852" lon="11.199581404612747"><ele>225.6</ele><time>2026-04-11T15:55:43Z</time></trkpt><trkpt lat="44.27667445358145" lon="11.199675519349354"><ele>226.2</ele><time>2026-04-11T15:55:45Z</time></trkpt><trkpt lat="44.27674185689222" lon="11.199741924923337"><ele>226.8</ele><time>2026-04-11T15:55:47Z</time></trkpt><trkpt lat="44.27681522822505" lon="11.199764990929536"><ele>227.4</ele><time>2026-04-11T15:55:49Z</time></trkpt><trkpt lat="44.27694678623798" lon="11.19973144260894"><ele>228.0</ele><time>2026-04-11T16:01:44.998Z</time></trkpt><trkpt lat="44.27691921119289" lon="11.199612660755092"><ele>228.0</ele><time>2026-04-11T16:01:57Z</time></trkpt><trkpt lat="44.27677801311722" lon="11.199565202150506"><ele>228.0</ele><time>2026-04-11T16:01:59Z</time></trkpt><trkpt lat="44.27669485435402" lon="11.19955279077973"><ele>228.0</ele><time>2026-04-11T16:02:00Z</time></trkpt><trkpt lat="44.27659367188136" lon="11.199515247753016"><ele>228.0</ele><time>2026-04-11T16:02:01Z</time></trkpt><trkpt lat="44.276474548973056" lon="11.19947482960829"><ele>227.25</ele><time>2026-04-11T16:02:02Z</time></trkpt><trkpt lat="44.276345608937845" lon="11.199437080074159"><ele>226.5</ele><time>2026-04-11T16:02:03Z</time></trkpt><trkpt lat="44.27621181649407" lon="11.199397932503864"><ele>225.75</ele><time>2026-04-11T16:02:04Z</time></trkpt><trkpt lat="44.27608011848811" lon="11.199363870483507"><ele>225.0</ele><time>2026-04-11T16:02:05Z</time></trkpt><trkpt lat="44.275950690314716" lon="11.199330977793409"><ele>225.0</ele><time>2026-04-11T16:02:06Z</time></trkpt><trkpt lat="44.27581812971474" lon="11.199291180960346"><ele>225.0</ele><time>2026-04-11T16:02:07Z</time></trkpt><trkpt lat="44.2756809495857" lon="11.199247705347048"><ele>225.0</ele><time>2026-04-11T16:02:08Z</time></trkpt><trkpt lat="44.27554777171003" lon="11.19921296894081"><ele>225.0</ele><time>2026-04-11T16:02:09Z</time></trkpt><trkpt lat="44.275404758116146" lon="11.199167535020493"><ele>226.33333333333331</ele><time>2026-04-11T16:02:10Z</time></trkpt><trkpt lat="44.2752600913652" lon="11.199118604656325"><ele>227.66666666666666</ele><time>2026-04-11T16:02:11Z</time></trkpt><trkpt lat="44.275106862139644" lon="11.199076844177405"><ele>229.0</ele><time>2026-04-11T16:02:12Z</time></trkpt><trkpt lat="44.27496391035482" lon="11.199038096128687"><ele>228.33333333333331</ele><time>2026-04-11T16:02:13Z</time></trkpt><trkpt lat="44.27480228596154" lon="11.198984456526798"><ele>227.66666666666669</ele><time>2026-04-11T16:02:14Z</time></trkpt><trkpt lat="44.274638326214266" lon="11.198941157477092"><ele>227.0</ele><time>2026-04-11T16:02:15Z</time></trkpt><trkpt lat="44.27446422301433" lon="11.198910338490247"><ele>227.0</ele><time>2026-04-11T16:02:16Z</time></trkpt><trkpt lat="44.274308433450884" lon="11.19889643015283"><ele>227.0</ele><time>2026-04-11T16:02:17Z</time></trkpt><trkpt lat="44.27415004757333" lon="11.198895478487618"><ele>227.0</ele><time>2026-04-11T16:02:18Z</time></trkpt><trkpt lat="44.27398485652288" lon="11.198886520914307"><ele>233.33333333333334</ele><time>2026-04-11T16:02:19Z</time></trkpt><trkpt lat="44.27381629287234" lon="11.19882926395034"><ele>239.66666666666669</ele><time>2026-04-11T16:02:20Z</time></trkpt><trkpt lat="44.2736552298148" lon="11.198734952168165"><ele>246.0</ele><time>2026-04-11T16:02:21Z</time></trkpt><trkpt lat="44.2735063036652" lon="11.198682903482554"><ele>246.0</ele><time>2026-04-11T16:02:22Z</time></trkpt><trkpt lat="44.27336266194567" lon="11.198581980906168"><ele>246.0</ele><time>2026-04-11T16:02:23Z</time></trkpt><trkpt lat="44.27321714111135" lon="11.198459651061118"><ele>246.0</ele><time>2026-04-11T16:02:24Z</time></trkpt><trkpt lat="44.273091810970215" lon="11.198353767168996"><ele>247.25</ele><time>2026-04-11T16:02:25Z</time></trkpt><trkpt lat="44.27298052920846" lon="11.19824813960198"><ele>248.5</ele><time>2026-04-11T16:02:26Z</time></trkpt><trkpt lat="44.272883424425515" lon="11.198105488670064"><ele>249.75</ele><time>2026-04-11T16:02:27Z</time></trkpt><trkpt lat="44.27278501039069" lon="11.198004816743317"><ele>251.0</ele><time>2026-04-11T16:02:28Z</time></trkpt><trkpt lat="44.27267934820104" lon="11.197935821795914"><ele>251.0</ele><time>2026-04-11T16:02:29Z</time></trkpt><trkpt lat="44.27259981850012" lon="11.197848047609247"><ele>251.00000000000003</ele><time>2026-04-11T16:02:30Z</time></trkpt><trkpt lat="44.272547774076166" lon="11.197751316480286"><ele>251.00000000000003</ele><time>2026-04-11T16:02:31Z</time></trkpt><trkpt lat="44.27250813199577" lon="11.197655019821168"><ele>251.0</ele><time>2026-04-11T16:02:32Z</time></trkpt><trkpt lat="44.272469619330735" lon="11.197544215387332"><ele>251.0</ele><time>2026-04-11T16:02:33Z</time></trkpt><trkpt lat="44.27221111717124" lon="11.19760145326307"><ele>250.4</ele><time>2026-04-11T16:02:34Z</time></trkpt><trkpt lat="44.27211675412172" lon="11.197517404656558"><ele>249.8</ele><time>2026-04-11T16:02:35Z</time></trkpt><trkpt lat="44.27204376054232" lon="11.197412944787741"><ele>249.20000000000002</ele><time>2026-04-11T16:02:36Z</time></trkpt><trkpt lat="44.271961896187946" lon="11.197346218305169"><ele>248.60000000000002</ele><time>2026-04-11T16:02:37Z</time></trkpt><trkpt lat="44.271886119326005" lon="11.197286915484487"><ele>248.0</ele><time>2026-04-11T16:02:37.999Z</time></trkpt><trkpt lat="44.2718097486653" lon="11.197235353675191"><ele>248.00000000000003</ele><time>2026-04-11T16:02:38.999Z</time></trkpt><trkpt lat="44.271722663429145" lon="11.197191238628664"><ele>248.0</ele><time>2026-04-11T16:02:40Z</time></trkpt><trkpt lat="44.27163757980218" lon="11.197161508884756"><ele>248.0</ele><time>2026-04-11T16:02:40.999Z</time></trkpt><trkpt lat="44.27155498879703" lon="11.197145018165218"><ele>248.0</ele><time>2026-04-11T16:02:41.999Z</time></trkpt><trkpt lat="44.27146919943921" lon="11.197147581196145"><ele>248.00000000000003</ele><time>2026-04-11T16:02:42.999Z</time></trkpt><trkpt lat="44.27139878968089" lon="11.197115513825384"><ele>248.0</ele><time>2026-04-11T16:02:44.999Z</time></trkpt><trkpt lat="44.271454029824675" lon="11.197060448743684"><ele>248.0</ele><time>2026-04-11T16:02:54.999Z</time></trkpt><trkpt lat="44.27152342762368" lon="11.197080483395547"><ele>248.0</ele><time>2026-04-11T16:03:02.999Z</time></trkpt><trkpt lat="44.271603007714006" lon="11.19709576096184"><ele>248.0</ele><time>2026-04-11T16:03:05.999Z</time></trkpt><trkpt lat="44.27171364506928" lon="11.1969493597139"><ele>248.0</ele><time>2026-04-11T16:03:08.999Z</time></trkpt><trkpt lat="44.27180609775742" lon="11.196883370919924"><ele>248.0</ele><time>2026-04-11T16:03:10.999Z</time></trkpt><trkpt lat="44.2718583988341" lon="11.196823493573751"><ele>248.0</ele><time>2026-04-11T16:03:12.999Z</time></trkpt><trkpt lat="44.27188776910372" lon="11.196729401049366"><ele>248.0</ele><time>2026-04-11T16:03:14.999Z</time></trkpt><trkpt lat="44.27195785669075" lon="11.196567755317906"><ele>248.0</ele><time>2026-04-11T16:03:16.999Z</time></trkpt><trkpt lat="44.271999921842855" lon="11.196469397686183"><ele>248.0</ele><time>2026-04-11T16:03:17.999Z</time></trkpt><trkpt lat="44.27203468936352" lon="11.19637286033831"><ele>248.0</ele><time>2026-04-11T16:03:18.999Z</time></trkpt><trkpt lat="44.272064780671194" lon="11.196263695489602"><ele>248.0</ele><time>2026-04-11T16:03:19.999Z</time></trkpt><trkpt lat="44.27210545470315" lon="11.196151623951993"><ele>248.0</ele><time>2026-04-11T16:03:20.999Z</time></trkpt><trkpt lat="44.27211171524716" lon="11.196014169054184"><ele>248.0</ele><time>2026-04-11T16:03:21.999Z</time></trkpt><trkpt lat="44.272106991123614" lon="11.195876408734089"><ele>248.0</ele><time>2026-04-11T16:03:22.999Z</time></trkpt><trkpt lat="44.27209101023068" lon="11.195737753426254"><ele>248.0</ele><time>2026-04-11T16:03:23.999Z</time></trkpt><trkpt lat="44.27208057265943" lon="11.19561244692796"><ele>247.2</ele><time>2026-04-11T16:03:24.999Z</time></trkpt><trkpt lat="44.27208059873283" lon="11.195510602430183"><ele>246.4</ele><time>2026-04-11T16:03:25.999Z</time></trkpt><trkpt lat="44.272117410580414" lon="11.195378470854434"><ele>245.59999999999997</ele><time>2026-04-11T16:03:27.999Z</time></trkpt><trkpt lat="44.27221977486172" lon="11.195342285622914"><ele>244.79999999999998</ele><time>2026-04-11T16:03:29.999Z</time></trkpt><trkpt lat="44.27229619407493" lon="11.195416995877157"><ele>244.0</ele><time>2026-04-11T16:03:30.999Z</time></trkpt><trkpt lat="44.27238455110958" lon="11.195515448233245"><ele>241.5</ele><time>2026-04-11T16:03:31.999Z</time></trkpt><trkpt lat="44.27247127848609" lon="11.195618447333027"><ele>239.0</ele><time>2026-04-11T16:03:32.999Z</time></trkpt><trkpt lat="44.27256219659805" lon="11.195719058761723"><ele>236.5</ele><time>2026-04-11T16:03:33.999Z</time></trkpt><trkpt lat="44.272649583567336" lon="11.195822834880058"><ele>234.0</ele><time>2026-04-11T16:03:34.999Z</time></trkpt><trkpt lat="44.27274349660485" lon="11.195912012801072"><ele>234.0</ele><time>2026-04-11T16:03:35.998Z</time></trkpt><trkpt lat="44.27282874779186" lon="11.195997834959634"><ele>233.99999999999997</ele><time>2026-04-11T16:03:36.998Z</time></trkpt><trkpt lat="44.2729065912713" lon="11.1961001762233"><ele>233.99999999999997</ele><time>2026-04-11T16:03:37.998Z</time></trkpt><trkpt lat="44.27296608505994" lon="11.196208981672916"><ele>234.0</ele><time>2026-04-11T16:03:38.998Z</time></trkpt><trkpt lat="44.27300982626232" lon="11.196284934142625"><ele>234.0</ele><time>2026-04-11T16:03:39.998Z</time></trkpt><trkpt lat="44.27314243133835" lon="11.19627307526965"><ele>232.0</ele><time>2026-04-11T16:03:41.998Z</time></trkpt><trkpt lat="44.27323901192202" lon="11.196207727823298"><ele>229.99999999999997</ele><time>2026-04-11T16:03:42.998Z</time></trkpt><trkpt lat="44.2733248995532" lon="11.19614038227348"><ele>227.99999999999997</ele><time>2026-04-11T16:03:43.998Z</time></trkpt><trkpt lat="44.27341053416572" lon="11.196082467709179"><ele>226.0</ele><time>2026-04-11T16:03:44.998Z</time></trkpt><trkpt lat="44.273496972586095" lon="11.196026583427757"><ele>224.0</ele><time>2026-04-11T16:03:45.998Z</time></trkpt><trkpt lat="44.27359325073534" lon="11.195961494620024"><ele>224.0</ele><time>2026-04-11T16:03:46.998Z</time></trkpt><trkpt lat="44.27369791069616" lon="11.195898257340065"><ele>224.0</ele><time>2026-04-11T16:03:47.998Z</time></trkpt><trkpt lat="44.273809770538996" lon="11.195837830902345"><ele>224.0</ele><time>2026-04-11T16:03:48.998Z</time></trkpt><trkpt lat="44.27391799224346" lon="11.1957723112253"><ele>224.0</ele><time>2026-04-11T16:03:49.998Z</time></trkpt><trkpt lat="44.274018731560325" lon="11.19571196554998"><ele>224.2</ele><time>2026-04-11T16:03:50.998Z</time></trkpt><trkpt lat="44.274111301978955" lon="11.19565808720006"><ele>224.39999999999998</ele><time>2026-04-11T16:03:51.998Z</time></trkpt><trkpt lat="44.27419996929023" lon="11.195615273756294"><ele>224.6</ele><time>2026-04-11T16:03:52.998Z</time></trkpt><trkpt lat="44.274279782943815" lon="11.195635860769595"><ele>224.8</ele><time>2026-04-11T16:03:53.998Z</time></trkpt><trkpt lat="44.27436363779566" lon="11.195709566704918"><ele>225.0</ele><time>2026-04-11T16:03:54.998Z</time></trkpt><trkpt lat="44.27445731815753" lon="11.19577866370285"><ele>225.0</ele><time>2026-04-11T16:03:55.999Z</time></trkpt><trkpt lat="44.2745641414857" lon="11.195831964396644"><ele>225.0</ele><time>2026-04-11T16:03:56.999Z</time></trkpt><trkpt lat="44.2746826336319" lon="11.195889994684281"><ele>225.0</ele><time>2026-04-11T16:03:57.999Z</time></trkpt><trkpt lat="44.27479338210325" lon="11.195940384307296"><ele>225.0</ele><time>2026-04-11T16:03:58.999Z</time></trkpt><trkpt lat="44.274899696437906" lon="11.195987306987414"><ele>226.6</ele><time>2026-04-11T16:03:59.999Z</time></trkpt><trkpt lat="44.27498699646075" lon="11.196024296115771"><ele>228.2</ele><time>2026-04-11T16:04:00.999Z</time></trkpt><trkpt lat="44.2750822245162" lon="11.195958891210164"><ele>229.8</ele><time>2026-04-11T16:04:02.999Z</time></trkpt><trkpt lat="44.27518336637579" lon="11.195854667573736"><ele>231.4</ele><time>2026-04-11T16:04:04.999Z</time></trkpt><trkpt lat="44.275275604003745" lon="11.195836497167072"><ele>233.0</ele><time>2026-04-11T16:04:05.999Z</time></trkpt><trkpt lat="44.27537075710737" lon="11.195826979787325"><ele>233.0</ele><time>2026-04-11T16:04:06.999Z</time></trkpt><trkpt lat="44.2754765388405" lon="11.19584483669282"><ele>233.0</ele><time>2026-04-11T16:04:07.999Z</time></trkpt><trkpt lat="44.27558839883562" lon="11.195892262474041"><ele>233.0</ele><time>2026-04-11T16:04:08.999Z</time></trkpt><trkpt lat="44.27569725801345" lon="11.195965108976806"><ele>233.0</ele><time>2026-04-11T16:04:09.999Z</time></trkpt><trkpt lat="44.275799406569085" lon="11.19602319780076"><ele>233.0</ele><time>2026-04-11T16:04:10.999Z</time></trkpt><trkpt lat="44.27589495444915" lon="11.19605125665403"><ele>233.0</ele><time>2026-04-11T16:04:11.999Z</time></trkpt><trkpt lat="44.27598720122305" lon="11.196040706823277"><ele>233.0</ele><time>2026-04-11T16:04:12.999Z</time></trkpt><trkpt lat="44.27604547103189" lon="11.196002091026687"><ele>233.0</ele><time>2026-04-11T16:04:13.999Z</time></trkpt><trkpt lat="44.276065327987446" lon="11.196124163283395"><ele>233.0</ele><time>2026-04-11T16:04:17.999Z</time></trkpt><trkpt lat="44.27618225528161" lon="11.19616291133681"><ele>233.00000000000003</ele><time>2026-04-11T16:04:19.999Z</time></trkpt><trkpt lat="44.276263895872475" lon="11.196155479969628"><ele>233.0</ele><time>2026-04-11T16:04:20.999Z</time></trkpt><trkpt lat="44.27635541050622" lon="11.196149149854643"><ele>233.0</ele><time>2026-04-11T16:04:21.999Z</time></trkpt><trkpt lat="44.276450230317494" lon="11.196152638397509"><ele>233.0</ele><time>2026-04-11T16:04:22.999Z</time></trkpt><trkpt lat="44.276536144060614" lon="11.196153796913153"><ele>233.00000000000003</ele><time>2026-04-11T16:04:23.999Z</time></trkpt><trkpt lat="44.27661034072662" lon="11.196146795301445"><ele>233.0</ele><time>2026-04-11T16:04:24.999Z</time></trkpt><trkpt lat="44.2766877769438" lon="11.196145843482466"><ele>234.0</ele><time>2026-04-11T16:04:25.999Z</time></trkpt><trkpt lat="44.27678269842916" lon="11.19615974179758"><ele>235.0</ele><time>2026-04-11T16:04:26.999Z</time></trkpt><trkpt lat="44.276877074975005" lon="11.196172568036534"><ele>236.0</ele><time>2026-04-11T16:04:27.999Z</time></trkpt><trkpt lat="44.276970590091004" lon="11.196187586500697"><ele>237.0</ele><time>2026-04-11T16:04:28.999Z</time></trkpt><trkpt lat="44.27706804482458" lon="11.19620148280794"><ele>238.0</ele><time>2026-04-11T16:04:29.999Z</time></trkpt><trkpt lat="44.27717626566322" lon="11.196228312324731"><ele>238.4</ele><time>2026-04-11T16:04:30.999Z</time></trkpt><trkpt lat="44.277293758755185" lon="11.196263486492606"><ele>238.8</ele><time>2026-04-11T16:04:31.999Z</time></trkpt><trkpt lat="44.277397178829936" lon="11.196301075860074"><ele>239.2</ele><time>2026-04-11T16:04:32.999Z</time></trkpt><trkpt lat="44.27750067243214" lon="11.196356039842154"><ele>239.6</ele><time>2026-04-11T16:04:33.999Z</time></trkpt><trkpt lat="44.2775943622542" lon="11.196402803389756"><ele>240.0</ele><time>2026-04-11T16:04:34.999Z</time></trkpt><trkpt lat="44.27769437417821" lon="11.196444606987866"><ele>240.0</ele><time>2026-04-11T16:04:35.999Z</time></trkpt><trkpt lat="44.277787081721776" lon="11.196459019168726"><ele>240.0</ele><time>2026-04-11T16:04:36.999Z</time></trkpt><trkpt lat="44.277871003937186" lon="11.19648121601351"><ele>240.0</ele><time>2026-04-11T16:04:37.999Z</time></trkpt><trkpt lat="44.27796528637157" lon="11.19652730337912"><ele>240.0</ele><time>2026-04-11T16:04:38.999Z</time></trkpt><trkpt lat="44.278063471747494" lon="11.196593362344188"><ele>240.0</ele><time>2026-04-11T16:04:39.999Z</time></trkpt><trkpt lat="44.27816150681217" lon="11.196651484880672"><ele>237.4</ele><time>2026-04-11T16:04:40.999Z</time></trkpt><trkpt lat="44.27824750002364" lon="11.196697202086321"><ele>234.8</ele><time>2026-04-11T16:04:41.999Z</time></trkpt><trkpt lat="44.27834801006265" lon="11.196760831220258"><ele>232.2</ele><time>2026-04-11T16:04:42.999Z</time></trkpt><trkpt lat="44.278436378987" lon="11.19685813332211"><ele>229.6</ele><time>2026-04-11T16:04:43.999Z</time></trkpt><trkpt lat="44.278532981823155" lon="11.196959668390114"><ele>227.0</ele><time>2026-04-11T16:04:44.999Z</time></trkpt><trkpt lat="44.27864821711708" lon="11.197069823189057"><ele>227.0</ele><time>2026-04-11T16:04:45.999Z</time></trkpt><trkpt lat="44.27876140025431" lon="11.197180776179675"><ele>227.0</ele><time>2026-04-11T16:04:46.999Z</time></trkpt><trkpt lat="44.27887220703226" lon="11.19730458781913"><ele>227.0</ele><time>2026-04-11T16:04:47.999Z</time></trkpt><trkpt lat="44.27898063577559" lon="11.19740769982477"><ele>227.0</ele><time>2026-04-11T16:04:48.999Z</time></trkpt><trkpt lat="44.279082488332385" lon="11.1975087966851"><ele>225.8</ele><time>2026-04-11T16:04:49.999Z</time></trkpt><trkpt lat="44.279172435421735" lon="11.197626431932628"><ele>224.6</ele><time>2026-04-11T16:04:50.999Z</time></trkpt><trkpt lat="44.27925427561909" lon="11.197727171722292"><ele>223.40000000000003</ele><time>2026-04-11T16:04:51.999Z</time></trkpt><trkpt lat="44.279331085575144" lon="11.19782918358074"><ele>222.20000000000002</ele><time>2026-04-11T16:04:52.999Z</time></trkpt><trkpt lat="44.279408898138286" lon="11.19790474412008"><ele>221.0</ele><time>2026-04-11T16:04:53.999Z</time></trkpt><trkpt lat="44.27949948982765" lon="11.197984662271814"><ele>221.0</ele><time>2026-04-11T16:04:54.999Z</time></trkpt><trkpt lat="44.2796069153171" lon="11.198044026259394"><ele>221.0</ele><time>2026-04-11T16:04:55.999Z</time></trkpt><trkpt lat="44.279722053095874" lon="11.198093102156278"><ele>221.0</ele><time>2026-04-11T16:04:56.999Z</time></trkpt><trkpt lat="44.27984849994291" lon="11.198147615833511"><ele>221.0</ele><time>2026-04-11T16:04:57.999Z</time></trkpt><trkpt lat="44.279988292468" lon="11.198194192908947"><ele>219.75</ele><time>2026-04-11T16:04:58.999Z</time></trkpt><trkpt lat="44.28012286352694" lon="11.198256760721362"><ele>218.5</ele><time>2026-04-11T16:04:59.999Z</time></trkpt><trkpt lat="44.280257085781905" lon="11.198317993078417"><ele>217.25</ele><time>2026-04-11T16:05:00.999Z</time></trkpt><trkpt lat="44.2803700725722" lon="11.198367890864441"><ele>216.0</ele><time>2026-04-11T16:05:01.999Z</time></trkpt><trkpt lat="44.28048610974998" lon="11.198432482129066"><ele>217.0</ele><time>2026-04-11T16:05:02.999Z</time></trkpt><trkpt lat="44.280604172492225" lon="11.198512337970026"><ele>218.0</ele><time>2026-04-11T16:05:03.999Z</time></trkpt><trkpt lat="44.28072124030612" lon="11.198598124022363"><ele>219.0</ele><time>2026-04-11T16:05:04.999Z</time></trkpt><trkpt lat="44.28083431401608" lon="11.198687399363248"><ele>220.0</ele><time>2026-04-11T16:05:05.999Z</time></trkpt><trkpt lat="44.2809452046269" lon="11.19875300591896"><ele>220.0</ele><time>2026-04-11T16:05:06.999Z</time></trkpt><trkpt lat="44.28106180060405" lon="11.198822010563445"><ele>220.0</ele><time>2026-04-11T16:05:07.999Z</time></trkpt><trkpt lat="44.28118185026227" lon="11.19890176188385"><ele>220.0</ele><time>2026-04-11T16:05:08.999Z</time></trkpt><trkpt lat="44.28129132368063" lon="11.19898547025961"><ele>220.0</ele><time>2026-04-11T16:05:09.999Z</time></trkpt><trkpt lat="44.28140211023922" lon="11.19904870788906"><ele>220.75</ele><time>2026-04-11T16:05:10.999Z</time></trkpt><trkpt lat="44.28150937810962" lon="11.199109926830964"><ele>221.5</ele><time>2026-04-11T16:05:11.999Z</time></trkpt><trkpt lat="44.28161576914655" lon="11.19917036905356"><ele>222.25</ele><time>2026-04-11T16:05:12.999Z</time></trkpt><trkpt lat="44.28172978696871" lon="11.199228087840805"><ele>223.0</ele><time>2026-04-11T16:05:13.999Z</time></trkpt><trkpt lat="44.28183926741726" lon="11.199284620515552"><ele>223.0</ele><time>2026-04-11T16:05:14.999Z</time></trkpt><trkpt lat="44.28193924558457" lon="11.199355963330397"><ele>223.0</ele><time>2026-04-11T16:05:15.999Z</time></trkpt><trkpt lat="44.28204623325173" lon="11.199444884066246"><ele>223.0</ele><time>2026-04-11T16:05:16.999Z</time></trkpt><trkpt lat="44.28214026517958" lon="11.199528287927523"><ele>223.0</ele><time>2026-04-11T16:05:17.999Z</time></trkpt><trkpt lat="44.28222811559383" lon="11.199612935571"><ele>223.8</ele><time>2026-04-11T16:05:18.999Z</time></trkpt><trkpt lat="44.28231071837955" lon="11.199703042500648"><ele>224.60000000000002</ele><time>2026-04-11T16:05:19.999Z</time></trkpt><trkpt lat="44.28238258909904" lon="11.19979978765982"><ele>225.39999999999998</ele><time>2026-04-11T16:05:20.999Z</time></trkpt><trkpt lat="44.282432276760204" lon="11.199879942984225"><ele>226.2</ele><time>2026-04-11T16:05:21.999Z</time></trkpt><trkpt lat="44.28249804176307" lon="11.200007118187195"><ele>227.0</ele><time>2026-04-11T16:05:23.999Z</time></trkpt><trkpt lat="44.2825319035896" lon="11.200085987478149"><ele>227.0</ele><time>2026-04-11T16:05:24.999Z</time></trkpt><trkpt lat="44.28256978337438" lon="11.20020004381068"><ele>227.0</ele><time>2026-04-11T16:05:25.999Z</time></trkpt><trkpt lat="44.2826097996071" lon="11.20032324788231"><ele>227.0</ele><time>2026-04-11T16:05:26.999Z</time></trkpt><trkpt lat="44.28264661095903" lon="11.200458942440397"><ele>227.0</ele><time>2026-04-11T16:05:27.998Z</time></trkpt><trkpt lat="44.282696173602744" lon="11.200596712919769"><ele>227.0</ele><time>2026-04-11T16:05:28.998Z</time></trkpt><trkpt lat="44.28275549379198" lon="11.20073793514541"><ele>225.6</ele><time>2026-04-11T16:05:29.998Z</time></trkpt><trkpt lat="44.28281381063181" lon="11.20086173772969"><ele>224.2</ele><time>2026-04-11T16:05:30.998Z</time></trkpt><trkpt lat="44.282861691395546" lon="11.200975934193982"><ele>222.8</ele><time>2026-04-11T16:05:31.998Z</time></trkpt><trkpt lat="44.28291321470733" lon="11.20109452258001"><ele>221.4</ele><time>2026-04-11T16:05:32.998Z</time></trkpt><trkpt lat="44.282974719174334" lon="11.201221015681893"><ele>220.0</ele><time>2026-04-11T16:05:33.998Z</time></trkpt><trkpt lat="44.28303869298268" lon="11.201331153617733"><ele>220.0</ele><time>2026-04-11T16:05:34.998Z</time></trkpt><trkpt lat="44.28311142809597" lon="11.201413333497111"><ele>220.0</ele><time>2026-04-11T16:05:35.998Z</time></trkpt><trkpt lat="44.28318624383245" lon="11.201484668359067"><ele>220.0</ele><time>2026-04-11T16:05:36.998Z</time></trkpt><trkpt lat="44.283264738807766" lon="11.20153772465299"><ele>220.0</ele><time>2026-04-11T16:05:37.998Z</time></trkpt><trkpt lat="44.28335885690909" lon="11.20159146146436"><ele>220.0</ele><time>2026-04-11T16:05:38.998Z</time></trkpt><trkpt lat="44.2834520981776" lon="11.201636057678119"><ele>220.0</ele><time>2026-04-11T16:05:39.998Z</time></trkpt><trkpt lat="44.28356341223622" lon="11.201675806720456"><ele>220.0</ele><time>2026-04-11T16:05:40.998Z</time></trkpt><trkpt lat="44.28369588168575" lon="11.201718016661621"><ele>220.0</ele><time>2026-04-11T16:05:41.998Z</time></trkpt><trkpt lat="44.28381484332318" lon="11.201750404348115"><ele>220.0</ele><time>2026-04-11T16:05:42.998Z</time></trkpt><trkpt lat="44.28392743527762" lon="11.201794535292736"><ele>223.25</ele><time>2026-04-11T16:05:43.998Z</time></trkpt><trkpt lat="44.284030962372654" lon="11.201843319090255"><ele>226.5</ele><time>2026-04-11T16:05:44.998Z</time></trkpt><trkpt lat="44.284133226299595" lon="11.201916511277192"><ele>229.75</ele><time>2026-04-11T16:05:45.998Z</time></trkpt><trkpt lat="44.28424833083384" lon="11.202007253281016"><ele>233.0</ele><time>2026-04-11T16:05:46.998Z</time></trkpt><trkpt lat="44.284366599150474" lon="11.202110690737882"><ele>233.0</ele><time>2026-04-11T16:05:47.998Z</time></trkpt><trkpt lat="44.28447325989718" lon="11.20220682748208"><ele>233.0</ele><time>2026-04-11T16:05:48.998Z</time></trkpt><trkpt lat="44.28456279190842" lon="11.20229816168228"><ele>233.0</ele><time>2026-04-11T16:05:49.998Z</time></trkpt><trkpt lat="44.28465164019767" lon="11.202368662910763"><ele>233.0</ele><time>2026-04-11T16:05:50.998Z</time></trkpt><trkpt lat="44.28473986116746" lon="11.20245407536099"><ele>233.0</ele><time>2026-04-11T16:05:51.998Z</time></trkpt><trkpt lat="44.28482430360936" lon="11.202559550653293"><ele>230.75</ele><time>2026-04-11T16:05:52.998Z</time></trkpt><trkpt lat="44.284904581784595" lon="11.202670914258034"><ele>228.5</ele><time>2026-04-11T16:05:53.998Z</time></trkpt><trkpt lat="44.28499312795881" lon="11.202795981082689"><ele>226.25</ele><time>2026-04-11T16:05:54.998Z</time></trkpt><trkpt lat="44.28508551084623" lon="11.202926003386528"><ele>224.0</ele><time>2026-04-11T16:05:55.998Z</time></trkpt><trkpt lat="44.285172869853476" lon="11.203036880658697"><ele>224.0</ele><time>2026-04-11T16:05:56.998Z</time></trkpt><trkpt lat="44.28524757573004" lon="11.2031413659703"><ele>223.99999999999997</ele><time>2026-04-11T16:05:57.998Z</time></trkpt><trkpt lat="44.28532611379887" lon="11.203257220983303"><ele>223.99999999999997</ele><time>2026-04-11T16:05:58.998Z</time></trkpt><trkpt lat="44.28539916660088" lon="11.203354026460824"><ele>224.0</ele><time>2026-04-11T16:05:59.998Z</time></trkpt><trkpt lat="44.285477388894215" lon="11.203438448800865"><ele>224.0</ele><time>2026-04-11T16:06:00.998Z</time></trkpt><trkpt lat="44.28556797019557" lon="11.203512989679842"><ele>222.75</ele><time>2026-04-11T16:06:01.999Z</time></trkpt><trkpt lat="44.28566310446709" lon="11.203595044965851"><ele>221.5</ele><time>2026-04-11T16:06:02.999Z</time></trkpt><trkpt lat="44.285767566462034" lon="11.203687469113483"><ele>220.25</ele><time>2026-04-11T16:06:03.999Z</time></trkpt><trkpt lat="44.285871550387284" lon="11.203778950120824"><ele>219.0</ele><time>2026-04-11T16:06:04.999Z</time></trkpt><trkpt lat="44.28596499216382" lon="11.20386587658592"><ele>219.0</ele><time>2026-04-11T16:06:05.999Z</time></trkpt><trkpt lat="44.28604862864146" lon="11.203933867739968"><ele>218.99999999999997</ele><time>2026-04-11T16:06:06.999Z</time></trkpt><trkpt lat="44.286113320301254" lon="11.20401163220938"><ele>218.99999999999997</ele><time>2026-04-11T16:06:07.999Z</time></trkpt><trkpt lat="44.286190057676095" lon="11.20408315492207"><ele>219.0</ele><time>2026-04-11T16:06:08.999Z</time></trkpt><trkpt lat="44.28627142864678" lon="11.204151834841891"><ele>219.0</ele><time>2026-04-11T16:06:09.999Z</time></trkpt><trkpt lat="44.286339653522454" lon="11.204219463455733"><ele>218.6</ele><time>2026-04-11T16:06:10.999Z</time></trkpt><trkpt lat="44.2864186257219" lon="11.20430908757072"><ele>218.2</ele><time>2026-04-11T16:06:11.999Z</time></trkpt><trkpt lat="44.28650270174127" lon="11.204390597250697"><ele>217.79999999999998</ele><time>2026-04-11T16:06:12.999Z</time></trkpt><trkpt lat="44.28657372997762" lon="11.204470695225979"><ele>217.39999999999998</ele><time>2026-04-11T16:06:13.999Z</time></trkpt><trkpt lat="44.286640574028354" lon="11.204550541614193"><ele>217.0</ele><time>2026-04-11T16:06:14.999Z</time></trkpt><trkpt lat="44.2867084291658" lon="11.204652111823961"><ele>217.0</ele><time>2026-04-11T16:06:15.999Z</time></trkpt><trkpt lat="44.2867776681314" lon="11.204762390290089"><ele>217.0</ele><time>2026-04-11T16:06:16.999Z</time></trkpt><trkpt lat="44.28685246951262" lon="11.204861694331898"><ele>217.0</ele><time>2026-04-11T16:06:17.999Z</time></trkpt><trkpt lat="44.2869460159905" lon="11.204970294785427"><ele>217.0</ele><time>2026-04-11T16:06:18.999Z</time></trkpt><trkpt lat="44.28703592890186" lon="11.205059539471652"><ele>217.0</ele><time>2026-04-11T16:06:19.999Z</time></trkpt><trkpt lat="44.287119567538475" lon="11.205124043431091"><ele>217.6</ele><time>2026-04-11T16:06:20.999Z</time></trkpt><trkpt lat="44.28718479323389" lon="11.205218654553459"><ele>218.2</ele><time>2026-04-11T16:06:21.999Z</time></trkpt><trkpt lat="44.28724659341344" lon="11.205317800528524"><ele>218.8</ele><time>2026-04-11T16:06:22.999Z</time></trkpt><trkpt lat="44.28730076718897" lon="11.205412911152273"><ele>219.4</ele><time>2026-04-11T16:06:23.999Z</time></trkpt><trkpt lat="44.28736964308599" lon="11.205508752405168"><ele>220.0</ele><time>2026-04-11T16:06:24.999Z</time></trkpt><trkpt lat="44.28746304134404" lon="11.205598819559986"><ele>218.0</ele><time>2026-04-11T16:06:25.999Z</time></trkpt><trkpt lat="44.28753835240815" lon="11.205675398902141"><ele>216.0</ele><time>2026-04-11T16:06:26.999Z</time></trkpt><trkpt lat="44.287629387819926" lon="11.205757238555707"><ele>214.0</ele><time>2026-04-11T16:06:27.999Z</time></trkpt><trkpt lat="44.28772869278576" lon="11.205850739983399"><ele>212.0</ele><time>2026-04-11T16:06:28.999Z</time></trkpt><trkpt lat="44.287813558997364" lon="11.205933526486652"><ele>210.0</ele><time>2026-04-11T16:06:29.999Z</time></trkpt><trkpt lat="44.28789040638979" lon="11.206016974575139"><ele>210.0</ele><time>2026-04-11T16:06:30.999Z</time></trkpt><trkpt lat="44.28796383496828" lon="11.2061014627726"><ele>210.0</ele><time>2026-04-11T16:06:31.999Z</time></trkpt><trkpt lat="44.28803199195337" lon="11.206180650170891"><ele>210.0</ele><time>2026-04-11T16:06:32.999Z</time></trkpt><trkpt lat="44.28809042888049" lon="11.206255847465146"><ele>210.0</ele><time>2026-04-11T16:06:33.999Z</time></trkpt><trkpt lat="44.28815322198162" lon="11.206328629786181"><ele>210.0</ele><time>2026-04-11T16:06:34.999Z</time></trkpt><trkpt lat="44.288203149084936" lon="11.206399054943637"><ele>210.0</ele><time>2026-04-11T16:06:35.999Z</time></trkpt><trkpt lat="44.28826000184004" lon="11.206477955914346"><ele>210.66666666666666</ele><time>2026-04-11T16:06:36.999Z</time></trkpt><trkpt lat="44.28832716747064" lon="11.20654153399082"><ele>211.33333333333331</ele><time>2026-04-11T16:06:37.999Z</time></trkpt><trkpt lat="44.28840624193753" lon="11.206615463965505"><ele>212.0</ele><time>2026-04-11T16:06:38.999Z</time></trkpt><trkpt lat="44.28848650868046" lon="11.206679889569493"><ele>212.66666666666666</ele><time>2026-04-11T16:06:39.999Z</time></trkpt><trkpt lat="44.28856684682725" lon="11.206697671220132"><ele>213.33333333333331</ele><time>2026-04-11T16:06:40.999Z</time></trkpt><trkpt lat="44.2886236315442" lon="11.20680826375448"><ele>214.0</ele><time>2026-04-11T16:06:41.999Z</time></trkpt><trkpt lat="44.28868609846631" lon="11.206905345369767"><ele>214.0</ele><time>2026-04-11T16:06:42.999Z</time></trkpt><trkpt lat="44.28875348957328" lon="11.207036996300175"><ele>213.99999999999997</ele><time>2026-04-11T16:06:43.999Z</time></trkpt><trkpt lat="44.28882922904652" lon="11.20713503631248"><ele>213.99999999999997</ele><time>2026-04-11T16:06:44.999Z</time></trkpt><trkpt lat="44.28889884975262" lon="11.207246533237358"><ele>214.0</ele><time>2026-04-11T16:06:45.999Z</time></trkpt><trkpt lat="44.28896543932417" lon="11.207376404755356"><ele>214.0</ele><time>2026-04-11T16:06:46.999Z</time></trkpt><trkpt lat="44.28901941030542" lon="11.207517003040902"><ele>213.66666666666666</ele><time>2026-04-11T16:06:47.999Z</time></trkpt><trkpt lat="44.28905916194992" lon="11.207642828174317"><ele>213.33333333333331</ele><time>2026-04-11T16:06:48.999Z</time></trkpt><trkpt lat="44.28908077830754" lon="11.207760512953838"><ele>213.0</ele><time>2026-04-11T16:06:49.999Z</time></trkpt><trkpt lat="44.28910287189732" lon="11.207872179321967"><ele>212.66666666666669</ele><time>2026-04-11T16:06:50.999Z</time></trkpt><trkpt lat="44.289130258375174" lon="11.207977360803188"><ele>212.33333333333334</ele><time>2026-04-11T16:06:51.999Z</time></trkpt><trkpt lat="44.289158020196176" lon="11.2080768729035"><ele>212.0</ele><time>2026-04-11T16:06:52.999Z</time></trkpt><trkpt lat="44.28918216112129" lon="11.208163367784342"><ele>212.0</ele><time>2026-04-11T16:06:53.999Z</time></trkpt><trkpt lat="44.28921919369435" lon="11.208237395634404"><ele>212.0</ele><time>2026-04-11T16:06:54.999Z</time></trkpt><trkpt lat="44.289277161622095" lon="11.208328875464083"><ele>212.0</ele><time>2026-04-11T16:06:55.999Z</time></trkpt><trkpt lat="44.28934036584509" lon="11.208432130842622"><ele>212.0</ele><time>2026-04-11T16:06:56.999Z</time></trkpt><trkpt lat="44.28942583822973" lon="11.20853701400886"><ele>212.0</ele><time>2026-04-11T16:06:57.999Z</time></trkpt><trkpt lat="44.2895157914143" lon="11.208629987320293"><ele>212.0</ele><time>2026-04-11T16:06:58.999Z</time></trkpt><trkpt lat="44.2896072544795" lon="11.208697947251904"><ele>212.0</ele><time>2026-04-11T16:06:59.999Z</time></trkpt><trkpt lat="44.28971955933985" lon="11.20876884418619"><ele>212.0</ele><time>2026-04-11T16:07:00.999Z</time></trkpt><trkpt lat="44.28985027108857" lon="11.208817632599326"><ele>212.0</ele><time>2026-04-11T16:07:01.999Z</time></trkpt><trkpt lat="44.28997651782833" lon="11.20884813880236"><ele>213.39999999999998</ele><time>2026-04-11T16:07:02.999Z</time></trkpt><trkpt lat="44.290083088452235" lon="11.208870510239263"><ele>214.79999999999998</ele><time>2026-04-11T16:07:03.999Z</time></trkpt><trkpt lat="44.290187596255464" lon="11.20890297060135"><ele>216.2</ele><time>2026-04-11T16:07:04.999Z</time></trkpt><trkpt lat="44.290278025860324" lon="11.20895436872587"><ele>217.6</ele><time>2026-04-11T16:07:05.999Z</time></trkpt><trkpt lat="44.29035890913755" lon="11.209015829338123"><ele>219.0</ele><time>2026-04-11T16:07:06.999Z</time></trkpt><trkpt lat="44.290423446576206" lon="11.209094979882181"><ele>217.2</ele><time>2026-04-11T16:07:07.999Z</time></trkpt><trkpt lat="44.290500760981026" lon="11.209151529327315"><ele>215.39999999999998</ele><time>2026-04-11T16:07:08.999Z</time></trkpt><trkpt lat="44.29058588173566" lon="11.209237842849639"><ele>213.6</ele><time>2026-04-11T16:07:09.999Z</time></trkpt><trkpt lat="44.29066919820167" lon="11.209327713706251"><ele>211.8</ele><time>2026-04-11T16:07:10.999Z</time></trkpt><trkpt lat="44.29075480797432" lon="11.209443928213023"><ele>210.0</ele><time>2026-04-11T16:07:11.999Z</time></trkpt><trkpt lat="44.29085554868972" lon="11.209542042415762"><ele>210.0</ele><time>2026-04-11T16:07:12.999Z</time></trkpt><trkpt lat="44.29094251367857" lon="11.20966730042218"><ele>210.0</ele><time>2026-04-11T16:07:13.999Z</time></trkpt><trkpt lat="44.29103647590033" lon="11.209779790764056"><ele>210.0</ele><time>2026-04-11T16:07:14.999Z</time></trkpt><trkpt lat="44.29113123167949" lon="11.209892571036278"><ele>210.0</ele><time>2026-04-11T16:07:15.999Z</time></trkpt><trkpt lat="44.291234476826055" lon="11.210016635081063"><ele>209.2</ele><time>2026-04-11T16:07:16.999Z</time></trkpt><trkpt lat="44.29132739889529" lon="11.210131896110838"><ele>208.4</ele><time>2026-04-11T16:07:17.999Z</time></trkpt><trkpt lat="44.29140833784042" lon="11.210236840694392"><ele>207.60000000000002</ele><time>2026-04-11T16:07:18.999Z</time></trkpt><trkpt lat="44.29147835322898" lon="11.210337051506498"><ele>206.8</ele><time>2026-04-11T16:07:19.999Z</time></trkpt><trkpt lat="44.29155294151249" lon="11.21041242680088"><ele>206.0</ele><time>2026-04-11T16:07:20.999Z</time></trkpt><trkpt lat="44.29163745593692" lon="11.210469232232354"><ele>207.50000000000003</ele><time>2026-04-11T16:07:21.999Z</time></trkpt><trkpt lat="44.291729401745414" lon="11.210514044263952"><ele>209.0</ele><time>2026-04-11T16:07:22.999Z</time></trkpt><trkpt lat="44.291818980076826" lon="11.210552988896191"><ele>210.5</ele><time>2026-04-11T16:07:23.999Z</time></trkpt><trkpt lat="44.291898269445674" lon="11.210575656499204"><ele>212.0</ele><time>2026-04-11T16:07:24.999Z</time></trkpt><trkpt lat="44.291977174949345" lon="11.210565765289845"><ele>213.50000000000003</ele><time>2026-04-11T16:07:25.999Z</time></trkpt><trkpt lat="44.29203994008129" lon="11.210483868931354"><ele>215.0</ele><time>2026-04-11T16:07:27.999Z</time></trkpt><trkpt lat="44.292067680569666" lon="11.210360987587654"><ele>215.0</ele><time>2026-04-11T16:07:29.999Z</time></trkpt><trkpt lat="44.2920779022891" lon="11.2102407021342"><ele>215.0</ele><time>2026-04-11T16:07:31.999Z</time></trkpt><trkpt lat="44.292083015731215" lon="11.210050688509373"><ele>215.0</ele><time>2026-04-11T16:07:33.999Z</time></trkpt><trkpt lat="44.2920856590695" lon="11.209928527084509"><ele>215.0</ele><time>2026-04-11T16:07:34.999Z</time></trkpt><trkpt lat="44.29210980754412" lon="11.209822782594456"><ele>215.0</ele><time>2026-04-11T16:07:35.999Z</time></trkpt><trkpt lat="44.292161413414945" lon="11.209758883413597"><ele>216.2</ele><time>2026-04-11T16:07:36.999Z</time></trkpt><trkpt lat="44.292230107389834" lon="11.209715191004785"><ele>217.4</ele><time>2026-04-11T16:07:37.999Z</time></trkpt><trkpt lat="44.29231742290415" lon="11.209627893747264"><ele>218.60000000000002</ele><time>2026-04-11T16:07:38.999Z</time></trkpt><trkpt lat="44.29239440164851" lon="11.209535339811145"><ele>219.8</ele><time>2026-04-11T16:07:39.999Z</time></trkpt><trkpt lat="44.29246036240976" lon="11.209427719876443"><ele>221.0</ele><time>2026-04-11T16:07:40.999Z</time></trkpt><trkpt lat="44.29252459117012" lon="11.20931171733983"><ele>221.8</ele><time>2026-04-11T16:07:41.999Z</time></trkpt><trkpt lat="44.292594539616594" lon="11.209174463255863"><ele>222.60000000000002</ele><time>2026-04-11T16:07:42.999Z</time></trkpt><trkpt lat="44.29262756223301" lon="11.209019205784347"><ele>223.4</ele><time>2026-04-11T16:07:43.999Z</time></trkpt><trkpt lat="44.29263887376336" lon="11.20886784083556"><ele>224.2</ele><time>2026-04-11T16:07:44.999Z</time></trkpt><trkpt lat="44.292624508639314" lon="11.208730898628003"><ele>225.0</ele><time>2026-04-11T16:07:45.998Z</time></trkpt><trkpt lat="44.29259518076317" lon="11.208603997922957"><ele>225.0</ele><time>2026-04-11T16:07:46.998Z</time></trkpt><trkpt lat="44.292544870620254" lon="11.20846959060842"><ele>225.0</ele><time>2026-04-11T16:07:47.998Z</time></trkpt><trkpt lat="44.292473967645606" lon="11.208320058017385"><ele>225.0</ele><time>2026-04-11T16:07:48.998Z</time></trkpt><trkpt lat="44.29241357223527" lon="11.208185539806179"><ele>225.0</ele><time>2026-04-11T16:07:49.998Z</time></trkpt><trkpt lat="44.29236022569311" lon="11.208044861237152"><ele>223.6</ele><time>2026-04-11T16:07:50.998Z</time></trkpt><trkpt lat="44.292322025853046" lon="11.207894877799813"><ele>222.2</ele><time>2026-04-11T16:07:51.998Z</time></trkpt><trkpt lat="44.29229420758409" lon="11.207758063895342"><ele>220.8</ele><time>2026-04-11T16:07:52.998Z</time></trkpt><trkpt lat="44.292288608486324" lon="11.207624198914505"><ele>219.4</ele><time>2026-04-11T16:07:53.998Z</time></trkpt><trkpt lat="44.29231204254393" lon="11.207499102209146"><ele>218.0</ele><time>2026-04-11T16:07:54.998Z</time></trkpt><trkpt lat="44.29235643981126" lon="11.20737974424777"><ele>218.33333333333334</ele><time>2026-04-11T16:07:55.998Z</time></trkpt><trkpt lat="44.29242015734122" lon="11.207275531894714"><ele>218.66666666666669</ele><time>2026-04-11T16:07:56.998Z</time></trkpt><trkpt lat="44.29247978236345" lon="11.207190098710994"><ele>219.0</ele><time>2026-04-11T16:07:57.998Z</time></trkpt><trkpt lat="44.2925355342151" lon="11.207109215286966"><ele>219.33333333333331</ele><time>2026-04-11T16:07:58.998Z</time></trkpt><trkpt lat="44.2925843242999" lon="11.207034014725846"><ele>219.66666666666666</ele><time>2026-04-11T16:07:59.998Z</time></trkpt><trkpt lat="44.29262703320285" lon="11.206952840499529"><ele>220.0</ele><time>2026-04-11T16:08:00.998Z</time></trkpt><trkpt lat="44.29267959152627" lon="11.20685974834704"><ele>219.99999999999997</ele><time>2026-04-11T16:08:01.998Z</time></trkpt><trkpt lat="44.292744213638876" lon="11.20675770287322"><ele>220.0</ele><time>2026-04-11T16:08:02.998Z</time></trkpt><trkpt lat="44.292820525343174" lon="11.206657871967343"><ele>220.0</ele><time>2026-04-11T16:08:03.998Z</time></trkpt><trkpt lat="44.292884513653576" lon="11.206576466252441"><ele>220.0</ele><time>2026-04-11T16:08:04.998Z</time></trkpt><trkpt lat="44.292932251105476" lon="11.206488484388831"><ele>219.99999999999997</ele><time>2026-04-11T16:08:05.998Z</time></trkpt><trkpt lat="44.29297850921676" lon="11.206413948218332"><ele>220.0</ele><time>2026-04-11T16:08:06.998Z</time></trkpt><trkpt lat="44.29306182268609" lon="11.206311834528075"><ele>220.0</ele><time>2026-04-11T16:08:09Z</time></trkpt><trkpt lat="44.29315767166494" lon="11.206214377767395"><ele>220.0</ele><time>2026-04-11T16:08:11Z</time></trkpt><trkpt lat="44.293225603302105" lon="11.206151190088942"><ele>220.0</ele><time>2026-04-11T16:08:12Z</time></trkpt><trkpt lat="44.29330008186095" lon="11.206069918172812"><ele>220.0</ele><time>2026-04-11T16:08:13Z</time></trkpt><trkpt lat="44.29338593664824" lon="11.205970305506233"><ele>220.0</ele><time>2026-04-11T16:08:14Z</time></trkpt><trkpt lat="44.29347756965587" lon="11.205855095210271"><ele>220.0</ele><time>2026-04-11T16:08:15Z</time></trkpt><trkpt lat="44.29357605105497" lon="11.20572916512707"><ele>220.0</ele><time>2026-04-11T16:08:16Z</time></trkpt><trkpt lat="44.29367397070072" lon="11.2055880784051"><ele>220.0</ele><time>2026-04-11T16:08:17Z</time></trkpt><trkpt lat="44.29377017109725" lon="11.205439783665394"><ele>220.0</ele><time>2026-04-11T16:08:18Z</time></trkpt><trkpt lat="44.29386831470824" lon="11.205333319647252"><ele>220.4</ele><time>2026-04-11T16:08:19Z</time></trkpt><trkpt lat="44.29393716050196" lon="11.205209751098996"><ele>220.8</ele><time>2026-04-11T16:08:20Z</time></trkpt><trkpt lat="44.29401504271738" lon="11.205130422374365"><ele>221.2</ele><time>2026-04-11T16:08:21Z</time></trkpt><trkpt lat="44.29409322492281" lon="11.205101212322191"><ele>221.6</ele><time>2026-04-11T16:08:22Z</time></trkpt><trkpt lat="44.29417704739749" lon="11.205109131781171"><ele>222.0</ele><time>2026-04-11T16:08:23Z</time></trkpt><trkpt lat="44.294263758430255" lon="11.205152673691245"><ele>222.0</ele><time>2026-04-11T16:08:24Z</time></trkpt><trkpt lat="44.29437178554956" lon="11.205181878301106"><ele>222.0</ele><time>2026-04-11T16:08:25Z</time></trkpt><trkpt lat="44.29450147590104" lon="11.20516824275716"><ele>222.0</ele><time>2026-04-11T16:08:26Z</time></trkpt><trkpt lat="44.294632733936446" lon="11.205123867257296"><ele>222.0</ele><time>2026-04-11T16:08:27Z</time></trkpt><trkpt lat="44.29476771226943" lon="11.205074646027064"><ele>223.5</ele><time>2026-04-11T16:08:28Z</time></trkpt><trkpt lat="44.29490866496491" lon="11.205010002135632"><ele>225.0</ele><time>2026-04-11T16:08:29Z</time></trkpt><trkpt lat="44.295046834956146" lon="11.204924227783382"><ele>226.5</ele><time>2026-04-11T16:08:30Z</time></trkpt><trkpt lat="44.29516127912111" lon="11.204841137020155"><ele>228.0</ele><time>2026-04-11T16:08:31Z</time></trkpt><trkpt lat="44.2952979420821" lon="11.204770279753784"><ele>230.75</ele><time>2026-04-11T16:08:32Z</time></trkpt><trkpt lat="44.29543778991805" lon="11.204733241822334"><ele>233.5</ele><time>2026-04-11T16:08:33Z</time></trkpt><trkpt lat="44.295593419259575" lon="11.204728082658297"><ele>236.25</ele><time>2026-04-11T16:08:34Z</time></trkpt><trkpt lat="44.29573786721457" lon="11.204722472567807"><ele>239.0</ele><time>2026-04-11T16:08:35Z</time></trkpt><trkpt lat="44.29587757777026" lon="11.204712878980018"><ele>239.0</ele><time>2026-04-11T16:08:36Z</time></trkpt><trkpt lat="44.29600490661348" lon="11.20467129710036"><ele>239.0</ele><time>2026-04-11T16:08:37Z</time></trkpt><trkpt lat="44.29613957170347" lon="11.204584920615865"><ele>239.0</ele><time>2026-04-11T16:08:38Z</time></trkpt><trkpt lat="44.29627241591229" lon="11.204462200504196"><ele>239.0</ele><time>2026-04-11T16:08:39Z</time></trkpt><trkpt lat="44.29640382538061" lon="11.204313398848457"><ele>237.66666666666669</ele><time>2026-04-11T16:08:40Z</time></trkpt><trkpt lat="44.29654458464363" lon="11.204190048598173"><ele>236.33333333333331</ele><time>2026-04-11T16:08:41Z</time></trkpt><trkpt lat="44.29667275392706" lon="11.204071508522345"><ele>235.0</ele><time>2026-04-11T16:08:42Z</time></trkpt><trkpt lat="44.29676949075133" lon="11.20394504903199"><ele>237.75</ele><time>2026-04-11T16:08:42.999Z</time></trkpt><trkpt lat="44.296862519335924" lon="11.203823756164116"><ele>240.5</ele><time>2026-04-11T16:08:43.999Z</time></trkpt><trkpt lat="44.29695529935016" lon="11.203671622084618"><ele>243.25</ele><time>2026-04-11T16:08:44.999Z</time></trkpt><trkpt lat="44.297026978447555" lon="11.203508385046218"><ele>246.0</ele><time>2026-04-11T16:08:45.999Z</time></trkpt><trkpt lat="44.29711309011129" lon="11.203385555137984"><ele>246.0</ele><time>2026-04-11T16:08:46.999Z</time></trkpt><trkpt lat="44.2972131479443" lon="11.203292471731473"><ele>246.0</ele><time>2026-04-11T16:08:47.999Z</time></trkpt><trkpt lat="44.29735200734267" lon="11.20319533621617"><ele>246.0</ele><time>2026-04-11T16:08:48.999Z</time></trkpt><trkpt lat="44.29748852942495" lon="11.203061414143441"><ele>246.0</ele><time>2026-04-11T16:08:49.999Z</time></trkpt><trkpt lat="44.29759887609262" lon="11.202939569143288"><ele>245.20000000000002</ele><time>2026-04-11T16:08:50.999Z</time></trkpt><trkpt lat="44.297695667178445" lon="11.20285213399626"><ele>244.40000000000003</ele><time>2026-04-11T16:08:51.999Z</time></trkpt><trkpt lat="44.29780095747414" lon="11.202839307382597"><ele>243.6</ele><time>2026-04-11T16:08:52.999Z</time></trkpt><trkpt lat="44.29790020529751" lon="11.202871149100677"><ele>242.8</ele><time>2026-04-11T16:08:53.999Z</time></trkpt><trkpt lat="44.29801939166244" lon="11.20285980985227"><ele>242.0</ele><time>2026-04-11T16:08:54.999Z</time></trkpt><trkpt lat="44.298143051560295" lon="11.202868437954697"><ele>242.0</ele><time>2026-04-11T16:08:55.999Z</time></trkpt><trkpt lat="44.29825892197004" lon="11.202812284255208"><ele>242.0</ele><time>2026-04-11T16:08:56.999Z</time></trkpt><trkpt lat="44.29837281504344" lon="11.2026987254134"><ele>242.0</ele><time>2026-04-11T16:08:57.999Z</time></trkpt><trkpt lat="44.29848943311362" lon="11.202592191832526"><ele>242.0</ele><time>2026-04-11T16:08:58.999Z</time></trkpt><trkpt lat="44.298603263084765" lon="11.202511518901066"><ele>242.0</ele><time>2026-04-11T16:08:59.999Z</time></trkpt><trkpt lat="44.29871255809792" lon="11.202431207756701"><ele>242.0</ele><time>2026-04-11T16:09:00.999Z</time></trkpt><trkpt lat="44.29882657926369" lon="11.202383424360217"><ele>242.0</ele><time>2026-04-11T16:09:01.999Z</time></trkpt><trkpt lat="44.298947106932715" lon="11.202344479231822"><ele>242.0</ele><time>2026-04-11T16:09:02.999Z</time></trkpt><trkpt lat="44.29906898913718" lon="11.202355927789943"><ele>243.25</ele><time>2026-04-11T16:09:03.999Z</time></trkpt><trkpt lat="44.29920153751484" lon="11.20239761937648"><ele>244.5</ele><time>2026-04-11T16:09:04.999Z</time></trkpt><trkpt lat="44.29933728571577" lon="11.20246256508335"><ele>245.75</ele><time>2026-04-11T16:09:05.999Z</time></trkpt><trkpt lat="44.29947094795802" lon="11.202530256746588"><ele>247.0</ele><time>2026-04-11T16:09:06.999Z</time></trkpt><trkpt lat="44.29961440403392" lon="11.202572198299372"><ele>248.0</ele><time>2026-04-11T16:09:07.999Z</time></trkpt><trkpt lat="44.29977558606749" lon="11.20255481171073"><ele>249.0</ele><time>2026-04-11T16:09:08.999Z</time></trkpt><trkpt lat="44.29994333396487" lon="11.202495688142598"><ele>250.0</ele><time>2026-04-11T16:09:09.999Z</time></trkpt><trkpt lat="44.30009067625487" lon="11.202456617772672"><ele>250.0</ele><time>2026-04-11T16:09:10.999Z</time></trkpt><trkpt lat="44.30020315460566" lon="11.202438906729778"><ele>250.0</ele><time>2026-04-11T16:09:11.999Z</time></trkpt><trkpt lat="44.30030229667982" lon="11.202463049792899"><ele>250.0</ele><time>2026-04-11T16:09:12.999Z</time></trkpt><trkpt lat="44.3004165824279" lon="11.202516174627027"><ele>250.0</ele><time>2026-04-11T16:09:13.999Z</time></trkpt><trkpt lat="44.300531052615455" lon="11.202629319007084"><ele>252.5</ele><time>2026-04-11T16:09:14.999Z</time></trkpt><trkpt lat="44.30064768158778" lon="11.202750475612012"><ele>255.0</ele><time>2026-04-11T16:09:15.999Z</time></trkpt><trkpt lat="44.30078819375387" lon="11.202861498311519"><ele>257.5</ele><time>2026-04-11T16:09:16.999Z</time></trkpt><trkpt lat="44.300919705618156" lon="11.202921877569997"><ele>260.0</ele><time>2026-04-11T16:09:17.999Z</time></trkpt><trkpt lat="44.30105892642786" lon="11.202964893304282"><ele>260.0</ele><time>2026-04-11T16:09:18.999Z</time></trkpt><trkpt lat="44.301217559819186" lon="11.20297905681385"><ele>260.0</ele><time>2026-04-11T16:09:19.999Z</time></trkpt><trkpt lat="44.301380605111426" lon="11.202993437581943"><ele>260.0</ele><time>2026-04-11T16:09:20.999Z</time></trkpt><trkpt lat="44.301512557327456" lon="11.203013495211543"><ele>262.0</ele><time>2026-04-11T16:09:21.999Z</time></trkpt><trkpt lat="44.301628505382304" lon="11.203050714373344"><ele>264.0</ele><time>2026-04-11T16:09:22.999Z</time></trkpt><trkpt lat="44.30173759676058" lon="11.203117247717975"><ele>266.0</ele><time>2026-04-11T16:09:23.999Z</time></trkpt><trkpt lat="44.30182789201736" lon="11.203226156679005"><ele>268.0</ele><time>2026-04-11T16:09:24.999Z</time></trkpt><trkpt lat="44.30191571462576" lon="11.203363200786919"><ele>268.0</ele><time>2026-04-11T16:09:25.999Z</time></trkpt><trkpt lat="44.30200596911817" lon="11.203470958841264"><ele>268.0</ele><time>2026-04-11T16:09:26.999Z</time></trkpt><trkpt lat="44.30213064595201" lon="11.203510911623948"><ele>268.0</ele><time>2026-04-11T16:09:27.999Z</time></trkpt><trkpt lat="44.30226986865474" lon="11.203504718523725"><ele>268.0</ele><time>2026-04-11T16:09:28.999Z</time></trkpt><trkpt lat="44.302409829785965" lon="11.203501705179809"><ele>270.0</ele><time>2026-04-11T16:09:29.999Z</time></trkpt><trkpt lat="44.30255072301435" lon="11.20350978640114"><ele>272.0</ele><time>2026-04-11T16:09:30.999Z</time></trkpt><trkpt lat="44.302700790715555" lon="11.203533042434621"><ele>274.0</ele><time>2026-04-11T16:09:31.999Z</time></trkpt><trkpt lat="44.302858278293236" lon="11.203547430667479"><ele>274.0</ele><time>2026-04-11T16:09:32.999Z</time></trkpt><trkpt lat="44.30303285698063" lon="11.2035220340551"><ele>274.0</ele><time>2026-04-11T16:09:33.999Z</time></trkpt><trkpt lat="44.30319735122388" lon="11.203474773415474"><ele>274.0</ele><time>2026-04-11T16:09:34.999Z</time></trkpt><trkpt lat="44.303379146400076" lon="11.203436147605425"><ele>278.3333333333333</ele><time>2026-04-11T16:09:35.999Z</time></trkpt><trkpt lat="44.303564051479185" lon="11.203418936681787"><ele>282.6666666666667</ele><time>2026-04-11T16:09:36.999Z</time></trkpt><trkpt lat="44.30374847740444" lon="11.203413874946865"><ele>287.0</ele><time>2026-04-11T16:09:37.999Z</time></trkpt><trkpt lat="44.303938687641754" lon="11.203409173746412"><ele>290.0</ele><time>2026-04-11T16:09:38.999Z</time></trkpt><trkpt lat="44.304115932255634" lon="11.203393722934917"><ele>293.0</ele><time>2026-04-11T16:09:39.999Z</time></trkpt><trkpt lat="44.30428738954797" lon="11.203380139882091"><ele>296.0</ele><time>2026-04-11T16:09:40.999Z</time></trkpt><trkpt lat="44.30444513299858" lon="11.203360263670586"><ele>296.0</ele><time>2026-04-11T16:09:41.999Z</time></trkpt><trkpt lat="44.30459087595954" lon="11.203333829417044"><ele>296.0</ele><time>2026-04-11T16:09:42.999Z</time></trkpt><trkpt lat="44.30472762777161" lon="11.203293205793575"><ele>296.0</ele><time>2026-04-11T16:09:43.999Z</time></trkpt><trkpt lat="44.304840538551645" lon="11.20323035485778"><ele>296.0</ele><time>2026-04-11T16:09:44.999Z</time></trkpt><trkpt lat="44.30495413889618" lon="11.203140916082827"><ele>300.5</ele><time>2026-04-11T16:09:45.999Z</time></trkpt><trkpt lat="44.305059373426545" lon="11.203046790297808"><ele>305.0</ele><time>2026-04-11T16:09:46.999Z</time></trkpt><trkpt lat="44.30515911673085" lon="11.202954133302464"><ele>309.5</ele><time>2026-04-11T16:09:47.999Z</time></trkpt><trkpt lat="44.3052454603729" lon="11.202850116875645"><ele>314.0</ele><time>2026-04-11T16:09:48.999Z</time></trkpt><trkpt lat="44.30532666790444" lon="11.202712597739682"><ele>314.0</ele><time>2026-04-11T16:09:49.999Z</time></trkpt><trkpt lat="44.30539641853584" lon="11.202563861415353"><ele>314.0</ele><time>2026-04-11T16:09:50.999Z</time></trkpt><trkpt lat="44.30546374774693" lon="11.202399430306338"><ele>314.0</ele><time>2026-04-11T16:09:51.999Z</time></trkpt><trkpt lat="44.3055270118577" lon="11.202258856367703"><ele>314.0</ele><time>2026-04-11T16:09:52.999Z</time></trkpt><trkpt lat="44.305613706524454" lon="11.202159151037776"><ele>316.6</ele><time>2026-04-11T16:09:53.999Z</time></trkpt><trkpt lat="44.30568061561758" lon="11.202089927757948"><ele>319.2</ele><time>2026-04-11T16:09:54.999Z</time></trkpt><trkpt lat="44.30577039754383" lon="11.202046952075012"><ele>321.8</ele><time>2026-04-11T16:09:55.999Z</time></trkpt><trkpt lat="44.305867132800664" lon="11.202041242576147"><ele>324.40000000000003</ele><time>2026-04-11T16:09:56.999Z</time></trkpt><trkpt lat="44.30597387246319" lon="11.202069439803319"><ele>327.0</ele><time>2026-04-11T16:09:57.999Z</time></trkpt><trkpt lat="44.30607835670951" lon="11.20215371707986"><ele>327.0</ele><time>2026-04-11T16:09:58.999Z</time></trkpt><trkpt lat="44.3061949127199" lon="11.202231141556446"><ele>327.0</ele><time>2026-04-11T16:09:59.999Z</time></trkpt><trkpt lat="44.30632104231297" lon="11.202320838917903"><ele>327.0</ele><time>2026-04-11T16:10:00.999Z</time></trkpt><trkpt lat="44.30645855193783" lon="11.202400561965394"><ele>327.0</ele><time>2026-04-11T16:10:01.999Z</time></trkpt><trkpt lat="44.306603899269994" lon="11.202508037072143"><ele>327.0</ele><time>2026-04-11T16:10:02.999Z</time></trkpt><trkpt lat="44.30674396033505" lon="11.20264227850021"><ele>327.0</ele><time>2026-04-11T16:10:03.999Z</time></trkpt><trkpt lat="44.306868693635636" lon="11.20279595161695"><ele>327.0</ele><time>2026-04-11T16:10:04.998Z</time></trkpt><trkpt lat="44.30696385005449" lon="11.202952472322009"><ele>327.0</ele><time>2026-04-11T16:10:05.998Z</time></trkpt><trkpt lat="44.30704723813365" lon="11.203086787735742"><ele>327.0</ele><time>2026-04-11T16:10:06.998Z</time></trkpt><trkpt lat="44.307131095525264" lon="11.203194973506173"><ele>327.0</ele><time>2026-04-11T16:10:07.998Z</time></trkpt><trkpt lat="44.30721717272361" lon="11.203252107615162"><ele>327.0</ele><time>2026-04-11T16:10:08.998Z</time></trkpt><trkpt lat="44.30730314865435" lon="11.203242133230791"><ele>327.0</ele><time>2026-04-11T16:10:09.998Z</time></trkpt><trkpt lat="44.30737639503142" lon="11.203175712862729"><ele>331.0</ele><time>2026-04-11T16:10:10.998Z</time></trkpt><trkpt lat="44.30743189540125" lon="11.203051998925556"><ele>335.0</ele><time>2026-04-11T16:10:11.998Z</time></trkpt><trkpt lat="44.30746824687313" lon="11.202905978929298"><ele>339.0</ele><time>2026-04-11T16:10:12.998Z</time></trkpt><trkpt lat="44.30751680741065" lon="11.202764752634348"><ele>343.0</ele><time>2026-04-11T16:10:14Z</time></trkpt><trkpt lat="44.30755397414489" lon="11.202606686591771"><ele>347.0</ele><time>2026-04-11T16:10:15Z</time></trkpt><trkpt lat="44.30758992216445" lon="11.20246029871349"><ele>347.0</ele><time>2026-04-11T16:10:16Z</time></trkpt><trkpt lat="44.30762282231726" lon="11.202353765686148"><ele>347.0</ele><time>2026-04-11T16:10:17Z</time></trkpt><trkpt lat="44.30770845056183" lon="11.202332023385395"><ele>347.0</ele><time>2026-04-11T16:10:19Z</time></trkpt><trkpt lat="44.30777545709092" lon="11.202477351021988"><ele>347.0</ele><time>2026-04-11T16:10:21Z</time></trkpt><trkpt lat="44.30780726268562" lon="11.202563269356295"><ele>347.0</ele><time>2026-04-11T16:10:22Z</time></trkpt><trkpt lat="44.30785202589923" lon="11.20265997205237"><ele>347.0</ele><time>2026-04-11T16:10:23Z</time></trkpt><trkpt lat="44.30792677652458" lon="11.20273123086779"><ele>347.0</ele><time>2026-04-11T16:10:24Z</time></trkpt><trkpt lat="44.30802373152514" lon="11.202741632483413"><ele>347.0</ele><time>2026-04-11T16:10:25Z</time></trkpt><trkpt lat="44.30811509755528" lon="11.202693222360402"><ele>347.0</ele><time>2026-04-11T16:10:26Z</time></trkpt><trkpt lat="44.30819240355858" lon="11.202589605255344"><ele>347.0</ele><time>2026-04-11T16:10:27Z</time></trkpt><trkpt lat="44.30825595066122" lon="11.202466660265031"><ele>347.0</ele><time>2026-04-11T16:10:28Z</time></trkpt><trkpt lat="44.308320936039216" lon="11.202326959139402"><ele>350.5</ele><time>2026-04-11T16:10:29Z</time></trkpt><trkpt lat="44.308389131715224" lon="11.20218252589571"><ele>354.0</ele><time>2026-04-11T16:10:30Z</time></trkpt><trkpt lat="44.30846528328055" lon="11.202026543911572"><ele>357.5</ele><time>2026-04-11T16:10:31Z</time></trkpt><trkpt lat="44.308549984585035" lon="11.20188021931127"><ele>361.0</ele><time>2026-04-11T16:10:32Z</time></trkpt><trkpt lat="44.30864700787596" lon="11.20173626205099"><ele>361.0</ele><time>2026-04-11T16:10:33Z</time></trkpt><trkpt lat="44.30872995515691" lon="11.201595681508993"><ele>361.0</ele><time>2026-04-11T16:10:34Z</time></trkpt><trkpt lat="44.30878997581744" lon="11.201473564414089"><ele>361.0</ele><time>2026-04-11T16:10:35Z</time></trkpt><trkpt lat="44.30883738899468" lon="11.201368987512437"><ele>361.0</ele><time>2026-04-11T16:10:36Z</time></trkpt><trkpt lat="44.3088967805655" lon="11.201283083944764"><ele>361.0</ele><time>2026-04-11T16:10:37Z</time></trkpt><trkpt lat="44.3089795800982" lon="11.201238557787944"><ele>365.0</ele><time>2026-04-11T16:10:38Z</time></trkpt><trkpt lat="44.30907875889803" lon="11.201258890717734"><ele>369.0</ele><time>2026-04-11T16:10:39Z</time></trkpt><trkpt lat="44.30917964490346" lon="11.201331512714688"><ele>373.0</ele><time>2026-04-11T16:10:40Z</time></trkpt><trkpt lat="44.309281515269056" lon="11.201400500154557"><ele>377.0</ele><time>2026-04-11T16:10:41Z</time></trkpt><trkpt lat="44.309395006638695" lon="11.201464562330667"><ele>381.0</ele><time>2026-04-11T16:10:42Z</time></trkpt><trkpt lat="44.30952014888065" lon="11.20152720197982"><ele>381.0</ele><time>2026-04-11T16:10:43Z</time></trkpt><trkpt lat="44.30963338825084" lon="11.201568314261518"><ele>381.0</ele><time>2026-04-11T16:10:44Z</time></trkpt><trkpt lat="44.309733165065694" lon="11.201581177444218"><ele>381.0</ele><time>2026-04-11T16:10:45Z</time></trkpt><trkpt lat="44.309810890992345" lon="11.201554053707433"><ele>381.0</ele><time>2026-04-11T16:10:46Z</time></trkpt><trkpt lat="44.309877189653164" lon="11.201497470185402"><ele>381.0</ele><time>2026-04-11T16:10:47Z</time></trkpt><trkpt lat="44.30991335580181" lon="11.20138107688095"><ele>385.6</ele><time>2026-04-11T16:10:48Z</time></trkpt><trkpt lat="44.30990648189463" lon="11.201243397574007"><ele>390.20000000000005</ele><time>2026-04-11T16:10:49Z</time></trkpt><trkpt lat="44.30987679060948" lon="11.201104192246374"><ele>394.79999999999995</ele><time>2026-04-11T16:10:50Z</time></trkpt><trkpt lat="44.30983901497923" lon="11.200958595148585"><ele>399.4</ele><time>2026-04-11T16:10:51Z</time></trkpt><trkpt lat="44.309804379439186" lon="11.20080379087622"><ele>404.0</ele><time>2026-04-11T16:10:52Z</time></trkpt><trkpt lat="44.309774665032926" lon="11.200631924249134"><ele>405.66666666666663</ele><time>2026-04-11T16:10:53Z</time></trkpt><trkpt lat="44.309747099115846" lon="11.200426793420329"><ele>407.33333333333337</ele><time>2026-04-11T16:10:54Z</time></trkpt><trkpt lat="44.3097232719305" lon="11.200209552832566"><ele>409.0</ele><time>2026-04-11T16:10:55Z</time></trkpt><trkpt lat="44.3096989415134" lon="11.199975972970588"><ele>409.0</ele><time>2026-04-11T16:10:56Z</time></trkpt><trkpt lat="44.30967344661269" lon="11.199766389592257"><ele>409.0</ele><time>2026-04-11T16:10:57Z</time></trkpt><trkpt lat="44.30965340298777" lon="11.199593067726424"><ele>409.0</ele><time>2026-04-11T16:10:58Z</time></trkpt><trkpt lat="44.30963408560709" lon="11.199439482167108"><ele>409.0</ele><time>2026-04-11T16:10:58.999Z</time></trkpt><trkpt lat="44.309626700851" lon="11.19931655874071"><ele>409.0</ele><time>2026-04-11T16:10:59.999Z</time></trkpt><trkpt lat="44.30964027677641" lon="11.19921987361378"><ele>409.0</ele><time>2026-04-11T16:11:00.999Z</time></trkpt><trkpt lat="44.30970534838761" lon="11.199147039544714"><ele>409.0</ele><time>2026-04-11T16:11:01.999Z</time></trkpt><trkpt lat="44.30980905744354" lon="11.199112679062202"><ele>409.0</ele><time>2026-04-11T16:11:02.999Z</time></trkpt><trkpt lat="44.30992114623553" lon="11.199120784051946"><ele>409.0</ele><time>2026-04-11T16:11:03.999Z</time></trkpt><trkpt lat="44.310034282622425" lon="11.199148376730685"><ele>411.0</ele><time>2026-04-11T16:11:04.999Z</time></trkpt><trkpt lat="44.31016022844928" lon="11.199147515104215"><ele>413.0</ele><time>2026-04-11T16:11:05.999Z</time></trkpt><trkpt lat="44.310291540528695" lon="11.199156628728705"><ele>415.0</ele><time>2026-04-11T16:11:06.999Z</time></trkpt><trkpt lat="44.31041867948837" lon="11.199169213249862"><ele>417.0</ele><time>2026-04-11T16:11:07.999Z</time></trkpt><trkpt lat="44.31051308344301" lon="11.199180873934626"><ele>418.6666666666667</ele><time>2026-04-11T16:11:08.999Z</time></trkpt><trkpt lat="44.310596993453046" lon="11.19919646888324"><ele>420.33333333333337</ele><time>2026-04-11T16:11:09.999Z</time></trkpt><trkpt lat="44.310684289037866" lon="11.199204144492505"><ele>422.0</ele><time>2026-04-11T16:11:10.999Z</time></trkpt><trkpt lat="44.31077297812581" lon="11.199201702057843"><ele>423.6666666666667</ele><time>2026-04-11T16:11:11.999Z</time></trkpt><trkpt lat="44.310859676967866" lon="11.199173759173165"><ele>425.33333333333337</ele><time>2026-04-11T16:11:12.999Z</time></trkpt><trkpt lat="44.310927091443666" lon="11.199142255754136"><ele>427.0</ele><time>2026-04-11T16:11:13.999Z</time></trkpt><trkpt lat="44.311014206094534" lon="11.199096946855295"><ele>427.00000000000006</ele><time>2026-04-11T16:11:14.999Z</time></trkpt><trkpt lat="44.311092180850515" lon="11.199034224552019"><ele>427.0</ele><time>2026-04-11T16:11:15.999Z</time></trkpt><trkpt lat="44.31115837619198" lon="11.198944393548524"><ele>427.0</ele><time>2026-04-11T16:11:16.999Z</time></trkpt><trkpt lat="44.31120287931087" lon="11.19884910187164"><ele>427.0</ele><time>2026-04-11T16:11:17.999Z</time></trkpt><trkpt lat="44.31120419221693" lon="11.198749490199491"><ele>427.00000000000006</ele><time>2026-04-11T16:11:18.999Z</time></trkpt><trkpt lat="44.311174006848326" lon="11.198658085015786"><ele>427.0</ele><time>2026-04-11T16:11:19.999Z</time></trkpt><trkpt lat="44.311119146153985" lon="11.19860240224002"><ele>425.50000000000006</ele><time>2026-04-11T16:11:21.999Z</time></trkpt><trkpt lat="44.31107993902007" lon="11.198530328937105"><ele>424.0</ele><time>2026-04-11T16:11:27.999Z</time></trkpt><trkpt lat="44.311028453658245" lon="11.198455857999972"><ele>422.5</ele><time>2026-04-11T16:11:37.999Z</time></trkpt><trkpt lat="44.3109709321238" lon="11.198381653066024"><ele>421.0</ele><time>2026-04-11T16:11:39.999Z</time></trkpt><trkpt lat="44.31088497478" lon="11.198292179926389"><ele>419.50000000000006</ele><time>2026-04-11T16:11:41.999Z</time></trkpt><trkpt lat="44.31079901499235" lon="11.198180584991192"><ele>418.0</ele><time>2026-04-11T16:11:43.999Z</time></trkpt><trkpt lat="44.31076428514672" lon="11.198091063329983"><ele>418.42857142857144</ele><time>2026-04-11T16:11:45.999Z</time></trkpt><trkpt lat="44.310715833798454" lon="11.198030081292542"><ele>418.85714285714283</ele><time>2026-04-11T16:11:47.999Z</time></trkpt><trkpt lat="44.31066624341338" lon="11.197972307539288"><ele>419.28571428571433</ele><time>2026-04-11T16:11:48.999Z</time></trkpt><trkpt lat="44.31059855243947" lon="11.197920613572"><ele>419.7142857142857</ele><time>2026-04-11T16:11:49.999Z</time></trkpt><trkpt lat="44.31055303651437" lon="11.197820831821149"><ele>420.14285714285717</ele><time>2026-04-11T16:11:50.999Z</time></trkpt><trkpt lat="44.31050418138311" lon="11.197733183615771"><ele>420.5714285714286</ele><time>2026-04-11T16:11:51.999Z</time></trkpt><trkpt lat="44.31047318520271" lon="11.197642504540624"><ele>421.0</ele><time>2026-04-11T16:11:52.999Z</time></trkpt><trkpt lat="44.31044000061414" lon="11.197561039987505"><ele>421.00000000000006</ele><time>2026-04-11T16:11:53.999Z</time></trkpt><trkpt lat="44.310380960209436" lon="11.19742361684174"><ele>421.0</ele><time>2026-04-11T16:11:55.999Z</time></trkpt><trkpt lat="44.310336116009225" lon="11.197345296025693"><ele>421.0</ele><time>2026-04-11T16:11:56.999Z</time></trkpt><trkpt lat="44.310295546196585" lon="11.197254287277316"><ele>421.0</ele><time>2026-04-11T16:11:57.999Z</time></trkpt><trkpt lat="44.31027622533211" lon="11.197161984341337"><ele>421.00000000000006</ele><time>2026-04-11T16:11:58.999Z</time></trkpt><trkpt lat="44.310228665847625" lon="11.197045942441846"><ele>421.0</ele><time>2026-04-11T16:12:00.999Z</time></trkpt><trkpt lat="44.310244988209625" lon="11.196931473353937"><ele>419.0</ele><time>2026-04-11T16:12:04.999Z</time></trkpt><trkpt lat="44.31034535600248" lon="11.196909453244803"><ele>417.0</ele><time>2026-04-11T16:12:06.999Z</time></trkpt><trkpt lat="44.31039860153838" lon="11.196985214281604"><ele>415.0</ele><time>2026-04-11T16:12:07.999Z</time></trkpt><trkpt lat="44.3104772992287" lon="11.197101884658851"><ele>413.0</ele><time>2026-04-11T16:12:09.999Z</time></trkpt><trkpt lat="44.3105729387763" lon="11.19717430586354"><ele>411.0</ele><time>2026-04-11T16:12:11.999Z</time></trkpt><trkpt lat="44.310683979578485" lon="11.197136894487448"><ele>408.0</ele><time>2026-04-11T16:12:13.999Z</time></trkpt><trkpt lat="44.31078132914475" lon="11.197086551103634"><ele>405.0</ele><time>2026-04-11T16:12:15.999Z</time></trkpt><trkpt lat="44.31077309815481" lon="11.196912322413146"><ele>402.0</ele><time>2026-04-11T16:12:16.999Z</time></trkpt><trkpt lat="44.3107913478991" lon="11.196802913519642"><ele>399.0</ele><time>2026-04-11T16:12:17.999Z</time></trkpt><trkpt lat="44.31078261820151" lon="11.196674173185617"><ele>396.0</ele><time>2026-04-11T16:12:18.999Z</time></trkpt><trkpt lat="44.31076891435225" lon="11.196553530986241"><ele>395.1666666666667</ele><time>2026-04-11T16:12:20Z</time></trkpt><trkpt lat="44.31075080055956" lon="11.196432443224202"><ele>394.33333333333337</ele><time>2026-04-11T16:12:21Z</time></trkpt><trkpt lat="44.31073171431643" lon="11.196325361558708"><ele>393.5</ele><time>2026-04-11T16:12:22Z</time></trkpt><trkpt lat="44.31070945860712" lon="11.196232848073286"><ele>392.6666666666667</ele><time>2026-04-11T16:12:23Z</time></trkpt><trkpt lat="44.310678231787044" lon="11.196130005950705"><ele>391.83333333333337</ele><time>2026-04-11T16:12:24Z</time></trkpt><trkpt lat="44.310628160607855" lon="11.196031940687673"><ele>391.0</ele><time>2026-04-11T16:12:25Z</time></trkpt><trkpt lat="44.31058184452538" lon="11.195938985986487"><ele>392.33333333333337</ele><time>2026-04-11T16:12:26Z</time></trkpt><trkpt lat="44.31054745505281" lon="11.195841934486136"><ele>393.6666666666667</ele><time>2026-04-11T16:12:27Z</time></trkpt><trkpt lat="44.31053037896836" lon="11.195737835465874"><ele>395.0</ele><time>2026-04-11T16:12:28Z</time></trkpt><trkpt lat="44.31051676137833" lon="11.195627531513054"><ele>396.33333333333337</ele><time>2026-04-11T16:12:29Z</time></trkpt><trkpt lat="44.31050444030442" lon="11.195510844099847"><ele>397.6666666666667</ele><time>2026-04-11T16:12:30Z</time></trkpt><trkpt lat="44.310483160439" lon="11.195392027426376"><ele>399.0</ele><time>2026-04-11T16:12:31Z</time></trkpt><trkpt lat="44.31048775877322" lon="11.195262175260218"><ele>394.0</ele><time>2026-04-11T16:12:32Z</time></trkpt><trkpt lat="44.31049104707779" lon="11.195132351661858"><ele>389.0</ele><time>2026-04-11T16:12:33Z</time></trkpt><trkpt lat="44.31049866615029" lon="11.19499666846785"><ele>384.0</ele><time>2026-04-11T16:12:34Z</time></trkpt><trkpt lat="44.310498438945785" lon="11.194848422593134"><ele>379.0</ele><time>2026-04-11T16:12:35Z</time></trkpt><trkpt lat="44.31049865732775" lon="11.194700757959104"><ele>374.0</ele><time>2026-04-11T16:12:36Z</time></trkpt><trkpt lat="44.31049439450266" lon="11.194556934114006"><ele>371.0</ele><time>2026-04-11T16:12:37Z</time></trkpt><trkpt lat="44.31049055926441" lon="11.194456721880918"><ele>368.0</ele><time>2026-04-11T16:12:38Z</time></trkpt><trkpt lat="44.31046151962758" lon="11.194366486094497"><ele>365.0</ele><time>2026-04-11T16:12:39Z</time></trkpt><trkpt lat="44.310450319309105" lon="11.194274460330679"><ele>362.0</ele><time>2026-04-11T16:12:40Z</time></trkpt><trkpt lat="44.31047784530902" lon="11.194062065735416"><ele>359.0</ele><time>2026-04-11T16:12:41Z</time></trkpt><trkpt lat="44.31047960540106" lon="11.193922450871609"><ele>357.2</ele><time>2026-04-11T16:12:42Z</time></trkpt><trkpt lat="44.3104706266194" lon="11.19378899415709"><ele>355.4</ele><time>2026-04-11T16:12:43Z</time></trkpt><trkpt lat="44.31048369426889" lon="11.193644778248053"><ele>353.6</ele><time>2026-04-11T16:12:44Z</time></trkpt><trkpt lat="44.31050719590964" lon="11.193500068476471"><ele>351.8</ele><time>2026-04-11T16:12:45Z</time></trkpt><trkpt lat="44.31052002509714" lon="11.193353215318302"><ele>350.0</ele><time>2026-04-11T16:12:46Z</time></trkpt><trkpt lat="44.31053103875061" lon="11.19321122770435"><ele>349.5</ele><time>2026-04-11T16:12:47Z</time></trkpt><trkpt lat="44.3105357386747" lon="11.193089212447134"><ele>349.0</ele><time>2026-04-11T16:12:48Z</time></trkpt><trkpt lat="44.31053867477121" lon="11.192965674534255"><ele>348.5</ele><time>2026-04-11T16:12:49Z</time></trkpt><trkpt lat="44.31054855237216" lon="11.192856825291072"><ele>348.0</ele><time>2026-04-11T16:12:50Z</time></trkpt><trkpt lat="44.310543253784054" lon="11.192753021730503"><ele>347.5</ele><time>2026-04-11T16:12:51Z</time></trkpt><trkpt lat="44.31056055891917" lon="11.192646457124578"><ele>347.0</ele><time>2026-04-11T16:12:52Z</time></trkpt><trkpt lat="44.31059019269029" lon="11.192563387881348"><ele>347.0</ele><time>2026-04-11T16:12:53Z</time></trkpt><trkpt lat="44.31064276128286" lon="11.192477213592138"><ele>347.0</ele><time>2026-04-11T16:12:54Z</time></trkpt><trkpt lat="44.31074026288224" lon="11.192437121081168"><ele>347.0</ele><time>2026-04-11T16:12:55Z</time></trkpt><trkpt lat="44.31083117364503" lon="11.192375161309993"><ele>347.0</ele><time>2026-04-11T16:12:56Z</time></trkpt><trkpt lat="44.31092335556674" lon="11.19232449652115"><ele>347.0</ele><time>2026-04-11T16:12:57Z</time></trkpt><trkpt lat="44.311001082236885" lon="11.192294462678452"><ele>346.0</ele><time>2026-04-11T16:12:58Z</time></trkpt><trkpt lat="44.31114082203016" lon="11.192288088344633"><ele>345.0</ele><time>2026-04-11T16:13:00Z</time></trkpt><trkpt lat="44.311219703460075" lon="11.192290725383048"><ele>344.0</ele><time>2026-04-11T16:13:01Z</time></trkpt><trkpt lat="44.31130812440445" lon="11.19228558571335"><ele>343.0</ele><time>2026-04-11T16:13:02Z</time></trkpt><trkpt lat="44.31138956682654" lon="11.192285585716537"><ele>342.0</ele><time>2026-04-11T16:13:03Z</time></trkpt><trkpt lat="44.31147212137265" lon="11.192267054751616"><ele>342.0</ele><time>2026-04-11T16:13:04Z</time></trkpt><trkpt lat="44.31154822338328" lon="11.192198042151341"><ele>342.0</ele><time>2026-04-11T16:13:05Z</time></trkpt><trkpt lat="44.31157805003255" lon="11.192058861844025"><ele>342.0</ele><time>2026-04-11T16:13:06Z</time></trkpt><trkpt lat="44.311618853342786" lon="11.191939873661518"><ele>342.0</ele><time>2026-04-11T16:13:07Z</time></trkpt><trkpt lat="44.311664012638545" lon="11.191833845814084"><ele>342.0</ele><time>2026-04-11T16:13:08Z</time></trkpt><trkpt lat="44.311700776336544" lon="11.191738275711916"><ele>342.0</ele><time>2026-04-11T16:13:09Z</time></trkpt><trkpt lat="44.311738780107255" lon="11.191636820871912"><ele>342.0</ele><time>2026-04-11T16:13:10Z</time></trkpt><trkpt lat="44.31175678557805" lon="11.191530762980745"><ele>342.0</ele><time>2026-04-11T16:13:11Z</time></trkpt><trkpt lat="44.31179685843716" lon="11.191442727611735"><ele>342.0</ele><time>2026-04-11T16:13:12Z</time></trkpt><trkpt lat="44.311818342317174" lon="11.19135899289037"><ele>342.0</ele><time>2026-04-11T16:13:13Z</time></trkpt><trkpt lat="44.31184969181361" lon="11.191227709589198"><ele>342.0</ele><time>2026-04-11T16:13:15Z</time></trkpt><trkpt lat="44.31192393927217" lon="11.191148677940431"><ele>342.0</ele><time>2026-04-11T16:13:17Z</time></trkpt><trkpt lat="44.311979242315104" lon="11.191098133127099"><ele>342.0</ele><time>2026-04-11T16:13:18Z</time></trkpt><trkpt lat="44.312059626584976" lon="11.191118411737786"><ele>342.0</ele><time>2026-04-11T16:13:19Z</time></trkpt><trkpt lat="44.312104744784136" lon="11.191192438283009"><ele>342.0</ele><time>2026-04-11T16:13:20Z</time></trkpt><trkpt lat="44.31209360855145" lon="11.191297757274803"><ele>342.0</ele><time>2026-04-11T16:13:21Z</time></trkpt><trkpt lat="44.312156056104094" lon="11.191461171343365"><ele>342.0</ele><time>2026-04-11T16:13:23Z</time></trkpt><trkpt lat="44.31219028655478" lon="11.19155101840255"><ele>342.0</ele><time>2026-04-11T16:13:24Z</time></trkpt><trkpt lat="44.312223668926094" lon="11.191646740045238"><ele>342.0</ele><time>2026-04-11T16:13:24.999Z</time></trkpt><trkpt lat="44.31225144426002" lon="11.191741158976937"><ele>342.0</ele><time>2026-04-11T16:13:25.999Z</time></trkpt><trkpt lat="44.312274706823516" lon="11.191841363738773"><ele>342.0</ele><time>2026-04-11T16:13:26.999Z</time></trkpt><trkpt lat="44.31232388250892" lon="11.191921754671103"><ele>342.0</ele><time>2026-04-11T16:13:27.999Z</time></trkpt><trkpt lat="44.312384406531" lon="11.191993300492467"><ele>342.0</ele><time>2026-04-11T16:13:28.999Z</time></trkpt><trkpt lat="44.31246587283456" lon="11.192027161819544"><ele>341.20000000000005</ele><time>2026-04-11T16:13:29.999Z</time></trkpt><trkpt lat="44.31255924027034" lon="11.19199998715373"><ele>340.4</ele><time>2026-04-11T16:13:30.999Z</time></trkpt><trkpt lat="44.312664987139" lon="11.191951111339403"><ele>339.6</ele><time>2026-04-11T16:13:31.999Z</time></trkpt><trkpt lat="44.31274739618997" lon="11.19188724054433"><ele>338.79999999999995</ele><time>2026-04-11T16:13:32.999Z</time></trkpt><trkpt lat="44.312833649308956" lon="11.191817778988367"><ele>338.0</ele><time>2026-04-11T16:13:33.999Z</time></trkpt><trkpt lat="44.31291175439397" lon="11.191728344441643"><ele>338.0</ele><time>2026-04-11T16:13:34.999Z</time></trkpt><trkpt lat="44.31299960036714" lon="11.191674216300292"><ele>338.0</ele><time>2026-04-11T16:13:35.999Z</time></trkpt><trkpt lat="44.313063748548316" lon="11.191623861268669"><ele>338.0</ele><time>2026-04-11T16:13:36.999Z</time></trkpt><trkpt lat="44.31314578848207" lon="11.191521902223542"><ele>338.0</ele><time>2026-04-11T16:13:38.999Z</time></trkpt><trkpt lat="44.31319227606437" lon="11.191459138178391"><ele>338.0</ele><time>2026-04-11T16:13:39.999Z</time></trkpt><trkpt lat="44.31325570259921" lon="11.191414617838364"><ele>338.0</ele><time>2026-04-11T16:13:40.999Z</time></trkpt><trkpt lat="44.3133044626212" lon="11.1913486928433"><ele>336.2</ele><time>2026-04-11T16:13:41.999Z</time></trkpt><trkpt lat="44.31341367731133" lon="11.191306467519594"><ele>334.4</ele><time>2026-04-11T16:13:43.999Z</time></trkpt><trkpt lat="44.313532810995994" lon="11.191355577589398"><ele>332.59999999999997</ele><time>2026-04-11T16:13:45.999Z</time></trkpt><trkpt lat="44.31359136649584" lon="11.19144154524653"><ele>330.79999999999995</ele><time>2026-04-11T16:13:46.999Z</time></trkpt><trkpt lat="44.31360942733245" lon="11.191581672905876"><ele>329.0</ele><time>2026-04-11T16:13:47.999Z</time></trkpt><trkpt lat="44.31366017982563" lon="11.19169382869161"><ele>329.0</ele><time>2026-04-11T16:13:48.999Z</time></trkpt><trkpt lat="44.313710906466895" lon="11.191801157393689"><ele>329.0</ele><time>2026-04-11T16:13:49.999Z</time></trkpt><trkpt lat="44.31376321160593" lon="11.191908268195606"><ele>329.0</ele><time>2026-04-11T16:13:50.999Z</time></trkpt><trkpt lat="44.313807108894835" lon="11.191995406446596"><ele>329.0</ele><time>2026-04-11T16:13:51.999Z</time></trkpt><trkpt lat="44.31385018934122" lon="11.192074925593573"><ele>329.0</ele><time>2026-04-11T16:13:52.999Z</time></trkpt><trkpt lat="44.31389778739446" lon="11.192153999636455"><ele>329.0</ele><time>2026-04-11T16:13:53.999Z</time></trkpt><trkpt lat="44.313957884263864" lon="11.192230760792247"><ele>324.0</ele><time>2026-04-11T16:13:54.999Z</time></trkpt><trkpt lat="44.31404890460076" lon="11.192272417337392"><ele>319.0</ele><time>2026-04-11T16:13:55.999Z</time></trkpt><trkpt lat="44.31416093864654" lon="11.192240048181208"><ele>314.0</ele><time>2026-04-11T16:13:56.999Z</time></trkpt><trkpt lat="44.31425348745855" lon="11.192186662552544"><ele>309.0</ele><time>2026-04-11T16:13:57.999Z</time></trkpt><trkpt lat="44.31433233614897" lon="11.192138339853484"><ele>304.0</ele><time>2026-04-11T16:13:58.999Z</time></trkpt><trkpt lat="44.314407910175284" lon="11.192064419203156"><ele>304.0</ele><time>2026-04-11T16:13:59.999Z</time></trkpt><trkpt lat="44.314471321981685" lon="11.191985636489703"><ele>304.0</ele><time>2026-04-11T16:14:00.999Z</time></trkpt><trkpt lat="44.31454797291512" lon="11.19194620255138"><ele>304.0</ele><time>2026-04-11T16:14:01.999Z</time></trkpt><trkpt lat="44.31463294460626" lon="11.191929175425997"><ele>304.0</ele><time>2026-04-11T16:14:02.999Z</time></trkpt><trkpt lat="44.31471411121774" lon="11.19191696500744"><ele>304.0</ele><time>2026-04-11T16:14:03.999Z</time></trkpt><trkpt lat="44.31479504094033" lon="11.191906128991986"><ele>304.0</ele><time>2026-04-11T16:14:04.999Z</time></trkpt><trkpt lat="44.31488894977586" lon="11.191894823211726"><ele>301.16666666666663</ele><time>2026-04-11T16:14:05.999Z</time></trkpt><trkpt lat="44.31497313450662" lon="11.191866313203931"><ele>298.3333333333333</ele><time>2026-04-11T16:14:06.999Z</time></trkpt><trkpt lat="44.31504857386836" lon="11.191835653019973"><ele>295.5</ele><time>2026-04-11T16:14:07.999Z</time></trkpt><trkpt lat="44.31514895430581" lon="11.191797562048682"><ele>292.6666666666667</ele><time>2026-04-11T16:14:09.999Z</time></trkpt><trkpt lat="44.31519689443513" lon="11.191698880701324"><ele>289.83333333333337</ele><time>2026-04-11T16:14:11.999Z</time></trkpt><trkpt lat="44.31516677091533" lon="11.1916002495852"><ele>287.0</ele><time>2026-04-11T16:14:12.999Z</time></trkpt><trkpt lat="44.315073489484575" lon="11.191520187560986"><ele>284.2</ele><time>2026-04-11T16:14:13.999Z</time></trkpt><trkpt lat="44.31495433456346" lon="11.191502861419517"><ele>281.4</ele><time>2026-04-11T16:14:14.999Z</time></trkpt><trkpt lat="44.314873380355664" lon="11.191487688015497"><ele>278.6</ele><time>2026-04-11T16:14:15.999Z</time></trkpt><trkpt lat="44.314784043753924" lon="11.191465698880954"><ele>275.8</ele><time>2026-04-11T16:14:16.999Z</time></trkpt><trkpt lat="44.31469825568193" lon="11.19144762531505"><ele>273.0</ele><time>2026-04-11T16:14:17.999Z</time></trkpt><trkpt lat="44.31460469707206" lon="11.191439082065601"><ele>273.0</ele><time>2026-04-11T16:14:18.999Z</time></trkpt><trkpt lat="44.314540337210786" lon="11.191391854529298"><ele>273.0</ele><time>2026-04-11T16:14:19.999Z</time></trkpt><trkpt lat="44.31445985821981" lon="11.191310912829847"><ele>273.0</ele><time>2026-04-11T16:14:21.999Z</time></trkpt><trkpt lat="44.314463611503655" lon="11.191185952907812"><ele>273.0</ele><time>2026-04-11T16:14:23.999Z</time></trkpt><trkpt lat="44.31449343334558" lon="11.19106720465717"><ele>273.0</ele><time>2026-04-11T16:14:26Z</time></trkpt><trkpt lat="44.3145628265368" lon="11.191016288191907"><ele>273.0</ele><time>2026-04-11T16:14:27Z</time></trkpt><trkpt lat="44.31463887343375" lon="11.19100353167061"><ele>271.25</ele><time>2026-04-11T16:14:28Z</time></trkpt><trkpt lat="44.314745191390465" lon="11.190979918810378"><ele>269.5</ele><time>2026-04-11T16:14:30Z</time></trkpt><trkpt lat="44.31480464488396" lon="11.190865378172157"><ele>267.75</ele><time>2026-04-11T16:14:32Z</time></trkpt><trkpt lat="44.31476583426689" lon="11.190715270528795"><ele>266.0</ele><time>2026-04-11T16:14:34Z</time></trkpt><trkpt lat="44.3146463821507" lon="11.190618039932861"><ele>263.1666666666667</ele><time>2026-04-11T16:14:36Z</time></trkpt><trkpt lat="44.31454485199737" lon="11.190636751046446"><ele>260.33333333333337</ele><time>2026-04-11T16:14:37Z</time></trkpt><trkpt lat="44.3144671791177" lon="11.190633618475982"><ele>257.5</ele><time>2026-04-11T16:14:38Z</time></trkpt><trkpt lat="44.3143947271968" lon="11.190621701631274"><ele>254.66666666666669</ele><time>2026-04-11T16:14:39Z</time></trkpt><trkpt lat="44.31431994847719" lon="11.19057899643933"><ele>251.83333333333334</ele><time>2026-04-11T16:14:40Z</time></trkpt><trkpt lat="44.3142395694285" lon="11.190518729872593"><ele>249.0</ele><time>2026-04-11T16:14:41Z</time></trkpt><trkpt lat="44.31415315415272" lon="11.190439867777437"><ele>249.0</ele><time>2026-04-11T16:14:42Z</time></trkpt><trkpt lat="44.314065152527476" lon="11.19035921560117"><ele>249.0</ele><time>2026-04-11T16:14:43Z</time></trkpt><trkpt lat="44.31398498246821" lon="11.190281333793699"><ele>249.0</ele><time>2026-04-11T16:14:44Z</time></trkpt><trkpt lat="44.31386723015494" lon="11.190148593790486"><ele>249.0</ele><time>2026-04-11T16:14:45Z</time></trkpt><trkpt lat="44.31372951691044" lon="11.189964724586602"><ele>248.0</ele><time>2026-04-11T16:14:46Z</time></trkpt><trkpt lat="44.313606730051966" lon="11.189799085321466"><ele>247.0</ele><time>2026-04-11T16:14:47Z</time></trkpt><trkpt lat="44.31352249539819" lon="11.189650154625415"><ele>246.0</ele><time>2026-04-11T16:14:48Z</time></trkpt><trkpt lat="44.31343873562657" lon="11.189538889736728"><ele>245.0</ele><time>2026-04-11T16:14:49Z</time></trkpt><trkpt lat="44.31338252308943" lon="11.189412687257319"><ele>245.0</ele><time>2026-04-11T16:14:50Z</time></trkpt><trkpt lat="44.313351678540776" lon="11.189318201805579"><ele>245.0</ele><time>2026-04-11T16:14:51Z</time></trkpt><trkpt lat="44.3133544145936" lon="11.189200912189907"><ele>245.0</ele><time>2026-04-11T16:14:52Z</time></trkpt><trkpt lat="44.31335720918799" lon="11.189039638560738"><ele>245.0</ele><time>2026-04-11T16:14:53Z</time></trkpt><trkpt lat="44.31335729019661" lon="11.188858939819001"><ele>245.0</ele><time>2026-04-11T16:14:54Z</time></trkpt><trkpt lat="44.313344581724074" lon="11.188643313007985"><ele>242.0</ele><time>2026-04-11T16:14:55Z</time></trkpt><trkpt lat="44.313351331138655" lon="11.188440258817117"><ele>239.0</ele><time>2026-04-11T16:14:56Z</time></trkpt><trkpt lat="44.31334831568976" lon="11.18825798325857"><ele>236.0</ele><time>2026-04-11T16:14:57Z</time></trkpt><trkpt lat="44.3133491850361" lon="11.18809433885036"><ele>233.0</ele><time>2026-04-11T16:14:58Z</time></trkpt><trkpt lat="44.31335691547378" lon="11.187985042243488"><ele>229.8</ele><time>2026-04-11T16:14:59Z</time></trkpt><trkpt lat="44.31346795685095" lon="11.187858811391992"><ele>226.60000000000002</ele><time>2026-04-11T16:15:01Z</time></trkpt><trkpt lat="44.31354132629503" lon="11.187796037874374"><ele>223.39999999999998</ele><time>2026-04-11T16:15:02Z</time></trkpt><trkpt lat="44.313567445919034" lon="11.187696492527214"><ele>220.2</ele><time>2026-04-11T16:15:03Z</time></trkpt><trkpt lat="44.31353354494711" lon="11.187567549985044"><ele>217.0</ele><time>2026-04-11T16:15:04Z</time></trkpt><trkpt lat="44.31346060486913" lon="11.18742451061829"><ele>218.0</ele><time>2026-04-11T16:15:05Z</time></trkpt><trkpt lat="44.313364668277764" lon="11.18728055883407"><ele>219.0</ele><time>2026-04-11T16:15:06Z</time></trkpt><trkpt lat="44.313281400562616" lon="11.187170433713213"><ele>220.0</ele><time>2026-04-11T16:15:07Z</time></trkpt><trkpt lat="44.313189069306745" lon="11.18710697295374"><ele>221.0</ele><time>2026-04-11T16:15:08Z</time></trkpt><trkpt lat="44.313067789377165" lon="11.187044230142059"><ele>221.0</ele><time>2026-04-11T16:15:09Z</time></trkpt><trkpt lat="44.31294096760229" lon="11.186997136828246"><ele>221.00000000000003</ele><time>2026-04-11T16:15:10Z</time></trkpt><trkpt lat="44.31283421722073" lon="11.186939940532753"><ele>221.00000000000003</ele><time>2026-04-11T16:15:11Z</time></trkpt><trkpt lat="44.31277216398312" lon="11.186852923424157"><ele>221.0</ele><time>2026-04-11T16:15:12Z</time></trkpt><trkpt lat="44.31275005191304" lon="11.186742255182526"><ele>221.0</ele><time>2026-04-11T16:15:13Z</time></trkpt><trkpt lat="44.312763424970896" lon="11.186599008873246"><ele>219.5</ele><time>2026-04-11T16:15:14Z</time></trkpt><trkpt lat="44.31282057710819" lon="11.186469855010728"><ele>218.0</ele><time>2026-04-11T16:15:15Z</time></trkpt><trkpt lat="44.312901647674686" lon="11.186350097700453"><ele>216.5</ele><time>2026-04-11T16:15:16Z</time></trkpt><trkpt lat="44.3129743814275" lon="11.186203046240236"><ele>215.0</ele><time>2026-04-11T16:15:17Z</time></trkpt><trkpt lat="44.31301557968413" lon="11.186018707149657"><ele>215.0</ele><time>2026-04-11T16:15:18Z</time></trkpt><trkpt lat="44.313039352704074" lon="11.185805115517345"><ele>215.0</ele><time>2026-04-11T16:15:19Z</time></trkpt><trkpt lat="44.31304700942086" lon="11.185598705021066"><ele>215.0</ele><time>2026-04-11T16:15:20Z</time></trkpt><trkpt lat="44.31304335570601" lon="11.185372776263682"><ele>210.33333333333334</ele><time>2026-04-11T16:15:21Z</time></trkpt><trkpt lat="44.313027384534365" lon="11.185144527465493"><ele>205.66666666666669</ele><time>2026-04-11T16:15:22Z</time></trkpt><trkpt lat="44.31299280374503" lon="11.184942825806957"><ele>201.0</ele><time>2026-04-11T16:15:23Z</time></trkpt><trkpt lat="44.31294692322647" lon="11.184751889443303"><ele>199.0</ele><time>2026-04-11T16:15:24Z</time></trkpt><trkpt lat="44.31292159298058" lon="11.184612024507086"><ele>197.0</ele><time>2026-04-11T16:15:25Z</time></trkpt><trkpt lat="44.313019146357696" lon="11.184537208479268"><ele>195.0</ele><time>2026-04-11T16:15:28.999Z</time></trkpt><trkpt lat="44.31310172522801" lon="11.184510285245628"><ele>193.0</ele><time>2026-04-11T16:15:29.999Z</time></trkpt><trkpt lat="44.31321328010314" lon="11.184474284309324"><ele>191.0</ele><time>2026-04-11T16:15:30.999Z</time></trkpt><trkpt lat="44.31334204576853" lon="11.184423913904654"><ele>187.75</ele><time>2026-04-11T16:15:31.999Z</time></trkpt><trkpt lat="44.31346974406028" lon="11.18437413999873"><ele>184.5</ele><time>2026-04-11T16:15:32.999Z</time></trkpt><trkpt lat="44.31360277351363" lon="11.184323843434122"><ele>181.25</ele><time>2026-04-11T16:15:33.999Z</time></trkpt><trkpt lat="44.313733947575344" lon="11.184273006537357"><ele>178.0</ele><time>2026-04-11T16:15:34.999Z</time></trkpt><trkpt lat="44.31385633577569" lon="11.1842259258166"><ele>174.25</ele><time>2026-04-11T16:15:35.999Z</time></trkpt><trkpt lat="44.31396456575883" lon="11.18418752186397"><ele>170.5</ele><time>2026-04-11T16:15:36.999Z</time></trkpt><trkpt lat="44.31407863048927" lon="11.184104535198829"><ele>166.75</ele><time>2026-04-11T16:15:37.999Z</time></trkpt><trkpt lat="44.31419025957761" lon="11.184007174005592"><ele>163.0</ele><time>2026-04-11T16:15:38.999Z</time></trkpt><trkpt lat="44.31430302533748" lon="11.183909650862777"><ele>162.60000000000002</ele><time>2026-04-11T16:15:39.999Z</time></trkpt><trkpt lat="44.31440067512114" lon="11.18382589509627"><ele>162.20000000000002</ele><time>2026-04-11T16:15:40.999Z</time></trkpt><trkpt lat="44.314472857026516" lon="11.183721505092773"><ele>161.8</ele><time>2026-04-11T16:15:41.999Z</time></trkpt><trkpt lat="44.31452740236772" lon="11.183605367069406"><ele>161.4</ele><time>2026-04-11T16:15:42.999Z</time></trkpt><trkpt lat="44.31457846538113" lon="11.183497067686657"><ele>161.0</ele><time>2026-04-11T16:15:43.999Z</time></trkpt><trkpt lat="44.31461492420903" lon="11.183403978635713"><ele>161.0</ele><time>2026-04-11T16:15:44.999Z</time></trkpt><trkpt lat="44.314679689501496" lon="11.183370805083007"><ele>161.0</ele><time>2026-04-11T16:15:46.999Z</time></trkpt><trkpt lat="44.31478357903045" lon="11.183408598420652"><ele>161.0</ele><time>2026-04-11T16:15:48.999Z</time></trkpt><trkpt lat="44.314866554465624" lon="11.18346354280311"><ele>161.0</ele><time>2026-04-11T16:15:49.999Z</time></trkpt><trkpt lat="44.314971354818226" lon="11.18353440524839"><ele>161.0</ele><time>2026-04-11T16:15:50.999Z</time></trkpt><trkpt lat="44.31510363638753" lon="11.183617960097315"><ele>160.33333333333331</ele><time>2026-04-11T16:15:51.999Z</time></trkpt><trkpt lat="44.31523990276573" lon="11.18371948335451"><ele>159.66666666666666</ele><time>2026-04-11T16:15:52.999Z</time></trkpt><trkpt lat="44.31539202138876" lon="11.18385494334354"><ele>159.0</ele><time>2026-04-11T16:15:53.999Z</time></trkpt><trkpt lat="44.31554478863029" lon="11.184035196465093"><ele>156.66666666666666</ele><time>2026-04-11T16:15:54.999Z</time></trkpt><trkpt lat="44.31569114844051" lon="11.184237924679522"><ele>154.33333333333331</ele><time>2026-04-11T16:15:55.999Z</time></trkpt><trkpt lat="44.31586984778447" lon="11.18446541538925"><ele>152.0</ele><time>2026-04-11T16:15:56.999Z</time></trkpt><trkpt lat="44.316042119398176" lon="11.184672436250548"><ele>152.0</ele><time>2026-04-11T16:15:57.999Z</time></trkpt><trkpt lat="44.31622060667306" lon="11.184880435217153"><ele>152.0</ele><time>2026-04-11T16:15:58.999Z</time></trkpt><trkpt lat="44.31640073129584" lon="11.18508334963621"><ele>151.0</ele><time>2026-04-11T16:15:59.999Z</time></trkpt><trkpt lat="44.31657410159653" lon="11.18527359758598"><ele>150.0</ele><time>2026-04-11T16:16:00.999Z</time></trkpt><trkpt lat="44.31673522034999" lon="11.185447639542618"><ele>149.0</ele><time>2026-04-11T16:16:01.999Z</time></trkpt><trkpt lat="44.31688888171118" lon="11.185602113950146"><ele>151.66666666666666</ele><time>2026-04-11T16:16:02.999Z</time></trkpt><trkpt lat="44.31703883840582" lon="11.185780875078015"><ele>154.33333333333334</ele><time>2026-04-11T16:16:03.999Z</time></trkpt><trkpt lat="44.31717814943477" lon="11.185952352787199"><ele>157.0</ele><time>2026-04-11T16:16:04.999Z</time></trkpt><trkpt lat="44.31729879622224" lon="11.186111104490521"><ele>157.0</ele><time>2026-04-11T16:16:05.999Z</time></trkpt><trkpt lat="44.317423775537094" lon="11.186229217727066"><ele>157.0</ele><time>2026-04-11T16:16:06.999Z</time></trkpt><trkpt lat="44.3175473596941" lon="11.186326293186411"><ele>157.0</ele><time>2026-04-11T16:16:07.999Z</time></trkpt><trkpt lat="44.31769532845814" lon="11.186373445458285"><ele>157.0</ele><time>2026-04-11T16:16:08.999Z</time></trkpt><trkpt lat="44.31786979127938" lon="11.186402868767185"><ele>157.0</ele><time>2026-04-11T16:16:09.999Z</time></trkpt><trkpt lat="44.318035651904" lon="11.186434897270956"><ele>157.0</ele><time>2026-04-11T16:16:10.999Z</time></trkpt><trkpt lat="44.318222495078146" lon="11.186473093194852"><ele>157.0</ele><time>2026-04-11T16:16:11.999Z</time></trkpt><trkpt lat="44.31842475059509" lon="11.186527005274398"><ele>161.33333333333334</ele><time>2026-04-11T16:16:12.999Z</time></trkpt><trkpt lat="44.318600238920276" lon="11.186571404556078"><ele>165.66666666666666</ele><time>2026-04-11T16:16:13.999Z</time></trkpt><trkpt lat="44.31876270843213" lon="11.18660665843946"><ele>170.0</ele><time>2026-04-11T16:16:14.999Z</time></trkpt><trkpt lat="44.318912059642635" lon="11.186641972457338"><ele>170.33333333333331</ele><time>2026-04-11T16:16:15.999Z</time></trkpt><trkpt lat="44.319053477628586" lon="11.186666820378207"><ele>170.66666666666666</ele><time>2026-04-11T16:16:16.999Z</time></trkpt><trkpt lat="44.319203325653625" lon="11.186687739893358"><ele>171.0</ele><time>2026-04-11T16:16:17.999Z</time></trkpt><trkpt lat="44.31936601044982" lon="11.186691708332301"><ele>171.0</ele><time>2026-04-11T16:16:18.999Z</time></trkpt><trkpt lat="44.31954130888512" lon="11.186618794722841"><ele>171.0</ele><time>2026-04-11T16:16:19.999Z</time></trkpt><trkpt lat="44.319716532707815" lon="11.18655974858712"><ele>171.0</ele><time>2026-04-11T16:16:20.999Z</time></trkpt><trkpt lat="44.3198964374311" lon="11.186504080745648"><ele>167.66666666666666</ele><time>2026-04-11T16:16:21.999Z</time></trkpt><trkpt lat="44.32008491034611" lon="11.186472359634271"><ele>164.33333333333331</ele><time>2026-04-11T16:16:22.999Z</time></trkpt><trkpt lat="44.32025181629824" lon="11.186431719695493"><ele>161.0</ele><time>2026-04-11T16:16:23.999Z</time></trkpt><trkpt lat="44.320417881647735" lon="11.186426436924028"><ele>161.66666666666666</ele><time>2026-04-11T16:16:24.999Z</time></trkpt><trkpt lat="44.32058249013225" lon="11.18645896152425"><ele>162.33333333333334</ele><time>2026-04-11T16:16:25.999Z</time></trkpt><trkpt lat="44.32073332404082" lon="11.186522005438734"><ele>163.0</ele><time>2026-04-11T16:16:26.999Z</time></trkpt><trkpt lat="44.32088462111112" lon="11.186590679430624"><ele>169.25</ele><time>2026-04-11T16:16:27.999Z</time></trkpt><trkpt lat="44.32102533962119" lon="11.186670594199411"><ele>175.5</ele><time>2026-04-11T16:16:28.999Z</time></trkpt><trkpt lat="44.32117235611064" lon="11.186713053073285"><ele>181.75</ele><time>2026-04-11T16:16:29.999Z</time></trkpt><trkpt lat="44.32129450772235" lon="11.186718270955492"><ele>188.0</ele><time>2026-04-11T16:16:30.999Z</time></trkpt><trkpt lat="44.32140319316869" lon="11.186660893204778"><ele>188.60000000000002</ele><time>2026-04-11T16:16:32Z</time></trkpt><trkpt lat="44.321510447983606" lon="11.186613180739007"><ele>189.20000000000002</ele><time>2026-04-11T16:16:33Z</time></trkpt><trkpt lat="44.32160547498381" lon="11.186549010297187"><ele>189.8</ele><time>2026-04-11T16:16:34Z</time></trkpt><trkpt lat="44.32171575329725" lon="11.18651409160414"><ele>190.4</ele><time>2026-04-11T16:16:35Z</time></trkpt><trkpt lat="44.32183382693044" lon="11.186515218992847"><ele>191.0</ele><time>2026-04-11T16:16:36Z</time></trkpt><trkpt lat="44.321955677853225" lon="11.186533697473141"><ele>191.0</ele><time>2026-04-11T16:16:37Z</time></trkpt><trkpt lat="44.322100517233196" lon="11.186645594138495"><ele>191.0</ele><time>2026-04-11T16:16:38Z</time></trkpt><trkpt lat="44.322253549510286" lon="11.186785357551635"><ele>191.0</ele><time>2026-04-11T16:16:39Z</time></trkpt><trkpt lat="44.32239899677636" lon="11.186932026113597"><ele>189.25</ele><time>2026-04-11T16:16:40Z</time></trkpt><trkpt lat="44.32251806574783" lon="11.187054475964677"><ele>187.5</ele><time>2026-04-11T16:16:41Z</time></trkpt><trkpt lat="44.32261963591131" lon="11.18713915717468"><ele>185.75</ele><time>2026-04-11T16:16:42Z</time></trkpt><trkpt lat="44.32270540567973" lon="11.187182011308893"><ele>184.0</ele><time>2026-04-11T16:16:43Z</time></trkpt><trkpt lat="44.322812352774804" lon="11.187149722350593"><ele>184.0</ele><time>2026-04-11T16:16:44Z</time></trkpt><trkpt lat="44.32293991150755" lon="11.187093149465479"><ele>184.0</ele><time>2026-04-11T16:16:45Z</time></trkpt><trkpt lat="44.32306818128922" lon="11.187006246888464"><ele>184.0</ele><time>2026-04-11T16:16:46Z</time></trkpt><trkpt lat="44.323208661950666" lon="11.186916829858419"><ele>184.0</ele><time>2026-04-11T16:16:47Z</time></trkpt><trkpt lat="44.32333881929129" lon="11.186844640385125"><ele>182.79999999999998</ele><time>2026-04-11T16:16:48Z</time></trkpt><trkpt lat="44.3234423488339" lon="11.1867883729421"><ele>181.6</ele><time>2026-04-11T16:16:49Z</time></trkpt><trkpt lat="44.32352440363995" lon="11.186774483810142"><ele>180.4</ele><time>2026-04-11T16:16:50Z</time></trkpt><trkpt lat="44.32361315985265" lon="11.186815085743763"><ele>179.2</ele><time>2026-04-11T16:16:51Z</time></trkpt><trkpt lat="44.32372291164476" lon="11.186891045290844"><ele>178.0</ele><time>2026-04-11T16:16:52Z</time></trkpt><trkpt lat="44.323856280840836" lon="11.18696321788278"><ele>176.0</ele><time>2026-04-11T16:16:53Z</time></trkpt><trkpt lat="44.32398921974715" lon="11.187037894299072"><ele>174.0</ele><time>2026-04-11T16:16:54Z</time></trkpt><trkpt lat="44.32411850756688" lon="11.187110392192197"><ele>172.0</ele><time>2026-04-11T16:16:55Z</time></trkpt><trkpt lat="44.32424627931795" lon="11.18720274485156"><ele>170.0</ele><time>2026-04-11T16:16:56Z</time></trkpt><trkpt lat="44.324361829024596" lon="11.187305963372667"><ele>174.75</ele><time>2026-04-11T16:16:57Z</time></trkpt><trkpt lat="44.32444640888375" lon="11.187438890769835"><ele>179.5</ele><time>2026-04-11T16:16:58Z</time></trkpt><trkpt lat="44.32452578228157" lon="11.187584542773365"><ele>184.25</ele><time>2026-04-11T16:16:59Z</time></trkpt><trkpt lat="44.324608269203694" lon="11.187728520718483"><ele>189.0</ele><time>2026-04-11T16:17:00Z</time></trkpt><trkpt lat="44.32471226836389" lon="11.187859600703021"><ele>187.66666666666666</ele><time>2026-04-11T16:17:01Z</time></trkpt><trkpt lat="44.32481627459246" lon="11.1880086003866"><ele>186.33333333333331</ele><time>2026-04-11T16:17:02Z</time></trkpt><trkpt lat="44.324954505233414" lon="11.188146998328486"><ele>185.0</ele><time>2026-04-11T16:17:03Z</time></trkpt><trkpt lat="44.3251000007782" lon="11.188296197679358"><ele>185.0</ele><time>2026-04-11T16:17:04Z</time></trkpt><trkpt lat="44.325246794619964" lon="11.188445322724526"><ele>185.0</ele><time>2026-04-11T16:17:05Z</time></trkpt><trkpt lat="44.3254054015579" lon="11.188607690829853"><ele>185.0</ele><time>2026-04-11T16:17:06Z</time></trkpt><trkpt lat="44.32556799599851" lon="11.188758888772968"><ele>183.66666666666666</ele><time>2026-04-11T16:17:07Z</time></trkpt><trkpt lat="44.325711905079714" lon="11.188903589105575"><ele>182.33333333333334</ele><time>2026-04-11T16:17:08Z</time></trkpt><trkpt lat="44.32584782156777" lon="11.189028606671215"><ele>181.0</ele><time>2026-04-11T16:17:09Z</time></trkpt><trkpt lat="44.32597967367794" lon="11.189150401930451"><ele>181.0</ele><time>2026-04-11T16:17:10Z</time></trkpt><trkpt lat="44.32610136902393" lon="11.189271057306048"><ele>181.0</ele><time>2026-04-11T16:17:11Z</time></trkpt><trkpt lat="44.326217514517516" lon="11.189398854043672"><ele>181.0</ele><time>2026-04-11T16:17:12Z</time></trkpt><trkpt lat="44.326317767929254" lon="11.189525418063772"><ele>181.0</ele><time>2026-04-11T16:17:13Z</time></trkpt><trkpt lat="44.32638259364003" lon="11.189632100955174"><ele>179.0</ele><time>2026-04-11T16:17:14Z</time></trkpt><trkpt lat="44.32644122887414" lon="11.18973380320334"><ele>177.0</ele><time>2026-04-11T16:17:15Z</time></trkpt><trkpt lat="44.32647691099704" lon="11.189840861059105"><ele>175.0</ele><time>2026-04-11T16:17:16Z</time></trkpt><trkpt lat="44.32650791939135" lon="11.189971134129406"><ele>173.0</ele><time>2026-04-11T16:17:17Z</time></trkpt><trkpt lat="44.32650537550016" lon="11.190115724982354"><ele>171.0</ele><time>2026-04-11T16:17:18Z</time></trkpt><trkpt lat="44.32649636408872" lon="11.190290587488594"><ele>171.0</ele><time>2026-04-11T16:17:19Z</time></trkpt><trkpt lat="44.32650849517051" lon="11.190460714307354"><ele>171.0</ele><time>2026-04-11T16:17:20Z</time></trkpt><trkpt lat="44.32654383291973" lon="11.19062939631891"><ele>171.0</ele><time>2026-04-11T16:17:21Z</time></trkpt><trkpt lat="44.32661545423872" lon="11.19078689653972"><ele>171.0</ele><time>2026-04-11T16:17:22Z</time></trkpt><trkpt lat="44.326703512242325" lon="11.190916682968208"><ele>170.75</ele><time>2026-04-11T16:17:23Z</time></trkpt><trkpt lat="44.32681689808679" lon="11.191008308762946"><ele>170.5</ele><time>2026-04-11T16:17:24Z</time></trkpt><trkpt lat="44.32694065236716" lon="11.191073907101181"><ele>170.25</ele><time>2026-04-11T16:17:25Z</time></trkpt><trkpt lat="44.327065960482926" lon="11.191135922482276"><ele>170.0</ele><time>2026-04-11T16:17:26Z</time></trkpt><trkpt lat="44.327174023344696" lon="11.191205191008406"><ele>169.14285714285714</ele><time>2026-04-11T16:17:26.999Z</time></trkpt><trkpt lat="44.32725609126722" lon="11.191270029379629"><ele>168.28571428571428</ele><time>2026-04-11T16:17:27.999Z</time></trkpt><trkpt lat="44.32731831822641" lon="11.191312655409838"><ele>167.42857142857142</ele><time>2026-04-11T16:17:28.999Z</time></trkpt><trkpt lat="44.32736747109122" lon="11.191381885436599"><ele>166.57142857142856</ele><time>2026-04-11T16:17:30.999Z</time></trkpt><trkpt lat="44.32741617631567" lon="11.191438233596886"><ele>165.71428571428572</ele><time>2026-04-11T16:17:35.999Z</time></trkpt><trkpt lat="44.32748422719819" lon="11.191387656937312"><ele>164.85714285714283</ele><time>2026-04-11T16:17:36.999Z</time></trkpt><trkpt lat="44.32754173441933" lon="11.191324284155629"><ele>164.0</ele><time>2026-04-11T16:17:37.999Z</time></trkpt><trkpt lat="44.327603890377304" lon="11.191256759450495"><ele>164.0</ele><time>2026-04-11T16:17:38.999Z</time></trkpt><trkpt lat="44.32767011881373" lon="11.191172605382725"><ele>164.0</ele><time>2026-04-11T16:17:39.999Z</time></trkpt><trkpt lat="44.32773554192629" lon="11.191088562846144"><ele>164.0</ele><time>2026-04-11T16:17:40.999Z</time></trkpt><trkpt lat="44.327789588774294" lon="11.191005079638822"><ele>164.0</ele><time>2026-04-11T16:17:41.999Z</time></trkpt><trkpt lat="44.327809230169706" lon="11.190898253548959"><ele>164.0</ele><time>2026-04-11T16:17:42.999Z</time></trkpt><trkpt lat="44.3277968561842" lon="11.190777724229804"><ele>164.0</ele><time>2026-04-11T16:17:43.999Z</time></trkpt><trkpt lat="44.32777352476699" lon="11.190652742918221"><ele>162.0</ele><time>2026-04-11T16:17:44.999Z</time></trkpt><trkpt lat="44.32775556318629" lon="11.190528648445166"><ele>160.0</ele><time>2026-04-11T16:17:45.999Z</time></trkpt><trkpt lat="44.32772168524759" lon="11.190407094253997"><ele>158.0</ele><time>2026-04-11T16:17:46.999Z</time></trkpt><trkpt lat="44.327677459413366" lon="11.190281310948674"><ele>156.0</ele><time>2026-04-11T16:17:47.999Z</time></trkpt><trkpt lat="44.327627833883945" lon="11.190152631366558"><ele>154.0</ele><time>2026-04-11T16:17:48.999Z</time></trkpt><trkpt lat="44.32758339096305" lon="11.190018863358114"><ele>154.0</ele><time>2026-04-11T16:17:49.999Z</time></trkpt><trkpt lat="44.327541741292144" lon="11.189888756900354"><ele>154.0</ele><time>2026-04-11T16:17:50.999Z</time></trkpt><trkpt lat="44.32749857676805" lon="11.189768688132135"><ele>154.0</ele><time>2026-04-11T16:17:51.999Z</time></trkpt><trkpt lat="44.3274542323129" lon="11.1896491165148"><ele>154.0</ele><time>2026-04-11T16:17:52.999Z</time></trkpt><trkpt lat="44.3274094352671" lon="11.189527577031585"><ele>154.0</ele><time>2026-04-11T16:17:53.999Z</time></trkpt><trkpt lat="44.32736595942628" lon="11.189421465793275"><ele>151.83333333333334</ele><time>2026-04-11T16:17:54.999Z</time></trkpt><trkpt lat="44.327335706370725" lon="11.189330300076305"><ele>149.66666666666669</ele><time>2026-04-11T16:17:55.999Z</time></trkpt><trkpt lat="44.32730627369689" lon="11.18917874483839"><ele>147.5</ele><time>2026-04-11T16:17:57.999Z</time></trkpt><trkpt lat="44.3273066025588" lon="11.189088048195186"><ele>145.33333333333334</ele><time>2026-04-11T16:17:58.999Z</time></trkpt><trkpt lat="44.32732646425993" lon="11.188955065585938"><ele>143.16666666666666</ele><time>2026-04-11T16:17:59.999Z</time></trkpt><trkpt lat="44.32736420531871" lon="11.188841905792717"><ele>141.0</ele><time>2026-04-11T16:18:00.999Z</time></trkpt><trkpt lat="44.32740412751162" lon="11.188719241162708"><ele>140.75</ele><time>2026-04-11T16:18:01.999Z</time></trkpt><trkpt lat="44.3274536602976" lon="11.188572158148437"><ele>140.5</ele><time>2026-04-11T16:18:02.999Z</time></trkpt><trkpt lat="44.3275118444676" lon="11.188403609166432"><ele>140.25</ele><time>2026-04-11T16:18:03.999Z</time></trkpt><trkpt lat="44.32756824135982" lon="11.18824346308732"><ele>140.0</ele><time>2026-04-11T16:18:04.999Z</time></trkpt><trkpt lat="44.3276329726048" lon="11.188114658125658"><ele>140.0</ele><time>2026-04-11T16:18:05.999Z</time></trkpt><trkpt lat="44.32768465165224" lon="11.187972134971298"><ele>140.0</ele><time>2026-04-11T16:18:06.999Z</time></trkpt><trkpt lat="44.327729415318856" lon="11.187838558646845"><ele>140.0</ele><time>2026-04-11T16:18:07.999Z</time></trkpt><trkpt lat="44.32777653933029" lon="11.187708359158805"><ele>140.0</ele><time>2026-04-11T16:18:08.999Z</time></trkpt><trkpt lat="44.327823033902504" lon="11.187584489817764"><ele>140.0</ele><time>2026-04-11T16:18:09.999Z</time></trkpt><trkpt lat="44.327866287354624" lon="11.187461663779272"><ele>139.8</ele><time>2026-04-11T16:18:10.999Z</time></trkpt><trkpt lat="44.327911823793976" lon="11.187340451921951"><ele>139.6</ele><time>2026-04-11T16:18:11.999Z</time></trkpt><trkpt lat="44.327975530327855" lon="11.18724794950191"><ele>139.4</ele><time>2026-04-11T16:18:12.999Z</time></trkpt><trkpt lat="44.3280553032091" lon="11.187178485153494"><ele>139.2</ele><time>2026-04-11T16:18:13.999Z</time></trkpt><trkpt lat="44.328156164736" lon="11.1871245808476"><ele>139.0</ele><time>2026-04-11T16:18:14.999Z</time></trkpt><trkpt lat="44.32824982132558" lon="11.187111649153163"><ele>139.0</ele><time>2026-04-11T16:18:15.999Z</time></trkpt><trkpt lat="44.328358083649626" lon="11.187104045915069"><ele>139.0</ele><time>2026-04-11T16:18:16.999Z</time></trkpt><trkpt lat="44.32848775919628" lon="11.187094135035563"><ele>139.0</ele><time>2026-04-11T16:18:17.999Z</time></trkpt><trkpt lat="44.32861708710615" lon="11.187086583797635"><ele>139.0</ele><time>2026-04-11T16:18:18.999Z</time></trkpt><trkpt lat="44.328726456649456" lon="11.187080999954603"><ele>139.0</ele><time>2026-04-11T16:18:19.999Z</time></trkpt><trkpt lat="44.32883436270961" lon="11.187076300596056"><ele>139.0</ele><time>2026-04-11T16:18:20.999Z</time></trkpt><trkpt lat="44.32896378318917" lon="11.187071319695033"><ele>139.0</ele><time>2026-04-11T16:18:21.999Z</time></trkpt><trkpt lat="44.32911132293805" lon="11.18706637052325"><ele>139.0</ele><time>2026-04-11T16:18:22.999Z</time></trkpt><trkpt lat="44.329265884015605" lon="11.187070274254818"><ele>140.2</ele><time>2026-04-11T16:18:23.999Z</time></trkpt><trkpt lat="44.32936479198179" lon="11.187080470629555"><ele>141.4</ele><time>2026-04-11T16:18:24.999Z</time></trkpt><trkpt lat="44.329474544910575" lon="11.187086964674627"><ele>142.6</ele><time>2026-04-11T16:18:26.999Z</time></trkpt><trkpt lat="44.32956483464388" lon="11.187145424525204"><ele>143.8</ele><time>2026-04-11T16:18:28.999Z</time></trkpt><trkpt lat="44.32962791659908" lon="11.187170369798338"><ele>145.0</ele><time>2026-04-11T16:18:29.999Z</time></trkpt><trkpt lat="44.329704105175225" lon="11.187207531853474"><ele>144.5</ele><time>2026-04-11T16:18:30.999Z</time></trkpt><trkpt lat="44.32979352199855" lon="11.187261243316126"><ele>144.0</ele><time>2026-04-11T16:18:31.999Z</time></trkpt><trkpt lat="44.32988473660519" lon="11.187340259087023"><ele>143.5</ele><time>2026-04-11T16:18:32.999Z</time></trkpt><trkpt lat="44.329987589173086" lon="11.187436744833638"><ele>143.0</ele><time>2026-04-11T16:18:33.999Z</time></trkpt><trkpt lat="44.33010997476075" lon="11.187536933914863"><ele>143.0</ele><time>2026-04-11T16:18:34.999Z</time></trkpt><trkpt lat="44.330246240224255" lon="11.187657503623342"><ele>143.0</ele><time>2026-04-11T16:18:35.998Z</time></trkpt><trkpt lat="44.33039582258092" lon="11.187795915861056"><ele>143.0</ele><time>2026-04-11T16:18:36.998Z</time></trkpt><trkpt lat="44.33055889405547" lon="11.187945020678885"><ele>143.0</ele><time>2026-04-11T16:18:38Z</time></trkpt><trkpt lat="44.33071935816886" lon="11.188088380401727"><ele>143.0</ele><time>2026-04-11T16:18:39Z</time></trkpt><trkpt lat="44.33085791007862" lon="11.188209920536144"><ele>143.0</ele><time>2026-04-11T16:18:40Z</time></trkpt><trkpt lat="44.33098885530209" lon="11.188317194868688"><ele>143.25</ele><time>2026-04-11T16:18:41Z</time></trkpt><trkpt lat="44.33110571367524" lon="11.188414586998043"><ele>143.5</ele><time>2026-04-11T16:18:42Z</time></trkpt><trkpt lat="44.3312162018819" lon="11.188514511020232"><ele>143.75</ele><time>2026-04-11T16:18:43Z</time></trkpt><trkpt lat="44.331324373202975" lon="11.188613968365091"><ele>144.0</ele><time>2026-04-11T16:18:44Z</time></trkpt><trkpt lat="44.33143417787287" lon="11.188715943225912"><ele>143.75</ele><time>2026-04-11T16:18:45Z</time></trkpt><trkpt lat="44.331536737820315" lon="11.188806869591991"><ele>143.5</ele><time>2026-04-11T16:18:46Z</time></trkpt><trkpt lat="44.3316448426135" lon="11.188908331380414"><ele>143.25</ele><time>2026-04-11T16:18:47Z</time></trkpt><trkpt lat="44.331751641969404" lon="11.188996328568754"><ele>143.0</ele><time>2026-04-11T16:18:48Z</time></trkpt><trkpt lat="44.331848916592854" lon="11.189087554909573"><ele>143.0</ele><time>2026-04-11T16:18:49Z</time></trkpt><trkpt lat="44.33194042331393" lon="11.189144788703523"><ele>143.0</ele><time>2026-04-11T16:18:50Z</time></trkpt><trkpt lat="44.33201058841346" lon="11.189176561779384"><ele>143.0</ele><time>2026-04-11T16:18:51Z</time></trkpt><trkpt lat="44.33207298944158" lon="11.18920416882982"><ele>143.0</ele><time>2026-04-11T16:18:52Z</time></trkpt><trkpt lat="44.332149830137794" lon="11.189153250872561"><ele>143.0</ele><time>2026-04-11T16:18:53Z</time></trkpt><trkpt lat="44.332170833200585" lon="11.189015751895349"><ele>143.0</ele><time>2026-04-11T16:18:54Z</time></trkpt><trkpt lat="44.33222471324729" lon="11.188925319531341"><ele>143.6</ele><time>2026-04-11T16:18:55Z</time></trkpt><trkpt lat="44.332270943007536" lon="11.188794682662644"><ele>144.20000000000002</ele><time>2026-04-11T16:18:56Z</time></trkpt><trkpt lat="44.33231906636872" lon="11.188652435206436"><ele>144.8</ele><time>2026-04-11T16:18:57Z</time></trkpt><trkpt lat="44.33236348742629" lon="11.188517530517355"><ele>145.4</ele><time>2026-04-11T16:18:58Z</time></trkpt><trkpt lat="44.332409264233405" lon="11.188378871762467"><ele>146.0</ele><time>2026-04-11T16:18:59Z</time></trkpt><trkpt lat="44.33244613155273" lon="11.188240449098231"><ele>146.16666666666666</ele><time>2026-04-11T16:19:00Z</time></trkpt><trkpt lat="44.33249214252063" lon="11.188138009706885"><ele>146.33333333333331</ele><time>2026-04-11T16:19:01Z</time></trkpt><trkpt lat="44.33253906621012" lon="11.188045687319663"><ele>146.5</ele><time>2026-04-11T16:19:02Z</time></trkpt><trkpt lat="44.332602136421905" lon="11.187948656344116"><ele>146.66666666666666</ele><time>2026-04-11T16:19:04Z</time></trkpt><trkpt lat="44.33266717100208" lon="11.187885373806076"><ele>146.83333333333334</ele><time>2026-04-11T16:19:08Z</time></trkpt><trkpt lat="44.33263173847563" lon="11.1877583827194"><ele>147.0</ele><time>2026-04-11T16:19:09Z</time></trkpt><trkpt lat="44.33260215974582" lon="11.187675460235813"><ele>147.0</ele><time>2026-04-11T16:19:10Z</time></trkpt><trkpt lat="44.332557473968876" lon="11.187574566539036"><ele>147.0</ele><time>2026-04-11T16:19:11Z</time></trkpt><trkpt lat="44.33249169617724" lon="11.187463163953687"><ele>147.0</ele><time>2026-04-11T16:19:12Z</time></trkpt><trkpt lat="44.332434841496884" lon="11.187366939762905"><ele>147.0</ele><time>2026-04-11T16:19:13Z</time></trkpt><trkpt lat="44.33238594857173" lon="11.18729801422584"><ele>147.0</ele><time>2026-04-11T16:19:14Z</time></trkpt><trkpt lat="44.33232710444679" lon="11.187224931031242"><ele>147.0</ele><time>2026-04-11T16:19:15Z</time></trkpt><trkpt lat="44.332263274930135" lon="11.187146298443233"><ele>147.0</ele><time>2026-04-11T16:19:16Z</time></trkpt><trkpt lat="44.332195429276034" lon="11.187058499712993"><ele>147.0</ele><time>2026-04-11T16:19:17Z</time></trkpt><trkpt lat="44.33214026113553" lon="11.18697890417927"><ele>147.0</ele><time>2026-04-11T16:19:18Z</time></trkpt><trkpt lat="44.33208437176963" lon="11.18690161703619"><ele>147.0</ele><time>2026-04-11T16:19:19Z</time></trkpt><trkpt lat="44.332017742990914" lon="11.186820740283594"><ele>147.0</ele><time>2026-04-11T16:19:20Z</time></trkpt><trkpt lat="44.33195033040238" lon="11.186739313632739"><ele>147.0</ele><time>2026-04-11T16:19:21Z</time></trkpt><trkpt lat="44.33188529021847" lon="11.186653661176596"><ele>147.0</ele><time>2026-04-11T16:19:22Z</time></trkpt><trkpt lat="44.33182326395068" lon="11.186571831773742"><ele>147.0</ele><time>2026-04-11T16:19:23Z</time></trkpt><trkpt lat="44.331765641823324" lon="11.186500215634592"><ele>147.0</ele><time>2026-04-11T16:19:23.999Z</time></trkpt><trkpt lat="44.331707206195304" lon="11.18642780209925"><ele>147.0</ele><time>2026-04-11T16:19:24.999Z</time></trkpt><trkpt lat="44.3316964995537" lon="11.186536609172268"><ele>147.0</ele><time>2026-04-11T16:19:27.999Z</time></trkpt><trkpt lat="44.331746485452705" lon="11.186594525559405"><ele>147.0</ele><time>2026-04-11T16:19:28.999Z</time></trkpt><trkpt lat="44.33181612897605" lon="11.186667125449029"><ele>147.0</ele><time>2026-04-11T16:19:29.999Z</time></trkpt><trkpt lat="44.33189133825016" lon="11.186755618035178"><ele>147.0</ele><time>2026-04-11T16:19:30.999Z</time></trkpt><trkpt lat="44.33197224245996" lon="11.186862922885108"><ele>147.0</ele><time>2026-04-11T16:19:31.999Z</time></trkpt><trkpt lat="44.332061539494376" lon="11.186976489621053"><ele>147.0</ele><time>2026-04-11T16:19:32.999Z</time></trkpt><trkpt lat="44.33215715985156" lon="11.187090219341405"><ele>147.0</ele><time>2026-04-11T16:19:33.999Z</time></trkpt><trkpt lat="44.332241776081375" lon="11.187204122253727"><ele>147.0</ele><time>2026-04-11T16:19:34.999Z</time></trkpt><trkpt lat="44.33232188183916" lon="11.187320525060866"><ele>147.0</ele><time>2026-04-11T16:19:35.999Z</time></trkpt><trkpt lat="44.33239446372721" lon="11.187430713329096"><ele>147.0</ele><time>2026-04-11T16:19:36.999Z</time></trkpt><trkpt lat="44.33246278578148" lon="11.187541685819115"><ele>147.0</ele><time>2026-04-11T16:19:37.999Z</time></trkpt><trkpt lat="44.33252644756114" lon="11.187652450628438"><ele>147.0</ele><time>2026-04-11T16:19:38.999Z</time></trkpt><trkpt lat="44.332575948359086" lon="11.187764614708477"><ele>147.0</ele><time>2026-04-11T16:19:39.999Z</time></trkpt><trkpt lat="44.33261368121799" lon="11.187865271719796"><ele>147.0</ele><time>2026-04-11T16:19:40.999Z</time></trkpt><trkpt lat="44.332645752928066" lon="11.187961436187194"><ele>147.0</ele><time>2026-04-11T16:19:41.999Z</time></trkpt><trkpt lat="44.332682300550495" lon="11.18805389659427"><ele>147.0</ele><time>2026-04-11T16:19:42.999Z</time></trkpt><trkpt lat="44.33273938389663" lon="11.188112254660108"><ele>147.0</ele><time>2026-04-11T16:19:43.999Z</time></trkpt><trkpt lat="44.33283204001428" lon="11.188094378154519"><ele>147.0</ele><time>2026-04-11T16:19:45.999Z</time></trkpt><trkpt lat="44.332889968913804" lon="11.188029435170039"><ele>147.0</ele><time>2026-04-11T16:19:49.999Z</time></trkpt><trkpt lat="44.332995838097624" lon="11.187973653412968"><ele>147.0</ele><time>2026-04-11T16:19:51.999Z</time></trkpt><trkpt lat="44.33303246766543" lon="11.187855448091181"><ele>147.0</ele><time>2026-04-11T16:19:54.999Z</time></trkpt><trkpt lat="44.33300169611969" lon="11.18767861178349"><ele>147.0</ele><time>2026-04-11T16:19:56.999Z</time></trkpt><trkpt lat="44.33302952171572" lon="11.187552284784802"><ele>147.0</ele><time>2026-04-11T16:19:58.999Z</time></trkpt><trkpt lat="44.33305553596274" lon="11.18743078772959"><ele>147.0</ele><time>2026-04-11T16:20:00.999Z</time></trkpt><trkpt lat="44.33303224852289" lon="11.18729941785209"><ele>147.0</ele><time>2026-04-11T16:20:02.999Z</time></trkpt><trkpt lat="44.332995745876126" lon="11.187222888979544"><ele>147.0</ele><time>2026-04-11T16:20:03.999Z</time></trkpt><trkpt lat="44.33295599593358" lon="11.187129391103246"><ele>147.0</ele><time>2026-04-11T16:20:04.999Z</time></trkpt><trkpt lat="44.33292592863704" lon="11.187029726308829"><ele>147.0</ele><time>2026-04-11T16:20:05.999Z</time></trkpt><trkpt lat="44.33289565515105" lon="11.186926007654383"><ele>147.4</ele><time>2026-04-11T16:20:06.999Z</time></trkpt><trkpt lat="44.33287251215182" lon="11.186795021122276"><ele>147.79999999999998</ele><time>2026-04-11T16:20:08.999Z</time></trkpt><trkpt lat="44.33290716139778" lon="11.186647513923827"><ele>148.2</ele><time>2026-04-11T16:20:11.999Z</time></trkpt><trkpt lat="44.33294222438771" lon="11.186557136559301"><ele>148.6</ele><time>2026-04-11T16:20:12.999Z</time></trkpt><trkpt lat="44.33299190984356" lon="11.186440374652546"><ele>149.0</ele><time>2026-04-11T16:20:13.999Z</time></trkpt><trkpt lat="44.33305583709983" lon="11.186321688229462"><ele>150.66666666666666</ele><time>2026-04-11T16:20:14.999Z</time></trkpt><trkpt lat="44.33312534534102" lon="11.186156068058043"><ele>152.33333333333334</ele><time>2026-04-11T16:20:15.999Z</time></trkpt><trkpt lat="44.3331905072908" lon="11.185966632259218"><ele>154.0</ele><time>2026-04-11T16:20:16.999Z</time></trkpt><trkpt lat="44.333276245953854" lon="11.185765569570645"><ele>153.66666666666669</ele><time>2026-04-11T16:20:17.999Z</time></trkpt><trkpt lat="44.33335976417346" lon="11.185558795809476"><ele>153.33333333333334</ele><time>2026-04-11T16:20:18.999Z</time></trkpt><trkpt lat="44.33346034023313" lon="11.18536128899945"><ele>153.0</ele><time>2026-04-11T16:20:19.999Z</time></trkpt><trkpt lat="44.3335435679967" lon="11.185122608400382"><ele>153.0</ele><time>2026-04-11T16:20:20.999Z</time></trkpt><trkpt lat="44.333631233114176" lon="11.184914447735796"><ele>153.0</ele><time>2026-04-11T16:20:21.999Z</time></trkpt><trkpt lat="44.33370260656501" lon="11.18474500812804"><ele>153.0</ele><time>2026-04-11T16:20:22.999Z</time></trkpt><trkpt lat="44.333777864253484" lon="11.184574815374402"><ele>153.5</ele><time>2026-04-11T16:20:23.999Z</time></trkpt><trkpt lat="44.333838174634046" lon="11.184408649702958"><ele>154.0</ele><time>2026-04-11T16:20:24.999Z</time></trkpt><trkpt lat="44.33390822853982" lon="11.18428360152223"><ele>154.5</ele><time>2026-04-11T16:20:25.999Z</time></trkpt><trkpt lat="44.333915140098895" lon="11.18414805540386"><ele>155.0</ele><time>2026-04-11T16:20:26.999Z</time></trkpt><trkpt lat="44.33392498550535" lon="11.183820628359333"><ele>157.66666666666666</ele><time>2026-04-11T16:20:27.999Z</time></trkpt><trkpt lat="44.33392296269443" lon="11.183556851063873"><ele>160.33333333333334</ele><time>2026-04-11T16:20:28.999Z</time></trkpt><trkpt lat="44.33394051907596" lon="11.183286752902267"><ele>163.0</ele><time>2026-04-11T16:20:29.999Z</time></trkpt><trkpt lat="44.33394425976886" lon="11.18304101618228"><ele>163.0</ele><time>2026-04-11T16:20:30.999Z</time></trkpt><trkpt lat="44.333971022329926" lon="11.182753044564652"><ele>163.0</ele><time>2026-04-11T16:20:31.999Z</time></trkpt><trkpt lat="44.333994875779794" lon="11.182458933008371"><ele>163.0</ele><time>2026-04-11T16:20:32.999Z</time></trkpt><trkpt lat="44.334015567900835" lon="11.18215587785218"><ele>163.33333333333334</ele><time>2026-04-11T16:20:33.998Z</time></trkpt><trkpt lat="44.3340380706224" lon="11.181863405860812"><ele>163.66666666666666</ele><time>2026-04-11T16:20:34.998Z</time></trkpt><trkpt lat="44.334064755135" lon="11.181558774395675"><ele>164.0</ele><time>2026-04-11T16:20:35.998Z</time></trkpt><trkpt lat="44.334090538847356" lon="11.18127674501883"><ele>164.66666666666666</ele><time>2026-04-11T16:20:36.998Z</time></trkpt><trkpt lat="44.33412735691898" lon="11.180998335395243"><ele>165.33333333333334</ele><time>2026-04-11T16:20:37.998Z</time></trkpt><trkpt lat="44.33417143362452" lon="11.180717763002358"><ele>166.0</ele><time>2026-04-11T16:20:38.998Z</time></trkpt><trkpt lat="44.33421185205447" lon="11.180470177843754"><ele>166.66666666666669</ele><time>2026-04-11T16:20:39.998Z</time></trkpt><trkpt lat="44.33424954313034" lon="11.180232183519395"><ele>167.33333333333334</ele><time>2026-04-11T16:20:40.998Z</time></trkpt><trkpt lat="44.334295213872785" lon="11.179977314993593"><ele>168.0</ele><time>2026-04-11T16:20:41.998Z</time></trkpt><trkpt lat="44.33437703612918" lon="11.179732537490429"><ele>168.33333333333334</ele><time>2026-04-11T16:20:42.998Z</time></trkpt><trkpt lat="44.33444979177801" lon="11.179498009808567"><ele>168.66666666666669</ele><time>2026-04-11T16:20:44Z</time></trkpt><trkpt lat="44.33449697293744" lon="11.179238573377141"><ele>169.0</ele><time>2026-04-11T16:20:45Z</time></trkpt><trkpt lat="44.33454553404965" lon="11.178980660148495"><ele>168.5</ele><time>2026-04-11T16:20:46Z</time></trkpt><trkpt lat="44.33458298183102" lon="11.178752687518866"><ele>168.0</ele><time>2026-04-11T16:20:47Z</time></trkpt><trkpt lat="44.334617186332025" lon="11.17855823634364"><ele>167.5</ele><time>2026-04-11T16:20:48Z</time></trkpt><trkpt lat="44.33466370672026" lon="11.178381252582948"><ele>167.0</ele><time>2026-04-11T16:20:49Z</time></trkpt><trkpt lat="44.33472416717704" lon="11.178198182988478"><ele>169.5</ele><time>2026-04-11T16:20:50Z</time></trkpt><trkpt lat="44.33481015540174" lon="11.17804704778673"><ele>172.0</ele><time>2026-04-11T16:20:51Z</time></trkpt><trkpt lat="44.33490264577329" lon="11.177937087257874"><ele>174.5</ele><time>2026-04-11T16:20:52Z</time></trkpt><trkpt lat="44.335010065393256" lon="11.17782178934397"><ele>177.0</ele><time>2026-04-11T16:20:53Z</time></trkpt><trkpt lat="44.33511949147572" lon="11.177723747108722"><ele>177.0</ele><time>2026-04-11T16:20:54Z</time></trkpt><trkpt lat="44.3351962180921" lon="11.177590588158163"><ele>177.0</ele><time>2026-04-11T16:20:55Z</time></trkpt><trkpt lat="44.33523551746617" lon="11.177440693094074"><ele>177.0</ele><time>2026-04-11T16:20:56Z</time></trkpt><trkpt lat="44.33524270987344" lon="11.177304208668115"><ele>177.0</ele><time>2026-04-11T16:20:57Z</time></trkpt><trkpt lat="44.33523567457615" lon="11.177193071037847"><ele>177.0</ele><time>2026-04-11T16:20:58Z</time></trkpt><trkpt lat="44.33518506337277" lon="11.177095402839784"><ele>177.39999999999998</ele><time>2026-04-11T16:20:59Z</time></trkpt><trkpt lat="44.33508680691385" lon="11.177056600016266"><ele>177.79999999999998</ele><time>2026-04-11T16:21:00Z</time></trkpt><trkpt lat="44.334985854785664" lon="11.177010935884192"><ele>178.2</ele><time>2026-04-11T16:21:01Z</time></trkpt><trkpt lat="44.33488194509334" lon="11.176962781953117"><ele>178.6</ele><time>2026-04-11T16:21:02Z</time></trkpt><trkpt lat="44.334763758535445" lon="11.176902990372405"><ele>179.0</ele><time>2026-04-11T16:21:03Z</time></trkpt><trkpt lat="44.33466139593579" lon="11.176831922930665"><ele>183.0</ele><time>2026-04-11T16:21:04Z</time></trkpt><trkpt lat="44.334570023679696" lon="11.176778361515415"><ele>187.0</ele><time>2026-04-11T16:21:05Z</time></trkpt><trkpt lat="44.33450865292366" lon="11.176684993481578"><ele>191.0</ele><time>2026-04-11T16:21:06Z</time></trkpt><trkpt lat="44.33446858198064" lon="11.17657988670916"><ele>195.0</ele><time>2026-04-11T16:21:07Z</time></trkpt><trkpt lat="44.33445914171573" lon="11.1764437075442"><ele>199.0</ele><time>2026-04-11T16:21:08Z</time></trkpt><trkpt lat="44.33449431131364" lon="11.176283090142196"><ele>196.75</ele><time>2026-04-11T16:21:09Z</time></trkpt><trkpt lat="44.334588697062046" lon="11.17614647711284"><ele>194.5</ele><time>2026-04-11T16:21:10Z</time></trkpt><trkpt lat="44.33467953470677" lon="11.17601212134098"><ele>192.25</ele><time>2026-04-11T16:21:11Z</time></trkpt><trkpt lat="44.334740865550074" lon="11.175855237155966"><ele>190.0</ele><time>2026-04-11T16:21:12Z</time></trkpt><trkpt lat="44.33475854265801" lon="11.175656617842725"><ele>190.0</ele><time>2026-04-11T16:21:13Z</time></trkpt><trkpt lat="44.33473871718624" lon="11.175447455748952"><ele>190.0</ele><time>2026-04-11T16:21:14Z</time></trkpt><trkpt lat="44.33470447218153" lon="11.175227380949773"><ele>190.0</ele><time>2026-04-11T16:21:15Z</time></trkpt><trkpt lat="44.33467322937619" lon="11.174984720512384"><ele>192.75</ele><time>2026-04-11T16:21:16Z</time></trkpt><trkpt lat="44.33464575199896" lon="11.174764132573769"><ele>195.5</ele><time>2026-04-11T16:21:17Z</time></trkpt><trkpt lat="44.33465368368867" lon="11.1745720223906"><ele>198.25</ele><time>2026-04-11T16:21:18Z</time></trkpt><trkpt lat="44.33468003564147" lon="11.174410819987623"><ele>201.0</ele><time>2026-04-11T16:21:19Z</time></trkpt><trkpt lat="44.334772754057724" lon="11.174263595696402"><ele>201.0</ele><time>2026-04-11T16:21:20Z</time></trkpt><trkpt lat="44.334874770836045" lon="11.174112499089311"><ele>201.0</ele><time>2026-04-11T16:21:21Z</time></trkpt><trkpt lat="44.334954724343234" lon="11.173940716800978"><ele>201.0</ele><time>2026-04-11T16:21:22Z</time></trkpt><trkpt lat="44.33501704053661" lon="11.1737396032197"><ele>206.33333333333331</ele><time>2026-04-11T16:21:23Z</time></trkpt><trkpt lat="44.33508162682064" lon="11.173516698806779"><ele>211.66666666666666</ele><time>2026-04-11T16:21:24Z</time></trkpt><trkpt lat="44.33514659112302" lon="11.173313279337"><ele>217.0</ele><time>2026-04-11T16:21:25Z</time></trkpt><trkpt lat="44.33520428059338" lon="11.173148594015169"><ele>220.5</ele><time>2026-04-11T16:21:26Z</time></trkpt><trkpt lat="44.33526968624827" lon="11.173003146468599"><ele>224.0</ele><time>2026-04-11T16:21:26.999Z</time></trkpt><trkpt lat="44.33535359709107" lon="11.172884779634408"><ele>227.5</ele><time>2026-04-11T16:21:27.999Z</time></trkpt><trkpt lat="44.33544617553435" lon="11.172790699380617"><ele>231.0</ele><time>2026-04-11T16:21:28.999Z</time></trkpt><trkpt lat="44.33550972039447" lon="11.172690065183888"><ele>225.0</ele><time>2026-04-11T16:21:29.999Z</time></trkpt><trkpt lat="44.33555544924163" lon="11.172536718619723"><ele>219.0</ele><time>2026-04-11T16:21:30.999Z</time></trkpt><trkpt lat="44.33558997524943" lon="11.172355533591439"><ele>213.0</ele><time>2026-04-11T16:21:31.999Z</time></trkpt><trkpt lat="44.33560120870839" lon="11.17215242609314"><ele>207.0</ele><time>2026-04-11T16:21:32.999Z</time></trkpt><trkpt lat="44.3356001762994" lon="11.171940844116525"><ele>207.0</ele><time>2026-04-11T16:21:33.999Z</time></trkpt><trkpt lat="44.33560206200235" lon="11.171746428274623"><ele>207.0</ele><time>2026-04-11T16:21:34.999Z</time></trkpt><trkpt lat="44.33562126164067" lon="11.17157686612113"><ele>207.0</ele><time>2026-04-11T16:21:35.999Z</time></trkpt><trkpt lat="44.33566764662413" lon="11.17142922937826"><ele>207.0</ele><time>2026-04-11T16:21:36.999Z</time></trkpt><trkpt lat="44.335711310242935" lon="11.171285770930263"><ele>209.0</ele><time>2026-04-11T16:21:37.999Z</time></trkpt><trkpt lat="44.335742054597475" lon="11.171135038446904"><ele>211.0</ele><time>2026-04-11T16:21:38.999Z</time></trkpt><trkpt lat="44.335774903386316" lon="11.170977711147662"><ele>213.0</ele><time>2026-04-11T16:21:39.999Z</time></trkpt><trkpt lat="44.33581208588722" lon="11.17080510280947"><ele>215.0</ele><time>2026-04-11T16:21:40.999Z</time></trkpt><trkpt lat="44.33585657861639" lon="11.17062576755682"><ele>216.5</ele><time>2026-04-11T16:21:41.999Z</time></trkpt><trkpt lat="44.335908265978105" lon="11.170446763373759"><ele>218.0</ele><time>2026-04-11T16:21:42.999Z</time></trkpt><trkpt lat="44.335975877375084" lon="11.17027390795437"><ele>219.5</ele><time>2026-04-11T16:21:43.999Z</time></trkpt><trkpt lat="44.33605676023112" lon="11.170101032502235"><ele>221.0</ele><time>2026-04-11T16:21:44.999Z</time></trkpt><trkpt lat="44.33613163954974" lon="11.169910262594778"><ele>222.5</ele><time>2026-04-11T16:21:45.999Z</time></trkpt><trkpt lat="44.336192491241825" lon="11.16971190862905"><ele>224.0</ele><time>2026-04-11T16:21:46.999Z</time></trkpt><trkpt lat="44.33624294887915" lon="11.169516049076242"><ele>225.5</ele><time>2026-04-11T16:21:47.999Z</time></trkpt><trkpt lat="44.336279833328426" lon="11.169333027779507"><ele>227.0</ele><time>2026-04-11T16:21:48.999Z</time></trkpt><trkpt lat="44.33629167752341" lon="11.169154239043289"><ele>227.8</ele><time>2026-04-11T16:21:49.999Z</time></trkpt><trkpt lat="44.33629235044849" lon="11.16899702479221"><ele>228.6</ele><time>2026-04-11T16:21:50.999Z</time></trkpt><trkpt lat="44.336322148895206" lon="11.168864135821748"><ele>229.40000000000003</ele><time>2026-04-11T16:21:51.999Z</time></trkpt><trkpt lat="44.336392663174706" lon="11.168751450843425"><ele>230.20000000000002</ele><time>2026-04-11T16:21:52.999Z</time></trkpt><trkpt lat="44.33648937697829" lon="11.168652306393595"><ele>231.0</ele><time>2026-04-11T16:21:53.999Z</time></trkpt><trkpt lat="44.336615205830604" lon="11.168574645362598"><ele>229.5</ele><time>2026-04-11T16:21:54.999Z</time></trkpt><trkpt lat="44.336718479509784" lon="11.168480706719745"><ele>228.0</ele><time>2026-04-11T16:21:55.999Z</time></trkpt><trkpt lat="44.33681618558762" lon="11.168376610864364"><ele>226.5</ele><time>2026-04-11T16:21:56.999Z</time></trkpt><trkpt lat="44.33690298372805" lon="11.168265098657058"><ele>225.0</ele><time>2026-04-11T16:21:57.999Z</time></trkpt><trkpt lat="44.33699457679314" lon="11.168140533781829"><ele>225.0</ele><time>2026-04-11T16:21:58.999Z</time></trkpt><trkpt lat="44.337063748736924" lon="11.168018268187119"><ele>225.0</ele><time>2026-04-11T16:21:59.999Z</time></trkpt><trkpt lat="44.33711219068093" lon="11.167904380927741"><ele>225.0</ele><time>2026-04-11T16:22:00.999Z</time></trkpt><trkpt lat="44.337144327199425" lon="11.16778107977215"><ele>225.0</ele><time>2026-04-11T16:22:01.999Z</time></trkpt><trkpt lat="44.33712588559003" lon="11.167629168052962"><ele>225.0</ele><time>2026-04-11T16:22:02.999Z</time></trkpt><trkpt lat="44.33706479034381" lon="11.167469337658476"><ele>227.0</ele><time>2026-04-11T16:22:03.999Z</time></trkpt><trkpt lat="44.33699045725543" lon="11.167310249323451"><ele>229.0</ele><time>2026-04-11T16:22:04.999Z</time></trkpt><trkpt lat="44.33693305258763" lon="11.16714349167384"><ele>231.0</ele><time>2026-04-11T16:22:05.999Z</time></trkpt><trkpt lat="44.3369061315076" lon="11.16697299326144"><ele>233.0</ele><time>2026-04-11T16:22:06.999Z</time></trkpt><trkpt lat="44.336915839971326" lon="11.166814004964774"><ele>233.0</ele><time>2026-04-11T16:22:07.999Z</time></trkpt><trkpt lat="44.33697207557596" lon="11.166656915459345"><ele>233.0</ele><time>2026-04-11T16:22:08.999Z</time></trkpt><trkpt lat="44.337041045687094" lon="11.166485742050657"><ele>233.0</ele><time>2026-04-11T16:22:09.999Z</time></trkpt><trkpt lat="44.33710320353767" lon="11.166299443566826"><ele>233.0</ele><time>2026-04-11T16:22:10.999Z</time></trkpt><trkpt lat="44.337171342283824" lon="11.166108261006201"><ele>233.25</ele><time>2026-04-11T16:22:11.999Z</time></trkpt><trkpt lat="44.33722554960006" lon="11.165918619733885"><ele>233.5</ele><time>2026-04-11T16:22:12.999Z</time></trkpt><trkpt lat="44.337265875448196" lon="11.16573441747923"><ele>233.75</ele><time>2026-04-11T16:22:13.999Z</time></trkpt><trkpt lat="44.33728341548787" lon="11.165534352188162"><ele>234.0</ele><time>2026-04-11T16:22:14.999Z</time></trkpt><trkpt lat="44.33728050193264" lon="11.165317077159555"><ele>234.0</ele><time>2026-04-11T16:22:15.999Z</time></trkpt><trkpt lat="44.33725378246419" lon="11.165121837956073"><ele>234.0</ele><time>2026-04-11T16:22:16.999Z</time></trkpt><trkpt lat="44.3372308905353" lon="11.164938887305173"><ele>234.0</ele><time>2026-04-11T16:22:17.999Z</time></trkpt><trkpt lat="44.33724506974949" lon="11.164773507372656"><ele>234.0</ele><time>2026-04-11T16:22:18.999Z</time></trkpt><trkpt lat="44.33730435472228" lon="11.164637896757439"><ele>233.75</ele><time>2026-04-11T16:22:19.999Z</time></trkpt><trkpt lat="44.337355014212754" lon="11.164510024166217"><ele>233.5</ele><time>2026-04-11T16:22:20.999Z</time></trkpt><trkpt lat="44.337356749114406" lon="11.164355308998319"><ele>233.25</ele><time>2026-04-11T16:22:21.999Z</time></trkpt><trkpt lat="44.337315476928666" lon="11.164182629267051"><ele>233.0</ele><time>2026-04-11T16:22:22.999Z</time></trkpt><trkpt lat="44.33725802858297" lon="11.164004379022348"><ele>232.5</ele><time>2026-04-11T16:22:23.999Z</time></trkpt><trkpt lat="44.33721271313824" lon="11.163814244323765"><ele>232.0</ele><time>2026-04-11T16:22:24.999Z</time></trkpt><trkpt lat="44.3371949542464" lon="11.163604387919523"><ele>231.5</ele><time>2026-04-11T16:22:25.999Z</time></trkpt><trkpt lat="44.33718302842347" lon="11.163394572776848"><ele>231.0</ele><time>2026-04-11T16:22:26.999Z</time></trkpt><trkpt lat="44.337166058610535" lon="11.163183458599564"><ele>231.0</ele><time>2026-04-11T16:22:27.999Z</time></trkpt><trkpt lat="44.3371542188215" lon="11.162975189140314"><ele>231.0</ele><time>2026-04-11T16:22:28.999Z</time></trkpt><trkpt lat="44.33714005900324" lon="11.162796498554204"><ele>231.0</ele><time>2026-04-11T16:22:29.999Z</time></trkpt><trkpt lat="44.337101757605645" lon="11.162611442243294"><ele>231.0</ele><time>2026-04-11T16:22:30.999Z</time></trkpt><trkpt lat="44.33702890541847" lon="11.162432884900621"><ele>230.25</ele><time>2026-04-11T16:22:31.999Z</time></trkpt><trkpt lat="44.33697125821209" lon="11.16228277245727"><ele>229.5</ele><time>2026-04-11T16:22:32.999Z</time></trkpt><trkpt lat="44.33692888941104" lon="11.162116621867014"><ele>228.75</ele><time>2026-04-11T16:22:33.999Z</time></trkpt><trkpt lat="44.336905679897214" lon="11.161934884937288"><ele>228.0</ele><time>2026-04-11T16:22:34.999Z</time></trkpt><trkpt lat="44.336906855280255" lon="11.161723151105997"><ele>228.0</ele><time>2026-04-11T16:22:35.999Z</time></trkpt><trkpt lat="44.33691149882948" lon="11.161533421097186"><ele>228.0</ele><time>2026-04-11T16:22:36.999Z</time></trkpt><trkpt lat="44.336911389356736" lon="11.161358567384465"><ele>228.0</ele><time>2026-04-11T16:22:37.999Z</time></trkpt><trkpt lat="44.33691022026462" lon="11.161185407156688"><ele>228.0</ele><time>2026-04-11T16:22:38.998Z</time></trkpt><trkpt lat="44.336912399509636" lon="11.16100546303202"><ele>229.5</ele><time>2026-04-11T16:22:39.998Z</time></trkpt><trkpt lat="44.33693072904672" lon="11.160824995617617"><ele>231.0</ele><time>2026-04-11T16:22:40.998Z</time></trkpt><trkpt lat="44.33697854943238" lon="11.160653288670241"><ele>232.5</ele><time>2026-04-11T16:22:41.998Z</time></trkpt><trkpt lat="44.3370436235019" lon="11.16048913045707"><ele>234.0</ele><time>2026-04-11T16:22:42.998Z</time></trkpt><trkpt lat="44.33710375747327" lon="11.160328429013676"><ele>235.0</ele><time>2026-04-11T16:22:43.998Z</time></trkpt><trkpt lat="44.33713365046289" lon="11.160175114612446"><ele>236.0</ele><time>2026-04-11T16:22:44.998Z</time></trkpt><trkpt lat="44.337136406470364" lon="11.160007464737829"><ele>237.0</ele><time>2026-04-11T16:22:45.998Z</time></trkpt><trkpt lat="44.3371178625155" lon="11.159828022895368"><ele>238.0</ele><time>2026-04-11T16:22:46.998Z</time></trkpt><trkpt lat="44.33708250251475" lon="11.159636162966434"><ele>239.0</ele><time>2026-04-11T16:22:47.998Z</time></trkpt><trkpt lat="44.337051368037315" lon="11.159440918083803"><ele>240.0</ele><time>2026-04-11T16:22:48.998Z</time></trkpt><trkpt lat="44.33702608038918" lon="11.159239612949062"><ele>241.0</ele><time>2026-04-11T16:22:50Z</time></trkpt><trkpt lat="44.336974707168885" lon="11.159021005409402"><ele>241.66666666666666</ele><time>2026-04-11T16:22:51Z</time></trkpt><trkpt lat="44.33692377515476" lon="11.158804455800432"><ele>242.33333333333331</ele><time>2026-04-11T16:22:52Z</time></trkpt><trkpt lat="44.33686894589926" lon="11.158595286762901"><ele>243.0</ele><time>2026-04-11T16:22:53Z</time></trkpt><trkpt lat="44.33682946123143" lon="11.158421142884121"><ele>243.0</ele><time>2026-04-11T16:22:54Z</time></trkpt><trkpt lat="44.33681017812626" lon="11.158272834727448"><ele>243.0</ele><time>2026-04-11T16:22:55Z</time></trkpt><trkpt lat="44.336799693289606" lon="11.158140594655919"><ele>243.0</ele><time>2026-04-11T16:22:56Z</time></trkpt><trkpt lat="44.33680143464165" lon="11.157993604099493"><ele>243.0</ele><time>2026-04-11T16:22:57Z</time></trkpt><trkpt lat="44.33683180918935" lon="11.15782302909017"><ele>243.0</ele><time>2026-04-11T16:22:58Z</time></trkpt><trkpt lat="44.3369038559006" lon="11.157669920435588"><ele>243.0</ele><time>2026-04-11T16:22:59Z</time></trkpt><trkpt lat="44.33699224637" lon="11.157525501140562"><ele>243.0</ele><time>2026-04-11T16:23:00Z</time></trkpt><trkpt lat="44.33706340143203" lon="11.157361255611718"><ele>243.0</ele><time>2026-04-11T16:23:01Z</time></trkpt><trkpt lat="44.33712607156325" lon="11.157199480724172"><ele>243.0</ele><time>2026-04-11T16:23:02Z</time></trkpt><trkpt lat="44.337195528997704" lon="11.157045394523882"><ele>244.5</ele><time>2026-04-11T16:23:03Z</time></trkpt><trkpt lat="44.337294814551186" lon="11.156920797742414"><ele>246.0</ele><time>2026-04-11T16:23:04Z</time></trkpt><trkpt lat="44.337407320878924" lon="11.156794449801462"><ele>247.5</ele><time>2026-04-11T16:23:05Z</time></trkpt><trkpt lat="44.33749558448844" lon="11.156651252820131"><ele>249.0</ele><time>2026-04-11T16:23:06Z</time></trkpt><trkpt lat="44.33757411402132" lon="11.156476464263312"><ele>249.0</ele><time>2026-04-11T16:23:07Z</time></trkpt><trkpt lat="44.33763584745708" lon="11.156291665842149"><ele>249.0</ele><time>2026-04-11T16:23:08Z</time></trkpt><trkpt lat="44.33767554975728" lon="11.156104169059274"><ele>249.0</ele><time>2026-04-11T16:23:09Z</time></trkpt><trkpt lat="44.337693060347014" lon="11.155913277615191"><ele>249.0</ele><time>2026-04-11T16:23:10Z</time></trkpt><trkpt lat="44.337712180970755" lon="11.155741333706095"><ele>248.79999999999998</ele><time>2026-04-11T16:23:11Z</time></trkpt><trkpt lat="44.33774693307483" lon="11.155587436463422"><ele>248.59999999999997</ele><time>2026-04-11T16:23:12Z</time></trkpt><trkpt lat="44.33780500729718" lon="11.155458859365295"><ele>248.4</ele><time>2026-04-11T16:23:13Z</time></trkpt><trkpt lat="44.337880916447745" lon="11.155355119442046"><ele>248.2</ele><time>2026-04-11T16:23:14Z</time></trkpt><trkpt lat="44.337976292788326" lon="11.155291409763658"><ele>248.0</ele><time>2026-04-11T16:23:15Z</time></trkpt><trkpt lat="44.338084555699645" lon="11.155272052300262"><ele>250.2</ele><time>2026-04-11T16:23:16Z</time></trkpt><trkpt lat="44.338172405324976" lon="11.155249896253713"><ele>252.4</ele><time>2026-04-11T16:23:17Z</time></trkpt><trkpt lat="44.33824073118912" lon="11.155182610965708"><ele>254.59999999999997</ele><time>2026-04-11T16:23:18Z</time></trkpt><trkpt lat="44.338287098414426" lon="11.155053543805435"><ele>256.8</ele><time>2026-04-11T16:23:19Z</time></trkpt><trkpt lat="44.338290049644684" lon="11.154868744982162"><ele>259.0</ele><time>2026-04-11T16:23:20Z</time></trkpt><trkpt lat="44.33826904541402" lon="11.154699007142508"><ele>260.4</ele><time>2026-04-11T16:23:21Z</time></trkpt><trkpt lat="44.338214082400604" lon="11.154558918412661"><ele>261.79999999999995</ele><time>2026-04-11T16:23:22Z</time></trkpt><trkpt lat="44.33813409296732" lon="11.154461883438303"><ele>263.20000000000005</ele><time>2026-04-11T16:23:23Z</time></trkpt><trkpt lat="44.33804247193412" lon="11.154398691631934"><ele>264.6</ele><time>2026-04-11T16:23:24Z</time></trkpt><trkpt lat="44.33796141581294" lon="11.154313798220096"><ele>266.0</ele><time>2026-04-11T16:23:25Z</time></trkpt><trkpt lat="44.3378928503661" lon="11.154169893553489"><ele>262.33333333333337</ele><time>2026-04-11T16:23:26Z</time></trkpt><trkpt lat="44.33785570882432" lon="11.153980476483254"><ele>258.6666666666667</ele><time>2026-04-11T16:23:27Z</time></trkpt><trkpt lat="44.337840019150185" lon="11.153763750799042"><ele>255.0</ele><time>2026-04-11T16:23:28Z</time></trkpt><trkpt lat="44.3378251361594" lon="11.153542426597424"><ele>255.0</ele><time>2026-04-11T16:23:29Z</time></trkpt><trkpt lat="44.33778894393696" lon="11.153307938932855"><ele>255.0</ele><time>2026-04-11T16:23:30Z</time></trkpt><trkpt lat="44.33772291788057" lon="11.153055771297003"><ele>255.0</ele><time>2026-04-11T16:23:31Z</time></trkpt><trkpt lat="44.33767488855527" lon="11.152826256160775"><ele>257.0</ele><time>2026-04-11T16:23:32Z</time></trkpt><trkpt lat="44.337637613900704" lon="11.152604776286744"><ele>259.0</ele><time>2026-04-11T16:23:33Z</time></trkpt><trkpt lat="44.33760238229533" lon="11.152366215524708"><ele>261.0</ele><time>2026-04-11T16:23:34Z</time></trkpt><trkpt lat="44.33758232258347" lon="11.15213683176059"><ele>262.3333333333333</ele><time>2026-04-11T16:23:35Z</time></trkpt><trkpt lat="44.3375693229863" lon="11.151886563420002"><ele>263.66666666666663</ele><time>2026-04-11T16:23:35.999Z</time></trkpt><trkpt lat="44.337562761270895" lon="11.151648423041541"><ele>265.0</ele><time>2026-04-11T16:23:36.999Z</time></trkpt><trkpt lat="44.33755000469511" lon="11.151409125444747"><ele>265.75</ele><time>2026-04-11T16:23:37.999Z</time></trkpt><trkpt lat="44.33753971977523" lon="11.151200359268262"><ele>266.5</ele><time>2026-04-11T16:23:38.999Z</time></trkpt><trkpt lat="44.3375395679647" lon="11.150996831926665"><ele>267.25</ele><time>2026-04-11T16:23:39.999Z</time></trkpt><trkpt lat="44.337553580535726" lon="11.150812947587642"><ele>268.0</ele><time>2026-04-11T16:23:40.999Z</time></trkpt><trkpt lat="44.33757714732701" lon="11.150607642938626"><ele>268.25</ele><time>2026-04-11T16:23:41.999Z</time></trkpt><trkpt lat="44.337622965424764" lon="11.150427049442058"><ele>268.5</ele><time>2026-04-11T16:23:42.999Z</time></trkpt><trkpt lat="44.33765767813744" lon="11.150241406586424"><ele>268.75</ele><time>2026-04-11T16:23:43.999Z</time></trkpt><trkpt lat="44.337679407748396" lon="11.150063939519077"><ele>269.0</ele><time>2026-04-11T16:23:44.999Z</time></trkpt><trkpt lat="44.33768489919512" lon="11.14986811135641"><ele>268.5</ele><time>2026-04-11T16:23:45.999Z</time></trkpt><trkpt lat="44.33767425284097" lon="11.14965847065317"><ele>268.0</ele><time>2026-04-11T16:23:46.999Z</time></trkpt><trkpt lat="44.33765839497628" lon="11.149466313878108"><ele>267.5</ele><time>2026-04-11T16:23:47.999Z</time></trkpt><trkpt lat="44.337635673891036" lon="11.149275113230052"><ele>267.0</ele><time>2026-04-11T16:23:48.999Z</time></trkpt><trkpt lat="44.337618263521286" lon="11.149082421132183"><ele>268.75</ele><time>2026-04-11T16:23:49.999Z</time></trkpt><trkpt lat="44.33758004697224" lon="11.14886623370766"><ele>270.5</ele><time>2026-04-11T16:23:50.999Z</time></trkpt><trkpt lat="44.337501451968656" lon="11.148671396232624"><ele>272.25</ele><time>2026-04-11T16:23:51.999Z</time></trkpt><trkpt lat="44.33744034476145" lon="11.1485218737709"><ele>274.0</ele><time>2026-04-11T16:23:52.999Z</time></trkpt><trkpt lat="44.33740838084398" lon="11.148437036106946"><ele>274.0</ele><time>2026-04-11T16:23:53.999Z</time></trkpt><trkpt lat="44.3373503887625" lon="11.148358923575321"><ele>274.0</ele><time>2026-04-11T16:23:54.999Z</time></trkpt><trkpt lat="44.337314598775514" lon="11.148266390048985"><ele>274.0</ele><time>2026-04-11T16:23:55.999Z</time></trkpt><trkpt lat="44.337312815110685" lon="11.14815385055274"><ele>274.0</ele><time>2026-04-11T16:23:56.999Z</time></trkpt><trkpt lat="44.3373245694847" lon="11.148005946610814"><ele>274.0</ele><time>2026-04-11T16:23:57.999Z</time></trkpt><trkpt lat="44.33733637489882" lon="11.14784398024581"><ele>274.5</ele><time>2026-04-11T16:23:58.999Z</time></trkpt><trkpt lat="44.33734436208456" lon="11.147662473880457"><ele>275.0</ele><time>2026-04-11T16:23:59.999Z</time></trkpt><trkpt lat="44.3373666492872" lon="11.147460694002387"><ele>275.5</ele><time>2026-04-11T16:24:00.999Z</time></trkpt><trkpt lat="44.33740563955356" lon="11.14728528020177"><ele>276.0</ele><time>2026-04-11T16:24:01.999Z</time></trkpt><trkpt lat="44.33744447246636" lon="11.147127015449836"><ele>276.0</ele><time>2026-04-11T16:24:02.999Z</time></trkpt><trkpt lat="44.33750361276256" lon="11.146982939108762"><ele>276.0</ele><time>2026-04-11T16:24:03.999Z</time></trkpt><trkpt lat="44.33759555386721" lon="11.146846514765333"><ele>276.0</ele><time>2026-04-11T16:24:04.999Z</time></trkpt><trkpt lat="44.33769734685184" lon="11.146713052728552"><ele>276.0</ele><time>2026-04-11T16:24:05.999Z</time></trkpt><trkpt lat="44.33778396061661" lon="11.14654723570512"><ele>274.6666666666667</ele><time>2026-04-11T16:24:06.999Z</time></trkpt><trkpt lat="44.33785816354983" lon="11.146367210965893"><ele>273.33333333333337</ele><time>2026-04-11T16:24:07.999Z</time></trkpt><trkpt lat="44.33791214211278" lon="11.14614173044343"><ele>272.0</ele><time>2026-04-11T16:24:08.999Z</time></trkpt><trkpt lat="44.3379428879787" lon="11.145908102598849"><ele>274.6666666666667</ele><time>2026-04-11T16:24:09.999Z</time></trkpt><trkpt lat="44.33796727259683" lon="11.145673758037175"><ele>277.3333333333333</ele><time>2026-04-11T16:24:10.999Z</time></trkpt><trkpt lat="44.3379722562751" lon="11.145445313908505"><ele>280.0</ele><time>2026-04-11T16:24:11.999Z</time></trkpt><trkpt lat="44.33799457831514" lon="11.14526267237391"><ele>280.0</ele><time>2026-04-11T16:24:12.999Z</time></trkpt><trkpt lat="44.338025873374185" lon="11.145112831513634"><ele>280.0</ele><time>2026-04-11T16:24:13.999Z</time></trkpt><trkpt lat="44.33806702889893" lon="11.145006208604425"><ele>280.0</ele><time>2026-04-11T16:24:14.999Z</time></trkpt><trkpt lat="44.338117266415075" lon="11.144936007308866"><ele>280.0</ele><time>2026-04-11T16:24:15.999Z</time></trkpt><trkpt lat="44.33818782278642" lon="11.144878627146678"><ele>280.0</ele><time>2026-04-11T16:24:16.999Z</time></trkpt><trkpt lat="44.33828236850757" lon="11.144828660109676"><ele>281.5</ele><time>2026-04-11T16:24:17.999Z</time></trkpt><trkpt lat="44.338392087604255" lon="11.144779409111491"><ele>283.0</ele><time>2026-04-11T16:24:18.999Z</time></trkpt><trkpt lat="44.33850582158448" lon="11.14471358834396"><ele>284.5</ele><time>2026-04-11T16:24:19.999Z</time></trkpt><trkpt lat="44.3386148532464" lon="11.144645403122125"><ele>286.0</ele><time>2026-04-11T16:24:20.999Z</time></trkpt><trkpt lat="44.338718472296335" lon="11.144520107994651"><ele>286.0</ele><time>2026-04-11T16:24:21.999Z</time></trkpt><trkpt lat="44.33880296015395" lon="11.144347780145216"><ele>286.0</ele><time>2026-04-11T16:24:22.999Z</time></trkpt><trkpt lat="44.33886027865484" lon="11.144189159905602"><ele>286.0</ele><time>2026-04-11T16:24:23.999Z</time></trkpt><trkpt lat="44.338947268999206" lon="11.14398188775944"><ele>286.0</ele><time>2026-04-11T16:24:24.999Z</time></trkpt><trkpt lat="44.33903421719255" lon="11.14376777728904"><ele>287.0</ele><time>2026-04-11T16:24:25.999Z</time></trkpt><trkpt lat="44.33913131941069" lon="11.143546776638457"><ele>288.0</ele><time>2026-04-11T16:24:26.999Z</time></trkpt><trkpt lat="44.33922530054442" lon="11.143349839099598"><ele>289.0</ele><time>2026-04-11T16:24:27.999Z</time></trkpt><trkpt lat="44.33931242876276" lon="11.143156794922001"><ele>290.66666666666663</ele><time>2026-04-11T16:24:28.999Z</time></trkpt><trkpt lat="44.339382076434966" lon="11.142975910622042"><ele>292.3333333333333</ele><time>2026-04-11T16:24:29.999Z</time></trkpt><trkpt lat="44.33943738824188" lon="11.142764968348436"><ele>294.0</ele><time>2026-04-11T16:24:30.999Z</time></trkpt><trkpt lat="44.339465258615974" lon="11.142543654854409"><ele>294.6666666666667</ele><time>2026-04-11T16:24:31.999Z</time></trkpt><trkpt lat="44.33947954205894" lon="11.142305163137081"><ele>295.33333333333337</ele><time>2026-04-11T16:24:32.999Z</time></trkpt><trkpt lat="44.339483594358526" lon="11.142061831186245"><ele>296.0</ele><time>2026-04-11T16:24:33.999Z</time></trkpt><trkpt lat="44.33947550950991" lon="11.141844779467046"><ele>296.0</ele><time>2026-04-11T16:24:34.999Z</time></trkpt><trkpt lat="44.33946262007676" lon="11.14164339632656"><ele>296.0</ele><time>2026-04-11T16:24:35.999Z</time></trkpt><trkpt lat="44.33942852045308" lon="11.141449847052845"><ele>296.0</ele><time>2026-04-11T16:24:36.999Z</time></trkpt><trkpt lat="44.33935733524562" lon="11.141239238579981"><ele>297.0</ele><time>2026-04-11T16:24:37.999Z</time></trkpt><trkpt lat="44.339273985443384" lon="11.141043477055698"><ele>298.0</ele><time>2026-04-11T16:24:38.999Z</time></trkpt><trkpt lat="44.33919485581979" lon="11.14084019979723"><ele>299.0</ele><time>2026-04-11T16:24:39.999Z</time></trkpt><trkpt lat="44.339123227712136" lon="11.140641318075808"><ele>299.75</ele><time>2026-04-11T16:24:40.999Z</time></trkpt><trkpt lat="44.339072894253306" lon="11.140474722695199"><ele>300.5</ele><time>2026-04-11T16:24:41.999Z</time></trkpt><trkpt lat="44.339028453126936" lon="11.140306596291378"><ele>301.25</ele><time>2026-04-11T16:24:42.999Z</time></trkpt><trkpt lat="44.33901225664191" lon="11.140109571438295"><ele>302.0</ele><time>2026-04-11T16:24:43.999Z</time></trkpt><trkpt lat="44.338988780106554" lon="11.13993525240653"><ele>303.25</ele><time>2026-04-11T16:24:44.999Z</time></trkpt><trkpt lat="44.338995398779936" lon="11.139776527646212"><ele>304.5</ele><time>2026-04-11T16:24:45.999Z</time></trkpt><trkpt lat="44.33902918135507" lon="11.13960337080891"><ele>305.75</ele><time>2026-04-11T16:24:46.999Z</time></trkpt><trkpt lat="44.33906735919857" lon="11.139419175468516"><ele>307.0</ele><time>2026-04-11T16:24:47.999Z</time></trkpt><trkpt lat="44.33909429951284" lon="11.139211475060902"><ele>309.0</ele><time>2026-04-11T16:24:48.999Z</time></trkpt><trkpt lat="44.33914791533939" lon="11.139006229442286"><ele>311.0</ele><time>2026-04-11T16:24:49.999Z</time></trkpt><trkpt lat="44.33917220563312" lon="11.138784812835437"><ele>313.0</ele><time>2026-04-11T16:24:50.999Z</time></trkpt><trkpt lat="44.3392205705071" lon="11.13855796435398"><ele>313.0</ele><time>2026-04-11T16:24:51.999Z</time></trkpt><trkpt lat="44.339284661437524" lon="11.13833681130675"><ele>313.0</ele><time>2026-04-11T16:24:52.998Z</time></trkpt><trkpt lat="44.33936055011598" lon="11.138139244524124"><ele>313.0</ele><time>2026-04-11T16:24:53.998Z</time></trkpt><trkpt lat="44.339453495788845" lon="11.13796069503342"><ele>312.66666666666663</ele><time>2026-04-11T16:24:54.998Z</time></trkpt><trkpt lat="44.339549840675126" lon="11.137789563802"><ele>312.3333333333333</ele><time>2026-04-11T16:24:56Z</time></trkpt><trkpt lat="44.33964056985503" lon="11.137614232366975"><ele>312.0</ele><time>2026-04-11T16:24:57Z</time></trkpt><trkpt lat="44.339738953433404" lon="11.137436675463166"><ele>317.0</ele><time>2026-04-11T16:24:58Z</time></trkpt><trkpt lat="44.33985432262446" lon="11.137258426984772"><ele>322.0</ele><time>2026-04-11T16:24:59Z</time></trkpt><trkpt lat="44.33998548994" lon="11.137101275362784"><ele>327.0</ele><time>2026-04-11T16:25:00Z</time></trkpt><trkpt lat="44.34011772462977" lon="11.136943718357042"><ele>327.0</ele><time>2026-04-11T16:25:01Z</time></trkpt><trkpt lat="44.34023553968491" lon="11.136781706589579"><ele>327.0</ele><time>2026-04-11T16:25:02Z</time></trkpt><trkpt lat="44.34033240243031" lon="11.136626525402486"><ele>327.0</ele><time>2026-04-11T16:25:03Z</time></trkpt><trkpt lat="44.34041066676902" lon="11.13649465689711"><ele>327.0</ele><time>2026-04-11T16:25:04Z</time></trkpt><trkpt lat="44.3404918589769" lon="11.13634886036199"><ele>327.0</ele><time>2026-04-11T16:25:05Z</time></trkpt><trkpt lat="44.340552056965066" lon="11.136183690572114"><ele>327.0</ele><time>2026-04-11T16:25:06Z</time></trkpt><trkpt lat="44.3405737120251" lon="11.136009414645885"><ele>327.0</ele><time>2026-04-11T16:25:07Z</time></trkpt><trkpt lat="44.34057571461991" lon="11.135817472333557"><ele>327.0</ele><time>2026-04-11T16:25:08Z</time></trkpt><trkpt lat="44.34056688353484" lon="11.135620447744106"><ele>333.3333333333333</ele><time>2026-04-11T16:25:09Z</time></trkpt><trkpt lat="44.340538289006574" lon="11.135432678062866"><ele>339.66666666666663</ele><time>2026-04-11T16:25:10Z</time></trkpt><trkpt lat="44.34049259207137" lon="11.135216281990083"><ele>346.0</ele><time>2026-04-11T16:25:11Z</time></trkpt><trkpt lat="44.340447318572046" lon="11.135001208781416"><ele>346.3333333333333</ele><time>2026-04-11T16:25:12Z</time></trkpt><trkpt lat="44.34039947041485" lon="11.134785774444095"><ele>346.6666666666667</ele><time>2026-04-11T16:25:13Z</time></trkpt><trkpt lat="44.340355180482284" lon="11.134553151035037"><ele>347.0</ele><time>2026-04-11T16:25:14Z</time></trkpt><trkpt lat="44.34031365553715" lon="11.134329808471715"><ele>347.0</ele><time>2026-04-11T16:25:15Z</time></trkpt><trkpt lat="44.34027660332768" lon="11.134130409123932"><ele>347.0</ele><time>2026-04-11T16:25:16Z</time></trkpt><trkpt lat="44.3402438291391" lon="11.133929677873104"><ele>347.0</ele><time>2026-04-11T16:25:17Z</time></trkpt><trkpt lat="44.34023034079324" lon="11.133737627535679"><ele>347.0</ele><time>2026-04-11T16:25:18Z</time></trkpt><trkpt lat="44.34024657792809" lon="11.133528505042204"><ele>349.0</ele><time>2026-04-11T16:25:19Z</time></trkpt><trkpt lat="44.34026781168817" lon="11.133292426063383"><ele>351.0</ele><time>2026-04-11T16:25:20Z</time></trkpt><trkpt lat="44.34030419506889" lon="11.133069220128462"><ele>353.0</ele><time>2026-04-11T16:25:21Z</time></trkpt><trkpt lat="44.34035998367742" lon="11.132836013580649"><ele>354.33333333333337</ele><time>2026-04-11T16:25:22Z</time></trkpt><trkpt lat="44.340421704081706" lon="11.132587295708092"><ele>355.6666666666667</ele><time>2026-04-11T16:25:23Z</time></trkpt><trkpt lat="44.340480532435365" lon="11.132345944776247"><ele>357.0</ele><time>2026-04-11T16:25:24Z</time></trkpt><trkpt lat="44.34053602795057" lon="11.132068038897243"><ele>355.0</ele><time>2026-04-11T16:25:25Z</time></trkpt><trkpt lat="44.34057170806483" lon="11.131808176161616"><ele>353.0</ele><time>2026-04-11T16:25:26Z</time></trkpt><trkpt lat="44.34060835742751" lon="11.131530706869802"><ele>351.0</ele><time>2026-04-11T16:25:27Z</time></trkpt><trkpt lat="44.34065381351579" lon="11.131257920371516"><ele>351.0</ele><time>2026-04-11T16:25:28Z</time></trkpt><trkpt lat="44.34068578341658" lon="11.131010817472752"><ele>351.0</ele><time>2026-04-11T16:25:29Z</time></trkpt><trkpt lat="44.34070646267132" lon="11.130740699896617"><ele>351.0</ele><time>2026-04-11T16:25:30Z</time></trkpt><trkpt lat="44.34072236314669" lon="11.130505916697217"><ele>352.0</ele><time>2026-04-11T16:25:31Z</time></trkpt><trkpt lat="44.340732238821666" lon="11.13028041106607"><ele>353.0</ele><time>2026-04-11T16:25:32Z</time></trkpt><trkpt lat="44.34074372851904" lon="11.130077415498752"><ele>354.0</ele><time>2026-04-11T16:25:33Z</time></trkpt><trkpt lat="44.34078094337127" lon="11.12989425833519"><ele>355.0</ele><time>2026-04-11T16:25:34Z</time></trkpt><trkpt lat="44.34081440892812" lon="11.12973320629899"><ele>358.0</ele><time>2026-04-11T16:25:35Z</time></trkpt><trkpt lat="44.34086710604285" lon="11.129589978087886"><ele>361.0</ele><time>2026-04-11T16:25:36Z</time></trkpt><trkpt lat="44.340927789932636" lon="11.1294454400025"><ele>364.0</ele><time>2026-04-11T16:25:37Z</time></trkpt><trkpt lat="44.34102074974233" lon="11.129346223503175"><ele>367.0</ele><time>2026-04-11T16:25:38Z</time></trkpt><trkpt lat="44.34112603733461" lon="11.129257832573286"><ele>367.0</ele><time>2026-04-11T16:25:38.999Z</time></trkpt><trkpt lat="44.34122889995901" lon="11.129212735343982"><ele>367.0</ele><time>2026-04-11T16:25:39.999Z</time></trkpt><trkpt lat="44.3413232433695" lon="11.12918426732064"><ele>367.0</ele><time>2026-04-11T16:25:40.999Z</time></trkpt><trkpt lat="44.341416906106964" lon="11.129157248534602"><ele>367.0</ele><time>2026-04-11T16:25:41.999Z</time></trkpt><trkpt lat="44.341510207288884" lon="11.129117510283638"><ele>367.0</ele><time>2026-04-11T16:25:42.999Z</time></trkpt><trkpt lat="44.34158739356294" lon="11.129055846406436"><ele>367.0</ele><time>2026-04-11T16:25:43.999Z</time></trkpt><trkpt lat="44.34165025410186" lon="11.128949797954915"><ele>367.0</ele><time>2026-04-11T16:25:44.999Z</time></trkpt><trkpt lat="44.341687669406106" lon="11.12880736630337"><ele>367.0</ele><time>2026-04-11T16:25:45.999Z</time></trkpt><trkpt lat="44.34169733239246" lon="11.128646936744065"><ele>367.0</ele><time>2026-04-11T16:25:46.999Z</time></trkpt><trkpt lat="44.34167413135321" lon="11.12847105016023"><ele>367.0</ele><time>2026-04-11T16:25:47.999Z</time></trkpt><trkpt lat="44.3416398614538" lon="11.128305062093537"><ele>367.0</ele><time>2026-04-11T16:25:48.999Z</time></trkpt><trkpt lat="44.34158379517638" lon="11.128126486690293"><ele>367.0</ele><time>2026-04-11T16:25:49.999Z</time></trkpt><trkpt lat="44.341519019247315" lon="11.12798483719001"><ele>367.0</ele><time>2026-04-11T16:25:50.999Z</time></trkpt><trkpt lat="44.34145413461283" lon="11.127879028419922"><ele>368.0</ele><time>2026-04-11T16:25:51.999Z</time></trkpt><trkpt lat="44.34138278591169" lon="11.127765686006201"><ele>369.0</ele><time>2026-04-11T16:25:52.999Z</time></trkpt><trkpt lat="44.341348309114316" lon="11.127658659331464"><ele>370.0</ele><time>2026-04-11T16:25:53.999Z</time></trkpt><trkpt lat="44.34133411298642" lon="11.127539101003764"><ele>371.0</ele><time>2026-04-11T16:25:54.999Z</time></trkpt><trkpt lat="44.34134946066756" lon="11.1273965470482"><ele>372.0</ele><time>2026-04-11T16:25:55.999Z</time></trkpt><trkpt lat="44.34137140871356" lon="11.127236574834026"><ele>372.25</ele><time>2026-04-11T16:25:56.999Z</time></trkpt><trkpt lat="44.34139982224914" lon="11.127069649943476"><ele>372.5</ele><time>2026-04-11T16:25:57.999Z</time></trkpt><trkpt lat="44.34142301468318" lon="11.126894817003933"><ele>372.75</ele><time>2026-04-11T16:25:58.999Z</time></trkpt><trkpt lat="44.34144784304809" lon="11.126719728721948"><ele>373.0</ele><time>2026-04-11T16:25:59.999Z</time></trkpt><trkpt lat="44.3414746865812" lon="11.126533746308796"><ele>374.0</ele><time>2026-04-11T16:26:00.999Z</time></trkpt><trkpt lat="44.341501472337306" lon="11.12633805771695"><ele>375.0</ele><time>2026-04-11T16:26:01.999Z</time></trkpt><trkpt lat="44.34152642829631" lon="11.12614021424297"><ele>376.0</ele><time>2026-04-11T16:26:02.999Z</time></trkpt><trkpt lat="44.34155244705518" lon="11.125959121751897"><ele>377.0</ele><time>2026-04-11T16:26:03.999Z</time></trkpt><trkpt lat="44.34157452988291" lon="11.125764167939431"><ele>378.5</ele><time>2026-04-11T16:26:04.999Z</time></trkpt><trkpt lat="44.34159418110492" lon="11.125557902202804"><ele>380.0</ele><time>2026-04-11T16:26:05.999Z</time></trkpt><trkpt lat="44.34162586483662" lon="11.125361064637561"><ele>381.5</ele><time>2026-04-11T16:26:06.999Z</time></trkpt><trkpt lat="44.34165251594632" lon="11.12517690492676"><ele>383.0</ele><time>2026-04-11T16:26:07.999Z</time></trkpt><trkpt lat="44.34173347032366" lon="11.125027976679236"><ele>383.6666666666667</ele><time>2026-04-11T16:26:08.999Z</time></trkpt><trkpt lat="44.34182083416855" lon="11.12488001014822"><ele>384.33333333333337</ele><time>2026-04-11T16:26:09.999Z</time></trkpt><trkpt lat="44.34184007662403" lon="11.124682076197058"><ele>385.0</ele><time>2026-04-11T16:26:10.999Z</time></trkpt><trkpt lat="44.34177457421039" lon="11.124425166696982"><ele>385.0</ele><time>2026-04-11T16:26:11.999Z</time></trkpt><trkpt lat="44.34175506412161" lon="11.124214764013786"><ele>385.0</ele><time>2026-04-11T16:26:12.999Z</time></trkpt><trkpt lat="44.34175083391917" lon="11.124013675519512"><ele>385.0</ele><time>2026-04-11T16:26:13.999Z</time></trkpt><trkpt lat="44.34180774086939" lon="11.123880730236555"><ele>385.0</ele><time>2026-04-11T16:26:14.999Z</time></trkpt><trkpt lat="44.341796873812044" lon="11.123705183010346"><ele>384.75</ele><time>2026-04-11T16:26:15.999Z</time></trkpt><trkpt lat="44.341774849112085" lon="11.123524699753252"><ele>384.5</ele><time>2026-04-11T16:26:16.999Z</time></trkpt><trkpt lat="44.34174868255787" lon="11.123350370359974"><ele>384.25</ele><time>2026-04-11T16:26:17.999Z</time></trkpt><trkpt lat="44.341726912619464" lon="11.123180112325876"><ele>384.0</ele><time>2026-04-11T16:26:18.999Z</time></trkpt><trkpt lat="44.341714635842905" lon="11.123009146673807"><ele>384.5</ele><time>2026-04-11T16:26:19.999Z</time></trkpt><trkpt lat="44.34172307634233" lon="11.122843591099029"><ele>385.0</ele><time>2026-04-11T16:26:20.999Z</time></trkpt><trkpt lat="44.3417543548618" lon="11.122677203983029"><ele>385.5</ele><time>2026-04-11T16:26:21.999Z</time></trkpt><trkpt lat="44.34180673935335" lon="11.122513102541296"><ele>386.0</ele><time>2026-04-11T16:26:22.999Z</time></trkpt><trkpt lat="44.34188637075104" lon="11.122355452331215"><ele>386.0</ele><time>2026-04-11T16:26:23.999Z</time></trkpt><trkpt lat="44.3419762756319" lon="11.122217942977564"><ele>386.0</ele><time>2026-04-11T16:26:24.999Z</time></trkpt><trkpt lat="44.342082001797436" lon="11.122113532216103"><ele>386.0</ele><time>2026-04-11T16:26:25.999Z</time></trkpt><trkpt lat="44.342182219966745" lon="11.122015715012292"><ele>386.0</ele><time>2026-04-11T16:26:26.999Z</time></trkpt><trkpt lat="44.34228035030311" lon="11.121935166388454"><ele>384.4</ele><time>2026-04-11T16:26:27.999Z</time></trkpt><trkpt lat="44.34238160019665" lon="11.121872025253579"><ele>382.8</ele><time>2026-04-11T16:26:28.999Z</time></trkpt><trkpt lat="44.34248026075944" lon="11.12181536792709"><ele>381.2</ele><time>2026-04-11T16:26:29.999Z</time></trkpt><trkpt lat="44.342575238245644" lon="11.121768987360426"><ele>379.59999999999997</ele><time>2026-04-11T16:26:30.999Z</time></trkpt><trkpt lat="44.342684079628484" lon="11.12171642446719"><ele>378.0</ele><time>2026-04-11T16:26:31.999Z</time></trkpt><trkpt lat="44.34280767937697" lon="11.121665826194358"><ele>378.0</ele><time>2026-04-11T16:26:32.999Z</time></trkpt><trkpt lat="44.34294595024611" lon="11.121643463115237"><ele>378.0</ele><time>2026-04-11T16:26:33.999Z</time></trkpt><trkpt lat="44.343094901113375" lon="11.121640062798717"><ele>378.0</ele><time>2026-04-11T16:26:34.999Z</time></trkpt><trkpt lat="44.34322990187653" lon="11.121652890701831"><ele>378.0</ele><time>2026-04-11T16:26:35.999Z</time></trkpt><trkpt lat="44.343333600173665" lon="11.121676223287881"><ele>377.2</ele><time>2026-04-11T16:26:36.999Z</time></trkpt><trkpt lat="44.34342542812641" lon="11.121669670928778"><ele>376.4</ele><time>2026-04-11T16:26:37.999Z</time></trkpt><trkpt lat="44.343535373665574" lon="11.121627748917447"><ele>375.59999999999997</ele><time>2026-04-11T16:26:38.999Z</time></trkpt><trkpt lat="44.34360919675297" lon="11.121536588875585"><ele>374.79999999999995</ele><time>2026-04-11T16:26:39.999Z</time></trkpt><trkpt lat="44.34366620297273" lon="11.121402719190908"><ele>374.0</ele><time>2026-04-11T16:26:40.999Z</time></trkpt><trkpt lat="44.34367485486512" lon="11.121237274216275"><ele>374.0</ele><time>2026-04-11T16:26:41.999Z</time></trkpt><trkpt lat="44.34366426916068" lon="11.12107322882493"><ele>374.0</ele><time>2026-04-11T16:26:42.999Z</time></trkpt><trkpt lat="44.34365881648301" lon="11.120910123439689"><ele>374.0</ele><time>2026-04-11T16:26:43.999Z</time></trkpt><trkpt lat="44.343650661514864" lon="11.120763975223342"><ele>374.0</ele><time>2026-04-11T16:26:44.999Z</time></trkpt><trkpt lat="44.34364049631296" lon="11.120610146091874"><ele>374.83333333333337</ele><time>2026-04-11T16:26:45.999Z</time></trkpt><trkpt lat="44.343641193962455" lon="11.120480048733867"><ele>375.6666666666667</ele><time>2026-04-11T16:26:46.999Z</time></trkpt><trkpt lat="44.34366436831159" lon="11.120376633913338"><ele>376.5</ele><time>2026-04-11T16:26:47.999Z</time></trkpt><trkpt lat="44.34371350471533" lon="11.120300615053116"><ele>377.3333333333333</ele><time>2026-04-11T16:26:48.999Z</time></trkpt><trkpt lat="44.34378720301834" lon="11.12028088651217"><ele>378.16666666666663</ele><time>2026-04-11T16:26:49.999Z</time></trkpt><trkpt lat="44.343845695637626" lon="11.120327984481271"><ele>379.0</ele><time>2026-04-11T16:26:50.999Z</time></trkpt><trkpt lat="44.34389879433215" lon="11.12043048154035"><ele>380.4</ele><time>2026-04-11T16:26:51.999Z</time></trkpt><trkpt lat="44.34393846597838" lon="11.12055866216009"><ele>381.79999999999995</ele><time>2026-04-11T16:26:52.999Z</time></trkpt><trkpt lat="44.34397559715679" lon="11.120708226364517"><ele>383.20000000000005</ele><time>2026-04-11T16:26:53.999Z</time></trkpt><trkpt lat="44.34402147180483" lon="11.120843684375123"><ele>384.6</ele><time>2026-04-11T16:26:54.999Z</time></trkpt><trkpt lat="44.34406317619216" lon="11.120985798879008"><ele>386.0</ele><time>2026-04-11T16:26:55.998Z</time></trkpt><trkpt lat="44.344098969378855" lon="11.121103371962905"><ele>385.99999999999994</ele><time>2026-04-11T16:26:56.998Z</time></trkpt><trkpt lat="44.344136407891305" lon="11.121223458563064"><ele>386.0</ele><time>2026-04-11T16:26:57.998Z</time></trkpt><trkpt lat="44.34417762990231" lon="11.121303177429102"><ele>386.0</ele><time>2026-04-11T16:26:58.998Z</time></trkpt><trkpt lat="44.34423389243588" lon="11.121347855371852"><ele>386.0</ele><time>2026-04-11T16:26:59.998Z</time></trkpt><trkpt lat="44.34436072330863" lon="11.121286786349518"><ele>385.99999999999994</ele><time>2026-04-11T16:27:02Z</time></trkpt><trkpt lat="44.344397132938745" lon="11.121206235173991"><ele>386.0</ele><time>2026-04-11T16:27:03Z</time></trkpt><trkpt lat="44.344398963322085" lon="11.121109038640114"><ele>386.0</ele><time>2026-04-11T16:27:04Z</time></trkpt><trkpt lat="44.34435779813964" lon="11.121005466884199"><ele>386.0</ele><time>2026-04-11T16:27:05Z</time></trkpt><trkpt lat="44.34431788390813" lon="11.120896105976225"><ele>386.0</ele><time>2026-04-11T16:27:06Z</time></trkpt><trkpt lat="44.34427123216926" lon="11.120769899868227"><ele>386.0</ele><time>2026-04-11T16:27:07Z</time></trkpt><trkpt lat="44.344226748316764" lon="11.12063901343134"><ele>386.0</ele><time>2026-04-11T16:27:08Z</time></trkpt><trkpt lat="44.34418245664098" lon="11.120498166121877"><ele>386.8</ele><time>2026-04-11T16:27:09Z</time></trkpt><trkpt lat="44.34416581885356" lon="11.12036630106244"><ele>387.6</ele><time>2026-04-11T16:27:10Z</time></trkpt><trkpt lat="44.344166343481234" lon="11.120245997402128"><ele>388.4</ele><time>2026-04-11T16:27:11Z</time></trkpt><trkpt lat="44.34419644002961" lon="11.120114795285827"><ele>389.2</ele><time>2026-04-11T16:27:12Z</time></trkpt><trkpt lat="44.3442298212332" lon="11.119961278146834"><ele>390.0</ele><time>2026-04-11T16:27:13Z</time></trkpt><trkpt lat="44.344269705501276" lon="11.11981119599806"><ele>391.25</ele><time>2026-04-11T16:27:14Z</time></trkpt><trkpt lat="44.3443091084832" lon="11.119649422954156"><ele>392.5</ele><time>2026-04-11T16:27:15Z</time></trkpt><trkpt lat="44.344329160534855" lon="11.119471223465222"><ele>393.75</ele><time>2026-04-11T16:27:16Z</time></trkpt><trkpt lat="44.344343964989974" lon="11.11927071773749"><ele>395.0</ele><time>2026-04-11T16:27:17Z</time></trkpt><trkpt lat="44.34435381670078" lon="11.119052527617763"><ele>397.3333333333333</ele><time>2026-04-11T16:27:18Z</time></trkpt><trkpt lat="44.34436433443565" lon="11.118808276677628"><ele>399.66666666666663</ele><time>2026-04-11T16:27:19Z</time></trkpt><trkpt lat="44.34436607684927" lon="11.1185524352587"><ele>402.0</ele><time>2026-04-11T16:27:20Z</time></trkpt><trkpt lat="44.34434038005457" lon="11.11830912055684"><ele>403.66666666666663</ele><time>2026-04-11T16:27:21Z</time></trkpt><trkpt lat="44.344298303056824" lon="11.118074099096113"><ele>405.3333333333333</ele><time>2026-04-11T16:27:22Z</time></trkpt><trkpt lat="44.34425597989534" lon="11.1178245211044"><ele>407.0</ele><time>2026-04-11T16:27:23Z</time></trkpt><trkpt lat="44.34421587892488" lon="11.117594348375482"><ele>410.0</ele><time>2026-04-11T16:27:24Z</time></trkpt><trkpt lat="44.34417191065641" lon="11.117399398711699"><ele>413.0</ele><time>2026-04-11T16:27:25Z</time></trkpt><trkpt lat="44.34411021974436" lon="11.11718247081178"><ele>416.0</ele><time>2026-04-11T16:27:26Z</time></trkpt><trkpt lat="44.34404436648763" lon="11.116964898304815"><ele>416.0</ele><time>2026-04-11T16:27:27Z</time></trkpt><trkpt lat="44.34398267207021" lon="11.1167373823002"><ele>416.0</ele><time>2026-04-11T16:27:28Z</time></trkpt><trkpt lat="44.34392410765543" lon="11.116514705148754"><ele>416.0</ele><time>2026-04-11T16:27:29Z</time></trkpt><trkpt lat="44.34386780584331" lon="11.116300043075343"><ele>415.66666666666663</ele><time>2026-04-11T16:27:30Z</time></trkpt><trkpt lat="44.34380905302762" lon="11.11607162358461"><ele>415.33333333333337</ele><time>2026-04-11T16:27:31Z</time></trkpt><trkpt lat="44.34374819998676" lon="11.115836671558508"><ele>415.0</ele><time>2026-04-11T16:27:32Z</time></trkpt><trkpt lat="44.343691929355735" lon="11.11562015013852"><ele>415.0</ele><time>2026-04-11T16:27:33Z</time></trkpt><trkpt lat="44.34364957900449" lon="11.115433753180634"><ele>415.0</ele><time>2026-04-11T16:27:34Z</time></trkpt><trkpt lat="44.34360766998722" lon="11.115258347384964"><ele>415.0</ele><time>2026-04-11T16:27:35Z</time></trkpt><trkpt lat="44.34357582100048" lon="11.115092571958014"><ele>415.0</ele><time>2026-04-11T16:27:36Z</time></trkpt><trkpt lat="44.34357197853961" lon="11.114938996184861"><ele>415.25</ele><time>2026-04-11T16:27:37Z</time></trkpt><trkpt lat="44.34359192856469" lon="11.1147608403645"><ele>415.5</ele><time>2026-04-11T16:27:38Z</time></trkpt><trkpt lat="44.34363375779599" lon="11.114593330765171"><ele>415.75</ele><time>2026-04-11T16:27:39Z</time></trkpt><trkpt lat="44.343701338097965" lon="11.114435699787224"><ele>416.0</ele><time>2026-04-11T16:27:40Z</time></trkpt><trkpt lat="44.343784375841004" lon="11.114294022944586"><ele>416.0</ele><time>2026-04-11T16:27:41Z</time></trkpt><trkpt lat="44.343876333951854" lon="11.114146910084534"><ele>416.0</ele><time>2026-04-11T16:27:42Z</time></trkpt><trkpt lat="44.34396858247792" lon="11.114000736270018"><ele>416.0</ele><time>2026-04-11T16:27:43Z</time></trkpt><trkpt lat="44.344057032073124" lon="11.113868546928096"><ele>416.0</ele><time>2026-04-11T16:27:44Z</time></trkpt><trkpt lat="44.34413646088603" lon="11.113732905234018"><ele>417.20000000000005</ele><time>2026-04-11T16:27:45Z</time></trkpt><trkpt lat="44.344207414096104" lon="11.113614189512065"><ele>418.40000000000003</ele><time>2026-04-11T16:27:46Z</time></trkpt><trkpt lat="44.34427060854374" lon="11.113507918282114"><ele>419.6</ele><time>2026-04-11T16:27:47Z</time></trkpt><trkpt lat="44.3443323675598" lon="11.113410149036886"><ele>420.8</ele><time>2026-04-11T16:27:48Z</time></trkpt><trkpt lat="44.34439233606673" lon="11.113330144282187"><ele>422.0</ele><time>2026-04-11T16:27:49Z</time></trkpt><trkpt lat="44.344468419792406" lon="11.113259800777382"><ele>421.99999999999994</ele><time>2026-04-11T16:27:50Z</time></trkpt><trkpt lat="44.34454865298239" lon="11.113231063685687"><ele>422.0</ele><time>2026-04-11T16:27:51Z</time></trkpt><trkpt lat="44.344622270020295" lon="11.113273209129247"><ele>422.0</ele><time>2026-04-11T16:27:52Z</time></trkpt><trkpt lat="44.3446698436856" lon="11.113374326136615"><ele>422.0</ele><time>2026-04-11T16:27:53Z</time></trkpt><trkpt lat="44.34467995210445" lon="11.113519712465578"><ele>421.99999999999994</ele><time>2026-04-11T16:27:54Z</time></trkpt><trkpt lat="44.344657099461614" lon="11.113645508620944"><ele>422.0</ele><time>2026-04-11T16:27:55Z</time></trkpt><trkpt lat="44.34460325143003" lon="11.113740386681467"><ele>422.0</ele><time>2026-04-11T16:27:56Z</time></trkpt><trkpt lat="44.344532536924355" lon="11.113838078303889"><ele>422.0</ele><time>2026-04-11T16:27:57Z</time></trkpt><trkpt lat="44.34447409198888" lon="11.113949699607279"><ele>422.0</ele><time>2026-04-11T16:27:57.999Z</time></trkpt><trkpt lat="44.344450594062884" lon="11.114081741403169"><ele>422.0</ele><time>2026-04-11T16:27:58.999Z</time></trkpt><trkpt lat="44.344448227704575" lon="11.11422016196199"><ele>422.0</ele><time>2026-04-11T16:27:59.999Z</time></trkpt><trkpt lat="44.34447819629114" lon="11.114374702136049"><ele>423.0</ele><time>2026-04-11T16:28:00.999Z</time></trkpt><trkpt lat="44.344543040223826" lon="11.114512325603853"><ele>424.0</ele><time>2026-04-11T16:28:01.999Z</time></trkpt><trkpt lat="44.34463269532865" lon="11.114634267626966"><ele>425.0</ele><time>2026-04-11T16:28:02.999Z</time></trkpt><trkpt lat="44.344740949088006" lon="11.11472651216182"><ele>426.0</ele><time>2026-04-11T16:28:03.999Z</time></trkpt><trkpt lat="44.34485100032606" lon="11.114775285217867"><ele>429.0</ele><time>2026-04-11T16:28:04.999Z</time></trkpt><trkpt lat="44.34499081204773" lon="11.114801364662542"><ele>432.0</ele><time>2026-04-11T16:28:05.999Z</time></trkpt><trkpt lat="44.3451350845414" lon="11.11480224590571"><ele>435.0</ele><time>2026-04-11T16:28:06.999Z</time></trkpt><trkpt lat="44.34528357057087" lon="11.114789982601382"><ele>438.0</ele><time>2026-04-11T16:28:07.999Z</time></trkpt><trkpt lat="44.345413525953795" lon="11.114777965543283"><ele>438.0</ele><time>2026-04-11T16:28:08.999Z</time></trkpt><trkpt lat="44.345527412712705" lon="11.114785212364607"><ele>438.0</ele><time>2026-04-11T16:28:09.999Z</time></trkpt><trkpt lat="44.34563839083619" lon="11.114815474205763"><ele>438.0</ele><time>2026-04-11T16:28:10.999Z</time></trkpt><trkpt lat="44.34574049118177" lon="11.114906949824213"><ele>438.0</ele><time>2026-04-11T16:28:11.999Z</time></trkpt><trkpt lat="44.345821192004244" lon="11.115022728886602"><ele>439.59999999999997</ele><time>2026-04-11T16:28:12.999Z</time></trkpt><trkpt lat="44.34586557697046" lon="11.115163406770295"><ele>441.19999999999993</ele><time>2026-04-11T16:28:13.999Z</time></trkpt><trkpt lat="44.34586749878247" lon="11.115323011494901"><ele>442.8</ele><time>2026-04-11T16:28:14.999Z</time></trkpt><trkpt lat="44.34585018659963" lon="11.115467221290912"><ele>444.4</ele><time>2026-04-11T16:28:15.999Z</time></trkpt><trkpt lat="44.345868192261946" lon="11.115595072503265"><ele>446.0</ele><time>2026-04-11T16:28:16.999Z</time></trkpt><trkpt lat="44.345929593553585" lon="11.115715963111857"><ele>445.25</ele><time>2026-04-11T16:28:17.999Z</time></trkpt><trkpt lat="44.34601782522159" lon="11.115838054042918"><ele>444.5</ele><time>2026-04-11T16:28:18.999Z</time></trkpt><trkpt lat="44.34608871318613" lon="11.11598257892578"><ele>443.75</ele><time>2026-04-11T16:28:19.999Z</time></trkpt><trkpt lat="44.346144295666356" lon="11.116160436755251"><ele>443.0</ele><time>2026-04-11T16:28:20.999Z</time></trkpt><trkpt lat="44.34620605904686" lon="11.116355016838694"><ele>443.0</ele><time>2026-04-11T16:28:21.999Z</time></trkpt><trkpt lat="44.34628044540326" lon="11.116497538139647"><ele>443.0</ele><time>2026-04-11T16:28:22.999Z</time></trkpt><trkpt lat="44.34637507512545" lon="11.116610250425463"><ele>443.0</ele><time>2026-04-11T16:28:23.999Z</time></trkpt><trkpt lat="44.34649903129487" lon="11.116697936261287"><ele>443.0</ele><time>2026-04-11T16:28:24.999Z</time></trkpt><trkpt lat="44.34661539113395" lon="11.116768481516539"><ele>445.59999999999997</ele><time>2026-04-11T16:28:25.999Z</time></trkpt><trkpt lat="44.34668261473314" lon="11.11683779667827"><ele>448.19999999999993</ele><time>2026-04-11T16:28:26.999Z</time></trkpt><trkpt lat="44.346710752735234" lon="11.116967082294215"><ele>450.8</ele><time>2026-04-11T16:28:27.999Z</time></trkpt><trkpt lat="44.346696828217034" lon="11.117127387304802"><ele>453.4</ele><time>2026-04-11T16:28:28.999Z</time></trkpt><trkpt lat="44.34664929275928" lon="11.117296631052916"><ele>456.0</ele><time>2026-04-11T16:28:29.999Z</time></trkpt><trkpt lat="44.34658450892677" lon="11.117438551850638"><ele>456.0</ele><time>2026-04-11T16:28:30.999Z</time></trkpt><trkpt lat="44.346549737154206" lon="11.117559363753143"><ele>456.0</ele><time>2026-04-11T16:28:31.999Z</time></trkpt><trkpt lat="44.34658437597923" lon="11.117652829999644"><ele>456.0</ele><time>2026-04-11T16:28:32.999Z</time></trkpt><trkpt lat="44.346651796540634" lon="11.117749195911045"><ele>456.0</ele><time>2026-04-11T16:28:33.999Z</time></trkpt><trkpt lat="44.34673484653447" lon="11.117784496909612"><ele>456.0</ele><time>2026-04-11T16:28:34.999Z</time></trkpt><trkpt lat="44.34682414334486" lon="11.11775361217058"><ele>456.0</ele><time>2026-04-11T16:28:35.999Z</time></trkpt><trkpt lat="44.346908309770676" lon="11.117637765368599"><ele>456.0</ele><time>2026-04-11T16:28:36.999Z</time></trkpt><trkpt lat="44.34695447237369" lon="11.11749586587481"><ele>456.0</ele><time>2026-04-11T16:28:37.999Z</time></trkpt><trkpt lat="44.34699405435716" lon="11.117338032095642"><ele>456.0</ele><time>2026-04-11T16:28:38.999Z</time></trkpt><trkpt lat="44.3470177572724" lon="11.117153288414373"><ele>456.0</ele><time>2026-04-11T16:28:39.999Z</time></trkpt><trkpt lat="44.347057260903085" lon="11.117008909848774"><ele>457.0</ele><time>2026-04-11T16:28:40.999Z</time></trkpt><trkpt lat="44.34708107703719" lon="11.11687844471909"><ele>458.0</ele><time>2026-04-11T16:28:41.999Z</time></trkpt><trkpt lat="44.34703276802376" lon="11.116753673052767"><ele>459.0</ele><time>2026-04-11T16:28:42.999Z</time></trkpt><trkpt lat="44.34694841740326" lon="11.11664342840055"><ele>460.0</ele><time>2026-04-11T16:28:43.999Z</time></trkpt><trkpt lat="44.34684561315133" lon="11.116575620452098"><ele>461.0</ele><time>2026-04-11T16:28:44.999Z</time></trkpt><trkpt lat="44.346774159349636" lon="11.116477970872724"><ele>462.0</ele><time>2026-04-11T16:28:45.999Z</time></trkpt><trkpt lat="44.346747106931005" lon="11.116327935330022"><ele>463.0</ele><time>2026-04-11T16:28:46.999Z</time></trkpt><trkpt lat="44.34676267309279" lon="11.11612756919419"><ele>464.0</ele><time>2026-04-11T16:28:47.999Z</time></trkpt><trkpt lat="44.34677131320507" lon="11.115901138640883"><ele>465.0</ele><time>2026-04-11T16:28:48.999Z</time></trkpt><trkpt lat="44.34677167937479" lon="11.115690833355284"><ele>465.0</ele><time>2026-04-11T16:28:49.999Z</time></trkpt><trkpt lat="44.346778787752335" lon="11.115522156271103"><ele>465.0</ele><time>2026-04-11T16:28:50.999Z</time></trkpt><trkpt lat="44.34679130294112" lon="11.115361573088187"><ele>465.0</ele><time>2026-04-11T16:28:51.999Z</time></trkpt><trkpt lat="44.34682180925708" lon="11.115223545225707"><ele>465.0</ele><time>2026-04-11T16:28:52.999Z</time></trkpt><trkpt lat="44.346878219679056" lon="11.115084635418077"><ele>465.0</ele><time>2026-04-11T16:28:53.999Z</time></trkpt><trkpt lat="44.34696958123404" lon="11.114962790881249"><ele>465.0</ele><time>2026-04-11T16:28:54.999Z</time></trkpt><trkpt lat="44.34707556398399" lon="11.114884429327578"><ele>465.0</ele><time>2026-04-11T16:28:55.999Z</time></trkpt><trkpt lat="44.34719779858795" lon="11.114864760940609"><ele>465.0</ele><time>2026-04-11T16:28:56.999Z</time></trkpt><trkpt lat="44.347332880660986" lon="11.114877915927744"><ele>467.5</ele><time>2026-04-11T16:28:57.999Z</time></trkpt><trkpt lat="44.34747082456318" lon="11.114898833639153"><ele>470.0</ele><time>2026-04-11T16:28:58.999Z</time></trkpt><trkpt lat="44.34760792512883" lon="11.114909498304431"><ele>472.5</ele><time>2026-04-11T16:28:59.999Z</time></trkpt><trkpt lat="44.34773416435324" lon="11.114849822677986"><ele>475.0</ele><time>2026-04-11T16:29:00.999Z</time></trkpt><trkpt lat="44.34784727413226" lon="11.114744693023683"><ele>475.0</ele><time>2026-04-11T16:29:01.999Z</time></trkpt><trkpt lat="44.34793771448744" lon="11.114600184605848"><ele>475.0</ele><time>2026-04-11T16:29:02.999Z</time></trkpt><trkpt lat="44.348004840033646" lon="11.114402532898978"><ele>475.0</ele><time>2026-04-11T16:29:03.999Z</time></trkpt><trkpt lat="44.34805620267909" lon="11.11418301509656"><ele>479.25</ele><time>2026-04-11T16:29:04.999Z</time></trkpt><trkpt lat="44.3480859480613" lon="11.113967984235737"><ele>483.5</ele><time>2026-04-11T16:29:05.999Z</time></trkpt><trkpt lat="44.34812940011056" lon="11.113793227047369"><ele>487.75</ele><time>2026-04-11T16:29:06.999Z</time></trkpt><trkpt lat="44.34816137929181" lon="11.113625192381454"><ele>492.0</ele><time>2026-04-11T16:29:08Z</time></trkpt><trkpt lat="44.34817729587822" lon="11.11344452574999"><ele>492.0</ele><time>2026-04-11T16:29:09Z</time></trkpt><trkpt lat="44.348143359742224" lon="11.113276347419587"><ele>492.0</ele><time>2026-04-11T16:29:10Z</time></trkpt><trkpt lat="44.34808289357565" lon="11.113110526365531"><ele>492.0</ele><time>2026-04-11T16:29:11Z</time></trkpt><trkpt lat="44.34799298928374" lon="11.112989103006827"><ele>492.0</ele><time>2026-04-11T16:29:12Z</time></trkpt><trkpt lat="44.34791377032894" lon="11.112892214888687"><ele>492.0</ele><time>2026-04-11T16:29:13Z</time></trkpt><trkpt lat="44.347857557758765" lon="11.11277994891375"><ele>492.0</ele><time>2026-04-11T16:29:14Z</time></trkpt><trkpt lat="44.347819679832874" lon="11.11262609843526"><ele>492.0</ele><time>2026-04-11T16:29:15Z</time></trkpt><trkpt lat="44.34780715309774" lon="11.112457908798195"><ele>492.0</ele><time>2026-04-11T16:29:16Z</time></trkpt><trkpt lat="44.347814176739554" lon="11.112281484717876"><ele>492.0</ele><time>2026-04-11T16:29:17Z</time></trkpt><trkpt lat="44.34784116011824" lon="11.112104790720412"><ele>492.0</ele><time>2026-04-11T16:29:18Z</time></trkpt><trkpt lat="44.34785647270057" lon="11.111924589625168"><ele>492.0</ele><time>2026-04-11T16:29:19Z</time></trkpt><trkpt lat="44.34784668044182" lon="11.111782198743422"><ele>492.0</ele><time>2026-04-11T16:29:20Z</time></trkpt><trkpt lat="44.34780673732517" lon="11.111647387517344"><ele>493.8</ele><time>2026-04-11T16:29:21Z</time></trkpt><trkpt lat="44.347733105769606" lon="11.111506543866476"><ele>495.6</ele><time>2026-04-11T16:29:22Z</time></trkpt><trkpt lat="44.347651637834815" lon="11.111398281812239"><ele>497.40000000000003</ele><time>2026-04-11T16:29:23Z</time></trkpt><trkpt lat="44.34757351871759" lon="11.111321739246437"><ele>499.20000000000005</ele><time>2026-04-11T16:29:24Z</time></trkpt><trkpt lat="44.34751358682672" lon="11.111208292717475"><ele>501.0</ele><time>2026-04-11T16:29:25Z</time></trkpt><trkpt lat="44.34749517020878" lon="11.111067446865745"><ele>501.0</ele><time>2026-04-11T16:29:26Z</time></trkpt><trkpt lat="44.34749496500214" lon="11.110894578415257"><ele>501.0</ele><time>2026-04-11T16:29:27Z</time></trkpt><trkpt lat="44.34748266311455" lon="11.110732200362516"><ele>501.0</ele><time>2026-04-11T16:29:28Z</time></trkpt><trkpt lat="44.3474448306909" lon="11.110558764965004"><ele>501.0</ele><time>2026-04-11T16:29:29Z</time></trkpt><trkpt lat="44.34741082493903" lon="11.110405950253796"><ele>502.4</ele><time>2026-04-11T16:29:30Z</time></trkpt><trkpt lat="44.34736750008778" lon="11.110290949177479"><ele>503.8</ele><time>2026-04-11T16:29:31Z</time></trkpt><trkpt lat="44.34733396762372" lon="11.110177668243537"><ele>505.19999999999993</ele><time>2026-04-11T16:29:32Z</time></trkpt><trkpt lat="44.347334219900915" lon="11.11003911677183"><ele>506.59999999999997</ele><time>2026-04-11T16:29:33Z</time></trkpt><trkpt lat="44.34737337970586" lon="11.10987626180222"><ele>508.0</ele><time>2026-04-11T16:29:34Z</time></trkpt><trkpt lat="44.34742994612859" lon="11.109716138806487"><ele>509.75</ele><time>2026-04-11T16:29:35Z</time></trkpt><trkpt lat="44.347478769353266" lon="11.109579371649213"><ele>511.5</ele><time>2026-04-11T16:29:36Z</time></trkpt><trkpt lat="44.34748909382675" lon="11.10942054413089"><ele>513.25</ele><time>2026-04-11T16:29:37Z</time></trkpt><trkpt lat="44.34745478891686" lon="11.109248555039935"><ele>515.0</ele><time>2026-04-11T16:29:38Z</time></trkpt><trkpt lat="44.34737353521434" lon="11.10907755796851"><ele>516.0</ele><time>2026-04-11T16:29:39Z</time></trkpt><trkpt lat="44.34729455223988" lon="11.10896960455109"><ele>517.0</ele><time>2026-04-11T16:29:40Z</time></trkpt><trkpt lat="44.34722288134593" lon="11.108862201368508"><ele>518.0</ele><time>2026-04-11T16:29:41Z</time></trkpt><trkpt lat="44.34717562663437" lon="11.108744299663037"><ele>519.0</ele><time>2026-04-11T16:29:42Z</time></trkpt><trkpt lat="44.347160963847415" lon="11.108588748573904"><ele>520.0</ele><time>2026-04-11T16:29:43Z</time></trkpt><trkpt lat="44.347175953547385" lon="11.108424264128558"><ele>519.5</ele><time>2026-04-11T16:29:44Z</time></trkpt><trkpt lat="44.34719652621974" lon="11.108248072996878"><ele>519.0</ele><time>2026-04-11T16:29:45Z</time></trkpt><trkpt lat="44.34721923573415" lon="11.108081986235065"><ele>518.5</ele><time>2026-04-11T16:29:46Z</time></trkpt><trkpt lat="44.34725045904021" lon="11.107900164936586"><ele>518.0</ele><time>2026-04-11T16:29:47Z</time></trkpt><trkpt lat="44.34729833412151" lon="11.107702473262835"><ele>518.0</ele><time>2026-04-11T16:29:48Z</time></trkpt><trkpt lat="44.34735768567099" lon="11.107514458261477"><ele>518.0</ele><time>2026-04-11T16:29:49Z</time></trkpt><trkpt lat="44.34740781507023" lon="11.107353130322899"><ele>518.0</ele><time>2026-04-11T16:29:50Z</time></trkpt><trkpt lat="44.347458549356915" lon="11.107185152012537"><ele>518.0</ele><time>2026-04-11T16:29:51Z</time></trkpt><trkpt lat="44.34753084869904" lon="11.107014485537228"><ele>515.6666666666666</ele><time>2026-04-11T16:29:52Z</time></trkpt><trkpt lat="44.347637139771884" lon="11.106854997647538"><ele>513.3333333333334</ele><time>2026-04-11T16:29:53Z</time></trkpt><trkpt lat="44.34777455940532" lon="11.10669956572627"><ele>511.0</ele><time>2026-04-11T16:29:54Z</time></trkpt><trkpt lat="44.34791764093722" lon="11.106538475147511"><ele>514.3333333333334</ele><time>2026-04-11T16:29:55Z</time></trkpt><trkpt lat="44.348059004372864" lon="11.106382904033326"><ele>517.6666666666666</ele><time>2026-04-11T16:29:56Z</time></trkpt><trkpt lat="44.348200888983946" lon="11.106221649512973"><ele>521.0</ele><time>2026-04-11T16:29:57Z</time></trkpt><trkpt lat="44.34831936580835" lon="11.106078608637587"><ele>521.0</ele><time>2026-04-11T16:29:58Z</time></trkpt><trkpt lat="44.34842803575162" lon="11.105949022604245"><ele>521.0</ele><time>2026-04-11T16:29:59Z</time></trkpt><trkpt lat="44.34850883859047" lon="11.105851267353971"><ele>521.0</ele><time>2026-04-11T16:30:00Z</time></trkpt><trkpt lat="44.348590966694815" lon="11.105841321795964"><ele>521.0</ele><time>2026-04-11T16:30:03Z</time></trkpt><trkpt lat="44.34867211340172" lon="11.105915384912487"><ele>521.0</ele><time>2026-04-11T16:30:05Z</time></trkpt><trkpt lat="44.348779679720934" lon="11.10596758745776"><ele>521.0</ele><time>2026-04-11T16:30:07Z</time></trkpt><trkpt lat="44.348841159056654" lon="11.105997670618692"><ele>521.0</ele><time>2026-04-11T16:30:07.999Z</time></trkpt><trkpt lat="44.348912136911764" lon="11.10603085234222"><ele>521.0</ele><time>2026-04-11T16:30:08.999Z</time></trkpt><trkpt lat="44.34898980901755" lon="11.106057864062885"><ele>521.0</ele><time>2026-04-11T16:30:09.999Z</time></trkpt><trkpt lat="44.34907896630733" lon="11.106093561345066"><ele>521.0</ele><time>2026-04-11T16:30:10.999Z</time></trkpt><trkpt lat="44.34916749885311" lon="11.106171108336762"><ele>521.0</ele><time>2026-04-11T16:30:11.999Z</time></trkpt><trkpt lat="44.34925930070132" lon="11.106268565109959"><ele>524.5</ele><time>2026-04-11T16:30:12.999Z</time></trkpt><trkpt lat="44.349343627139945" lon="11.106398912234704"><ele>528.0</ele><time>2026-04-11T16:30:13.999Z</time></trkpt><trkpt lat="44.349430267756375" lon="11.106539038677917"><ele>531.5</ele><time>2026-04-11T16:30:14.999Z</time></trkpt><trkpt lat="44.34951057682682" lon="11.106652243363936"><ele>535.0</ele><time>2026-04-11T16:30:15.999Z</time></trkpt><trkpt lat="44.349587606831385" lon="11.106739447656514"><ele>536.8333333333334</ele><time>2026-04-11T16:30:16.999Z</time></trkpt><trkpt lat="44.349674890438095" lon="11.106789817025819"><ele>538.6666666666667</ele><time>2026-04-11T16:30:17.999Z</time></trkpt><trkpt lat="44.34977293966003" lon="11.10681222900819"><ele>540.5</ele><time>2026-04-11T16:30:18.999Z</time></trkpt><trkpt lat="44.34985956752512" lon="11.106842568452917"><ele>542.3333333333334</ele><time>2026-04-11T16:30:19.999Z</time></trkpt><trkpt lat="44.34991769058222" lon="11.1069079436824"><ele>544.1666666666666</ele><time>2026-04-11T16:30:20.999Z</time></trkpt><trkpt lat="44.3499436031935" lon="11.107020726153081"><ele>546.0</ele><time>2026-04-11T16:30:21.999Z</time></trkpt><trkpt lat="44.349950213264265" lon="11.107131864182092"><ele>548.0</ele><time>2026-04-11T16:30:22.999Z</time></trkpt><trkpt lat="44.34995997474447" lon="11.107241783313059"><ele>550.0</ele><time>2026-04-11T16:30:23.999Z</time></trkpt><trkpt lat="44.34995495783599" lon="11.107347796253418"><ele>552.0</ele><time>2026-04-11T16:30:24.999Z</time></trkpt><trkpt lat="44.3499710466235" lon="11.107468554069126"><ele>554.0</ele><time>2026-04-11T16:30:25.999Z</time></trkpt><trkpt lat="44.35001196122376" lon="11.10758540006032"><ele>556.0</ele><time>2026-04-11T16:30:26.999Z</time></trkpt><trkpt lat="44.35005956386216" lon="11.107692928289904"><ele>558.0</ele><time>2026-04-11T16:30:27.999Z</time></trkpt><trkpt lat="44.350104431506175" lon="11.107810164522894"><ele>560.8</ele><time>2026-04-11T16:30:28.999Z</time></trkpt><trkpt lat="44.350145280991036" lon="11.107930235906132"><ele>563.5999999999999</ele><time>2026-04-11T16:30:29.999Z</time></trkpt><trkpt lat="44.350204723066526" lon="11.10806804907313"><ele>566.4000000000001</ele><time>2026-04-11T16:30:30.999Z</time></trkpt><trkpt lat="44.35029197449938" lon="11.108183963503317"><ele>569.2</ele><time>2026-04-11T16:30:31.999Z</time></trkpt><trkpt lat="44.3503974525396" lon="11.108255200847754"><ele>572.0</ele><time>2026-04-11T16:30:32.999Z</time></trkpt><trkpt lat="44.350504891385185" lon="11.10831200737231"><ele>574.2</ele><time>2026-04-11T16:30:33.999Z</time></trkpt><trkpt lat="44.35062806294533" lon="11.108371604982642"><ele>576.4000000000001</ele><time>2026-04-11T16:30:34.999Z</time></trkpt><trkpt lat="44.35073589434688" lon="11.10840554967384"><ele>578.5999999999999</ele><time>2026-04-11T16:30:35.999Z</time></trkpt><trkpt lat="44.35083817300268" lon="11.108411235126447"><ele>580.8</ele><time>2026-04-11T16:30:36.999Z</time></trkpt><trkpt lat="44.35093189105666" lon="11.108407047085183"><ele>583.0</ele><time>2026-04-11T16:30:37.999Z</time></trkpt><trkpt lat="44.35102791258752" lon="11.108361307959019"><ele>583.0</ele><time>2026-04-11T16:30:38.999Z</time></trkpt><trkpt lat="44.35113263813575" lon="11.108307675524674"><ele>583.0</ele><time>2026-04-11T16:30:39.999Z</time></trkpt><trkpt lat="44.35125877125548" lon="11.108276700723065"><ele>583.0</ele><time>2026-04-11T16:30:40.999Z</time></trkpt><trkpt lat="44.35140269838003" lon="11.108291756879892"><ele>583.0</ele><time>2026-04-11T16:30:41.999Z</time></trkpt><trkpt lat="44.351563925218215" lon="11.108334812354277"><ele>585.6666666666667</ele><time>2026-04-11T16:30:42.999Z</time></trkpt><trkpt lat="44.35172048012859" lon="11.108363175245858"><ele>588.3333333333334</ele><time>2026-04-11T16:30:43.999Z</time></trkpt><trkpt lat="44.351879531954914" lon="11.108343516987114"><ele>591.0</ele><time>2026-04-11T16:30:44.999Z</time></trkpt><trkpt lat="44.35203572823724" lon="11.108285518932695"><ele>594.0</ele><time>2026-04-11T16:30:45.999Z</time></trkpt><trkpt lat="44.352207417295" lon="11.108186697509623"><ele>597.0</ele><time>2026-04-11T16:30:46.999Z</time></trkpt><trkpt lat="44.35237411234241" lon="11.108102400716804"><ele>600.0</ele><time>2026-04-11T16:30:47.999Z</time></trkpt><trkpt lat="44.35252240647495" lon="11.108022483268032"><ele>600.0</ele><time>2026-04-11T16:30:48.999Z</time></trkpt><trkpt lat="44.35266221789665" lon="11.107952807486662"><ele>600.0</ele><time>2026-04-11T16:30:49.999Z</time></trkpt><trkpt lat="44.35280765003444" lon="11.10787406849723"><ele>600.0</ele><time>2026-04-11T16:30:50.999Z</time></trkpt><trkpt lat="44.352957952370026" lon="11.107800797339461"><ele>605.0</ele><time>2026-04-11T16:30:51.999Z</time></trkpt><trkpt lat="44.35311628979456" lon="11.107762406981518"><ele>610.0</ele><time>2026-04-11T16:30:52.999Z</time></trkpt><trkpt lat="44.35326923377183" lon="11.107732907045902"><ele>615.0</ele><time>2026-04-11T16:30:53.999Z</time></trkpt><trkpt lat="44.35342058042813" lon="11.107696435434715"><ele>615.0</ele><time>2026-04-11T16:30:54.999Z</time></trkpt><trkpt lat="44.353578747015845" lon="11.10765845401061"><ele>615.0</ele><time>2026-04-11T16:30:55.999Z</time></trkpt><trkpt lat="44.35372052559351" lon="11.107632769317519"><ele>615.0</ele><time>2026-04-11T16:30:56.999Z</time></trkpt><trkpt lat="44.35385830053548" lon="11.107599210618671"><ele>615.0</ele><time>2026-04-11T16:30:57.999Z</time></trkpt><trkpt lat="44.35401069631404" lon="11.107565253934567"><ele>619.25</ele><time>2026-04-11T16:30:58.999Z</time></trkpt><trkpt lat="44.354147443012124" lon="11.107546036825145"><ele>623.5</ele><time>2026-04-11T16:30:59.999Z</time></trkpt><trkpt lat="44.35426486408977" lon="11.10756632885655"><ele>627.75</ele><time>2026-04-11T16:31:00.999Z</time></trkpt><trkpt lat="44.354380250040634" lon="11.107655393666676"><ele>632.0</ele><time>2026-04-11T16:31:01.999Z</time></trkpt><trkpt lat="44.35451342099658" lon="11.107715478505199"><ele>632.0</ele><time>2026-04-11T16:31:02.999Z</time></trkpt><trkpt lat="44.35464091963649" lon="11.107814579279056"><ele>632.0</ele><time>2026-04-11T16:31:03.999Z</time></trkpt><trkpt lat="44.3547726545474" lon="11.10791291677363"><ele>632.0</ele><time>2026-04-11T16:31:04.999Z</time></trkpt><trkpt lat="44.354913132356934" lon="11.107993683205567"><ele>632.0</ele><time>2026-04-11T16:31:05.999Z</time></trkpt><trkpt lat="44.355070362437075" lon="11.10803959549397"><ele>637.0</ele><time>2026-04-11T16:31:06.999Z</time></trkpt><trkpt lat="44.355232271078236" lon="11.108062628717102"><ele>642.0</ele><time>2026-04-11T16:31:07.999Z</time></trkpt><trkpt lat="44.35537667208136" lon="11.108049755009883"><ele>647.0</ele><time>2026-04-11T16:31:08.999Z</time></trkpt><trkpt lat="44.35553550302755" lon="11.107988157057289"><ele>652.6666666666666</ele><time>2026-04-11T16:31:09.999Z</time></trkpt><trkpt lat="44.355677931549785" lon="11.10790241833226"><ele>658.3333333333334</ele><time>2026-04-11T16:31:10.999Z</time></trkpt><trkpt lat="44.355823116454005" lon="11.107814255924172"><ele>664.0</ele><time>2026-04-11T16:31:11.999Z</time></trkpt><trkpt lat="44.35596982795946" lon="11.107737391494638"><ele>664.0</ele><time>2026-04-11T16:31:13Z</time></trkpt><trkpt lat="44.35611129355931" lon="11.107673237080734"><ele>664.0</ele><time>2026-04-11T16:31:14Z</time></trkpt><trkpt lat="44.356266353100885" lon="11.107607050090209"><ele>664.0</ele><time>2026-04-11T16:31:15Z</time></trkpt><trkpt lat="44.35643060041981" lon="11.10753825179076"><ele>669.0</ele><time>2026-04-11T16:31:16Z</time></trkpt><trkpt lat="44.35658181292942" lon="11.107482402931156"><ele>674.0</ele><time>2026-04-11T16:31:17Z</time></trkpt><trkpt lat="44.35675137904406" lon="11.10744633121103"><ele>679.0</ele><time>2026-04-11T16:31:18Z</time></trkpt><trkpt lat="44.35692681244104" lon="11.107437654070482"><ele>679.0</ele><time>2026-04-11T16:31:19Z</time></trkpt><trkpt lat="44.357091397168084" lon="11.107436286020436"><ele>679.0</ele><time>2026-04-11T16:31:20Z</time></trkpt><trkpt lat="44.357220813505776" lon="11.107435839260406"><ele>679.0</ele><time>2026-04-11T16:31:21Z</time></trkpt><trkpt lat="44.35732463137616" lon="11.107414969864152"><ele>679.0</ele><time>2026-04-11T16:31:22Z</time></trkpt><trkpt lat="44.35741264582475" lon="11.107364646030572"><ele>681.75</ele><time>2026-04-11T16:31:23Z</time></trkpt><trkpt lat="44.35750605882048" lon="11.107297584301437"><ele>684.5</ele><time>2026-04-11T16:31:24Z</time></trkpt><trkpt lat="44.35760991803189" lon="11.107217216050323"><ele>687.25</ele><time>2026-04-11T16:31:25Z</time></trkpt><trkpt lat="44.357725846495846" lon="11.107136531230907"><ele>690.0</ele><time>2026-04-11T16:31:26Z</time></trkpt><trkpt lat="44.357855494531734" lon="11.107033090174884"><ele>690.0</ele><time>2026-04-11T16:31:27Z</time></trkpt><trkpt lat="44.35797970219229" lon="11.106927045878914"><ele>690.0</ele><time>2026-04-11T16:31:28Z</time></trkpt><trkpt lat="44.35808947556213" lon="11.106836849326372"><ele>690.0</ele><time>2026-04-11T16:31:29Z</time></trkpt><trkpt lat="44.35818908312604" lon="11.10674063689179"><ele>690.0</ele><time>2026-04-11T16:31:30Z</time></trkpt><trkpt lat="44.35828729460829" lon="11.106628686460152"><ele>689.25</ele><time>2026-04-11T16:31:31Z</time></trkpt><trkpt lat="44.358364681464195" lon="11.106496818349376"><ele>688.5</ele><time>2026-04-11T16:31:32Z</time></trkpt><trkpt lat="44.3584180904957" lon="11.106347315033503"><ele>687.75</ele><time>2026-04-11T16:31:33Z</time></trkpt><trkpt lat="44.358462770958184" lon="11.106199540170163"><ele>687.0</ele><time>2026-04-11T16:31:34Z</time></trkpt><trkpt lat="44.358545082678475" lon="11.106084817846158"><ele>687.0</ele><time>2026-04-11T16:31:35Z</time></trkpt><trkpt lat="44.35865127229132" lon="11.106019345238037"><ele>687.0</ele><time>2026-04-11T16:31:36Z</time></trkpt><trkpt lat="44.35877033670096" lon="11.10597916411568"><ele>687.0</ele><time>2026-04-11T16:31:37Z</time></trkpt><trkpt lat="44.35888732347949" lon="11.105917650388747"><ele>687.0</ele><time>2026-04-11T16:31:38Z</time></trkpt><trkpt lat="44.358987227208935" lon="11.105857577179277"><ele>686.8</ele><time>2026-04-11T16:31:39Z</time></trkpt><trkpt lat="44.35908269282904" lon="11.105802747420174"><ele>686.6</ele><time>2026-04-11T16:31:40Z</time></trkpt><trkpt lat="44.3591693407889" lon="11.105759123872769"><ele>686.4</ele><time>2026-04-11T16:31:41Z</time></trkpt><trkpt lat="44.35922784661539" lon="11.105726441063602"><ele>686.1999999999999</ele><time>2026-04-11T16:31:42Z</time></trkpt><trkpt lat="44.359310705772096" lon="11.10574360164014"><ele>686.0</ele><time>2026-04-11T16:31:44Z</time></trkpt><trkpt lat="44.359390964340626" lon="11.105847717239346"><ele>686.0</ele><time>2026-04-11T16:31:46Z</time></trkpt><trkpt lat="44.35945186572447" lon="11.105938712814515"><ele>686.0</ele><time>2026-04-11T16:31:47Z</time></trkpt><trkpt lat="44.359523796567515" lon="11.106044150519326"><ele>686.0</ele><time>2026-04-11T16:31:48Z</time></trkpt><trkpt lat="44.35960379215899" lon="11.106166632058008"><ele>686.0</ele><time>2026-04-11T16:31:49Z</time></trkpt><trkpt lat="44.359711189104196" lon="11.106311647343277"><ele>686.0</ele><time>2026-04-11T16:31:50Z</time></trkpt><trkpt lat="44.3598346336417" lon="11.10646327053491"><ele>686.0</ele><time>2026-04-11T16:31:51Z</time></trkpt><trkpt lat="44.359958676946555" lon="11.106607732493705"><ele>686.0</ele><time>2026-04-11T16:31:52Z</time></trkpt><trkpt lat="44.360102973475065" lon="11.10675886036483"><ele>685.6666666666666</ele><time>2026-04-11T16:31:53Z</time></trkpt><trkpt lat="44.360279458241685" lon="11.106923246009261"><ele>685.3333333333334</ele><time>2026-04-11T16:31:54Z</time></trkpt><trkpt lat="44.36047604265497" lon="11.107090848887212"><ele>685.0</ele><time>2026-04-11T16:31:55Z</time></trkpt><trkpt lat="44.36068564229057" lon="11.10726254838828"><ele>682.5</ele><time>2026-04-11T16:31:56Z</time></trkpt><trkpt lat="44.36090132255463" lon="11.107442841803714"><ele>680.0</ele><time>2026-04-11T16:31:57Z</time></trkpt><trkpt lat="44.36112622783508" lon="11.107631866937425"><ele>680.0</ele><time>2026-04-11T16:31:58Z</time></trkpt><trkpt lat="44.36134899406252" lon="11.107818394806564"><ele>680.0</ele><time>2026-04-11T16:31:59Z</time></trkpt><trkpt lat="44.361525859643585" lon="11.10796462985604"><ele>679.5</ele><time>2026-04-11T16:32:00Z</time></trkpt><trkpt lat="44.361655973082044" lon="11.108078369972985"><ele>679.0</ele><time>2026-04-11T16:32:01Z</time></trkpt><trkpt lat="44.36176635825303" lon="11.108175377241585"><ele>678.5</ele><time>2026-04-11T16:32:02Z</time></trkpt><trkpt lat="44.36188288367413" lon="11.10825981988815"><ele>678.0</ele><time>2026-04-11T16:32:03Z</time></trkpt><trkpt lat="44.36197496153283" lon="11.108342848323277"><ele>678.0</ele><time>2026-04-11T16:32:04Z</time></trkpt><trkpt lat="44.36202743201787" lon="11.108406717375937"><ele>678.0</ele><time>2026-04-11T16:32:05Z</time></trkpt><trkpt lat="44.3620544007838" lon="11.108239854936302"><ele>678.0</ele><time>2026-04-11T16:32:10.999Z</time></trkpt><trkpt lat="44.36191204516014" lon="11.108274410417966"><ele>678.0</ele><time>2026-04-11T16:32:11.999Z</time></trkpt><trkpt lat="44.36183315132256" lon="11.108208880933892"><ele>678.0</ele><time>2026-04-11T16:32:12.999Z</time></trkpt><trkpt lat="44.36176081861149" lon="11.108141625705379"><ele>679.75</ele><time>2026-04-11T16:32:13.999Z</time></trkpt><trkpt lat="44.36167733736524" lon="11.108072127828109"><ele>681.5</ele><time>2026-04-11T16:32:14.999Z</time></trkpt><trkpt lat="44.36157488782073" lon="11.107989700714521"><ele>683.25</ele><time>2026-04-11T16:32:15.999Z</time></trkpt><trkpt lat="44.36147575907029" lon="11.107893390209085"><ele>685.0</ele><time>2026-04-11T16:32:16.999Z</time></trkpt><trkpt lat="44.36137550127204" lon="11.107807533542756"><ele>685.0</ele><time>2026-04-11T16:32:17.999Z</time></trkpt><trkpt lat="44.36127439286804" lon="11.107711635137806"><ele>685.0</ele><time>2026-04-11T16:32:18.999Z</time></trkpt><trkpt lat="44.36115297532703" lon="11.107605581782071"><ele>685.0</ele><time>2026-04-11T16:32:19.999Z</time></trkpt><trkpt lat="44.36101060728902" lon="11.10749008952774"><ele>685.0</ele><time>2026-04-11T16:32:20.999Z</time></trkpt><trkpt lat="44.36085230306833" lon="11.107368993786746"><ele>685.0</ele><time>2026-04-11T16:32:21.999Z</time></trkpt><trkpt lat="44.36068307165692" lon="11.107236388420528"><ele>685.0</ele><time>2026-04-11T16:32:22.999Z</time></trkpt><trkpt lat="44.36053421263622" lon="11.10711432153304"><ele>685.0</ele><time>2026-04-11T16:32:23.999Z</time></trkpt><trkpt lat="44.3604006056609" lon="11.10699750168199"><ele>684.75</ele><time>2026-04-11T16:32:24.999Z</time></trkpt><trkpt lat="44.360270861696364" lon="11.106890716307872"><ele>684.5</ele><time>2026-04-11T16:32:25.999Z</time></trkpt><trkpt lat="44.36014364654693" lon="11.1067815708879"><ele>684.25</ele><time>2026-04-11T16:32:26.999Z</time></trkpt><trkpt lat="44.36002094308268" lon="11.106669352345774"><ele>684.0</ele><time>2026-04-11T16:32:27.999Z</time></trkpt><trkpt lat="44.359914456449594" lon="11.106558175133111"><ele>684.4000000000001</ele><time>2026-04-11T16:32:28.999Z</time></trkpt><trkpt lat="44.35983909026922" lon="11.106423364684453"><ele>684.8</ele><time>2026-04-11T16:32:29.999Z</time></trkpt><trkpt lat="44.359761687868236" lon="11.10631336289759"><ele>685.2</ele><time>2026-04-11T16:32:30.999Z</time></trkpt><trkpt lat="44.35968703012886" lon="11.106207445351403"><ele>685.5999999999999</ele><time>2026-04-11T16:32:31.999Z</time></trkpt><trkpt lat="44.35961341290115" lon="11.106120130216578"><ele>686.0</ele><time>2026-04-11T16:32:32.999Z</time></trkpt><trkpt lat="44.35954529125849" lon="11.105988828606131"><ele>686.0</ele><time>2026-04-11T16:32:34.999Z</time></trkpt><trkpt lat="44.359652562201525" lon="11.10584644693062"><ele>686.0</ele><time>2026-04-11T16:32:38.999Z</time></trkpt><trkpt lat="44.35972315400188" lon="11.105844238431816"><ele>686.0</ele><time>2026-04-11T16:32:39.999Z</time></trkpt><trkpt lat="44.359802167167075" lon="11.10584669548104"><ele>686.0</ele><time>2026-04-11T16:32:40.999Z</time></trkpt><trkpt lat="44.359892099986716" lon="11.105866468047694"><ele>686.0</ele><time>2026-04-11T16:32:41.999Z</time></trkpt><trkpt lat="44.35999726470887" lon="11.105894794125891"><ele>686.0</ele><time>2026-04-11T16:32:42.999Z</time></trkpt><trkpt lat="44.36011950563225" lon="11.105912390556009"><ele>686.0</ele><time>2026-04-11T16:32:43.999Z</time></trkpt><trkpt lat="44.360257571489896" lon="11.105934741452426"><ele>686.0</ele><time>2026-04-11T16:32:44.999Z</time></trkpt><trkpt lat="44.36040759943574" lon="11.10595394181487"><ele>686.0</ele><time>2026-04-11T16:32:45.999Z</time></trkpt><trkpt lat="44.36057462364095" lon="11.105981033871235"><ele>686.0</ele><time>2026-04-11T16:32:46.999Z</time></trkpt><trkpt lat="44.360762764868674" lon="11.105991283125167"><ele>686.0</ele><time>2026-04-11T16:32:47.999Z</time></trkpt><trkpt lat="44.360967760859246" lon="11.10598126197123"><ele>686.0</ele><time>2026-04-11T16:32:48.999Z</time></trkpt><trkpt lat="44.36117743220329" lon="11.105957919797616"><ele>686.5</ele><time>2026-04-11T16:32:49.999Z</time></trkpt><trkpt lat="44.361400135662514" lon="11.105922673369323"><ele>687.0</ele><time>2026-04-11T16:32:50.999Z</time></trkpt><trkpt lat="44.36162865368487" lon="11.105885780536438"><ele>687.0</ele><time>2026-04-11T16:32:51.999Z</time></trkpt><trkpt lat="44.36187020483601" lon="11.105843221678123"><ele>687.0</ele><time>2026-04-11T16:32:52.999Z</time></trkpt><trkpt lat="44.36211058097927" lon="11.105796406479316"><ele>688.0</ele><time>2026-04-11T16:32:53.999Z</time></trkpt><trkpt lat="44.3623615353955" lon="11.10575118739801"><ele>689.0</ele><time>2026-04-11T16:32:54.999Z</time></trkpt><trkpt lat="44.3626142744914" lon="11.105703535088686"><ele>687.6666666666666</ele><time>2026-04-11T16:32:55.999Z</time></trkpt><trkpt lat="44.362837310439915" lon="11.105665715682905"><ele>686.3333333333334</ele><time>2026-04-11T16:32:56.999Z</time></trkpt><trkpt lat="44.36305973879595" lon="11.105629330972409"><ele>685.0</ele><time>2026-04-11T16:32:57.999Z</time></trkpt><trkpt lat="44.36326845506007" lon="11.105595019466383"><ele>685.0</ele><time>2026-04-11T16:32:58.999Z</time></trkpt><trkpt lat="44.36346406437212" lon="11.10556048747306"><ele>685.0</ele><time>2026-04-11T16:32:59.999Z</time></trkpt><trkpt lat="44.36364412220558" lon="11.10552746696114"><ele>685.0</ele><time>2026-04-11T16:33:00.999Z</time></trkpt><trkpt lat="44.36381910467595" lon="11.105492453453008"><ele>686.3333333333334</ele><time>2026-04-11T16:33:01.999Z</time></trkpt><trkpt lat="44.363977095337184" lon="11.1054631724063"><ele>687.6666666666666</ele><time>2026-04-11T16:33:02.999Z</time></trkpt><trkpt lat="44.364148757884855" lon="11.105431719156865"><ele>689.0</ele><time>2026-04-11T16:33:03.999Z</time></trkpt><trkpt lat="44.36432124457188" lon="11.105385267815707"><ele>689.0</ele><time>2026-04-11T16:33:04.999Z</time></trkpt><trkpt lat="44.36448724100899" lon="11.105333287940917"><ele>689.0</ele><time>2026-04-11T16:33:05.999Z</time></trkpt><trkpt lat="44.364654069275325" lon="11.105292592795148"><ele>689.0</ele><time>2026-04-11T16:33:06.999Z</time></trkpt><trkpt lat="44.36483463260978" lon="11.105255921200131"><ele>688.6666666666666</ele><time>2026-04-11T16:33:07.999Z</time></trkpt><trkpt lat="44.365004405741665" lon="11.105219739812679"><ele>688.3333333333334</ele><time>2026-04-11T16:33:08.999Z</time></trkpt><trkpt lat="44.36515692185088" lon="11.105185476708897"><ele>688.0</ele><time>2026-04-11T16:33:09.999Z</time></trkpt><trkpt lat="44.3653152252985" lon="11.105177502929067"><ele>688.0</ele><time>2026-04-11T16:33:10.999Z</time></trkpt><trkpt lat="44.3655023867351" lon="11.105126331722689"><ele>688.0</ele><time>2026-04-11T16:33:11.998Z</time></trkpt><trkpt lat="44.36569300342324" lon="11.10509805478651"><ele>688.0</ele><time>2026-04-11T16:33:12.998Z</time></trkpt><trkpt lat="44.365891570841455" lon="11.105067710033055"><ele>687.3333333333334</ele><time>2026-04-11T16:33:13.998Z</time></trkpt><trkpt lat="44.366090510131606" lon="11.10504267407461"><ele>686.6666666666666</ele><time>2026-04-11T16:33:14.998Z</time></trkpt><trkpt lat="44.36626831477223" lon="11.105022580589873"><ele>686.0</ele><time>2026-04-11T16:33:15.998Z</time></trkpt><trkpt lat="44.36643475703306" lon="11.105004055455867"><ele>686.0</ele><time>2026-04-11T16:33:16.998Z</time></trkpt><trkpt lat="44.366604802636544" lon="11.104978877553055"><ele>686.0</ele><time>2026-04-11T16:33:17.998Z</time></trkpt><trkpt lat="44.36676299429063" lon="11.104957609571061"><ele>686.0</ele><time>2026-04-11T16:33:19Z</time></trkpt><trkpt lat="44.36691068462116" lon="11.104938928618653"><ele>686.0</ele><time>2026-04-11T16:33:20Z</time></trkpt><trkpt lat="44.367046670425694" lon="11.104919582967202"><ele>686.0</ele><time>2026-04-11T16:33:21Z</time></trkpt><trkpt lat="44.367161387772875" lon="11.104892535369338"><ele>686.0</ele><time>2026-04-11T16:33:22Z</time></trkpt><trkpt lat="44.36728415530482" lon="11.104845600109956"><ele>686.0</ele><time>2026-04-11T16:33:23Z</time></trkpt><trkpt lat="44.36742201542513" lon="11.104778218092699"><ele>684.3333333333333</ele><time>2026-04-11T16:33:24Z</time></trkpt><trkpt lat="44.36757746728984" lon="11.104701856096616"><ele>682.6666666666666</ele><time>2026-04-11T16:33:25Z</time></trkpt><trkpt lat="44.36774972860925" lon="11.104625732618713"><ele>681.0</ele><time>2026-04-11T16:33:26Z</time></trkpt><trkpt lat="44.36793338568859" lon="11.104550944831951"><ele>680.3333333333334</ele><time>2026-04-11T16:33:27Z</time></trkpt><trkpt lat="44.36811866159824" lon="11.104468175082332"><ele>679.6666666666667</ele><time>2026-04-11T16:33:28Z</time></trkpt><trkpt lat="44.368281779721556" lon="11.104401813706504"><ele>679.0</ele><time>2026-04-11T16:33:29Z</time></trkpt><trkpt lat="44.36843957599378" lon="11.104341272219274"><ele>679.0</ele><time>2026-04-11T16:33:30Z</time></trkpt><trkpt lat="44.368591540783164" lon="11.104279174207823"><ele>679.0</ele><time>2026-04-11T16:33:31Z</time></trkpt><trkpt lat="44.36873889145293" lon="11.104209460813285"><ele>679.0</ele><time>2026-04-11T16:33:32Z</time></trkpt><trkpt lat="44.36887984362264" lon="11.104114524248867"><ele>679.0</ele><time>2026-04-11T16:33:33Z</time></trkpt><trkpt lat="44.36900440155412" lon="11.104009399750268"><ele>679.0</ele><time>2026-04-11T16:33:34Z</time></trkpt><trkpt lat="44.369114660626366" lon="11.103904769635998"><ele>679.0</ele><time>2026-04-11T16:33:35Z</time></trkpt><trkpt lat="44.369188215103804" lon="11.103832322291687"><ele>679.0</ele><time>2026-04-11T16:33:36Z</time></trkpt><trkpt lat="44.369249080651564" lon="11.103778432893323"><ele>679.0</ele><time>2026-04-11T16:33:41Z</time></trkpt><trkpt lat="44.369306150037204" lon="11.103722016625209"><ele>679.0</ele><time>2026-04-11T16:33:43Z</time></trkpt><trkpt lat="44.369228968231205" lon="11.103409328319906"><ele>679.0</ele><time>2026-04-11T16:33:44Z</time></trkpt><trkpt lat="44.36930464342631" lon="11.10326948145182"><ele>679.0</ele><time>2026-04-11T16:33:46Z</time></trkpt><trkpt lat="44.3694037498411" lon="11.103198121341398"><ele>677.1666666666667</ele><time>2026-04-11T16:33:48Z</time></trkpt><trkpt lat="44.36947272941193" lon="11.103157084530986"><ele>675.3333333333334</ele><time>2026-04-11T16:33:49Z</time></trkpt><trkpt lat="44.369512312594104" lon="11.103086669302805"><ele>673.5</ele><time>2026-04-11T16:33:50Z</time></trkpt><trkpt lat="44.36953721749151" lon="11.102988399067218"><ele>671.6666666666666</ele><time>2026-04-11T16:33:51Z</time></trkpt><trkpt lat="44.36953584754197" lon="11.102896154797415"><ele>669.8333333333333</ele><time>2026-04-11T16:33:52Z</time></trkpt><trkpt lat="44.36951827873193" lon="11.102715730299574"><ele>668.0</ele><time>2026-04-11T16:33:54Z</time></trkpt><trkpt lat="44.36953666015059" lon="11.102606979867291"><ele>668.0</ele><time>2026-04-11T16:33:55Z</time></trkpt><trkpt lat="44.36955795528018" lon="11.102510644991165"><ele>668.0</ele><time>2026-04-11T16:33:56Z</time></trkpt><trkpt lat="44.369568430042136" lon="11.1023403128815"><ele>668.0</ele><time>2026-04-11T16:33:58Z</time></trkpt><trkpt lat="44.369550613617506" lon="11.102227382474185"><ele>668.0</ele><time>2026-04-11T16:33:59Z</time></trkpt><trkpt lat="44.369531725700504" lon="11.102095902758126"><ele>668.0</ele><time>2026-04-11T16:34:00Z</time></trkpt><trkpt lat="44.36953013851128" lon="11.101999219703252"><ele>668.0</ele><time>2026-04-11T16:34:01Z</time></trkpt><trkpt lat="44.3695413753704" lon="11.101888536287495"><ele>667.5999999999999</ele><time>2026-04-11T16:34:02Z</time></trkpt><trkpt lat="44.36960112366891" lon="11.101699916447386"><ele>667.1999999999999</ele><time>2026-04-11T16:34:04Z</time></trkpt><trkpt lat="44.36963682833361" lon="11.101603155650892"><ele>666.8</ele><time>2026-04-11T16:34:04.999Z</time></trkpt><trkpt lat="44.36965246368459" lon="11.101506097879973"><ele>666.4</ele><time>2026-04-11T16:34:05.999Z</time></trkpt><trkpt lat="44.36968528162221" lon="11.101383114445913"><ele>666.0</ele><time>2026-04-11T16:34:06.999Z</time></trkpt><trkpt lat="44.36972794369624" lon="11.10129558635235"><ele>666.0</ele><time>2026-04-11T16:34:07.999Z</time></trkpt><trkpt lat="44.3697785850898" lon="11.101227585251472"><ele>666.0</ele><time>2026-04-11T16:34:08.999Z</time></trkpt><trkpt lat="44.369841891772964" lon="11.101144981939797"><ele>666.0</ele><time>2026-04-11T16:34:09.999Z</time></trkpt><trkpt lat="44.369889204275474" lon="11.101079973404897"><ele>666.0</ele><time>2026-04-11T16:34:10.999Z</time></trkpt><trkpt lat="44.36994413066563" lon="11.100991436343685"><ele>666.0</ele><time>2026-04-11T16:34:11.999Z</time></trkpt><trkpt lat="44.36997885238031" lon="11.100916604362165"><ele>666.0</ele><time>2026-04-11T16:34:12.999Z</time></trkpt><trkpt lat="44.36998863134591" lon="11.100822648077685"><ele>666.0</ele><time>2026-04-11T16:34:13.999Z</time></trkpt><trkpt lat="44.36998475343431" lon="11.100687652349567"><ele>664.8333333333334</ele><time>2026-04-11T16:34:14.999Z</time></trkpt><trkpt lat="44.369984229394205" lon="11.100565097758341"><ele>663.6666666666666</ele><time>2026-04-11T16:34:15.999Z</time></trkpt><trkpt lat="44.369971580423474" lon="11.100464605075056"><ele>662.5</ele><time>2026-04-11T16:34:16.999Z</time></trkpt><trkpt lat="44.36997490095379" lon="11.100350292755477"><ele>661.3333333333333</ele><time>2026-04-11T16:34:17.999Z</time></trkpt><trkpt lat="44.369983733471415" lon="11.10026007992396"><ele>660.1666666666666</ele><time>2026-04-11T16:34:18.999Z</time></trkpt><trkpt lat="44.36999243341877" lon="11.100141463243503"><ele>659.0</ele><time>2026-04-11T16:34:19.999Z</time></trkpt><trkpt lat="44.37000451609348" lon="11.100023875154678"><ele>658.3333333333333</ele><time>2026-04-11T16:34:20.999Z</time></trkpt><trkpt lat="44.37000468216928" lon="11.099833154179564"><ele>657.6666666666666</ele><time>2026-04-11T16:34:22.999Z</time></trkpt><trkpt lat="44.36999468129677" lon="11.099736861259661"><ele>657.0</ele><time>2026-04-11T16:34:23.999Z</time></trkpt><trkpt lat="44.36996797491194" lon="11.099649491795958"><ele>656.3333333333334</ele><time>2026-04-11T16:34:24.999Z</time></trkpt><trkpt lat="44.36991829076944" lon="11.099579640414033"><ele>655.6666666666667</ele><time>2026-04-11T16:34:25.999Z</time></trkpt><trkpt lat="44.369863065816936" lon="11.099526014680123"><ele>655.0</ele><time>2026-04-11T16:34:26.999Z</time></trkpt><trkpt lat="44.369764451651506" lon="11.099455089766256"><ele>651.6</ele><time>2026-04-11T16:34:28.999Z</time></trkpt><trkpt lat="44.369684075319526" lon="11.09935962088118"><ele>648.2</ele><time>2026-04-11T16:34:30.999Z</time></trkpt><trkpt lat="44.36966015665051" lon="11.099275980206219"><ele>644.8</ele><time>2026-04-11T16:34:31.999Z</time></trkpt><trkpt lat="44.36962767611313" lon="11.099104982386526"><ele>641.4</ele><time>2026-04-11T16:34:33.999Z</time></trkpt><trkpt lat="44.369611883929814" lon="11.099016984221032"><ele>638.0</ele><time>2026-04-11T16:34:34.999Z</time></trkpt><trkpt lat="44.36956663569745" lon="11.098882442038294"><ele>636.8</ele><time>2026-04-11T16:34:36.999Z</time></trkpt><trkpt lat="44.36951287987953" lon="11.098809567167926"><ele>635.5999999999999</ele><time>2026-04-11T16:34:37.999Z</time></trkpt><trkpt lat="44.36941989631691" lon="11.098763689671474"><ele>634.4000000000001</ele><time>2026-04-11T16:34:39.999Z</time></trkpt><trkpt lat="44.369316693138465" lon="11.098719930430374"><ele>633.2</ele><time>2026-04-11T16:34:41.999Z</time></trkpt><trkpt lat="44.36924338396204" lon="11.098700446634346"><ele>632.0</ele><time>2026-04-11T16:34:42.999Z</time></trkpt><trkpt lat="44.369126556694745" lon="11.09865181133741"><ele>632.0</ele><time>2026-04-11T16:34:44.999Z</time></trkpt><trkpt lat="44.36906141120719" lon="11.098646626599693"><ele>632.0</ele><time>2026-04-11T16:34:45.999Z</time></trkpt><trkpt lat="44.36899913451545" lon="11.09862541475916"><ele>632.0</ele><time>2026-04-11T16:34:46.999Z</time></trkpt><trkpt lat="44.368898561585624" lon="11.09860500853835"><ele>632.0</ele><time>2026-04-11T16:34:48.999Z</time></trkpt><trkpt lat="44.36881747669692" lon="11.098483467005776"><ele>632.0</ele><time>2026-04-11T16:34:50.999Z</time></trkpt><trkpt lat="44.368787222226736" lon="11.098400091379443"><ele>632.0</ele><time>2026-04-11T16:34:51.999Z</time></trkpt><trkpt lat="44.36876148869602" lon="11.098228669099802"><ele>629.0</ele><time>2026-04-11T16:34:53.999Z</time></trkpt><trkpt lat="44.368743803888165" lon="11.098137637344914"><ele>626.0</ele><time>2026-04-11T16:34:54.999Z</time></trkpt><trkpt lat="44.368733600858974" lon="11.097964169325522"><ele>623.0</ele><time>2026-04-11T16:34:56.999Z</time></trkpt><trkpt lat="44.368689332991494" lon="11.097814065704318"><ele>620.0</ele><time>2026-04-11T16:34:58.999Z</time></trkpt><trkpt lat="44.36867926467925" lon="11.097724950288505"><ele>617.0</ele><time>2026-04-11T16:34:59.999Z</time></trkpt><trkpt lat="44.36867645112309" lon="11.097631665742007"><ele>614.0</ele><time>2026-04-11T16:35:00.999Z</time></trkpt><trkpt lat="44.36866399017313" lon="11.097541655766971"><ele>614.0</ele><time>2026-04-11T16:35:01.999Z</time></trkpt><trkpt lat="44.3686294544552" lon="11.097467750005796"><ele>614.0</ele><time>2026-04-11T16:35:02.999Z</time></trkpt><trkpt lat="44.36854879539625" lon="11.097464128004322"><ele>614.0</ele><time>2026-04-11T16:35:04.999Z</time></trkpt><trkpt lat="44.368478426859106" lon="11.097464651546295"><ele>614.0</ele><time>2026-04-11T16:35:05.998Z</time></trkpt><trkpt lat="44.368405333764166" lon="11.097541419297658"><ele>614.0</ele><time>2026-04-11T16:35:07.998Z</time></trkpt><trkpt lat="44.36835544023401" lon="11.097665616730408"><ele>614.0</ele><time>2026-04-11T16:35:09.998Z</time></trkpt><trkpt lat="44.36831061194288" lon="11.097817868862913"><ele>614.0</ele><time>2026-04-11T16:35:11.998Z</time></trkpt><trkpt lat="44.36829225374618" lon="11.097963854198047"><ele>614.0</ele><time>2026-04-11T16:35:13.998Z</time></trkpt><trkpt lat="44.36828362244785" lon="11.098104090623275"><ele>614.0</ele><time>2026-04-11T16:35:15.998Z</time></trkpt><trkpt lat="44.36825230275692" lon="11.098195080658563"><ele>614.0</ele><time>2026-04-11T16:35:16.998Z</time></trkpt><trkpt lat="44.36814693202097" lon="11.098258743903147"><ele>614.0</ele><time>2026-04-11T16:35:18.998Z</time></trkpt><trkpt lat="44.36810094806883" lon="11.09819675014249"><ele>614.0</ele><time>2026-04-11T16:35:19.998Z</time></trkpt><trkpt lat="44.36804856396737" lon="11.098054959855576"><ele>614.0</ele><time>2026-04-11T16:35:21.998Z</time></trkpt><trkpt lat="44.367998870646566" lon="11.097989615205298"><ele>614.0</ele><time>2026-04-11T16:35:22.998Z</time></trkpt><trkpt lat="44.36793820935065" lon="11.09783723323097"><ele>614.0</ele><time>2026-04-11T16:35:25Z</time></trkpt><trkpt lat="44.36791208093162" lon="11.097744233732358"><ele>614.0</ele><time>2026-04-11T16:35:26Z</time></trkpt><trkpt lat="44.36787864648824" lon="11.09765766567812"><ele>614.0</ele><time>2026-04-11T16:35:27Z</time></trkpt><trkpt lat="44.36783351250658" lon="11.097576937071286"><ele>611.2857142857142</ele><time>2026-04-11T16:35:28Z</time></trkpt><trkpt lat="44.36779188269921" lon="11.097505689532506"><ele>608.5714285714286</ele><time>2026-04-11T16:35:29Z</time></trkpt><trkpt lat="44.36773527115104" lon="11.097444400317748"><ele>605.8571428571429</ele><time>2026-04-11T16:35:30Z</time></trkpt><trkpt lat="44.36767939045541" lon="11.097398992889616"><ele>603.1428571428571</ele><time>2026-04-11T16:35:31Z</time></trkpt><trkpt lat="44.36762853172009" lon="11.097339911671959"><ele>600.4285714285714</ele><time>2026-04-11T16:35:32Z</time></trkpt><trkpt lat="44.36759288350709" lon="11.09726667802814"><ele>597.7142857142857</ele><time>2026-04-11T16:35:33Z</time></trkpt><trkpt lat="44.36755785505939" lon="11.09716916850135"><ele>595.0</ele><time>2026-04-11T16:35:34Z</time></trkpt><trkpt lat="44.36753094415706" lon="11.097079600479987"><ele>594.5</ele><time>2026-04-11T16:35:35Z</time></trkpt><trkpt lat="44.367504552244746" lon="11.096976556425675"><ele>594.0</ele><time>2026-04-11T16:35:36Z</time></trkpt><trkpt lat="44.36748439552851" lon="11.096891190367476"><ele>593.5</ele><time>2026-04-11T16:35:37Z</time></trkpt><trkpt lat="44.36745916319398" lon="11.096807029727762"><ele>593.0</ele><time>2026-04-11T16:35:38Z</time></trkpt><trkpt lat="44.36747512966224" lon="11.096668372422101"><ele>592.5</ele><time>2026-04-11T16:35:40Z</time></trkpt><trkpt lat="44.367545714431024" lon="11.096510011335626"><ele>592.0</ele><time>2026-04-11T16:35:42Z</time></trkpt><trkpt lat="44.36758128172579" lon="11.096430064844416"><ele>591.1428571428571</ele><time>2026-04-11T16:35:43Z</time></trkpt><trkpt lat="44.36759402971144" lon="11.096326035731861"><ele>590.2857142857142</ele><time>2026-04-11T16:35:44Z</time></trkpt><trkpt lat="44.36755880067659" lon="11.096226195751452"><ele>589.4285714285713</ele><time>2026-04-11T16:35:45Z</time></trkpt><trkpt lat="44.3675312979605" lon="11.096118253572762"><ele>588.5714285714286</ele><time>2026-04-11T16:35:46Z</time></trkpt><trkpt lat="44.367525664736746" lon="11.096025107739658"><ele>587.7142857142857</ele><time>2026-04-11T16:35:47Z</time></trkpt><trkpt lat="44.36750311269497" lon="11.095933178011562"><ele>586.8571428571428</ele><time>2026-04-11T16:35:48Z</time></trkpt><trkpt lat="44.36749504661295" lon="11.095831812185406"><ele>586.0</ele><time>2026-04-11T16:35:49Z</time></trkpt><trkpt lat="44.36751518468625" lon="11.095651579287498"><ele>583.8</ele><time>2026-04-11T16:35:51Z</time></trkpt><trkpt lat="44.36752911576134" lon="11.095549553442654"><ele>581.6</ele><time>2026-04-11T16:35:52Z</time></trkpt><trkpt lat="44.36759950024334" lon="11.095418130812073"><ele>579.4</ele><time>2026-04-11T16:35:54Z</time></trkpt><trkpt lat="44.36772960072748" lon="11.095374645838909"><ele>577.2</ele><time>2026-04-11T16:35:56Z</time></trkpt><trkpt lat="44.367798196071725" lon="11.095414683734282"><ele>575.0</ele><time>2026-04-11T16:35:57Z</time></trkpt><trkpt lat="44.36793038846726" lon="11.095422142202045"><ele>575.2</ele><time>2026-04-11T16:35:59Z</time></trkpt><trkpt lat="44.36803326546181" lon="11.095267293461593"><ele>575.4</ele><time>2026-04-11T16:36:01Z</time></trkpt><trkpt lat="44.368075042596566" lon="11.095169006175562"><ele>575.6</ele><time>2026-04-11T16:36:02Z</time></trkpt><trkpt lat="44.36812389934121" lon="11.095090969251018"><ele>575.8</ele><time>2026-04-11T16:36:03Z</time></trkpt><trkpt lat="44.368180146856304" lon="11.095012629905856"><ele>576.0</ele><time>2026-04-11T16:36:04Z</time></trkpt><trkpt lat="44.368228586083454" lon="11.094954284162366"><ele>576.0</ele><time>2026-04-11T16:36:05Z</time></trkpt><trkpt lat="44.36832383945178" lon="11.094922251563842"><ele>576.0</ele><time>2026-04-11T16:36:07Z</time></trkpt><trkpt lat="44.36840948942842" lon="11.095028356219501"><ele>576.0</ele><time>2026-04-11T16:36:09Z</time></trkpt><trkpt lat="44.36847862836824" lon="11.095133547226007"><ele>576.0</ele><time>2026-04-11T16:36:11Z</time></trkpt><trkpt lat="44.36858087723273" lon="11.095120865966297"><ele>576.0</ele><time>2026-04-11T16:36:12.999Z</time></trkpt><trkpt lat="44.36860614573808" lon="11.09501628011459"><ele>573.0</ele><time>2026-04-11T16:36:14.999Z</time></trkpt><trkpt lat="44.36856208334782" lon="11.094883649125464"><ele>570.0</ele><time>2026-04-11T16:36:16.999Z</time></trkpt><trkpt lat="44.36848051688115" lon="11.094783472363275"><ele>567.0</ele><time>2026-04-11T16:36:18.999Z</time></trkpt><trkpt lat="44.36844997847633" lon="11.094635397359436"><ele>564.0</ele><time>2026-04-11T16:36:20.999Z</time></trkpt><trkpt lat="44.36845760337008" lon="11.09450147993977"><ele>561.0</ele><time>2026-04-11T16:36:22.999Z</time></trkpt><trkpt lat="44.36842258776524" lon="11.094376303937251"><ele>561.0</ele><time>2026-04-11T16:36:24.999Z</time></trkpt><trkpt lat="44.3683033855671" lon="11.09430522217542"><ele>561.0</ele><time>2026-04-11T16:36:26.999Z</time></trkpt><trkpt lat="44.36820631945303" lon="11.094233813744006"><ele>561.0</ele><time>2026-04-11T16:36:28.999Z</time></trkpt><trkpt lat="44.36813057893479" lon="11.09412426579825"><ele>561.0</ele><time>2026-04-11T16:36:30.999Z</time></trkpt><trkpt lat="44.3681242163812" lon="11.093967886115482"><ele>559.6</ele><time>2026-04-11T16:36:32.999Z</time></trkpt><trkpt lat="44.368143374761026" lon="11.093809370484104"><ele>558.2</ele><time>2026-04-11T16:36:34.999Z</time></trkpt><trkpt lat="44.36813926330738" lon="11.093625547909648"><ele>556.8</ele><time>2026-04-11T16:36:36.999Z</time></trkpt><trkpt lat="44.36813356787253" lon="11.093519177653123"><ele>555.4</ele><time>2026-04-11T16:36:37.999Z</time></trkpt><trkpt lat="44.36813197062304" lon="11.093407229371623"><ele>554.0</ele><time>2026-04-11T16:36:38.999Z</time></trkpt><trkpt lat="44.36812511869041" lon="11.093295378502438"><ele>552.6</ele><time>2026-04-11T16:36:39.999Z</time></trkpt><trkpt lat="44.36811649498148" lon="11.093205572119263"><ele>551.2</ele><time>2026-04-11T16:36:40.999Z</time></trkpt><trkpt lat="44.36809109643722" lon="11.093042088106799"><ele>549.8000000000001</ele><time>2026-04-11T16:36:42.999Z</time></trkpt><trkpt lat="44.36810073444572" lon="11.092947364191419"><ele>548.4</ele><time>2026-04-11T16:36:43.999Z</time></trkpt><trkpt lat="44.36814631863132" lon="11.092771903939303"><ele>547.0</ele><time>2026-04-11T16:36:45.999Z</time></trkpt><trkpt lat="44.36816770239437" lon="11.092680984185073"><ele>547.0</ele><time>2026-04-11T16:36:46.999Z</time></trkpt><trkpt lat="44.36816290007426" lon="11.092530574358362"><ele>547.0</ele><time>2026-04-11T16:36:48.999Z</time></trkpt><trkpt lat="44.3681735615045" lon="11.092434848142465"><ele>547.0</ele><time>2026-04-11T16:36:49.999Z</time></trkpt><trkpt lat="44.36820030207395" lon="11.092348883181606"><ele>547.0</ele><time>2026-04-11T16:36:50.999Z</time></trkpt><trkpt lat="44.36826353278969" lon="11.09218687161622"><ele>547.0</ele><time>2026-04-11T16:36:52.999Z</time></trkpt><trkpt lat="44.36822219245957" lon="11.09204620723536"><ele>546.3333333333334</ele><time>2026-04-11T16:36:54.999Z</time></trkpt><trkpt lat="44.36816163407711" lon="11.092018685040468"><ele>545.6666666666667</ele><time>2026-04-11T16:36:55.999Z</time></trkpt><trkpt lat="44.368094153083064" lon="11.092049722868554"><ele>545.0</ele><time>2026-04-11T16:36:56.999Z</time></trkpt><trkpt lat="44.36803563755961" lon="11.092123318102757"><ele>544.3333333333334</ele><time>2026-04-11T16:36:57.999Z</time></trkpt><trkpt lat="44.36798425932166" lon="11.092199151340935"><ele>543.6666666666666</ele><time>2026-04-11T16:36:58.999Z</time></trkpt><trkpt lat="44.367882159101555" lon="11.092221350239184"><ele>543.0</ele><time>2026-04-11T16:37:00.999Z</time></trkpt><trkpt lat="44.36776808071383" lon="11.092219361911258"><ele>540.6666666666666</ele><time>2026-04-11T16:37:02.999Z</time></trkpt><trkpt lat="44.36764296278036" lon="11.092172191415894"><ele>538.3333333333334</ele><time>2026-04-11T16:37:04.999Z</time></trkpt><trkpt lat="44.36753703131163" lon="11.092162470463078"><ele>536.0</ele><time>2026-04-11T16:37:06.999Z</time></trkpt><trkpt lat="44.367498049312516" lon="11.092090724022007"><ele>533.6666666666667</ele><time>2026-04-11T16:37:07.999Z</time></trkpt><trkpt lat="44.3674661680366" lon="11.092006825894064"><ele>531.3333333333334</ele><time>2026-04-11T16:37:08.999Z</time></trkpt><trkpt lat="44.36741937885768" lon="11.091929540229945"><ele>529.0</ele><time>2026-04-11T16:37:09.999Z</time></trkpt><trkpt lat="44.36736219176245" lon="11.091864788045635"><ele>529.0</ele><time>2026-04-11T16:37:10.999Z</time></trkpt><trkpt lat="44.36724862645593" lon="11.091752747310478"><ele>529.0</ele><time>2026-04-11T16:37:12.998Z</time></trkpt><trkpt lat="44.367189019318076" lon="11.09166947579385"><ele>529.0</ele><time>2026-04-11T16:37:13.998Z</time></trkpt><trkpt lat="44.36715598046643" lon="11.091525437938277"><ele>529.0</ele><time>2026-04-11T16:37:15.998Z</time></trkpt><trkpt lat="44.36717130119268" lon="11.091342091962925"><ele>528.6666666666667</ele><time>2026-04-11T16:37:17.998Z</time></trkpt><trkpt lat="44.36717630010886" lon="11.091217758597269"><ele>528.3333333333334</ele><time>2026-04-11T16:37:18.998Z</time></trkpt><trkpt lat="44.36718515840609" lon="11.091099307879663"><ele>528.0</ele><time>2026-04-11T16:37:19.998Z</time></trkpt><trkpt lat="44.36719931692911" lon="11.090987402893147"><ele>527.6666666666666</ele><time>2026-04-11T16:37:20.998Z</time></trkpt><trkpt lat="44.36719639342983" lon="11.090868102826544"><ele>527.3333333333333</ele><time>2026-04-11T16:37:21.998Z</time></trkpt><trkpt lat="44.36720001400535" lon="11.090735687524019"><ele>527.0</ele><time>2026-04-11T16:37:22.998Z</time></trkpt><trkpt lat="44.367213248432904" lon="11.090637414607047"><ele>527.6666666666666</ele><time>2026-04-11T16:37:23.998Z</time></trkpt><trkpt lat="44.367220359564904" lon="11.09054491532261"><ele>528.3333333333333</ele><time>2026-04-11T16:37:24.998Z</time></trkpt><trkpt lat="44.367151884925555" lon="11.09039465719016"><ele>529.0</ele><time>2026-04-11T16:37:26.998Z</time></trkpt><trkpt lat="44.36709296670059" lon="11.09033791104025"><ele>529.6666666666666</ele><time>2026-04-11T16:37:27.998Z</time></trkpt><trkpt lat="44.36701986890782" lon="11.090284695788927"><ele>530.3333333333334</ele><time>2026-04-11T16:37:28.998Z</time></trkpt><trkpt lat="44.36695476242704" lon="11.090240876589167"><ele>531.0</ele><time>2026-04-11T16:37:29.998Z</time></trkpt><trkpt lat="44.36688611672965" lon="11.090185473385036"><ele>526.4</ele><time>2026-04-11T16:37:31Z</time></trkpt><trkpt lat="44.36681328804598" lon="11.090110810700809"><ele>521.8</ele><time>2026-04-11T16:37:32Z</time></trkpt><trkpt lat="44.366737285101046" lon="11.090022100752696"><ele>517.1999999999999</ele><time>2026-04-11T16:37:33Z</time></trkpt><trkpt lat="44.366666204873994" lon="11.0899481888486"><ele>512.6</ele><time>2026-04-11T16:37:34Z</time></trkpt><trkpt lat="44.36660542780135" lon="11.08989126000892"><ele>508.0</ele><time>2026-04-11T16:37:35Z</time></trkpt><trkpt lat="44.366511943919825" lon="11.089807459487805"><ele>508.0</ele><time>2026-04-11T16:37:37Z</time></trkpt><trkpt lat="44.36645166015829" lon="11.089632235361641"><ele>507.99999999999994</ele><time>2026-04-11T16:37:39Z</time></trkpt><trkpt lat="44.36642389164161" lon="11.089481331614675"><ele>507.99999999999994</ele><time>2026-04-11T16:37:40Z</time></trkpt><trkpt lat="44.3664015957004" lon="11.089351433390433"><ele>508.0</ele><time>2026-04-11T16:37:41Z</time></trkpt><trkpt lat="44.36636622859428" lon="11.08922419426392"><ele>508.0</ele><time>2026-04-11T16:37:42Z</time></trkpt><trkpt lat="44.36632372506349" lon="11.089099401555993"><ele>503.50000000000006</ele><time>2026-04-11T16:37:43Z</time></trkpt><trkpt lat="44.36627745405121" lon="11.088990860162095"><ele>499.0</ele><time>2026-04-11T16:37:44Z</time></trkpt><trkpt lat="44.36622714964949" lon="11.08887795510554"><ele>494.5</ele><time>2026-04-11T16:37:45Z</time></trkpt><trkpt lat="44.366194954941136" lon="11.088790048384464"><ele>490.0</ele><time>2026-04-11T16:37:46Z</time></trkpt><trkpt lat="44.36616173450238" lon="11.088703756793189"><ele>485.50000000000006</ele><time>2026-04-11T16:37:47Z</time></trkpt><trkpt lat="44.36611261437641" lon="11.088562331054074"><ele>481.0</ele><time>2026-04-11T16:37:49Z</time></trkpt><trkpt lat="44.366126145751046" lon="11.088412497442315"><ele>481.0</ele><time>2026-04-11T16:37:51Z</time></trkpt><trkpt lat="44.36616964431102" lon="11.088302308324915"><ele>481.0</ele><time>2026-04-11T16:37:52Z</time></trkpt><trkpt lat="44.36623516424115" lon="11.088206523530367"><ele>481.0</ele><time>2026-04-11T16:37:53Z</time></trkpt><trkpt lat="44.3663085724101" lon="11.088092775088866"><ele>481.0</ele><time>2026-04-11T16:37:54Z</time></trkpt><trkpt lat="44.36636336544394" lon="11.087994897861748"><ele>481.0</ele><time>2026-04-11T16:37:55Z</time></trkpt><trkpt lat="44.366418718484155" lon="11.087894575807356"><ele>481.50000000000006</ele><time>2026-04-11T16:37:56Z</time></trkpt><trkpt lat="44.366471698977094" lon="11.087805110737417"><ele>482.0</ele><time>2026-04-11T16:37:57Z</time></trkpt><trkpt lat="44.3665048748312" lon="11.087719366703624"><ele>482.5</ele><time>2026-04-11T16:37:58Z</time></trkpt><trkpt lat="44.36652463888036" lon="11.087601578883222"><ele>483.0</ele><time>2026-04-11T16:37:59Z</time></trkpt><trkpt lat="44.36650834689217" lon="11.087490588610105"><ele>483.50000000000006</ele><time>2026-04-11T16:38:00Z</time></trkpt><trkpt lat="44.36647138925052" lon="11.087372048441104"><ele>484.0</ele><time>2026-04-11T16:38:01Z</time></trkpt><trkpt lat="44.366412019378714" lon="11.087281744705964"><ele>480.50000000000006</ele><time>2026-04-11T16:38:02Z</time></trkpt><trkpt lat="44.36633971168549" lon="11.087228021350025"><ele>477.0</ele><time>2026-04-11T16:38:03Z</time></trkpt><trkpt lat="44.36624009520387" lon="11.087204224199809"><ele>473.5</ele><time>2026-04-11T16:38:04Z</time></trkpt><trkpt lat="44.36614135773714" lon="11.08721207263412"><ele>470.0</ele><time>2026-04-11T16:38:05Z</time></trkpt><trkpt lat="44.366054357759246" lon="11.08722369140944"><ele>466.50000000000006</ele><time>2026-04-11T16:38:06Z</time></trkpt><trkpt lat="44.365982521506595" lon="11.087215118601806"><ele>463.0</ele><time>2026-04-11T16:38:07Z</time></trkpt><trkpt lat="44.36592007164016" lon="11.087178593442857"><ele>463.0</ele><time>2026-04-11T16:38:08Z</time></trkpt><trkpt lat="44.3658416550814" lon="11.08709047908205"><ele>462.99999999999994</ele><time>2026-04-11T16:38:09Z</time></trkpt><trkpt lat="44.36578205789866" lon="11.086986384517097"><ele>462.99999999999994</ele><time>2026-04-11T16:38:10Z</time></trkpt><trkpt lat="44.365738632373905" lon="11.086866704135126"><ele>463.0</ele><time>2026-04-11T16:38:11Z</time></trkpt><trkpt lat="44.365713807405484" lon="11.086727350761809"><ele>463.0</ele><time>2026-04-11T16:38:12Z</time></trkpt><trkpt lat="44.36571252002667" lon="11.086578710821335"><ele>461.4</ele><time>2026-04-11T16:38:13Z</time></trkpt><trkpt lat="44.36573762697761" lon="11.086448138227128"><ele>459.79999999999995</ele><time>2026-04-11T16:38:13.999Z</time></trkpt><trkpt lat="44.36578153351356" lon="11.086321871926451"><ele>458.2</ele><time>2026-04-11T16:38:14.999Z</time></trkpt><trkpt lat="44.365846579531045" lon="11.086198476496126"><ele>456.6</ele><time>2026-04-11T16:38:15.999Z</time></trkpt><trkpt lat="44.365912697087545" lon="11.086085119615433"><ele>455.0</ele><time>2026-04-11T16:38:16.999Z</time></trkpt><trkpt lat="44.36597284987185" lon="11.08596108931084"><ele>455.0</ele><time>2026-04-11T16:38:17.999Z</time></trkpt><trkpt lat="44.36602645427496" lon="11.085838461991555"><ele>455.0</ele><time>2026-04-11T16:38:18.999Z</time></trkpt><trkpt lat="44.366074376298286" lon="11.085706633286271"><ele>455.0</ele><time>2026-04-11T16:38:19.999Z</time></trkpt><trkpt lat="44.3661247962548" lon="11.085598410692025"><ele>455.0</ele><time>2026-04-11T16:38:20.999Z</time></trkpt><trkpt lat="44.36618062541175" lon="11.085498851875256"><ele>455.0</ele><time>2026-04-11T16:38:21.999Z</time></trkpt><trkpt lat="44.36621932883858" lon="11.085391410171374"><ele>452.6</ele><time>2026-04-11T16:38:22.999Z</time></trkpt><trkpt lat="44.366206972968186" lon="11.085277854775097"><ele>450.2</ele><time>2026-04-11T16:38:23.999Z</time></trkpt><trkpt lat="44.36619484050096" lon="11.085140548975556"><ele>447.79999999999995</ele><time>2026-04-11T16:38:24.999Z</time></trkpt><trkpt lat="44.3661870800837" lon="11.0850018267832"><ele>445.4</ele><time>2026-04-11T16:38:25.999Z</time></trkpt><trkpt lat="44.366188999067774" lon="11.084873274237061"><ele>443.0</ele><time>2026-04-11T16:38:26.999Z</time></trkpt><trkpt lat="44.36621462056043" lon="11.08476961380412"><ele>442.79999999999995</ele><time>2026-04-11T16:38:27.999Z</time></trkpt><trkpt lat="44.3662665094983" lon="11.08466166175239"><ele>442.59999999999997</ele><time>2026-04-11T16:38:28.999Z</time></trkpt><trkpt lat="44.36632870853851" lon="11.084549234911588"><ele>442.40000000000003</ele><time>2026-04-11T16:38:29.999Z</time></trkpt><trkpt lat="44.36639008410717" lon="11.08442286701743"><ele>442.20000000000005</ele><time>2026-04-11T16:38:30.999Z</time></trkpt><trkpt lat="44.36644080733095" lon="11.084283806172191"><ele>442.0</ele><time>2026-04-11T16:38:31.999Z</time></trkpt><trkpt lat="44.3664920876732" lon="11.08414077169351"><ele>439.0</ele><time>2026-04-11T16:38:32.999Z</time></trkpt><trkpt lat="44.36655598721452" lon="11.08399719850231"><ele>436.0</ele><time>2026-04-11T16:38:33.999Z</time></trkpt><trkpt lat="44.36663095899479" lon="11.083820454473635"><ele>433.0</ele><time>2026-04-11T16:38:34.999Z</time></trkpt><trkpt lat="44.3667047405876" lon="11.083636658693202"><ele>430.0</ele><time>2026-04-11T16:38:35.999Z</time></trkpt><trkpt lat="44.36677356415224" lon="11.083460893469752"><ele>430.0</ele><time>2026-04-11T16:38:36.999Z</time></trkpt><trkpt lat="44.36684178663329" lon="11.08328728953687"><ele>430.0</ele><time>2026-04-11T16:38:37.999Z</time></trkpt><trkpt lat="44.3669047390801" lon="11.08312414866105"><ele>430.0</ele><time>2026-04-11T16:38:38.999Z</time></trkpt><trkpt lat="44.366969060252465" lon="11.082968443458732"><ele>430.0</ele><time>2026-04-11T16:38:39.999Z</time></trkpt><trkpt lat="44.36703427551214" lon="11.082821645487892"><ele>427.75</ele><time>2026-04-11T16:38:40.999Z</time></trkpt><trkpt lat="44.36710314023713" lon="11.082670630320921"><ele>425.5</ele><time>2026-04-11T16:38:41.999Z</time></trkpt><trkpt lat="44.367162366231554" lon="11.082531604388615"><ele>423.25</ele><time>2026-04-11T16:38:42.999Z</time></trkpt><trkpt lat="44.36722032635293" lon="11.082394183694367"><ele>421.0</ele><time>2026-04-11T16:38:43.999Z</time></trkpt><trkpt lat="44.36727013387587" lon="11.082265871073727"><ele>420.0</ele><time>2026-04-11T16:38:44.999Z</time></trkpt><trkpt lat="44.36729005810253" lon="11.082111941383047"><ele>419.0</ele><time>2026-04-11T16:38:45.999Z</time></trkpt><trkpt lat="44.36730744602837" lon="11.081963544274428"><ele>418.0</ele><time>2026-04-11T16:38:46.999Z</time></trkpt><trkpt lat="44.3673316351482" lon="11.08180289437244"><ele>417.0</ele><time>2026-04-11T16:38:47.999Z</time></trkpt><trkpt lat="44.367369338754294" lon="11.081639331498291"><ele>415.0</ele><time>2026-04-11T16:38:48.999Z</time></trkpt><trkpt lat="44.36741272073047" lon="11.081441897309967"><ele>413.0</ele><time>2026-04-11T16:38:49.999Z</time></trkpt><trkpt lat="44.367446830984505" lon="11.081248594850038"><ele>411.0</ele><time>2026-04-11T16:38:50.999Z</time></trkpt><trkpt lat="44.367482653733724" lon="11.081063818989229"><ele>409.0</ele><time>2026-04-11T16:38:51.999Z</time></trkpt><trkpt lat="44.367518636396696" lon="11.080882102685582"><ele>407.25</ele><time>2026-04-11T16:38:52.999Z</time></trkpt><trkpt lat="44.367552199465166" lon="11.080706675511424"><ele>405.5</ele><time>2026-04-11T16:38:53.999Z</time></trkpt><trkpt lat="44.36758128199274" lon="11.080525424697134"><ele>403.75</ele><time>2026-04-11T16:38:54.999Z</time></trkpt><trkpt lat="44.36759283245587" lon="11.080350549619784"><ele>402.0</ele><time>2026-04-11T16:38:55.999Z</time></trkpt><trkpt lat="44.36759071044287" lon="11.080169733001403"><ele>402.0</ele><time>2026-04-11T16:38:56.999Z</time></trkpt><trkpt lat="44.367592275185416" lon="11.07999602351272"><ele>402.0</ele><time>2026-04-11T16:38:57.999Z</time></trkpt><trkpt lat="44.36760144859906" lon="11.07982479397959"><ele>402.0</ele><time>2026-04-11T16:38:58.999Z</time></trkpt><trkpt lat="44.36761955680885" lon="11.079647968910123"><ele>402.0</ele><time>2026-04-11T16:38:59.999Z</time></trkpt><trkpt lat="44.367638917863324" lon="11.079467900958639"><ele>400.0</ele><time>2026-04-11T16:39:00.999Z</time></trkpt><trkpt lat="44.36765475664323" lon="11.079299501727832"><ele>398.0</ele><time>2026-04-11T16:39:01.999Z</time></trkpt><trkpt lat="44.36767298631842" lon="11.07913320760849"><ele>396.0</ele><time>2026-04-11T16:39:02.999Z</time></trkpt><trkpt lat="44.367693893913824" lon="11.078954971351077"><ele>394.0</ele><time>2026-04-11T16:39:03.999Z</time></trkpt><trkpt lat="44.36771608406458" lon="11.078777170250655"><ele>392.6</ele><time>2026-04-11T16:39:04.999Z</time></trkpt><trkpt lat="44.367741276312046" lon="11.078608194193102"><ele>391.2</ele><time>2026-04-11T16:39:05.999Z</time></trkpt><trkpt lat="44.3677638406849" lon="11.078464339885944"><ele>389.8</ele><time>2026-04-11T16:39:06.999Z</time></trkpt><trkpt lat="44.36778320188043" lon="11.078341520008664"><ele>388.40000000000003</ele><time>2026-04-11T16:39:07.999Z</time></trkpt><trkpt lat="44.36781087532987" lon="11.078230488664268"><ele>387.0</ele><time>2026-04-11T16:39:08.999Z</time></trkpt><trkpt lat="44.36785930416528" lon="11.078125100609496"><ele>385.8</ele><time>2026-04-11T16:39:09.999Z</time></trkpt><trkpt lat="44.3679287940648" lon="11.078027073200161"><ele>384.6</ele><time>2026-04-11T16:39:10.999Z</time></trkpt><trkpt lat="44.36801480703618" lon="11.07794467702283"><ele>383.40000000000003</ele><time>2026-04-11T16:39:11.998Z</time></trkpt><trkpt lat="44.368109159624396" lon="11.077877182766061"><ele>382.20000000000005</ele><time>2026-04-11T16:39:12.998Z</time></trkpt><trkpt lat="44.36820761392849" lon="11.077823248241433"><ele>381.0</ele><time>2026-04-11T16:39:13.998Z</time></trkpt><trkpt lat="44.36830486956211" lon="11.077770369604231"><ele>381.0</ele><time>2026-04-11T16:39:14.998Z</time></trkpt><trkpt lat="44.368402933372856" lon="11.077717231499932"><ele>381.0</ele><time>2026-04-11T16:39:15.998Z</time></trkpt><trkpt lat="44.3685064413141" lon="11.077666932259952"><ele>381.0</ele><time>2026-04-11T16:39:16.998Z</time></trkpt><trkpt lat="44.36861575965598" lon="11.077627691420938"><ele>381.0</ele><time>2026-04-11T16:39:17.998Z</time></trkpt><trkpt lat="44.36872018151493" lon="11.077600096114654"><ele>381.0</ele><time>2026-04-11T16:39:18.998Z</time></trkpt><trkpt lat="44.368818633095024" lon="11.077570290197357"><ele>380.0</ele><time>2026-04-11T16:39:19.998Z</time></trkpt><trkpt lat="44.36891201884511" lon="11.07753078440451"><ele>379.0</ele><time>2026-04-11T16:39:20.998Z</time></trkpt><trkpt lat="44.36899240212904" lon="11.07748051575673"><ele>378.0</ele><time>2026-04-11T16:39:21.998Z</time></trkpt><trkpt lat="44.36907652272318" lon="11.077415886528945"><ele>377.0</ele><time>2026-04-11T16:39:22.998Z</time></trkpt><trkpt lat="44.36916686216112" lon="11.077325734483281"><ele>376.0</ele><time>2026-04-11T16:39:23.998Z</time></trkpt><trkpt lat="44.369262159111244" lon="11.07722971606107"><ele>376.0</ele><time>2026-04-11T16:39:24.998Z</time></trkpt><trkpt lat="44.369351028780066" lon="11.077136231957677"><ele>376.0</ele><time>2026-04-11T16:39:25.998Z</time></trkpt><trkpt lat="44.36944479501474" lon="11.077050409440767"><ele>376.0</ele><time>2026-04-11T16:39:26.998Z</time></trkpt><trkpt lat="44.36953073111275" lon="11.076949366570116"><ele>376.0</ele><time>2026-04-11T16:39:27.998Z</time></trkpt><trkpt lat="44.3696127489666" lon="11.076850360056696"><ele>376.0</ele><time>2026-04-11T16:39:28.998Z</time></trkpt><trkpt lat="44.369702744849235" lon="11.076750113935962"><ele>376.25</ele><time>2026-04-11T16:39:29.998Z</time></trkpt><trkpt lat="44.369795432257106" lon="11.076642829758082"><ele>376.5</ele><time>2026-04-11T16:39:30.998Z</time></trkpt><trkpt lat="44.36988955992157" lon="11.076532111889117"><ele>376.75</ele><time>2026-04-11T16:39:31.998Z</time></trkpt><trkpt lat="44.369975648327504" lon="11.0764257818148"><ele>377.0</ele><time>2026-04-11T16:39:32.998Z</time></trkpt><trkpt lat="44.37005951643434" lon="11.076322576564163"><ele>375.20000000000005</ele><time>2026-04-11T16:39:33.998Z</time></trkpt><trkpt lat="44.37014646012167" lon="11.076225316196865"><ele>373.4</ele><time>2026-04-11T16:39:34.998Z</time></trkpt><trkpt lat="44.37022143940087" lon="11.076119709607166"><ele>371.6</ele><time>2026-04-11T16:39:35.998Z</time></trkpt><trkpt lat="44.37029639352902" lon="11.07602281594351"><ele>369.79999999999995</ele><time>2026-04-11T16:39:37Z</time></trkpt><trkpt lat="44.37036475956742" lon="11.075935644648984"><ele>368.0</ele><time>2026-04-11T16:39:38Z</time></trkpt><trkpt lat="44.37042398395523" lon="11.075857702810147"><ele>368.0</ele><time>2026-04-11T16:39:39Z</time></trkpt><trkpt lat="44.37047714864925" lon="11.07578710554174"><ele>368.0</ele><time>2026-04-11T16:39:40Z</time></trkpt><trkpt lat="44.370523799494016" lon="11.075716437086573"><ele>368.0</ele><time>2026-04-11T16:39:41Z</time></trkpt><trkpt lat="44.370558942203566" lon="11.075626869592517"><ele>368.0</ele><time>2026-04-11T16:39:42Z</time></trkpt><trkpt lat="44.37060532151096" lon="11.075526147031463"><ele>368.0</ele><time>2026-04-11T16:39:43Z</time></trkpt><trkpt lat="44.37060824411254" lon="11.075386264289195"><ele>368.0</ele><time>2026-04-11T16:39:44Z</time></trkpt><trkpt lat="44.37062227624669" lon="11.075255948563946"><ele>366.6666666666667</ele><time>2026-04-11T16:39:45Z</time></trkpt><trkpt lat="44.37063279480087" lon="11.075130097309602"><ele>365.33333333333337</ele><time>2026-04-11T16:39:46Z</time></trkpt><trkpt lat="44.370643793045204" lon="11.075005746420315"><ele>364.0</ele><time>2026-04-11T16:39:47Z</time></trkpt><trkpt lat="44.37065564760665" lon="11.07490404685742"><ele>362.6666666666667</ele><time>2026-04-11T16:39:48Z</time></trkpt><trkpt lat="44.37067198288581" lon="11.074815797261124"><ele>361.3333333333333</ele><time>2026-04-11T16:39:49Z</time></trkpt><trkpt lat="44.37070231959904" lon="11.074647555476815"><ele>360.0</ele><time>2026-04-11T16:39:51Z</time></trkpt><trkpt lat="44.37075950369176" lon="11.074513811831299"><ele>358.5</ele><time>2026-04-11T16:39:53Z</time></trkpt><trkpt lat="44.37082726703116" lon="11.07445662220129"><ele>357.0</ele><time>2026-04-11T16:39:54Z</time></trkpt><trkpt lat="44.370915910341694" lon="11.07445894183399"><ele>355.5</ele><time>2026-04-11T16:39:55Z</time></trkpt><trkpt lat="44.37097794323286" lon="11.074423046030994"><ele>354.0</ele><time>2026-04-11T16:39:56Z</time></trkpt><trkpt lat="44.37105936515519" lon="11.074401512321314"><ele>352.5</ele><time>2026-04-11T16:39:58Z</time></trkpt><trkpt lat="44.371064792402755" lon="11.074224349773"><ele>351.0</ele><time>2026-04-11T16:40:00Z</time></trkpt><trkpt lat="44.371011463114854" lon="11.074170255767932"><ele>351.0</ele><time>2026-04-11T16:40:01Z</time></trkpt><trkpt lat="44.370925774954664" lon="11.07417195764347"><ele>351.0</ele><time>2026-04-11T16:40:02Z</time></trkpt><trkpt lat="44.37084219460511" lon="11.074175390866944"><ele>351.0</ele><time>2026-04-11T16:40:03Z</time></trkpt><trkpt lat="44.37076430322276" lon="11.074177880721233"><ele>351.0</ele><time>2026-04-11T16:40:04Z</time></trkpt><trkpt lat="44.370698925049346" lon="11.07420219434249"><ele>351.0</ele><time>2026-04-11T16:40:05Z</time></trkpt><trkpt lat="44.3706290445234" lon="11.074213889951919"><ele>351.0</ele><time>2026-04-11T16:40:06Z</time></trkpt><trkpt lat="44.37055493342124" lon="11.074217259976225"><ele>349.8333333333333</ele><time>2026-04-11T16:40:07Z</time></trkpt><trkpt lat="44.370493613609874" lon="11.074290475166764"><ele>348.6666666666667</ele><time>2026-04-11T16:40:08Z</time></trkpt><trkpt lat="44.370436717505314" lon="11.074353074914077"><ele>347.5</ele><time>2026-04-11T16:40:09Z</time></trkpt><trkpt lat="44.370384104198536" lon="11.074420081581218"><ele>346.33333333333337</ele><time>2026-04-11T16:40:10Z</time></trkpt><trkpt lat="44.370335966895766" lon="11.074496881190864"><ele>345.1666666666667</ele><time>2026-04-11T16:40:11Z</time></trkpt><trkpt lat="44.37025371674751" lon="11.074588114354391"><ele>344.0</ele><time>2026-04-11T16:40:13Z</time></trkpt><trkpt lat="44.37017311725571" lon="11.07454913388514"><ele>344.0</ele><time>2026-04-11T16:40:15Z</time></trkpt><trkpt lat="44.370173813503214" lon="11.074397301515221"><ele>344.0</ele><time>2026-04-11T16:40:17Z</time></trkpt><trkpt lat="44.370220985219056" lon="11.074324013312587"><ele>344.0</ele><time>2026-04-11T16:40:18Z</time></trkpt><trkpt lat="44.37027564036206" lon="11.074247436758432"><ele>344.0</ele><time>2026-04-11T16:40:19Z</time></trkpt><trkpt lat="44.37033376177086" lon="11.074172260335724"><ele>344.0</ele><time>2026-04-11T16:40:20Z</time></trkpt><trkpt lat="44.37038748278358" lon="11.074092059813994"><ele>344.0</ele><time>2026-04-11T16:40:21Z</time></trkpt><trkpt lat="44.37043786299264" lon="11.073998516681504"><ele>342.4</ele><time>2026-04-11T16:40:22Z</time></trkpt><trkpt lat="44.370498773552875" lon="11.073901023940328"><ele>340.79999999999995</ele><time>2026-04-11T16:40:23Z</time></trkpt><trkpt lat="44.37057648171056" lon="11.073813136626553"><ele>339.20000000000005</ele><time>2026-04-11T16:40:24Z</time></trkpt><trkpt lat="44.37065341245412" lon="11.073739012985033"><ele>337.6</ele><time>2026-04-11T16:40:25Z</time></trkpt><trkpt lat="44.37073795796092" lon="11.073673270322365"><ele>336.0</ele><time>2026-04-11T16:40:26Z</time></trkpt><trkpt lat="44.37081625323533" lon="11.073607934292172"><ele>335.6666666666667</ele><time>2026-04-11T16:40:26.999Z</time></trkpt><trkpt lat="44.37089481760418" lon="11.073543063068376"><ele>335.3333333333333</ele><time>2026-04-11T16:40:27.999Z</time></trkpt><trkpt lat="44.37096971884149" lon="11.073474634180734"><ele>335.0</ele><time>2026-04-11T16:40:28.999Z</time></trkpt><trkpt lat="44.37104027022906" lon="11.073420396450352"><ele>334.66666666666663</ele><time>2026-04-11T16:40:29.999Z</time></trkpt><trkpt lat="44.37110164734565" lon="11.073367086360248"><ele>334.3333333333333</ele><time>2026-04-11T16:40:30.999Z</time></trkpt><trkpt lat="44.37115433347803" lon="11.073308925006462"><ele>334.0</ele><time>2026-04-11T16:40:31.999Z</time></trkpt><trkpt lat="44.371199124832" lon="11.07324500170597"><ele>334.0</ele><time>2026-04-11T16:40:32.999Z</time></trkpt><trkpt lat="44.37127422960267" lon="11.073078226164025"><ele>334.0</ele><time>2026-04-11T16:40:34.999Z</time></trkpt><trkpt lat="44.37132564139684" lon="11.072986642559776"><ele>334.0</ele><time>2026-04-11T16:40:35.999Z</time></trkpt><trkpt lat="44.37138573477656" lon="11.072883283576624"><ele>334.0</ele><time>2026-04-11T16:40:36.999Z</time></trkpt><trkpt lat="44.37143570473859" lon="11.072769630418806"><ele>334.0</ele><time>2026-04-11T16:40:37.999Z</time></trkpt><trkpt lat="44.3714863778404" lon="11.072670142633816"><ele>332.6</ele><time>2026-04-11T16:40:38.999Z</time></trkpt><trkpt lat="44.37155034727224" lon="11.072548381622296"><ele>331.2</ele><time>2026-04-11T16:40:39.999Z</time></trkpt><trkpt lat="44.371615561656554" lon="11.072426414262523"><ele>329.8</ele><time>2026-04-11T16:40:40.999Z</time></trkpt><trkpt lat="44.37166415872051" lon="11.072279105665322"><ele>328.40000000000003</ele><time>2026-04-11T16:40:41.999Z</time></trkpt><trkpt lat="44.371709129137" lon="11.072130696932568"><ele>327.0</ele><time>2026-04-11T16:40:42.999Z</time></trkpt><trkpt lat="44.371751467485815" lon="11.07197642585499"><ele>327.25</ele><time>2026-04-11T16:40:43.999Z</time></trkpt><trkpt lat="44.37178958372025" lon="11.071817577728472"><ele>327.5</ele><time>2026-04-11T16:40:44.999Z</time></trkpt><trkpt lat="44.37182068545103" lon="11.071654348406641"><ele>327.75</ele><time>2026-04-11T16:40:45.999Z</time></trkpt><trkpt lat="44.371852540201644" lon="11.071499733175726"><ele>328.0</ele><time>2026-04-11T16:40:46.999Z</time></trkpt><trkpt lat="44.371884829716336" lon="11.071310038184757"><ele>328.0</ele><time>2026-04-11T16:40:47.999Z</time></trkpt><trkpt lat="44.371904886501575" lon="11.07111835984239"><ele>328.0</ele><time>2026-04-11T16:40:48.999Z</time></trkpt><trkpt lat="44.37192220000896" lon="11.070942936942062"><ele>328.0</ele><time>2026-04-11T16:40:49.999Z</time></trkpt><trkpt lat="44.371945602527326" lon="11.070780506641816"><ele>328.0</ele><time>2026-04-11T16:40:50.999Z</time></trkpt><trkpt lat="44.371964809916584" lon="11.070630213624003"><ele>327.59999999999997</ele><time>2026-04-11T16:40:51.999Z</time></trkpt><trkpt lat="44.37198111382692" lon="11.070485896920243"><ele>327.2</ele><time>2026-04-11T16:40:52.999Z</time></trkpt><trkpt lat="44.37199884816776" lon="11.070349277991848"><ele>326.8</ele><time>2026-04-11T16:40:53.999Z</time></trkpt><trkpt lat="44.37200949430736" lon="11.070217124903866"><ele>326.4</ele><time>2026-04-11T16:40:54.999Z</time></trkpt><trkpt lat="44.37201555953007" lon="11.070098062315164"><ele>326.0</ele><time>2026-04-11T16:40:55.999Z</time></trkpt><trkpt lat="44.372022100441825" lon="11.069981027465914"><ele>325.8</ele><time>2026-04-11T16:40:56.999Z</time></trkpt><trkpt lat="44.37203651505133" lon="11.069862916407036"><ele>325.6</ele><time>2026-04-11T16:40:57.999Z</time></trkpt><trkpt lat="44.372051346005556" lon="11.06975789471363"><ele>325.4</ele><time>2026-04-11T16:40:58.999Z</time></trkpt><trkpt lat="44.37206928126347" lon="11.069646641984953"><ele>325.2</ele><time>2026-04-11T16:40:59.999Z</time></trkpt><trkpt lat="44.372113389474904" lon="11.069469782026287"><ele>325.0</ele><time>2026-04-11T16:41:01.999Z</time></trkpt><trkpt lat="44.37214090568838" lon="11.069367949744395"><ele>325.0</ele><time>2026-04-11T16:41:02.999Z</time></trkpt><trkpt lat="44.372156452739155" lon="11.069269602278688"><ele>325.0</ele><time>2026-04-11T16:41:03.999Z</time></trkpt><trkpt lat="44.37218262864719" lon="11.069166653468782"><ele>325.0</ele><time>2026-04-11T16:41:04.999Z</time></trkpt><trkpt lat="44.37219914846883" lon="11.069073151940762"><ele>325.0</ele><time>2026-04-11T16:41:05.999Z</time></trkpt><trkpt lat="44.37222239850872" lon="11.068968228767284"><ele>325.0</ele><time>2026-04-11T16:41:06.999Z</time></trkpt><trkpt lat="44.372260207582364" lon="11.068869290846184"><ele>325.0</ele><time>2026-04-11T16:41:07.999Z</time></trkpt><trkpt lat="44.3722989411368" lon="11.068776349191989"><ele>323.3333333333333</ele><time>2026-04-11T16:41:08.999Z</time></trkpt><trkpt lat="44.372343409546566" lon="11.068676028371172"><ele>321.66666666666663</ele><time>2026-04-11T16:41:09.999Z</time></trkpt><trkpt lat="44.372382182463674" lon="11.068565585106025"><ele>320.0</ele><time>2026-04-11T16:41:10.999Z</time></trkpt><trkpt lat="44.37244170071037" lon="11.06848568538656"><ele>318.3333333333333</ele><time>2026-04-11T16:41:11.999Z</time></trkpt><trkpt lat="44.37248793377748" lon="11.068396923341288"><ele>316.6666666666667</ele><time>2026-04-11T16:41:12.999Z</time></trkpt><trkpt lat="44.37253658827608" lon="11.068304383384671"><ele>315.0</ele><time>2026-04-11T16:41:13.999Z</time></trkpt><trkpt lat="44.37257270139405" lon="11.068204505148863"><ele>314.0</ele><time>2026-04-11T16:41:14.999Z</time></trkpt><trkpt lat="44.37263105735876" lon="11.068130044583668"><ele>313.0</ele><time>2026-04-11T16:41:15.999Z</time></trkpt><trkpt lat="44.37268596978323" lon="11.068052523635524"><ele>312.0</ele><time>2026-04-11T16:41:16.999Z</time></trkpt><trkpt lat="44.3727439123916" lon="11.067961720264904"><ele>311.0</ele><time>2026-04-11T16:41:17.999Z</time></trkpt><trkpt lat="44.3728126910093" lon="11.067851649132274"><ele>310.0</ele><time>2026-04-11T16:41:18.999Z</time></trkpt><trkpt lat="44.37287989279597" lon="11.067736159697603"><ele>310.0</ele><time>2026-04-11T16:41:19.999Z</time></trkpt><trkpt lat="44.37294906628121" lon="11.067662308501397"><ele>310.0</ele><time>2026-04-11T16:41:20.999Z</time></trkpt><trkpt lat="44.37300708353858" lon="11.06759606573319"><ele>310.0</ele><time>2026-04-11T16:41:21.999Z</time></trkpt><trkpt lat="44.37307442521977" lon="11.067530377161795"><ele>310.0</ele><time>2026-04-11T16:41:22.999Z</time></trkpt><trkpt lat="44.373151289442546" lon="11.067464249847472"><ele>310.0</ele><time>2026-04-11T16:41:23.999Z</time></trkpt><trkpt lat="44.373233511078006" lon="11.067370921939892"><ele>310.0</ele><time>2026-04-11T16:41:24.999Z</time></trkpt><trkpt lat="44.37332824027037" lon="11.067312546161297"><ele>306.75</ele><time>2026-04-11T16:41:25.998Z</time></trkpt><trkpt lat="44.37341436568312" lon="11.067269839448652"><ele>303.5</ele><time>2026-04-11T16:41:26.998Z</time></trkpt><trkpt lat="44.373521138091796" lon="11.067252254192816"><ele>300.25</ele><time>2026-04-11T16:41:27.998Z</time></trkpt><trkpt lat="44.373647409553364" lon="11.06724790836572"><ele>297.0</ele><time>2026-04-11T16:41:28.998Z</time></trkpt><trkpt lat="44.373779438838355" lon="11.067242771172202"><ele>296.75</ele><time>2026-04-11T16:41:29.998Z</time></trkpt><trkpt lat="44.37389797687482" lon="11.067231715374318"><ele>296.5</ele><time>2026-04-11T16:41:30.998Z</time></trkpt><trkpt lat="44.37402805605347" lon="11.067206916277598"><ele>296.25</ele><time>2026-04-11T16:41:31.998Z</time></trkpt><trkpt lat="44.37415934016009" lon="11.06720044642302"><ele>296.0</ele><time>2026-04-11T16:41:32.998Z</time></trkpt><trkpt lat="44.37429905090366" lon="11.067203821465172"><ele>296.0</ele><time>2026-04-11T16:41:33.998Z</time></trkpt><trkpt lat="44.37444834891426" lon="11.067211733860743"><ele>296.0</ele><time>2026-04-11T16:41:34.998Z</time></trkpt><trkpt lat="44.37460086724931" lon="11.067221144618864"><ele>296.0</ele><time>2026-04-11T16:41:35.998Z</time></trkpt><trkpt lat="44.37474499397482" lon="11.067237692556802"><ele>296.0</ele><time>2026-04-11T16:41:36.998Z</time></trkpt><trkpt lat="44.37488258625622" lon="11.067262012730183"><ele>296.6</ele><time>2026-04-11T16:41:37.998Z</time></trkpt><trkpt lat="44.375000606485365" lon="11.067271202838484"><ele>297.20000000000005</ele><time>2026-04-11T16:41:38.998Z</time></trkpt><trkpt lat="44.375112548876686" lon="11.067276761300294"><ele>297.79999999999995</ele><time>2026-04-11T16:41:39.998Z</time></trkpt><trkpt lat="44.375192213185215" lon="11.067279780267103"><ele>298.4</ele><time>2026-04-11T16:41:40.998Z</time></trkpt><trkpt lat="44.37529070657134" lon="11.067296657167832"><ele>299.0</ele><time>2026-04-11T16:41:44Z</time></trkpt><trkpt lat="44.37535299697674" lon="11.067317060594199"><ele>299.0</ele><time>2026-04-11T16:41:45Z</time></trkpt><trkpt lat="44.375424005180854" lon="11.067366336955228"><ele>299.0</ele><time>2026-04-11T16:41:46Z</time></trkpt><trkpt lat="44.375489071377686" lon="11.067441156747195"><ele>299.0</ele><time>2026-04-11T16:41:47Z</time></trkpt><trkpt lat="44.375575682427076" lon="11.067512483033934"><ele>299.0</ele><time>2026-04-11T16:41:48Z</time></trkpt><trkpt lat="44.375684376522656" lon="11.067600914542727"><ele>299.0</ele><time>2026-04-11T16:41:49Z</time></trkpt><trkpt lat="44.375768982748035" lon="11.06767837765904"><ele>298.5</ele><time>2026-04-11T16:41:50Z</time></trkpt><trkpt lat="44.37584151733863" lon="11.067739975127532"><ele>298.0</ele><time>2026-04-11T16:41:51Z</time></trkpt><trkpt lat="44.375929943214146" lon="11.067819192207722"><ele>297.5</ele><time>2026-04-11T16:41:53Z</time></trkpt><trkpt lat="44.37607072308612" lon="11.067605822684373"><ele>297.0</ele><time>2026-04-11T16:41:56Z</time></trkpt><trkpt lat="44.37610582421401" lon="11.067490347948866"><ele>298.0</ele><time>2026-04-11T16:41:57Z</time></trkpt><trkpt lat="44.37615497021877" lon="11.067360682029388"><ele>299.0</ele><time>2026-04-11T16:41:58Z</time></trkpt><trkpt lat="44.376199726590166" lon="11.067214383586155"><ele>300.0</ele><time>2026-04-11T16:41:59Z</time></trkpt><trkpt lat="44.37626335264399" lon="11.067087377641498"><ele>301.0</ele><time>2026-04-11T16:42:00Z</time></trkpt><trkpt lat="44.376293291227185" lon="11.06696244239551"><ele>302.0</ele><time>2026-04-11T16:42:01Z</time></trkpt><trkpt lat="44.376336834368274" lon="11.066876734004687"><ele>302.6666666666667</ele><time>2026-04-11T16:42:02Z</time></trkpt><trkpt lat="44.37639255909038" lon="11.066799836578376"><ele>303.33333333333337</ele><time>2026-04-11T16:42:04Z</time></trkpt><trkpt lat="44.376456067326735" lon="11.066778188863363"><ele>304.0</ele><time>2026-04-11T16:42:05Z</time></trkpt><trkpt lat="44.376548292185596" lon="11.066802200574946"><ele>304.6666666666667</ele><time>2026-04-11T16:42:06Z</time></trkpt><trkpt lat="44.376642302662184" lon="11.066834591472961"><ele>305.3333333333333</ele><time>2026-04-11T16:42:07Z</time></trkpt><trkpt lat="44.376752643866205" lon="11.06687192376387"><ele>306.0</ele><time>2026-04-11T16:42:08Z</time></trkpt><trkpt lat="44.376860541816" lon="11.06692948232138"><ele>306.0</ele><time>2026-04-11T16:42:09Z</time></trkpt><trkpt lat="44.37697444399852" lon="11.066984392633527"><ele>306.0</ele><time>2026-04-11T16:42:10Z</time></trkpt><trkpt lat="44.37709655672944" lon="11.067032020077203"><ele>306.0</ele><time>2026-04-11T16:42:11Z</time></trkpt><trkpt lat="44.37720924169384" lon="11.06706642562367"><ele>306.0</ele><time>2026-04-11T16:42:12Z</time></trkpt><trkpt lat="44.37732289043668" lon="11.067108012789996"><ele>308.0</ele><time>2026-04-11T16:42:13Z</time></trkpt><trkpt lat="44.37741109070852" lon="11.067169213988405"><ele>310.0</ele><time>2026-04-11T16:42:14Z</time></trkpt><trkpt lat="44.37750107517254" lon="11.067275544801255"><ele>312.0</ele><time>2026-04-11T16:42:15Z</time></trkpt><trkpt lat="44.377609167716535" lon="11.06737407391015"><ele>314.0</ele><time>2026-04-11T16:42:16Z</time></trkpt><trkpt lat="44.377718766629584" lon="11.067482441592936"><ele>313.0</ele><time>2026-04-11T16:42:17Z</time></trkpt><trkpt lat="44.37783084366472" lon="11.067583335767653"><ele>312.0</ele><time>2026-04-11T16:42:18Z</time></trkpt><trkpt lat="44.37794265610722" lon="11.06767621327875"><ele>311.0</ele><time>2026-04-11T16:42:19Z</time></trkpt><trkpt lat="44.37804830782902" lon="11.067762390529255"><ele>310.0</ele><time>2026-04-11T16:42:20Z</time></trkpt><trkpt lat="44.378155670770646" lon="11.06783386904474"><ele>310.0</ele><time>2026-04-11T16:42:21Z</time></trkpt><trkpt lat="44.37827323788296" lon="11.067916649969252"><ele>310.0</ele><time>2026-04-11T16:42:22Z</time></trkpt><trkpt lat="44.37839942503223" lon="11.067996621967046"><ele>310.0</ele><time>2026-04-11T16:42:23Z</time></trkpt><trkpt lat="44.37853483296864" lon="11.068059426658097"><ele>310.0</ele><time>2026-04-11T16:42:24Z</time></trkpt><trkpt lat="44.37869927385478" lon="11.068134870199202"><ele>307.0</ele><time>2026-04-11T16:42:25Z</time></trkpt><trkpt lat="44.378869549021864" lon="11.06828234098887"><ele>304.0</ele><time>2026-04-11T16:42:26Z</time></trkpt><trkpt lat="44.37905852024973" lon="11.068358863817432"><ele>301.0</ele><time>2026-04-11T16:42:27Z</time></trkpt><trkpt lat="44.37921182488879" lon="11.068438267241884"><ele>301.0</ele><time>2026-04-11T16:42:28Z</time></trkpt><trkpt lat="44.37935514401512" lon="11.068514640085912"><ele>301.0</ele><time>2026-04-11T16:42:29Z</time></trkpt><trkpt lat="44.37947684230418" lon="11.068579568557636"><ele>301.0</ele><time>2026-04-11T16:42:29.999Z</time></trkpt><trkpt lat="44.37957679581866" lon="11.06862874894598"><ele>301.0</ele><time>2026-04-11T16:42:30.999Z</time></trkpt><trkpt lat="44.37964133404148" lon="11.06865982673102"><ele>300.25</ele><time>2026-04-11T16:42:31.999Z</time></trkpt><trkpt lat="44.379715010401135" lon="11.068669753770761"><ele>299.5</ele><time>2026-04-11T16:42:33.999Z</time></trkpt><trkpt lat="44.379819653760435" lon="11.068850249327165"><ele>298.75</ele><time>2026-04-11T16:42:35.999Z</time></trkpt><trkpt lat="44.3799088079121" lon="11.06897621955641"><ele>298.0</ele><time>2026-04-11T16:42:36.999Z</time></trkpt><trkpt lat="44.380016270882706" lon="11.069118935027259"><ele>295.75</ele><time>2026-04-11T16:42:37.999Z</time></trkpt><trkpt lat="44.38012104955247" lon="11.069265222373211"><ele>293.5</ele><time>2026-04-11T16:42:38.999Z</time></trkpt><trkpt lat="44.38022444826323" lon="11.06940566167508"><ele>291.25</ele><time>2026-04-11T16:42:39.999Z</time></trkpt><trkpt lat="44.38033686803026" lon="11.06955010353565"><ele>289.0</ele><time>2026-04-11T16:42:40.999Z</time></trkpt><trkpt lat="44.380431797807184" lon="11.06967945742877"><ele>289.0</ele><time>2026-04-11T16:42:41.999Z</time></trkpt><trkpt lat="44.38051519303494" lon="11.069793385839414"><ele>289.0</ele><time>2026-04-11T16:42:42.999Z</time></trkpt><trkpt lat="44.38058656842714" lon="11.069880822794596"><ele>289.0</ele><time>2026-04-11T16:42:43.999Z</time></trkpt><trkpt lat="44.38063787771429" lon="11.06993703751281"><ele>289.0</ele><time>2026-04-11T16:42:44.999Z</time></trkpt><trkpt lat="44.380728847035705" lon="11.069941125734845"><ele>289.0</ele><time>2026-04-11T16:42:47.999Z</time></trkpt><trkpt lat="44.38076273800493" lon="11.069815520910067"><ele>289.0</ele><time>2026-04-11T16:42:49.999Z</time></trkpt><trkpt lat="44.38076627211418" lon="11.069681782255701"><ele>289.0</ele><time>2026-04-11T16:42:51.999Z</time></trkpt><trkpt lat="44.38078104608994" lon="11.069482833390053"><ele>289.0</ele><time>2026-04-11T16:42:53.999Z</time></trkpt><trkpt lat="44.380790059899965" lon="11.06936654652955"><ele>289.0</ele><time>2026-04-11T16:42:54.999Z</time></trkpt><trkpt lat="44.38080711583922" lon="11.069279031493204"><ele>289.0</ele><time>2026-04-11T16:42:55.999Z</time></trkpt><trkpt lat="44.3808376719605" lon="11.069184762977875"><ele>289.8</ele><time>2026-04-11T16:42:56.999Z</time></trkpt><trkpt lat="44.380855772506365" lon="11.069068634080578"><ele>290.59999999999997</ele><time>2026-04-11T16:42:57.999Z</time></trkpt><trkpt lat="44.380937392470685" lon="11.068963138448074"><ele>291.4</ele><time>2026-04-11T16:42:59.999Z</time></trkpt><trkpt lat="44.381086854846515" lon="11.068909451622185"><ele>292.2</ele><time>2026-04-11T16:43:01.999Z</time></trkpt><trkpt lat="44.381165184331714" lon="11.068942091355208"><ele>293.0</ele><time>2026-04-11T16:43:02.999Z</time></trkpt><trkpt lat="44.38125782018568" lon="11.068977208721494"><ele>296.2</ele><time>2026-04-11T16:43:03.999Z</time></trkpt><trkpt lat="44.38136391273331" lon="11.068953233980158"><ele>299.4</ele><time>2026-04-11T16:43:04.999Z</time></trkpt><trkpt lat="44.381470794646" lon="11.068917056357032"><ele>302.59999999999997</ele><time>2026-04-11T16:43:05.999Z</time></trkpt><trkpt lat="44.381555547498905" lon="11.068905515567595"><ele>305.8</ele><time>2026-04-11T16:43:06.999Z</time></trkpt><trkpt lat="44.381618198265876" lon="11.068945410938293"><ele>309.0</ele><time>2026-04-11T16:43:07.999Z</time></trkpt><trkpt lat="44.38168516524737" lon="11.069004571439992"><ele>309.0</ele><time>2026-04-11T16:43:08.999Z</time></trkpt><trkpt lat="44.38177307182108" lon="11.06902510302657"><ele>309.0</ele><time>2026-04-11T16:43:09.999Z</time></trkpt><trkpt lat="44.38185703687332" lon="11.068983524075419"><ele>309.0</ele><time>2026-04-11T16:43:10.999Z</time></trkpt><trkpt lat="44.38193193033322" lon="11.068904032690906"><ele>309.0</ele><time>2026-04-11T16:43:11.999Z</time></trkpt><trkpt lat="44.38199884956054" lon="11.068807315888431"><ele>309.0</ele><time>2026-04-11T16:43:12.999Z</time></trkpt><trkpt lat="44.382054083543316" lon="11.068691306383478"><ele>309.0</ele><time>2026-04-11T16:43:13.999Z</time></trkpt><trkpt lat="44.38209298676938" lon="11.06856349792939"><ele>309.0</ele><time>2026-04-11T16:43:14.999Z</time></trkpt><trkpt lat="44.38212599932677" lon="11.068434858120362"><ele>309.0</ele><time>2026-04-11T16:43:15.999Z</time></trkpt><trkpt lat="44.38217855816473" lon="11.06835934807901"><ele>309.0</ele><time>2026-04-11T16:43:16.999Z</time></trkpt><trkpt lat="44.382243029998655" lon="11.068285995879057"><ele>309.0</ele><time>2026-04-11T16:43:17.999Z</time></trkpt><trkpt lat="44.38226275902547" lon="11.068169058780358"><ele>309.0</ele><time>2026-04-11T16:43:18.999Z</time></trkpt><trkpt lat="44.38225499327586" lon="11.068044634872718"><ele>309.6666666666667</ele><time>2026-04-11T16:43:19.999Z</time></trkpt><trkpt lat="44.38222026473331" lon="11.067929444790277"><ele>310.3333333333333</ele><time>2026-04-11T16:43:20.999Z</time></trkpt><trkpt lat="44.382182786368396" lon="11.067811547180266"><ele>311.0</ele><time>2026-04-11T16:43:21.999Z</time></trkpt><trkpt lat="44.382143115690155" lon="11.067711633389282"><ele>311.66666666666663</ele><time>2026-04-11T16:43:22.999Z</time></trkpt><trkpt lat="44.382132479621205" lon="11.067623425068389"><ele>312.3333333333333</ele><time>2026-04-11T16:43:24.999Z</time></trkpt><trkpt lat="44.3822335783805" lon="11.06762188987896"><ele>313.0</ele><time>2026-04-11T16:43:34.998Z</time></trkpt><trkpt lat="44.38225508689675" lon="11.067525244101683"><ele>313.0</ele><time>2026-04-11T16:44:11Z</time></trkpt><trkpt lat="44.3822373969332" lon="11.067624486565776"><ele>313.0</ele><time>2026-04-11T16:44:55.999Z</time></trkpt><trkpt lat="44.382173175885775" lon="11.06762360722326"><ele>313.0</ele><time>2026-04-11T16:44:57.999Z</time></trkpt><trkpt lat="44.38209261001228" lon="11.067636128148433"><ele>313.0</ele><time>2026-04-11T16:45:00.999Z</time></trkpt><trkpt lat="44.38216770007261" lon="11.067644230558882"><ele>313.0</ele><time>2026-04-11T16:45:04.999Z</time></trkpt><trkpt lat="44.3822290720644" lon="11.067561588756254"><ele>313.0</ele><time>2026-04-11T16:45:07.999Z</time></trkpt><trkpt lat="44.38228790433336" lon="11.067519418859236"><ele>313.0</ele><time>2026-04-11T16:45:11.999Z</time></trkpt><trkpt lat="44.38237832342824" lon="11.06750664416232"><ele>314.8333333333333</ele><time>2026-04-11T16:45:13.999Z</time></trkpt><trkpt lat="44.38245417182967" lon="11.067456573285725"><ele>316.66666666666663</ele><time>2026-04-11T16:45:15.999Z</time></trkpt><trkpt lat="44.38251247365365" lon="11.067363421959024"><ele>318.5</ele><time>2026-04-11T16:45:17.999Z</time></trkpt><trkpt lat="44.382560572371965" lon="11.067254250436804"><ele>320.3333333333333</ele><time>2026-04-11T16:45:19.999Z</time></trkpt><trkpt lat="44.382547695497706" lon="11.067149062107031"><ele>322.1666666666667</ele><time>2026-04-11T16:45:21.999Z</time></trkpt><trkpt lat="44.382543853038584" lon="11.067017686545006"><ele>324.0</ele><time>2026-04-11T16:45:23.999Z</time></trkpt><trkpt lat="44.382591694195625" lon="11.066936966285231"><ele>326.0</ele><time>2026-04-11T16:45:25.998Z</time></trkpt><trkpt lat="44.38267585654477" lon="11.06687450127305"><ele>328.0</ele><time>2026-04-11T16:45:27.998Z</time></trkpt><trkpt lat="44.38273034859822" lon="11.06679147774175"><ele>330.0</ele><time>2026-04-11T16:45:29.998Z</time></trkpt><trkpt lat="44.38267935605233" lon="11.066730731850837"><ele>332.0</ele><time>2026-04-11T16:45:31.998Z</time></trkpt><trkpt lat="44.38265664865371" lon="11.066623385638213"><ele>334.0</ele><time>2026-04-11T16:45:34.998Z</time></trkpt><trkpt lat="44.38263993858197" lon="11.066528832648775"><ele>336.0</ele><time>2026-04-11T16:45:36.998Z</time></trkpt><trkpt lat="44.382670670525584" lon="11.066436821130523"><ele>337.20000000000005</ele><time>2026-04-11T16:45:40.998Z</time></trkpt><trkpt lat="44.38273771212202" lon="11.066351299608128"><ele>338.40000000000003</ele><time>2026-04-11T16:45:44.998Z</time></trkpt><trkpt lat="44.38282089191286" lon="11.066296858488627"><ele>339.6</ele><time>2026-04-11T16:45:46.998Z</time></trkpt><trkpt lat="44.382887381777955" lon="11.066189126516862"><ele>340.8</ele><time>2026-04-11T16:45:48.998Z</time></trkpt><trkpt lat="44.382938403439766" lon="11.066068520173403"><ele>342.0</ele><time>2026-04-11T16:45:50.998Z</time></trkpt><trkpt lat="44.38301553885882" lon="11.065921094381936"><ele>345.6</ele><time>2026-04-11T16:45:52.998Z</time></trkpt><trkpt lat="44.38311118679489" lon="11.065823919326292"><ele>349.20000000000005</ele><time>2026-04-11T16:45:55Z</time></trkpt><trkpt lat="44.38321499528949" lon="11.065781283771212"><ele>352.8</ele><time>2026-04-11T16:45:57Z</time></trkpt><trkpt lat="44.38330606830695" lon="11.065723780100686"><ele>356.4</ele><time>2026-04-11T16:45:59Z</time></trkpt><trkpt lat="44.383372362092466" lon="11.065684134058898"><ele>360.0</ele><time>2026-04-11T16:46:00Z</time></trkpt><trkpt lat="44.38343505762099" lon="11.065653041604579"><ele>360.0</ele><time>2026-04-11T16:46:01Z</time></trkpt><trkpt lat="44.383528974866834" lon="11.06565520160467"><ele>360.0</ele><time>2026-04-11T16:46:03Z</time></trkpt><trkpt lat="44.383592477055565" lon="11.065582679724109"><ele>360.0</ele><time>2026-04-11T16:46:06Z</time></trkpt><trkpt lat="44.38367538444765" lon="11.065528383774462"><ele>360.0</ele><time>2026-04-11T16:46:09Z</time></trkpt><trkpt lat="44.383750481641016" lon="11.065488334406739"><ele>360.0</ele><time>2026-04-11T16:46:11Z</time></trkpt><trkpt lat="44.38380524899511" lon="11.0654434494106"><ele>360.0</ele><time>2026-04-11T16:46:13Z</time></trkpt><trkpt lat="44.38386830686031" lon="11.065354697534465"><ele>363.6</ele><time>2026-04-11T16:46:15Z</time></trkpt><trkpt lat="44.38393788518754" lon="11.065248895513456"><ele>367.2</ele><time>2026-04-11T16:46:17Z</time></trkpt><trkpt lat="44.384047484436636" lon="11.065182077806822"><ele>370.79999999999995</ele><time>2026-04-11T16:46:19Z</time></trkpt><trkpt lat="44.38410721572441" lon="11.065081094109544"><ele>374.4</ele><time>2026-04-11T16:46:21Z</time></trkpt><trkpt lat="44.38408804966899" lon="11.064972668679719"><ele>378.0</ele><time>2026-04-11T16:46:23Z</time></trkpt><trkpt lat="44.38410069418629" lon="11.064850827519805"><ele>380.1666666666667</ele><time>2026-04-11T16:46:29Z</time></trkpt><trkpt lat="44.38415272357279" lon="11.064729695208936"><ele>382.33333333333337</ele><time>2026-04-11T16:46:31Z</time></trkpt><trkpt lat="44.38421632508047" lon="11.064630770862536"><ele>384.5</ele><time>2026-04-11T16:46:33Z</time></trkpt><trkpt lat="44.384281291328804" lon="11.06462539323913"><ele>386.6666666666667</ele><time>2026-04-11T16:46:41.999Z</time></trkpt><trkpt lat="44.38432492307313" lon="11.064545708555446"><ele>388.83333333333337</ele><time>2026-04-11T16:46:43.999Z</time></trkpt><trkpt lat="44.38436886110452" lon="11.064417219651986"><ele>391.0</ele><time>2026-04-11T16:46:45.999Z</time></trkpt><trkpt lat="44.38440279015775" lon="11.064318406767633"><ele>391.0</ele><time>2026-04-11T16:46:47.999Z</time></trkpt><trkpt lat="44.3844551385629" lon="11.064217099186031"><ele>391.0</ele><time>2026-04-11T16:46:50.999Z</time></trkpt><trkpt lat="44.384501942821906" lon="11.064152305389788"><ele>391.0</ele><time>2026-04-11T16:46:51.999Z</time></trkpt><trkpt lat="44.3845772344124" lon="11.06407467362339"><ele>391.0</ele><time>2026-04-11T16:46:53.999Z</time></trkpt><trkpt lat="44.38468679433529" lon="11.06412066156837"><ele>391.0</ele><time>2026-04-11T16:46:55.999Z</time></trkpt><trkpt lat="44.384803867240535" lon="11.064153373542679"><ele>392.0</ele><time>2026-04-11T16:46:57.999Z</time></trkpt><trkpt lat="44.384944856071385" lon="11.064146003193239"><ele>393.0</ele><time>2026-04-11T16:46:59.999Z</time></trkpt><trkpt lat="44.38502269535498" lon="11.064141981429215"><ele>394.0</ele><time>2026-04-11T16:47:00.999Z</time></trkpt><trkpt lat="44.385090609298736" lon="11.064123931548636"><ele>395.0</ele><time>2026-04-11T16:47:01.999Z</time></trkpt><trkpt lat="44.38519437902301" lon="11.06408353839669"><ele>396.0</ele><time>2026-04-11T16:47:03.999Z</time></trkpt><trkpt lat="44.385268180131554" lon="11.064001387809881"><ele>396.3333333333333</ele><time>2026-04-11T16:47:04.999Z</time></trkpt><trkpt lat="44.385338975212136" lon="11.063950604133066"><ele>396.66666666666663</ele><time>2026-04-11T16:47:05.999Z</time></trkpt><trkpt lat="44.385407352405416" lon="11.063899598916576"><ele>397.0</ele><time>2026-04-11T16:47:06.999Z</time></trkpt><trkpt lat="44.38548654579229" lon="11.063842360433588"><ele>397.3333333333333</ele><time>2026-04-11T16:47:07.999Z</time></trkpt><trkpt lat="44.385569299097945" lon="11.063807026962293"><ele>397.66666666666663</ele><time>2026-04-11T16:47:08.999Z</time></trkpt><trkpt lat="44.385640667239116" lon="11.063757266294022"><ele>398.0</ele><time>2026-04-11T16:47:09.999Z</time></trkpt><trkpt lat="44.38573004999789" lon="11.063699381726401"><ele>398.0</ele><time>2026-04-11T16:47:10.999Z</time></trkpt><trkpt lat="44.38583746364591" lon="11.063674746137941"><ele>398.0</ele><time>2026-04-11T16:47:11.999Z</time></trkpt><trkpt lat="44.385941087767705" lon="11.063665541306975"><ele>398.0</ele><time>2026-04-11T16:47:12.999Z</time></trkpt><trkpt lat="44.38602552058057" lon="11.063654151499355"><ele>398.0</ele><time>2026-04-11T16:47:13.999Z</time></trkpt><trkpt lat="44.38610754813125" lon="11.063620810732063"><ele>398.0</ele><time>2026-04-11T16:47:14.999Z</time></trkpt><trkpt lat="44.3861716947988" lon="11.063566307453584"><ele>397.99999999999994</ele><time>2026-04-11T16:47:15.999Z</time></trkpt><trkpt lat="44.38624519542168" lon="11.063517660920905"><ele>398.0</ele><time>2026-04-11T16:47:16.999Z</time></trkpt><trkpt lat="44.38632884269802" lon="11.063479973332774"><ele>398.0</ele><time>2026-04-11T16:47:17.999Z</time></trkpt><trkpt lat="44.386408183369575" lon="11.063486055844805"><ele>398.0</ele><time>2026-04-11T16:47:18.999Z</time></trkpt><trkpt lat="44.386499119931365" lon="11.063505654198744"><ele>397.99999999999994</ele><time>2026-04-11T16:47:19.999Z</time></trkpt><trkpt lat="44.38657599227507" lon="11.06354765464393"><ele>398.0</ele><time>2026-04-11T16:47:20.999Z</time></trkpt><trkpt lat="44.38670405266585" lon="11.063628861918632"><ele>399.5</ele><time>2026-04-11T16:47:22.999Z</time></trkpt><trkpt lat="44.386872800762916" lon="11.06366715199189"><ele>401.0</ele><time>2026-04-11T16:47:24.999Z</time></trkpt><trkpt lat="44.38696423149334" lon="11.063689161627401"><ele>402.5</ele><time>2026-04-11T16:47:25.999Z</time></trkpt><trkpt lat="44.38707726075441" lon="11.063760253676437"><ele>404.0</ele><time>2026-04-11T16:47:26.999Z</time></trkpt><trkpt lat="44.38719149498798" lon="11.063849920531219"><ele>404.4</ele><time>2026-04-11T16:47:27.999Z</time></trkpt><trkpt lat="44.3873117581675" lon="11.06392731986408"><ele>404.79999999999995</ele><time>2026-04-11T16:47:28.999Z</time></trkpt><trkpt lat="44.38742127630446" lon="11.063982673569981"><ele>405.20000000000005</ele><time>2026-04-11T16:47:29.999Z</time></trkpt><trkpt lat="44.387488792349004" lon="11.063996198867667"><ele>405.6</ele><time>2026-04-11T16:47:30.999Z</time></trkpt><trkpt lat="44.387575068352824" lon="11.06403461095756"><ele>406.0</ele><time>2026-04-11T16:47:31.999Z</time></trkpt><trkpt lat="44.38766277105522" lon="11.064093234305952"><ele>406.0</ele><time>2026-04-11T16:47:32.999Z</time></trkpt><trkpt lat="44.387769778404326" lon="11.064134779279433"><ele>406.0</ele><time>2026-04-11T16:47:33.998Z</time></trkpt><trkpt lat="44.387833097174905" lon="11.064151208572275"><ele>406.0</ele><time>2026-04-11T16:47:34.998Z</time></trkpt><trkpt lat="44.38791035796669" lon="11.064120725936334"><ele>406.0</ele><time>2026-04-11T16:47:37.998Z</time></trkpt><trkpt lat="44.38798108437842" lon="11.064058558773269"><ele>406.0</ele><time>2026-04-11T16:47:41.998Z</time></trkpt><trkpt lat="44.38807442716809" lon="11.063961088052872"><ele>404.50000000000006</ele><time>2026-04-11T16:47:43.998Z</time></trkpt><trkpt lat="44.38812028234063" lon="11.06389664804745"><ele>403.0</ele><time>2026-04-11T16:47:44.998Z</time></trkpt><trkpt lat="44.388213711590915" lon="11.06380393944602"><ele>401.5</ele><time>2026-04-11T16:47:46.998Z</time></trkpt><trkpt lat="44.388285526974016" lon="11.063789347701672"><ele>400.0</ele><time>2026-04-11T16:47:47.998Z</time></trkpt><trkpt lat="44.38835084509148" lon="11.063787931672321"><ele>398.50000000000006</ele><time>2026-04-11T16:47:48.998Z</time></trkpt><trkpt lat="44.38841515512991" lon="11.06369010787073"><ele>397.0</ele><time>2026-04-11T16:47:50.998Z</time></trkpt><trkpt lat="44.38843494466311" lon="11.0635980096986"><ele>397.0</ele><time>2026-04-11T16:47:52.998Z</time></trkpt><trkpt lat="44.38845142195831" lon="11.063505556616155"><ele>397.0</ele><time>2026-04-11T16:47:53.998Z</time></trkpt><trkpt lat="44.38847958198034" lon="11.063386238563947"><ele>397.0</ele><time>2026-04-11T16:47:54.998Z</time></trkpt><trkpt lat="44.38852805564161" lon="11.063274859572033"><ele>397.0</ele><time>2026-04-11T16:47:55.998Z</time></trkpt><trkpt lat="44.38860719136053" lon="11.063173488791612"><ele>397.0</ele><time>2026-04-11T16:47:56.998Z</time></trkpt><trkpt lat="44.388696623770734" lon="11.063071335806136"><ele>396.75</ele><time>2026-04-11T16:47:57.998Z</time></trkpt><trkpt lat="44.38877357099475" lon="11.062936973744918"><ele>396.5</ele><time>2026-04-11T16:47:58.998Z</time></trkpt><trkpt lat="44.3888641698171" lon="11.062819815576178"><ele>396.25</ele><time>2026-04-11T16:47:59.998Z</time></trkpt><trkpt lat="44.388955053272866" lon="11.062748939854524"><ele>396.0</ele><time>2026-04-11T16:48:01Z</time></trkpt><trkpt lat="44.38903847967074" lon="11.062650862375525"><ele>396.0</ele><time>2026-04-11T16:48:02Z</time></trkpt><trkpt lat="44.38913889361163" lon="11.062554297792625"><ele>396.0</ele><time>2026-04-11T16:48:03Z</time></trkpt><trkpt lat="44.389242770315036" lon="11.062449573500489"><ele>396.0</ele><time>2026-04-11T16:48:04Z</time></trkpt><trkpt lat="44.389343674405374" lon="11.062330579694587"><ele>396.0</ele><time>2026-04-11T16:48:05Z</time></trkpt><trkpt lat="44.38944640152521" lon="11.062195340542946"><ele>395.75</ele><time>2026-04-11T16:48:06Z</time></trkpt><trkpt lat="44.389550442628725" lon="11.062071484482823"><ele>395.5</ele><time>2026-04-11T16:48:07Z</time></trkpt><trkpt lat="44.38963850022829" lon="11.061966383536053"><ele>395.25</ele><time>2026-04-11T16:48:08Z</time></trkpt><trkpt lat="44.389734347348266" lon="11.061883940862595"><ele>395.0</ele><time>2026-04-11T16:48:09Z</time></trkpt><trkpt lat="44.389831238060594" lon="11.06183331440708"><ele>395.0</ele><time>2026-04-11T16:48:10Z</time></trkpt><trkpt lat="44.38992956482097" lon="11.061760143819171"><ele>395.0</ele><time>2026-04-11T16:48:11Z</time></trkpt><trkpt lat="44.38999872688139" lon="11.061635150324664"><ele>395.0</ele><time>2026-04-11T16:48:12Z</time></trkpt><trkpt lat="44.39004427538208" lon="11.061498252821451"><ele>395.0</ele><time>2026-04-11T16:48:13Z</time></trkpt><trkpt lat="44.39007154366145" lon="11.061344786888162"><ele>395.0</ele><time>2026-04-11T16:48:14Z</time></trkpt><trkpt lat="44.390103119002156" lon="11.061164890633988"><ele>395.75</ele><time>2026-04-11T16:48:15Z</time></trkpt><trkpt lat="44.390137682176956" lon="11.060988002669568"><ele>396.5</ele><time>2026-04-11T16:48:16Z</time></trkpt><trkpt lat="44.390175004616665" lon="11.060838686333415"><ele>397.25</ele><time>2026-04-11T16:48:17Z</time></trkpt><trkpt lat="44.39021604732676" lon="11.060693648468044"><ele>398.0</ele><time>2026-04-11T16:48:18Z</time></trkpt><trkpt lat="44.39025518049384" lon="11.060545294356288"><ele>398.0</ele><time>2026-04-11T16:48:19Z</time></trkpt><trkpt lat="44.39028378094716" lon="11.06035295295478"><ele>398.0</ele><time>2026-04-11T16:48:20Z</time></trkpt><trkpt lat="44.39032899642094" lon="11.060177507162766"><ele>398.0</ele><time>2026-04-11T16:48:21Z</time></trkpt><trkpt lat="44.39036737769482" lon="11.060007572990433"><ele>398.0</ele><time>2026-04-11T16:48:22Z</time></trkpt><trkpt lat="44.39039888150457" lon="11.059853766549892"><ele>398.4</ele><time>2026-04-11T16:48:23Z</time></trkpt><trkpt lat="44.390418617087946" lon="11.059711642293626"><ele>398.79999999999995</ele><time>2026-04-11T16:48:24Z</time></trkpt><trkpt lat="44.39044574399839" lon="11.059587252365024"><ele>399.2</ele><time>2026-04-11T16:48:25Z</time></trkpt><trkpt lat="44.39047792528644" lon="11.05945199619656"><ele>399.6</ele><time>2026-04-11T16:48:26Z</time></trkpt><trkpt lat="44.39052926605463" lon="11.059299354706079"><ele>400.0</ele><time>2026-04-11T16:48:27Z</time></trkpt><trkpt lat="44.39058372589064" lon="11.059138735353054"><ele>398.25</ele><time>2026-04-11T16:48:28Z</time></trkpt><trkpt lat="44.39063479315044" lon="11.05898730801013"><ele>396.5</ele><time>2026-04-11T16:48:29Z</time></trkpt><trkpt lat="44.39068808742981" lon="11.05880729725718"><ele>394.75</ele><time>2026-04-11T16:48:30Z</time></trkpt><trkpt lat="44.390748962013326" lon="11.058615228028593"><ele>393.0</ele><time>2026-04-11T16:48:31Z</time></trkpt><trkpt lat="44.39082245840395" lon="11.058411634566045"><ele>394.25</ele><time>2026-04-11T16:48:32Z</time></trkpt><trkpt lat="44.39087931364579" lon="11.05825011101149"><ele>395.5</ele><time>2026-04-11T16:48:33Z</time></trkpt><trkpt lat="44.39093474565472" lon="11.058095584359325"><ele>396.75</ele><time>2026-04-11T16:48:34Z</time></trkpt><trkpt lat="44.39098375779142" lon="11.057948754202796"><ele>398.0</ele><time>2026-04-11T16:48:35Z</time></trkpt><trkpt lat="44.39101400849561" lon="11.057823456948347"><ele>397.99999999999994</ele><time>2026-04-11T16:48:36Z</time></trkpt><trkpt lat="44.39108367544367" lon="11.057831014594951"><ele>398.0</ele><time>2026-04-11T16:48:47.999Z</time></trkpt><trkpt lat="44.39115863358261" lon="11.057897642106512"><ele>398.0</ele><time>2026-04-11T16:48:49.999Z</time></trkpt><trkpt lat="44.3912948954143" lon="11.057899243713008"><ele>398.0</ele><time>2026-04-11T16:48:52.999Z</time></trkpt><trkpt lat="44.391356517501436" lon="11.057944788979222"><ele>397.99999999999994</ele><time>2026-04-11T16:48:54.999Z</time></trkpt><trkpt lat="44.391432724095104" lon="11.057924524275629"><ele>398.0</ele><time>2026-04-11T16:48:58.999Z</time></trkpt><trkpt lat="44.391525677806705" lon="11.057921129343566"><ele>397.99999999999994</ele><time>2026-04-11T16:49:00.999Z</time></trkpt><trkpt lat="44.39160408240997" lon="11.057971585161203"><ele>398.0</ele><time>2026-04-11T16:49:02.999Z</time></trkpt><trkpt lat="44.39166528515082" lon="11.058057550758607"><ele>398.0</ele><time>2026-04-11T16:49:11.999Z</time></trkpt><trkpt lat="44.391595948325126" lon="11.058110203957717"><ele>398.0</ele><time>2026-04-11T16:49:15.999Z</time></trkpt><trkpt lat="44.3914984745085" lon="11.058060434242512"><ele>397.99999999999994</ele><time>2026-04-11T16:49:17.999Z</time></trkpt><trkpt lat="44.39142706859713" lon="11.057987886199278"><ele>398.0</ele><time>2026-04-11T16:49:19.999Z</time></trkpt><trkpt lat="44.39132302822603" lon="11.057910185422074"><ele>398.0</ele><time>2026-04-11T16:49:21.999Z</time></trkpt><trkpt lat="44.39119533772459" lon="11.057860828876757"><ele>398.0</ele><time>2026-04-11T16:49:23.999Z</time></trkpt><trkpt lat="44.39111039512272" lon="11.057861669168869"><ele>398.0</ele><time>2026-04-11T16:49:24.999Z</time></trkpt><trkpt lat="44.39103913868593" lon="11.057855451748534"><ele>398.0</ele><time>2026-04-11T16:49:25.999Z</time></trkpt><trkpt lat="44.39100379385322" lon="11.05776335970373"><ele>398.0</ele><time>2026-04-11T16:49:28.999Z</time></trkpt><trkpt lat="44.39101585318001" lon="11.05757626020471"><ele>398.0</ele><time>2026-04-11T16:49:30.999Z</time></trkpt><trkpt lat="44.39100225694481" lon="11.057486779510091"><ele>398.0</ele><time>2026-04-11T16:49:31.999Z</time></trkpt><trkpt lat="44.391001477975124" lon="11.05734005829618"><ele>398.0</ele><time>2026-04-11T16:49:33.999Z</time></trkpt><trkpt lat="44.3910830485066" lon="11.057191144374611"><ele>398.0</ele><time>2026-04-11T16:49:35.998Z</time></trkpt><trkpt lat="44.39114415304696" lon="11.057104826018946"><ele>398.0</ele><time>2026-04-11T16:49:36.998Z</time></trkpt><trkpt lat="44.39121578242716" lon="11.057020164897233"><ele>399.75</ele><time>2026-04-11T16:49:37.998Z</time></trkpt><trkpt lat="44.39129900840717" lon="11.05693643821738"><ele>401.5</ele><time>2026-04-11T16:49:38.998Z</time></trkpt><trkpt lat="44.39140799451283" lon="11.056839391447758"><ele>403.25</ele><time>2026-04-11T16:49:39.998Z</time></trkpt><trkpt lat="44.39151294836786" lon="11.05675986672221"><ele>405.0</ele><time>2026-04-11T16:49:40.998Z</time></trkpt><trkpt lat="44.39161533507615" lon="11.056646640408976"><ele>403.0</ele><time>2026-04-11T16:49:41.998Z</time></trkpt><trkpt lat="44.39170569448953" lon="11.05652108546728"><ele>401.0</ele><time>2026-04-11T16:49:42.998Z</time></trkpt><trkpt lat="44.391784052491445" lon="11.056367507930737"><ele>399.0</ele><time>2026-04-11T16:49:43.998Z</time></trkpt><trkpt lat="44.39185410534642" lon="11.056248100193207"><ele>397.0</ele><time>2026-04-11T16:49:44.998Z</time></trkpt><trkpt lat="44.391924016090805" lon="11.056135505319851"><ele>397.00000000000006</ele><time>2026-04-11T16:49:45.998Z</time></trkpt><trkpt lat="44.39199239783906" lon="11.056039708731968"><ele>397.0</ele><time>2026-04-11T16:49:46.998Z</time></trkpt><trkpt lat="44.39204153066544" lon="11.05594596237073"><ele>397.0</ele><time>2026-04-11T16:49:47.998Z</time></trkpt><trkpt lat="44.39208759758557" lon="11.055863501081964"><ele>397.0</ele><time>2026-04-11T16:49:48.998Z</time></trkpt><trkpt lat="44.39215824094882" lon="11.055797403608057"><ele>397.00000000000006</ele><time>2026-04-11T16:49:49.998Z</time></trkpt><trkpt lat="44.392246091920285" lon="11.055725056950417"><ele>397.0</ele><time>2026-04-11T16:49:50.998Z</time></trkpt><trkpt lat="44.392338787411134" lon="11.055608623912674"><ele>396.0</ele><time>2026-04-11T16:49:51.998Z</time></trkpt><trkpt lat="44.392427400162966" lon="11.055499094110495"><ele>395.0</ele><time>2026-04-11T16:49:52.998Z</time></trkpt><trkpt lat="44.39252556613698" lon="11.05541159880173"><ele>394.0</ele><time>2026-04-11T16:49:53.998Z</time></trkpt><trkpt lat="44.39261243249713" lon="11.055284211421275"><ele>393.0</ele><time>2026-04-11T16:49:54.998Z</time></trkpt><trkpt lat="44.39270149692208" lon="11.055153665489868"><ele>393.0</ele><time>2026-04-11T16:49:55.998Z</time></trkpt><trkpt lat="44.39276342452418" lon="11.055043656683408"><ele>393.0</ele><time>2026-04-11T16:49:56.998Z</time></trkpt><trkpt lat="44.39284295650525" lon="11.05496965767015"><ele>393.0</ele><time>2026-04-11T16:49:57.998Z</time></trkpt><trkpt lat="44.39291066347826" lon="11.0548903494313"><ele>393.0</ele><time>2026-04-11T16:49:58.998Z</time></trkpt><trkpt lat="44.392978834140514" lon="11.054851008745255"><ele>393.0</ele><time>2026-04-11T16:49:59.998Z</time></trkpt><trkpt lat="44.39306072865881" lon="11.054785882864456"><ele>393.59999999999997</ele><time>2026-04-11T16:50:01.998Z</time></trkpt><trkpt lat="44.39312814472497" lon="11.054782911104077"><ele>394.2</ele><time>2026-04-11T16:50:02.998Z</time></trkpt><trkpt lat="44.39321795578074" lon="11.054908304750695"><ele>394.8</ele><time>2026-04-11T16:50:04.998Z</time></trkpt><trkpt lat="44.393252622707735" lon="11.055011424286784"><ele>395.4</ele><time>2026-04-11T16:50:05.998Z</time></trkpt><trkpt lat="44.39329189157729" lon="11.055113004761807"><ele>396.0</ele><time>2026-04-11T16:50:07Z</time></trkpt><trkpt lat="44.393355059093935" lon="11.055228168708336"><ele>394.20000000000005</ele><time>2026-04-11T16:50:08Z</time></trkpt><trkpt lat="44.393417591763544" lon="11.055296765933381"><ele>392.40000000000003</ele><time>2026-04-11T16:50:09Z</time></trkpt><trkpt lat="44.393499770669486" lon="11.055330005360748"><ele>390.6</ele><time>2026-04-11T16:50:10Z</time></trkpt><trkpt lat="44.39359514430175" lon="11.055335542572001"><ele>388.8</ele><time>2026-04-11T16:50:11Z</time></trkpt><trkpt lat="44.39370752453642" lon="11.055306744231965"><ele>387.0</ele><time>2026-04-11T16:50:12Z</time></trkpt><trkpt lat="44.39382997939821" lon="11.055242088551108"><ele>386.40000000000003</ele><time>2026-04-11T16:50:13Z</time></trkpt><trkpt lat="44.393946005791" lon="11.055159604203078"><ele>385.8</ele><time>2026-04-11T16:50:14Z</time></trkpt><trkpt lat="44.3940491045568" lon="11.055094580104917"><ele>385.2</ele><time>2026-04-11T16:50:15Z</time></trkpt><trkpt lat="44.394138534700716" lon="11.0550419377523"><ele>384.6</ele><time>2026-04-11T16:50:16Z</time></trkpt><trkpt lat="44.3942131118345" lon="11.055001185786177"><ele>384.0</ele><time>2026-04-11T16:50:17Z</time></trkpt><trkpt lat="44.39428704669579" lon="11.054982551011737"><ele>384.0</ele><time>2026-04-11T16:50:18Z</time></trkpt><trkpt lat="44.394399431433065" lon="11.054969808172505"><ele>384.0</ele><time>2026-04-11T16:50:19Z</time></trkpt><trkpt lat="44.39451558929852" lon="11.054971372708094"><ele>384.0</ele><time>2026-04-11T16:50:20Z</time></trkpt><trkpt lat="44.39462997646609" lon="11.05498377203366"><ele>384.0</ele><time>2026-04-11T16:50:21Z</time></trkpt><trkpt lat="44.39472682256806" lon="11.05502273366839"><ele>384.0</ele><time>2026-04-11T16:50:22Z</time></trkpt><trkpt lat="44.39481142001754" lon="11.055115122563226"><ele>385.79999999999995</ele><time>2026-04-11T16:50:23Z</time></trkpt><trkpt lat="44.3948878318395" lon="11.055240361145605"><ele>387.59999999999997</ele><time>2026-04-11T16:50:24Z</time></trkpt><trkpt lat="44.39497726438743" lon="11.055345190111165"><ele>389.4</ele><time>2026-04-11T16:50:25Z</time></trkpt><trkpt lat="44.39508190945539" lon="11.05538624868514"><ele>391.2</ele><time>2026-04-11T16:50:26Z</time></trkpt><trkpt lat="44.395186696713544" lon="11.055388831301586"><ele>393.0</ele><time>2026-04-11T16:50:27Z</time></trkpt><trkpt lat="44.39529892013357" lon="11.05534827544618"><ele>393.0</ele><time>2026-04-11T16:50:28Z</time></trkpt><trkpt lat="44.395407835262056" lon="11.055296601216227"><ele>393.0</ele><time>2026-04-11T16:50:29Z</time></trkpt><trkpt lat="44.39549473090799" lon="11.05526452231911"><ele>393.0</ele><time>2026-04-11T16:50:30Z</time></trkpt><trkpt lat="44.39559311724952" lon="11.055324143594005"><ele>393.0</ele><time>2026-04-11T16:50:32Z</time></trkpt><trkpt lat="44.39559697017099" lon="11.055497148105276"><ele>393.0</ele><time>2026-04-11T16:50:34Z</time></trkpt><trkpt lat="44.395600918879516" lon="11.05562127383452"><ele>396.2</ele><time>2026-04-11T16:50:36Z</time></trkpt><trkpt lat="44.3956163142362" lon="11.055778316725394"><ele>399.4</ele><time>2026-04-11T16:50:38Z</time></trkpt><trkpt lat="44.39565658933602" lon="11.05592248339403"><ele>402.59999999999997</ele><time>2026-04-11T16:50:40Z</time></trkpt><trkpt lat="44.39570182566225" lon="11.056004337124742"><ele>405.79999999999995</ele><time>2026-04-11T16:50:41Z</time></trkpt><trkpt lat="44.39578179560628" lon="11.056053469227628"><ele>409.0</ele><time>2026-04-11T16:50:42Z</time></trkpt><trkpt lat="44.39586887286657" lon="11.056024469934632"><ele>409.0</ele><time>2026-04-11T16:50:43Z</time></trkpt><trkpt lat="44.39595647131257" lon="11.055946449108399"><ele>409.0</ele><time>2026-04-11T16:50:44Z</time></trkpt><trkpt lat="44.39603100398233" lon="11.055837996975368"><ele>409.0</ele><time>2026-04-11T16:50:45Z</time></trkpt><trkpt lat="44.39609050208811" lon="11.055721337970079"><ele>409.0</ele><time>2026-04-11T16:50:46Z</time></trkpt><trkpt lat="44.39615555697438" lon="11.055618234883076"><ele>409.0</ele><time>2026-04-11T16:50:47Z</time></trkpt><trkpt lat="44.39624982425963" lon="11.05552673247567"><ele>412.6</ele><time>2026-04-11T16:50:48Z</time></trkpt><trkpt lat="44.396358331464995" lon="11.055454695300453"><ele>416.2</ele><time>2026-04-11T16:50:48.999Z</time></trkpt><trkpt lat="44.39646689341195" lon="11.055408634308936"><ele>419.80000000000007</ele><time>2026-04-11T16:50:49.999Z</time></trkpt><trkpt lat="44.39654675070587" lon="11.05534970947624"><ele>423.40000000000003</ele><time>2026-04-11T16:50:50.999Z</time></trkpt><trkpt lat="44.396606543596526" lon="11.055241163945258"><ele>427.0</ele><time>2026-04-11T16:50:51.999Z</time></trkpt><trkpt lat="44.39664984770143" lon="11.055104685430242"><ele>427.0</ele><time>2026-04-11T16:50:52.999Z</time></trkpt><trkpt lat="44.39671287417583" lon="11.054991938254137"><ele>427.00000000000006</ele><time>2026-04-11T16:50:53.999Z</time></trkpt><trkpt lat="44.39679352852172" lon="11.054900571189371"><ele>427.00000000000006</ele><time>2026-04-11T16:50:54.999Z</time></trkpt><trkpt lat="44.39688389938628" lon="11.054828603444244"><ele>427.0</ele><time>2026-04-11T16:50:55.999Z</time></trkpt><trkpt lat="44.396984045810576" lon="11.05478672839079"><ele>427.0</ele><time>2026-04-11T16:50:56.999Z</time></trkpt><trkpt lat="44.39709414535343" lon="11.05475808206886"><ele>432.75</ele><time>2026-04-11T16:50:57.999Z</time></trkpt><trkpt lat="44.39720649088882" lon="11.05472126128052"><ele>438.5</ele><time>2026-04-11T16:50:58.999Z</time></trkpt><trkpt lat="44.397319194187894" lon="11.054675280729029"><ele>444.25</ele><time>2026-04-11T16:50:59.999Z</time></trkpt><trkpt lat="44.397445362998404" lon="11.0546465448927"><ele>450.0</ele><time>2026-04-11T16:51:00.999Z</time></trkpt><trkpt lat="44.397579340303025" lon="11.054651696641544"><ele>450.0</ele><time>2026-04-11T16:51:01.999Z</time></trkpt><trkpt lat="44.397701620109785" lon="11.054654201732324"><ele>450.0</ele><time>2026-04-11T16:51:02.999Z</time></trkpt><trkpt lat="44.39781960856262" lon="11.054614344690195"><ele>450.0</ele><time>2026-04-11T16:51:03.999Z</time></trkpt><trkpt lat="44.39793615227894" lon="11.054554414125898"><ele>450.0</ele><time>2026-04-11T16:51:04.999Z</time></trkpt><trkpt lat="44.398051452583374" lon="11.054522785524515"><ele>453.4</ele><time>2026-04-11T16:51:05.999Z</time></trkpt><trkpt lat="44.39815569684149" lon="11.054552434719696"><ele>456.8</ele><time>2026-04-11T16:51:06.999Z</time></trkpt><trkpt lat="44.39825033148845" lon="11.054629034460314"><ele>460.20000000000005</ele><time>2026-04-11T16:51:07.999Z</time></trkpt><trkpt lat="44.398349232163376" lon="11.054715162969314"><ele>463.6</ele><time>2026-04-11T16:51:08.999Z</time></trkpt><trkpt lat="44.39844232661328" lon="11.054804701810975"><ele>467.0</ele><time>2026-04-11T16:51:09.999Z</time></trkpt><trkpt lat="44.39853442430158" lon="11.05489997833859"><ele>466.99999999999994</ele><time>2026-04-11T16:51:10.999Z</time></trkpt><trkpt lat="44.39859722546941" lon="11.054971352190254"><ele>467.0</ele><time>2026-04-11T16:51:11.999Z</time></trkpt><trkpt lat="44.39867469878196" lon="11.054961253514357"><ele>467.0</ele><time>2026-04-11T16:51:14.999Z</time></trkpt><trkpt lat="44.39870825233947" lon="11.0548511025833"><ele>467.0</ele><time>2026-04-11T16:51:16.999Z</time></trkpt><trkpt lat="44.39868410129126" lon="11.054709980718192"><ele>466.99999999999994</ele><time>2026-04-11T16:51:18.999Z</time></trkpt><trkpt lat="44.39866205190591" lon="11.054614298807302"><ele>467.0</ele><time>2026-04-11T16:51:19.999Z</time></trkpt><trkpt lat="44.398650632238585" lon="11.054491839166904"><ele>467.0</ele><time>2026-04-11T16:51:20.999Z</time></trkpt><trkpt lat="44.39863472514526" lon="11.054358383195952"><ele>467.00000000000006</ele><time>2026-04-11T16:51:21.999Z</time></trkpt><trkpt lat="44.3986112062955" lon="11.054220900217144"><ele>467.00000000000006</ele><time>2026-04-11T16:51:22.999Z</time></trkpt><trkpt lat="44.39860130415462" lon="11.054095011834349"><ele>467.0</ele><time>2026-04-11T16:51:23.999Z</time></trkpt><trkpt lat="44.398611543752494" lon="11.053969413735597"><ele>467.0</ele><time>2026-04-11T16:51:24.999Z</time></trkpt><trkpt lat="44.398659576773056" lon="11.05385443894809"><ele>468.20000000000005</ele><time>2026-04-11T16:51:25.999Z</time></trkpt><trkpt lat="44.398693009768" lon="11.053740205131911"><ele>469.40000000000003</ele><time>2026-04-11T16:51:26.999Z</time></trkpt><trkpt lat="44.398699195511064" lon="11.053600967123"><ele>470.59999999999997</ele><time>2026-04-11T16:51:27.999Z</time></trkpt><trkpt lat="44.39869872716443" lon="11.053429321190016"><ele>471.79999999999995</ele><time>2026-04-11T16:51:28.999Z</time></trkpt><trkpt lat="44.39870112609517" lon="11.053243579010225"><ele>473.0</ele><time>2026-04-11T16:51:29.999Z</time></trkpt><trkpt lat="44.39870072909152" lon="11.053085703835078"><ele>474.75</ele><time>2026-04-11T16:51:30.999Z</time></trkpt><trkpt lat="44.39871368331301" lon="11.052933125664124"><ele>476.5</ele><time>2026-04-11T16:51:31.999Z</time></trkpt><trkpt lat="44.3987589809592" lon="11.052777179471033"><ele>478.25</ele><time>2026-04-11T16:51:32.999Z</time></trkpt><trkpt lat="44.39882600575192" lon="11.052642107776244"><ele>480.0</ele><time>2026-04-11T16:51:33.999Z</time></trkpt><trkpt lat="44.39889295712951" lon="11.052513687165613"><ele>478.4</ele><time>2026-04-11T16:51:34.999Z</time></trkpt><trkpt lat="44.39895585252763" lon="11.052408158046118"><ele>476.8</ele><time>2026-04-11T16:51:35.999Z</time></trkpt><trkpt lat="44.39903229824502" lon="11.05232355753397"><ele>475.20000000000005</ele><time>2026-04-11T16:51:36.999Z</time></trkpt><trkpt lat="44.399103218316476" lon="11.052229402814444"><ele>473.6</ele><time>2026-04-11T16:51:37.999Z</time></trkpt><trkpt lat="44.39917749788763" lon="11.052159898247053"><ele>472.0</ele><time>2026-04-11T16:51:38.999Z</time></trkpt><trkpt lat="44.399263446532935" lon="11.052121894968323"><ele>472.00000000000006</ele><time>2026-04-11T16:51:39.999Z</time></trkpt><trkpt lat="44.39933635910921" lon="11.052081602703742"><ele>472.0</ele><time>2026-04-11T16:51:40.998Z</time></trkpt><trkpt lat="44.399386144561035" lon="11.052011250196665"><ele>472.0</ele><time>2026-04-11T16:51:41.998Z</time></trkpt><trkpt lat="44.399449509681794" lon="11.051908104436611"><ele>472.0</ele><time>2026-04-11T16:51:42.998Z</time></trkpt><trkpt lat="44.39951286029227" lon="11.05180641592101"><ele>472.00000000000006</ele><time>2026-04-11T16:51:43.998Z</time></trkpt><trkpt lat="44.39958495623396" lon="11.051714612331411"><ele>472.0</ele><time>2026-04-11T16:51:44.998Z</time></trkpt><trkpt lat="44.399644287944405" lon="11.05165256934377"><ele>469.25</ele><time>2026-04-11T16:51:45.998Z</time></trkpt><trkpt lat="44.39976411167677" lon="11.051608014100573"><ele>466.5</ele><time>2026-04-11T16:51:47.998Z</time></trkpt><trkpt lat="44.39986167112047" lon="11.051609647937145"><ele>463.75</ele><time>2026-04-11T16:51:48.998Z</time></trkpt><trkpt lat="44.39999091345318" lon="11.05160004070067"><ele>461.0</ele><time>2026-04-11T16:51:49.998Z</time></trkpt><trkpt lat="44.400121888647156" lon="11.051539479817249"><ele>461.0</ele><time>2026-04-11T16:51:50.998Z</time></trkpt><trkpt lat="44.40022809800468" lon="11.05146294089619"><ele>461.0</ele><time>2026-04-11T16:51:51.998Z</time></trkpt><trkpt lat="44.400307768640154" lon="11.05138626903013"><ele>461.0</ele><time>2026-04-11T16:51:52.998Z</time></trkpt><trkpt lat="44.40034981410008" lon="11.051290809566577"><ele>461.0</ele><time>2026-04-11T16:51:53.998Z</time></trkpt><trkpt lat="44.400383832253915" lon="11.051166462249919"><ele>461.0</ele><time>2026-04-11T16:51:54.998Z</time></trkpt><trkpt lat="44.40043353632291" lon="11.051031834967189"><ele>461.0</ele><time>2026-04-11T16:51:55.998Z</time></trkpt><trkpt lat="44.40047805110456" lon="11.050909923959743"><ele>461.0</ele><time>2026-04-11T16:51:56.998Z</time></trkpt><trkpt lat="44.400515647817905" lon="11.05083217764117"><ele>461.0</ele><time>2026-04-11T16:51:57.998Z</time></trkpt><trkpt lat="44.40056727645782" lon="11.050737425032514"><ele>461.0</ele><time>2026-04-11T16:51:59.998Z</time></trkpt><trkpt lat="44.40063007560434" lon="11.050622134465794"><ele>461.0</ele><time>2026-04-11T16:52:01.998Z</time></trkpt><trkpt lat="44.40074083640551" lon="11.050524809310222"><ele>456.49999999999994</ele><time>2026-04-11T16:52:03.998Z</time></trkpt><trkpt lat="44.40081952505524" lon="11.050499155177379"><ele>452.0</ele><time>2026-04-11T16:52:04.998Z</time></trkpt><trkpt lat="44.400903886694735" lon="11.050486922308469"><ele>447.5</ele><time>2026-04-11T16:52:05.998Z</time></trkpt><trkpt lat="44.400986636412" lon="11.05049270370543"><ele>443.0</ele><time>2026-04-11T16:52:06.998Z</time></trkpt><trkpt lat="44.40106998678815" lon="11.050514941392185"><ele>438.49999999999994</ele><time>2026-04-11T16:52:07.998Z</time></trkpt><trkpt lat="44.40113960440701" lon="11.050546654357085"><ele>434.0</ele><time>2026-04-11T16:52:08.998Z</time></trkpt><trkpt lat="44.401202950022736" lon="11.050567486611342"><ele>433.99999999999994</ele><time>2026-04-11T16:52:09.998Z</time></trkpt><trkpt lat="44.401279261464815" lon="11.050565213548985"><ele>434.0</ele><time>2026-04-11T16:52:10.998Z</time></trkpt><trkpt lat="44.40135682728654" lon="11.050534151844857"><ele>434.0</ele><time>2026-04-11T16:52:11.998Z</time></trkpt><trkpt lat="44.40144845351576" lon="11.050493965758704"><ele>434.0</ele><time>2026-04-11T16:52:13Z</time></trkpt><trkpt lat="44.401541628818606" lon="11.050453969249306"><ele>433.99999999999994</ele><time>2026-04-11T16:52:14Z</time></trkpt><trkpt lat="44.401634886732516" lon="11.050415427842745"><ele>434.0</ele><time>2026-04-11T16:52:15Z</time></trkpt><trkpt lat="44.40172795121152" lon="11.050383067149737"><ele>431.6</ele><time>2026-04-11T16:52:16Z</time></trkpt><trkpt lat="44.40182169305867" lon="11.050358532686296"><ele>429.2</ele><time>2026-04-11T16:52:17Z</time></trkpt><trkpt lat="44.401900360729705" lon="11.050327558838802"><ele>426.8</ele><time>2026-04-11T16:52:18Z</time></trkpt><trkpt lat="44.40199480144593" lon="11.05028701110608"><ele>424.40000000000003</ele><time>2026-04-11T16:52:19Z</time></trkpt><trkpt lat="44.40209005875565" lon="11.050232819449164"><ele>422.0</ele><time>2026-04-11T16:52:20Z</time></trkpt><trkpt lat="44.40216872764454" lon="11.050174225876654"><ele>421.40000000000003</ele><time>2026-04-11T16:52:21Z</time></trkpt><trkpt lat="44.40226842275041" lon="11.050127551990766"><ele>420.8</ele><time>2026-04-11T16:52:22Z</time></trkpt><trkpt lat="44.402362398109645" lon="11.05008632076725"><ele>420.2</ele><time>2026-04-11T16:52:23Z</time></trkpt><trkpt lat="44.40246641091678" lon="11.050055564666343"><ele>419.6</ele><time>2026-04-11T16:52:24Z</time></trkpt><trkpt lat="44.4025725387535" lon="11.050027814540256"><ele>419.0</ele><time>2026-04-11T16:52:25Z</time></trkpt><trkpt lat="44.402658349697944" lon="11.050010688170895"><ele>419.0</ele><time>2026-04-11T16:52:26Z</time></trkpt><trkpt lat="44.40275473045413" lon="11.049994191162611"><ele>419.0</ele><time>2026-04-11T16:52:27Z</time></trkpt><trkpt lat="44.40285316934524" lon="11.049999621716307"><ele>419.0</ele><time>2026-04-11T16:52:28Z</time></trkpt><trkpt lat="44.402957160655596" lon="11.05000277180448"><ele>419.0</ele><time>2026-04-11T16:52:29Z</time></trkpt><trkpt lat="44.4030634322005" lon="11.050009037189305"><ele>419.0</ele><time>2026-04-11T16:52:30Z</time></trkpt><trkpt lat="44.40317569748137" lon="11.050013857278953"><ele>418.6</ele><time>2026-04-11T16:52:31Z</time></trkpt><trkpt lat="44.40328098720102" lon="11.050031173418603"><ele>418.2</ele><time>2026-04-11T16:52:32Z</time></trkpt><trkpt lat="44.403392503043676" lon="11.050051325769036"><ele>417.8</ele><time>2026-04-11T16:52:33Z</time></trkpt><trkpt lat="44.403496452304225" lon="11.050057979673248"><ele>417.40000000000003</ele><time>2026-04-11T16:52:34Z</time></trkpt><trkpt lat="44.403600919166" lon="11.050056403713933"><ele>417.0</ele><time>2026-04-11T16:52:35Z</time></trkpt><trkpt lat="44.40369706038994" lon="11.05004645614767"><ele>417.0</ele><time>2026-04-11T16:52:36Z</time></trkpt><trkpt lat="44.4037952074922" lon="11.050040128106806"><ele>417.0</ele><time>2026-04-11T16:52:37Z</time></trkpt><trkpt lat="44.403869380121854" lon="11.05004409090013"><ele>417.0</ele><time>2026-04-11T16:52:38Z</time></trkpt><trkpt lat="44.40397752196269" lon="11.050014867199383"><ele>417.0</ele><time>2026-04-11T16:52:40Z</time></trkpt><trkpt lat="44.40407405471931" lon="11.049958457485614"><ele>417.0</ele><time>2026-04-11T16:52:42Z</time></trkpt><trkpt lat="44.404169966282694" lon="11.049927410128674"><ele>417.20000000000005</ele><time>2026-04-11T16:52:44Z</time></trkpt><trkpt lat="44.40404436499658" lon="11.049967334197687"><ele>417.4</ele><time>2026-04-11T16:52:56.999Z</time></trkpt><trkpt lat="44.40398096437105" lon="11.049987530248028"><ele>417.6</ele><time>2026-04-11T16:52:57.999Z</time></trkpt><trkpt lat="44.40389290300623" lon="11.050078844361357"><ele>417.79999999999995</ele><time>2026-04-11T16:52:59.999Z</time></trkpt><trkpt lat="44.403865423346076" lon="11.050240875877563"><ele>418.0</ele><time>2026-04-11T16:53:01.999Z</time></trkpt><trkpt lat="44.40383572400648" lon="11.050359954683826"><ele>417.79999999999995</ele><time>2026-04-11T16:53:03.999Z</time></trkpt><trkpt lat="44.40379544659713" lon="11.050454350300832"><ele>417.6</ele><time>2026-04-11T16:53:05.999Z</time></trkpt><trkpt lat="44.403750951047634" lon="11.050565840348973"><ele>417.4</ele><time>2026-04-11T16:53:07.999Z</time></trkpt><trkpt lat="44.40372699287481" lon="11.050700352092115"><ele>417.20000000000005</ele><time>2026-04-11T16:53:09.999Z</time></trkpt><trkpt lat="44.40370885756711" lon="11.050854801286693"><ele>417.0</ele><time>2026-04-11T16:53:11.999Z</time></trkpt><trkpt lat="44.40369640006781" lon="11.050952138537447"><ele>415.3333333333333</ele><time>2026-04-11T16:53:12.999Z</time></trkpt><trkpt lat="44.40369633090101" lon="11.051048357500209"><ele>413.66666666666663</ele><time>2026-04-11T16:53:13.999Z</time></trkpt><trkpt lat="44.4036934849112" lon="11.051143571951009"><ele>412.0</ele><time>2026-04-11T16:53:14.999Z</time></trkpt><trkpt lat="44.403730864522814" lon="11.051276785540239"><ele>410.3333333333333</ele><time>2026-04-11T16:53:16.999Z</time></trkpt><trkpt lat="44.40381329015532" lon="11.051379635568328"><ele>408.66666666666663</ele><time>2026-04-11T16:53:18.999Z</time></trkpt><trkpt lat="44.40385281260712" lon="11.05145553817088"><ele>407.0</ele><time>2026-04-11T16:53:19.999Z</time></trkpt><trkpt lat="44.40389139026996" lon="11.051543085909813"><ele>404.16666666666663</ele><time>2026-04-11T16:53:20.999Z</time></trkpt><trkpt lat="44.403944099039016" lon="11.051664813719114"><ele>401.3333333333333</ele><time>2026-04-11T16:53:22.999Z</time></trkpt><trkpt lat="44.40403901935422" lon="11.05178156349104"><ele>398.5</ele><time>2026-04-11T16:53:24.999Z</time></trkpt><trkpt lat="44.4041068007202" lon="11.051839811147355"><ele>395.66666666666663</ele><time>2026-04-11T16:53:25.999Z</time></trkpt><trkpt lat="44.404168933417694" lon="11.051898311423038"><ele>392.8333333333333</ele><time>2026-04-11T16:53:26.999Z</time></trkpt><trkpt lat="44.404219661221134" lon="11.051952624551356"><ele>390.0</ele><time>2026-04-11T16:53:27.999Z</time></trkpt><trkpt lat="44.404267622688465" lon="11.05201616229324"><ele>390.0</ele><time>2026-04-11T16:53:28.999Z</time></trkpt><trkpt lat="44.40431306103421" lon="11.052146433496212"><ele>390.0</ele><time>2026-04-11T16:53:30.999Z</time></trkpt><trkpt lat="44.40435642371678" lon="11.052251577568772"><ele>390.0</ele><time>2026-04-11T16:53:32.999Z</time></trkpt><trkpt lat="44.40439502419863" lon="11.05232958537985"><ele>390.0</ele><time>2026-04-11T16:53:34.999Z</time></trkpt><trkpt lat="44.40448667304401" lon="11.05233025593215"><ele>390.0</ele><time>2026-04-11T16:53:36.999Z</time></trkpt><trkpt lat="44.40457452716648" lon="11.052309393105714"><ele>390.0</ele><time>2026-04-11T16:53:37.999Z</time></trkpt><trkpt lat="44.404684269002445" lon="11.052283226673161"><ele>389.75</ele><time>2026-04-11T16:53:38.999Z</time></trkpt><trkpt lat="44.404805586948925" lon="11.052272875906974"><ele>389.5</ele><time>2026-04-11T16:53:39.999Z</time></trkpt><trkpt lat="44.40493280132017" lon="11.052269993118843"><ele>389.25</ele><time>2026-04-11T16:53:40.999Z</time></trkpt><trkpt lat="44.40505174690435" lon="11.05227190059827"><ele>389.0</ele><time>2026-04-11T16:53:41.999Z</time></trkpt><trkpt lat="44.40516060590301" lon="11.052265247729656"><ele>389.0</ele><time>2026-04-11T16:53:42.999Z</time></trkpt><trkpt lat="44.40526622071969" lon="11.05225652364151"><ele>389.0</ele><time>2026-04-11T16:53:43.998Z</time></trkpt><trkpt lat="44.405346545525106" lon="11.052253076602126"><ele>389.0</ele><time>2026-04-11T16:53:44.998Z</time></trkpt><trkpt lat="44.405417454493126" lon="11.05227238325655"><ele>389.0</ele><time>2026-04-11T16:53:45.998Z</time></trkpt><trkpt lat="44.405503139024695" lon="11.052320746167135"><ele>389.0</ele><time>2026-04-11T16:53:46.998Z</time></trkpt><trkpt lat="44.40561164621811" lon="11.052391667616915"><ele>388.49999999999994</ele><time>2026-04-11T16:53:47.998Z</time></trkpt><trkpt lat="44.40571381741249" lon="11.052450968521173"><ele>388.0</ele><time>2026-04-11T16:53:48.998Z</time></trkpt><trkpt lat="44.40580083846729" lon="11.052499529627294"><ele>387.5</ele><time>2026-04-11T16:53:49.998Z</time></trkpt><trkpt lat="44.40587072280877" lon="11.05252187325151"><ele>387.0</ele><time>2026-04-11T16:53:50.998Z</time></trkpt><trkpt lat="44.40594857326594" lon="11.0525313225592"><ele>386.49999999999994</ele><time>2026-04-11T16:53:51.998Z</time></trkpt><trkpt lat="44.406039734448605" lon="11.052522846810355"><ele>386.0</ele><time>2026-04-11T16:53:52.998Z</time></trkpt><trkpt lat="44.406129621373225" lon="11.05251377464381"><ele>384.3333333333333</ele><time>2026-04-11T16:53:53.998Z</time></trkpt><trkpt lat="44.4062235585556" lon="11.052516357597712"><ele>382.66666666666663</ele><time>2026-04-11T16:53:54.998Z</time></trkpt><trkpt lat="44.40631605061875" lon="11.05247982084423"><ele>381.0</ele><time>2026-04-11T16:53:55.998Z</time></trkpt><trkpt lat="44.406376835372626" lon="11.052421223440094"><ele>379.3333333333333</ele><time>2026-04-11T16:53:56.998Z</time></trkpt><trkpt lat="44.40642849289869" lon="11.052340923341376"><ele>377.66666666666663</ele><time>2026-04-11T16:53:57.998Z</time></trkpt><trkpt lat="44.40649231090958" lon="11.05223446513171"><ele>376.0</ele><time>2026-04-11T16:53:58.998Z</time></trkpt><trkpt lat="44.40654765234653" lon="11.052168905777894"><ele>376.0</ele><time>2026-04-11T16:53:59.998Z</time></trkpt><trkpt lat="44.40662619808331" lon="11.052144974469137"><ele>376.0</ele><time>2026-04-11T16:54:00.998Z</time></trkpt><trkpt lat="44.40672021681418" lon="11.05216151212696"><ele>376.0</ele><time>2026-04-11T16:54:01.998Z</time></trkpt><trkpt lat="44.40679885379813" lon="11.052185973604496"><ele>376.0</ele><time>2026-04-11T16:54:02.998Z</time></trkpt><trkpt lat="44.406912050305394" lon="11.052173665238021"><ele>376.0</ele><time>2026-04-11T16:54:04.998Z</time></trkpt><trkpt lat="44.40702350097741" lon="11.052146017157295"><ele>376.0</ele><time>2026-04-11T16:54:05.998Z</time></trkpt><trkpt lat="44.407139822172994" lon="11.052107491119548"><ele>376.0</ele><time>2026-04-11T16:54:06.998Z</time></trkpt><trkpt lat="44.407249620581034" lon="11.052055265152836"><ele>376.0</ele><time>2026-04-11T16:54:07.998Z</time></trkpt><trkpt lat="44.407353911923536" lon="11.051987072883943"><ele>376.0</ele><time>2026-04-11T16:54:08.998Z</time></trkpt><trkpt lat="44.40745521931864" lon="11.051909022008896"><ele>373.20000000000005</ele><time>2026-04-11T16:54:09.998Z</time></trkpt><trkpt lat="44.4075602543185" lon="11.051828470940341"><ele>370.40000000000003</ele><time>2026-04-11T16:54:10.998Z</time></trkpt><trkpt lat="44.407658818178945" lon="11.051775628693186"><ele>367.6</ele><time>2026-04-11T16:54:11.998Z</time></trkpt><trkpt lat="44.4077605268797" lon="11.051766377266567"><ele>364.8</ele><time>2026-04-11T16:54:12.998Z</time></trkpt><trkpt lat="44.40786642148092" lon="11.051742157232843"><ele>362.0</ele><time>2026-04-11T16:54:13.998Z</time></trkpt><trkpt lat="44.407979299326506" lon="11.051685807834096"><ele>362.40000000000003</ele><time>2026-04-11T16:54:14.998Z</time></trkpt><trkpt lat="44.408063953453144" lon="11.051617565145936"><ele>362.8</ele><time>2026-04-11T16:54:15.998Z</time></trkpt><trkpt lat="44.408128901868984" lon="11.051560867249158"><ele>363.2</ele><time>2026-04-11T16:54:16.998Z</time></trkpt><trkpt lat="44.40819399225933" lon="11.051475646425729"><ele>363.6</ele><time>2026-04-11T16:54:17.998Z</time></trkpt><trkpt lat="44.40827051536129" lon="11.051362405674194"><ele>364.0</ele><time>2026-04-11T16:54:19Z</time></trkpt><trkpt lat="44.40834113556001" lon="11.051278489252802"><ele>364.0</ele><time>2026-04-11T16:54:20Z</time></trkpt><trkpt lat="44.40841849919122" lon="11.051208251001492"><ele>364.0</ele><time>2026-04-11T16:54:21Z</time></trkpt><trkpt lat="44.40849078415502" lon="11.051149225827668"><ele>364.0</ele><time>2026-04-11T16:54:22Z</time></trkpt><trkpt lat="44.40856100540068" lon="11.05107312886062"><ele>364.0</ele><time>2026-04-11T16:54:23Z</time></trkpt><trkpt lat="44.40859459382817" lon="11.050978797044893"><ele>364.0</ele><time>2026-04-11T16:54:24Z</time></trkpt><trkpt lat="44.40862052333721" lon="11.050836205729519"><ele>364.0</ele><time>2026-04-11T16:54:25Z</time></trkpt><trkpt lat="44.408625519703165" lon="11.050718838418742"><ele>364.2</ele><time>2026-04-11T16:54:26Z</time></trkpt><trkpt lat="44.408642531808724" lon="11.050614203773407"><ele>364.4</ele><time>2026-04-11T16:54:27Z</time></trkpt><trkpt lat="44.40869263659532" lon="11.050508665944545"><ele>364.6</ele><time>2026-04-11T16:54:28Z</time></trkpt><trkpt lat="44.4087679719478" lon="11.050400067026796"><ele>364.8</ele><time>2026-04-11T16:54:29Z</time></trkpt><trkpt lat="44.408849995674736" lon="11.050289496122321"><ele>365.0</ele><time>2026-04-11T16:54:30Z</time></trkpt><trkpt lat="44.408926242130505" lon="11.050183644017515"><ele>365.0</ele><time>2026-04-11T16:54:31Z</time></trkpt><trkpt lat="44.4089823307474" lon="11.050094852917207"><ele>365.0</ele><time>2026-04-11T16:54:32Z</time></trkpt><trkpt lat="44.409020237863984" lon="11.05001853512495"><ele>365.0</ele><time>2026-04-11T16:54:33Z</time></trkpt><trkpt lat="44.40904053884719" lon="11.049916147370888"><ele>365.0</ele><time>2026-04-11T16:54:34Z</time></trkpt><trkpt lat="44.409038411279376" lon="11.049802394710964"><ele>365.0</ele><time>2026-04-11T16:54:35Z</time></trkpt><trkpt lat="44.40903530738975" lon="11.049673413643433"><ele>365.0</ele><time>2026-04-11T16:54:36Z</time></trkpt><trkpt lat="44.40903709993128" lon="11.049574964833193"><ele>365.4</ele><time>2026-04-11T16:54:37Z</time></trkpt><trkpt lat="44.40904863911124" lon="11.04947420249726"><ele>365.8</ele><time>2026-04-11T16:54:38Z</time></trkpt><trkpt lat="44.409058687362034" lon="11.049340002484907"><ele>366.20000000000005</ele><time>2026-04-11T16:54:39Z</time></trkpt><trkpt lat="44.40909229515657" lon="11.04909302646893"><ele>366.6</ele><time>2026-04-11T16:54:41Z</time></trkpt><trkpt lat="44.40911658716184" lon="11.048999060347747"><ele>367.0</ele><time>2026-04-11T16:54:42Z</time></trkpt><trkpt lat="44.4092000414596" lon="11.04890010563674"><ele>365.5</ele><time>2026-04-11T16:54:44Z</time></trkpt><trkpt lat="44.409267334285545" lon="11.04889986521183"><ele>364.0</ele><time>2026-04-11T16:54:45Z</time></trkpt><trkpt lat="44.409352789636024" lon="11.04891064334052"><ele>362.5</ele><time>2026-04-11T16:54:46Z</time></trkpt><trkpt lat="44.409463876471854" lon="11.048910788692819"><ele>361.0</ele><time>2026-04-11T16:54:47Z</time></trkpt><trkpt lat="44.409560484731934" lon="11.048907718812144"><ele>359.5</ele><time>2026-04-11T16:54:48Z</time></trkpt><trkpt lat="44.409636765318034" lon="11.048938333775657"><ele>358.0</ele><time>2026-04-11T16:54:49Z</time></trkpt><trkpt lat="44.40971702776302" lon="11.048992058269793"><ele>357.66666666666663</ele><time>2026-04-11T16:54:50Z</time></trkpt><trkpt lat="44.409783599994256" lon="11.049052836533852"><ele>357.3333333333333</ele><time>2026-04-11T16:54:51Z</time></trkpt><trkpt lat="44.40982663649834" lon="11.049121395187806"><ele>357.0</ele><time>2026-04-11T16:54:52Z</time></trkpt><trkpt lat="44.409875778357" lon="11.049209557133553"><ele>356.6666666666667</ele><time>2026-04-11T16:54:53Z</time></trkpt><trkpt lat="44.409938174941125" lon="11.049281245295445"><ele>356.33333333333337</ele><time>2026-04-11T16:54:54Z</time></trkpt><trkpt lat="44.41002692332636" lon="11.049356520169267"><ele>356.0</ele><time>2026-04-11T16:54:55Z</time></trkpt><trkpt lat="44.41012428825927" lon="11.049431535690644"><ele>356.0</ele><time>2026-04-11T16:54:56Z</time></trkpt><trkpt lat="44.410227598860736" lon="11.04951393528172"><ele>356.0</ele><time>2026-04-11T16:54:57Z</time></trkpt><trkpt lat="44.41034155686857" lon="11.04958969726975"><ele>356.0</ele><time>2026-04-11T16:54:57.999Z</time></trkpt><trkpt lat="44.410454561391965" lon="11.049661460670393"><ele>356.0</ele><time>2026-04-11T16:54:58.999Z</time></trkpt><trkpt lat="44.41059036120222" lon="11.049708205295545"><ele>353.4</ele><time>2026-04-11T16:54:59.999Z</time></trkpt><trkpt lat="44.41067301235287" lon="11.049803206054007"><ele>350.8</ele><time>2026-04-11T16:55:00.999Z</time></trkpt><trkpt lat="44.410735123519984" lon="11.049895004484132"><ele>348.2</ele><time>2026-04-11T16:55:01.999Z</time></trkpt><trkpt lat="44.41081846343644" lon="11.049986434960477"><ele>345.59999999999997</ele><time>2026-04-11T16:55:02.999Z</time></trkpt><trkpt lat="44.41093332149477" lon="11.050066812868932"><ele>343.0</ele><time>2026-04-11T16:55:03.999Z</time></trkpt><trkpt lat="44.41103252408743" lon="11.05017475712814"><ele>343.0</ele><time>2026-04-11T16:55:04.999Z</time></trkpt><trkpt lat="44.41112590046849" lon="11.050269414439407"><ele>343.0</ele><time>2026-04-11T16:55:05.999Z</time></trkpt><trkpt lat="44.41123949234207" lon="11.05035646347274"><ele>343.0</ele><time>2026-04-11T16:55:06.999Z</time></trkpt><trkpt lat="44.41134585269898" lon="11.050437501213782"><ele>343.0</ele><time>2026-04-11T16:55:07.999Z</time></trkpt><trkpt lat="44.41145349987795" lon="11.050526176238387"><ele>340.59999999999997</ele><time>2026-04-11T16:55:08.999Z</time></trkpt><trkpt lat="44.411548882972816" lon="11.050615444910738"><ele>338.2</ele><time>2026-04-11T16:55:09.999Z</time></trkpt><trkpt lat="44.41164677566252" lon="11.050686262710952"><ele>335.8</ele><time>2026-04-11T16:55:10.999Z</time></trkpt><trkpt lat="44.411739663466854" lon="11.050753050985316"><ele>333.4</ele><time>2026-04-11T16:55:11.999Z</time></trkpt><trkpt lat="44.41185167589821" lon="11.050801128143272"><ele>331.0</ele><time>2026-04-11T16:55:12.999Z</time></trkpt><trkpt lat="44.411976205803754" lon="11.050822916852148"><ele>329.20000000000005</ele><time>2026-04-11T16:55:13.999Z</time></trkpt><trkpt lat="44.41210280250472" lon="11.050829402504963"><ele>327.40000000000003</ele><time>2026-04-11T16:55:14.999Z</time></trkpt><trkpt lat="44.412221081615506" lon="11.050842029535962"><ele>325.6</ele><time>2026-04-11T16:55:15.999Z</time></trkpt><trkpt lat="44.412323359419425" lon="11.050873057485862"><ele>323.8</ele><time>2026-04-11T16:55:16.999Z</time></trkpt><trkpt lat="44.41240762047415" lon="11.050926239213412"><ele>322.0</ele><time>2026-04-11T16:55:17.999Z</time></trkpt><trkpt lat="44.41247680642314" lon="11.050996567586324"><ele>319.6</ele><time>2026-04-11T16:55:18.999Z</time></trkpt><trkpt lat="44.41256272180622" lon="11.05104927656419"><ele>317.20000000000005</ele><time>2026-04-11T16:55:19.999Z</time></trkpt><trkpt lat="44.412660640131485" lon="11.051074634719946"><ele>314.8</ele><time>2026-04-11T16:55:20.999Z</time></trkpt><trkpt lat="44.412765090616666" lon="11.051100592891995"><ele>312.4</ele><time>2026-04-11T16:55:21.999Z</time></trkpt><trkpt lat="44.41286417520169" lon="11.051126655921635"><ele>310.0</ele><time>2026-04-11T16:55:22.999Z</time></trkpt><trkpt lat="44.41295753735894" lon="11.051142282899544"><ele>306.8</ele><time>2026-04-11T16:55:23.999Z</time></trkpt><trkpt lat="44.41305313901315" lon="11.05115901042357"><ele>303.6</ele><time>2026-04-11T16:55:24.999Z</time></trkpt><trkpt lat="44.41313823834328" lon="11.051160460869939"><ele>300.4</ele><time>2026-04-11T16:55:25.999Z</time></trkpt><trkpt lat="44.413224753162865" lon="11.051126315402607"><ele>297.2</ele><time>2026-04-11T16:55:26.999Z</time></trkpt><trkpt lat="44.413323855460604" lon="11.051059824853496"><ele>294.0</ele><time>2026-04-11T16:55:27.999Z</time></trkpt><trkpt lat="44.41343725378728" lon="11.050979567758114"><ele>294.0</ele><time>2026-04-11T16:55:28.999Z</time></trkpt><trkpt lat="44.41355115824102" lon="11.050906844737664"><ele>294.0</ele><time>2026-04-11T16:55:29.999Z</time></trkpt><trkpt lat="44.41366315959855" lon="11.050820709776827"><ele>294.0</ele><time>2026-04-11T16:55:30.999Z</time></trkpt><trkpt lat="44.41376850386503" lon="11.050736453866545"><ele>294.0</ele><time>2026-04-11T16:55:31.999Z</time></trkpt><trkpt lat="44.413869125204045" lon="11.050636214798507"><ele>291.5</ele><time>2026-04-11T16:55:32.999Z</time></trkpt><trkpt lat="44.41397075551364" lon="11.050563399837559"><ele>289.0</ele><time>2026-04-11T16:55:33.999Z</time></trkpt><trkpt lat="44.41406476843867" lon="11.050496149270955"><ele>286.5</ele><time>2026-04-11T16:55:34.999Z</time></trkpt><trkpt lat="44.41413172711979" lon="11.050453624103936"><ele>284.0</ele><time>2026-04-11T16:55:35.999Z</time></trkpt><trkpt lat="44.414199546058306" lon="11.050423309436576"><ele>281.5</ele><time>2026-04-11T16:55:36.999Z</time></trkpt><trkpt lat="44.41427892815174" lon="11.050427576748772"><ele>279.0</ele><time>2026-04-11T16:55:37.999Z</time></trkpt><trkpt lat="44.414373450731425" lon="11.050482962418519"><ele>279.0</ele><time>2026-04-11T16:55:38.999Z</time></trkpt><trkpt lat="44.41447399648371" lon="11.050571546545678"><ele>279.0</ele><time>2026-04-11T16:55:39.999Z</time></trkpt><trkpt lat="44.41457358897153" lon="11.050662499147885"><ele>279.0</ele><time>2026-04-11T16:55:40.999Z</time></trkpt><trkpt lat="44.41467229624291" lon="11.050754449793175"><ele>279.0</ele><time>2026-04-11T16:55:41.999Z</time></trkpt><trkpt lat="44.41477707937328" lon="11.050835653413753"><ele>275.8</ele><time>2026-04-11T16:55:42.999Z</time></trkpt><trkpt lat="44.414889869030496" lon="11.050901035595727"><ele>272.59999999999997</ele><time>2026-04-11T16:55:43.999Z</time></trkpt><trkpt lat="44.415007448397766" lon="11.050962957598095"><ele>269.4</ele><time>2026-04-11T16:55:44.999Z</time></trkpt><trkpt lat="44.41510469678926" lon="11.05100498787228"><ele>266.2</ele><time>2026-04-11T16:55:45.999Z</time></trkpt><trkpt lat="44.41519064512649" lon="11.051036214176936"><ele>263.0</ele><time>2026-04-11T16:55:46.999Z</time></trkpt><trkpt lat="44.41527205677478" lon="11.051065531672993"><ele>263.0</ele><time>2026-04-11T16:55:47.999Z</time></trkpt><trkpt lat="44.415353350094215" lon="11.051081168102316"><ele>263.0</ele><time>2026-04-11T16:55:48.999Z</time></trkpt><trkpt lat="44.41541658673361" lon="11.051103782729973"><ele>263.0</ele><time>2026-04-11T16:55:49.999Z</time></trkpt><trkpt lat="44.415493687886105" lon="11.051209778515053"><ele>263.0</ele><time>2026-04-11T16:55:51.999Z</time></trkpt><trkpt lat="44.41548508654937" lon="11.051313710351886"><ele>263.0</ele><time>2026-04-11T16:55:52.998Z</time></trkpt><trkpt lat="44.41546533399998" lon="11.051429222451148"><ele>263.0</ele><time>2026-04-11T16:55:53.998Z</time></trkpt><trkpt lat="44.4154574257689" lon="11.051565162656098"><ele>261.2</ele><time>2026-04-11T16:55:54.998Z</time></trkpt><trkpt lat="44.415464099656745" lon="11.051703862686267"><ele>259.4</ele><time>2026-04-11T16:55:55.998Z</time></trkpt><trkpt lat="44.41548561435753" lon="11.051848155569653"><ele>257.59999999999997</ele><time>2026-04-11T16:55:56.998Z</time></trkpt><trkpt lat="44.415519533438335" lon="11.051984174941161"><ele>255.79999999999998</ele><time>2026-04-11T16:55:57.998Z</time></trkpt><trkpt lat="44.415562386198566" lon="11.052110055707843"><ele>254.0</ele><time>2026-04-11T16:55:58.998Z</time></trkpt><trkpt lat="44.415614672147655" lon="11.052240985405392"><ele>252.39999999999998</ele><time>2026-04-11T16:55:59.998Z</time></trkpt><trkpt lat="44.41566639842574" lon="11.052369183845178"><ele>250.79999999999998</ele><time>2026-04-11T16:56:00.998Z</time></trkpt><trkpt lat="44.415723853877985" lon="11.052478863758632"><ele>249.20000000000002</ele><time>2026-04-11T16:56:01.998Z</time></trkpt><trkpt lat="44.415777455581335" lon="11.052589430370295"><ele>247.60000000000002</ele><time>2026-04-11T16:56:02.998Z</time></trkpt><trkpt lat="44.415838112494804" lon="11.052682598213465"><ele>246.0</ele><time>2026-04-11T16:56:03.998Z</time></trkpt><trkpt lat="44.415920422114574" lon="11.052756222468354"><ele>243.60000000000002</ele><time>2026-04-11T16:56:04.998Z</time></trkpt><trkpt lat="44.41602036222262" lon="11.052810882188867"><ele>241.20000000000002</ele><time>2026-04-11T16:56:05.998Z</time></trkpt><trkpt lat="44.41612863953657" lon="11.052853694918483"><ele>238.79999999999998</ele><time>2026-04-11T16:56:06.998Z</time></trkpt><trkpt lat="44.41623927411965" lon="11.052893891563718"><ele>236.39999999999998</ele><time>2026-04-11T16:56:07.998Z</time></trkpt><trkpt lat="44.416341066158154" lon="11.052925599754253"><ele>234.0</ele><time>2026-04-11T16:56:08.998Z</time></trkpt><trkpt lat="44.416418180317706" lon="11.05296906603531"><ele>232.33333333333334</ele><time>2026-04-11T16:56:09.998Z</time></trkpt><trkpt lat="44.41648144941142" lon="11.05300975758884"><ele>230.66666666666669</ele><time>2026-04-11T16:56:10.998Z</time></trkpt><trkpt lat="44.416516198576154" lon="11.05309590526753"><ele>229.0</ele><time>2026-04-11T16:56:12.998Z</time></trkpt><trkpt lat="44.41656236755613" lon="11.053219491371198"><ele>227.33333333333334</ele><time>2026-04-11T16:58:24.998Z</time></trkpt><trkpt lat="44.41665464790842" lon="11.05323619291468"><ele>225.66666666666669</ele><time>2026-04-11T16:58:26.998Z</time></trkpt><trkpt lat="44.41673411565629" lon="11.053218301983"><ele>224.0</ele><time>2026-04-11T16:58:27.998Z</time></trkpt><trkpt lat="44.4168244530156" lon="11.053205993350076"><ele>224.0</ele><time>2026-04-11T16:58:28.998Z</time></trkpt><trkpt lat="44.41693957132444" lon="11.05321130697316"><ele>224.0</ele><time>2026-04-11T16:58:29.998Z</time></trkpt><trkpt lat="44.417057745918285" lon="11.053175328236412"><ele>224.0</ele><time>2026-04-11T16:58:30.999Z</time></trkpt><trkpt lat="44.41717268100965" lon="11.053141624606932"><ele>224.0</ele><time>2026-04-11T16:58:31.999Z</time></trkpt><trkpt lat="44.41728341849783" lon="11.053113775868187"><ele>222.75</ele><time>2026-04-11T16:58:32.999Z</time></trkpt><trkpt lat="44.41738897539582" lon="11.053124169889882"><ele>221.5</ele><time>2026-04-11T16:58:33.999Z</time></trkpt><trkpt lat="44.41749322562891" lon="11.053165269870613"><ele>220.25</ele><time>2026-04-11T16:58:34.999Z</time></trkpt><trkpt lat="44.41760255067194" lon="11.053228938996005"><ele>219.0</ele><time>2026-04-11T16:58:35.999Z</time></trkpt><trkpt lat="44.41772443026287" lon="11.05332357320097"><ele>219.0</ele><time>2026-04-11T16:58:36.999Z</time></trkpt><trkpt lat="44.417866675839136" lon="11.053421776128998"><ele>219.0</ele><time>2026-04-11T16:58:37.999Z</time></trkpt><trkpt lat="44.41801116755511" lon="11.053557722261159"><ele>219.0</ele><time>2026-04-11T16:58:38.999Z</time></trkpt><trkpt lat="44.418161794813656" lon="11.053693679438243"><ele>217.66666666666669</ele><time>2026-04-11T16:58:39.999Z</time></trkpt><trkpt lat="44.41831030261992" lon="11.05383595438133"><ele>216.33333333333334</ele><time>2026-04-11T16:58:40.999Z</time></trkpt><trkpt lat="44.41844725061897" lon="11.053982945720431"><ele>215.0</ele><time>2026-04-11T16:58:41.999Z</time></trkpt><trkpt lat="44.41857775312147" lon="11.054140933187703"><ele>215.0</ele><time>2026-04-11T16:58:42.999Z</time></trkpt><trkpt lat="44.41869780013918" lon="11.05429920679201"><ele>215.0</ele><time>2026-04-11T16:58:43.999Z</time></trkpt><trkpt lat="44.418801422771665" lon="11.054435340665716"><ele>215.0</ele><time>2026-04-11T16:58:44.999Z</time></trkpt><trkpt lat="44.41891406585367" lon="11.054566964624499"><ele>215.0</ele><time>2026-04-11T16:58:45.999Z</time></trkpt><trkpt lat="44.41905499011383" lon="11.054686000524415"><ele>215.0</ele><time>2026-04-11T16:58:46.999Z</time></trkpt><trkpt lat="44.4192027600849" lon="11.054789338013673"><ele>215.0</ele><time>2026-04-11T16:58:47.999Z</time></trkpt><trkpt lat="44.419330884888055" lon="11.054909646080052"><ele>215.25</ele><time>2026-04-11T16:58:48.999Z</time></trkpt><trkpt lat="44.41946301911559" lon="11.055003150250322"><ele>215.5</ele><time>2026-04-11T16:58:49.999Z</time></trkpt><trkpt lat="44.419593945249" lon="11.055082882737603"><ele>215.75</ele><time>2026-04-11T16:58:50.999Z</time></trkpt><trkpt lat="44.41971818878199" lon="11.055159901156157"><ele>216.0</ele><time>2026-04-11T16:58:51.999Z</time></trkpt><trkpt lat="44.41984608556156" lon="11.055265441746545"><ele>215.33333333333331</ele><time>2026-04-11T16:58:52.999Z</time></trkpt><trkpt lat="44.419980325752896" lon="11.05539342929842"><ele>214.66666666666666</ele><time>2026-04-11T16:58:53.999Z</time></trkpt><trkpt lat="44.42013451205514" lon="11.055518787248797"><ele>214.0</ele><time>2026-04-11T16:58:54.999Z</time></trkpt><trkpt lat="44.42026771282233" lon="11.055650763662333"><ele>214.0</ele><time>2026-04-11T16:58:55.999Z</time></trkpt><trkpt lat="44.420388464869646" lon="11.05576988950605"><ele>214.0</ele><time>2026-04-11T16:58:56.999Z</time></trkpt><trkpt lat="44.42049936224055" lon="11.0558713297688"><ele>214.0</ele><time>2026-04-11T16:58:57.999Z</time></trkpt><trkpt lat="44.420589678601566" lon="11.0559502452245"><ele>214.0</ele><time>2026-04-11T16:58:58.999Z</time></trkpt><trkpt lat="44.4206604352381" lon="11.056007108586321"><ele>214.2</ele><time>2026-04-11T16:58:59.999Z</time></trkpt><trkpt lat="44.42077567902476" lon="11.056046715529932"><ele>214.39999999999998</ele><time>2026-04-11T16:59:01.999Z</time></trkpt><trkpt lat="44.42084743750168" lon="11.055926229298988"><ele>214.6</ele><time>2026-04-11T16:59:02.999Z</time></trkpt><trkpt lat="44.420888354305646" lon="11.05578999253337"><ele>214.8</ele><time>2026-04-11T16:59:03.999Z</time></trkpt><trkpt lat="44.420948053472664" lon="11.0556711574631"><ele>215.0</ele><time>2026-04-11T16:59:04.999Z</time></trkpt><trkpt lat="44.421007504007285" lon="11.055541792325343"><ele>215.0</ele><time>2026-04-11T16:59:05.999Z</time></trkpt><trkpt lat="44.421057924525996" lon="11.055431674345712"><ele>215.0</ele><time>2026-04-11T16:59:06.999Z</time></trkpt><trkpt lat="44.42110280252028" lon="11.05531929088515"><ele>215.0</ele><time>2026-04-11T16:59:08.999Z</time></trkpt><trkpt lat="44.421201491970194" lon="11.055452411988153"><ele>215.0</ele><time>2026-04-11T16:59:11.999Z</time></trkpt><trkpt lat="44.42125848290539" lon="11.055571295682071"><ele>215.0</ele><time>2026-04-11T16:59:12.999Z</time></trkpt><trkpt lat="44.421322611892904" lon="11.055711671697793"><ele>213.33333333333334</ele><time>2026-04-11T16:59:13.999Z</time></trkpt><trkpt lat="44.421399501721545" lon="11.055870540182768"><ele>211.66666666666669</ele><time>2026-04-11T16:59:14.999Z</time></trkpt><trkpt lat="44.42149467092831" lon="11.056033685187604"><ele>210.0</ele><time>2026-04-11T16:59:15.999Z</time></trkpt><trkpt lat="44.42161723639207" lon="11.05620660736286"><ele>210.0</ele><time>2026-04-11T16:59:16.999Z</time></trkpt><trkpt lat="44.421754770386535" lon="11.056369171175305"><ele>210.0</ele><time>2026-04-11T16:59:17.999Z</time></trkpt><trkpt lat="44.42190956564835" lon="11.056546921182708"><ele>210.0</ele><time>2026-04-11T16:59:18.999Z</time></trkpt><trkpt lat="44.422081322259885" lon="11.05673903653333"><ele>210.33333333333331</ele><time>2026-04-11T16:59:19.999Z</time></trkpt><trkpt lat="44.42225293541934" lon="11.056935332130413"><ele>210.66666666666666</ele><time>2026-04-11T16:59:20.999Z</time></trkpt><trkpt lat="44.42242038511275" lon="11.05711956199604"><ele>211.0</ele><time>2026-04-11T16:59:21.999Z</time></trkpt><trkpt lat="44.42257626630398" lon="11.05729635044376"><ele>210.66666666666666</ele><time>2026-04-11T16:59:22.999Z</time></trkpt><trkpt lat="44.422724873585665" lon="11.057475812628109"><ele>210.33333333333331</ele><time>2026-04-11T16:59:23.999Z</time></trkpt><trkpt lat="44.42287761078016" lon="11.057653935668531"><ele>210.0</ele><time>2026-04-11T16:59:24.999Z</time></trkpt><trkpt lat="44.42302890757624" lon="11.05782715149051"><ele>209.0</ele><time>2026-04-11T16:59:25.999Z</time></trkpt><trkpt lat="44.423185301703754" lon="11.058003286186812"><ele>208.0</ele><time>2026-04-11T16:59:26.999Z</time></trkpt><trkpt lat="44.423335601739076" lon="11.058178036329322"><ele>207.0</ele><time>2026-04-11T16:59:27.999Z</time></trkpt><trkpt lat="44.42347897591665" lon="11.058342526829708"><ele>207.0</ele><time>2026-04-11T16:59:28.999Z</time></trkpt><trkpt lat="44.4236033681198" lon="11.058488709314501"><ele>207.0</ele><time>2026-04-11T16:59:29.999Z</time></trkpt><trkpt lat="44.42372403716043" lon="11.05862823103295"><ele>207.0</ele><time>2026-04-11T16:59:30.999Z</time></trkpt><trkpt lat="44.42384135656613" lon="11.058738585169166"><ele>207.0</ele><time>2026-04-11T16:59:31.999Z</time></trkpt><trkpt lat="44.42395591588909" lon="11.058838851997146"><ele>207.0</ele><time>2026-04-11T16:59:32.999Z</time></trkpt><trkpt lat="44.424125034191384" lon="11.058865323187339"><ele>207.0</ele><time>2026-04-11T16:59:33.999Z</time></trkpt><trkpt lat="44.424301510816946" lon="11.058798890352719"><ele>207.0</ele><time>2026-04-11T16:59:34.999Z</time></trkpt><trkpt lat="44.42446955268012" lon="11.058713629930983"><ele>207.0</ele><time>2026-04-11T16:59:35.999Z</time></trkpt><trkpt lat="44.424645343939304" lon="11.058596877182142"><ele>207.0</ele><time>2026-04-11T16:59:36.999Z</time></trkpt><trkpt lat="44.424833706782856" lon="11.05851077172569"><ele>207.66666666666669</ele><time>2026-04-11T16:59:37.999Z</time></trkpt><trkpt lat="44.42501063493327" lon="11.058415458903635"><ele>208.33333333333334</ele><time>2026-04-11T16:59:38.999Z</time></trkpt><trkpt lat="44.42518105394065" lon="11.058324576223951"><ele>209.0</ele><time>2026-04-11T16:59:39.999Z</time></trkpt><trkpt lat="44.42535841451614" lon="11.058236266318549"><ele>212.33333333333334</ele><time>2026-04-11T16:59:40.999Z</time></trkpt><trkpt lat="44.42554049142776" lon="11.058159347200126"><ele>215.66666666666669</ele><time>2026-04-11T16:59:41.999Z</time></trkpt><trkpt lat="44.42573754285323" lon="11.058077474924763"><ele>219.0</ele><time>2026-04-11T16:59:42.999Z</time></trkpt><trkpt lat="44.42594175048194" lon="11.058035167241274"><ele>219.0</ele><time>2026-04-11T16:59:43.999Z</time></trkpt><trkpt lat="44.42615887369557" lon="11.058022073594449"><ele>219.0</ele><time>2026-04-11T16:59:44.999Z</time></trkpt><trkpt lat="44.426365859788156" lon="11.058032746978975"><ele>219.0</ele><time>2026-04-11T16:59:45.999Z</time></trkpt><trkpt lat="44.42655792428137" lon="11.058082342138178"><ele>220.0</ele><time>2026-04-11T16:59:46.999Z</time></trkpt><trkpt lat="44.426751850495954" lon="11.058143463845314"><ele>221.0</ele><time>2026-04-11T16:59:47.999Z</time></trkpt><trkpt lat="44.42694140224695" lon="11.058186426446436"><ele>222.0</ele><time>2026-04-11T16:59:48.999Z</time></trkpt><trkpt lat="44.427131389535106" lon="11.058209595047176"><ele>223.33333333333331</ele><time>2026-04-11T16:59:49.999Z</time></trkpt><trkpt lat="44.427330589682434" lon="11.058204937756908"><ele>224.66666666666666</ele><time>2026-04-11T16:59:50.999Z</time></trkpt><trkpt lat="44.42753675730498" lon="11.058178505956947"><ele>226.0</ele><time>2026-04-11T16:59:51.999Z</time></trkpt><trkpt lat="44.42774595198764" lon="11.058185933840884"><ele>226.0</ele><time>2026-04-11T16:59:52.999Z</time></trkpt><trkpt lat="44.4279443585377" lon="11.058179612923901"><ele>226.0</ele><time>2026-04-11T16:59:53.998Z</time></trkpt><trkpt lat="44.428134851661014" lon="11.058165290282199"><ele>226.0</ele><time>2026-04-11T16:59:54.998Z</time></trkpt><trkpt lat="44.428310051041585" lon="11.058195775632651"><ele>227.33333333333331</ele><time>2026-04-11T16:59:55.998Z</time></trkpt><trkpt lat="44.42848848722525" lon="11.058250450466625"><ele>228.66666666666669</ele><time>2026-04-11T16:59:56.998Z</time></trkpt><trkpt lat="44.428685117524246" lon="11.058347356940697"><ele>230.0</ele><time>2026-04-11T16:59:57.998Z</time></trkpt><trkpt lat="44.42889175598794" lon="11.058448189175644"><ele>224.5</ele><time>2026-04-11T16:59:58.998Z</time></trkpt><trkpt lat="44.42911731997193" lon="11.05855108673648"><ele>219.0</ele><time>2026-04-11T16:59:59.998Z</time></trkpt><trkpt lat="44.42934109735989" lon="11.058653951635707"><ele>219.0</ele><time>2026-04-11T17:00:00.998Z</time></trkpt><trkpt lat="44.42954438558958" lon="11.058755792366737"><ele>219.0</ele><time>2026-04-11T17:00:01.998Z</time></trkpt><trkpt lat="44.42973889559023" lon="11.058849088447419"><ele>219.0</ele><time>2026-04-11T17:00:02.998Z</time></trkpt><trkpt lat="44.429933466455175" lon="11.058944241902738"><ele>221.66666666666669</ele><time>2026-04-11T17:00:03.998Z</time></trkpt><trkpt lat="44.430119725021314" lon="11.059035693386914"><ele>224.33333333333334</ele><time>2026-04-11T17:00:04.998Z</time></trkpt><trkpt lat="44.43029264903417" lon="11.059116564400675"><ele>227.0</ele><time>2026-04-11T17:00:05.998Z</time></trkpt><trkpt lat="44.43045235724863" lon="11.059191943343652"><ele>224.0</ele><time>2026-04-11T17:00:06.998Z</time></trkpt><trkpt lat="44.430610004802205" lon="11.059270418995185"><ele>221.0</ele><time>2026-04-11T17:00:07.998Z</time></trkpt><trkpt lat="44.43079276753101" lon="11.059356193608306"><ele>218.0</ele><time>2026-04-11T17:00:08.998Z</time></trkpt><trkpt lat="44.43098765385472" lon="11.059439177009276"><ele>218.0</ele><time>2026-04-11T17:00:09.998Z</time></trkpt><trkpt lat="44.43120109377814" lon="11.059516349144106"><ele>218.0</ele><time>2026-04-11T17:00:10.998Z</time></trkpt><trkpt lat="44.4314181781672" lon="11.059618542634496"><ele>218.0</ele><time>2026-04-11T17:00:11.998Z</time></trkpt><trkpt lat="44.431620179762675" lon="11.059687420397186"><ele>220.0</ele><time>2026-04-11T17:00:12.998Z</time></trkpt><trkpt lat="44.43180576006424" lon="11.059725542448398"><ele>222.0</ele><time>2026-04-11T17:00:13.998Z</time></trkpt><trkpt lat="44.43198321055644" lon="11.0597708484236"><ele>224.0</ele><time>2026-04-11T17:00:14.998Z</time></trkpt><trkpt lat="44.43216015740918" lon="11.059808441329869"><ele>224.0</ele><time>2026-04-11T17:00:15.998Z</time></trkpt><trkpt lat="44.432321556450304" lon="11.059859036811272"><ele>224.0</ele><time>2026-04-11T17:00:16.998Z</time></trkpt><trkpt lat="44.432474531291206" lon="11.059918950248223"><ele>224.0</ele><time>2026-04-11T17:00:17.998Z</time></trkpt><trkpt lat="44.43264128080611" lon="11.059981076492143"><ele>219.33333333333334</ele><time>2026-04-11T17:00:18.998Z</time></trkpt><trkpt lat="44.43280782329268" lon="11.060045989739145"><ele>214.66666666666669</ele><time>2026-04-11T17:00:19.998Z</time></trkpt><trkpt lat="44.432976900552916" lon="11.060108516970796"><ele>210.0</ele><time>2026-04-11T17:00:20.998Z</time></trkpt><trkpt lat="44.43312542189057" lon="11.060154858917075"><ele>210.0</ele><time>2026-04-11T17:00:21.998Z</time></trkpt><trkpt lat="44.433266741028035" lon="11.06019080447041"><ele>210.0</ele><time>2026-04-11T17:00:22.998Z</time></trkpt><trkpt lat="44.433423691431344" lon="11.060220960398011"><ele>210.0</ele><time>2026-04-11T17:00:23.998Z</time></trkpt><trkpt lat="44.43358591295534" lon="11.06024771849917"><ele>210.0</ele><time>2026-04-11T17:00:24.998Z</time></trkpt><trkpt lat="44.433741113925755" lon="11.060270768358203"><ele>210.0</ele><time>2026-04-11T17:00:25.998Z</time></trkpt><trkpt lat="44.43388752221027" lon="11.06029005578394"><ele>210.0</ele><time>2026-04-11T17:00:26.998Z</time></trkpt><trkpt lat="44.43402696745669" lon="11.060323963565027"><ele>210.0</ele><time>2026-04-11T17:00:27.998Z</time></trkpt><trkpt lat="44.43414380293509" lon="11.060348834792029"><ele>209.0</ele><time>2026-04-11T17:00:28.998Z</time></trkpt><trkpt lat="44.434249975482615" lon="11.060390046198155"><ele>208.0</ele><time>2026-04-11T17:00:29.998Z</time></trkpt><trkpt lat="44.434363889763056" lon="11.060425277278535"><ele>207.0</ele><time>2026-04-11T17:00:30.998Z</time></trkpt><trkpt lat="44.43445819309645" lon="11.06049002940033"><ele>206.0</ele><time>2026-04-11T17:00:31.998Z</time></trkpt><trkpt lat="44.4345516623253" lon="11.060544190195591"><ele>205.0</ele><time>2026-04-11T17:00:32.998Z</time></trkpt><trkpt lat="44.43461695788153" lon="11.060582493308617"><ele>203.99999999999997</ele><time>2026-04-11T17:00:33.998Z</time></trkpt><trkpt lat="44.434672938293936" lon="11.060656967735062"><ele>203.0</ele><time>2026-04-11T17:00:34.998Z</time></trkpt><trkpt lat="44.434727365487305" lon="11.060760776630163"><ele>202.0</ele><time>2026-04-11T17:00:35.998Z</time></trkpt><trkpt lat="44.4347931297377" lon="11.06086639743823"><ele>201.0</ele><time>2026-04-11T17:00:36.999Z</time></trkpt><trkpt lat="44.43485662351198" lon="11.060944469098464"><ele>199.99999999999997</ele><time>2026-04-11T17:00:37.999Z</time></trkpt><trkpt lat="44.43493586013618" lon="11.061000540779702"><ele>199.0</ele><time>2026-04-11T17:00:38.999Z</time></trkpt><trkpt lat="44.435018478927205" lon="11.060996791610616"><ele>198.99999999999997</ele><time>2026-04-11T17:00:39.999Z</time></trkpt><trkpt lat="44.43507998435424" lon="11.060933923428978"><ele>199.0</ele><time>2026-04-11T17:00:40.999Z</time></trkpt><trkpt lat="44.43511036335063" lon="11.060828703774563"><ele>199.0</ele><time>2026-04-11T17:00:41.999Z</time></trkpt><trkpt lat="44.435094580026316" lon="11.060712459066353"><ele>199.0</ele><time>2026-04-11T17:00:42.999Z</time></trkpt><trkpt lat="44.4350519538651" lon="11.06059621450206"><ele>198.99999999999997</ele><time>2026-04-11T17:00:43.999Z</time></trkpt><trkpt lat="44.4349995081248" lon="11.060469638588687"><ele>199.0</ele><time>2026-04-11T17:00:44.999Z</time></trkpt><trkpt lat="44.4349614239902" lon="11.060312055699058"><ele>199.0</ele><time>2026-04-11T17:00:45.999Z</time></trkpt><trkpt lat="44.43496355428757" lon="11.06011802406469"><ele>199.0</ele><time>2026-04-11T17:00:47Z</time></trkpt><trkpt lat="44.434970761488245" lon="11.059904071345375"><ele>199.0</ele><time>2026-04-11T17:00:48Z</time></trkpt><trkpt lat="44.434982632751115" lon="11.059662445048154"><ele>198.66666666666666</ele><time>2026-04-11T17:00:49Z</time></trkpt><trkpt lat="44.43499765078672" lon="11.059384820372491"><ele>198.33333333333331</ele><time>2026-04-11T17:00:50Z</time></trkpt><trkpt lat="44.435002447821724" lon="11.059081955921606"><ele>198.0</ele><time>2026-04-11T17:00:51Z</time></trkpt><trkpt lat="44.4350223611244" lon="11.058773858203041"><ele>196.66666666666669</ele><time>2026-04-11T17:00:52Z</time></trkpt><trkpt lat="44.435036185084726" lon="11.058464155734015"><ele>195.33333333333334</ele><time>2026-04-11T17:00:53Z</time></trkpt><trkpt lat="44.43505202273" lon="11.058164918686073"><ele>194.0</ele><time>2026-04-11T17:00:54Z</time></trkpt><trkpt lat="44.43507058030907" lon="11.057847024367994"><ele>193.5</ele><time>2026-04-11T17:00:55Z</time></trkpt><trkpt lat="44.43509027741251" lon="11.057525738001406"><ele>193.0</ele><time>2026-04-11T17:00:56Z</time></trkpt><trkpt lat="44.43510864846179" lon="11.057203515287709"><ele>192.66666666666666</ele><time>2026-04-11T17:00:57Z</time></trkpt><trkpt lat="44.435129681759534" lon="11.056880805612913"><ele>192.33333333333331</ele><time>2026-04-11T17:00:58Z</time></trkpt><trkpt lat="44.43514720577824" lon="11.056579598886074"><ele>192.0</ele><time>2026-04-11T17:00:59Z</time></trkpt><trkpt lat="44.4351671741023" lon="11.05630761925673"><ele>192.0</ele><time>2026-04-11T17:01:00Z</time></trkpt><trkpt lat="44.43518269486372" lon="11.056016979664063"><ele>192.0</ele><time>2026-04-11T17:01:00.999Z</time></trkpt><trkpt lat="44.43519943251504" lon="11.05573002264623"><ele>192.0</ele><time>2026-04-11T17:01:01.999Z</time></trkpt><trkpt lat="44.43521687314155" lon="11.0554445933895"><ele>191.66666666666666</ele><time>2026-04-11T17:01:02.999Z</time></trkpt><trkpt lat="44.43523193620477" lon="11.055149547268364"><ele>191.33333333333331</ele><time>2026-04-11T17:01:03.999Z</time></trkpt><trkpt lat="44.43524561240713" lon="11.054867939179278"><ele>191.0</ele><time>2026-04-11T17:01:04.999Z</time></trkpt><trkpt lat="44.43525867916281" lon="11.05463284869004"><ele>191.33333333333331</ele><time>2026-04-11T17:01:05.999Z</time></trkpt><trkpt lat="44.43527394011775" lon="11.054471986957509"><ele>191.66666666666666</ele><time>2026-04-11T17:01:06.999Z</time></trkpt><trkpt lat="44.435281490642446" lon="11.054356564911265"><ele>192.0</ele><time>2026-04-11T17:01:07.999Z</time></trkpt><trkpt lat="44.43528039563094" lon="11.054235795933709"><ele>192.33333333333331</ele><time>2026-04-11T17:01:08.999Z</time></trkpt><trkpt lat="44.4352903045678" lon="11.054126197530481"><ele>192.66666666666666</ele><time>2026-04-11T17:01:09.999Z</time></trkpt><trkpt lat="44.43529934817301" lon="11.054014972217447"><ele>193.0</ele><time>2026-04-11T17:01:12.999Z</time></trkpt><trkpt lat="44.435293149849" lon="11.054173267884288"><ele>193.25</ele><time>2026-04-11T17:01:17.999Z</time></trkpt><trkpt lat="44.43526230779108" lon="11.054346602996674"><ele>193.5</ele><time>2026-04-11T17:01:18.999Z</time></trkpt><trkpt lat="44.435253585238634" lon="11.054507035885115"><ele>193.75</ele><time>2026-04-11T17:01:19.999Z</time></trkpt><trkpt lat="44.43524349368539" lon="11.054689382406384"><ele>194.0</ele><time>2026-04-11T17:01:20.999Z</time></trkpt><trkpt lat="44.435231617251425" lon="11.054877820810605"><ele>193.0</ele><time>2026-04-11T17:01:21.999Z</time></trkpt><trkpt lat="44.43522550539197" lon="11.055077925140628"><ele>192.0</ele><time>2026-04-11T17:01:22.999Z</time></trkpt><trkpt lat="44.43521282980171" lon="11.055272322225456"><ele>191.0</ele><time>2026-04-11T17:01:23.999Z</time></trkpt><trkpt lat="44.435191488308625" lon="11.055509182862725"><ele>191.0</ele><time>2026-04-11T17:01:24.999Z</time></trkpt><trkpt lat="44.43518052310034" lon="11.055734297721264"><ele>191.0</ele><time>2026-04-11T17:01:25.999Z</time></trkpt><trkpt lat="44.435161208461835" lon="11.055923309926607"><ele>191.0</ele><time>2026-04-11T17:01:26.999Z</time></trkpt><trkpt lat="44.435146205078134" lon="11.05607948892697"><ele>191.0</ele><time>2026-04-11T17:01:27.999Z</time></trkpt><trkpt lat="44.43513686729971" lon="11.056204120788053"><ele>191.25</ele><time>2026-04-11T17:01:28.999Z</time></trkpt><trkpt lat="44.43512883664174" lon="11.056307387794602"><ele>191.5</ele><time>2026-04-11T17:01:29.999Z</time></trkpt><trkpt lat="44.43513809549784" lon="11.056473062788791"><ele>191.75</ele><time>2026-04-11T17:01:31.999Z</time></trkpt><trkpt lat="44.435127717943125" lon="11.05660640759003"><ele>192.0</ele><time>2026-04-11T17:01:33.999Z</time></trkpt><trkpt lat="44.43534637197534" lon="11.056676829165667"><ele>192.0</ele><time>2026-04-11T17:01:37.999Z</time></trkpt><trkpt lat="44.435464574843735" lon="11.056729385587563"><ele>192.0</ele><time>2026-04-11T17:01:39.999Z</time></trkpt><trkpt lat="44.43554671900485" lon="11.056775202122804"><ele>192.0</ele><time>2026-04-11T17:01:40.999Z</time></trkpt><trkpt lat="44.43563922725715" lon="11.05683346217666"><ele>192.0</ele><time>2026-04-11T17:01:41.999Z</time></trkpt><trkpt lat="44.43574044749157" lon="11.056885787044479"><ele>192.0</ele><time>2026-04-11T17:01:42.999Z</time></trkpt><trkpt lat="44.435837386439154" lon="11.056913044197785"><ele>191.0</ele><time>2026-04-11T17:01:43.999Z</time></trkpt><trkpt lat="44.43591738915718" lon="11.056955418273116"><ele>190.0</ele><time>2026-04-11T17:01:44.999Z</time></trkpt><trkpt lat="44.43598578244843" lon="11.056990464169239"><ele>189.0</ele><time>2026-04-11T17:01:46.999Z</time></trkpt><trkpt lat="44.43608725270179" lon="11.057045864819342"><ele>188.0</ele><time>2026-04-11T17:01:49.999Z</time></trkpt><trkpt lat="44.43614853498628" lon="11.057083189504201"><ele>187.0</ele><time>2026-04-11T17:01:50.999Z</time></trkpt><trkpt lat="44.436212910438265" lon="11.057120217076912"><ele>186.0</ele><time>2026-04-11T17:01:51.999Z</time></trkpt><trkpt lat="44.436275119227616" lon="11.057187434322316"><ele>184.66666666666666</ele><time>2026-04-11T17:01:53.999Z</time></trkpt><trkpt lat="44.43641399110539" lon="11.057170489342226"><ele>183.33333333333331</ele><time>2026-04-11T17:01:55.999Z</time></trkpt><trkpt lat="44.43649266380139" lon="11.057054683092701"><ele>182.0</ele><time>2026-04-11T17:01:57.999Z</time></trkpt><trkpt lat="44.436349257681485" lon="11.05650873396209"><ele>181.66666666666666</ele><time>2026-04-11T17:01:58.999Z</time></trkpt><trkpt lat="44.43636876664058" lon="11.05630070549763"><ele>181.33333333333334</ele><time>2026-04-11T17:01:59.999Z</time></trkpt><trkpt lat="44.43639408466732" lon="11.05606876745295"><ele>181.0</ele><time>2026-04-11T17:02:00.999Z</time></trkpt><trkpt lat="44.43642052302894" lon="11.055830139417584"><ele>181.33333333333334</ele><time>2026-04-11T17:02:01.999Z</time></trkpt><trkpt lat="44.43644554695868" lon="11.05561634939084"><ele>181.66666666666666</ele><time>2026-04-11T17:02:02.999Z</time></trkpt><trkpt lat="44.436466490444474" lon="11.055396811011565"><ele>182.0</ele><time>2026-04-11T17:02:03.999Z</time></trkpt><trkpt lat="44.43648720837716" lon="11.055173020371221"><ele>181.66666666666666</ele><time>2026-04-11T17:02:04.999Z</time></trkpt><trkpt lat="44.43651280325113" lon="11.054953004635866"><ele>181.33333333333334</ele><time>2026-04-11T17:02:05.999Z</time></trkpt><trkpt lat="44.436532788188885" lon="11.054746054225754"><ele>181.0</ele><time>2026-04-11T17:02:06.999Z</time></trkpt><trkpt lat="44.43655471834965" lon="11.054541795382617"><ele>181.0</ele><time>2026-04-11T17:02:07.999Z</time></trkpt><trkpt lat="44.43658284459655" lon="11.054361868007495"><ele>181.0</ele><time>2026-04-11T17:02:08.999Z</time></trkpt><trkpt lat="44.43660983954698" lon="11.054187190616204"><ele>181.0</ele><time>2026-04-11T17:02:09.999Z</time></trkpt><trkpt lat="44.436629079732874" lon="11.054013926825489"><ele>181.0</ele><time>2026-04-11T17:02:10.999Z</time></trkpt><trkpt lat="44.43664213433803" lon="11.053859825461444"><ele>180.83333333333334</ele><time>2026-04-11T17:02:11.999Z</time></trkpt><trkpt lat="44.43664702786882" lon="11.053745752874242"><ele>180.66666666666669</ele><time>2026-04-11T17:02:12.999Z</time></trkpt><trkpt lat="44.43664361878305" lon="11.053651136754862"><ele>180.5</ele><time>2026-04-11T17:02:13.998Z</time></trkpt><trkpt lat="44.43661458765198" lon="11.053563414877605"><ele>180.33333333333334</ele><time>2026-04-11T17:02:14.998Z</time></trkpt><trkpt lat="44.436558703091286" lon="11.053475943925829"><ele>180.16666666666666</ele><time>2026-04-11T17:02:15.998Z</time></trkpt><trkpt lat="44.43648740350065" lon="11.053376078579113"><ele>180.0</ele><time>2026-04-11T17:02:16.998Z</time></trkpt><trkpt lat="44.43639885289335" lon="11.053262161900994"><ele>180.5</ele><time>2026-04-11T17:02:17.998Z</time></trkpt><trkpt lat="44.436313320581064" lon="11.053140746007767"><ele>181.0</ele><time>2026-04-11T17:02:18.998Z</time></trkpt><trkpt lat="44.43621564995661" lon="11.053002668303456"><ele>181.5</ele><time>2026-04-11T17:02:19.998Z</time></trkpt><trkpt lat="44.43612111532349" lon="11.052856169940082"><ele>182.0</ele><time>2026-04-11T17:02:20.998Z</time></trkpt><trkpt lat="44.43603438568966" lon="11.052722438068747"><ele>182.39999999999998</ele><time>2026-04-11T17:02:21.998Z</time></trkpt><trkpt lat="44.43595971101402" lon="11.052606422686122"><ele>182.79999999999998</ele><time>2026-04-11T17:02:22.998Z</time></trkpt><trkpt lat="44.43587943717793" lon="11.052495261960711"><ele>183.2</ele><time>2026-04-11T17:02:23.998Z</time></trkpt><trkpt lat="44.435794648624224" lon="11.052373630976758"><ele>183.6</ele><time>2026-04-11T17:02:24.998Z</time></trkpt><trkpt lat="44.43573298262107" lon="11.052269488161157"><ele>184.0</ele><time>2026-04-11T17:02:25.998Z</time></trkpt><trkpt lat="44.43568450250928" lon="11.052195963971599"><ele>184.2</ele><time>2026-04-11T17:02:26.998Z</time></trkpt><trkpt lat="44.43571921437461" lon="11.052041324756456"><ele>184.39999999999998</ele><time>2026-04-11T17:02:31.998Z</time></trkpt><trkpt lat="44.43577136995507" lon="11.051960789776249"><ele>184.6</ele><time>2026-04-11T17:02:32.998Z</time></trkpt><trkpt lat="44.435835443466914" lon="11.05185506907498"><ele>184.8</ele><time>2026-04-11T17:02:33.998Z</time></trkpt><trkpt lat="44.43590590584596" lon="11.051723503844324"><ele>185.0</ele><time>2026-04-11T17:02:34.998Z</time></trkpt><trkpt lat="44.43599359809318" lon="11.051570526279399"><ele>185.66666666666666</ele><time>2026-04-11T17:02:35.998Z</time></trkpt><trkpt lat="44.4360932401862" lon="11.051405816120775"><ele>186.33333333333334</ele><time>2026-04-11T17:02:36.998Z</time></trkpt><trkpt lat="44.43620155063034" lon="11.051233129998902"><ele>187.0</ele><time>2026-04-11T17:02:37.998Z</time></trkpt><trkpt lat="44.43631121800161" lon="11.051037176494125"><ele>187.66666666666669</ele><time>2026-04-11T17:02:38.998Z</time></trkpt><trkpt lat="44.43642239599024" lon="11.050851898432581"><ele>188.33333333333334</ele><time>2026-04-11T17:02:39.998Z</time></trkpt><trkpt lat="44.43653347541586" lon="11.050675539517977"><ele>189.0</ele><time>2026-04-11T17:02:40.998Z</time></trkpt><trkpt lat="44.436635779962636" lon="11.05049921504057"><ele>189.66666666666666</ele><time>2026-04-11T17:02:41.998Z</time></trkpt><trkpt lat="44.43672858900949" lon="11.050309317464752"><ele>190.33333333333331</ele><time>2026-04-11T17:02:43Z</time></trkpt><trkpt lat="44.43680533279973" lon="11.050099725563697"><ele>191.0</ele><time>2026-04-11T17:02:44Z</time></trkpt><trkpt lat="44.436862892422994" lon="11.049894819377391"><ele>191.0</ele><time>2026-04-11T17:02:45Z</time></trkpt><trkpt lat="44.43692828916292" lon="11.049657310870593"><ele>191.0</ele><time>2026-04-11T17:02:46Z</time></trkpt><trkpt lat="44.43698802143673" lon="11.049419963928056"><ele>191.0</ele><time>2026-04-11T17:02:47Z</time></trkpt><trkpt lat="44.4370550152777" lon="11.049172735787476"><ele>191.66666666666666</ele><time>2026-04-11T17:02:48Z</time></trkpt><trkpt lat="44.43711543813531" lon="11.048954762709203"><ele>192.33333333333331</ele><time>2026-04-11T17:02:49Z</time></trkpt><trkpt lat="44.43716645552031" lon="11.048751171726142"><ele>193.0</ele><time>2026-04-11T17:02:50Z</time></trkpt><trkpt lat="44.437254539503364" lon="11.048543266671068"><ele>195.66666666666666</ele><time>2026-04-11T17:02:51Z</time></trkpt><trkpt lat="44.43731505101227" lon="11.048314186557615"><ele>198.33333333333331</ele><time>2026-04-11T17:02:52Z</time></trkpt><trkpt lat="44.43737696374234" lon="11.048072021263708"><ele>201.0</ele><time>2026-04-11T17:02:53Z</time></trkpt><trkpt lat="44.437416071707034" lon="11.04781446046471"><ele>201.33333333333331</ele><time>2026-04-11T17:02:54Z</time></trkpt><trkpt lat="44.4374537767189" lon="11.047563731634618"><ele>201.66666666666666</ele><time>2026-04-11T17:02:55Z</time></trkpt><trkpt lat="44.43748274070484" lon="11.047287531349507"><ele>202.0</ele><time>2026-04-11T17:02:56Z</time></trkpt><trkpt lat="44.43750360502296" lon="11.046987048386617"><ele>202.0</ele><time>2026-04-11T17:02:57Z</time></trkpt><trkpt lat="44.43753805291552" lon="11.046681252874487"><ele>202.0</ele><time>2026-04-11T17:02:58Z</time></trkpt><trkpt lat="44.437529123146106" lon="11.04637386146498"><ele>202.0</ele><time>2026-04-11T17:02:59Z</time></trkpt><trkpt lat="44.43753215139436" lon="11.046077827904005"><ele>205.0</ele><time>2026-04-11T17:03:00Z</time></trkpt><trkpt lat="44.437533662084924" lon="11.045778272665268"><ele>208.0</ele><time>2026-04-11T17:03:01Z</time></trkpt><trkpt lat="44.43753600759794" lon="11.045502368082017"><ele>211.0</ele><time>2026-04-11T17:03:02Z</time></trkpt><trkpt lat="44.43753950532221" lon="11.045252096178075"><ele>211.0</ele><time>2026-04-11T17:03:03Z</time></trkpt><trkpt lat="44.437549627942495" lon="11.04501131855045"><ele>211.0</ele><time>2026-04-11T17:03:04Z</time></trkpt><trkpt lat="44.437565538511166" lon="11.04476537611836"><ele>211.0</ele><time>2026-04-11T17:03:05Z</time></trkpt><trkpt lat="44.437616123663005" lon="11.044515898588081"><ele>211.66666666666666</ele><time>2026-04-11T17:03:06Z</time></trkpt><trkpt lat="44.43767195303179" lon="11.044257864887456"><ele>212.33333333333331</ele><time>2026-04-11T17:03:07Z</time></trkpt><trkpt lat="44.43773695029829" lon="11.044008336097777"><ele>213.0</ele><time>2026-04-11T17:03:08Z</time></trkpt><trkpt lat="44.43779984387182" lon="11.043772947542394"><ele>214.0</ele><time>2026-04-11T17:03:09Z</time></trkpt><trkpt lat="44.43785756174488" lon="11.04355772290636"><ele>215.0</ele><time>2026-04-11T17:03:10Z</time></trkpt><trkpt lat="44.437900323755336" lon="11.043335255813943"><ele>216.0</ele><time>2026-04-11T17:03:11Z</time></trkpt><trkpt lat="44.43796571435275" lon="11.043144625542881"><ele>219.0</ele><time>2026-04-11T17:03:12Z</time></trkpt><trkpt lat="44.438007186757474" lon="11.043009960056125"><ele>222.0</ele><time>2026-04-11T17:03:13Z</time></trkpt><trkpt lat="44.43803932675882" lon="11.042927640460345"><ele>225.0</ele><time>2026-04-11T17:03:14Z</time></trkpt><trkpt lat="44.438076193674284" lon="11.042853150170153"><ele>228.0</ele><time>2026-04-11T17:03:15Z</time></trkpt><trkpt lat="44.438163340620626" lon="11.04284661790479"><ele>231.0</ele><time>2026-04-11T17:03:16Z</time></trkpt><trkpt lat="44.438239333626385" lon="11.042912699340798"><ele>234.0</ele><time>2026-04-11T17:03:17Z</time></trkpt><trkpt lat="44.438297214144335" lon="11.043038531945125"><ele>234.0</ele><time>2026-04-11T17:03:18Z</time></trkpt><trkpt lat="44.438345342048414" lon="11.043179887558495"><ele>234.0</ele><time>2026-04-11T17:03:19Z</time></trkpt><trkpt lat="44.4383988116346" lon="11.043326014272173"><ele>234.0</ele><time>2026-04-11T17:03:20Z</time></trkpt><trkpt lat="44.43847630270404" lon="11.043487441364919"><ele>234.0</ele><time>2026-04-11T17:03:21Z</time></trkpt><trkpt lat="44.43857268064589" lon="11.043662949227366"><ele>234.66666666666669</ele><time>2026-04-11T17:03:22Z</time></trkpt><trkpt lat="44.43866959569219" lon="11.043840391164032"><ele>235.33333333333334</ele><time>2026-04-11T17:03:23Z</time></trkpt><trkpt lat="44.43876448014636" lon="11.044028745657462"><ele>236.0</ele><time>2026-04-11T17:03:24Z</time></trkpt><trkpt lat="44.43883555159996" lon="11.044191046776376"><ele>236.0</ele><time>2026-04-11T17:03:25Z</time></trkpt><trkpt lat="44.43890074067001" lon="11.044334469740466"><ele>236.00000000000003</ele><time>2026-04-11T17:03:26Z</time></trkpt><trkpt lat="44.438959261270085" lon="11.044428338637935"><ele>236.00000000000003</ele><time>2026-04-11T17:03:27Z</time></trkpt><trkpt lat="44.43903087924316" lon="11.044466578776085"><ele>236.0</ele><time>2026-04-11T17:03:28Z</time></trkpt><trkpt lat="44.43911652507564" lon="11.04434304272896"><ele>236.0</ele><time>2026-04-11T17:03:30Z</time></trkpt><trkpt lat="44.43910875215122" lon="11.04423099647053"><ele>237.4</ele><time>2026-04-11T17:03:31Z</time></trkpt><trkpt lat="44.439078986438574" lon="11.044116708473343"><ele>238.8</ele><time>2026-04-11T17:03:32Z</time></trkpt><trkpt lat="44.43904789212461" lon="11.043985854694053"><ele>240.20000000000002</ele><time>2026-04-11T17:03:32.999Z</time></trkpt><trkpt lat="44.43901893887617" lon="11.04383682417623"><ele>241.60000000000002</ele><time>2026-04-11T17:03:33.999Z</time></trkpt><trkpt lat="44.43899720212873" lon="11.043666377679497"><ele>243.0</ele><time>2026-04-11T17:03:34.999Z</time></trkpt><trkpt lat="44.43897911201374" lon="11.043475398780974"><ele>246.33333333333331</ele><time>2026-04-11T17:03:35.999Z</time></trkpt><trkpt lat="44.438970214125" lon="11.043282094124116"><ele>249.66666666666666</ele><time>2026-04-11T17:03:36.999Z</time></trkpt><trkpt lat="44.43897346940408" lon="11.043063444529974"><ele>253.0</ele><time>2026-04-11T17:03:37.999Z</time></trkpt><trkpt lat="44.4389850201738" lon="11.042826472946661"><ele>253.0</ele><time>2026-04-11T17:03:38.999Z</time></trkpt><trkpt lat="44.43899485918845" lon="11.042588233475918"><ele>253.0</ele><time>2026-04-11T17:03:39.999Z</time></trkpt><trkpt lat="44.43899981893994" lon="11.04235711392247"><ele>253.0</ele><time>2026-04-11T17:03:40.999Z</time></trkpt><trkpt lat="44.43900256588361" lon="11.042122658673774"><ele>254.66666666666666</ele><time>2026-04-11T17:03:41.999Z</time></trkpt><trkpt lat="44.439022201103924" lon="11.041917546840395"><ele>256.3333333333333</ele><time>2026-04-11T17:03:42.999Z</time></trkpt><trkpt lat="44.439057618220055" lon="11.041716427843836"><ele>258.0</ele><time>2026-04-11T17:03:43.999Z</time></trkpt><trkpt lat="44.43910555343349" lon="11.04150867765048"><ele>258.3333333333333</ele><time>2026-04-11T17:03:44.999Z</time></trkpt><trkpt lat="44.43915805884185" lon="11.041296245767494"><ele>258.66666666666663</ele><time>2026-04-11T17:03:45.999Z</time></trkpt><trkpt lat="44.439213315711996" lon="11.0410860916551"><ele>259.0</ele><time>2026-04-11T17:03:46.999Z</time></trkpt><trkpt lat="44.43925385828777" lon="11.040861713425132"><ele>260.3333333333333</ele><time>2026-04-11T17:03:47.999Z</time></trkpt><trkpt lat="44.43928669665612" lon="11.040626958063024"><ele>261.6666666666667</ele><time>2026-04-11T17:03:48.999Z</time></trkpt><trkpt lat="44.43930932877284" lon="11.040396982015936"><ele>263.0</ele><time>2026-04-11T17:03:49.999Z</time></trkpt><trkpt lat="44.43930919482494" lon="11.04015899182765"><ele>263.33333333333337</ele><time>2026-04-11T17:03:50.999Z</time></trkpt><trkpt lat="44.4392931545385" lon="11.039950551783619"><ele>263.6666666666667</ele><time>2026-04-11T17:03:51.999Z</time></trkpt><trkpt lat="44.43924797414899" lon="11.039750526029263"><ele>264.0</ele><time>2026-04-11T17:03:52.999Z</time></trkpt><trkpt lat="44.43918936386338" lon="11.03953977474076"><ele>264.0</ele><time>2026-04-11T17:03:53.999Z</time></trkpt><trkpt lat="44.43912626754828" lon="11.039330161755805"><ele>264.0</ele><time>2026-04-11T17:03:54.999Z</time></trkpt><trkpt lat="44.439069223619384" lon="11.03911002063041"><ele>264.0</ele><time>2026-04-11T17:03:55.999Z</time></trkpt><trkpt lat="44.4390404248412" lon="11.038868303601001"><ele>265.0</ele><time>2026-04-11T17:03:56.999Z</time></trkpt><trkpt lat="44.43898514505077" lon="11.038622867060209"><ele>266.0</ele><time>2026-04-11T17:03:57.999Z</time></trkpt><trkpt lat="44.43890405668052" lon="11.03839363043756"><ele>267.0</ele><time>2026-04-11T17:03:58.999Z</time></trkpt><trkpt lat="44.43883723373364" lon="11.038179189091304"><ele>271.0</ele><time>2026-04-11T17:03:59.999Z</time></trkpt><trkpt lat="44.43877214002534" lon="11.037957017347994"><ele>275.0</ele><time>2026-04-11T17:04:00.999Z</time></trkpt><trkpt lat="44.43872254044078" lon="11.037719038391488"><ele>279.0</ele><time>2026-04-11T17:04:01.999Z</time></trkpt><trkpt lat="44.43866742671962" lon="11.03751630029273"><ele>279.5</ele><time>2026-04-11T17:04:02.999Z</time></trkpt><trkpt lat="44.438617412707394" lon="11.037332321671837"><ele>280.0</ele><time>2026-04-11T17:04:03.999Z</time></trkpt><trkpt lat="44.438574743759624" lon="11.037172792622133"><ele>280.5</ele><time>2026-04-11T17:04:04.999Z</time></trkpt><trkpt lat="44.43852317167171" lon="11.037041420101183"><ele>281.0</ele><time>2026-04-11T17:04:05.999Z</time></trkpt><trkpt lat="44.43848797555409" lon="11.036885217703245"><ele>281.0</ele><time>2026-04-11T17:04:06.999Z</time></trkpt><trkpt lat="44.43846654700324" lon="11.03671283165385"><ele>281.0</ele><time>2026-04-11T17:04:07.999Z</time></trkpt><trkpt lat="44.43845811230216" lon="11.036522500134463"><ele>281.0</ele><time>2026-04-11T17:04:08.999Z</time></trkpt><trkpt lat="44.438461689741985" lon="11.036330686267917"><ele>281.0</ele><time>2026-04-11T17:04:09.999Z</time></trkpt><trkpt lat="44.43847454876139" lon="11.036125046016702"><ele>282.0</ele><time>2026-04-11T17:04:10.999Z</time></trkpt><trkpt lat="44.4384893846528" lon="11.035909168209892"><ele>283.0</ele><time>2026-04-11T17:04:11.999Z</time></trkpt><trkpt lat="44.4384914532429" lon="11.03566882520841"><ele>284.0</ele><time>2026-04-11T17:04:12.999Z</time></trkpt><trkpt lat="44.438506367974476" lon="11.035455536412496"><ele>286.0</ele><time>2026-04-11T17:04:13.999Z</time></trkpt><trkpt lat="44.43851603890906" lon="11.035206912722881"><ele>288.0</ele><time>2026-04-11T17:04:14.999Z</time></trkpt><trkpt lat="44.43852607104899" lon="11.034949002993919"><ele>290.0</ele><time>2026-04-11T17:04:15.999Z</time></trkpt><trkpt lat="44.438536990886135" lon="11.034671742798485"><ele>292.0</ele><time>2026-04-11T17:04:16.999Z</time></trkpt><trkpt lat="44.43853383809014" lon="11.034386697872756"><ele>294.0</ele><time>2026-04-11T17:04:17.999Z</time></trkpt><trkpt lat="44.43854603495574" lon="11.034086048853602"><ele>296.0</ele><time>2026-04-11T17:04:18.999Z</time></trkpt><trkpt lat="44.43857332722098" lon="11.033780323779887"><ele>298.33333333333337</ele><time>2026-04-11T17:04:19.999Z</time></trkpt><trkpt lat="44.43857335081143" lon="11.033524855706197"><ele>300.6666666666667</ele><time>2026-04-11T17:04:20.999Z</time></trkpt><trkpt lat="44.43858345281472" lon="11.033304513986376"><ele>303.0</ele><time>2026-04-11T17:04:21.999Z</time></trkpt><trkpt lat="44.43857851862964" lon="11.033080547127735"><ele>305.75</ele><time>2026-04-11T17:04:22.999Z</time></trkpt><trkpt lat="44.438567693333844" lon="11.032892406828164"><ele>308.5</ele><time>2026-04-11T17:04:23.999Z</time></trkpt><trkpt lat="44.438530150313916" lon="11.032727924785021"><ele>311.25</ele><time>2026-04-11T17:04:24.999Z</time></trkpt><trkpt lat="44.43851112574686" lon="11.032594778130525"><ele>314.0</ele><time>2026-04-11T17:04:25.999Z</time></trkpt><trkpt lat="44.43855526891177" lon="11.03247052118657"><ele>314.5</ele><time>2026-04-11T17:04:26.999Z</time></trkpt><trkpt lat="44.43855503033882" lon="11.032308960920128"><ele>315.0</ele><time>2026-04-11T17:04:27.999Z</time></trkpt><trkpt lat="44.43857504504069" lon="11.032135448898567"><ele>315.5</ele><time>2026-04-11T17:04:28.999Z</time></trkpt><trkpt lat="44.4385772023893" lon="11.031942743067631"><ele>316.0</ele><time>2026-04-11T17:04:29.999Z</time></trkpt><trkpt lat="44.43855798437874" lon="11.031746576857728"><ele>313.25</ele><time>2026-04-11T17:04:30.999Z</time></trkpt><trkpt lat="44.4385297594042" lon="11.031539447706407"><ele>310.5</ele><time>2026-04-11T17:04:31.999Z</time></trkpt><trkpt lat="44.438486021743984" lon="11.03134257162863"><ele>307.75</ele><time>2026-04-11T17:04:32.999Z</time></trkpt><trkpt lat="44.43842719355154" lon="11.031166477252688"><ele>305.0</ele><time>2026-04-11T17:04:33.999Z</time></trkpt><trkpt lat="44.438326699629414" lon="11.030980340610581"><ele>305.0</ele><time>2026-04-11T17:04:34.999Z</time></trkpt><trkpt lat="44.4381940075981" lon="11.030810690101577"><ele>305.0</ele><time>2026-04-11T17:04:35.999Z</time></trkpt><trkpt lat="44.43804145829181" lon="11.030630726754566"><ele>305.0</ele><time>2026-04-11T17:04:36.999Z</time></trkpt><trkpt lat="44.437930839719364" lon="11.030477697066633"><ele>305.5</ele><time>2026-04-11T17:04:37.999Z</time></trkpt><trkpt lat="44.43783913394703" lon="11.030340320355544"><ele>306.0</ele><time>2026-04-11T17:04:38.998Z</time></trkpt><trkpt lat="44.437775771658586" lon="11.030210204983229"><ele>306.5</ele><time>2026-04-11T17:04:39.998Z</time></trkpt><trkpt lat="44.43772736165614" lon="11.030047775130827"><ele>307.0</ele><time>2026-04-11T17:04:40.998Z</time></trkpt><trkpt lat="44.43770029871665" lon="11.02988241500236"><ele>305.75</ele><time>2026-04-11T17:04:41.998Z</time></trkpt><trkpt lat="44.43769051206976" lon="11.029696009833405"><ele>304.5</ele><time>2026-04-11T17:04:42.998Z</time></trkpt><trkpt lat="44.4377059316401" lon="11.029508132775318"><ele>303.25</ele><time>2026-04-11T17:04:43.998Z</time></trkpt><trkpt lat="44.43775285175815" lon="11.029336384743528"><ele>302.0</ele><time>2026-04-11T17:04:44.998Z</time></trkpt><trkpt lat="44.43780107895102" lon="11.029150757301718"><ele>301.0</ele><time>2026-04-11T17:04:45.998Z</time></trkpt><trkpt lat="44.437878178308495" lon="11.02894067197257"><ele>300.0</ele><time>2026-04-11T17:04:46.998Z</time></trkpt><trkpt lat="44.43795086448971" lon="11.028720564367429"><ele>299.0</ele><time>2026-04-11T17:04:47.998Z</time></trkpt><trkpt lat="44.43800970303789" lon="11.028489000903264"><ele>302.33333333333337</ele><time>2026-04-11T17:04:49Z</time></trkpt><trkpt lat="44.438070718256384" lon="11.028236863006505"><ele>305.6666666666667</ele><time>2026-04-11T17:04:50Z</time></trkpt><trkpt lat="44.43812394120626" lon="11.027986620993275"><ele>309.0</ele><time>2026-04-11T17:04:51Z</time></trkpt><trkpt lat="44.43816729594204" lon="11.027762837049362"><ele>309.0</ele><time>2026-04-11T17:04:52Z</time></trkpt><trkpt lat="44.43821047665685" lon="11.027561731448577"><ele>309.0</ele><time>2026-04-11T17:04:53Z</time></trkpt><trkpt lat="44.438261459856925" lon="11.02736417160609"><ele>309.0</ele><time>2026-04-11T17:04:54Z</time></trkpt><trkpt lat="44.43830074001632" lon="11.027188696823732"><ele>309.0</ele><time>2026-04-11T17:04:55Z</time></trkpt><trkpt lat="44.43834688443648" lon="11.027035191337037"><ele>309.5</ele><time>2026-04-11T17:04:56Z</time></trkpt><trkpt lat="44.43842630685862" lon="11.026910875743615"><ele>310.0</ele><time>2026-04-11T17:04:57Z</time></trkpt><trkpt lat="44.438548252227" lon="11.02683592028991"><ele>310.5</ele><time>2026-04-11T17:04:58Z</time></trkpt><trkpt lat="44.438686776701324" lon="11.026803440208626"><ele>311.0</ele><time>2026-04-11T17:04:59Z</time></trkpt><trkpt lat="44.43884216393181" lon="11.026793103424927"><ele>311.0</ele><time>2026-04-11T17:05:00Z</time></trkpt><trkpt lat="44.43899931835698" lon="11.026781468429528"><ele>311.0</ele><time>2026-04-11T17:05:01Z</time></trkpt><trkpt lat="44.43916081254285" lon="11.02677068054304"><ele>311.0</ele><time>2026-04-11T17:05:02Z</time></trkpt><trkpt lat="44.439350765205496" lon="11.026752486061723"><ele>311.0</ele><time>2026-04-11T17:05:03Z</time></trkpt><trkpt lat="44.43953015615726" lon="11.02674119750919"><ele>311.0</ele><time>2026-04-11T17:05:04Z</time></trkpt><trkpt lat="44.43968757158153" lon="11.026730177231906"><ele>311.0</ele><time>2026-04-11T17:05:05Z</time></trkpt><trkpt lat="44.43983499930989" lon="11.026740442033482"><ele>308.5</ele><time>2026-04-11T17:05:06Z</time></trkpt><trkpt lat="44.43997956088846" lon="11.02673202649544"><ele>306.0</ele><time>2026-04-11T17:05:07Z</time></trkpt><trkpt lat="44.44012574340661" lon="11.026723516608943"><ele>303.5</ele><time>2026-04-11T17:05:08Z</time></trkpt><trkpt lat="44.440263869971346" lon="11.026715477543156"><ele>301.0</ele><time>2026-04-11T17:05:09Z</time></trkpt><trkpt lat="44.44040241261441" lon="11.026675527173516"><ele>298.0</ele><time>2026-04-11T17:05:10Z</time></trkpt><trkpt lat="44.44053809037438" lon="11.026680773090643"><ele>295.0</ele><time>2026-04-11T17:05:11Z</time></trkpt><trkpt lat="44.44066411834422" lon="11.026686814447173"><ele>292.0</ele><time>2026-04-11T17:05:12Z</time></trkpt><trkpt lat="44.44078659765904" lon="11.026692830877568"><ele>289.0</ele><time>2026-04-11T17:05:13Z</time></trkpt><trkpt lat="44.44088634134735" lon="11.026748599814782"><ele>289.0</ele><time>2026-04-11T17:05:14Z</time></trkpt><trkpt lat="44.44099386312074" lon="11.026805189747588"><ele>289.0</ele><time>2026-04-11T17:05:15Z</time></trkpt><trkpt lat="44.441120183462246" lon="11.026929972914846"><ele>289.0</ele><time>2026-04-11T17:05:16Z</time></trkpt><trkpt lat="44.44126581340687" lon="11.02706432523199"><ele>289.0</ele><time>2026-04-11T17:05:17Z</time></trkpt><trkpt lat="44.44141102550803" lon="11.027200720231434"><ele>285.3333333333333</ele><time>2026-04-11T17:05:18Z</time></trkpt><trkpt lat="44.44154864663926" lon="11.027333476630735"><ele>281.6666666666667</ele><time>2026-04-11T17:05:19Z</time></trkpt><trkpt lat="44.44168278405258" lon="11.027453499524547"><ele>278.0</ele><time>2026-04-11T17:05:20Z</time></trkpt><trkpt lat="44.44182311131746" lon="11.027578220528026"><ele>278.0</ele><time>2026-04-11T17:05:21Z</time></trkpt><trkpt lat="44.44195840466993" lon="11.027684674583542"><ele>278.0</ele><time>2026-04-11T17:05:22Z</time></trkpt><trkpt lat="44.44209473569975" lon="11.02777661858631"><ele>278.0</ele><time>2026-04-11T17:05:23Z</time></trkpt><trkpt lat="44.44220977766182" lon="11.027836146293481"><ele>278.0</ele><time>2026-04-11T17:05:24Z</time></trkpt><trkpt lat="44.442353001199464" lon="11.02787819700239"><ele>276.0</ele><time>2026-04-11T17:05:25Z</time></trkpt><trkpt lat="44.4425169773911" lon="11.027915810989287"><ele>274.0</ele><time>2026-04-11T17:05:26Z</time></trkpt><trkpt lat="44.44268455330735" lon="11.027931010633717"><ele>272.0</ele><time>2026-04-11T17:05:27Z</time></trkpt><trkpt lat="44.4428422751022" lon="11.027933759561792"><ele>269.75</ele><time>2026-04-11T17:05:28Z</time></trkpt><trkpt lat="44.442990168933584" lon="11.02793266918062"><ele>267.5</ele><time>2026-04-11T17:05:29Z</time></trkpt><trkpt lat="44.44312397712099" lon="11.027936767468974"><ele>265.25</ele><time>2026-04-11T17:05:30Z</time></trkpt><trkpt lat="44.44324934502458" lon="11.027927665626075"><ele>263.0</ele><time>2026-04-11T17:05:31Z</time></trkpt><trkpt lat="44.44338504074414" lon="11.027896484176322"><ele>263.0</ele><time>2026-04-11T17:05:32Z</time></trkpt><trkpt lat="44.4435144532627" lon="11.027845492139198"><ele>263.0</ele><time>2026-04-11T17:05:33Z</time></trkpt><trkpt lat="44.443626249357635" lon="11.027807517941513"><ele>263.0</ele><time>2026-04-11T17:05:34Z</time></trkpt><trkpt lat="44.443711111441544" lon="11.02780881285237"><ele>263.0</ele><time>2026-04-11T17:05:35Z</time></trkpt><trkpt lat="44.44377705477595" lon="11.027854860081002"><ele>263.0</ele><time>2026-04-11T17:05:36Z</time></trkpt><trkpt lat="44.44381638416514" lon="11.027940472527572"><ele>263.0</ele><time>2026-04-11T17:05:37Z</time></trkpt><trkpt lat="44.44381452322704" lon="11.028055509101867"><ele>263.0</ele><time>2026-04-11T17:05:38Z</time></trkpt><trkpt lat="44.44376245646634" lon="11.028176616884728"><ele>263.0</ele><time>2026-04-11T17:05:39Z</time></trkpt><trkpt lat="44.44368211168682" lon="11.028246695137849"><ele>263.0</ele><time>2026-04-11T17:05:40Z</time></trkpt><trkpt lat="44.443587316318194" lon="11.028262448923938"><ele>263.0</ele><time>2026-04-11T17:05:41Z</time></trkpt><trkpt lat="44.443502653039474" lon="11.02826567046284"><ele>263.0</ele><time>2026-04-11T17:05:42Z</time></trkpt><trkpt lat="44.443440957056765" lon="11.028298432190477"><ele>263.0</ele><time>2026-04-11T17:05:42.999Z</time></trkpt><trkpt lat="44.443399585521334" lon="11.028366468199415"><ele>263.0</ele><time>2026-04-11T17:05:43.999Z</time></trkpt><trkpt lat="44.443384058999484" lon="11.028465426721539"><ele>263.0</ele><time>2026-04-11T17:05:44.999Z</time></trkpt><trkpt lat="44.44340967328744" lon="11.028569879119269"><ele>263.0</ele><time>2026-04-11T17:05:45.999Z</time></trkpt><trkpt lat="44.44347680176071" lon="11.028654781478485"><ele>263.0</ele><time>2026-04-11T17:05:46.999Z</time></trkpt><trkpt lat="44.44357238775958" lon="11.02870601772151"><ele>262.2</ele><time>2026-04-11T17:05:47.999Z</time></trkpt><trkpt lat="44.44368819476612" lon="11.028744961390705"><ele>261.4</ele><time>2026-04-11T17:05:48.999Z</time></trkpt><trkpt lat="44.44379325589848" lon="11.02879308773163"><ele>260.59999999999997</ele><time>2026-04-11T17:05:49.999Z</time></trkpt><trkpt lat="44.443893333233795" lon="11.028843451232515"><ele>259.8</ele><time>2026-04-11T17:05:50.999Z</time></trkpt><trkpt lat="44.44399837652184" lon="11.028880907009937"><ele>259.0</ele><time>2026-04-11T17:05:51.999Z</time></trkpt><trkpt lat="44.44410359326915" lon="11.028901116150392"><ele>257.3333333333333</ele><time>2026-04-11T17:05:52.999Z</time></trkpt><trkpt lat="44.44420507511535" lon="11.028906240183966"><ele>255.66666666666666</ele><time>2026-04-11T17:05:53.999Z</time></trkpt><trkpt lat="44.44429708574164" lon="11.028907224603271"><ele>254.0</ele><time>2026-04-11T17:05:54.999Z</time></trkpt><trkpt lat="44.444380610468805" lon="11.028897829520455"><ele>252.33333333333331</ele><time>2026-04-11T17:05:55.999Z</time></trkpt><trkpt lat="44.4444656504723" lon="11.028887412518012"><ele>250.66666666666666</ele><time>2026-04-11T17:05:56.999Z</time></trkpt><trkpt lat="44.44453792755457" lon="11.028884182381285"><ele>249.0</ele><time>2026-04-11T17:05:57.999Z</time></trkpt><trkpt lat="44.44460435212704" lon="11.02889661873675"><ele>247.39999999999998</ele><time>2026-04-11T17:05:58.999Z</time></trkpt><trkpt lat="44.44466925803576" lon="11.028999111802031"><ele>245.79999999999998</ele><time>2026-04-11T17:06:00.999Z</time></trkpt><trkpt lat="44.44468537675357" lon="11.029093684676097"><ele>244.20000000000002</ele><time>2026-04-11T17:06:01.999Z</time></trkpt><trkpt lat="44.44465647199162" lon="11.029203879804287"><ele>242.60000000000002</ele><time>2026-04-11T17:06:02.999Z</time></trkpt><trkpt lat="44.44457953282641" lon="11.029287636942941"><ele>241.0</ele><time>2026-04-11T17:06:03.999Z</time></trkpt><trkpt lat="44.44448275740175" lon="11.029354949304203"><ele>241.0</ele><time>2026-04-11T17:06:04.999Z</time></trkpt><trkpt lat="44.444389843495316" lon="11.02941138403193"><ele>241.00000000000003</ele><time>2026-04-11T17:06:05.999Z</time></trkpt><trkpt lat="44.44429923892885" lon="11.029463198080515"><ele>241.00000000000003</ele><time>2026-04-11T17:06:06.999Z</time></trkpt><trkpt lat="44.4442014854734" lon="11.029510454322288"><ele>241.0</ele><time>2026-04-11T17:06:07.999Z</time></trkpt><trkpt lat="44.44410445694262" lon="11.029546476213792"><ele>241.0</ele><time>2026-04-11T17:06:08.999Z</time></trkpt><trkpt lat="44.444010410886584" lon="11.029567272159905"><ele>240.99999999999997</ele><time>2026-04-11T17:06:09.999Z</time></trkpt><trkpt lat="44.44391863460555" lon="11.02957394274551"><ele>241.0</ele><time>2026-04-11T17:06:10.999Z</time></trkpt><trkpt lat="44.44383499438116" lon="11.029584086318357"><ele>241.0</ele><time>2026-04-11T17:06:11.999Z</time></trkpt><trkpt lat="44.44376994081983" lon="11.029604672735319"><ele>241.0</ele><time>2026-04-11T17:06:12.999Z</time></trkpt><trkpt lat="44.44368367050568" lon="11.029732502568272"><ele>240.99999999999997</ele><time>2026-04-11T17:06:14.999Z</time></trkpt><trkpt lat="44.44368101462219" lon="11.029843620050299"><ele>241.0</ele><time>2026-04-11T17:06:15.999Z</time></trkpt><trkpt lat="44.44372066453392" lon="11.029949574211662"><ele>239.4</ele><time>2026-04-11T17:06:16.999Z</time></trkpt><trkpt lat="44.44379498499999" lon="11.030026709229837"><ele>237.8</ele><time>2026-04-11T17:06:17.999Z</time></trkpt><trkpt lat="44.443901181823485" lon="11.030074078562308"><ele>236.20000000000002</ele><time>2026-04-11T17:06:18.999Z</time></trkpt><trkpt lat="44.4440198456133" lon="11.03009326293632"><ele>234.60000000000002</ele><time>2026-04-11T17:06:19.999Z</time></trkpt><trkpt lat="44.444137630612104" lon="11.03010556908028"><ele>233.0</ele><time>2026-04-11T17:06:20.999Z</time></trkpt><trkpt lat="44.44425268460746" lon="11.030116236919335"><ele>233.2</ele><time>2026-04-11T17:06:21.999Z</time></trkpt><trkpt lat="44.4443700423867" lon="11.03011862807217"><ele>233.4</ele><time>2026-04-11T17:06:22.999Z</time></trkpt><trkpt lat="44.44447885562618" lon="11.030091047339345"><ele>233.59999999999997</ele><time>2026-04-11T17:06:23.999Z</time></trkpt><trkpt lat="44.44457866303908" lon="11.030049137631572"><ele>233.79999999999998</ele><time>2026-04-11T17:06:24.999Z</time></trkpt><trkpt lat="44.44467287382448" lon="11.029996830476852"><ele>234.0</ele><time>2026-04-11T17:06:25.999Z</time></trkpt><trkpt lat="44.44476137504138" lon="11.029933546225278"><ele>234.0</ele><time>2026-04-11T17:06:26.999Z</time></trkpt><trkpt lat="44.444843258791735" lon="11.029858929539413"><ele>234.00000000000003</ele><time>2026-04-11T17:06:27.999Z</time></trkpt><trkpt lat="44.44491020108612" lon="11.02980063202637"><ele>234.0</ele><time>2026-04-11T17:06:28.999Z</time></trkpt><trkpt lat="44.44497696863207" lon="11.029795774006702"><ele>234.0</ele><time>2026-04-11T17:06:29.999Z</time></trkpt><trkpt lat="44.445035692506906" lon="11.029828911276798"><ele>234.00000000000003</ele><time>2026-04-11T17:06:30.999Z</time></trkpt><trkpt lat="44.44508061915158" lon="11.029898795747375"><ele>234.0</ele><time>2026-04-11T17:06:31.999Z</time></trkpt><trkpt lat="44.445104407812394" lon="11.029989341268767"><ele>234.0</ele><time>2026-04-11T17:06:32.999Z</time></trkpt><trkpt lat="44.445080953965785" lon="11.03010135609385"><ele>231.2</ele><time>2026-04-11T17:06:33.999Z</time></trkpt><trkpt lat="44.44500884428259" lon="11.030207775702028"><ele>228.39999999999998</ele><time>2026-04-11T17:06:34.999Z</time></trkpt><trkpt lat="44.444930341682685" lon="11.030306956956762"><ele>225.6</ele><time>2026-04-11T17:06:35.999Z</time></trkpt><trkpt lat="44.44485241524127" lon="11.03039734170077"><ele>222.8</ele><time>2026-04-11T17:06:36.999Z</time></trkpt><trkpt lat="44.44477236817123" lon="11.030479041426542"><ele>220.0</ele><time>2026-04-11T17:06:37.999Z</time></trkpt><trkpt lat="44.44469282540492" lon="11.03055301610125"><ele>219.83333333333331</ele><time>2026-04-11T17:06:38.999Z</time></trkpt><trkpt lat="44.44461362449932" lon="11.0306193829137"><ele>219.66666666666666</ele><time>2026-04-11T17:06:39.999Z</time></trkpt><trkpt lat="44.44455471184481" lon="11.030687059243759"><ele>219.5</ele><time>2026-04-11T17:06:40.999Z</time></trkpt><trkpt lat="44.444509613202484" lon="11.030777049282952"><ele>219.33333333333331</ele><time>2026-04-11T17:06:41.999Z</time></trkpt><trkpt lat="44.44449025791886" lon="11.030873292226069"><ele>219.16666666666666</ele><time>2026-04-11T17:06:42.999Z</time></trkpt><trkpt lat="44.44449791768854" lon="11.030967099900263"><ele>219.0</ele><time>2026-04-11T17:06:43.999Z</time></trkpt><trkpt lat="44.44453290595452" lon="11.03105931773248"><ele>219.0</ele><time>2026-04-11T17:06:44.999Z</time></trkpt><trkpt lat="44.444590819267646" lon="11.03112646626202"><ele>219.0</ele><time>2026-04-11T17:06:45.998Z</time></trkpt><trkpt lat="44.44466356827484" lon="11.031142224285032"><ele>219.0</ele><time>2026-04-11T17:06:46.998Z</time></trkpt><trkpt lat="44.44474642616801" lon="11.031101152094564"><ele>219.0</ele><time>2026-04-11T17:06:47.998Z</time></trkpt><trkpt lat="44.44483064613357" lon="11.031032098045202"><ele>219.0</ele><time>2026-04-11T17:06:48.998Z</time></trkpt><trkpt lat="44.444910250018225" lon="11.030961702735349"><ele>219.0</ele><time>2026-04-11T17:06:49.998Z</time></trkpt><trkpt lat="44.444989970125874" lon="11.03090461289449"><ele>219.2</ele><time>2026-04-11T17:06:50.998Z</time></trkpt><trkpt lat="44.44507596468323" lon="11.030840131633896"><ele>219.39999999999998</ele><time>2026-04-11T17:06:51.998Z</time></trkpt><trkpt lat="44.44517286991532" lon="11.030780227297104"><ele>219.6</ele><time>2026-04-11T17:06:52.998Z</time></trkpt><trkpt lat="44.4452814999453" lon="11.03070750237202"><ele>219.8</ele><time>2026-04-11T17:06:53.998Z</time></trkpt><trkpt lat="44.445390496296554" lon="11.030643766695036"><ele>220.0</ele><time>2026-04-11T17:06:55Z</time></trkpt><trkpt lat="44.445489460491736" lon="11.030614935513357"><ele>218.0</ele><time>2026-04-11T17:06:56Z</time></trkpt><trkpt lat="44.44559081378417" lon="11.030608113847775"><ele>216.0</ele><time>2026-04-11T17:06:57Z</time></trkpt><trkpt lat="44.445692119797386" lon="11.030634600986136"><ele>214.0</ele><time>2026-04-11T17:06:58Z</time></trkpt><trkpt lat="44.44578495551827" lon="11.03069517199974"><ele>212.0</ele><time>2026-04-11T17:06:59Z</time></trkpt><trkpt lat="44.44587372690092" lon="11.030769230179196"><ele>210.0</ele><time>2026-04-11T17:07:00Z</time></trkpt><trkpt lat="44.44596557335311" lon="11.030853256321466"><ele>206.75</ele><time>2026-04-11T17:07:01Z</time></trkpt><trkpt lat="44.44605859630712" lon="11.030939982494747"><ele>203.5</ele><time>2026-04-11T17:07:02Z</time></trkpt><trkpt lat="44.44615638518015" lon="11.031025838023236"><ele>200.25</ele><time>2026-04-11T17:07:03Z</time></trkpt><trkpt lat="44.4462568980169" lon="11.03109917688133"><ele>197.0</ele><time>2026-04-11T17:07:04Z</time></trkpt><trkpt lat="44.4463651399728" lon="11.03115051025374"><ele>195.5</ele><time>2026-04-11T17:07:05Z</time></trkpt><trkpt lat="44.44647918370221" lon="11.031171602688447"><ele>194.0</ele><time>2026-04-11T17:07:06Z</time></trkpt><trkpt lat="44.446596619773665" lon="11.031172388339312"><ele>192.5</ele><time>2026-04-11T17:07:07Z</time></trkpt><trkpt lat="44.44671646249417" lon="11.031157146876776"><ele>191.0</ele><time>2026-04-11T17:07:08Z</time></trkpt><trkpt lat="44.44683540889058" lon="11.031120673028392"><ele>191.0</ele><time>2026-04-11T17:07:09Z</time></trkpt><trkpt lat="44.446948806420366" lon="11.031041896955639"><ele>191.0</ele><time>2026-04-11T17:07:10Z</time></trkpt><trkpt lat="44.44705478639558" lon="11.030933303024067"><ele>191.0</ele><time>2026-04-11T17:07:11Z</time></trkpt><trkpt lat="44.44715436767929" lon="11.030839540358512"><ele>191.0</ele><time>2026-04-11T17:07:12Z</time></trkpt><trkpt lat="44.44726261618422" lon="11.030722588947945"><ele>186.75</ele><time>2026-04-11T17:07:13Z</time></trkpt><trkpt lat="44.447370117901094" lon="11.030604564961262"><ele>182.5</ele><time>2026-04-11T17:07:14Z</time></trkpt><trkpt lat="44.44747841292061" lon="11.03049726399836"><ele>178.25</ele><time>2026-04-11T17:07:15Z</time></trkpt><trkpt lat="44.44758583755752" lon="11.030425717208878"><ele>174.0</ele><time>2026-04-11T17:07:16Z</time></trkpt><trkpt lat="44.44770019478695" lon="11.030382110418971"><ele>174.0</ele><time>2026-04-11T17:07:17Z</time></trkpt><trkpt lat="44.44782607769772" lon="11.030345854775998"><ele>174.0</ele><time>2026-04-11T17:07:18Z</time></trkpt><trkpt lat="44.44793315519601" lon="11.030320016023122"><ele>174.0</ele><time>2026-04-11T17:07:19Z</time></trkpt><trkpt lat="44.44801261162862" lon="11.030314611781993"><ele>174.0</ele><time>2026-04-11T17:07:20Z</time></trkpt><trkpt lat="44.448095396818914" lon="11.030338645306573"><ele>174.0</ele><time>2026-04-11T17:07:21Z</time></trkpt><trkpt lat="44.44817122924117" lon="11.030412891008734"><ele>172.6</ele><time>2026-04-11T17:07:22Z</time></trkpt><trkpt lat="44.448220550548434" lon="11.030528649705703"><ele>171.2</ele><time>2026-04-11T17:07:23Z</time></trkpt><trkpt lat="44.44825735952152" lon="11.030659426345142"><ele>169.79999999999998</ele><time>2026-04-11T17:07:24Z</time></trkpt><trkpt lat="44.44829194860951" lon="11.030792916620799"><ele>168.39999999999998</ele><time>2026-04-11T17:07:25Z</time></trkpt><trkpt lat="44.44835127687681" lon="11.03090727927833"><ele>167.0</ele><time>2026-04-11T17:07:26Z</time></trkpt><trkpt lat="44.44843679633677" lon="11.030974044108142"><ele>167.0</ele><time>2026-04-11T17:07:27Z</time></trkpt><trkpt lat="44.44853111270495" lon="11.030988477627663"><ele>167.0</ele><time>2026-04-11T17:07:28Z</time></trkpt><trkpt lat="44.44861803656198" lon="11.030951875401739"><ele>167.0</ele><time>2026-04-11T17:07:29Z</time></trkpt><trkpt lat="44.44869839694779" lon="11.030842053989145"><ele>167.0</ele><time>2026-04-11T17:07:30Z</time></trkpt><trkpt lat="44.448786400925506" lon="11.030701504921927"><ele>167.0</ele><time>2026-04-11T17:07:31Z</time></trkpt><trkpt lat="44.448877305660226" lon="11.030572892603114"><ele>166.39999999999998</ele><time>2026-04-11T17:07:32Z</time></trkpt><trkpt lat="44.44895789545455" lon="11.030454150324562"><ele>165.79999999999998</ele><time>2026-04-11T17:07:33Z</time></trkpt><trkpt lat="44.44903154364988" lon="11.030351167393347"><ele>165.2</ele><time>2026-04-11T17:07:34Z</time></trkpt><trkpt lat="44.44910813432165" lon="11.030254850773629"><ele>164.6</ele><time>2026-04-11T17:07:34.999Z</time></trkpt><trkpt lat="44.4491800896968" lon="11.030159807137949"><ele>164.0</ele><time>2026-04-11T17:07:35.999Z</time></trkpt><trkpt lat="44.44924842728871" lon="11.030055530371516"><ele>166.0</ele><time>2026-04-11T17:07:36.999Z</time></trkpt><trkpt lat="44.44931997352558" lon="11.029953261739536"><ele>168.0</ele><time>2026-04-11T17:07:37.999Z</time></trkpt><trkpt lat="44.44938997858445" lon="11.029856613004775"><ele>170.0</ele><time>2026-04-11T17:07:38.999Z</time></trkpt><trkpt lat="44.44945932569052" lon="11.029764062700153"><ele>172.0</ele><time>2026-04-11T17:07:39.999Z</time></trkpt><trkpt lat="44.44953510500017" lon="11.029666287592843"><ele>174.0</ele><time>2026-04-11T17:07:40.999Z</time></trkpt><trkpt lat="44.44961247908804" lon="11.029570438589227"><ele>171.25</ele><time>2026-04-11T17:07:41.999Z</time></trkpt><trkpt lat="44.44972099236347" lon="11.029492189205795"><ele>168.5</ele><time>2026-04-11T17:07:42.999Z</time></trkpt><trkpt lat="44.44983150908197" lon="11.029421430410745"><ele>165.75</ele><time>2026-04-11T17:07:43.999Z</time></trkpt><trkpt lat="44.4499472997015" lon="11.029363402597856"><ele>163.0</ele><time>2026-04-11T17:07:44.999Z</time></trkpt><trkpt lat="44.45008505689954" lon="11.029261681353205"><ele>163.0</ele><time>2026-04-11T17:07:45.999Z</time></trkpt><trkpt lat="44.45020687693449" lon="11.029157415725498"><ele>163.0</ele><time>2026-04-11T17:07:46.999Z</time></trkpt><trkpt lat="44.45036590484384" lon="11.029043562291502"><ele>163.0</ele><time>2026-04-11T17:07:47.999Z</time></trkpt><trkpt lat="44.45054197516401" lon="11.028922429459376"><ele>163.0</ele><time>2026-04-11T17:07:48.999Z</time></trkpt><trkpt lat="44.45072948836997" lon="11.02878647702829"><ele>163.0</ele><time>2026-04-11T17:07:49.999Z</time></trkpt><trkpt lat="44.45092551957924" lon="11.028618631772657"><ele>163.0</ele><time>2026-04-11T17:07:50.999Z</time></trkpt><trkpt lat="44.451110040610516" lon="11.028466769482101"><ele>163.0</ele><time>2026-04-11T17:07:51.999Z</time></trkpt><trkpt lat="44.451278958155335" lon="11.028333835579547"><ele>163.0</ele><time>2026-04-11T17:07:52.999Z</time></trkpt><trkpt lat="44.45143430996149" lon="11.028206015269053"><ele>163.0</ele><time>2026-04-11T17:07:53.999Z</time></trkpt><trkpt lat="44.45158348582679" lon="11.028085161536387"><ele>163.75</ele><time>2026-04-11T17:07:54.999Z</time></trkpt><trkpt lat="44.451716380789826" lon="11.02797467410203"><ele>164.5</ele><time>2026-04-11T17:07:55.999Z</time></trkpt><trkpt lat="44.45184600911256" lon="11.027871652674659"><ele>165.25</ele><time>2026-04-11T17:07:56.999Z</time></trkpt><trkpt lat="44.45196636558872" lon="11.027776834769988"><ele>166.0</ele><time>2026-04-11T17:07:57.999Z</time></trkpt><trkpt lat="44.45208128652184" lon="11.027690626780391"><ele>164.5</ele><time>2026-04-11T17:07:58.999Z</time></trkpt><trkpt lat="44.45219221805784" lon="11.02760055815735"><ele>163.0</ele><time>2026-04-11T17:07:59.999Z</time></trkpt><trkpt lat="44.45230058893141" lon="11.027508419020132"><ele>161.5</ele><time>2026-04-11T17:08:00.999Z</time></trkpt><trkpt lat="44.4524216449504" lon="11.027403841238842"><ele>160.0</ele><time>2026-04-11T17:08:01.999Z</time></trkpt><trkpt lat="44.452532188003076" lon="11.027296071626512"><ele>160.0</ele><time>2026-04-11T17:08:02.999Z</time></trkpt><trkpt lat="44.45262943218656" lon="11.027191717046676"><ele>160.0</ele><time>2026-04-11T17:08:03.999Z</time></trkpt><trkpt lat="44.452740395784105" lon="11.027075002021482"><ele>160.0</ele><time>2026-04-11T17:08:04.999Z</time></trkpt><trkpt lat="44.45286549621043" lon="11.026953170335787"><ele>160.0</ele><time>2026-04-11T17:08:05.999Z</time></trkpt><trkpt lat="44.45301761457806" lon="11.026828372806701"><ele>158.66666666666669</ele><time>2026-04-11T17:08:06.999Z</time></trkpt><trkpt lat="44.453200669560765" lon="11.026722744953462"><ele>157.33333333333334</ele><time>2026-04-11T17:08:07.999Z</time></trkpt><trkpt lat="44.453412006573686" lon="11.026643172933163"><ele>156.0</ele><time>2026-04-11T17:08:08.999Z</time></trkpt><trkpt lat="44.45362050609047" lon="11.026597619747566"><ele>157.0</ele><time>2026-04-11T17:08:09.999Z</time></trkpt><trkpt lat="44.45380181069343" lon="11.026547773199663"><ele>158.0</ele><time>2026-04-11T17:08:10.999Z</time></trkpt><trkpt lat="44.45398094923846" lon="11.026521599061656"><ele>159.0</ele><time>2026-04-11T17:08:11.999Z</time></trkpt><trkpt lat="44.45416436528421" lon="11.026521664977038"><ele>159.0</ele><time>2026-04-11T17:08:12.999Z</time></trkpt><trkpt lat="44.45436032626508" lon="11.02656421303657"><ele>159.0</ele><time>2026-04-11T17:08:13.999Z</time></trkpt><trkpt lat="44.45455297816016" lon="11.026640917393072"><ele>159.0</ele><time>2026-04-11T17:08:14.999Z</time></trkpt><trkpt lat="44.45473658392326" lon="11.026722677718853"><ele>156.0</ele><time>2026-04-11T17:08:15.999Z</time></trkpt><trkpt lat="44.45491476055372" lon="11.026827768001487"><ele>153.0</ele><time>2026-04-11T17:08:16.999Z</time></trkpt><trkpt lat="44.455110757974744" lon="11.026884637165274"><ele>150.0</ele><time>2026-04-11T17:08:17.999Z</time></trkpt><trkpt lat="44.455297339160744" lon="11.026958901556156"><ele>150.33333333333334</ele><time>2026-04-11T17:08:18.999Z</time></trkpt><trkpt lat="44.45547596650781" lon="11.027032510618437"><ele>150.66666666666669</ele><time>2026-04-11T17:08:19.999Z</time></trkpt><trkpt lat="44.45565917707626" lon="11.027092381451201"><ele>151.0</ele><time>2026-04-11T17:08:20.999Z</time></trkpt><trkpt lat="44.455852037759364" lon="11.027137512743728"><ele>151.0</ele><time>2026-04-11T17:08:21.999Z</time></trkpt><trkpt lat="44.45604545807346" lon="11.027171619400336"><ele>151.0</ele><time>2026-04-11T17:08:22.999Z</time></trkpt><trkpt lat="44.45623146101341" lon="11.02720540851719"><ele>151.0</ele><time>2026-04-11T17:08:23.999Z</time></trkpt><trkpt lat="44.45639710193139" lon="11.027230856492384"><ele>152.33333333333334</ele><time>2026-04-11T17:08:24.999Z</time></trkpt><trkpt lat="44.45655331300413" lon="11.027261837417585"><ele>153.66666666666666</ele><time>2026-04-11T17:08:25.999Z</time></trkpt><trkpt lat="44.45671208168771" lon="11.027293064210614"><ele>155.0</ele><time>2026-04-11T17:08:26.999Z</time></trkpt><trkpt lat="44.45688061468549" lon="11.027324682514962"><ele>155.0</ele><time>2026-04-11T17:08:27.999Z</time></trkpt><trkpt lat="44.457050580823015" lon="11.027355730827543"><ele>155.0</ele><time>2026-04-11T17:08:28.999Z</time></trkpt><trkpt lat="44.45720539156624" lon="11.02738507597635"><ele>155.0</ele><time>2026-04-11T17:08:29.999Z</time></trkpt><trkpt lat="44.457349253161084" lon="11.027407937375278"><ele>155.0</ele><time>2026-04-11T17:08:30.999Z</time></trkpt><trkpt lat="44.45748114560419" lon="11.027429178554835"><ele>155.0</ele><time>2026-04-11T17:08:31.999Z</time></trkpt><trkpt lat="44.457617169564955" lon="11.027434293073451"><ele>155.0</ele><time>2026-04-11T17:08:32.999Z</time></trkpt><trkpt lat="44.45774320584723" lon="11.02741293879855"><ele>155.0</ele><time>2026-04-11T17:08:33.999Z</time></trkpt><trkpt lat="44.4578595752613" lon="11.027373970257344"><ele>155.25</ele><time>2026-04-11T17:08:34.999Z</time></trkpt><trkpt lat="44.45796863161676" lon="11.027311737327194"><ele>155.5</ele><time>2026-04-11T17:08:35.999Z</time></trkpt><trkpt lat="44.45808195573545" lon="11.027234634062397"><ele>155.75</ele><time>2026-04-11T17:08:36.999Z</time></trkpt><trkpt lat="44.458211238475755" lon="11.027201577766077"><ele>156.0</ele><time>2026-04-11T17:08:37.999Z</time></trkpt><trkpt lat="44.45832850463636" lon="11.027187120330366"><ele>156.0</ele><time>2026-04-11T17:08:38.999Z</time></trkpt><trkpt lat="44.458450914074994" lon="11.027194814074338"><ele>156.0</ele><time>2026-04-11T17:08:39.999Z</time></trkpt><trkpt lat="44.458584831799534" lon="11.027211265055481"><ele>156.0</ele><time>2026-04-11T17:08:40.998Z</time></trkpt><trkpt lat="44.45871188357497" lon="11.027224228435264"><ele>156.0</ele><time>2026-04-11T17:08:41.998Z</time></trkpt><trkpt lat="44.45884097477448" lon="11.027271943401937"><ele>154.25</ele><time>2026-04-11T17:08:42.998Z</time></trkpt><trkpt lat="44.458978379270675" lon="11.027307695937816"><ele>152.5</ele><time>2026-04-11T17:08:43.998Z</time></trkpt><trkpt lat="44.459121609730275" lon="11.027344161010237"><ele>150.75</ele><time>2026-04-11T17:08:44.998Z</time></trkpt><trkpt lat="44.459254952553316" lon="11.027384813987235"><ele>149.0</ele><time>2026-04-11T17:08:45.998Z</time></trkpt><trkpt lat="44.45940227925556" lon="11.027399288929143"><ele>149.0</ele><time>2026-04-11T17:08:46.998Z</time></trkpt><trkpt lat="44.45955790406735" lon="11.027365640988515"><ele>149.0</ele><time>2026-04-11T17:08:47.998Z</time></trkpt><trkpt lat="44.45970785930264" lon="11.027291050101768"><ele>149.0</ele><time>2026-04-11T17:08:48.998Z</time></trkpt><trkpt lat="44.45984181243817" lon="11.027208872166621"><ele>146.75</ele><time>2026-04-11T17:08:49.998Z</time></trkpt><trkpt lat="44.459969938351286" lon="11.027128656795423"><ele>144.5</ele><time>2026-04-11T17:08:50.998Z</time></trkpt><trkpt lat="44.460119730664516" lon="11.027061397827511"><ele>142.25</ele><time>2026-04-11T17:08:51.998Z</time></trkpt><trkpt lat="44.46024561775427" lon="11.02695338757668"><ele>140.0</ele><time>2026-04-11T17:08:52.998Z</time></trkpt><trkpt lat="44.460382491774375" lon="11.026882555514863"><ele>139.66666666666666</ele><time>2026-04-11T17:08:53.998Z</time></trkpt><trkpt lat="44.46054057760343" lon="11.02682315276309"><ele>139.33333333333334</ele><time>2026-04-11T17:08:54.998Z</time></trkpt><trkpt lat="44.460712978220734" lon="11.026734047976523"><ele>139.0</ele><time>2026-04-11T17:08:55.998Z</time></trkpt><trkpt lat="44.46089926656182" lon="11.026625584349093"><ele>139.0</ele><time>2026-04-11T17:08:56.998Z</time></trkpt><trkpt lat="44.46108814145379" lon="11.026492984848465"><ele>139.0</ele><time>2026-04-11T17:08:57.998Z</time></trkpt><trkpt lat="44.461273465395784" lon="11.026398501336091"><ele>139.0</ele><time>2026-04-11T17:08:58.998Z</time></trkpt><trkpt lat="44.46143777082703" lon="11.026322090953906"><ele>138.0</ele><time>2026-04-11T17:08:59.998Z</time></trkpt><trkpt lat="44.461592905911424" lon="11.026283761652365"><ele>137.0</ele><time>2026-04-11T17:09:01Z</time></trkpt><trkpt lat="44.461773715415056" lon="11.026307169542363"><ele>136.0</ele><time>2026-04-11T17:09:02Z</time></trkpt><trkpt lat="44.46198435459127" lon="11.026329857225535"><ele>133.5</ele><time>2026-04-11T17:09:03Z</time></trkpt><trkpt lat="44.462215066789966" lon="11.026346540180501"><ele>131.0</ele><time>2026-04-11T17:09:04Z</time></trkpt><trkpt lat="44.46244890068004" lon="11.02637671060603"><ele>131.0</ele><time>2026-04-11T17:09:05Z</time></trkpt><trkpt lat="44.46268453639191" lon="11.02639919349716"><ele>131.0</ele><time>2026-04-11T17:09:06Z</time></trkpt><trkpt lat="44.46290528406985" lon="11.026420349442898"><ele>131.0</ele><time>2026-04-11T17:09:07Z</time></trkpt><trkpt lat="44.46310891371303" lon="11.02642269864339"><ele>131.0</ele><time>2026-04-11T17:09:08Z</time></trkpt><trkpt lat="44.46331884586481" lon="11.026424639455215"><ele>131.0</ele><time>2026-04-11T17:09:09Z</time></trkpt><trkpt lat="44.463514548395814" lon="11.026433931869473"><ele>131.0</ele><time>2026-04-11T17:09:10Z</time></trkpt><trkpt lat="44.46369548289666" lon="11.02645175610619"><ele>131.0</ele><time>2026-04-11T17:09:11Z</time></trkpt><trkpt lat="44.46388018885849" lon="11.026470687853402"><ele>131.0</ele><time>2026-04-11T17:09:12Z</time></trkpt><trkpt lat="44.46407473926593" lon="11.026468332464088"><ele>131.66666666666666</ele><time>2026-04-11T17:09:13Z</time></trkpt><trkpt lat="44.464290827819305" lon="11.02643705362741"><ele>132.33333333333334</ele><time>2026-04-11T17:09:14Z</time></trkpt><trkpt lat="44.464501053541426" lon="11.026383674732402"><ele>133.0</ele><time>2026-04-11T17:09:15Z</time></trkpt><trkpt lat="44.46469693436451" lon="11.026346182267698"><ele>133.0</ele><time>2026-04-11T17:09:16Z</time></trkpt><trkpt lat="44.46488447134588" lon="11.026331806087079"><ele>133.0</ele><time>2026-04-11T17:09:17Z</time></trkpt><trkpt lat="44.465054845494514" lon="11.026302069396877"><ele>133.0</ele><time>2026-04-11T17:09:18Z</time></trkpt><trkpt lat="44.4652117371362" lon="11.026240850782738"><ele>133.0</ele><time>2026-04-11T17:09:19Z</time></trkpt><trkpt lat="44.46538206439816" lon="11.026136545057069"><ele>133.0</ele><time>2026-04-11T17:09:20Z</time></trkpt><trkpt lat="44.4655634665006" lon="11.026000182677246"><ele>133.0</ele><time>2026-04-11T17:09:21Z</time></trkpt><trkpt lat="44.46575058292547" lon="11.02583933181605"><ele>135.0</ele><time>2026-04-11T17:09:22Z</time></trkpt><trkpt lat="44.46595029020546" lon="11.025669969000125"><ele>137.0</ele><time>2026-04-11T17:09:23Z</time></trkpt><trkpt lat="44.46615327289121" lon="11.025495038009753"><ele>131.66666666666666</ele><time>2026-04-11T17:09:24Z</time></trkpt><trkpt lat="44.466347661159034" lon="11.02531972497861"><ele>126.33333333333334</ele><time>2026-04-11T17:09:25Z</time></trkpt><trkpt lat="44.46652287644787" lon="11.025153693937028"><ele>121.0</ele><time>2026-04-11T17:09:26Z</time></trkpt><trkpt lat="44.46668270884415" lon="11.025002496363063"><ele>122.0</ele><time>2026-04-11T17:09:27Z</time></trkpt><trkpt lat="44.466839721616886" lon="11.024848480311036"><ele>123.0</ele><time>2026-04-11T17:09:28Z</time></trkpt><trkpt lat="44.46698304947513" lon="11.024723765238068"><ele>124.0</ele><time>2026-04-11T17:09:29Z</time></trkpt><trkpt lat="44.46711102890078" lon="11.024623560356577"><ele>124.0</ele><time>2026-04-11T17:09:30Z</time></trkpt><trkpt lat="44.46723079949159" lon="11.024538642553205"><ele>124.0</ele><time>2026-04-11T17:09:31Z</time></trkpt><trkpt lat="44.4673491006624" lon="11.024460604854294"><ele>124.0</ele><time>2026-04-11T17:09:32Z</time></trkpt><trkpt lat="44.46748351578273" lon="11.024370707689782"><ele>124.0</ele><time>2026-04-11T17:09:33Z</time></trkpt><trkpt lat="44.46763428102514" lon="11.02429029446246"><ele>124.0</ele><time>2026-04-11T17:09:34Z</time></trkpt><trkpt lat="44.46779288323918" lon="11.024213732999659"><ele>124.0</ele><time>2026-04-11T17:09:35Z</time></trkpt><trkpt lat="44.4679660717454" lon="11.024131907403289"><ele>124.0</ele><time>2026-04-11T17:09:36Z</time></trkpt><trkpt lat="44.4681459161851" lon="11.02401966875269"><ele>123.66666666666667</ele><time>2026-04-11T17:09:37Z</time></trkpt><trkpt lat="44.46831017450811" lon="11.023924560890373"><ele>123.33333333333334</ele><time>2026-04-11T17:09:38Z</time></trkpt><trkpt lat="44.468483787619675" lon="11.023832986680066"><ele>123.0</ele><time>2026-04-11T17:09:39Z</time></trkpt><trkpt lat="44.46864032346396" lon="11.023752326716114"><ele>122.5</ele><time>2026-04-11T17:09:40Z</time></trkpt><trkpt lat="44.46878925430572" lon="11.0236761915849"><ele>122.0</ele><time>2026-04-11T17:09:41Z</time></trkpt><trkpt lat="44.468926130566814" lon="11.023602320847258"><ele>121.5</ele><time>2026-04-11T17:09:42Z</time></trkpt><trkpt lat="44.46905317515358" lon="11.02352717087473"><ele>121.0</ele><time>2026-04-11T17:09:43Z</time></trkpt><trkpt lat="44.469175964681455" lon="11.0234637554032"><ele>121.0</ele><time>2026-04-11T17:09:44Z</time></trkpt><trkpt lat="44.46929612965992" lon="11.023401098745492"><ele>121.0</ele><time>2026-04-11T17:09:45Z</time></trkpt><trkpt lat="44.46941025264515" lon="11.023339992056327"><ele>121.0</ele><time>2026-04-11T17:09:46Z</time></trkpt><trkpt lat="44.469506684186996" lon="11.023286644565932"><ele>121.0</ele><time>2026-04-11T17:09:46.999Z</time></trkpt><trkpt lat="44.46958681881208" lon="11.023246295665224"><ele>121.0</ele><time>2026-04-11T17:09:47.999Z</time></trkpt><trkpt lat="44.46965023808532" lon="11.023212224718403"><ele>120.83333333333334</ele><time>2026-04-11T17:09:48.999Z</time></trkpt><trkpt lat="44.46972932577162" lon="11.02317536908158"><ele>120.66666666666667</ele><time>2026-04-11T17:09:50.999Z</time></trkpt><trkpt lat="44.46979968004454" lon="11.023134951529467"><ele>120.5</ele><time>2026-04-11T17:09:54.999Z</time></trkpt><trkpt lat="44.46980194780108" lon="11.022944733007336"><ele>120.33333333333334</ele><time>2026-04-11T17:09:56.999Z</time></trkpt><trkpt lat="44.46977989732093" lon="11.022850276365439"><ele>120.16666666666667</ele><time>2026-04-11T17:09:57.999Z</time></trkpt><trkpt lat="44.469745190645135" lon="11.022757363208646"><ele>120.0</ele><time>2026-04-11T17:09:58.999Z</time></trkpt><trkpt lat="44.46971688525188" lon="11.022652239560738"><ele>120.0</ele><time>2026-04-11T17:09:59.999Z</time></trkpt><trkpt lat="44.46968693831345" lon="11.022523900761676"><ele>120.0</ele><time>2026-04-11T17:10:00.999Z</time></trkpt><trkpt lat="44.469659564971295" lon="11.022376686866947"><ele>120.0</ele><time>2026-04-11T17:10:01.999Z</time></trkpt><trkpt lat="44.469632838982754" lon="11.022225569380314"><ele>120.0</ele><time>2026-04-11T17:10:02.999Z</time></trkpt><trkpt lat="44.46960557933684" lon="11.022078796397834"><ele>120.0</ele><time>2026-04-11T17:10:03.999Z</time></trkpt><trkpt lat="44.469584073680934" lon="11.021934384901641"><ele>120.25</ele><time>2026-04-11T17:10:04.999Z</time></trkpt><trkpt lat="44.46955446053959" lon="11.021773219313317"><ele>120.5</ele><time>2026-04-11T17:10:05.999Z</time></trkpt><trkpt lat="44.4695210771601" lon="11.021587803286705"><ele>120.75</ele><time>2026-04-11T17:10:06.999Z</time></trkpt><trkpt lat="44.46949578969266" lon="11.02140499938856"><ele>121.0</ele><time>2026-04-11T17:10:07.999Z</time></trkpt><trkpt lat="44.46946801039784" lon="11.021240700644524"><ele>120.75</ele><time>2026-04-11T17:10:08.999Z</time></trkpt><trkpt lat="44.46943510284849" lon="11.021070910966888"><ele>120.5</ele><time>2026-04-11T17:10:09.999Z</time></trkpt><trkpt lat="44.469411173788465" lon="11.020916761783255"><ele>120.25</ele><time>2026-04-11T17:10:10.999Z</time></trkpt><trkpt lat="44.46939709750947" lon="11.020763627382586"><ele>120.0</ele><time>2026-04-11T17:10:11.999Z</time></trkpt><trkpt lat="44.4693822314531" lon="11.020610695449378"><ele>120.0</ele><time>2026-04-11T17:10:12.999Z</time></trkpt><trkpt lat="44.46934160011262" lon="11.020431523769421"><ele>120.0</ele><time>2026-04-11T17:10:13.999Z</time></trkpt><trkpt lat="44.469305185741995" lon="11.020253389091915"><ele>120.0</ele><time>2026-04-11T17:10:14.999Z</time></trkpt><trkpt lat="44.4692729655716" lon="11.020074148019967"><ele>120.0</ele><time>2026-04-11T17:10:15.999Z</time></trkpt><trkpt lat="44.469244471419" lon="11.019901940203255"><ele>120.25</ele><time>2026-04-11T17:10:16.999Z</time></trkpt><trkpt lat="44.469220736746436" lon="11.019741085526949"><ele>120.5</ele><time>2026-04-11T17:10:17.999Z</time></trkpt><trkpt lat="44.469188230945036" lon="11.019572356588043"><ele>120.75</ele><time>2026-04-11T17:10:18.999Z</time></trkpt><trkpt lat="44.46915262114441" lon="11.019403914701924"><ele>121.0</ele><time>2026-04-11T17:10:19.999Z</time></trkpt><trkpt lat="44.46909529012793" lon="11.019212244991538"><ele>119.25</ele><time>2026-04-11T17:10:20.999Z</time></trkpt><trkpt lat="44.46902758879477" lon="11.019054549735372"><ele>117.5</ele><time>2026-04-11T17:10:21.999Z</time></trkpt><trkpt lat="44.46893380895672" lon="11.018910372678423"><ele>115.75</ele><time>2026-04-11T17:10:22.999Z</time></trkpt><trkpt lat="44.46881948232756" lon="11.018788064543086"><ele>114.0</ele><time>2026-04-11T17:10:23.999Z</time></trkpt><trkpt lat="44.46869678710434" lon="11.018686397329805"><ele>114.0</ele><time>2026-04-11T17:10:24.999Z</time></trkpt><trkpt lat="44.46854133803736" lon="11.018589433172293"><ele>114.0</ele><time>2026-04-11T17:10:25.999Z</time></trkpt><trkpt lat="44.46835681693883" lon="11.01848240978196"><ele>114.0</ele><time>2026-04-11T17:10:26.999Z</time></trkpt><trkpt lat="44.468179310866645" lon="11.018345025944848"><ele>113.33333333333334</ele><time>2026-04-11T17:10:27.999Z</time></trkpt><trkpt lat="44.46798515657255" lon="11.018184721650373"><ele>112.66666666666667</ele><time>2026-04-11T17:10:28.999Z</time></trkpt><trkpt lat="44.46780971516101" lon="11.017992415387944"><ele>112.0</ele><time>2026-04-11T17:10:29.999Z</time></trkpt><trkpt lat="44.467620054111265" lon="11.017783604822744"><ele>114.0</ele><time>2026-04-11T17:10:30.999Z</time></trkpt><trkpt lat="44.46742759283565" lon="11.017588817139202"><ele>116.0</ele><time>2026-04-11T17:10:31.999Z</time></trkpt><trkpt lat="44.46727618332116" lon="11.017378606434754"><ele>116.0</ele><time>2026-04-11T17:10:32.999Z</time></trkpt><trkpt lat="44.46713790524756" lon="11.017167718360621"><ele>116.0</ele><time>2026-04-11T17:10:33.999Z</time></trkpt><trkpt lat="44.466999071650264" lon="11.016953740977115"><ele>116.0</ele><time>2026-04-11T17:10:34.999Z</time></trkpt><trkpt lat="44.466855452189634" lon="11.016729002349342"><ele>116.33333333333333</ele><time>2026-04-11T17:10:35.999Z</time></trkpt><trkpt lat="44.466714941199285" lon="11.016485736829068"><ele>116.66666666666666</ele><time>2026-04-11T17:10:36.999Z</time></trkpt><trkpt lat="44.46659393332327" lon="11.016242667844336"><ele>117.0</ele><time>2026-04-11T17:10:37.999Z</time></trkpt><trkpt lat="44.466498513387336" lon="11.016017596792022"><ele>117.33333333333334</ele><time>2026-04-11T17:10:38.999Z</time></trkpt><trkpt lat="44.46641531744434" lon="11.015798550123282"><ele>117.66666666666667</ele><time>2026-04-11T17:10:39.999Z</time></trkpt><trkpt lat="44.466353831114176" lon="11.015578291090469"><ele>118.0</ele><time>2026-04-11T17:10:40.999Z</time></trkpt><trkpt lat="44.46627720737629" lon="11.015374645521764"><ele>118.0</ele><time>2026-04-11T17:10:41.999Z</time></trkpt><trkpt lat="44.46620776986167" lon="11.015209235659732"><ele>118.0</ele><time>2026-04-11T17:10:42.999Z</time></trkpt><trkpt lat="44.46614311957955" lon="11.015035410277001"><ele>118.0</ele><time>2026-04-11T17:10:43.999Z</time></trkpt><trkpt lat="44.46608373831348" lon="11.014864769100296"><ele>118.0</ele><time>2026-04-11T17:10:44.999Z</time></trkpt><trkpt lat="44.46605177707982" lon="11.014693998950005"><ele>117.5</ele><time>2026-04-11T17:10:45.998Z</time></trkpt><trkpt lat="44.466029324509456" lon="11.014522488795297"><ele>117.0</ele><time>2026-04-11T17:10:46.998Z</time></trkpt><trkpt lat="44.46592252579776" lon="11.014347351396363"><ele>116.5</ele><time>2026-04-11T17:10:47.998Z</time></trkpt><trkpt lat="44.46591229990489" lon="11.014208299152141"><ele>116.0</ele><time>2026-04-11T17:10:48.998Z</time></trkpt><trkpt lat="44.465937689286356" lon="11.014099596997838"><ele>115.75</ele><time>2026-04-11T17:10:49.998Z</time></trkpt><trkpt lat="44.465981603414505" lon="11.013994254157511"><ele>115.5</ele><time>2026-04-11T17:10:50.998Z</time></trkpt><trkpt lat="44.46605072264708" lon="11.013862863331582"><ele>115.25</ele><time>2026-04-11T17:10:51.998Z</time></trkpt><trkpt lat="44.46614781946203" lon="11.01373252249237"><ele>115.0</ele><time>2026-04-11T17:10:52.998Z</time></trkpt><trkpt lat="44.46626920912774" lon="11.013615155195264"><ele>115.0</ele><time>2026-04-11T17:10:53.998Z</time></trkpt><trkpt lat="44.46639919328058" lon="11.013485001673363"><ele>115.0</ele><time>2026-04-11T17:10:54.998Z</time></trkpt><trkpt lat="44.46654086580574" lon="11.013344741605371"><ele>115.0</ele><time>2026-04-11T17:10:55.998Z</time></trkpt><trkpt lat="44.466684840781284" lon="11.013207184366484"><ele>115.33333333333334</ele><time>2026-04-11T17:10:56.998Z</time></trkpt><trkpt lat="44.466830035662625" lon="11.013068839976134"><ele>115.66666666666666</ele><time>2026-04-11T17:10:57.998Z</time></trkpt><trkpt lat="44.466963904454516" lon="11.012946521514097"><ele>116.0</ele><time>2026-04-11T17:10:58.998Z</time></trkpt><trkpt lat="44.46708704938117" lon="11.01282879831533"><ele>115.6</ele><time>2026-04-11T17:10:59.998Z</time></trkpt><trkpt lat="44.46719222498614" lon="11.012732128730551"><ele>115.19999999999999</ele><time>2026-04-11T17:11:00.998Z</time></trkpt><trkpt lat="44.467281705582565" lon="11.012644590506326"><ele>114.80000000000001</ele><time>2026-04-11T17:11:01.998Z</time></trkpt><trkpt lat="44.46737447007572" lon="11.012573593174817"><ele>114.4</ele><time>2026-04-11T17:11:02.998Z</time></trkpt><trkpt lat="44.4674553959683" lon="11.012513914933685"><ele>114.0</ele><time>2026-04-11T17:11:03.998Z</time></trkpt><trkpt lat="44.46754212418489" lon="11.012460324300795"><ele>113.0</ele><time>2026-04-11T17:11:05.998Z</time></trkpt></trkseg></trk></gpx>